<?xml version="1.0" encoding="UTF-8" standalone="no" ?>
<gpx xmlns="http://www.topografix.com/GPX/1/1" xmlns:xsi="http://www.w3.org/2001/XMLSchema-instance" xsi:schemaLocation="http://www.topografix.com/GPX/1/1 http://www.topografix.com/GPX/1/1/gpx.xsd" version="1.1" creator="VisuGPX - https://www.visugpx.com">
  <metadata>
    <name>Rimbach - Sternsee - Neuweiher</name>
    <desc><![CDATA[Trace AlpineQuest 15/07/2014 11:48:53]]></desc>
  </metadata>
  <trk>
    <name><![CDATA[Rimbach - Sternsee - Neuweiher_1]]></name>
    <trkseg>
      <trkpt lat="47.82452" lon="6.95005">
        <ele>562</ele>
        <time>2014-07-15T09:48:53Z</time>
      </trkpt>
      <trkpt lat="47.82452" lon="6.95005">
        <ele>562</ele>
        <time>2014-07-15T09:49:08Z</time>
      </trkpt>
      <trkpt lat="47.82452" lon="6.95005">
        <ele>562</ele>
        <time>2014-07-15T09:49:09Z</time>
      </trkpt>
      <trkpt lat="47.82452" lon="6.95005">
        <ele>562</ele>
        <time>2014-07-15T09:49:10Z</time>
      </trkpt>
      <trkpt lat="47.82452" lon="6.95005">
        <ele>562</ele>
        <time>2014-07-15T09:49:11Z</time>
      </trkpt>
      <trkpt lat="47.82452" lon="6.95005">
        <ele>562</ele>
        <time>2014-07-15T09:49:12Z</time>
      </trkpt>
      <trkpt lat="47.82452" lon="6.95005">
        <ele>562</ele>
        <time>2014-07-15T09:49:13Z</time>
      </trkpt>
      <trkpt lat="47.82452" lon="6.95005">
        <ele>562</ele>
        <time>2014-07-15T09:49:14Z</time>
      </trkpt>
      <trkpt lat="47.82452" lon="6.95005">
        <ele>562</ele>
        <time>2014-07-15T09:49:15Z</time>
      </trkpt>
      <trkpt lat="47.82452" lon="6.95005">
        <ele>562</ele>
        <time>2014-07-15T09:49:16Z</time>
      </trkpt>
      <trkpt lat="47.82452" lon="6.95005">
        <ele>562</ele>
        <time>2014-07-15T09:49:17Z</time>
      </trkpt>
      <trkpt lat="47.82452" lon="6.95005">
        <ele>562</ele>
        <time>2014-07-15T09:49:18Z</time>
      </trkpt>
      <trkpt lat="47.82452" lon="6.95005">
        <ele>562</ele>
        <time>2014-07-15T09:49:19Z</time>
      </trkpt>
      <trkpt lat="47.82452" lon="6.95005">
        <ele>562</ele>
        <time>2014-07-15T09:49:20Z</time>
      </trkpt>
      <trkpt lat="47.82452" lon="6.95005">
        <ele>562</ele>
        <time>2014-07-15T09:49:21Z</time>
      </trkpt>
      <trkpt lat="47.82452" lon="6.95005">
        <ele>562</ele>
        <time>2014-07-15T09:49:22Z</time>
      </trkpt>
      <trkpt lat="47.82452" lon="6.95005">
        <ele>562</ele>
        <time>2014-07-15T09:49:23Z</time>
      </trkpt>
      <trkpt lat="47.82452" lon="6.95005">
        <ele>562</ele>
        <time>2014-07-15T09:49:24Z</time>
      </trkpt>
      <trkpt lat="47.82452" lon="6.95005">
        <ele>562</ele>
        <time>2014-07-15T09:49:25Z</time>
      </trkpt>
      <trkpt lat="47.82452" lon="6.95005">
        <ele>562</ele>
        <time>2014-07-15T09:49:26Z</time>
      </trkpt>
      <trkpt lat="47.82452" lon="6.95005">
        <ele>562</ele>
        <time>2014-07-15T09:49:27Z</time>
      </trkpt>
      <trkpt lat="47.82452" lon="6.95005">
        <ele>562</ele>
        <time>2014-07-15T09:49:28Z</time>
      </trkpt>
      <trkpt lat="47.82452" lon="6.95005">
        <ele>562</ele>
        <time>2014-07-15T09:49:29Z</time>
      </trkpt>
      <trkpt lat="47.82452" lon="6.95005">
        <ele>562</ele>
        <time>2014-07-15T09:49:30Z</time>
      </trkpt>
      <trkpt lat="47.82452" lon="6.95005">
        <ele>562</ele>
        <time>2014-07-15T09:49:31Z</time>
      </trkpt>
      <trkpt lat="47.82452" lon="6.95005">
        <ele>562</ele>
        <time>2014-07-15T09:49:32Z</time>
      </trkpt>
      <trkpt lat="47.82452" lon="6.95005">
        <ele>562</ele>
        <time>2014-07-15T09:49:33Z</time>
      </trkpt>
      <trkpt lat="47.82452" lon="6.95005">
        <ele>562</ele>
        <time>2014-07-15T09:49:34Z</time>
      </trkpt>
      <trkpt lat="47.82452" lon="6.95005">
        <ele>562</ele>
        <time>2014-07-15T09:49:35Z</time>
      </trkpt>
      <trkpt lat="47.82452" lon="6.95005">
        <ele>562</ele>
        <time>2014-07-15T09:49:36Z</time>
      </trkpt>
      <trkpt lat="47.82452" lon="6.95005">
        <ele>562</ele>
        <time>2014-07-15T09:49:37Z</time>
      </trkpt>
      <trkpt lat="47.82452" lon="6.95005">
        <ele>562</ele>
        <time>2014-07-15T09:49:38Z</time>
      </trkpt>
      <trkpt lat="47.82452" lon="6.95005">
        <ele>562</ele>
        <time>2014-07-15T09:49:39Z</time>
      </trkpt>
      <trkpt lat="47.82452" lon="6.95005">
        <ele>562</ele>
        <time>2014-07-15T09:49:40Z</time>
      </trkpt>
      <trkpt lat="47.82452" lon="6.95007">
        <ele>562</ele>
        <time>2014-07-15T09:49:42Z</time>
      </trkpt>
      <trkpt lat="47.82452" lon="6.95008">
        <ele>562</ele>
        <time>2014-07-15T09:49:44Z</time>
      </trkpt>
      <trkpt lat="47.82451" lon="6.95009">
        <ele>562</ele>
        <time>2014-07-15T09:49:45Z</time>
      </trkpt>
      <trkpt lat="47.82452" lon="6.95009">
        <ele>562</ele>
        <time>2014-07-15T09:49:46Z</time>
      </trkpt>
      <trkpt lat="47.82451" lon="6.95009">
        <ele>562</ele>
        <time>2014-07-15T09:49:47Z</time>
      </trkpt>
      <trkpt lat="47.82451" lon="6.95009">
        <ele>562</ele>
        <time>2014-07-15T09:49:48Z</time>
      </trkpt>
      <trkpt lat="47.82451" lon="6.95009">
        <ele>562</ele>
        <time>2014-07-15T09:49:49Z</time>
      </trkpt>
      <trkpt lat="47.8245" lon="6.95009">
        <ele>562</ele>
        <time>2014-07-15T09:49:50Z</time>
      </trkpt>
      <trkpt lat="47.8245" lon="6.95009">
        <ele>562</ele>
        <time>2014-07-15T09:49:51Z</time>
      </trkpt>
      <trkpt lat="47.82451" lon="6.95009">
        <ele>562</ele>
        <time>2014-07-15T09:49:52Z</time>
      </trkpt>
      <trkpt lat="47.8245" lon="6.9501">
        <ele>562</ele>
        <time>2014-07-15T09:49:53Z</time>
      </trkpt>
      <trkpt lat="47.8245" lon="6.9501">
        <ele>562</ele>
        <time>2014-07-15T09:49:54Z</time>
      </trkpt>
      <trkpt lat="47.8245" lon="6.95011">
        <ele>562</ele>
        <time>2014-07-15T09:49:55Z</time>
      </trkpt>
      <trkpt lat="47.8245" lon="6.95011">
        <ele>562</ele>
        <time>2014-07-15T09:49:56Z</time>
      </trkpt>
      <trkpt lat="47.8245" lon="6.95011">
        <ele>562</ele>
        <time>2014-07-15T09:49:57Z</time>
      </trkpt>
      <trkpt lat="47.8245" lon="6.95011">
        <ele>562</ele>
        <time>2014-07-15T09:49:58Z</time>
      </trkpt>
      <trkpt lat="47.8245" lon="6.95011">
        <ele>562</ele>
        <time>2014-07-15T09:49:59Z</time>
      </trkpt>
      <trkpt lat="47.82449" lon="6.95011">
        <ele>562</ele>
        <time>2014-07-15T09:50:00Z</time>
      </trkpt>
      <trkpt lat="47.82449" lon="6.95011">
        <ele>562</ele>
        <time>2014-07-15T09:50:01Z</time>
      </trkpt>
      <trkpt lat="47.82449" lon="6.95012">
        <ele>562</ele>
        <time>2014-07-15T09:50:02Z</time>
      </trkpt>
      <trkpt lat="47.82449" lon="6.95014">
        <ele>562</ele>
        <time>2014-07-15T09:50:03Z</time>
      </trkpt>
      <trkpt lat="47.8245" lon="6.95012">
        <ele>562</ele>
        <time>2014-07-15T09:50:04Z</time>
      </trkpt>
      <trkpt lat="47.8245" lon="6.95011">
        <ele>562</ele>
        <time>2014-07-15T09:50:05Z</time>
      </trkpt>
      <trkpt lat="47.8245" lon="6.9501">
        <ele>562</ele>
        <time>2014-07-15T09:50:06Z</time>
      </trkpt>
      <trkpt lat="47.8245" lon="6.95009">
        <ele>562</ele>
        <time>2014-07-15T09:50:07Z</time>
      </trkpt>
      <trkpt lat="47.8245" lon="6.95009">
        <ele>562</ele>
        <time>2014-07-15T09:50:08Z</time>
      </trkpt>
      <trkpt lat="47.8245" lon="6.95009">
        <ele>562</ele>
        <time>2014-07-15T09:50:09Z</time>
      </trkpt>
      <trkpt lat="47.8245" lon="6.95008">
        <ele>562</ele>
        <time>2014-07-15T09:50:10Z</time>
      </trkpt>
      <trkpt lat="47.8245" lon="6.95008">
        <ele>562</ele>
        <time>2014-07-15T09:50:11Z</time>
      </trkpt>
      <trkpt lat="47.8245" lon="6.95008">
        <ele>562</ele>
        <time>2014-07-15T09:50:12Z</time>
      </trkpt>
      <trkpt lat="47.8245" lon="6.95007">
        <ele>562</ele>
        <time>2014-07-15T09:50:13Z</time>
      </trkpt>
      <trkpt lat="47.8245" lon="6.95007">
        <ele>562</ele>
        <time>2014-07-15T09:50:14Z</time>
      </trkpt>
      <trkpt lat="47.8245" lon="6.95007">
        <ele>562</ele>
        <time>2014-07-15T09:50:15Z</time>
      </trkpt>
      <trkpt lat="47.8245" lon="6.95007">
        <ele>562</ele>
        <time>2014-07-15T09:50:16Z</time>
      </trkpt>
      <trkpt lat="47.8245" lon="6.95007">
        <ele>562</ele>
        <time>2014-07-15T09:50:17Z</time>
      </trkpt>
      <trkpt lat="47.82449" lon="6.95007">
        <ele>562</ele>
        <time>2014-07-15T09:50:18Z</time>
      </trkpt>
      <trkpt lat="47.82449" lon="6.95006">
        <ele>562</ele>
        <time>2014-07-15T09:50:19Z</time>
      </trkpt>
      <trkpt lat="47.82449" lon="6.95006">
        <ele>562</ele>
        <time>2014-07-15T09:50:20Z</time>
      </trkpt>
      <trkpt lat="47.82449" lon="6.95006">
        <ele>562</ele>
        <time>2014-07-15T09:50:21Z</time>
      </trkpt>
      <trkpt lat="47.82449" lon="6.95006">
        <ele>562</ele>
        <time>2014-07-15T09:50:22Z</time>
      </trkpt>
      <trkpt lat="47.8245" lon="6.95006">
        <ele>562</ele>
        <time>2014-07-15T09:50:23Z</time>
      </trkpt>
      <trkpt lat="47.8245" lon="6.95006">
        <ele>562</ele>
        <time>2014-07-15T09:50:24Z</time>
      </trkpt>
      <trkpt lat="47.8245" lon="6.95006">
        <ele>562</ele>
        <time>2014-07-15T09:50:25Z</time>
      </trkpt>
      <trkpt lat="47.8245" lon="6.95006">
        <ele>562</ele>
        <time>2014-07-15T09:50:26Z</time>
      </trkpt>
      <trkpt lat="47.8245" lon="6.95007">
        <ele>562</ele>
        <time>2014-07-15T09:50:27Z</time>
      </trkpt>
      <trkpt lat="47.8245" lon="6.95008">
        <ele>562</ele>
        <time>2014-07-15T09:50:28Z</time>
      </trkpt>
      <trkpt lat="47.8245" lon="6.95009">
        <ele>562</ele>
        <time>2014-07-15T09:50:29Z</time>
      </trkpt>
      <trkpt lat="47.8245" lon="6.95012">
        <ele>562</ele>
        <time>2014-07-15T09:50:30Z</time>
      </trkpt>
      <trkpt lat="47.8245" lon="6.95014">
        <ele>562</ele>
        <time>2014-07-15T09:50:31Z</time>
      </trkpt>
      <trkpt lat="47.82451" lon="6.95016">
        <ele>562</ele>
        <time>2014-07-15T09:50:32Z</time>
      </trkpt>
      <trkpt lat="47.82452" lon="6.95017">
        <ele>562</ele>
        <time>2014-07-15T09:50:33Z</time>
      </trkpt>
      <trkpt lat="47.82454" lon="6.95017">
        <ele>562</ele>
        <time>2014-07-15T09:50:34Z</time>
      </trkpt>
      <trkpt lat="47.82456" lon="6.95017">
        <ele>562</ele>
        <time>2014-07-15T09:50:35Z</time>
      </trkpt>
      <trkpt lat="47.82458" lon="6.95017">
        <ele>562</ele>
        <time>2014-07-15T09:50:36Z</time>
      </trkpt>
      <trkpt lat="47.82461" lon="6.95017">
        <ele>562</ele>
        <time>2014-07-15T09:50:37Z</time>
      </trkpt>
      <trkpt lat="47.82463" lon="6.95016">
        <ele>562</ele>
        <time>2014-07-15T09:50:38Z</time>
      </trkpt>
      <trkpt lat="47.82465" lon="6.95016">
        <ele>562</ele>
        <time>2014-07-15T09:50:39Z</time>
      </trkpt>
      <trkpt lat="47.82468" lon="6.95016">
        <ele>563</ele>
        <time>2014-07-15T09:50:40Z</time>
      </trkpt>
      <trkpt lat="47.82469" lon="6.95015">
        <ele>563</ele>
        <time>2014-07-15T09:50:41Z</time>
      </trkpt>
      <trkpt lat="47.82471" lon="6.95015">
        <ele>563</ele>
        <time>2014-07-15T09:50:42Z</time>
      </trkpt>
      <trkpt lat="47.82473" lon="6.95015">
        <ele>563</ele>
        <time>2014-07-15T09:50:43Z</time>
      </trkpt>
      <trkpt lat="47.82475" lon="6.95016">
        <ele>563</ele>
        <time>2014-07-15T09:50:44Z</time>
      </trkpt>
      <trkpt lat="47.82476" lon="6.95015">
        <ele>563</ele>
        <time>2014-07-15T09:50:45Z</time>
      </trkpt>
      <trkpt lat="47.82478" lon="6.95014">
        <ele>563</ele>
        <time>2014-07-15T09:50:46Z</time>
      </trkpt>
      <trkpt lat="47.82479" lon="6.95013">
        <ele>563</ele>
        <time>2014-07-15T09:50:47Z</time>
      </trkpt>
      <trkpt lat="47.8248" lon="6.95013">
        <ele>563</ele>
        <time>2014-07-15T09:50:48Z</time>
      </trkpt>
      <trkpt lat="47.82481" lon="6.95012">
        <ele>563</ele>
        <time>2014-07-15T09:50:49Z</time>
      </trkpt>
      <trkpt lat="47.82482" lon="6.95012">
        <ele>563</ele>
        <time>2014-07-15T09:50:50Z</time>
      </trkpt>
      <trkpt lat="47.82483" lon="6.95012">
        <ele>563</ele>
        <time>2014-07-15T09:50:51Z</time>
      </trkpt>
      <trkpt lat="47.82484" lon="6.95012">
        <ele>563</ele>
        <time>2014-07-15T09:50:52Z</time>
      </trkpt>
      <trkpt lat="47.82485" lon="6.95011">
        <ele>563</ele>
        <time>2014-07-15T09:50:53Z</time>
      </trkpt>
      <trkpt lat="47.82486" lon="6.95011">
        <ele>563</ele>
        <time>2014-07-15T09:50:54Z</time>
      </trkpt>
      <trkpt lat="47.82487" lon="6.95011">
        <ele>563</ele>
        <time>2014-07-15T09:50:55Z</time>
      </trkpt>
      <trkpt lat="47.82489" lon="6.95011">
        <ele>564</ele>
        <time>2014-07-15T09:50:56Z</time>
      </trkpt>
      <trkpt lat="47.8249" lon="6.95011">
        <ele>564</ele>
        <time>2014-07-15T09:50:57Z</time>
      </trkpt>
      <trkpt lat="47.82492" lon="6.95012">
        <ele>564</ele>
        <time>2014-07-15T09:50:58Z</time>
      </trkpt>
      <trkpt lat="47.82493" lon="6.95013">
        <ele>564</ele>
        <time>2014-07-15T09:50:59Z</time>
      </trkpt>
      <trkpt lat="47.82495" lon="6.95013">
        <ele>564</ele>
        <time>2014-07-15T09:51:00Z</time>
      </trkpt>
      <trkpt lat="47.82498" lon="6.95015">
        <ele>564</ele>
        <time>2014-07-15T09:51:02Z</time>
      </trkpt>
      <trkpt lat="47.82499" lon="6.95016">
        <ele>564</ele>
        <time>2014-07-15T09:51:03Z</time>
      </trkpt>
      <trkpt lat="47.82501" lon="6.95017">
        <ele>566</ele>
        <time>2014-07-15T09:51:04Z</time>
      </trkpt>
      <trkpt lat="47.82502" lon="6.95018">
        <ele>566</ele>
        <time>2014-07-15T09:51:05Z</time>
      </trkpt>
      <trkpt lat="47.82505" lon="6.9502">
        <ele>566</ele>
        <time>2014-07-15T09:51:07Z</time>
      </trkpt>
      <trkpt lat="47.82506" lon="6.95022">
        <ele>566</ele>
        <time>2014-07-15T09:51:08Z</time>
      </trkpt>
      <trkpt lat="47.82507" lon="6.95024">
        <ele>566</ele>
        <time>2014-07-15T09:51:09Z</time>
      </trkpt>
      <trkpt lat="47.82508" lon="6.95026">
        <ele>566</ele>
        <time>2014-07-15T09:51:10Z</time>
      </trkpt>
      <trkpt lat="47.82509" lon="6.95027">
        <ele>566</ele>
        <time>2014-07-15T09:51:11Z</time>
      </trkpt>
      <trkpt lat="47.82511" lon="6.9503">
        <ele>566</ele>
        <time>2014-07-15T09:51:12Z</time>
      </trkpt>
      <trkpt lat="47.82512" lon="6.95031">
        <ele>566</ele>
        <time>2014-07-15T09:51:13Z</time>
      </trkpt>
      <trkpt lat="47.82514" lon="6.95032">
        <ele>566</ele>
        <time>2014-07-15T09:51:14Z</time>
      </trkpt>
      <trkpt lat="47.82515" lon="6.95033">
        <ele>566</ele>
        <time>2014-07-15T09:51:15Z</time>
      </trkpt>
      <trkpt lat="47.82515" lon="6.95034">
        <ele>566</ele>
        <time>2014-07-15T09:51:16Z</time>
      </trkpt>
      <trkpt lat="47.82516" lon="6.95035">
        <ele>566</ele>
        <time>2014-07-15T09:51:17Z</time>
      </trkpt>
      <trkpt lat="47.82516" lon="6.95034">
        <ele>566</ele>
        <time>2014-07-15T09:51:18Z</time>
      </trkpt>
      <trkpt lat="47.82516" lon="6.95034">
        <ele>566</ele>
        <time>2014-07-15T09:51:19Z</time>
      </trkpt>
      <trkpt lat="47.82516" lon="6.95034">
        <ele>566</ele>
        <time>2014-07-15T09:51:20Z</time>
      </trkpt>
      <trkpt lat="47.82518" lon="6.95035">
        <ele>566</ele>
        <time>2014-07-15T09:51:22Z</time>
      </trkpt>
      <trkpt lat="47.8252" lon="6.95036">
        <ele>566</ele>
        <time>2014-07-15T09:51:23Z</time>
      </trkpt>
      <trkpt lat="47.82521" lon="6.95038">
        <ele>566</ele>
        <time>2014-07-15T09:51:24Z</time>
      </trkpt>
      <trkpt lat="47.82522" lon="6.95039">
        <ele>566</ele>
        <time>2014-07-15T09:51:25Z</time>
      </trkpt>
      <trkpt lat="47.82524" lon="6.9504">
        <ele>566</ele>
        <time>2014-07-15T09:51:26Z</time>
      </trkpt>
      <trkpt lat="47.82525" lon="6.95041">
        <ele>566</ele>
        <time>2014-07-15T09:51:27Z</time>
      </trkpt>
      <trkpt lat="47.82526" lon="6.95041">
        <ele>566</ele>
        <time>2014-07-15T09:51:28Z</time>
      </trkpt>
      <trkpt lat="47.82527" lon="6.95042">
        <ele>566</ele>
        <time>2014-07-15T09:51:29Z</time>
      </trkpt>
      <trkpt lat="47.82529" lon="6.95042">
        <ele>567</ele>
        <time>2014-07-15T09:51:30Z</time>
      </trkpt>
      <trkpt lat="47.8253" lon="6.95042">
        <ele>567</ele>
        <time>2014-07-15T09:51:31Z</time>
      </trkpt>
      <trkpt lat="47.82531" lon="6.95042">
        <ele>567</ele>
        <time>2014-07-15T09:51:32Z</time>
      </trkpt>
      <trkpt lat="47.82532" lon="6.95042">
        <ele>567</ele>
        <time>2014-07-15T09:51:33Z</time>
      </trkpt>
      <trkpt lat="47.82533" lon="6.95043">
        <ele>567</ele>
        <time>2014-07-15T09:51:34Z</time>
      </trkpt>
      <trkpt lat="47.82534" lon="6.95043">
        <ele>567</ele>
        <time>2014-07-15T09:51:35Z</time>
      </trkpt>
      <trkpt lat="47.82535" lon="6.95043">
        <ele>567</ele>
        <time>2014-07-15T09:51:36Z</time>
      </trkpt>
      <trkpt lat="47.82536" lon="6.95044">
        <ele>567</ele>
        <time>2014-07-15T09:51:37Z</time>
      </trkpt>
      <trkpt lat="47.82537" lon="6.95043">
        <ele>567</ele>
        <time>2014-07-15T09:51:38Z</time>
      </trkpt>
      <trkpt lat="47.82538" lon="6.95043">
        <ele>567</ele>
        <time>2014-07-15T09:51:39Z</time>
      </trkpt>
      <trkpt lat="47.8254" lon="6.95044">
        <ele>567</ele>
        <time>2014-07-15T09:51:41Z</time>
      </trkpt>
      <trkpt lat="47.82541" lon="6.95044">
        <ele>567</ele>
        <time>2014-07-15T09:51:42Z</time>
      </trkpt>
      <trkpt lat="47.82543" lon="6.95044">
        <ele>567</ele>
        <time>2014-07-15T09:51:43Z</time>
      </trkpt>
      <trkpt lat="47.82544" lon="6.95044">
        <ele>567</ele>
        <time>2014-07-15T09:51:44Z</time>
      </trkpt>
      <trkpt lat="47.82545" lon="6.95045">
        <ele>567</ele>
        <time>2014-07-15T09:51:45Z</time>
      </trkpt>
      <trkpt lat="47.82548" lon="6.95045">
        <ele>567</ele>
        <time>2014-07-15T09:51:47Z</time>
      </trkpt>
      <trkpt lat="47.82549" lon="6.95046">
        <ele>567</ele>
        <time>2014-07-15T09:51:48Z</time>
      </trkpt>
      <trkpt lat="47.8255" lon="6.95046">
        <ele>567</ele>
        <time>2014-07-15T09:51:49Z</time>
      </trkpt>
      <trkpt lat="47.82551" lon="6.95046">
        <ele>568</ele>
        <time>2014-07-15T09:51:50Z</time>
      </trkpt>
      <trkpt lat="47.82553" lon="6.95047">
        <ele>568</ele>
        <time>2014-07-15T09:51:51Z</time>
      </trkpt>
      <trkpt lat="47.82554" lon="6.95047">
        <ele>568</ele>
        <time>2014-07-15T09:51:52Z</time>
      </trkpt>
      <trkpt lat="47.82556" lon="6.9505">
        <ele>568</ele>
        <time>2014-07-15T09:51:54Z</time>
      </trkpt>
      <trkpt lat="47.82557" lon="6.9505">
        <ele>568</ele>
        <time>2014-07-15T09:51:55Z</time>
      </trkpt>
      <trkpt lat="47.82558" lon="6.95051">
        <ele>568</ele>
        <time>2014-07-15T09:51:56Z</time>
      </trkpt>
      <trkpt lat="47.82559" lon="6.95052">
        <ele>567</ele>
        <time>2014-07-15T09:51:57Z</time>
      </trkpt>
      <trkpt lat="47.8256" lon="6.95054">
        <ele>567</ele>
        <time>2014-07-15T09:51:58Z</time>
      </trkpt>
      <trkpt lat="47.82561" lon="6.95055">
        <ele>567</ele>
        <time>2014-07-15T09:51:59Z</time>
      </trkpt>
      <trkpt lat="47.82562" lon="6.95055">
        <ele>567</ele>
        <time>2014-07-15T09:52:00Z</time>
      </trkpt>
      <trkpt lat="47.82563" lon="6.95056">
        <ele>567</ele>
        <time>2014-07-15T09:52:01Z</time>
      </trkpt>
      <trkpt lat="47.82564" lon="6.95058">
        <ele>567</ele>
        <time>2014-07-15T09:52:02Z</time>
      </trkpt>
      <trkpt lat="47.82564" lon="6.95059">
        <ele>567</ele>
        <time>2014-07-15T09:52:03Z</time>
      </trkpt>
      <trkpt lat="47.82565" lon="6.9506">
        <ele>567</ele>
        <time>2014-07-15T09:52:04Z</time>
      </trkpt>
      <trkpt lat="47.82566" lon="6.95062">
        <ele>567</ele>
        <time>2014-07-15T09:52:05Z</time>
      </trkpt>
      <trkpt lat="47.82566" lon="6.95063">
        <ele>567</ele>
        <time>2014-07-15T09:52:06Z</time>
      </trkpt>
      <trkpt lat="47.82567" lon="6.95065">
        <ele>567</ele>
        <time>2014-07-15T09:52:07Z</time>
      </trkpt>
      <trkpt lat="47.82567" lon="6.95067">
        <ele>567</ele>
        <time>2014-07-15T09:52:08Z</time>
      </trkpt>
      <trkpt lat="47.82568" lon="6.95069">
        <ele>567</ele>
        <time>2014-07-15T09:52:09Z</time>
      </trkpt>
      <trkpt lat="47.82569" lon="6.9507">
        <ele>567</ele>
        <time>2014-07-15T09:52:10Z</time>
      </trkpt>
      <trkpt lat="47.82569" lon="6.95071">
        <ele>567</ele>
        <time>2014-07-15T09:52:11Z</time>
      </trkpt>
      <trkpt lat="47.8257" lon="6.95072">
        <ele>567</ele>
        <time>2014-07-15T09:52:12Z</time>
      </trkpt>
      <trkpt lat="47.82571" lon="6.95073">
        <ele>567</ele>
        <time>2014-07-15T09:52:13Z</time>
      </trkpt>
      <trkpt lat="47.82573" lon="6.95074">
        <ele>567</ele>
        <time>2014-07-15T09:52:14Z</time>
      </trkpt>
      <trkpt lat="47.82574" lon="6.95075">
        <ele>567</ele>
        <time>2014-07-15T09:52:15Z</time>
      </trkpt>
      <trkpt lat="47.82575" lon="6.95076">
        <ele>567</ele>
        <time>2014-07-15T09:52:16Z</time>
      </trkpt>
      <trkpt lat="47.82576" lon="6.95076">
        <ele>567</ele>
        <time>2014-07-15T09:52:17Z</time>
      </trkpt>
      <trkpt lat="47.82577" lon="6.95078">
        <ele>566</ele>
        <time>2014-07-15T09:52:18Z</time>
      </trkpt>
      <trkpt lat="47.82578" lon="6.95079">
        <ele>566</ele>
        <time>2014-07-15T09:52:19Z</time>
      </trkpt>
      <trkpt lat="47.82578" lon="6.9508">
        <ele>566</ele>
        <time>2014-07-15T09:52:20Z</time>
      </trkpt>
      <trkpt lat="47.82579" lon="6.95081">
        <ele>566</ele>
        <time>2014-07-15T09:52:21Z</time>
      </trkpt>
      <trkpt lat="47.8258" lon="6.95082">
        <ele>566</ele>
        <time>2014-07-15T09:52:22Z</time>
      </trkpt>
      <trkpt lat="47.82581" lon="6.95083">
        <ele>566</ele>
        <time>2014-07-15T09:52:23Z</time>
      </trkpt>
      <trkpt lat="47.82582" lon="6.95084">
        <ele>566</ele>
        <time>2014-07-15T09:52:24Z</time>
      </trkpt>
      <trkpt lat="47.82583" lon="6.95085">
        <ele>566</ele>
        <time>2014-07-15T09:52:25Z</time>
      </trkpt>
      <trkpt lat="47.82584" lon="6.95086">
        <ele>566</ele>
        <time>2014-07-15T09:52:26Z</time>
      </trkpt>
      <trkpt lat="47.82585" lon="6.95088">
        <ele>566</ele>
        <time>2014-07-15T09:52:27Z</time>
      </trkpt>
      <trkpt lat="47.82586" lon="6.95089">
        <ele>567</ele>
        <time>2014-07-15T09:52:28Z</time>
      </trkpt>
      <trkpt lat="47.82587" lon="6.9509">
        <ele>567</ele>
        <time>2014-07-15T09:52:29Z</time>
      </trkpt>
      <trkpt lat="47.82588" lon="6.9509">
        <ele>567</ele>
        <time>2014-07-15T09:52:30Z</time>
      </trkpt>
      <trkpt lat="47.82589" lon="6.95091">
        <ele>567</ele>
        <time>2014-07-15T09:52:31Z</time>
      </trkpt>
      <trkpt lat="47.8259" lon="6.95092">
        <ele>567</ele>
        <time>2014-07-15T09:52:32Z</time>
      </trkpt>
      <trkpt lat="47.82591" lon="6.95093">
        <ele>567</ele>
        <time>2014-07-15T09:52:33Z</time>
      </trkpt>
      <trkpt lat="47.82592" lon="6.95094">
        <ele>567</ele>
        <time>2014-07-15T09:52:34Z</time>
      </trkpt>
      <trkpt lat="47.82593" lon="6.95095">
        <ele>567</ele>
        <time>2014-07-15T09:52:35Z</time>
      </trkpt>
      <trkpt lat="47.82594" lon="6.95096">
        <ele>567</ele>
        <time>2014-07-15T09:52:36Z</time>
      </trkpt>
      <trkpt lat="47.82596" lon="6.95097">
        <ele>567</ele>
        <time>2014-07-15T09:52:38Z</time>
      </trkpt>
      <trkpt lat="47.82597" lon="6.95098">
        <ele>567</ele>
        <time>2014-07-15T09:52:39Z</time>
      </trkpt>
      <trkpt lat="47.82598" lon="6.95099">
        <ele>567</ele>
        <time>2014-07-15T09:52:40Z</time>
      </trkpt>
      <trkpt lat="47.82598" lon="6.951">
        <ele>567</ele>
        <time>2014-07-15T09:52:41Z</time>
      </trkpt>
      <trkpt lat="47.826" lon="6.95103">
        <ele>568</ele>
        <time>2014-07-15T09:52:43Z</time>
      </trkpt>
      <trkpt lat="47.826" lon="6.95104">
        <ele>568</ele>
        <time>2014-07-15T09:52:44Z</time>
      </trkpt>
      <trkpt lat="47.82601" lon="6.95105">
        <ele>568</ele>
        <time>2014-07-15T09:52:45Z</time>
      </trkpt>
      <trkpt lat="47.82602" lon="6.95106">
        <ele>568</ele>
        <time>2014-07-15T09:52:46Z</time>
      </trkpt>
      <trkpt lat="47.82602" lon="6.95107">
        <ele>568</ele>
        <time>2014-07-15T09:52:47Z</time>
      </trkpt>
      <trkpt lat="47.82603" lon="6.95108">
        <ele>568</ele>
        <time>2014-07-15T09:52:48Z</time>
      </trkpt>
      <trkpt lat="47.82604" lon="6.95109">
        <ele>568</ele>
        <time>2014-07-15T09:52:49Z</time>
      </trkpt>
      <trkpt lat="47.82605" lon="6.95112">
        <ele>568</ele>
        <time>2014-07-15T09:52:51Z</time>
      </trkpt>
      <trkpt lat="47.82605" lon="6.95113">
        <ele>568</ele>
        <time>2014-07-15T09:52:52Z</time>
      </trkpt>
      <trkpt lat="47.82606" lon="6.95114">
        <ele>568</ele>
        <time>2014-07-15T09:52:53Z</time>
      </trkpt>
      <trkpt lat="47.82607" lon="6.95115">
        <ele>568</ele>
        <time>2014-07-15T09:52:54Z</time>
      </trkpt>
      <trkpt lat="47.82608" lon="6.95116">
        <ele>568</ele>
        <time>2014-07-15T09:52:55Z</time>
      </trkpt>
      <trkpt lat="47.8261" lon="6.95117">
        <ele>568</ele>
        <time>2014-07-15T09:52:56Z</time>
      </trkpt>
      <trkpt lat="47.82612" lon="6.95117">
        <ele>568</ele>
        <time>2014-07-15T09:52:57Z</time>
      </trkpt>
      <trkpt lat="47.82614" lon="6.95118">
        <ele>568</ele>
        <time>2014-07-15T09:52:58Z</time>
      </trkpt>
      <trkpt lat="47.82615" lon="6.95118">
        <ele>568</ele>
        <time>2014-07-15T09:52:59Z</time>
      </trkpt>
      <trkpt lat="47.82619" lon="6.95119">
        <ele>568</ele>
        <time>2014-07-15T09:53:01Z</time>
      </trkpt>
      <trkpt lat="47.8262" lon="6.95119">
        <ele>568</ele>
        <time>2014-07-15T09:53:02Z</time>
      </trkpt>
      <trkpt lat="47.82621" lon="6.9512">
        <ele>568</ele>
        <time>2014-07-15T09:53:03Z</time>
      </trkpt>
      <trkpt lat="47.82622" lon="6.95121">
        <ele>568</ele>
        <time>2014-07-15T09:53:04Z</time>
      </trkpt>
      <trkpt lat="47.82624" lon="6.95122">
        <ele>568</ele>
        <time>2014-07-15T09:53:05Z</time>
      </trkpt>
      <trkpt lat="47.82625" lon="6.95123">
        <ele>568</ele>
        <time>2014-07-15T09:53:06Z</time>
      </trkpt>
      <trkpt lat="47.82626" lon="6.95123">
        <ele>568</ele>
        <time>2014-07-15T09:53:07Z</time>
      </trkpt>
      <trkpt lat="47.82627" lon="6.95124">
        <ele>568</ele>
        <time>2014-07-15T09:53:08Z</time>
      </trkpt>
      <trkpt lat="47.82628" lon="6.95124">
        <ele>568</ele>
        <time>2014-07-15T09:53:09Z</time>
      </trkpt>
      <trkpt lat="47.82629" lon="6.95125">
        <ele>568</ele>
        <time>2014-07-15T09:53:10Z</time>
      </trkpt>
      <trkpt lat="47.82633" lon="6.95127">
        <ele>569</ele>
        <time>2014-07-15T09:53:13Z</time>
      </trkpt>
      <trkpt lat="47.82634" lon="6.95128">
        <ele>569</ele>
        <time>2014-07-15T09:53:14Z</time>
      </trkpt>
      <trkpt lat="47.82636" lon="6.9513">
        <ele>569</ele>
        <time>2014-07-15T09:53:16Z</time>
      </trkpt>
      <trkpt lat="47.82637" lon="6.9513">
        <ele>569</ele>
        <time>2014-07-15T09:53:17Z</time>
      </trkpt>
      <trkpt lat="47.82638" lon="6.95131">
        <ele>569</ele>
        <time>2014-07-15T09:53:18Z</time>
      </trkpt>
      <trkpt lat="47.8264" lon="6.95131">
        <ele>569</ele>
        <time>2014-07-15T09:53:19Z</time>
      </trkpt>
      <trkpt lat="47.82642" lon="6.95132">
        <ele>569</ele>
        <time>2014-07-15T09:53:21Z</time>
      </trkpt>
      <trkpt lat="47.82644" lon="6.95132">
        <ele>569</ele>
        <time>2014-07-15T09:53:22Z</time>
      </trkpt>
      <trkpt lat="47.82645" lon="6.95133">
        <ele>569</ele>
        <time>2014-07-15T09:53:23Z</time>
      </trkpt>
      <trkpt lat="47.82646" lon="6.95133">
        <ele>569</ele>
        <time>2014-07-15T09:53:24Z</time>
      </trkpt>
      <trkpt lat="47.82647" lon="6.95133">
        <ele>569</ele>
        <time>2014-07-15T09:53:25Z</time>
      </trkpt>
      <trkpt lat="47.8265" lon="6.95134">
        <ele>569</ele>
        <time>2014-07-15T09:53:27Z</time>
      </trkpt>
      <trkpt lat="47.82651" lon="6.95135">
        <ele>569</ele>
        <time>2014-07-15T09:53:28Z</time>
      </trkpt>
      <trkpt lat="47.82652" lon="6.95135">
        <ele>569</ele>
        <time>2014-07-15T09:53:29Z</time>
      </trkpt>
      <trkpt lat="47.82653" lon="6.95136">
        <ele>569</ele>
        <time>2014-07-15T09:53:30Z</time>
      </trkpt>
      <trkpt lat="47.82654" lon="6.95136">
        <ele>569</ele>
        <time>2014-07-15T09:53:31Z</time>
      </trkpt>
      <trkpt lat="47.82655" lon="6.95137">
        <ele>569</ele>
        <time>2014-07-15T09:53:32Z</time>
      </trkpt>
      <trkpt lat="47.82656" lon="6.95138">
        <ele>569</ele>
        <time>2014-07-15T09:53:33Z</time>
      </trkpt>
      <trkpt lat="47.82657" lon="6.95139">
        <ele>569</ele>
        <time>2014-07-15T09:53:34Z</time>
      </trkpt>
      <trkpt lat="47.82658" lon="6.95139">
        <ele>569</ele>
        <time>2014-07-15T09:53:35Z</time>
      </trkpt>
      <trkpt lat="47.82659" lon="6.9514">
        <ele>569</ele>
        <time>2014-07-15T09:53:36Z</time>
      </trkpt>
      <trkpt lat="47.8266" lon="6.9514">
        <ele>569</ele>
        <time>2014-07-15T09:53:37Z</time>
      </trkpt>
      <trkpt lat="47.82661" lon="6.9514">
        <ele>569</ele>
        <time>2014-07-15T09:53:38Z</time>
      </trkpt>
      <trkpt lat="47.82662" lon="6.9514">
        <ele>569</ele>
        <time>2014-07-15T09:53:39Z</time>
      </trkpt>
      <trkpt lat="47.82663" lon="6.95141">
        <ele>569</ele>
        <time>2014-07-15T09:53:40Z</time>
      </trkpt>
      <trkpt lat="47.82664" lon="6.95141">
        <ele>569</ele>
        <time>2014-07-15T09:53:41Z</time>
      </trkpt>
      <trkpt lat="47.82665" lon="6.95141">
        <ele>569</ele>
        <time>2014-07-15T09:53:42Z</time>
      </trkpt>
      <trkpt lat="47.82667" lon="6.95141">
        <ele>574</ele>
        <time>2014-07-15T09:53:43Z</time>
      </trkpt>
      <trkpt lat="47.82668" lon="6.95141">
        <ele>574</ele>
        <time>2014-07-15T09:53:44Z</time>
      </trkpt>
      <trkpt lat="47.82669" lon="6.95141">
        <ele>574</ele>
        <time>2014-07-15T09:53:45Z</time>
      </trkpt>
      <trkpt lat="47.82671" lon="6.95141">
        <ele>574</ele>
        <time>2014-07-15T09:53:46Z</time>
      </trkpt>
      <trkpt lat="47.82672" lon="6.95141">
        <ele>574</ele>
        <time>2014-07-15T09:53:47Z</time>
      </trkpt>
      <trkpt lat="47.82673" lon="6.95142">
        <ele>574</ele>
        <time>2014-07-15T09:53:48Z</time>
      </trkpt>
      <trkpt lat="47.82674" lon="6.95142">
        <ele>574</ele>
        <time>2014-07-15T09:53:49Z</time>
      </trkpt>
      <trkpt lat="47.82675" lon="6.95143">
        <ele>574</ele>
        <time>2014-07-15T09:53:50Z</time>
      </trkpt>
      <trkpt lat="47.82676" lon="6.95143">
        <ele>574</ele>
        <time>2014-07-15T09:53:51Z</time>
      </trkpt>
      <trkpt lat="47.82677" lon="6.95143">
        <ele>574</ele>
        <time>2014-07-15T09:53:52Z</time>
      </trkpt>
      <trkpt lat="47.82678" lon="6.95143">
        <ele>574</ele>
        <time>2014-07-15T09:53:53Z</time>
      </trkpt>
      <trkpt lat="47.82679" lon="6.95143">
        <ele>574</ele>
        <time>2014-07-15T09:53:54Z</time>
      </trkpt>
      <trkpt lat="47.8268" lon="6.95144">
        <ele>574</ele>
        <time>2014-07-15T09:53:55Z</time>
      </trkpt>
      <trkpt lat="47.82681" lon="6.95144">
        <ele>574</ele>
        <time>2014-07-15T09:53:56Z</time>
      </trkpt>
      <trkpt lat="47.82682" lon="6.95145">
        <ele>574</ele>
        <time>2014-07-15T09:53:57Z</time>
      </trkpt>
      <trkpt lat="47.82683" lon="6.95145">
        <ele>574</ele>
        <time>2014-07-15T09:53:58Z</time>
      </trkpt>
      <trkpt lat="47.82684" lon="6.95145">
        <ele>574</ele>
        <time>2014-07-15T09:53:59Z</time>
      </trkpt>
      <trkpt lat="47.82685" lon="6.95146">
        <ele>574</ele>
        <time>2014-07-15T09:54:00Z</time>
      </trkpt>
      <trkpt lat="47.82687" lon="6.95146">
        <ele>574</ele>
        <time>2014-07-15T09:54:01Z</time>
      </trkpt>
      <trkpt lat="47.82688" lon="6.95147">
        <ele>574</ele>
        <time>2014-07-15T09:54:02Z</time>
      </trkpt>
      <trkpt lat="47.82689" lon="6.95148">
        <ele>575</ele>
        <time>2014-07-15T09:54:03Z</time>
      </trkpt>
      <trkpt lat="47.82691" lon="6.95148">
        <ele>575</ele>
        <time>2014-07-15T09:54:04Z</time>
      </trkpt>
      <trkpt lat="47.82692" lon="6.95149">
        <ele>575</ele>
        <time>2014-07-15T09:54:05Z</time>
      </trkpt>
      <trkpt lat="47.82693" lon="6.95149">
        <ele>575</ele>
        <time>2014-07-15T09:54:06Z</time>
      </trkpt>
      <trkpt lat="47.82695" lon="6.95149">
        <ele>575</ele>
        <time>2014-07-15T09:54:07Z</time>
      </trkpt>
      <trkpt lat="47.82696" lon="6.95149">
        <ele>575</ele>
        <time>2014-07-15T09:54:08Z</time>
      </trkpt>
      <trkpt lat="47.82697" lon="6.95149">
        <ele>575</ele>
        <time>2014-07-15T09:54:09Z</time>
      </trkpt>
      <trkpt lat="47.82698" lon="6.95149">
        <ele>575</ele>
        <time>2014-07-15T09:54:10Z</time>
      </trkpt>
      <trkpt lat="47.82699" lon="6.95149">
        <ele>576</ele>
        <time>2014-07-15T09:54:11Z</time>
      </trkpt>
      <trkpt lat="47.827" lon="6.95149">
        <ele>576</ele>
        <time>2014-07-15T09:54:12Z</time>
      </trkpt>
      <trkpt lat="47.82702" lon="6.95149">
        <ele>576</ele>
        <time>2014-07-15T09:54:13Z</time>
      </trkpt>
      <trkpt lat="47.82703" lon="6.95149">
        <ele>576</ele>
        <time>2014-07-15T09:54:14Z</time>
      </trkpt>
      <trkpt lat="47.82704" lon="6.95149">
        <ele>576</ele>
        <time>2014-07-15T09:54:15Z</time>
      </trkpt>
      <trkpt lat="47.82705" lon="6.95149">
        <ele>576</ele>
        <time>2014-07-15T09:54:16Z</time>
      </trkpt>
      <trkpt lat="47.82706" lon="6.95149">
        <ele>576</ele>
        <time>2014-07-15T09:54:17Z</time>
      </trkpt>
      <trkpt lat="47.82707" lon="6.95149">
        <ele>576</ele>
        <time>2014-07-15T09:54:18Z</time>
      </trkpt>
      <trkpt lat="47.82709" lon="6.95149">
        <ele>576</ele>
        <time>2014-07-15T09:54:19Z</time>
      </trkpt>
      <trkpt lat="47.8271" lon="6.95149">
        <ele>576</ele>
        <time>2014-07-15T09:54:20Z</time>
      </trkpt>
      <trkpt lat="47.82711" lon="6.95148">
        <ele>577</ele>
        <time>2014-07-15T09:54:21Z</time>
      </trkpt>
      <trkpt lat="47.82711" lon="6.95148">
        <ele>577</ele>
        <time>2014-07-15T09:54:22Z</time>
      </trkpt>
      <trkpt lat="47.82712" lon="6.95147">
        <ele>577</ele>
        <time>2014-07-15T09:54:23Z</time>
      </trkpt>
      <trkpt lat="47.82713" lon="6.95148">
        <ele>577</ele>
        <time>2014-07-15T09:54:24Z</time>
      </trkpt>
      <trkpt lat="47.82714" lon="6.95148">
        <ele>577</ele>
        <time>2014-07-15T09:54:25Z</time>
      </trkpt>
      <trkpt lat="47.82715" lon="6.95148">
        <ele>577</ele>
        <time>2014-07-15T09:54:26Z</time>
      </trkpt>
      <trkpt lat="47.82716" lon="6.95149">
        <ele>577</ele>
        <time>2014-07-15T09:54:27Z</time>
      </trkpt>
      <trkpt lat="47.82717" lon="6.95149">
        <ele>577</ele>
        <time>2014-07-15T09:54:28Z</time>
      </trkpt>
      <trkpt lat="47.82718" lon="6.95149">
        <ele>577</ele>
        <time>2014-07-15T09:54:29Z</time>
      </trkpt>
      <trkpt lat="47.82719" lon="6.95149">
        <ele>577</ele>
        <time>2014-07-15T09:54:30Z</time>
      </trkpt>
      <trkpt lat="47.82721" lon="6.9515">
        <ele>577</ele>
        <time>2014-07-15T09:54:32Z</time>
      </trkpt>
      <trkpt lat="47.82722" lon="6.9515">
        <ele>577</ele>
        <time>2014-07-15T09:54:33Z</time>
      </trkpt>
      <trkpt lat="47.82723" lon="6.9515">
        <ele>577</ele>
        <time>2014-07-15T09:54:34Z</time>
      </trkpt>
      <trkpt lat="47.82724" lon="6.95151">
        <ele>577</ele>
        <time>2014-07-15T09:54:35Z</time>
      </trkpt>
      <trkpt lat="47.82725" lon="6.95151">
        <ele>577</ele>
        <time>2014-07-15T09:54:36Z</time>
      </trkpt>
      <trkpt lat="47.82726" lon="6.95151">
        <ele>577</ele>
        <time>2014-07-15T09:54:37Z</time>
      </trkpt>
      <trkpt lat="47.82727" lon="6.95152">
        <ele>578</ele>
        <time>2014-07-15T09:54:38Z</time>
      </trkpt>
      <trkpt lat="47.82728" lon="6.95152">
        <ele>578</ele>
        <time>2014-07-15T09:54:39Z</time>
      </trkpt>
      <trkpt lat="47.8273" lon="6.95152">
        <ele>578</ele>
        <time>2014-07-15T09:54:41Z</time>
      </trkpt>
      <trkpt lat="47.82732" lon="6.95152">
        <ele>578</ele>
        <time>2014-07-15T09:54:42Z</time>
      </trkpt>
      <trkpt lat="47.82733" lon="6.95152">
        <ele>578</ele>
        <time>2014-07-15T09:54:43Z</time>
      </trkpt>
      <trkpt lat="47.82734" lon="6.95152">
        <ele>578</ele>
        <time>2014-07-15T09:54:44Z</time>
      </trkpt>
      <trkpt lat="47.82735" lon="6.95152">
        <ele>578</ele>
        <time>2014-07-15T09:54:45Z</time>
      </trkpt>
      <trkpt lat="47.82737" lon="6.95152">
        <ele>578</ele>
        <time>2014-07-15T09:54:46Z</time>
      </trkpt>
      <trkpt lat="47.82738" lon="6.95152">
        <ele>578</ele>
        <time>2014-07-15T09:54:47Z</time>
      </trkpt>
      <trkpt lat="47.8274" lon="6.95152">
        <ele>578</ele>
        <time>2014-07-15T09:54:48Z</time>
      </trkpt>
      <trkpt lat="47.82741" lon="6.95152">
        <ele>578</ele>
        <time>2014-07-15T09:54:49Z</time>
      </trkpt>
      <trkpt lat="47.82742" lon="6.95152">
        <ele>578</ele>
        <time>2014-07-15T09:54:50Z</time>
      </trkpt>
      <trkpt lat="47.82744" lon="6.95152">
        <ele>578</ele>
        <time>2014-07-15T09:54:51Z</time>
      </trkpt>
      <trkpt lat="47.82745" lon="6.95152">
        <ele>578</ele>
        <time>2014-07-15T09:54:52Z</time>
      </trkpt>
      <trkpt lat="47.82746" lon="6.95152">
        <ele>578</ele>
        <time>2014-07-15T09:54:53Z</time>
      </trkpt>
      <trkpt lat="47.82747" lon="6.95152">
        <ele>578</ele>
        <time>2014-07-15T09:54:54Z</time>
      </trkpt>
      <trkpt lat="47.82748" lon="6.95152">
        <ele>578</ele>
        <time>2014-07-15T09:54:55Z</time>
      </trkpt>
      <trkpt lat="47.82749" lon="6.95153">
        <ele>578</ele>
        <time>2014-07-15T09:54:56Z</time>
      </trkpt>
      <trkpt lat="47.8275" lon="6.95153">
        <ele>581</ele>
        <time>2014-07-15T09:54:57Z</time>
      </trkpt>
      <trkpt lat="47.82751" lon="6.95153">
        <ele>581</ele>
        <time>2014-07-15T09:54:58Z</time>
      </trkpt>
      <trkpt lat="47.82752" lon="6.95154">
        <ele>581</ele>
        <time>2014-07-15T09:54:59Z</time>
      </trkpt>
      <trkpt lat="47.82753" lon="6.95154">
        <ele>581</ele>
        <time>2014-07-15T09:55:00Z</time>
      </trkpt>
      <trkpt lat="47.82754" lon="6.95154">
        <ele>581</ele>
        <time>2014-07-15T09:55:01Z</time>
      </trkpt>
      <trkpt lat="47.82755" lon="6.95155">
        <ele>581</ele>
        <time>2014-07-15T09:55:02Z</time>
      </trkpt>
      <trkpt lat="47.82756" lon="6.95155">
        <ele>581</ele>
        <time>2014-07-15T09:55:03Z</time>
      </trkpt>
      <trkpt lat="47.82757" lon="6.95156">
        <ele>581</ele>
        <time>2014-07-15T09:55:04Z</time>
      </trkpt>
      <trkpt lat="47.82758" lon="6.95156">
        <ele>581</ele>
        <time>2014-07-15T09:55:05Z</time>
      </trkpt>
      <trkpt lat="47.82759" lon="6.95156">
        <ele>581</ele>
        <time>2014-07-15T09:55:06Z</time>
      </trkpt>
      <trkpt lat="47.8276" lon="6.95157">
        <ele>581</ele>
        <time>2014-07-15T09:55:07Z</time>
      </trkpt>
      <trkpt lat="47.82761" lon="6.95157">
        <ele>581</ele>
        <time>2014-07-15T09:55:08Z</time>
      </trkpt>
      <trkpt lat="47.82762" lon="6.95157">
        <ele>581</ele>
        <time>2014-07-15T09:55:09Z</time>
      </trkpt>
      <trkpt lat="47.82763" lon="6.95157">
        <ele>581</ele>
        <time>2014-07-15T09:55:10Z</time>
      </trkpt>
      <trkpt lat="47.82764" lon="6.95157">
        <ele>581</ele>
        <time>2014-07-15T09:55:11Z</time>
      </trkpt>
      <trkpt lat="47.82765" lon="6.95158">
        <ele>581</ele>
        <time>2014-07-15T09:55:12Z</time>
      </trkpt>
      <trkpt lat="47.82766" lon="6.95158">
        <ele>581</ele>
        <time>2014-07-15T09:55:13Z</time>
      </trkpt>
      <trkpt lat="47.82767" lon="6.95158">
        <ele>582</ele>
        <time>2014-07-15T09:55:14Z</time>
      </trkpt>
      <trkpt lat="47.82768" lon="6.95158">
        <ele>582</ele>
        <time>2014-07-15T09:55:15Z</time>
      </trkpt>
      <trkpt lat="47.8277" lon="6.95158">
        <ele>582</ele>
        <time>2014-07-15T09:55:16Z</time>
      </trkpt>
      <trkpt lat="47.82771" lon="6.95158">
        <ele>582</ele>
        <time>2014-07-15T09:55:17Z</time>
      </trkpt>
      <trkpt lat="47.82772" lon="6.95157">
        <ele>582</ele>
        <time>2014-07-15T09:55:18Z</time>
      </trkpt>
      <trkpt lat="47.82773" lon="6.95158">
        <ele>582</ele>
        <time>2014-07-15T09:55:19Z</time>
      </trkpt>
      <trkpt lat="47.82775" lon="6.95158">
        <ele>582</ele>
        <time>2014-07-15T09:55:20Z</time>
      </trkpt>
      <trkpt lat="47.82776" lon="6.95158">
        <ele>582</ele>
        <time>2014-07-15T09:55:21Z</time>
      </trkpt>
      <trkpt lat="47.82777" lon="6.95157">
        <ele>582</ele>
        <time>2014-07-15T09:55:22Z</time>
      </trkpt>
      <trkpt lat="47.82778" lon="6.95157">
        <ele>583</ele>
        <time>2014-07-15T09:55:23Z</time>
      </trkpt>
      <trkpt lat="47.82779" lon="6.95158">
        <ele>583</ele>
        <time>2014-07-15T09:55:24Z</time>
      </trkpt>
      <trkpt lat="47.8278" lon="6.95158">
        <ele>583</ele>
        <time>2014-07-15T09:55:25Z</time>
      </trkpt>
      <trkpt lat="47.82782" lon="6.95158">
        <ele>583</ele>
        <time>2014-07-15T09:55:27Z</time>
      </trkpt>
      <trkpt lat="47.82782" lon="6.95157">
        <ele>583</ele>
        <time>2014-07-15T09:55:28Z</time>
      </trkpt>
      <trkpt lat="47.82782" lon="6.95156">
        <ele>583</ele>
        <time>2014-07-15T09:55:29Z</time>
      </trkpt>
      <trkpt lat="47.82783" lon="6.95156">
        <ele>583</ele>
        <time>2014-07-15T09:55:30Z</time>
      </trkpt>
      <trkpt lat="47.82783" lon="6.95155">
        <ele>583</ele>
        <time>2014-07-15T09:55:31Z</time>
      </trkpt>
      <trkpt lat="47.82784" lon="6.95155">
        <ele>583</ele>
        <time>2014-07-15T09:55:32Z</time>
      </trkpt>
      <trkpt lat="47.82784" lon="6.95154">
        <ele>583</ele>
        <time>2014-07-15T09:55:33Z</time>
      </trkpt>
      <trkpt lat="47.82785" lon="6.95154">
        <ele>583</ele>
        <time>2014-07-15T09:55:34Z</time>
      </trkpt>
      <trkpt lat="47.82785" lon="6.95153">
        <ele>583</ele>
        <time>2014-07-15T09:55:35Z</time>
      </trkpt>
      <trkpt lat="47.82785" lon="6.95152">
        <ele>583</ele>
        <time>2014-07-15T09:55:36Z</time>
      </trkpt>
      <trkpt lat="47.82786" lon="6.95149">
        <ele>583</ele>
        <time>2014-07-15T09:55:38Z</time>
      </trkpt>
      <trkpt lat="47.82786" lon="6.95148">
        <ele>583</ele>
        <time>2014-07-15T09:55:39Z</time>
      </trkpt>
      <trkpt lat="47.82786" lon="6.95147">
        <ele>583</ele>
        <time>2014-07-15T09:55:40Z</time>
      </trkpt>
      <trkpt lat="47.82786" lon="6.95147">
        <ele>583</ele>
        <time>2014-07-15T09:55:41Z</time>
      </trkpt>
      <trkpt lat="47.82786" lon="6.95146">
        <ele>583</ele>
        <time>2014-07-15T09:55:43Z</time>
      </trkpt>
      <trkpt lat="47.82785" lon="6.95146">
        <ele>583</ele>
        <time>2014-07-15T09:55:44Z</time>
      </trkpt>
      <trkpt lat="47.82785" lon="6.95146">
        <ele>583</ele>
        <time>2014-07-15T09:55:45Z</time>
      </trkpt>
      <trkpt lat="47.82786" lon="6.95146">
        <ele>583</ele>
        <time>2014-07-15T09:55:46Z</time>
      </trkpt>
      <trkpt lat="47.82786" lon="6.95145">
        <ele>584</ele>
        <time>2014-07-15T09:55:47Z</time>
      </trkpt>
      <trkpt lat="47.82787" lon="6.95144">
        <ele>584</ele>
        <time>2014-07-15T09:55:48Z</time>
      </trkpt>
      <trkpt lat="47.82788" lon="6.95144">
        <ele>584</ele>
        <time>2014-07-15T09:55:49Z</time>
      </trkpt>
      <trkpt lat="47.82788" lon="6.95145">
        <ele>584</ele>
        <time>2014-07-15T09:55:50Z</time>
      </trkpt>
      <trkpt lat="47.82787" lon="6.95146">
        <ele>583</ele>
        <time>2014-07-15T09:55:51Z</time>
      </trkpt>
      <trkpt lat="47.82787" lon="6.95147">
        <ele>583</ele>
        <time>2014-07-15T09:55:52Z</time>
      </trkpt>
      <trkpt lat="47.82787" lon="6.95148">
        <ele>583</ele>
        <time>2014-07-15T09:55:53Z</time>
      </trkpt>
      <trkpt lat="47.82786" lon="6.95149">
        <ele>583</ele>
        <time>2014-07-15T09:55:54Z</time>
      </trkpt>
      <trkpt lat="47.82786" lon="6.9515">
        <ele>583</ele>
        <time>2014-07-15T09:55:55Z</time>
      </trkpt>
      <trkpt lat="47.82785" lon="6.95152">
        <ele>583</ele>
        <time>2014-07-15T09:55:56Z</time>
      </trkpt>
      <trkpt lat="47.82785" lon="6.95153">
        <ele>583</ele>
        <time>2014-07-15T09:55:57Z</time>
      </trkpt>
      <trkpt lat="47.82785" lon="6.95154">
        <ele>583</ele>
        <time>2014-07-15T09:55:58Z</time>
      </trkpt>
      <trkpt lat="47.82786" lon="6.95153">
        <ele>583</ele>
        <time>2014-07-15T09:55:59Z</time>
      </trkpt>
      <trkpt lat="47.82786" lon="6.95152">
        <ele>583</ele>
        <time>2014-07-15T09:56:00Z</time>
      </trkpt>
      <trkpt lat="47.82786" lon="6.9515">
        <ele>583</ele>
        <time>2014-07-15T09:56:01Z</time>
      </trkpt>
      <trkpt lat="47.82787" lon="6.95149">
        <ele>583</ele>
        <time>2014-07-15T09:56:02Z</time>
      </trkpt>
      <trkpt lat="47.82787" lon="6.95148">
        <ele>583</ele>
        <time>2014-07-15T09:56:03Z</time>
      </trkpt>
      <trkpt lat="47.82787" lon="6.95147">
        <ele>583</ele>
        <time>2014-07-15T09:56:04Z</time>
      </trkpt>
      <trkpt lat="47.82787" lon="6.95147">
        <ele>583</ele>
        <time>2014-07-15T09:56:05Z</time>
      </trkpt>
      <trkpt lat="47.82787" lon="6.95147">
        <ele>583</ele>
        <time>2014-07-15T09:56:06Z</time>
      </trkpt>
      <trkpt lat="47.82787" lon="6.95146">
        <ele>583</ele>
        <time>2014-07-15T09:56:07Z</time>
      </trkpt>
      <trkpt lat="47.82787" lon="6.95146">
        <ele>583</ele>
        <time>2014-07-15T09:56:09Z</time>
      </trkpt>
      <trkpt lat="47.82787" lon="6.95146">
        <ele>583</ele>
        <time>2014-07-15T09:56:10Z</time>
      </trkpt>
      <trkpt lat="47.82787" lon="6.95146">
        <ele>583</ele>
        <time>2014-07-15T09:56:11Z</time>
      </trkpt>
      <trkpt lat="47.82786" lon="6.95146">
        <ele>583</ele>
        <time>2014-07-15T09:56:12Z</time>
      </trkpt>
      <trkpt lat="47.82786" lon="6.95146">
        <ele>583</ele>
        <time>2014-07-15T09:56:13Z</time>
      </trkpt>
      <trkpt lat="47.82786" lon="6.95146">
        <ele>583</ele>
        <time>2014-07-15T09:56:14Z</time>
      </trkpt>
      <trkpt lat="47.82786" lon="6.95146">
        <ele>583</ele>
        <time>2014-07-15T09:56:15Z</time>
      </trkpt>
      <trkpt lat="47.82786" lon="6.95146">
        <ele>583</ele>
        <time>2014-07-15T09:56:16Z</time>
      </trkpt>
      <trkpt lat="47.82786" lon="6.95146">
        <ele>583</ele>
        <time>2014-07-15T09:56:18Z</time>
      </trkpt>
      <trkpt lat="47.82786" lon="6.95146">
        <ele>583</ele>
        <time>2014-07-15T09:56:19Z</time>
      </trkpt>
      <trkpt lat="47.82786" lon="6.95146">
        <ele>583</ele>
        <time>2014-07-15T09:56:20Z</time>
      </trkpt>
      <trkpt lat="47.82786" lon="6.95146">
        <ele>583</ele>
        <time>2014-07-15T09:56:21Z</time>
      </trkpt>
      <trkpt lat="47.82787" lon="6.95146">
        <ele>583</ele>
        <time>2014-07-15T09:56:22Z</time>
      </trkpt>
      <trkpt lat="47.82787" lon="6.95146">
        <ele>583</ele>
        <time>2014-07-15T09:56:23Z</time>
      </trkpt>
      <trkpt lat="47.82788" lon="6.95146">
        <ele>584</ele>
        <time>2014-07-15T09:56:24Z</time>
      </trkpt>
      <trkpt lat="47.82789" lon="6.95146">
        <ele>584</ele>
        <time>2014-07-15T09:56:25Z</time>
      </trkpt>
      <trkpt lat="47.82789" lon="6.95146">
        <ele>584</ele>
        <time>2014-07-15T09:56:26Z</time>
      </trkpt>
      <trkpt lat="47.8279" lon="6.95145">
        <ele>584</ele>
        <time>2014-07-15T09:56:27Z</time>
      </trkpt>
      <trkpt lat="47.82791" lon="6.95145">
        <ele>584</ele>
        <time>2014-07-15T09:56:28Z</time>
      </trkpt>
      <trkpt lat="47.82792" lon="6.95144">
        <ele>584</ele>
        <time>2014-07-15T09:56:29Z</time>
      </trkpt>
      <trkpt lat="47.82793" lon="6.95143">
        <ele>584</ele>
        <time>2014-07-15T09:56:30Z</time>
      </trkpt>
      <trkpt lat="47.82793" lon="6.95144">
        <ele>584</ele>
        <time>2014-07-15T09:56:31Z</time>
      </trkpt>
      <trkpt lat="47.82794" lon="6.95144">
        <ele>584</ele>
        <time>2014-07-15T09:56:32Z</time>
      </trkpt>
      <trkpt lat="47.82794" lon="6.95144">
        <ele>584</ele>
        <time>2014-07-15T09:56:33Z</time>
      </trkpt>
      <trkpt lat="47.82793" lon="6.95145">
        <ele>584</ele>
        <time>2014-07-15T09:56:34Z</time>
      </trkpt>
      <trkpt lat="47.82793" lon="6.95145">
        <ele>584</ele>
        <time>2014-07-15T09:56:35Z</time>
      </trkpt>
      <trkpt lat="47.82793" lon="6.95146">
        <ele>584</ele>
        <time>2014-07-15T09:56:38Z</time>
      </trkpt>
      <trkpt lat="47.82793" lon="6.95146">
        <ele>584</ele>
        <time>2014-07-15T09:56:39Z</time>
      </trkpt>
      <trkpt lat="47.82794" lon="6.95146">
        <ele>584</ele>
        <time>2014-07-15T09:56:40Z</time>
      </trkpt>
      <trkpt lat="47.82794" lon="6.95146">
        <ele>584</ele>
        <time>2014-07-15T09:56:41Z</time>
      </trkpt>
      <trkpt lat="47.82794" lon="6.95146">
        <ele>584</ele>
        <time>2014-07-15T09:56:42Z</time>
      </trkpt>
      <trkpt lat="47.82794" lon="6.95146">
        <ele>584</ele>
        <time>2014-07-15T09:56:43Z</time>
      </trkpt>
      <trkpt lat="47.82794" lon="6.95146">
        <ele>584</ele>
        <time>2014-07-15T09:56:44Z</time>
      </trkpt>
      <trkpt lat="47.82794" lon="6.95146">
        <ele>584</ele>
        <time>2014-07-15T09:56:45Z</time>
      </trkpt>
      <trkpt lat="47.82794" lon="6.95146">
        <ele>584</ele>
        <time>2014-07-15T09:56:46Z</time>
      </trkpt>
      <trkpt lat="47.82794" lon="6.95146">
        <ele>584</ele>
        <time>2014-07-15T09:56:47Z</time>
      </trkpt>
      <trkpt lat="47.82794" lon="6.95146">
        <ele>584</ele>
        <time>2014-07-15T09:56:48Z</time>
      </trkpt>
      <trkpt lat="47.82794" lon="6.95146">
        <ele>584</ele>
        <time>2014-07-15T09:56:49Z</time>
      </trkpt>
      <trkpt lat="47.82794" lon="6.95146">
        <ele>584</ele>
        <time>2014-07-15T09:56:50Z</time>
      </trkpt>
      <trkpt lat="47.82795" lon="6.95147">
        <ele>584</ele>
        <time>2014-07-15T09:56:51Z</time>
      </trkpt>
      <trkpt lat="47.82794" lon="6.95149">
        <ele>584</ele>
        <time>2014-07-15T09:56:53Z</time>
      </trkpt>
      <trkpt lat="47.82793" lon="6.9515">
        <ele>584</ele>
        <time>2014-07-15T09:56:54Z</time>
      </trkpt>
      <trkpt lat="47.82792" lon="6.9515">
        <ele>583</ele>
        <time>2014-07-15T09:56:55Z</time>
      </trkpt>
      <trkpt lat="47.82791" lon="6.95151">
        <ele>583</ele>
        <time>2014-07-15T09:56:56Z</time>
      </trkpt>
      <trkpt lat="47.8279" lon="6.95151">
        <ele>583</ele>
        <time>2014-07-15T09:56:57Z</time>
      </trkpt>
      <trkpt lat="47.82789" lon="6.95151">
        <ele>583</ele>
        <time>2014-07-15T09:56:58Z</time>
      </trkpt>
      <trkpt lat="47.82788" lon="6.95152">
        <ele>583</ele>
        <time>2014-07-15T09:56:59Z</time>
      </trkpt>
      <trkpt lat="47.82786" lon="6.95153">
        <ele>583</ele>
        <time>2014-07-15T09:57:00Z</time>
      </trkpt>
      <trkpt lat="47.82785" lon="6.95153">
        <ele>583</ele>
        <time>2014-07-15T09:57:01Z</time>
      </trkpt>
      <trkpt lat="47.82784" lon="6.95154">
        <ele>583</ele>
        <time>2014-07-15T09:57:02Z</time>
      </trkpt>
      <trkpt lat="47.82782" lon="6.95155">
        <ele>583</ele>
        <time>2014-07-15T09:57:03Z</time>
      </trkpt>
      <trkpt lat="47.82781" lon="6.95155">
        <ele>583</ele>
        <time>2014-07-15T09:57:04Z</time>
      </trkpt>
      <trkpt lat="47.8278" lon="6.95156">
        <ele>583</ele>
        <time>2014-07-15T09:57:05Z</time>
      </trkpt>
      <trkpt lat="47.82777" lon="6.95157">
        <ele>582</ele>
        <time>2014-07-15T09:57:07Z</time>
      </trkpt>
      <trkpt lat="47.82776" lon="6.95158">
        <ele>582</ele>
        <time>2014-07-15T09:57:08Z</time>
      </trkpt>
      <trkpt lat="47.82775" lon="6.95159">
        <ele>582</ele>
        <time>2014-07-15T09:57:09Z</time>
      </trkpt>
      <trkpt lat="47.82774" lon="6.95161">
        <ele>582</ele>
        <time>2014-07-15T09:57:10Z</time>
      </trkpt>
      <trkpt lat="47.82773" lon="6.95162">
        <ele>582</ele>
        <time>2014-07-15T09:57:11Z</time>
      </trkpt>
      <trkpt lat="47.82772" lon="6.95162">
        <ele>582</ele>
        <time>2014-07-15T09:57:12Z</time>
      </trkpt>
      <trkpt lat="47.82772" lon="6.95162">
        <ele>582</ele>
        <time>2014-07-15T09:57:13Z</time>
      </trkpt>
      <trkpt lat="47.82771" lon="6.95161">
        <ele>582</ele>
        <time>2014-07-15T09:57:14Z</time>
      </trkpt>
      <trkpt lat="47.8277" lon="6.9516">
        <ele>582</ele>
        <time>2014-07-15T09:57:15Z</time>
      </trkpt>
      <trkpt lat="47.82771" lon="6.9516">
        <ele>582</ele>
        <time>2014-07-15T09:57:16Z</time>
      </trkpt>
      <trkpt lat="47.82771" lon="6.9516">
        <ele>582</ele>
        <time>2014-07-15T09:57:17Z</time>
      </trkpt>
      <trkpt lat="47.82771" lon="6.95159">
        <ele>582</ele>
        <time>2014-07-15T09:57:18Z</time>
      </trkpt>
      <trkpt lat="47.82771" lon="6.95159">
        <ele>582</ele>
        <time>2014-07-15T09:57:19Z</time>
      </trkpt>
      <trkpt lat="47.82771" lon="6.95159">
        <ele>582</ele>
        <time>2014-07-15T09:57:20Z</time>
      </trkpt>
      <trkpt lat="47.82771" lon="6.95158">
        <ele>582</ele>
        <time>2014-07-15T09:57:21Z</time>
      </trkpt>
      <trkpt lat="47.82772" lon="6.95158">
        <ele>582</ele>
        <time>2014-07-15T09:57:22Z</time>
      </trkpt>
      <trkpt lat="47.82772" lon="6.95158">
        <ele>582</ele>
        <time>2014-07-15T09:57:23Z</time>
      </trkpt>
      <trkpt lat="47.82772" lon="6.95158">
        <ele>582</ele>
        <time>2014-07-15T09:57:24Z</time>
      </trkpt>
      <trkpt lat="47.82772" lon="6.95159">
        <ele>582</ele>
        <time>2014-07-15T09:57:25Z</time>
      </trkpt>
      <trkpt lat="47.82772" lon="6.95159">
        <ele>582</ele>
        <time>2014-07-15T09:57:26Z</time>
      </trkpt>
      <trkpt lat="47.82773" lon="6.95158">
        <ele>582</ele>
        <time>2014-07-15T09:57:27Z</time>
      </trkpt>
      <trkpt lat="47.82773" lon="6.95158">
        <ele>582</ele>
        <time>2014-07-15T09:57:28Z</time>
      </trkpt>
      <trkpt lat="47.82773" lon="6.95158">
        <ele>582</ele>
        <time>2014-07-15T09:57:29Z</time>
      </trkpt>
      <trkpt lat="47.82773" lon="6.95158">
        <ele>582</ele>
        <time>2014-07-15T09:57:30Z</time>
      </trkpt>
      <trkpt lat="47.82773" lon="6.95158">
        <ele>582</ele>
        <time>2014-07-15T09:57:31Z</time>
      </trkpt>
      <trkpt lat="47.82773" lon="6.95157">
        <ele>582</ele>
        <time>2014-07-15T09:57:33Z</time>
      </trkpt>
      <trkpt lat="47.82773" lon="6.95157">
        <ele>582</ele>
        <time>2014-07-15T09:57:35Z</time>
      </trkpt>
      <trkpt lat="47.82772" lon="6.95157">
        <ele>582</ele>
        <time>2014-07-15T09:57:36Z</time>
      </trkpt>
      <trkpt lat="47.82772" lon="6.95157">
        <ele>582</ele>
        <time>2014-07-15T09:57:37Z</time>
      </trkpt>
      <trkpt lat="47.82772" lon="6.95157">
        <ele>582</ele>
        <time>2014-07-15T09:57:38Z</time>
      </trkpt>
      <trkpt lat="47.82772" lon="6.95157">
        <ele>582</ele>
        <time>2014-07-15T09:57:39Z</time>
      </trkpt>
      <trkpt lat="47.82772" lon="6.95157">
        <ele>582</ele>
        <time>2014-07-15T09:57:40Z</time>
      </trkpt>
      <trkpt lat="47.82772" lon="6.95157">
        <ele>582</ele>
        <time>2014-07-15T09:57:42Z</time>
      </trkpt>
      <trkpt lat="47.82772" lon="6.95157">
        <ele>582</ele>
        <time>2014-07-15T09:57:43Z</time>
      </trkpt>
      <trkpt lat="47.82772" lon="6.95157">
        <ele>582</ele>
        <time>2014-07-15T09:57:44Z</time>
      </trkpt>
      <trkpt lat="47.82772" lon="6.95157">
        <ele>582</ele>
        <time>2014-07-15T09:57:45Z</time>
      </trkpt>
      <trkpt lat="47.82772" lon="6.95157">
        <ele>582</ele>
        <time>2014-07-15T09:57:46Z</time>
      </trkpt>
      <trkpt lat="47.82772" lon="6.95157">
        <ele>582</ele>
        <time>2014-07-15T09:57:47Z</time>
      </trkpt>
      <trkpt lat="47.82772" lon="6.95157">
        <ele>582</ele>
        <time>2014-07-15T09:57:48Z</time>
      </trkpt>
      <trkpt lat="47.82772" lon="6.95157">
        <ele>582</ele>
        <time>2014-07-15T09:57:49Z</time>
      </trkpt>
      <trkpt lat="47.82772" lon="6.95157">
        <ele>582</ele>
        <time>2014-07-15T09:57:50Z</time>
      </trkpt>
      <trkpt lat="47.82772" lon="6.95158">
        <ele>582</ele>
        <time>2014-07-15T09:57:51Z</time>
      </trkpt>
      <trkpt lat="47.82772" lon="6.95158">
        <ele>582</ele>
        <time>2014-07-15T09:57:52Z</time>
      </trkpt>
      <trkpt lat="47.82771" lon="6.95158">
        <ele>582</ele>
        <time>2014-07-15T09:57:53Z</time>
      </trkpt>
      <trkpt lat="47.82771" lon="6.95158">
        <ele>582</ele>
        <time>2014-07-15T09:57:54Z</time>
      </trkpt>
      <trkpt lat="47.82771" lon="6.95158">
        <ele>582</ele>
        <time>2014-07-15T09:57:55Z</time>
      </trkpt>
      <trkpt lat="47.8277" lon="6.95159">
        <ele>582</ele>
        <time>2014-07-15T09:57:56Z</time>
      </trkpt>
      <trkpt lat="47.8277" lon="6.95159">
        <ele>582</ele>
        <time>2014-07-15T09:57:57Z</time>
      </trkpt>
      <trkpt lat="47.8277" lon="6.95159">
        <ele>582</ele>
        <time>2014-07-15T09:57:58Z</time>
      </trkpt>
      <trkpt lat="47.8277" lon="6.95159">
        <ele>582</ele>
        <time>2014-07-15T09:57:59Z</time>
      </trkpt>
      <trkpt lat="47.8277" lon="6.95159">
        <ele>582</ele>
        <time>2014-07-15T09:58:00Z</time>
      </trkpt>
      <trkpt lat="47.8277" lon="6.95159">
        <ele>582</ele>
        <time>2014-07-15T09:58:01Z</time>
      </trkpt>
      <trkpt lat="47.8277" lon="6.95159">
        <ele>582</ele>
        <time>2014-07-15T09:58:02Z</time>
      </trkpt>
      <trkpt lat="47.8277" lon="6.95159">
        <ele>582</ele>
        <time>2014-07-15T09:58:03Z</time>
      </trkpt>
      <trkpt lat="47.82771" lon="6.95159">
        <ele>582</ele>
        <time>2014-07-15T09:58:04Z</time>
      </trkpt>
      <trkpt lat="47.82771" lon="6.95158">
        <ele>582</ele>
        <time>2014-07-15T09:58:05Z</time>
      </trkpt>
      <trkpt lat="47.82771" lon="6.95158">
        <ele>582</ele>
        <time>2014-07-15T09:58:06Z</time>
      </trkpt>
      <trkpt lat="47.82771" lon="6.95158">
        <ele>582</ele>
        <time>2014-07-15T09:58:07Z</time>
      </trkpt>
      <trkpt lat="47.82771" lon="6.95158">
        <ele>582</ele>
        <time>2014-07-15T09:58:10Z</time>
      </trkpt>
      <trkpt lat="47.82771" lon="6.95159">
        <ele>582</ele>
        <time>2014-07-15T09:58:11Z</time>
      </trkpt>
      <trkpt lat="47.82771" lon="6.95159">
        <ele>582</ele>
        <time>2014-07-15T09:58:12Z</time>
      </trkpt>
      <trkpt lat="47.82771" lon="6.95159">
        <ele>582</ele>
        <time>2014-07-15T09:58:13Z</time>
      </trkpt>
      <trkpt lat="47.82771" lon="6.95159">
        <ele>582</ele>
        <time>2014-07-15T09:58:14Z</time>
      </trkpt>
      <trkpt lat="47.82771" lon="6.95159">
        <ele>582</ele>
        <time>2014-07-15T09:58:15Z</time>
      </trkpt>
      <trkpt lat="47.82771" lon="6.95159">
        <ele>582</ele>
        <time>2014-07-15T09:58:16Z</time>
      </trkpt>
      <trkpt lat="47.82771" lon="6.95159">
        <ele>582</ele>
        <time>2014-07-15T09:58:17Z</time>
      </trkpt>
      <trkpt lat="47.82771" lon="6.95159">
        <ele>582</ele>
        <time>2014-07-15T09:58:19Z</time>
      </trkpt>
      <trkpt lat="47.82771" lon="6.95159">
        <ele>582</ele>
        <time>2014-07-15T09:58:20Z</time>
      </trkpt>
      <trkpt lat="47.82771" lon="6.95159">
        <ele>582</ele>
        <time>2014-07-15T09:58:21Z</time>
      </trkpt>
      <trkpt lat="47.82771" lon="6.95159">
        <ele>582</ele>
        <time>2014-07-15T09:58:22Z</time>
      </trkpt>
      <trkpt lat="47.82771" lon="6.95159">
        <ele>582</ele>
        <time>2014-07-15T09:58:23Z</time>
      </trkpt>
      <trkpt lat="47.82771" lon="6.95159">
        <ele>582</ele>
        <time>2014-07-15T09:58:24Z</time>
      </trkpt>
      <trkpt lat="47.82771" lon="6.95159">
        <ele>582</ele>
        <time>2014-07-15T09:58:25Z</time>
      </trkpt>
      <trkpt lat="47.82771" lon="6.95159">
        <ele>582</ele>
        <time>2014-07-15T09:58:26Z</time>
      </trkpt>
      <trkpt lat="47.82771" lon="6.95159">
        <ele>582</ele>
        <time>2014-07-15T09:58:27Z</time>
      </trkpt>
      <trkpt lat="47.82771" lon="6.95159">
        <ele>582</ele>
        <time>2014-07-15T09:58:28Z</time>
      </trkpt>
      <trkpt lat="47.82771" lon="6.95159">
        <ele>582</ele>
        <time>2014-07-15T09:58:29Z</time>
      </trkpt>
      <trkpt lat="47.82771" lon="6.95158">
        <ele>582</ele>
        <time>2014-07-15T09:58:30Z</time>
      </trkpt>
      <trkpt lat="47.82771" lon="6.95158">
        <ele>582</ele>
        <time>2014-07-15T09:58:31Z</time>
      </trkpt>
      <trkpt lat="47.82771" lon="6.95158">
        <ele>582</ele>
        <time>2014-07-15T09:58:32Z</time>
      </trkpt>
      <trkpt lat="47.82771" lon="6.95158">
        <ele>582</ele>
        <time>2014-07-15T09:58:33Z</time>
      </trkpt>
      <trkpt lat="47.82771" lon="6.95158">
        <ele>582</ele>
        <time>2014-07-15T09:58:35Z</time>
      </trkpt>
      <trkpt lat="47.82771" lon="6.95158">
        <ele>582</ele>
        <time>2014-07-15T09:58:36Z</time>
      </trkpt>
      <trkpt lat="47.82771" lon="6.95158">
        <ele>582</ele>
        <time>2014-07-15T09:58:37Z</time>
      </trkpt>
      <trkpt lat="47.82771" lon="6.95158">
        <ele>582</ele>
        <time>2014-07-15T09:58:38Z</time>
      </trkpt>
      <trkpt lat="47.82771" lon="6.95158">
        <ele>582</ele>
        <time>2014-07-15T09:58:39Z</time>
      </trkpt>
      <trkpt lat="47.82771" lon="6.95158">
        <ele>582</ele>
        <time>2014-07-15T09:58:40Z</time>
      </trkpt>
      <trkpt lat="47.82771" lon="6.95158">
        <ele>582</ele>
        <time>2014-07-15T09:58:41Z</time>
      </trkpt>
      <trkpt lat="47.82771" lon="6.95158">
        <ele>582</ele>
        <time>2014-07-15T09:58:42Z</time>
      </trkpt>
      <trkpt lat="47.82771" lon="6.95158">
        <ele>582</ele>
        <time>2014-07-15T09:58:43Z</time>
      </trkpt>
      <trkpt lat="47.82771" lon="6.95158">
        <ele>582</ele>
        <time>2014-07-15T09:58:44Z</time>
      </trkpt>
      <trkpt lat="47.82771" lon="6.95158">
        <ele>582</ele>
        <time>2014-07-15T09:58:45Z</time>
      </trkpt>
      <trkpt lat="47.82771" lon="6.95158">
        <ele>582</ele>
        <time>2014-07-15T09:58:46Z</time>
      </trkpt>
      <trkpt lat="47.82771" lon="6.95158">
        <ele>582</ele>
        <time>2014-07-15T09:58:47Z</time>
      </trkpt>
      <trkpt lat="47.82771" lon="6.95158">
        <ele>582</ele>
        <time>2014-07-15T09:58:48Z</time>
      </trkpt>
      <trkpt lat="47.82771" lon="6.95158">
        <ele>582</ele>
        <time>2014-07-15T09:58:49Z</time>
      </trkpt>
      <trkpt lat="47.82771" lon="6.95158">
        <ele>582</ele>
        <time>2014-07-15T09:58:50Z</time>
      </trkpt>
      <trkpt lat="47.82771" lon="6.95158">
        <ele>582</ele>
        <time>2014-07-15T09:58:51Z</time>
      </trkpt>
      <trkpt lat="47.82771" lon="6.95158">
        <ele>582</ele>
        <time>2014-07-15T09:58:52Z</time>
      </trkpt>
      <trkpt lat="47.82771" lon="6.95158">
        <ele>582</ele>
        <time>2014-07-15T09:58:53Z</time>
      </trkpt>
      <trkpt lat="47.82771" lon="6.95158">
        <ele>582</ele>
        <time>2014-07-15T09:58:55Z</time>
      </trkpt>
      <trkpt lat="47.82771" lon="6.95158">
        <ele>582</ele>
        <time>2014-07-15T09:58:57Z</time>
      </trkpt>
      <trkpt lat="47.82771" lon="6.95158">
        <ele>582</ele>
        <time>2014-07-15T09:58:58Z</time>
      </trkpt>
      <trkpt lat="47.82771" lon="6.95158">
        <ele>582</ele>
        <time>2014-07-15T09:58:59Z</time>
      </trkpt>
      <trkpt lat="47.82771" lon="6.95158">
        <ele>582</ele>
        <time>2014-07-15T09:59:00Z</time>
      </trkpt>
      <trkpt lat="47.82771" lon="6.95158">
        <ele>582</ele>
        <time>2014-07-15T09:59:01Z</time>
      </trkpt>
      <trkpt lat="47.82771" lon="6.95158">
        <ele>582</ele>
        <time>2014-07-15T09:59:03Z</time>
      </trkpt>
      <trkpt lat="47.82771" lon="6.95158">
        <ele>582</ele>
        <time>2014-07-15T09:59:04Z</time>
      </trkpt>
      <trkpt lat="47.82771" lon="6.95158">
        <ele>582</ele>
        <time>2014-07-15T09:59:05Z</time>
      </trkpt>
      <trkpt lat="47.82771" lon="6.95158">
        <ele>582</ele>
        <time>2014-07-15T09:59:06Z</time>
      </trkpt>
      <trkpt lat="47.82771" lon="6.95158">
        <ele>582</ele>
        <time>2014-07-15T09:59:07Z</time>
      </trkpt>
      <trkpt lat="47.82771" lon="6.95158">
        <ele>582</ele>
        <time>2014-07-15T09:59:08Z</time>
      </trkpt>
      <trkpt lat="47.82771" lon="6.95158">
        <ele>582</ele>
        <time>2014-07-15T09:59:09Z</time>
      </trkpt>
      <trkpt lat="47.82771" lon="6.95158">
        <ele>582</ele>
        <time>2014-07-15T09:59:10Z</time>
      </trkpt>
      <trkpt lat="47.82771" lon="6.95158">
        <ele>582</ele>
        <time>2014-07-15T09:59:11Z</time>
      </trkpt>
      <trkpt lat="47.82771" lon="6.95158">
        <ele>582</ele>
        <time>2014-07-15T09:59:12Z</time>
      </trkpt>
      <trkpt lat="47.82771" lon="6.95158">
        <ele>582</ele>
        <time>2014-07-15T09:59:13Z</time>
      </trkpt>
      <trkpt lat="47.82771" lon="6.95158">
        <ele>582</ele>
        <time>2014-07-15T09:59:14Z</time>
      </trkpt>
      <trkpt lat="47.82771" lon="6.95158">
        <ele>582</ele>
        <time>2014-07-15T09:59:15Z</time>
      </trkpt>
      <trkpt lat="47.82771" lon="6.95158">
        <ele>582</ele>
        <time>2014-07-15T09:59:16Z</time>
      </trkpt>
      <trkpt lat="47.82771" lon="6.95158">
        <ele>582</ele>
        <time>2014-07-15T09:59:18Z</time>
      </trkpt>
      <trkpt lat="47.82771" lon="6.95158">
        <ele>582</ele>
        <time>2014-07-15T09:59:20Z</time>
      </trkpt>
      <trkpt lat="47.82771" lon="6.95158">
        <ele>582</ele>
        <time>2014-07-15T09:59:21Z</time>
      </trkpt>
      <trkpt lat="47.82771" lon="6.95158">
        <ele>582</ele>
        <time>2014-07-15T09:59:22Z</time>
      </trkpt>
      <trkpt lat="47.82771" lon="6.95158">
        <ele>582</ele>
        <time>2014-07-15T09:59:23Z</time>
      </trkpt>
      <trkpt lat="47.82771" lon="6.95158">
        <ele>582</ele>
        <time>2014-07-15T09:59:24Z</time>
      </trkpt>
      <trkpt lat="47.82771" lon="6.95158">
        <ele>582</ele>
        <time>2014-07-15T09:59:25Z</time>
      </trkpt>
      <trkpt lat="47.82771" lon="6.95158">
        <ele>582</ele>
        <time>2014-07-15T09:59:26Z</time>
      </trkpt>
      <trkpt lat="47.82771" lon="6.95158">
        <ele>582</ele>
        <time>2014-07-15T09:59:28Z</time>
      </trkpt>
      <trkpt lat="47.82771" lon="6.95158">
        <ele>582</ele>
        <time>2014-07-15T09:59:29Z</time>
      </trkpt>
      <trkpt lat="47.82771" lon="6.95158">
        <ele>582</ele>
        <time>2014-07-15T09:59:30Z</time>
      </trkpt>
      <trkpt lat="47.82771" lon="6.95158">
        <ele>582</ele>
        <time>2014-07-15T09:59:31Z</time>
      </trkpt>
      <trkpt lat="47.82771" lon="6.95158">
        <ele>582</ele>
        <time>2014-07-15T09:59:32Z</time>
      </trkpt>
      <trkpt lat="47.82771" lon="6.95158">
        <ele>582</ele>
        <time>2014-07-15T09:59:33Z</time>
      </trkpt>
      <trkpt lat="47.82771" lon="6.95158">
        <ele>582</ele>
        <time>2014-07-15T09:59:34Z</time>
      </trkpt>
      <trkpt lat="47.82771" lon="6.95158">
        <ele>582</ele>
        <time>2014-07-15T09:59:35Z</time>
      </trkpt>
      <trkpt lat="47.82771" lon="6.95158">
        <ele>582</ele>
        <time>2014-07-15T09:59:36Z</time>
      </trkpt>
      <trkpt lat="47.82771" lon="6.95158">
        <ele>582</ele>
        <time>2014-07-15T09:59:37Z</time>
      </trkpt>
      <trkpt lat="47.82771" lon="6.95158">
        <ele>582</ele>
        <time>2014-07-15T09:59:38Z</time>
      </trkpt>
      <trkpt lat="47.82771" lon="6.95158">
        <ele>582</ele>
        <time>2014-07-15T09:59:39Z</time>
      </trkpt>
      <trkpt lat="47.82771" lon="6.95158">
        <ele>582</ele>
        <time>2014-07-15T09:59:40Z</time>
      </trkpt>
      <trkpt lat="47.82771" lon="6.95158">
        <ele>582</ele>
        <time>2014-07-15T09:59:41Z</time>
      </trkpt>
      <trkpt lat="47.82771" lon="6.95158">
        <ele>582</ele>
        <time>2014-07-15T09:59:42Z</time>
      </trkpt>
      <trkpt lat="47.82771" lon="6.95158">
        <ele>582</ele>
        <time>2014-07-15T09:59:43Z</time>
      </trkpt>
      <trkpt lat="47.82771" lon="6.95158">
        <ele>582</ele>
        <time>2014-07-15T09:59:44Z</time>
      </trkpt>
      <trkpt lat="47.82771" lon="6.95158">
        <ele>582</ele>
        <time>2014-07-15T09:59:45Z</time>
      </trkpt>
      <trkpt lat="47.82771" lon="6.95158">
        <ele>582</ele>
        <time>2014-07-15T09:59:46Z</time>
      </trkpt>
      <trkpt lat="47.82771" lon="6.95158">
        <ele>582</ele>
        <time>2014-07-15T09:59:47Z</time>
      </trkpt>
      <trkpt lat="47.82771" lon="6.95158">
        <ele>582</ele>
        <time>2014-07-15T09:59:48Z</time>
      </trkpt>
      <trkpt lat="47.82771" lon="6.95158">
        <ele>582</ele>
        <time>2014-07-15T09:59:49Z</time>
      </trkpt>
      <trkpt lat="47.82771" lon="6.95158">
        <ele>582</ele>
        <time>2014-07-15T09:59:50Z</time>
      </trkpt>
      <trkpt lat="47.82771" lon="6.95158">
        <ele>582</ele>
        <time>2014-07-15T09:59:51Z</time>
      </trkpt>
      <trkpt lat="47.82771" lon="6.95158">
        <ele>582</ele>
        <time>2014-07-15T09:59:52Z</time>
      </trkpt>
      <trkpt lat="47.82771" lon="6.95158">
        <ele>582</ele>
        <time>2014-07-15T09:59:53Z</time>
      </trkpt>
      <trkpt lat="47.82771" lon="6.95158">
        <ele>582</ele>
        <time>2014-07-15T09:59:54Z</time>
      </trkpt>
      <trkpt lat="47.82771" lon="6.95158">
        <ele>582</ele>
        <time>2014-07-15T09:59:55Z</time>
      </trkpt>
      <trkpt lat="47.82771" lon="6.95158">
        <ele>582</ele>
        <time>2014-07-15T09:59:56Z</time>
      </trkpt>
      <trkpt lat="47.82771" lon="6.95158">
        <ele>582</ele>
        <time>2014-07-15T09:59:57Z</time>
      </trkpt>
      <trkpt lat="47.82771" lon="6.95158">
        <ele>582</ele>
        <time>2014-07-15T09:59:58Z</time>
      </trkpt>
      <trkpt lat="47.82771" lon="6.95158">
        <ele>582</ele>
        <time>2014-07-15T09:59:59Z</time>
      </trkpt>
      <trkpt lat="47.82771" lon="6.95158">
        <ele>582</ele>
        <time>2014-07-15T10:00:01Z</time>
      </trkpt>
      <trkpt lat="47.82771" lon="6.95158">
        <ele>582</ele>
        <time>2014-07-15T10:00:02Z</time>
      </trkpt>
      <trkpt lat="47.82771" lon="6.95158">
        <ele>582</ele>
        <time>2014-07-15T10:00:03Z</time>
      </trkpt>
      <trkpt lat="47.82771" lon="6.95158">
        <ele>582</ele>
        <time>2014-07-15T10:00:04Z</time>
      </trkpt>
      <trkpt lat="47.82771" lon="6.95158">
        <ele>582</ele>
        <time>2014-07-15T10:00:05Z</time>
      </trkpt>
      <trkpt lat="47.82771" lon="6.95158">
        <ele>582</ele>
        <time>2014-07-15T10:00:06Z</time>
      </trkpt>
      <trkpt lat="47.82771" lon="6.95158">
        <ele>582</ele>
        <time>2014-07-15T10:00:07Z</time>
      </trkpt>
      <trkpt lat="47.82771" lon="6.95158">
        <ele>582</ele>
        <time>2014-07-15T10:00:08Z</time>
      </trkpt>
      <trkpt lat="47.82771" lon="6.95158">
        <ele>582</ele>
        <time>2014-07-15T10:00:09Z</time>
      </trkpt>
      <trkpt lat="47.82771" lon="6.95158">
        <ele>582</ele>
        <time>2014-07-15T10:00:10Z</time>
      </trkpt>
      <trkpt lat="47.82771" lon="6.95158">
        <ele>582</ele>
        <time>2014-07-15T10:00:11Z</time>
      </trkpt>
      <trkpt lat="47.82771" lon="6.95158">
        <ele>582</ele>
        <time>2014-07-15T10:00:12Z</time>
      </trkpt>
      <trkpt lat="47.82771" lon="6.95158">
        <ele>582</ele>
        <time>2014-07-15T10:00:13Z</time>
      </trkpt>
      <trkpt lat="47.82771" lon="6.95158">
        <ele>582</ele>
        <time>2014-07-15T10:00:14Z</time>
      </trkpt>
      <trkpt lat="47.82771" lon="6.95158">
        <ele>582</ele>
        <time>2014-07-15T10:00:15Z</time>
      </trkpt>
      <trkpt lat="47.82771" lon="6.95158">
        <ele>582</ele>
        <time>2014-07-15T10:00:16Z</time>
      </trkpt>
      <trkpt lat="47.82771" lon="6.95158">
        <ele>582</ele>
        <time>2014-07-15T10:00:17Z</time>
      </trkpt>
      <trkpt lat="47.82771" lon="6.95158">
        <ele>582</ele>
        <time>2014-07-15T10:00:18Z</time>
      </trkpt>
      <trkpt lat="47.82771" lon="6.95158">
        <ele>582</ele>
        <time>2014-07-15T10:00:19Z</time>
      </trkpt>
      <trkpt lat="47.82771" lon="6.95158">
        <ele>582</ele>
        <time>2014-07-15T10:00:20Z</time>
      </trkpt>
      <trkpt lat="47.82771" lon="6.95158">
        <ele>582</ele>
        <time>2014-07-15T10:00:21Z</time>
      </trkpt>
      <trkpt lat="47.82771" lon="6.95158">
        <ele>582</ele>
        <time>2014-07-15T10:00:22Z</time>
      </trkpt>
      <trkpt lat="47.82771" lon="6.95158">
        <ele>582</ele>
        <time>2014-07-15T10:00:24Z</time>
      </trkpt>
      <trkpt lat="47.82771" lon="6.95158">
        <ele>582</ele>
        <time>2014-07-15T10:00:25Z</time>
      </trkpt>
      <trkpt lat="47.82771" lon="6.95158">
        <ele>582</ele>
        <time>2014-07-15T10:00:26Z</time>
      </trkpt>
      <trkpt lat="47.82771" lon="6.95158">
        <ele>582</ele>
        <time>2014-07-15T10:00:28Z</time>
      </trkpt>
      <trkpt lat="47.82771" lon="6.95158">
        <ele>582</ele>
        <time>2014-07-15T10:00:29Z</time>
      </trkpt>
      <trkpt lat="47.82771" lon="6.95158">
        <ele>582</ele>
        <time>2014-07-15T10:00:30Z</time>
      </trkpt>
      <trkpt lat="47.82771" lon="6.95158">
        <ele>582</ele>
        <time>2014-07-15T10:00:31Z</time>
      </trkpt>
      <trkpt lat="47.82771" lon="6.95158">
        <ele>582</ele>
        <time>2014-07-15T10:00:32Z</time>
      </trkpt>
      <trkpt lat="47.82771" lon="6.95158">
        <ele>582</ele>
        <time>2014-07-15T10:00:33Z</time>
      </trkpt>
      <trkpt lat="47.82771" lon="6.95158">
        <ele>582</ele>
        <time>2014-07-15T10:00:34Z</time>
      </trkpt>
      <trkpt lat="47.82771" lon="6.95158">
        <ele>582</ele>
        <time>2014-07-15T10:00:35Z</time>
      </trkpt>
      <trkpt lat="47.82771" lon="6.95158">
        <ele>582</ele>
        <time>2014-07-15T10:00:36Z</time>
      </trkpt>
      <trkpt lat="47.82771" lon="6.95158">
        <ele>582</ele>
        <time>2014-07-15T10:00:37Z</time>
      </trkpt>
      <trkpt lat="47.82771" lon="6.95158">
        <ele>582</ele>
        <time>2014-07-15T10:00:38Z</time>
      </trkpt>
      <trkpt lat="47.82771" lon="6.95158">
        <ele>582</ele>
        <time>2014-07-15T10:00:39Z</time>
      </trkpt>
      <trkpt lat="47.82771" lon="6.95158">
        <ele>582</ele>
        <time>2014-07-15T10:00:41Z</time>
      </trkpt>
      <trkpt lat="47.82771" lon="6.95158">
        <ele>582</ele>
        <time>2014-07-15T10:00:43Z</time>
      </trkpt>
      <trkpt lat="47.82771" lon="6.95158">
        <ele>582</ele>
        <time>2014-07-15T10:00:44Z</time>
      </trkpt>
      <trkpt lat="47.82771" lon="6.95158">
        <ele>582</ele>
        <time>2014-07-15T10:00:45Z</time>
      </trkpt>
      <trkpt lat="47.82771" lon="6.95158">
        <ele>582</ele>
        <time>2014-07-15T10:00:46Z</time>
      </trkpt>
      <trkpt lat="47.82771" lon="6.95158">
        <ele>582</ele>
        <time>2014-07-15T10:00:47Z</time>
      </trkpt>
      <trkpt lat="47.82771" lon="6.95158">
        <ele>582</ele>
        <time>2014-07-15T10:00:48Z</time>
      </trkpt>
      <trkpt lat="47.82771" lon="6.95158">
        <ele>582</ele>
        <time>2014-07-15T10:00:49Z</time>
      </trkpt>
      <trkpt lat="47.82771" lon="6.95158">
        <ele>582</ele>
        <time>2014-07-15T10:00:50Z</time>
      </trkpt>
      <trkpt lat="47.82771" lon="6.95158">
        <ele>582</ele>
        <time>2014-07-15T10:00:51Z</time>
      </trkpt>
      <trkpt lat="47.82771" lon="6.95158">
        <ele>582</ele>
        <time>2014-07-15T10:00:52Z</time>
      </trkpt>
      <trkpt lat="47.82771" lon="6.95158">
        <ele>582</ele>
        <time>2014-07-15T10:00:53Z</time>
      </trkpt>
      <trkpt lat="47.82771" lon="6.95158">
        <ele>582</ele>
        <time>2014-07-15T10:00:54Z</time>
      </trkpt>
      <trkpt lat="47.82771" lon="6.95158">
        <ele>582</ele>
        <time>2014-07-15T10:00:55Z</time>
      </trkpt>
      <trkpt lat="47.82771" lon="6.95158">
        <ele>582</ele>
        <time>2014-07-15T10:00:56Z</time>
      </trkpt>
      <trkpt lat="47.82771" lon="6.95158">
        <ele>582</ele>
        <time>2014-07-15T10:00:57Z</time>
      </trkpt>
      <trkpt lat="47.82771" lon="6.95158">
        <ele>582</ele>
        <time>2014-07-15T10:00:58Z</time>
      </trkpt>
      <trkpt lat="47.82771" lon="6.95158">
        <ele>582</ele>
        <time>2014-07-15T10:00:59Z</time>
      </trkpt>
      <trkpt lat="47.82771" lon="6.95158">
        <ele>582</ele>
        <time>2014-07-15T10:01:00Z</time>
      </trkpt>
      <trkpt lat="47.82771" lon="6.95158">
        <ele>582</ele>
        <time>2014-07-15T10:01:01Z</time>
      </trkpt>
      <trkpt lat="47.82771" lon="6.95158">
        <ele>582</ele>
        <time>2014-07-15T10:01:02Z</time>
      </trkpt>
      <trkpt lat="47.82771" lon="6.95158">
        <ele>582</ele>
        <time>2014-07-15T10:01:03Z</time>
      </trkpt>
      <trkpt lat="47.82771" lon="6.95158">
        <ele>582</ele>
        <time>2014-07-15T10:01:04Z</time>
      </trkpt>
      <trkpt lat="47.82771" lon="6.95158">
        <ele>582</ele>
        <time>2014-07-15T10:01:05Z</time>
      </trkpt>
      <trkpt lat="47.82771" lon="6.95158">
        <ele>582</ele>
        <time>2014-07-15T10:01:06Z</time>
      </trkpt>
      <trkpt lat="47.82771" lon="6.95158">
        <ele>582</ele>
        <time>2014-07-15T10:01:07Z</time>
      </trkpt>
      <trkpt lat="47.82771" lon="6.95158">
        <ele>582</ele>
        <time>2014-07-15T10:01:08Z</time>
      </trkpt>
      <trkpt lat="47.82771" lon="6.95158">
        <ele>582</ele>
        <time>2014-07-15T10:01:09Z</time>
      </trkpt>
      <trkpt lat="47.82771" lon="6.95158">
        <ele>582</ele>
        <time>2014-07-15T10:01:10Z</time>
      </trkpt>
      <trkpt lat="47.82771" lon="6.95158">
        <ele>582</ele>
        <time>2014-07-15T10:01:11Z</time>
      </trkpt>
      <trkpt lat="47.82771" lon="6.95158">
        <ele>582</ele>
        <time>2014-07-15T10:01:12Z</time>
      </trkpt>
      <trkpt lat="47.82771" lon="6.95158">
        <ele>582</ele>
        <time>2014-07-15T10:01:13Z</time>
      </trkpt>
      <trkpt lat="47.82771" lon="6.95158">
        <ele>582</ele>
        <time>2014-07-15T10:01:14Z</time>
      </trkpt>
      <trkpt lat="47.82771" lon="6.95158">
        <ele>582</ele>
        <time>2014-07-15T10:01:15Z</time>
      </trkpt>
      <trkpt lat="47.82771" lon="6.95158">
        <ele>582</ele>
        <time>2014-07-15T10:01:16Z</time>
      </trkpt>
      <trkpt lat="47.82771" lon="6.95158">
        <ele>582</ele>
        <time>2014-07-15T10:01:17Z</time>
      </trkpt>
      <trkpt lat="47.82771" lon="6.95158">
        <ele>582</ele>
        <time>2014-07-15T10:01:18Z</time>
      </trkpt>
      <trkpt lat="47.82771" lon="6.95158">
        <ele>582</ele>
        <time>2014-07-15T10:01:19Z</time>
      </trkpt>
      <trkpt lat="47.82771" lon="6.95158">
        <ele>582</ele>
        <time>2014-07-15T10:01:20Z</time>
      </trkpt>
      <trkpt lat="47.82771" lon="6.95158">
        <ele>582</ele>
        <time>2014-07-15T10:01:22Z</time>
      </trkpt>
      <trkpt lat="47.82771" lon="6.95158">
        <ele>582</ele>
        <time>2014-07-15T10:01:23Z</time>
      </trkpt>
      <trkpt lat="47.82772" lon="6.95157">
        <ele>582</ele>
        <time>2014-07-15T10:01:24Z</time>
      </trkpt>
      <trkpt lat="47.82772" lon="6.95156">
        <ele>582</ele>
        <time>2014-07-15T10:01:25Z</time>
      </trkpt>
      <trkpt lat="47.82772" lon="6.95156">
        <ele>582</ele>
        <time>2014-07-15T10:01:26Z</time>
      </trkpt>
      <trkpt lat="47.82772" lon="6.95155">
        <ele>582</ele>
        <time>2014-07-15T10:01:27Z</time>
      </trkpt>
      <trkpt lat="47.82773" lon="6.95152">
        <ele>582</ele>
        <time>2014-07-15T10:01:28Z</time>
      </trkpt>
      <trkpt lat="47.82773" lon="6.95151">
        <ele>583</ele>
        <time>2014-07-15T10:01:29Z</time>
      </trkpt>
      <trkpt lat="47.82773" lon="6.9515">
        <ele>583</ele>
        <time>2014-07-15T10:01:30Z</time>
      </trkpt>
      <trkpt lat="47.82773" lon="6.95149">
        <ele>583</ele>
        <time>2014-07-15T10:01:31Z</time>
      </trkpt>
      <trkpt lat="47.82773" lon="6.95148">
        <ele>583</ele>
        <time>2014-07-15T10:01:32Z</time>
      </trkpt>
      <trkpt lat="47.82773" lon="6.95148">
        <ele>583</ele>
        <time>2014-07-15T10:01:33Z</time>
      </trkpt>
      <trkpt lat="47.82773" lon="6.95148">
        <ele>583</ele>
        <time>2014-07-15T10:01:34Z</time>
      </trkpt>
      <trkpt lat="47.82773" lon="6.95147">
        <ele>583</ele>
        <time>2014-07-15T10:01:35Z</time>
      </trkpt>
      <trkpt lat="47.82773" lon="6.95147">
        <ele>583</ele>
        <time>2014-07-15T10:01:36Z</time>
      </trkpt>
      <trkpt lat="47.82773" lon="6.95147">
        <ele>583</ele>
        <time>2014-07-15T10:01:37Z</time>
      </trkpt>
      <trkpt lat="47.82773" lon="6.95147">
        <ele>583</ele>
        <time>2014-07-15T10:01:38Z</time>
      </trkpt>
      <trkpt lat="47.82773" lon="6.95147">
        <ele>583</ele>
        <time>2014-07-15T10:01:39Z</time>
      </trkpt>
      <trkpt lat="47.82773" lon="6.95147">
        <ele>583</ele>
        <time>2014-07-15T10:01:40Z</time>
      </trkpt>
      <trkpt lat="47.82773" lon="6.95147">
        <ele>583</ele>
        <time>2014-07-15T10:01:41Z</time>
      </trkpt>
      <trkpt lat="47.82773" lon="6.95147">
        <ele>583</ele>
        <time>2014-07-15T10:01:42Z</time>
      </trkpt>
      <trkpt lat="47.82773" lon="6.95147">
        <ele>583</ele>
        <time>2014-07-15T10:01:43Z</time>
      </trkpt>
      <trkpt lat="47.82773" lon="6.95147">
        <ele>583</ele>
        <time>2014-07-15T10:01:44Z</time>
      </trkpt>
      <trkpt lat="47.82773" lon="6.95147">
        <ele>583</ele>
        <time>2014-07-15T10:01:45Z</time>
      </trkpt>
      <trkpt lat="47.82773" lon="6.95147">
        <ele>583</ele>
        <time>2014-07-15T10:01:46Z</time>
      </trkpt>
      <trkpt lat="47.82773" lon="6.95147">
        <ele>583</ele>
        <time>2014-07-15T10:01:47Z</time>
      </trkpt>
      <trkpt lat="47.82773" lon="6.95147">
        <ele>583</ele>
        <time>2014-07-15T10:01:48Z</time>
      </trkpt>
      <trkpt lat="47.82773" lon="6.95147">
        <ele>583</ele>
        <time>2014-07-15T10:01:49Z</time>
      </trkpt>
      <trkpt lat="47.82773" lon="6.95147">
        <ele>583</ele>
        <time>2014-07-15T10:01:50Z</time>
      </trkpt>
      <trkpt lat="47.82773" lon="6.95147">
        <ele>583</ele>
        <time>2014-07-15T10:01:51Z</time>
      </trkpt>
      <trkpt lat="47.82773" lon="6.95147">
        <ele>583</ele>
        <time>2014-07-15T10:01:52Z</time>
      </trkpt>
      <trkpt lat="47.82773" lon="6.95147">
        <ele>583</ele>
        <time>2014-07-15T10:01:53Z</time>
      </trkpt>
      <trkpt lat="47.82773" lon="6.95147">
        <ele>583</ele>
        <time>2014-07-15T10:01:54Z</time>
      </trkpt>
      <trkpt lat="47.82773" lon="6.95147">
        <ele>583</ele>
        <time>2014-07-15T10:01:55Z</time>
      </trkpt>
      <trkpt lat="47.82773" lon="6.95147">
        <ele>583</ele>
        <time>2014-07-15T10:01:56Z</time>
      </trkpt>
      <trkpt lat="47.82773" lon="6.95147">
        <ele>583</ele>
        <time>2014-07-15T10:01:57Z</time>
      </trkpt>
      <trkpt lat="47.82773" lon="6.95147">
        <ele>583</ele>
        <time>2014-07-15T10:01:58Z</time>
      </trkpt>
      <trkpt lat="47.82773" lon="6.95147">
        <ele>583</ele>
        <time>2014-07-15T10:01:59Z</time>
      </trkpt>
      <trkpt lat="47.82773" lon="6.95147">
        <ele>583</ele>
        <time>2014-07-15T10:02:00Z</time>
      </trkpt>
      <trkpt lat="47.82773" lon="6.95147">
        <ele>583</ele>
        <time>2014-07-15T10:02:01Z</time>
      </trkpt>
      <trkpt lat="47.82773" lon="6.95147">
        <ele>583</ele>
        <time>2014-07-15T10:02:02Z</time>
      </trkpt>
      <trkpt lat="47.82773" lon="6.95147">
        <ele>583</ele>
        <time>2014-07-15T10:02:03Z</time>
      </trkpt>
      <trkpt lat="47.82773" lon="6.95147">
        <ele>583</ele>
        <time>2014-07-15T10:02:04Z</time>
      </trkpt>
      <trkpt lat="47.82773" lon="6.95147">
        <ele>583</ele>
        <time>2014-07-15T10:02:05Z</time>
      </trkpt>
      <trkpt lat="47.82773" lon="6.95147">
        <ele>583</ele>
        <time>2014-07-15T10:02:06Z</time>
      </trkpt>
      <trkpt lat="47.82773" lon="6.95147">
        <ele>583</ele>
        <time>2014-07-15T10:02:07Z</time>
      </trkpt>
      <trkpt lat="47.82773" lon="6.95147">
        <ele>583</ele>
        <time>2014-07-15T10:02:08Z</time>
      </trkpt>
      <trkpt lat="47.82773" lon="6.95147">
        <ele>583</ele>
        <time>2014-07-15T10:02:09Z</time>
      </trkpt>
      <trkpt lat="47.82773" lon="6.95147">
        <ele>583</ele>
        <time>2014-07-15T10:02:10Z</time>
      </trkpt>
      <trkpt lat="47.82773" lon="6.95147">
        <ele>583</ele>
        <time>2014-07-15T10:02:11Z</time>
      </trkpt>
      <trkpt lat="47.82773" lon="6.95147">
        <ele>583</ele>
        <time>2014-07-15T10:02:12Z</time>
      </trkpt>
      <trkpt lat="47.82773" lon="6.95147">
        <ele>583</ele>
        <time>2014-07-15T10:02:13Z</time>
      </trkpt>
      <trkpt lat="47.82773" lon="6.95147">
        <ele>583</ele>
        <time>2014-07-15T10:02:14Z</time>
      </trkpt>
      <trkpt lat="47.82773" lon="6.95147">
        <ele>583</ele>
        <time>2014-07-15T10:02:15Z</time>
      </trkpt>
      <trkpt lat="47.82773" lon="6.95147">
        <ele>583</ele>
        <time>2014-07-15T10:02:16Z</time>
      </trkpt>
      <trkpt lat="47.82773" lon="6.95147">
        <ele>583</ele>
        <time>2014-07-15T10:02:17Z</time>
      </trkpt>
      <trkpt lat="47.82773" lon="6.95147">
        <ele>583</ele>
        <time>2014-07-15T10:02:18Z</time>
      </trkpt>
      <trkpt lat="47.82773" lon="6.95147">
        <ele>583</ele>
        <time>2014-07-15T10:02:19Z</time>
      </trkpt>
      <trkpt lat="47.82773" lon="6.95147">
        <ele>583</ele>
        <time>2014-07-15T10:02:20Z</time>
      </trkpt>
      <trkpt lat="47.82773" lon="6.95147">
        <ele>583</ele>
        <time>2014-07-15T10:02:21Z</time>
      </trkpt>
      <trkpt lat="47.82773" lon="6.95147">
        <ele>583</ele>
        <time>2014-07-15T10:02:22Z</time>
      </trkpt>
      <trkpt lat="47.82773" lon="6.95147">
        <ele>583</ele>
        <time>2014-07-15T10:02:23Z</time>
      </trkpt>
      <trkpt lat="47.82773" lon="6.95147">
        <ele>583</ele>
        <time>2014-07-15T10:02:25Z</time>
      </trkpt>
      <trkpt lat="47.82773" lon="6.95147">
        <ele>583</ele>
        <time>2014-07-15T10:02:26Z</time>
      </trkpt>
      <trkpt lat="47.82773" lon="6.95147">
        <ele>583</ele>
        <time>2014-07-15T10:02:27Z</time>
      </trkpt>
      <trkpt lat="47.82773" lon="6.95147">
        <ele>583</ele>
        <time>2014-07-15T10:02:28Z</time>
      </trkpt>
      <trkpt lat="47.82773" lon="6.95147">
        <ele>583</ele>
        <time>2014-07-15T10:02:29Z</time>
      </trkpt>
      <trkpt lat="47.82773" lon="6.95147">
        <ele>583</ele>
        <time>2014-07-15T10:02:30Z</time>
      </trkpt>
      <trkpt lat="47.82773" lon="6.95147">
        <ele>583</ele>
        <time>2014-07-15T10:02:31Z</time>
      </trkpt>
      <trkpt lat="47.82773" lon="6.95147">
        <ele>583</ele>
        <time>2014-07-15T10:02:32Z</time>
      </trkpt>
      <trkpt lat="47.82773" lon="6.95147">
        <ele>583</ele>
        <time>2014-07-15T10:02:33Z</time>
      </trkpt>
      <trkpt lat="47.82773" lon="6.95147">
        <ele>583</ele>
        <time>2014-07-15T10:02:34Z</time>
      </trkpt>
      <trkpt lat="47.82773" lon="6.95147">
        <ele>583</ele>
        <time>2014-07-15T10:02:35Z</time>
      </trkpt>
      <trkpt lat="47.82773" lon="6.95147">
        <ele>583</ele>
        <time>2014-07-15T10:02:36Z</time>
      </trkpt>
      <trkpt lat="47.82773" lon="6.95147">
        <ele>583</ele>
        <time>2014-07-15T10:02:37Z</time>
      </trkpt>
      <trkpt lat="47.82773" lon="6.95147">
        <ele>583</ele>
        <time>2014-07-15T10:02:38Z</time>
      </trkpt>
      <trkpt lat="47.82773" lon="6.95147">
        <ele>583</ele>
        <time>2014-07-15T10:02:39Z</time>
      </trkpt>
      <trkpt lat="47.82773" lon="6.95147">
        <ele>583</ele>
        <time>2014-07-15T10:02:40Z</time>
      </trkpt>
      <trkpt lat="47.82773" lon="6.95147">
        <ele>583</ele>
        <time>2014-07-15T10:02:41Z</time>
      </trkpt>
      <trkpt lat="47.82773" lon="6.95147">
        <ele>583</ele>
        <time>2014-07-15T10:02:42Z</time>
      </trkpt>
      <trkpt lat="47.82773" lon="6.95147">
        <ele>583</ele>
        <time>2014-07-15T10:02:43Z</time>
      </trkpt>
      <trkpt lat="47.82773" lon="6.95147">
        <ele>583</ele>
        <time>2014-07-15T10:02:44Z</time>
      </trkpt>
      <trkpt lat="47.82773" lon="6.95147">
        <ele>583</ele>
        <time>2014-07-15T10:02:45Z</time>
      </trkpt>
      <trkpt lat="47.82773" lon="6.95147">
        <ele>583</ele>
        <time>2014-07-15T10:02:46Z</time>
      </trkpt>
      <trkpt lat="47.82773" lon="6.95147">
        <ele>583</ele>
        <time>2014-07-15T10:02:47Z</time>
      </trkpt>
      <trkpt lat="47.82773" lon="6.95147">
        <ele>583</ele>
        <time>2014-07-15T10:02:48Z</time>
      </trkpt>
      <trkpt lat="47.82773" lon="6.95147">
        <ele>583</ele>
        <time>2014-07-15T10:02:49Z</time>
      </trkpt>
      <trkpt lat="47.82773" lon="6.95147">
        <ele>583</ele>
        <time>2014-07-15T10:02:50Z</time>
      </trkpt>
      <trkpt lat="47.82773" lon="6.95147">
        <ele>583</ele>
        <time>2014-07-15T10:02:51Z</time>
      </trkpt>
      <trkpt lat="47.82773" lon="6.95147">
        <ele>583</ele>
        <time>2014-07-15T10:02:52Z</time>
      </trkpt>
      <trkpt lat="47.82773" lon="6.95147">
        <ele>583</ele>
        <time>2014-07-15T10:02:53Z</time>
      </trkpt>
      <trkpt lat="47.82773" lon="6.95147">
        <ele>583</ele>
        <time>2014-07-15T10:02:54Z</time>
      </trkpt>
      <trkpt lat="47.82773" lon="6.95147">
        <ele>583</ele>
        <time>2014-07-15T10:02:55Z</time>
      </trkpt>
      <trkpt lat="47.82773" lon="6.95147">
        <ele>583</ele>
        <time>2014-07-15T10:02:56Z</time>
      </trkpt>
      <trkpt lat="47.82773" lon="6.95147">
        <ele>583</ele>
        <time>2014-07-15T10:02:57Z</time>
      </trkpt>
      <trkpt lat="47.82773" lon="6.95147">
        <ele>583</ele>
        <time>2014-07-15T10:02:58Z</time>
      </trkpt>
      <trkpt lat="47.82773" lon="6.95147">
        <ele>583</ele>
        <time>2014-07-15T10:02:59Z</time>
      </trkpt>
      <trkpt lat="47.82773" lon="6.95147">
        <ele>583</ele>
        <time>2014-07-15T10:03:00Z</time>
      </trkpt>
      <trkpt lat="47.82773" lon="6.95147">
        <ele>583</ele>
        <time>2014-07-15T10:03:01Z</time>
      </trkpt>
      <trkpt lat="47.82773" lon="6.95147">
        <ele>583</ele>
        <time>2014-07-15T10:03:02Z</time>
      </trkpt>
      <trkpt lat="47.82773" lon="6.95146">
        <ele>583</ele>
        <time>2014-07-15T10:03:03Z</time>
      </trkpt>
      <trkpt lat="47.82774" lon="6.95146">
        <ele>583</ele>
        <time>2014-07-15T10:03:04Z</time>
      </trkpt>
      <trkpt lat="47.82774" lon="6.95145">
        <ele>583</ele>
        <time>2014-07-15T10:03:05Z</time>
      </trkpt>
      <trkpt lat="47.82774" lon="6.95146">
        <ele>583</ele>
        <time>2014-07-15T10:03:06Z</time>
      </trkpt>
      <trkpt lat="47.82774" lon="6.95146">
        <ele>583</ele>
        <time>2014-07-15T10:03:07Z</time>
      </trkpt>
      <trkpt lat="47.82774" lon="6.95146">
        <ele>583</ele>
        <time>2014-07-15T10:03:08Z</time>
      </trkpt>
      <trkpt lat="47.82774" lon="6.95146">
        <ele>583</ele>
        <time>2014-07-15T10:03:09Z</time>
      </trkpt>
      <trkpt lat="47.82774" lon="6.95146">
        <ele>583</ele>
        <time>2014-07-15T10:03:10Z</time>
      </trkpt>
      <trkpt lat="47.82773" lon="6.95146">
        <ele>583</ele>
        <time>2014-07-15T10:03:11Z</time>
      </trkpt>
      <trkpt lat="47.82773" lon="6.95146">
        <ele>583</ele>
        <time>2014-07-15T10:03:12Z</time>
      </trkpt>
      <trkpt lat="47.82773" lon="6.95146">
        <ele>583</ele>
        <time>2014-07-15T10:03:13Z</time>
      </trkpt>
      <trkpt lat="47.82773" lon="6.95146">
        <ele>583</ele>
        <time>2014-07-15T10:03:14Z</time>
      </trkpt>
      <trkpt lat="47.82773" lon="6.95146">
        <ele>583</ele>
        <time>2014-07-15T10:03:15Z</time>
      </trkpt>
      <trkpt lat="47.82773" lon="6.95146">
        <ele>583</ele>
        <time>2014-07-15T10:03:16Z</time>
      </trkpt>
      <trkpt lat="47.82773" lon="6.95146">
        <ele>583</ele>
        <time>2014-07-15T10:03:17Z</time>
      </trkpt>
      <trkpt lat="47.82773" lon="6.95146">
        <ele>583</ele>
        <time>2014-07-15T10:03:18Z</time>
      </trkpt>
      <trkpt lat="47.82773" lon="6.95146">
        <ele>583</ele>
        <time>2014-07-15T10:03:19Z</time>
      </trkpt>
      <trkpt lat="47.82773" lon="6.95146">
        <ele>583</ele>
        <time>2014-07-15T10:03:20Z</time>
      </trkpt>
      <trkpt lat="47.82773" lon="6.95146">
        <ele>583</ele>
        <time>2014-07-15T10:03:21Z</time>
      </trkpt>
      <trkpt lat="47.82773" lon="6.95146">
        <ele>583</ele>
        <time>2014-07-15T10:03:23Z</time>
      </trkpt>
      <trkpt lat="47.82773" lon="6.95146">
        <ele>583</ele>
        <time>2014-07-15T10:03:24Z</time>
      </trkpt>
      <trkpt lat="47.82773" lon="6.95146">
        <ele>583</ele>
        <time>2014-07-15T10:03:25Z</time>
      </trkpt>
      <trkpt lat="47.82773" lon="6.95147">
        <ele>583</ele>
        <time>2014-07-15T10:03:26Z</time>
      </trkpt>
      <trkpt lat="47.82772" lon="6.95147">
        <ele>583</ele>
        <time>2014-07-15T10:03:27Z</time>
      </trkpt>
      <trkpt lat="47.82772" lon="6.95148">
        <ele>583</ele>
        <time>2014-07-15T10:03:29Z</time>
      </trkpt>
      <trkpt lat="47.82773" lon="6.95147">
        <ele>583</ele>
        <time>2014-07-15T10:03:30Z</time>
      </trkpt>
      <trkpt lat="47.82773" lon="6.95147">
        <ele>583</ele>
        <time>2014-07-15T10:03:31Z</time>
      </trkpt>
      <trkpt lat="47.82773" lon="6.95147">
        <ele>583</ele>
        <time>2014-07-15T10:03:32Z</time>
      </trkpt>
      <trkpt lat="47.82773" lon="6.95147">
        <ele>583</ele>
        <time>2014-07-15T10:03:33Z</time>
      </trkpt>
      <trkpt lat="47.82773" lon="6.95147">
        <ele>583</ele>
        <time>2014-07-15T10:03:34Z</time>
      </trkpt>
      <trkpt lat="47.82773" lon="6.95147">
        <ele>583</ele>
        <time>2014-07-15T10:03:35Z</time>
      </trkpt>
      <trkpt lat="47.82773" lon="6.95147">
        <ele>583</ele>
        <time>2014-07-15T10:03:36Z</time>
      </trkpt>
      <trkpt lat="47.82773" lon="6.95147">
        <ele>583</ele>
        <time>2014-07-15T10:03:37Z</time>
      </trkpt>
      <trkpt lat="47.82773" lon="6.95147">
        <ele>583</ele>
        <time>2014-07-15T10:03:38Z</time>
      </trkpt>
      <trkpt lat="47.82773" lon="6.95147">
        <ele>583</ele>
        <time>2014-07-15T10:03:39Z</time>
      </trkpt>
      <trkpt lat="47.82773" lon="6.95147">
        <ele>583</ele>
        <time>2014-07-15T10:03:40Z</time>
      </trkpt>
      <trkpt lat="47.82773" lon="6.95147">
        <ele>583</ele>
        <time>2014-07-15T10:03:41Z</time>
      </trkpt>
      <trkpt lat="47.82773" lon="6.95147">
        <ele>583</ele>
        <time>2014-07-15T10:03:42Z</time>
      </trkpt>
      <trkpt lat="47.82773" lon="6.95147">
        <ele>583</ele>
        <time>2014-07-15T10:03:43Z</time>
      </trkpt>
      <trkpt lat="47.82773" lon="6.95147">
        <ele>583</ele>
        <time>2014-07-15T10:03:44Z</time>
      </trkpt>
      <trkpt lat="47.82773" lon="6.95147">
        <ele>583</ele>
        <time>2014-07-15T10:03:45Z</time>
      </trkpt>
      <trkpt lat="47.82773" lon="6.95147">
        <ele>583</ele>
        <time>2014-07-15T10:03:46Z</time>
      </trkpt>
      <trkpt lat="47.82773" lon="6.95147">
        <ele>583</ele>
        <time>2014-07-15T10:03:47Z</time>
      </trkpt>
      <trkpt lat="47.82773" lon="6.95147">
        <ele>583</ele>
        <time>2014-07-15T10:03:48Z</time>
      </trkpt>
      <trkpt lat="47.82773" lon="6.95147">
        <ele>583</ele>
        <time>2014-07-15T10:03:49Z</time>
      </trkpt>
      <trkpt lat="47.82773" lon="6.95147">
        <ele>583</ele>
        <time>2014-07-15T10:03:50Z</time>
      </trkpt>
      <trkpt lat="47.82773" lon="6.95147">
        <ele>583</ele>
        <time>2014-07-15T10:03:51Z</time>
      </trkpt>
      <trkpt lat="47.82773" lon="6.95147">
        <ele>583</ele>
        <time>2014-07-15T10:03:53Z</time>
      </trkpt>
      <trkpt lat="47.82773" lon="6.95147">
        <ele>583</ele>
        <time>2014-07-15T10:03:54Z</time>
      </trkpt>
      <trkpt lat="47.82773" lon="6.95147">
        <ele>583</ele>
        <time>2014-07-15T10:03:55Z</time>
      </trkpt>
      <trkpt lat="47.82773" lon="6.95147">
        <ele>583</ele>
        <time>2014-07-15T10:03:56Z</time>
      </trkpt>
      <trkpt lat="47.82773" lon="6.95147">
        <ele>583</ele>
        <time>2014-07-15T10:03:57Z</time>
      </trkpt>
      <trkpt lat="47.82773" lon="6.95147">
        <ele>583</ele>
        <time>2014-07-15T10:03:59Z</time>
      </trkpt>
      <trkpt lat="47.82773" lon="6.95147">
        <ele>583</ele>
        <time>2014-07-15T10:04:00Z</time>
      </trkpt>
      <trkpt lat="47.82773" lon="6.95147">
        <ele>583</ele>
        <time>2014-07-15T10:04:01Z</time>
      </trkpt>
      <trkpt lat="47.82773" lon="6.95147">
        <ele>583</ele>
        <time>2014-07-15T10:04:02Z</time>
      </trkpt>
      <trkpt lat="47.82773" lon="6.95147">
        <ele>583</ele>
        <time>2014-07-15T10:04:03Z</time>
      </trkpt>
      <trkpt lat="47.82773" lon="6.95147">
        <ele>583</ele>
        <time>2014-07-15T10:04:04Z</time>
      </trkpt>
      <trkpt lat="47.82773" lon="6.95147">
        <ele>583</ele>
        <time>2014-07-15T10:04:05Z</time>
      </trkpt>
      <trkpt lat="47.82773" lon="6.95147">
        <ele>583</ele>
        <time>2014-07-15T10:04:06Z</time>
      </trkpt>
      <trkpt lat="47.82773" lon="6.95147">
        <ele>583</ele>
        <time>2014-07-15T10:04:07Z</time>
      </trkpt>
      <trkpt lat="47.82773" lon="6.95147">
        <ele>583</ele>
        <time>2014-07-15T10:04:08Z</time>
      </trkpt>
      <trkpt lat="47.82773" lon="6.95147">
        <ele>583</ele>
        <time>2014-07-15T10:04:09Z</time>
      </trkpt>
      <trkpt lat="47.82773" lon="6.95147">
        <ele>583</ele>
        <time>2014-07-15T10:04:10Z</time>
      </trkpt>
      <trkpt lat="47.82773" lon="6.95147">
        <ele>583</ele>
        <time>2014-07-15T10:04:11Z</time>
      </trkpt>
      <trkpt lat="47.82773" lon="6.95148">
        <ele>583</ele>
        <time>2014-07-15T10:04:12Z</time>
      </trkpt>
      <trkpt lat="47.82772" lon="6.95148">
        <ele>583</ele>
        <time>2014-07-15T10:04:13Z</time>
      </trkpt>
      <trkpt lat="47.82772" lon="6.95149">
        <ele>583</ele>
        <time>2014-07-15T10:04:15Z</time>
      </trkpt>
      <trkpt lat="47.82772" lon="6.95149">
        <ele>583</ele>
        <time>2014-07-15T10:04:16Z</time>
      </trkpt>
      <trkpt lat="47.82772" lon="6.95149">
        <ele>583</ele>
        <time>2014-07-15T10:04:17Z</time>
      </trkpt>
      <trkpt lat="47.82772" lon="6.95149">
        <ele>583</ele>
        <time>2014-07-15T10:04:18Z</time>
      </trkpt>
      <trkpt lat="47.82772" lon="6.95149">
        <ele>583</ele>
        <time>2014-07-15T10:04:19Z</time>
      </trkpt>
      <trkpt lat="47.82772" lon="6.95147">
        <ele>583</ele>
        <time>2014-07-15T10:04:20Z</time>
      </trkpt>
      <trkpt lat="47.82772" lon="6.95146">
        <ele>583</ele>
        <time>2014-07-15T10:04:21Z</time>
      </trkpt>
      <trkpt lat="47.82772" lon="6.95146">
        <ele>583</ele>
        <time>2014-07-15T10:04:22Z</time>
      </trkpt>
      <trkpt lat="47.82772" lon="6.95145">
        <ele>583</ele>
        <time>2014-07-15T10:04:23Z</time>
      </trkpt>
      <trkpt lat="47.82772" lon="6.95146">
        <ele>583</ele>
        <time>2014-07-15T10:04:24Z</time>
      </trkpt>
      <trkpt lat="47.82772" lon="6.95146">
        <ele>583</ele>
        <time>2014-07-15T10:04:25Z</time>
      </trkpt>
      <trkpt lat="47.82773" lon="6.95146">
        <ele>583</ele>
        <time>2014-07-15T10:04:26Z</time>
      </trkpt>
      <trkpt lat="47.82774" lon="6.95146">
        <ele>583</ele>
        <time>2014-07-15T10:04:27Z</time>
      </trkpt>
      <trkpt lat="47.82775" lon="6.95146">
        <ele>583</ele>
        <time>2014-07-15T10:04:28Z</time>
      </trkpt>
      <trkpt lat="47.82776" lon="6.95147">
        <ele>583</ele>
        <time>2014-07-15T10:04:29Z</time>
      </trkpt>
      <trkpt lat="47.82777" lon="6.95147">
        <ele>583</ele>
        <time>2014-07-15T10:04:30Z</time>
      </trkpt>
      <trkpt lat="47.82778" lon="6.95147">
        <ele>583</ele>
        <time>2014-07-15T10:04:31Z</time>
      </trkpt>
      <trkpt lat="47.82779" lon="6.95147">
        <ele>583</ele>
        <time>2014-07-15T10:04:32Z</time>
      </trkpt>
      <trkpt lat="47.8278" lon="6.95147">
        <ele>583</ele>
        <time>2014-07-15T10:04:33Z</time>
      </trkpt>
      <trkpt lat="47.82781" lon="6.95147">
        <ele>583</ele>
        <time>2014-07-15T10:04:34Z</time>
      </trkpt>
      <trkpt lat="47.82783" lon="6.95146">
        <ele>583</ele>
        <time>2014-07-15T10:04:35Z</time>
      </trkpt>
      <trkpt lat="47.82784" lon="6.95146">
        <ele>583</ele>
        <time>2014-07-15T10:04:36Z</time>
      </trkpt>
      <trkpt lat="47.82785" lon="6.95146">
        <ele>583</ele>
        <time>2014-07-15T10:04:37Z</time>
      </trkpt>
      <trkpt lat="47.82787" lon="6.95145">
        <ele>584</ele>
        <time>2014-07-15T10:04:39Z</time>
      </trkpt>
      <trkpt lat="47.82789" lon="6.95144">
        <ele>584</ele>
        <time>2014-07-15T10:04:40Z</time>
      </trkpt>
      <trkpt lat="47.82791" lon="6.95143">
        <ele>584</ele>
        <time>2014-07-15T10:04:41Z</time>
      </trkpt>
      <trkpt lat="47.82792" lon="6.95143">
        <ele>584</ele>
        <time>2014-07-15T10:04:42Z</time>
      </trkpt>
      <trkpt lat="47.82794" lon="6.95142">
        <ele>584</ele>
        <time>2014-07-15T10:04:43Z</time>
      </trkpt>
      <trkpt lat="47.82795" lon="6.9514">
        <ele>584</ele>
        <time>2014-07-15T10:04:44Z</time>
      </trkpt>
      <trkpt lat="47.82796" lon="6.95139">
        <ele>584</ele>
        <time>2014-07-15T10:04:45Z</time>
      </trkpt>
      <trkpt lat="47.82797" lon="6.95138">
        <ele>584</ele>
        <time>2014-07-15T10:04:46Z</time>
      </trkpt>
      <trkpt lat="47.82798" lon="6.95138">
        <ele>584</ele>
        <time>2014-07-15T10:04:47Z</time>
      </trkpt>
      <trkpt lat="47.82799" lon="6.95137">
        <ele>584</ele>
        <time>2014-07-15T10:04:48Z</time>
      </trkpt>
      <trkpt lat="47.828" lon="6.95136">
        <ele>584</ele>
        <time>2014-07-15T10:04:49Z</time>
      </trkpt>
      <trkpt lat="47.82801" lon="6.95135">
        <ele>584</ele>
        <time>2014-07-15T10:04:50Z</time>
      </trkpt>
      <trkpt lat="47.82803" lon="6.95134">
        <ele>584</ele>
        <time>2014-07-15T10:04:51Z</time>
      </trkpt>
      <trkpt lat="47.82804" lon="6.95133">
        <ele>585</ele>
        <time>2014-07-15T10:04:52Z</time>
      </trkpt>
      <trkpt lat="47.82806" lon="6.95132">
        <ele>585</ele>
        <time>2014-07-15T10:04:53Z</time>
      </trkpt>
      <trkpt lat="47.82807" lon="6.95131">
        <ele>585</ele>
        <time>2014-07-15T10:04:54Z</time>
      </trkpt>
      <trkpt lat="47.82809" lon="6.95129">
        <ele>585</ele>
        <time>2014-07-15T10:04:55Z</time>
      </trkpt>
      <trkpt lat="47.8281" lon="6.95128">
        <ele>585</ele>
        <time>2014-07-15T10:04:56Z</time>
      </trkpt>
      <trkpt lat="47.82812" lon="6.95127">
        <ele>585</ele>
        <time>2014-07-15T10:04:57Z</time>
      </trkpt>
      <trkpt lat="47.82813" lon="6.95126">
        <ele>585</ele>
        <time>2014-07-15T10:04:58Z</time>
      </trkpt>
      <trkpt lat="47.82816" lon="6.95124">
        <ele>585</ele>
        <time>2014-07-15T10:05:00Z</time>
      </trkpt>
      <trkpt lat="47.82817" lon="6.95123">
        <ele>585</ele>
        <time>2014-07-15T10:05:01Z</time>
      </trkpt>
      <trkpt lat="47.82818" lon="6.95122">
        <ele>585</ele>
        <time>2014-07-15T10:05:02Z</time>
      </trkpt>
      <trkpt lat="47.8282" lon="6.95121">
        <ele>586</ele>
        <time>2014-07-15T10:05:03Z</time>
      </trkpt>
      <trkpt lat="47.82821" lon="6.95121">
        <ele>586</ele>
        <time>2014-07-15T10:05:04Z</time>
      </trkpt>
      <trkpt lat="47.82822" lon="6.9512">
        <ele>586</ele>
        <time>2014-07-15T10:05:05Z</time>
      </trkpt>
      <trkpt lat="47.82823" lon="6.95119">
        <ele>586</ele>
        <time>2014-07-15T10:05:06Z</time>
      </trkpt>
      <trkpt lat="47.82825" lon="6.95119">
        <ele>586</ele>
        <time>2014-07-15T10:05:07Z</time>
      </trkpt>
      <trkpt lat="47.82826" lon="6.95118">
        <ele>586</ele>
        <time>2014-07-15T10:05:08Z</time>
      </trkpt>
      <trkpt lat="47.82828" lon="6.95116">
        <ele>586</ele>
        <time>2014-07-15T10:05:10Z</time>
      </trkpt>
      <trkpt lat="47.82829" lon="6.95116">
        <ele>586</ele>
        <time>2014-07-15T10:05:11Z</time>
      </trkpt>
      <trkpt lat="47.8283" lon="6.95115">
        <ele>586</ele>
        <time>2014-07-15T10:05:12Z</time>
      </trkpt>
      <trkpt lat="47.82831" lon="6.95115">
        <ele>586</ele>
        <time>2014-07-15T10:05:13Z</time>
      </trkpt>
      <trkpt lat="47.82832" lon="6.95114">
        <ele>586</ele>
        <time>2014-07-15T10:05:14Z</time>
      </trkpt>
      <trkpt lat="47.82833" lon="6.95114">
        <ele>587</ele>
        <time>2014-07-15T10:05:15Z</time>
      </trkpt>
      <trkpt lat="47.82835" lon="6.95113">
        <ele>587</ele>
        <time>2014-07-15T10:05:16Z</time>
      </trkpt>
      <trkpt lat="47.82836" lon="6.95112">
        <ele>588</ele>
        <time>2014-07-15T10:05:17Z</time>
      </trkpt>
      <trkpt lat="47.82838" lon="6.9511">
        <ele>588</ele>
        <time>2014-07-15T10:05:19Z</time>
      </trkpt>
      <trkpt lat="47.82839" lon="6.95109">
        <ele>588</ele>
        <time>2014-07-15T10:05:20Z</time>
      </trkpt>
      <trkpt lat="47.82839" lon="6.95109">
        <ele>588</ele>
        <time>2014-07-15T10:05:21Z</time>
      </trkpt>
      <trkpt lat="47.82838" lon="6.95109">
        <ele>588</ele>
        <time>2014-07-15T10:05:22Z</time>
      </trkpt>
      <trkpt lat="47.82838" lon="6.95109">
        <ele>588</ele>
        <time>2014-07-15T10:05:23Z</time>
      </trkpt>
      <trkpt lat="47.82838" lon="6.95108">
        <ele>588</ele>
        <time>2014-07-15T10:05:24Z</time>
      </trkpt>
      <trkpt lat="47.82839" lon="6.95108">
        <ele>588</ele>
        <time>2014-07-15T10:05:25Z</time>
      </trkpt>
      <trkpt lat="47.82839" lon="6.95108">
        <ele>588</ele>
        <time>2014-07-15T10:05:26Z</time>
      </trkpt>
      <trkpt lat="47.8284" lon="6.95107">
        <ele>588</ele>
        <time>2014-07-15T10:05:27Z</time>
      </trkpt>
      <trkpt lat="47.82842" lon="6.95106">
        <ele>588</ele>
        <time>2014-07-15T10:05:28Z</time>
      </trkpt>
      <trkpt lat="47.82843" lon="6.95104">
        <ele>588</ele>
        <time>2014-07-15T10:05:29Z</time>
      </trkpt>
      <trkpt lat="47.82845" lon="6.95103">
        <ele>588</ele>
        <time>2014-07-15T10:05:30Z</time>
      </trkpt>
      <trkpt lat="47.82846" lon="6.95102">
        <ele>588</ele>
        <time>2014-07-15T10:05:31Z</time>
      </trkpt>
      <trkpt lat="47.82848" lon="6.95101">
        <ele>588</ele>
        <time>2014-07-15T10:05:32Z</time>
      </trkpt>
      <trkpt lat="47.82849" lon="6.951">
        <ele>588</ele>
        <time>2014-07-15T10:05:33Z</time>
      </trkpt>
      <trkpt lat="47.8285" lon="6.95099">
        <ele>588</ele>
        <time>2014-07-15T10:05:34Z</time>
      </trkpt>
      <trkpt lat="47.82852" lon="6.95099">
        <ele>588</ele>
        <time>2014-07-15T10:05:35Z</time>
      </trkpt>
      <trkpt lat="47.82853" lon="6.95098">
        <ele>588</ele>
        <time>2014-07-15T10:05:36Z</time>
      </trkpt>
      <trkpt lat="47.82855" lon="6.95097">
        <ele>588</ele>
        <time>2014-07-15T10:05:37Z</time>
      </trkpt>
      <trkpt lat="47.82856" lon="6.95096">
        <ele>588</ele>
        <time>2014-07-15T10:05:38Z</time>
      </trkpt>
      <trkpt lat="47.82857" lon="6.95095">
        <ele>588</ele>
        <time>2014-07-15T10:05:39Z</time>
      </trkpt>
      <trkpt lat="47.82858" lon="6.95095">
        <ele>588</ele>
        <time>2014-07-15T10:05:40Z</time>
      </trkpt>
      <trkpt lat="47.82859" lon="6.95094">
        <ele>588</ele>
        <time>2014-07-15T10:05:41Z</time>
      </trkpt>
      <trkpt lat="47.8286" lon="6.95094">
        <ele>588</ele>
        <time>2014-07-15T10:05:42Z</time>
      </trkpt>
      <trkpt lat="47.82861" lon="6.95093">
        <ele>588</ele>
        <time>2014-07-15T10:05:43Z</time>
      </trkpt>
      <trkpt lat="47.82862" lon="6.95092">
        <ele>588</ele>
        <time>2014-07-15T10:05:44Z</time>
      </trkpt>
      <trkpt lat="47.82864" lon="6.95091">
        <ele>588</ele>
        <time>2014-07-15T10:05:46Z</time>
      </trkpt>
      <trkpt lat="47.82865" lon="6.9509">
        <ele>588</ele>
        <time>2014-07-15T10:05:47Z</time>
      </trkpt>
      <trkpt lat="47.82865" lon="6.95089">
        <ele>588</ele>
        <time>2014-07-15T10:05:48Z</time>
      </trkpt>
      <trkpt lat="47.82866" lon="6.95088">
        <ele>588</ele>
        <time>2014-07-15T10:05:49Z</time>
      </trkpt>
      <trkpt lat="47.82867" lon="6.95087">
        <ele>588</ele>
        <time>2014-07-15T10:05:50Z</time>
      </trkpt>
      <trkpt lat="47.82868" lon="6.95087">
        <ele>588</ele>
        <time>2014-07-15T10:05:51Z</time>
      </trkpt>
      <trkpt lat="47.82869" lon="6.95086">
        <ele>588</ele>
        <time>2014-07-15T10:05:52Z</time>
      </trkpt>
      <trkpt lat="47.8287" lon="6.95085">
        <ele>588</ele>
        <time>2014-07-15T10:05:53Z</time>
      </trkpt>
      <trkpt lat="47.8287" lon="6.95084">
        <ele>588</ele>
        <time>2014-07-15T10:05:54Z</time>
      </trkpt>
      <trkpt lat="47.82873" lon="6.95081">
        <ele>593</ele>
        <time>2014-07-15T10:05:57Z</time>
      </trkpt>
      <trkpt lat="47.82874" lon="6.9508">
        <ele>593</ele>
        <time>2014-07-15T10:05:58Z</time>
      </trkpt>
      <trkpt lat="47.82875" lon="6.95079">
        <ele>593</ele>
        <time>2014-07-15T10:05:59Z</time>
      </trkpt>
      <trkpt lat="47.82876" lon="6.95078">
        <ele>593</ele>
        <time>2014-07-15T10:06:00Z</time>
      </trkpt>
      <trkpt lat="47.82877" lon="6.95077">
        <ele>593</ele>
        <time>2014-07-15T10:06:01Z</time>
      </trkpt>
      <trkpt lat="47.82878" lon="6.95076">
        <ele>593</ele>
        <time>2014-07-15T10:06:02Z</time>
      </trkpt>
      <trkpt lat="47.8288" lon="6.95075">
        <ele>593</ele>
        <time>2014-07-15T10:06:03Z</time>
      </trkpt>
      <trkpt lat="47.82881" lon="6.95074">
        <ele>593</ele>
        <time>2014-07-15T10:06:04Z</time>
      </trkpt>
      <trkpt lat="47.82882" lon="6.95073">
        <ele>593</ele>
        <time>2014-07-15T10:06:05Z</time>
      </trkpt>
      <trkpt lat="47.82883" lon="6.95072">
        <ele>593</ele>
        <time>2014-07-15T10:06:06Z</time>
      </trkpt>
      <trkpt lat="47.82884" lon="6.95071">
        <ele>593</ele>
        <time>2014-07-15T10:06:07Z</time>
      </trkpt>
      <trkpt lat="47.82884" lon="6.95071">
        <ele>593</ele>
        <time>2014-07-15T10:06:08Z</time>
      </trkpt>
      <trkpt lat="47.82885" lon="6.9507">
        <ele>593</ele>
        <time>2014-07-15T10:06:09Z</time>
      </trkpt>
      <trkpt lat="47.82886" lon="6.95069">
        <ele>593</ele>
        <time>2014-07-15T10:06:10Z</time>
      </trkpt>
      <trkpt lat="47.82887" lon="6.95069">
        <ele>593</ele>
        <time>2014-07-15T10:06:11Z</time>
      </trkpt>
      <trkpt lat="47.82888" lon="6.95068">
        <ele>593</ele>
        <time>2014-07-15T10:06:12Z</time>
      </trkpt>
      <trkpt lat="47.82889" lon="6.95067">
        <ele>593</ele>
        <time>2014-07-15T10:06:13Z</time>
      </trkpt>
      <trkpt lat="47.8289" lon="6.95067">
        <ele>593</ele>
        <time>2014-07-15T10:06:14Z</time>
      </trkpt>
      <trkpt lat="47.82891" lon="6.95066">
        <ele>593</ele>
        <time>2014-07-15T10:06:15Z</time>
      </trkpt>
      <trkpt lat="47.82893" lon="6.95064">
        <ele>593</ele>
        <time>2014-07-15T10:06:17Z</time>
      </trkpt>
      <trkpt lat="47.82894" lon="6.95063">
        <ele>593</ele>
        <time>2014-07-15T10:06:18Z</time>
      </trkpt>
      <trkpt lat="47.82894" lon="6.95063">
        <ele>593</ele>
        <time>2014-07-15T10:06:19Z</time>
      </trkpt>
      <trkpt lat="47.82895" lon="6.95062">
        <ele>593</ele>
        <time>2014-07-15T10:06:20Z</time>
      </trkpt>
      <trkpt lat="47.82896" lon="6.9506">
        <ele>593</ele>
        <time>2014-07-15T10:06:21Z</time>
      </trkpt>
      <trkpt lat="47.82897" lon="6.95059">
        <ele>593</ele>
        <time>2014-07-15T10:06:22Z</time>
      </trkpt>
      <trkpt lat="47.82898" lon="6.95057">
        <ele>593</ele>
        <time>2014-07-15T10:06:23Z</time>
      </trkpt>
      <trkpt lat="47.82899" lon="6.95054">
        <ele>593</ele>
        <time>2014-07-15T10:06:25Z</time>
      </trkpt>
      <trkpt lat="47.82899" lon="6.95053">
        <ele>593</ele>
        <time>2014-07-15T10:06:26Z</time>
      </trkpt>
      <trkpt lat="47.829" lon="6.95051">
        <ele>594</ele>
        <time>2014-07-15T10:06:27Z</time>
      </trkpt>
      <trkpt lat="47.829" lon="6.95049">
        <ele>594</ele>
        <time>2014-07-15T10:06:28Z</time>
      </trkpt>
      <trkpt lat="47.82902" lon="6.95046">
        <ele>594</ele>
        <time>2014-07-15T10:06:30Z</time>
      </trkpt>
      <trkpt lat="47.82902" lon="6.95045">
        <ele>594</ele>
        <time>2014-07-15T10:06:31Z</time>
      </trkpt>
      <trkpt lat="47.82902" lon="6.95043">
        <ele>594</ele>
        <time>2014-07-15T10:06:32Z</time>
      </trkpt>
      <trkpt lat="47.82903" lon="6.95042">
        <ele>594</ele>
        <time>2014-07-15T10:06:33Z</time>
      </trkpt>
      <trkpt lat="47.82903" lon="6.95038">
        <ele>594</ele>
        <time>2014-07-15T10:06:35Z</time>
      </trkpt>
      <trkpt lat="47.82904" lon="6.95036">
        <ele>594</ele>
        <time>2014-07-15T10:06:36Z</time>
      </trkpt>
      <trkpt lat="47.82904" lon="6.95035">
        <ele>595</ele>
        <time>2014-07-15T10:06:37Z</time>
      </trkpt>
      <trkpt lat="47.82905" lon="6.95033">
        <ele>595</ele>
        <time>2014-07-15T10:06:38Z</time>
      </trkpt>
      <trkpt lat="47.82906" lon="6.9503">
        <ele>595</ele>
        <time>2014-07-15T10:06:40Z</time>
      </trkpt>
      <trkpt lat="47.82906" lon="6.95028">
        <ele>595</ele>
        <time>2014-07-15T10:06:41Z</time>
      </trkpt>
      <trkpt lat="47.82907" lon="6.95026">
        <ele>595</ele>
        <time>2014-07-15T10:06:42Z</time>
      </trkpt>
      <trkpt lat="47.82907" lon="6.95025">
        <ele>595</ele>
        <time>2014-07-15T10:06:43Z</time>
      </trkpt>
      <trkpt lat="47.82908" lon="6.95023">
        <ele>595</ele>
        <time>2014-07-15T10:06:44Z</time>
      </trkpt>
      <trkpt lat="47.82908" lon="6.95021">
        <ele>595</ele>
        <time>2014-07-15T10:06:45Z</time>
      </trkpt>
      <trkpt lat="47.82909" lon="6.9502">
        <ele>595</ele>
        <time>2014-07-15T10:06:46Z</time>
      </trkpt>
      <trkpt lat="47.8291" lon="6.95018">
        <ele>595</ele>
        <time>2014-07-15T10:06:47Z</time>
      </trkpt>
      <trkpt lat="47.8291" lon="6.95016">
        <ele>595</ele>
        <time>2014-07-15T10:06:48Z</time>
      </trkpt>
      <trkpt lat="47.82911" lon="6.95015">
        <ele>595</ele>
        <time>2014-07-15T10:06:49Z</time>
      </trkpt>
      <trkpt lat="47.82912" lon="6.95014">
        <ele>595</ele>
        <time>2014-07-15T10:06:50Z</time>
      </trkpt>
      <trkpt lat="47.82912" lon="6.95012">
        <ele>595</ele>
        <time>2014-07-15T10:06:51Z</time>
      </trkpt>
      <trkpt lat="47.82913" lon="6.95011">
        <ele>595</ele>
        <time>2014-07-15T10:06:52Z</time>
      </trkpt>
      <trkpt lat="47.82914" lon="6.95009">
        <ele>595</ele>
        <time>2014-07-15T10:06:53Z</time>
      </trkpt>
      <trkpt lat="47.82914" lon="6.95008">
        <ele>595</ele>
        <time>2014-07-15T10:06:54Z</time>
      </trkpt>
      <trkpt lat="47.82915" lon="6.95006">
        <ele>595</ele>
        <time>2014-07-15T10:06:55Z</time>
      </trkpt>
      <trkpt lat="47.82916" lon="6.95005">
        <ele>595</ele>
        <time>2014-07-15T10:06:56Z</time>
      </trkpt>
      <trkpt lat="47.82917" lon="6.95003">
        <ele>595</ele>
        <time>2014-07-15T10:06:57Z</time>
      </trkpt>
      <trkpt lat="47.82918" lon="6.95002">
        <ele>595</ele>
        <time>2014-07-15T10:06:58Z</time>
      </trkpt>
      <trkpt lat="47.82919" lon="6.95001">
        <ele>595</ele>
        <time>2014-07-15T10:06:59Z</time>
      </trkpt>
      <trkpt lat="47.8292" lon="6.94999">
        <ele>596</ele>
        <time>2014-07-15T10:07:00Z</time>
      </trkpt>
      <trkpt lat="47.82921" lon="6.94998">
        <ele>596</ele>
        <time>2014-07-15T10:07:01Z</time>
      </trkpt>
      <trkpt lat="47.82922" lon="6.94997">
        <ele>596</ele>
        <time>2014-07-15T10:07:02Z</time>
      </trkpt>
      <trkpt lat="47.82923" lon="6.94995">
        <ele>597</ele>
        <time>2014-07-15T10:07:03Z</time>
      </trkpt>
      <trkpt lat="47.82924" lon="6.94994">
        <ele>597</ele>
        <time>2014-07-15T10:07:04Z</time>
      </trkpt>
      <trkpt lat="47.82925" lon="6.94992">
        <ele>597</ele>
        <time>2014-07-15T10:07:05Z</time>
      </trkpt>
      <trkpt lat="47.82926" lon="6.9499">
        <ele>598</ele>
        <time>2014-07-15T10:07:06Z</time>
      </trkpt>
      <trkpt lat="47.82927" lon="6.94989">
        <ele>598</ele>
        <time>2014-07-15T10:07:07Z</time>
      </trkpt>
      <trkpt lat="47.82928" lon="6.94989">
        <ele>598</ele>
        <time>2014-07-15T10:07:08Z</time>
      </trkpt>
      <trkpt lat="47.82929" lon="6.94988">
        <ele>598</ele>
        <time>2014-07-15T10:07:09Z</time>
      </trkpt>
      <trkpt lat="47.82929" lon="6.94986">
        <ele>599</ele>
        <time>2014-07-15T10:07:10Z</time>
      </trkpt>
      <trkpt lat="47.8293" lon="6.94985">
        <ele>599</ele>
        <time>2014-07-15T10:07:11Z</time>
      </trkpt>
      <trkpt lat="47.82932" lon="6.94983">
        <ele>599</ele>
        <time>2014-07-15T10:07:13Z</time>
      </trkpt>
      <trkpt lat="47.82932" lon="6.94981">
        <ele>599</ele>
        <time>2014-07-15T10:07:14Z</time>
      </trkpt>
      <trkpt lat="47.82932" lon="6.9498">
        <ele>599</ele>
        <time>2014-07-15T10:07:15Z</time>
      </trkpt>
      <trkpt lat="47.82933" lon="6.94979">
        <ele>600</ele>
        <time>2014-07-15T10:07:16Z</time>
      </trkpt>
      <trkpt lat="47.82934" lon="6.94978">
        <ele>600</ele>
        <time>2014-07-15T10:07:17Z</time>
      </trkpt>
      <trkpt lat="47.82935" lon="6.94977">
        <ele>600</ele>
        <time>2014-07-15T10:07:18Z</time>
      </trkpt>
      <trkpt lat="47.82936" lon="6.94976">
        <ele>600</ele>
        <time>2014-07-15T10:07:19Z</time>
      </trkpt>
      <trkpt lat="47.82937" lon="6.94974">
        <ele>600</ele>
        <time>2014-07-15T10:07:20Z</time>
      </trkpt>
      <trkpt lat="47.82938" lon="6.94973">
        <ele>600</ele>
        <time>2014-07-15T10:07:21Z</time>
      </trkpt>
      <trkpt lat="47.82939" lon="6.94971">
        <ele>600</ele>
        <time>2014-07-15T10:07:22Z</time>
      </trkpt>
      <trkpt lat="47.82939" lon="6.9497">
        <ele>601</ele>
        <time>2014-07-15T10:07:23Z</time>
      </trkpt>
      <trkpt lat="47.8294" lon="6.94969">
        <ele>601</ele>
        <time>2014-07-15T10:07:24Z</time>
      </trkpt>
      <trkpt lat="47.82941" lon="6.94968">
        <ele>601</ele>
        <time>2014-07-15T10:07:25Z</time>
      </trkpt>
      <trkpt lat="47.82942" lon="6.94967">
        <ele>601</ele>
        <time>2014-07-15T10:07:26Z</time>
      </trkpt>
      <trkpt lat="47.82943" lon="6.94966">
        <ele>601</ele>
        <time>2014-07-15T10:07:27Z</time>
      </trkpt>
      <trkpt lat="47.82944" lon="6.94965">
        <ele>601</ele>
        <time>2014-07-15T10:07:28Z</time>
      </trkpt>
      <trkpt lat="47.82945" lon="6.94964">
        <ele>601</ele>
        <time>2014-07-15T10:07:29Z</time>
      </trkpt>
      <trkpt lat="47.82946" lon="6.94963">
        <ele>601</ele>
        <time>2014-07-15T10:07:30Z</time>
      </trkpt>
      <trkpt lat="47.82949" lon="6.94961">
        <ele>601</ele>
        <time>2014-07-15T10:07:32Z</time>
      </trkpt>
      <trkpt lat="47.8295" lon="6.9496">
        <ele>601</ele>
        <time>2014-07-15T10:07:33Z</time>
      </trkpt>
      <trkpt lat="47.82951" lon="6.94959">
        <ele>601</ele>
        <time>2014-07-15T10:07:34Z</time>
      </trkpt>
      <trkpt lat="47.82952" lon="6.94958">
        <ele>601</ele>
        <time>2014-07-15T10:07:35Z</time>
      </trkpt>
      <trkpt lat="47.82952" lon="6.94956">
        <ele>602</ele>
        <time>2014-07-15T10:07:36Z</time>
      </trkpt>
      <trkpt lat="47.82953" lon="6.94955">
        <ele>602</ele>
        <time>2014-07-15T10:07:37Z</time>
      </trkpt>
      <trkpt lat="47.82954" lon="6.94953">
        <ele>602</ele>
        <time>2014-07-15T10:07:38Z</time>
      </trkpt>
      <trkpt lat="47.82955" lon="6.94952">
        <ele>602</ele>
        <time>2014-07-15T10:07:39Z</time>
      </trkpt>
      <trkpt lat="47.82956" lon="6.94951">
        <ele>602</ele>
        <time>2014-07-15T10:07:40Z</time>
      </trkpt>
      <trkpt lat="47.82957" lon="6.94949">
        <ele>602</ele>
        <time>2014-07-15T10:07:41Z</time>
      </trkpt>
      <trkpt lat="47.82958" lon="6.94948">
        <ele>602</ele>
        <time>2014-07-15T10:07:42Z</time>
      </trkpt>
      <trkpt lat="47.82959" lon="6.94947">
        <ele>602</ele>
        <time>2014-07-15T10:07:43Z</time>
      </trkpt>
      <trkpt lat="47.82959" lon="6.94945">
        <ele>602</ele>
        <time>2014-07-15T10:07:44Z</time>
      </trkpt>
      <trkpt lat="47.8296" lon="6.94944">
        <ele>602</ele>
        <time>2014-07-15T10:07:45Z</time>
      </trkpt>
      <trkpt lat="47.82961" lon="6.94943">
        <ele>602</ele>
        <time>2014-07-15T10:07:46Z</time>
      </trkpt>
      <trkpt lat="47.82962" lon="6.94942">
        <ele>602</ele>
        <time>2014-07-15T10:07:47Z</time>
      </trkpt>
      <trkpt lat="47.82963" lon="6.9494">
        <ele>602</ele>
        <time>2014-07-15T10:07:48Z</time>
      </trkpt>
      <trkpt lat="47.82963" lon="6.94939">
        <ele>602</ele>
        <time>2014-07-15T10:07:49Z</time>
      </trkpt>
      <trkpt lat="47.82964" lon="6.94938">
        <ele>602</ele>
        <time>2014-07-15T10:07:50Z</time>
      </trkpt>
      <trkpt lat="47.82965" lon="6.94937">
        <ele>602</ele>
        <time>2014-07-15T10:07:51Z</time>
      </trkpt>
      <trkpt lat="47.82966" lon="6.94937">
        <ele>602</ele>
        <time>2014-07-15T10:07:52Z</time>
      </trkpt>
      <trkpt lat="47.82967" lon="6.94936">
        <ele>602</ele>
        <time>2014-07-15T10:07:53Z</time>
      </trkpt>
      <trkpt lat="47.82967" lon="6.94935">
        <ele>602</ele>
        <time>2014-07-15T10:07:54Z</time>
      </trkpt>
      <trkpt lat="47.82968" lon="6.94934">
        <ele>602</ele>
        <time>2014-07-15T10:07:55Z</time>
      </trkpt>
      <trkpt lat="47.82969" lon="6.94932">
        <ele>602</ele>
        <time>2014-07-15T10:07:56Z</time>
      </trkpt>
      <trkpt lat="47.8297" lon="6.94931">
        <ele>602</ele>
        <time>2014-07-15T10:07:57Z</time>
      </trkpt>
      <trkpt lat="47.82971" lon="6.94929">
        <ele>602</ele>
        <time>2014-07-15T10:07:58Z</time>
      </trkpt>
      <trkpt lat="47.82971" lon="6.94928">
        <ele>602</ele>
        <time>2014-07-15T10:07:59Z</time>
      </trkpt>
      <trkpt lat="47.82972" lon="6.94927">
        <ele>602</ele>
        <time>2014-07-15T10:08:00Z</time>
      </trkpt>
      <trkpt lat="47.82973" lon="6.94926">
        <ele>602</ele>
        <time>2014-07-15T10:08:01Z</time>
      </trkpt>
      <trkpt lat="47.82974" lon="6.94925">
        <ele>601</ele>
        <time>2014-07-15T10:08:02Z</time>
      </trkpt>
      <trkpt lat="47.82974" lon="6.94923">
        <ele>601</ele>
        <time>2014-07-15T10:08:03Z</time>
      </trkpt>
      <trkpt lat="47.82975" lon="6.94922">
        <ele>601</ele>
        <time>2014-07-15T10:08:04Z</time>
      </trkpt>
      <trkpt lat="47.82976" lon="6.9492">
        <ele>601</ele>
        <time>2014-07-15T10:08:05Z</time>
      </trkpt>
      <trkpt lat="47.82976" lon="6.94918">
        <ele>601</ele>
        <time>2014-07-15T10:08:06Z</time>
      </trkpt>
      <trkpt lat="47.82977" lon="6.94917">
        <ele>601</ele>
        <time>2014-07-15T10:08:07Z</time>
      </trkpt>
      <trkpt lat="47.82978" lon="6.94915">
        <ele>609</ele>
        <time>2014-07-15T10:08:08Z</time>
      </trkpt>
      <trkpt lat="47.82979" lon="6.94914">
        <ele>608</ele>
        <time>2014-07-15T10:08:09Z</time>
      </trkpt>
      <trkpt lat="47.8298" lon="6.94913">
        <ele>608</ele>
        <time>2014-07-15T10:08:10Z</time>
      </trkpt>
      <trkpt lat="47.8298" lon="6.94911">
        <ele>608</ele>
        <time>2014-07-15T10:08:11Z</time>
      </trkpt>
      <trkpt lat="47.82981" lon="6.9491">
        <ele>608</ele>
        <time>2014-07-15T10:08:12Z</time>
      </trkpt>
      <trkpt lat="47.82982" lon="6.94908">
        <ele>608</ele>
        <time>2014-07-15T10:08:13Z</time>
      </trkpt>
      <trkpt lat="47.82983" lon="6.94907">
        <ele>608</ele>
        <time>2014-07-15T10:08:14Z</time>
      </trkpt>
      <trkpt lat="47.82984" lon="6.94906">
        <ele>608</ele>
        <time>2014-07-15T10:08:15Z</time>
      </trkpt>
      <trkpt lat="47.82984" lon="6.94904">
        <ele>608</ele>
        <time>2014-07-15T10:08:16Z</time>
      </trkpt>
      <trkpt lat="47.82985" lon="6.94903">
        <ele>608</ele>
        <time>2014-07-15T10:08:17Z</time>
      </trkpt>
      <trkpt lat="47.82986" lon="6.94902">
        <ele>608</ele>
        <time>2014-07-15T10:08:18Z</time>
      </trkpt>
      <trkpt lat="47.82987" lon="6.949">
        <ele>608</ele>
        <time>2014-07-15T10:08:19Z</time>
      </trkpt>
      <trkpt lat="47.82988" lon="6.94899">
        <ele>609</ele>
        <time>2014-07-15T10:08:20Z</time>
      </trkpt>
      <trkpt lat="47.82988" lon="6.94898">
        <ele>609</ele>
        <time>2014-07-15T10:08:21Z</time>
      </trkpt>
      <trkpt lat="47.82989" lon="6.94896">
        <ele>609</ele>
        <time>2014-07-15T10:08:22Z</time>
      </trkpt>
      <trkpt lat="47.8299" lon="6.94895">
        <ele>609</ele>
        <time>2014-07-15T10:08:23Z</time>
      </trkpt>
      <trkpt lat="47.82991" lon="6.94894">
        <ele>609</ele>
        <time>2014-07-15T10:08:24Z</time>
      </trkpt>
      <trkpt lat="47.82992" lon="6.94893">
        <ele>609</ele>
        <time>2014-07-15T10:08:25Z</time>
      </trkpt>
      <trkpt lat="47.82993" lon="6.94891">
        <ele>609</ele>
        <time>2014-07-15T10:08:26Z</time>
      </trkpt>
      <trkpt lat="47.82994" lon="6.9489">
        <ele>609</ele>
        <time>2014-07-15T10:08:27Z</time>
      </trkpt>
      <trkpt lat="47.82995" lon="6.94889">
        <ele>610</ele>
        <time>2014-07-15T10:08:28Z</time>
      </trkpt>
      <trkpt lat="47.82996" lon="6.94888">
        <ele>610</ele>
        <time>2014-07-15T10:08:29Z</time>
      </trkpt>
      <trkpt lat="47.82997" lon="6.94887">
        <ele>610</ele>
        <time>2014-07-15T10:08:30Z</time>
      </trkpt>
      <trkpt lat="47.82998" lon="6.94885">
        <ele>610</ele>
        <time>2014-07-15T10:08:31Z</time>
      </trkpt>
      <trkpt lat="47.82998" lon="6.94884">
        <ele>610</ele>
        <time>2014-07-15T10:08:32Z</time>
      </trkpt>
      <trkpt lat="47.82999" lon="6.94882">
        <ele>610</ele>
        <time>2014-07-15T10:08:33Z</time>
      </trkpt>
      <trkpt lat="47.83" lon="6.94881">
        <ele>605</ele>
        <time>2014-07-15T10:08:34Z</time>
      </trkpt>
      <trkpt lat="47.83001" lon="6.94879">
        <ele>605</ele>
        <time>2014-07-15T10:08:35Z</time>
      </trkpt>
      <trkpt lat="47.83002" lon="6.94878">
        <ele>605</ele>
        <time>2014-07-15T10:08:36Z</time>
      </trkpt>
      <trkpt lat="47.83003" lon="6.94877">
        <ele>605</ele>
        <time>2014-07-15T10:08:37Z</time>
      </trkpt>
      <trkpt lat="47.83004" lon="6.94876">
        <ele>605</ele>
        <time>2014-07-15T10:08:38Z</time>
      </trkpt>
      <trkpt lat="47.83005" lon="6.94875">
        <ele>606</ele>
        <time>2014-07-15T10:08:39Z</time>
      </trkpt>
      <trkpt lat="47.83006" lon="6.94874">
        <ele>606</ele>
        <time>2014-07-15T10:08:40Z</time>
      </trkpt>
      <trkpt lat="47.83008" lon="6.94873">
        <ele>606</ele>
        <time>2014-07-15T10:08:41Z</time>
      </trkpt>
      <trkpt lat="47.83009" lon="6.94872">
        <ele>606</ele>
        <time>2014-07-15T10:08:42Z</time>
      </trkpt>
      <trkpt lat="47.8301" lon="6.94871">
        <ele>606</ele>
        <time>2014-07-15T10:08:43Z</time>
      </trkpt>
      <trkpt lat="47.83011" lon="6.9487">
        <ele>606</ele>
        <time>2014-07-15T10:08:44Z</time>
      </trkpt>
      <trkpt lat="47.83012" lon="6.94868">
        <ele>606</ele>
        <time>2014-07-15T10:08:45Z</time>
      </trkpt>
      <trkpt lat="47.83013" lon="6.94867">
        <ele>606</ele>
        <time>2014-07-15T10:08:46Z</time>
      </trkpt>
      <trkpt lat="47.83014" lon="6.94866">
        <ele>606</ele>
        <time>2014-07-15T10:08:47Z</time>
      </trkpt>
      <trkpt lat="47.83015" lon="6.94865">
        <ele>606</ele>
        <time>2014-07-15T10:08:48Z</time>
      </trkpt>
      <trkpt lat="47.83016" lon="6.94864">
        <ele>606</ele>
        <time>2014-07-15T10:08:49Z</time>
      </trkpt>
      <trkpt lat="47.83017" lon="6.94863">
        <ele>606</ele>
        <time>2014-07-15T10:08:50Z</time>
      </trkpt>
      <trkpt lat="47.83018" lon="6.94863">
        <ele>606</ele>
        <time>2014-07-15T10:08:51Z</time>
      </trkpt>
      <trkpt lat="47.83019" lon="6.94862">
        <ele>606</ele>
        <time>2014-07-15T10:08:52Z</time>
      </trkpt>
      <trkpt lat="47.8302" lon="6.94861">
        <ele>607</ele>
        <time>2014-07-15T10:08:53Z</time>
      </trkpt>
      <trkpt lat="47.83021" lon="6.9486">
        <ele>607</ele>
        <time>2014-07-15T10:08:54Z</time>
      </trkpt>
      <trkpt lat="47.83023" lon="6.94859">
        <ele>607</ele>
        <time>2014-07-15T10:08:55Z</time>
      </trkpt>
      <trkpt lat="47.83024" lon="6.94858">
        <ele>607</ele>
        <time>2014-07-15T10:08:56Z</time>
      </trkpt>
      <trkpt lat="47.83025" lon="6.94857">
        <ele>607</ele>
        <time>2014-07-15T10:08:57Z</time>
      </trkpt>
      <trkpt lat="47.83026" lon="6.94856">
        <ele>607</ele>
        <time>2014-07-15T10:08:58Z</time>
      </trkpt>
      <trkpt lat="47.83027" lon="6.94855">
        <ele>607</ele>
        <time>2014-07-15T10:08:59Z</time>
      </trkpt>
      <trkpt lat="47.83028" lon="6.94854">
        <ele>607</ele>
        <time>2014-07-15T10:09:00Z</time>
      </trkpt>
      <trkpt lat="47.83029" lon="6.94853">
        <ele>607</ele>
        <time>2014-07-15T10:09:01Z</time>
      </trkpt>
      <trkpt lat="47.8303" lon="6.94852">
        <ele>607</ele>
        <time>2014-07-15T10:09:02Z</time>
      </trkpt>
      <trkpt lat="47.83032" lon="6.94851">
        <ele>607</ele>
        <time>2014-07-15T10:09:04Z</time>
      </trkpt>
      <trkpt lat="47.83033" lon="6.94851">
        <ele>607</ele>
        <time>2014-07-15T10:09:05Z</time>
      </trkpt>
      <trkpt lat="47.83034" lon="6.94851">
        <ele>607</ele>
        <time>2014-07-15T10:09:06Z</time>
      </trkpt>
      <trkpt lat="47.83035" lon="6.9485">
        <ele>607</ele>
        <time>2014-07-15T10:09:07Z</time>
      </trkpt>
      <trkpt lat="47.83036" lon="6.9485">
        <ele>607</ele>
        <time>2014-07-15T10:09:08Z</time>
      </trkpt>
      <trkpt lat="47.83037" lon="6.94849">
        <ele>607</ele>
        <time>2014-07-15T10:09:09Z</time>
      </trkpt>
      <trkpt lat="47.83038" lon="6.94848">
        <ele>607</ele>
        <time>2014-07-15T10:09:10Z</time>
      </trkpt>
      <trkpt lat="47.83039" lon="6.94848">
        <ele>607</ele>
        <time>2014-07-15T10:09:11Z</time>
      </trkpt>
      <trkpt lat="47.8304" lon="6.94847">
        <ele>607</ele>
        <time>2014-07-15T10:09:12Z</time>
      </trkpt>
      <trkpt lat="47.83041" lon="6.94846">
        <ele>607</ele>
        <time>2014-07-15T10:09:13Z</time>
      </trkpt>
      <trkpt lat="47.83042" lon="6.94845">
        <ele>607</ele>
        <time>2014-07-15T10:09:14Z</time>
      </trkpt>
      <trkpt lat="47.83043" lon="6.94844">
        <ele>607</ele>
        <time>2014-07-15T10:09:15Z</time>
      </trkpt>
      <trkpt lat="47.83045" lon="6.94843">
        <ele>607</ele>
        <time>2014-07-15T10:09:16Z</time>
      </trkpt>
      <trkpt lat="47.83046" lon="6.94842">
        <ele>607</ele>
        <time>2014-07-15T10:09:17Z</time>
      </trkpt>
      <trkpt lat="47.83047" lon="6.94841">
        <ele>607</ele>
        <time>2014-07-15T10:09:18Z</time>
      </trkpt>
      <trkpt lat="47.83048" lon="6.9484">
        <ele>608</ele>
        <time>2014-07-15T10:09:19Z</time>
      </trkpt>
      <trkpt lat="47.8305" lon="6.94838">
        <ele>608</ele>
        <time>2014-07-15T10:09:21Z</time>
      </trkpt>
      <trkpt lat="47.83051" lon="6.94837">
        <ele>608</ele>
        <time>2014-07-15T10:09:22Z</time>
      </trkpt>
      <trkpt lat="47.83051" lon="6.94836">
        <ele>608</ele>
        <time>2014-07-15T10:09:23Z</time>
      </trkpt>
      <trkpt lat="47.83052" lon="6.94834">
        <ele>608</ele>
        <time>2014-07-15T10:09:24Z</time>
      </trkpt>
      <trkpt lat="47.83053" lon="6.94832">
        <ele>611</ele>
        <time>2014-07-15T10:09:25Z</time>
      </trkpt>
      <trkpt lat="47.83054" lon="6.9483">
        <ele>611</ele>
        <time>2014-07-15T10:09:26Z</time>
      </trkpt>
      <trkpt lat="47.83054" lon="6.94829">
        <ele>611</ele>
        <time>2014-07-15T10:09:27Z</time>
      </trkpt>
      <trkpt lat="47.83055" lon="6.94827">
        <ele>611</ele>
        <time>2014-07-15T10:09:28Z</time>
      </trkpt>
      <trkpt lat="47.83056" lon="6.94826">
        <ele>611</ele>
        <time>2014-07-15T10:09:29Z</time>
      </trkpt>
      <trkpt lat="47.83057" lon="6.94825">
        <ele>611</ele>
        <time>2014-07-15T10:09:30Z</time>
      </trkpt>
      <trkpt lat="47.83058" lon="6.94823">
        <ele>611</ele>
        <time>2014-07-15T10:09:31Z</time>
      </trkpt>
      <trkpt lat="47.83059" lon="6.94822">
        <ele>611</ele>
        <time>2014-07-15T10:09:32Z</time>
      </trkpt>
      <trkpt lat="47.8306" lon="6.9482">
        <ele>611</ele>
        <time>2014-07-15T10:09:33Z</time>
      </trkpt>
      <trkpt lat="47.8306" lon="6.94818">
        <ele>611</ele>
        <time>2014-07-15T10:09:34Z</time>
      </trkpt>
      <trkpt lat="47.83061" lon="6.94816">
        <ele>611</ele>
        <time>2014-07-15T10:09:35Z</time>
      </trkpt>
      <trkpt lat="47.83062" lon="6.94814">
        <ele>611</ele>
        <time>2014-07-15T10:09:36Z</time>
      </trkpt>
      <trkpt lat="47.83063" lon="6.94812">
        <ele>611</ele>
        <time>2014-07-15T10:09:37Z</time>
      </trkpt>
      <trkpt lat="47.83063" lon="6.9481">
        <ele>612</ele>
        <time>2014-07-15T10:09:38Z</time>
      </trkpt>
      <trkpt lat="47.83064" lon="6.94808">
        <ele>612</ele>
        <time>2014-07-15T10:09:39Z</time>
      </trkpt>
      <trkpt lat="47.83065" lon="6.94806">
        <ele>612</ele>
        <time>2014-07-15T10:09:40Z</time>
      </trkpt>
      <trkpt lat="47.83065" lon="6.94804">
        <ele>612</ele>
        <time>2014-07-15T10:09:41Z</time>
      </trkpt>
      <trkpt lat="47.83066" lon="6.94802">
        <ele>612</ele>
        <time>2014-07-15T10:09:42Z</time>
      </trkpt>
      <trkpt lat="47.83067" lon="6.948">
        <ele>612</ele>
        <time>2014-07-15T10:09:43Z</time>
      </trkpt>
      <trkpt lat="47.83067" lon="6.94798">
        <ele>612</ele>
        <time>2014-07-15T10:09:44Z</time>
      </trkpt>
      <trkpt lat="47.83068" lon="6.94796">
        <ele>612</ele>
        <time>2014-07-15T10:09:45Z</time>
      </trkpt>
      <trkpt lat="47.83068" lon="6.94795">
        <ele>612</ele>
        <time>2014-07-15T10:09:46Z</time>
      </trkpt>
      <trkpt lat="47.83068" lon="6.94793">
        <ele>612</ele>
        <time>2014-07-15T10:09:47Z</time>
      </trkpt>
      <trkpt lat="47.83068" lon="6.94791">
        <ele>612</ele>
        <time>2014-07-15T10:09:48Z</time>
      </trkpt>
      <trkpt lat="47.83068" lon="6.94789">
        <ele>612</ele>
        <time>2014-07-15T10:09:49Z</time>
      </trkpt>
      <trkpt lat="47.83069" lon="6.94788">
        <ele>612</ele>
        <time>2014-07-15T10:09:50Z</time>
      </trkpt>
      <trkpt lat="47.83069" lon="6.94789">
        <ele>612</ele>
        <time>2014-07-15T10:09:51Z</time>
      </trkpt>
      <trkpt lat="47.8307" lon="6.9479">
        <ele>612</ele>
        <time>2014-07-15T10:09:52Z</time>
      </trkpt>
      <trkpt lat="47.8307" lon="6.9479">
        <ele>612</ele>
        <time>2014-07-15T10:09:53Z</time>
      </trkpt>
      <trkpt lat="47.8307" lon="6.9479">
        <ele>612</ele>
        <time>2014-07-15T10:09:54Z</time>
      </trkpt>
      <trkpt lat="47.8307" lon="6.94789">
        <ele>612</ele>
        <time>2014-07-15T10:09:55Z</time>
      </trkpt>
      <trkpt lat="47.8307" lon="6.94789">
        <ele>612</ele>
        <time>2014-07-15T10:09:56Z</time>
      </trkpt>
      <trkpt lat="47.83071" lon="6.94787">
        <ele>612</ele>
        <time>2014-07-15T10:09:57Z</time>
      </trkpt>
      <trkpt lat="47.83071" lon="6.94786">
        <ele>612</ele>
        <time>2014-07-15T10:09:58Z</time>
      </trkpt>
      <trkpt lat="47.83072" lon="6.94785">
        <ele>612</ele>
        <time>2014-07-15T10:09:59Z</time>
      </trkpt>
      <trkpt lat="47.83072" lon="6.94783">
        <ele>612</ele>
        <time>2014-07-15T10:10:00Z</time>
      </trkpt>
      <trkpt lat="47.83073" lon="6.94782">
        <ele>613</ele>
        <time>2014-07-15T10:10:01Z</time>
      </trkpt>
      <trkpt lat="47.83073" lon="6.9478">
        <ele>613</ele>
        <time>2014-07-15T10:10:02Z</time>
      </trkpt>
      <trkpt lat="47.83073" lon="6.94777">
        <ele>613</ele>
        <time>2014-07-15T10:10:04Z</time>
      </trkpt>
      <trkpt lat="47.83074" lon="6.94775">
        <ele>613</ele>
        <time>2014-07-15T10:10:05Z</time>
      </trkpt>
      <trkpt lat="47.83074" lon="6.94773">
        <ele>613</ele>
        <time>2014-07-15T10:10:06Z</time>
      </trkpt>
      <trkpt lat="47.83074" lon="6.94772">
        <ele>613</ele>
        <time>2014-07-15T10:10:07Z</time>
      </trkpt>
      <trkpt lat="47.83074" lon="6.9477">
        <ele>613</ele>
        <time>2014-07-15T10:10:08Z</time>
      </trkpt>
      <trkpt lat="47.83074" lon="6.94769">
        <ele>613</ele>
        <time>2014-07-15T10:10:09Z</time>
      </trkpt>
      <trkpt lat="47.83074" lon="6.94767">
        <ele>613</ele>
        <time>2014-07-15T10:10:10Z</time>
      </trkpt>
      <trkpt lat="47.83075" lon="6.94765">
        <ele>613</ele>
        <time>2014-07-15T10:10:11Z</time>
      </trkpt>
      <trkpt lat="47.83075" lon="6.94764">
        <ele>613</ele>
        <time>2014-07-15T10:10:12Z</time>
      </trkpt>
      <trkpt lat="47.83075" lon="6.94762">
        <ele>613</ele>
        <time>2014-07-15T10:10:13Z</time>
      </trkpt>
      <trkpt lat="47.83075" lon="6.9476">
        <ele>613</ele>
        <time>2014-07-15T10:10:14Z</time>
      </trkpt>
      <trkpt lat="47.83075" lon="6.94759">
        <ele>613</ele>
        <time>2014-07-15T10:10:15Z</time>
      </trkpt>
      <trkpt lat="47.83075" lon="6.94757">
        <ele>613</ele>
        <time>2014-07-15T10:10:16Z</time>
      </trkpt>
      <trkpt lat="47.83075" lon="6.94755">
        <ele>613</ele>
        <time>2014-07-15T10:10:17Z</time>
      </trkpt>
      <trkpt lat="47.83075" lon="6.94753">
        <ele>613</ele>
        <time>2014-07-15T10:10:18Z</time>
      </trkpt>
      <trkpt lat="47.83075" lon="6.94751">
        <ele>613</ele>
        <time>2014-07-15T10:10:19Z</time>
      </trkpt>
      <trkpt lat="47.83075" lon="6.94749">
        <ele>616</ele>
        <time>2014-07-15T10:10:20Z</time>
      </trkpt>
      <trkpt lat="47.83076" lon="6.94747">
        <ele>617</ele>
        <time>2014-07-15T10:10:21Z</time>
      </trkpt>
      <trkpt lat="47.83076" lon="6.94746">
        <ele>617</ele>
        <time>2014-07-15T10:10:22Z</time>
      </trkpt>
      <trkpt lat="47.83077" lon="6.94744">
        <ele>617</ele>
        <time>2014-07-15T10:10:23Z</time>
      </trkpt>
      <trkpt lat="47.83077" lon="6.94743">
        <ele>617</ele>
        <time>2014-07-15T10:10:24Z</time>
      </trkpt>
      <trkpt lat="47.83078" lon="6.94741">
        <ele>618</ele>
        <time>2014-07-15T10:10:25Z</time>
      </trkpt>
      <trkpt lat="47.83078" lon="6.94739">
        <ele>618</ele>
        <time>2014-07-15T10:10:26Z</time>
      </trkpt>
      <trkpt lat="47.83079" lon="6.94738">
        <ele>619</ele>
        <time>2014-07-15T10:10:27Z</time>
      </trkpt>
      <trkpt lat="47.83079" lon="6.94736">
        <ele>619</ele>
        <time>2014-07-15T10:10:28Z</time>
      </trkpt>
      <trkpt lat="47.8308" lon="6.94734">
        <ele>620</ele>
        <time>2014-07-15T10:10:29Z</time>
      </trkpt>
      <trkpt lat="47.8308" lon="6.94733">
        <ele>620</ele>
        <time>2014-07-15T10:10:30Z</time>
      </trkpt>
      <trkpt lat="47.8308" lon="6.94731">
        <ele>621</ele>
        <time>2014-07-15T10:10:31Z</time>
      </trkpt>
      <trkpt lat="47.83081" lon="6.94729">
        <ele>621</ele>
        <time>2014-07-15T10:10:32Z</time>
      </trkpt>
      <trkpt lat="47.83082" lon="6.94728">
        <ele>622</ele>
        <time>2014-07-15T10:10:33Z</time>
      </trkpt>
      <trkpt lat="47.83082" lon="6.94726">
        <ele>622</ele>
        <time>2014-07-15T10:10:34Z</time>
      </trkpt>
      <trkpt lat="47.83083" lon="6.94724">
        <ele>622</ele>
        <time>2014-07-15T10:10:35Z</time>
      </trkpt>
      <trkpt lat="47.83084" lon="6.94723">
        <ele>617</ele>
        <time>2014-07-15T10:10:36Z</time>
      </trkpt>
      <trkpt lat="47.83084" lon="6.94721">
        <ele>617</ele>
        <time>2014-07-15T10:10:37Z</time>
      </trkpt>
      <trkpt lat="47.83085" lon="6.9472">
        <ele>617</ele>
        <time>2014-07-15T10:10:38Z</time>
      </trkpt>
      <trkpt lat="47.83086" lon="6.94719">
        <ele>617</ele>
        <time>2014-07-15T10:10:39Z</time>
      </trkpt>
      <trkpt lat="47.83086" lon="6.94717">
        <ele>617</ele>
        <time>2014-07-15T10:10:40Z</time>
      </trkpt>
      <trkpt lat="47.83087" lon="6.94716">
        <ele>617</ele>
        <time>2014-07-15T10:10:41Z</time>
      </trkpt>
      <trkpt lat="47.83089" lon="6.94714">
        <ele>618</ele>
        <time>2014-07-15T10:10:43Z</time>
      </trkpt>
      <trkpt lat="47.8309" lon="6.94712">
        <ele>618</ele>
        <time>2014-07-15T10:10:44Z</time>
      </trkpt>
      <trkpt lat="47.8309" lon="6.94711">
        <ele>618</ele>
        <time>2014-07-15T10:10:45Z</time>
      </trkpt>
      <trkpt lat="47.83091" lon="6.94709">
        <ele>618</ele>
        <time>2014-07-15T10:10:46Z</time>
      </trkpt>
      <trkpt lat="47.83092" lon="6.94708">
        <ele>618</ele>
        <time>2014-07-15T10:10:47Z</time>
      </trkpt>
      <trkpt lat="47.83092" lon="6.94706">
        <ele>619</ele>
        <time>2014-07-15T10:10:48Z</time>
      </trkpt>
      <trkpt lat="47.83093" lon="6.94705">
        <ele>619</ele>
        <time>2014-07-15T10:10:49Z</time>
      </trkpt>
      <trkpt lat="47.83093" lon="6.94704">
        <ele>619</ele>
        <time>2014-07-15T10:10:50Z</time>
      </trkpt>
      <trkpt lat="47.83094" lon="6.94702">
        <ele>619</ele>
        <time>2014-07-15T10:10:51Z</time>
      </trkpt>
      <trkpt lat="47.83094" lon="6.94701">
        <ele>619</ele>
        <time>2014-07-15T10:10:52Z</time>
      </trkpt>
      <trkpt lat="47.83095" lon="6.947">
        <ele>619</ele>
        <time>2014-07-15T10:10:53Z</time>
      </trkpt>
      <trkpt lat="47.83095" lon="6.94698">
        <ele>619</ele>
        <time>2014-07-15T10:10:54Z</time>
      </trkpt>
      <trkpt lat="47.83095" lon="6.94697">
        <ele>620</ele>
        <time>2014-07-15T10:10:55Z</time>
      </trkpt>
      <trkpt lat="47.83096" lon="6.94696">
        <ele>620</ele>
        <time>2014-07-15T10:10:56Z</time>
      </trkpt>
      <trkpt lat="47.83097" lon="6.94695">
        <ele>620</ele>
        <time>2014-07-15T10:10:57Z</time>
      </trkpt>
      <trkpt lat="47.83097" lon="6.94694">
        <ele>620</ele>
        <time>2014-07-15T10:10:58Z</time>
      </trkpt>
      <trkpt lat="47.83098" lon="6.94693">
        <ele>620</ele>
        <time>2014-07-15T10:10:59Z</time>
      </trkpt>
      <trkpt lat="47.831" lon="6.94692">
        <ele>620</ele>
        <time>2014-07-15T10:11:00Z</time>
      </trkpt>
      <trkpt lat="47.83101" lon="6.94689">
        <ele>620</ele>
        <time>2014-07-15T10:11:02Z</time>
      </trkpt>
      <trkpt lat="47.83102" lon="6.94688">
        <ele>620</ele>
        <time>2014-07-15T10:11:03Z</time>
      </trkpt>
      <trkpt lat="47.83103" lon="6.94687">
        <ele>620</ele>
        <time>2014-07-15T10:11:04Z</time>
      </trkpt>
      <trkpt lat="47.83104" lon="6.94686">
        <ele>620</ele>
        <time>2014-07-15T10:11:05Z</time>
      </trkpt>
      <trkpt lat="47.83105" lon="6.94684">
        <ele>620</ele>
        <time>2014-07-15T10:11:06Z</time>
      </trkpt>
      <trkpt lat="47.83106" lon="6.94683">
        <ele>620</ele>
        <time>2014-07-15T10:11:07Z</time>
      </trkpt>
      <trkpt lat="47.83107" lon="6.94682">
        <ele>620</ele>
        <time>2014-07-15T10:11:08Z</time>
      </trkpt>
      <trkpt lat="47.83107" lon="6.9468">
        <ele>620</ele>
        <time>2014-07-15T10:11:09Z</time>
      </trkpt>
      <trkpt lat="47.83108" lon="6.94679">
        <ele>620</ele>
        <time>2014-07-15T10:11:10Z</time>
      </trkpt>
      <trkpt lat="47.83109" lon="6.94678">
        <ele>620</ele>
        <time>2014-07-15T10:11:11Z</time>
      </trkpt>
      <trkpt lat="47.8311" lon="6.94677">
        <ele>620</ele>
        <time>2014-07-15T10:11:12Z</time>
      </trkpt>
      <trkpt lat="47.83111" lon="6.94676">
        <ele>620</ele>
        <time>2014-07-15T10:11:13Z</time>
      </trkpt>
      <trkpt lat="47.83112" lon="6.94675">
        <ele>620</ele>
        <time>2014-07-15T10:11:14Z</time>
      </trkpt>
      <trkpt lat="47.83113" lon="6.94674">
        <ele>620</ele>
        <time>2014-07-15T10:11:15Z</time>
      </trkpt>
      <trkpt lat="47.83115" lon="6.94673">
        <ele>620</ele>
        <time>2014-07-15T10:11:16Z</time>
      </trkpt>
      <trkpt lat="47.83116" lon="6.94672">
        <ele>620</ele>
        <time>2014-07-15T10:11:17Z</time>
      </trkpt>
      <trkpt lat="47.83117" lon="6.94671">
        <ele>620</ele>
        <time>2014-07-15T10:11:18Z</time>
      </trkpt>
      <trkpt lat="47.83119" lon="6.94669">
        <ele>619</ele>
        <time>2014-07-15T10:11:20Z</time>
      </trkpt>
      <trkpt lat="47.8312" lon="6.94668">
        <ele>619</ele>
        <time>2014-07-15T10:11:21Z</time>
      </trkpt>
      <trkpt lat="47.83121" lon="6.94666">
        <ele>626</ele>
        <time>2014-07-15T10:11:22Z</time>
      </trkpt>
      <trkpt lat="47.83122" lon="6.94665">
        <ele>626</ele>
        <time>2014-07-15T10:11:23Z</time>
      </trkpt>
      <trkpt lat="47.83123" lon="6.94664">
        <ele>626</ele>
        <time>2014-07-15T10:11:24Z</time>
      </trkpt>
      <trkpt lat="47.83123" lon="6.94663">
        <ele>626</ele>
        <time>2014-07-15T10:11:25Z</time>
      </trkpt>
      <trkpt lat="47.83124" lon="6.94661">
        <ele>626</ele>
        <time>2014-07-15T10:11:26Z</time>
      </trkpt>
      <trkpt lat="47.83125" lon="6.9466">
        <ele>626</ele>
        <time>2014-07-15T10:11:27Z</time>
      </trkpt>
      <trkpt lat="47.83126" lon="6.94658">
        <ele>626</ele>
        <time>2014-07-15T10:11:28Z</time>
      </trkpt>
      <trkpt lat="47.83127" lon="6.94657">
        <ele>626</ele>
        <time>2014-07-15T10:11:29Z</time>
      </trkpt>
      <trkpt lat="47.83127" lon="6.94655">
        <ele>626</ele>
        <time>2014-07-15T10:11:30Z</time>
      </trkpt>
      <trkpt lat="47.83128" lon="6.94654">
        <ele>626</ele>
        <time>2014-07-15T10:11:31Z</time>
      </trkpt>
      <trkpt lat="47.83129" lon="6.94653">
        <ele>626</ele>
        <time>2014-07-15T10:11:32Z</time>
      </trkpt>
      <trkpt lat="47.8313" lon="6.9465">
        <ele>626</ele>
        <time>2014-07-15T10:11:34Z</time>
      </trkpt>
      <trkpt lat="47.83131" lon="6.94648">
        <ele>626</ele>
        <time>2014-07-15T10:11:35Z</time>
      </trkpt>
      <trkpt lat="47.83132" lon="6.94646">
        <ele>626</ele>
        <time>2014-07-15T10:11:36Z</time>
      </trkpt>
      <trkpt lat="47.83133" lon="6.94644">
        <ele>626</ele>
        <time>2014-07-15T10:11:37Z</time>
      </trkpt>
      <trkpt lat="47.83134" lon="6.94642">
        <ele>626</ele>
        <time>2014-07-15T10:11:38Z</time>
      </trkpt>
      <trkpt lat="47.83135" lon="6.94639">
        <ele>626</ele>
        <time>2014-07-15T10:11:40Z</time>
      </trkpt>
      <trkpt lat="47.83136" lon="6.94637">
        <ele>626</ele>
        <time>2014-07-15T10:11:41Z</time>
      </trkpt>
      <trkpt lat="47.83137" lon="6.94637">
        <ele>626</ele>
        <time>2014-07-15T10:11:42Z</time>
      </trkpt>
      <trkpt lat="47.83138" lon="6.94636">
        <ele>626</ele>
        <time>2014-07-15T10:11:43Z</time>
      </trkpt>
      <trkpt lat="47.83139" lon="6.94635">
        <ele>626</ele>
        <time>2014-07-15T10:11:44Z</time>
      </trkpt>
      <trkpt lat="47.8314" lon="6.94633">
        <ele>626</ele>
        <time>2014-07-15T10:11:45Z</time>
      </trkpt>
      <trkpt lat="47.8314" lon="6.94632">
        <ele>626</ele>
        <time>2014-07-15T10:11:46Z</time>
      </trkpt>
      <trkpt lat="47.83141" lon="6.94629">
        <ele>626</ele>
        <time>2014-07-15T10:11:48Z</time>
      </trkpt>
      <trkpt lat="47.83142" lon="6.94627">
        <ele>627</ele>
        <time>2014-07-15T10:11:49Z</time>
      </trkpt>
      <trkpt lat="47.83143" lon="6.94626">
        <ele>627</ele>
        <time>2014-07-15T10:11:50Z</time>
      </trkpt>
      <trkpt lat="47.83143" lon="6.94625">
        <ele>627</ele>
        <time>2014-07-15T10:11:51Z</time>
      </trkpt>
      <trkpt lat="47.83144" lon="6.94623">
        <ele>627</ele>
        <time>2014-07-15T10:11:52Z</time>
      </trkpt>
      <trkpt lat="47.83145" lon="6.94622">
        <ele>627</ele>
        <time>2014-07-15T10:11:53Z</time>
      </trkpt>
      <trkpt lat="47.83145" lon="6.94621">
        <ele>627</ele>
        <time>2014-07-15T10:11:54Z</time>
      </trkpt>
      <trkpt lat="47.83146" lon="6.94619">
        <ele>627</ele>
        <time>2014-07-15T10:11:55Z</time>
      </trkpt>
      <trkpt lat="47.83147" lon="6.94617">
        <ele>627</ele>
        <time>2014-07-15T10:11:56Z</time>
      </trkpt>
      <trkpt lat="47.83147" lon="6.94616">
        <ele>627</ele>
        <time>2014-07-15T10:11:57Z</time>
      </trkpt>
      <trkpt lat="47.83148" lon="6.94614">
        <ele>627</ele>
        <time>2014-07-15T10:11:58Z</time>
      </trkpt>
      <trkpt lat="47.83149" lon="6.94612">
        <ele>627</ele>
        <time>2014-07-15T10:11:59Z</time>
      </trkpt>
      <trkpt lat="47.83149" lon="6.9461">
        <ele>627</ele>
        <time>2014-07-15T10:12:00Z</time>
      </trkpt>
      <trkpt lat="47.8315" lon="6.94608">
        <ele>627</ele>
        <time>2014-07-15T10:12:01Z</time>
      </trkpt>
      <trkpt lat="47.83151" lon="6.94607">
        <ele>627</ele>
        <time>2014-07-15T10:12:02Z</time>
      </trkpt>
      <trkpt lat="47.83151" lon="6.94605">
        <ele>627</ele>
        <time>2014-07-15T10:12:03Z</time>
      </trkpt>
      <trkpt lat="47.83152" lon="6.94603">
        <ele>627</ele>
        <time>2014-07-15T10:12:04Z</time>
      </trkpt>
      <trkpt lat="47.83153" lon="6.94602">
        <ele>627</ele>
        <time>2014-07-15T10:12:05Z</time>
      </trkpt>
      <trkpt lat="47.83154" lon="6.946">
        <ele>627</ele>
        <time>2014-07-15T10:12:06Z</time>
      </trkpt>
      <trkpt lat="47.83154" lon="6.94599">
        <ele>627</ele>
        <time>2014-07-15T10:12:07Z</time>
      </trkpt>
      <trkpt lat="47.83155" lon="6.94597">
        <ele>627</ele>
        <time>2014-07-15T10:12:08Z</time>
      </trkpt>
      <trkpt lat="47.83156" lon="6.94595">
        <ele>627</ele>
        <time>2014-07-15T10:12:09Z</time>
      </trkpt>
      <trkpt lat="47.83156" lon="6.94594">
        <ele>627</ele>
        <time>2014-07-15T10:12:10Z</time>
      </trkpt>
      <trkpt lat="47.83157" lon="6.94592">
        <ele>627</ele>
        <time>2014-07-15T10:12:11Z</time>
      </trkpt>
      <trkpt lat="47.83158" lon="6.94591">
        <ele>627</ele>
        <time>2014-07-15T10:12:12Z</time>
      </trkpt>
      <trkpt lat="47.83159" lon="6.9459">
        <ele>627</ele>
        <time>2014-07-15T10:12:13Z</time>
      </trkpt>
      <trkpt lat="47.8316" lon="6.94587">
        <ele>627</ele>
        <time>2014-07-15T10:12:15Z</time>
      </trkpt>
      <trkpt lat="47.83161" lon="6.94585">
        <ele>627</ele>
        <time>2014-07-15T10:12:16Z</time>
      </trkpt>
      <trkpt lat="47.83161" lon="6.94584">
        <ele>627</ele>
        <time>2014-07-15T10:12:17Z</time>
      </trkpt>
      <trkpt lat="47.83162" lon="6.94583">
        <ele>630</ele>
        <time>2014-07-15T10:12:18Z</time>
      </trkpt>
      <trkpt lat="47.83163" lon="6.94581">
        <ele>629</ele>
        <time>2014-07-15T10:12:19Z</time>
      </trkpt>
      <trkpt lat="47.83164" lon="6.9458">
        <ele>629</ele>
        <time>2014-07-15T10:12:20Z</time>
      </trkpt>
      <trkpt lat="47.83165" lon="6.94579">
        <ele>630</ele>
        <time>2014-07-15T10:12:21Z</time>
      </trkpt>
      <trkpt lat="47.83165" lon="6.94578">
        <ele>631</ele>
        <time>2014-07-15T10:12:22Z</time>
      </trkpt>
      <trkpt lat="47.83166" lon="6.94577">
        <ele>631</ele>
        <time>2014-07-15T10:12:23Z</time>
      </trkpt>
      <trkpt lat="47.83168" lon="6.94574">
        <ele>628</ele>
        <time>2014-07-15T10:12:25Z</time>
      </trkpt>
      <trkpt lat="47.83168" lon="6.94573">
        <ele>628</ele>
        <time>2014-07-15T10:12:26Z</time>
      </trkpt>
      <trkpt lat="47.83169" lon="6.94572">
        <ele>629</ele>
        <time>2014-07-15T10:12:27Z</time>
      </trkpt>
      <trkpt lat="47.8317" lon="6.9457">
        <ele>629</ele>
        <time>2014-07-15T10:12:28Z</time>
      </trkpt>
      <trkpt lat="47.83171" lon="6.94569">
        <ele>629</ele>
        <time>2014-07-15T10:12:29Z</time>
      </trkpt>
      <trkpt lat="47.83172" lon="6.94568">
        <ele>629</ele>
        <time>2014-07-15T10:12:30Z</time>
      </trkpt>
      <trkpt lat="47.83173" lon="6.94568">
        <ele>629</ele>
        <time>2014-07-15T10:12:31Z</time>
      </trkpt>
      <trkpt lat="47.83174" lon="6.94567">
        <ele>630</ele>
        <time>2014-07-15T10:12:32Z</time>
      </trkpt>
      <trkpt lat="47.83175" lon="6.94567">
        <ele>630</ele>
        <time>2014-07-15T10:12:33Z</time>
      </trkpt>
      <trkpt lat="47.83175" lon="6.94566">
        <ele>630</ele>
        <time>2014-07-15T10:12:34Z</time>
      </trkpt>
      <trkpt lat="47.83176" lon="6.94565">
        <ele>630</ele>
        <time>2014-07-15T10:12:35Z</time>
      </trkpt>
      <trkpt lat="47.83176" lon="6.94563">
        <ele>630</ele>
        <time>2014-07-15T10:12:36Z</time>
      </trkpt>
      <trkpt lat="47.83177" lon="6.94562">
        <ele>631</ele>
        <time>2014-07-15T10:12:37Z</time>
      </trkpt>
      <trkpt lat="47.83178" lon="6.9456">
        <ele>631</ele>
        <time>2014-07-15T10:12:38Z</time>
      </trkpt>
      <trkpt lat="47.83177" lon="6.9456">
        <ele>631</ele>
        <time>2014-07-15T10:12:39Z</time>
      </trkpt>
      <trkpt lat="47.83178" lon="6.9456">
        <ele>631</ele>
        <time>2014-07-15T10:12:40Z</time>
      </trkpt>
      <trkpt lat="47.83178" lon="6.9456">
        <ele>631</ele>
        <time>2014-07-15T10:12:41Z</time>
      </trkpt>
      <trkpt lat="47.83178" lon="6.9456">
        <ele>631</ele>
        <time>2014-07-15T10:12:42Z</time>
      </trkpt>
      <trkpt lat="47.83178" lon="6.94559">
        <ele>631</ele>
        <time>2014-07-15T10:12:43Z</time>
      </trkpt>
      <trkpt lat="47.83178" lon="6.94559">
        <ele>631</ele>
        <time>2014-07-15T10:12:44Z</time>
      </trkpt>
      <trkpt lat="47.83178" lon="6.94558">
        <ele>631</ele>
        <time>2014-07-15T10:12:47Z</time>
      </trkpt>
      <trkpt lat="47.83178" lon="6.94558">
        <ele>631</ele>
        <time>2014-07-15T10:12:48Z</time>
      </trkpt>
      <trkpt lat="47.83178" lon="6.94558">
        <ele>631</ele>
        <time>2014-07-15T10:12:49Z</time>
      </trkpt>
      <trkpt lat="47.83178" lon="6.94558">
        <ele>631</ele>
        <time>2014-07-15T10:12:50Z</time>
      </trkpt>
      <trkpt lat="47.83178" lon="6.94558">
        <ele>631</ele>
        <time>2014-07-15T10:12:51Z</time>
      </trkpt>
      <trkpt lat="47.83178" lon="6.94558">
        <ele>631</ele>
        <time>2014-07-15T10:12:52Z</time>
      </trkpt>
      <trkpt lat="47.83179" lon="6.94558">
        <ele>631</ele>
        <time>2014-07-15T10:12:53Z</time>
      </trkpt>
      <trkpt lat="47.83179" lon="6.94557">
        <ele>631</ele>
        <time>2014-07-15T10:12:54Z</time>
      </trkpt>
      <trkpt lat="47.8318" lon="6.94556">
        <ele>631</ele>
        <time>2014-07-15T10:12:55Z</time>
      </trkpt>
      <trkpt lat="47.8318" lon="6.94556">
        <ele>631</ele>
        <time>2014-07-15T10:12:56Z</time>
      </trkpt>
      <trkpt lat="47.83181" lon="6.94555">
        <ele>632</ele>
        <time>2014-07-15T10:12:57Z</time>
      </trkpt>
      <trkpt lat="47.83183" lon="6.94553">
        <ele>632</ele>
        <time>2014-07-15T10:12:59Z</time>
      </trkpt>
      <trkpt lat="47.83183" lon="6.94552">
        <ele>632</ele>
        <time>2014-07-15T10:13:00Z</time>
      </trkpt>
      <trkpt lat="47.83184" lon="6.94551">
        <ele>632</ele>
        <time>2014-07-15T10:13:01Z</time>
      </trkpt>
      <trkpt lat="47.83185" lon="6.94549">
        <ele>632</ele>
        <time>2014-07-15T10:13:02Z</time>
      </trkpt>
      <trkpt lat="47.83186" lon="6.94548">
        <ele>632</ele>
        <time>2014-07-15T10:13:03Z</time>
      </trkpt>
      <trkpt lat="47.83187" lon="6.94547">
        <ele>633</ele>
        <time>2014-07-15T10:13:04Z</time>
      </trkpt>
      <trkpt lat="47.83188" lon="6.94546">
        <ele>633</ele>
        <time>2014-07-15T10:13:05Z</time>
      </trkpt>
      <trkpt lat="47.83189" lon="6.94545">
        <ele>633</ele>
        <time>2014-07-15T10:13:06Z</time>
      </trkpt>
      <trkpt lat="47.83189" lon="6.94546">
        <ele>633</ele>
        <time>2014-07-15T10:13:07Z</time>
      </trkpt>
      <trkpt lat="47.83189" lon="6.94546">
        <ele>633</ele>
        <time>2014-07-15T10:13:08Z</time>
      </trkpt>
      <trkpt lat="47.83189" lon="6.94546">
        <ele>633</ele>
        <time>2014-07-15T10:13:09Z</time>
      </trkpt>
      <trkpt lat="47.8319" lon="6.94546">
        <ele>633</ele>
        <time>2014-07-15T10:13:10Z</time>
      </trkpt>
      <trkpt lat="47.8319" lon="6.94545">
        <ele>633</ele>
        <time>2014-07-15T10:13:11Z</time>
      </trkpt>
      <trkpt lat="47.83191" lon="6.94544">
        <ele>633</ele>
        <time>2014-07-15T10:13:12Z</time>
      </trkpt>
      <trkpt lat="47.83191" lon="6.94544">
        <ele>633</ele>
        <time>2014-07-15T10:13:13Z</time>
      </trkpt>
      <trkpt lat="47.83193" lon="6.94542">
        <ele>633</ele>
        <time>2014-07-15T10:13:14Z</time>
      </trkpt>
      <trkpt lat="47.83194" lon="6.94541">
        <ele>633</ele>
        <time>2014-07-15T10:13:15Z</time>
      </trkpt>
      <trkpt lat="47.83194" lon="6.9454">
        <ele>633</ele>
        <time>2014-07-15T10:13:16Z</time>
      </trkpt>
      <trkpt lat="47.83195" lon="6.94539">
        <ele>633</ele>
        <time>2014-07-15T10:13:17Z</time>
      </trkpt>
      <trkpt lat="47.83196" lon="6.94537">
        <ele>633</ele>
        <time>2014-07-15T10:13:18Z</time>
      </trkpt>
      <trkpt lat="47.83197" lon="6.94535">
        <ele>634</ele>
        <time>2014-07-15T10:13:19Z</time>
      </trkpt>
      <trkpt lat="47.83198" lon="6.94534">
        <ele>634</ele>
        <time>2014-07-15T10:13:20Z</time>
      </trkpt>
      <trkpt lat="47.83199" lon="6.94533">
        <ele>634</ele>
        <time>2014-07-15T10:13:21Z</time>
      </trkpt>
      <trkpt lat="47.832" lon="6.94532">
        <ele>634</ele>
        <time>2014-07-15T10:13:22Z</time>
      </trkpt>
      <trkpt lat="47.83201" lon="6.94531">
        <ele>634</ele>
        <time>2014-07-15T10:13:23Z</time>
      </trkpt>
      <trkpt lat="47.83203" lon="6.9453">
        <ele>634</ele>
        <time>2014-07-15T10:13:24Z</time>
      </trkpt>
      <trkpt lat="47.83204" lon="6.94529">
        <ele>634</ele>
        <time>2014-07-15T10:13:25Z</time>
      </trkpt>
      <trkpt lat="47.83206" lon="6.94528">
        <ele>634</ele>
        <time>2014-07-15T10:13:26Z</time>
      </trkpt>
      <trkpt lat="47.83207" lon="6.94526">
        <ele>634</ele>
        <time>2014-07-15T10:13:27Z</time>
      </trkpt>
      <trkpt lat="47.83208" lon="6.94524">
        <ele>634</ele>
        <time>2014-07-15T10:13:28Z</time>
      </trkpt>
      <trkpt lat="47.83208" lon="6.94523">
        <ele>634</ele>
        <time>2014-07-15T10:13:29Z</time>
      </trkpt>
      <trkpt lat="47.83209" lon="6.94521">
        <ele>634</ele>
        <time>2014-07-15T10:13:30Z</time>
      </trkpt>
      <trkpt lat="47.8321" lon="6.9452">
        <ele>634</ele>
        <time>2014-07-15T10:13:31Z</time>
      </trkpt>
      <trkpt lat="47.83212" lon="6.94519">
        <ele>634</ele>
        <time>2014-07-15T10:13:32Z</time>
      </trkpt>
      <trkpt lat="47.83213" lon="6.94518">
        <ele>634</ele>
        <time>2014-07-15T10:13:33Z</time>
      </trkpt>
      <trkpt lat="47.83214" lon="6.94517">
        <ele>634</ele>
        <time>2014-07-15T10:13:34Z</time>
      </trkpt>
      <trkpt lat="47.83214" lon="6.94515">
        <ele>634</ele>
        <time>2014-07-15T10:13:35Z</time>
      </trkpt>
      <trkpt lat="47.83214" lon="6.94513">
        <ele>634</ele>
        <time>2014-07-15T10:13:36Z</time>
      </trkpt>
      <trkpt lat="47.83214" lon="6.94512">
        <ele>634</ele>
        <time>2014-07-15T10:13:37Z</time>
      </trkpt>
      <trkpt lat="47.83214" lon="6.94511">
        <ele>634</ele>
        <time>2014-07-15T10:13:38Z</time>
      </trkpt>
      <trkpt lat="47.83215" lon="6.9451">
        <ele>634</ele>
        <time>2014-07-15T10:13:39Z</time>
      </trkpt>
      <trkpt lat="47.83217" lon="6.94509">
        <ele>634</ele>
        <time>2014-07-15T10:13:40Z</time>
      </trkpt>
      <trkpt lat="47.83218" lon="6.94509">
        <ele>634</ele>
        <time>2014-07-15T10:13:41Z</time>
      </trkpt>
      <trkpt lat="47.83218" lon="6.94507">
        <ele>633</ele>
        <time>2014-07-15T10:13:42Z</time>
      </trkpt>
      <trkpt lat="47.83219" lon="6.94505">
        <ele>633</ele>
        <time>2014-07-15T10:13:43Z</time>
      </trkpt>
      <trkpt lat="47.8322" lon="6.94503">
        <ele>633</ele>
        <time>2014-07-15T10:13:44Z</time>
      </trkpt>
      <trkpt lat="47.83221" lon="6.94501">
        <ele>633</ele>
        <time>2014-07-15T10:13:45Z</time>
      </trkpt>
      <trkpt lat="47.83222" lon="6.945">
        <ele>643</ele>
        <time>2014-07-15T10:13:46Z</time>
      </trkpt>
      <trkpt lat="47.83223" lon="6.94499">
        <ele>643</ele>
        <time>2014-07-15T10:13:47Z</time>
      </trkpt>
      <trkpt lat="47.83223" lon="6.94497">
        <ele>643</ele>
        <time>2014-07-15T10:13:48Z</time>
      </trkpt>
      <trkpt lat="47.83224" lon="6.94496">
        <ele>643</ele>
        <time>2014-07-15T10:13:49Z</time>
      </trkpt>
      <trkpt lat="47.83224" lon="6.94495">
        <ele>643</ele>
        <time>2014-07-15T10:13:50Z</time>
      </trkpt>
      <trkpt lat="47.83224" lon="6.94494">
        <ele>643</ele>
        <time>2014-07-15T10:13:51Z</time>
      </trkpt>
      <trkpt lat="47.83225" lon="6.94494">
        <ele>642</ele>
        <time>2014-07-15T10:13:52Z</time>
      </trkpt>
      <trkpt lat="47.83226" lon="6.94493">
        <ele>642</ele>
        <time>2014-07-15T10:13:53Z</time>
      </trkpt>
      <trkpt lat="47.83227" lon="6.94493">
        <ele>642</ele>
        <time>2014-07-15T10:13:54Z</time>
      </trkpt>
      <trkpt lat="47.83227" lon="6.94492">
        <ele>642</ele>
        <time>2014-07-15T10:13:55Z</time>
      </trkpt>
      <trkpt lat="47.83228" lon="6.94491">
        <ele>642</ele>
        <time>2014-07-15T10:13:56Z</time>
      </trkpt>
      <trkpt lat="47.83229" lon="6.9449">
        <ele>642</ele>
        <time>2014-07-15T10:13:57Z</time>
      </trkpt>
      <trkpt lat="47.83231" lon="6.94488">
        <ele>642</ele>
        <time>2014-07-15T10:13:59Z</time>
      </trkpt>
      <trkpt lat="47.83234" lon="6.94484">
        <ele>642</ele>
        <time>2014-07-15T10:14:02Z</time>
      </trkpt>
      <trkpt lat="47.83236" lon="6.94482">
        <ele>642</ele>
        <time>2014-07-15T10:14:04Z</time>
      </trkpt>
      <trkpt lat="47.83236" lon="6.94481">
        <ele>642</ele>
        <time>2014-07-15T10:14:05Z</time>
      </trkpt>
      <trkpt lat="47.83237" lon="6.94479">
        <ele>642</ele>
        <time>2014-07-15T10:14:06Z</time>
      </trkpt>
      <trkpt lat="47.83237" lon="6.94478">
        <ele>642</ele>
        <time>2014-07-15T10:14:07Z</time>
      </trkpt>
      <trkpt lat="47.83238" lon="6.94476">
        <ele>643</ele>
        <time>2014-07-15T10:14:08Z</time>
      </trkpt>
      <trkpt lat="47.83239" lon="6.94475">
        <ele>643</ele>
        <time>2014-07-15T10:14:09Z</time>
      </trkpt>
      <trkpt lat="47.8324" lon="6.94475">
        <ele>643</ele>
        <time>2014-07-15T10:14:10Z</time>
      </trkpt>
      <trkpt lat="47.83241" lon="6.94474">
        <ele>643</ele>
        <time>2014-07-15T10:14:11Z</time>
      </trkpt>
      <trkpt lat="47.83242" lon="6.94473">
        <ele>643</ele>
        <time>2014-07-15T10:14:12Z</time>
      </trkpt>
      <trkpt lat="47.83243" lon="6.94472">
        <ele>643</ele>
        <time>2014-07-15T10:14:13Z</time>
      </trkpt>
      <trkpt lat="47.83245" lon="6.94471">
        <ele>643</ele>
        <time>2014-07-15T10:14:14Z</time>
      </trkpt>
      <trkpt lat="47.83246" lon="6.9447">
        <ele>643</ele>
        <time>2014-07-15T10:14:15Z</time>
      </trkpt>
      <trkpt lat="47.83247" lon="6.94469">
        <ele>643</ele>
        <time>2014-07-15T10:14:17Z</time>
      </trkpt>
      <trkpt lat="47.83248" lon="6.94469">
        <ele>643</ele>
        <time>2014-07-15T10:14:18Z</time>
      </trkpt>
      <trkpt lat="47.83248" lon="6.94468">
        <ele>643</ele>
        <time>2014-07-15T10:14:19Z</time>
      </trkpt>
      <trkpt lat="47.83249" lon="6.94468">
        <ele>643</ele>
        <time>2014-07-15T10:14:20Z</time>
      </trkpt>
      <trkpt lat="47.8325" lon="6.94467">
        <ele>644</ele>
        <time>2014-07-15T10:14:22Z</time>
      </trkpt>
      <trkpt lat="47.8325" lon="6.94467">
        <ele>636</ele>
        <time>2014-07-15T10:14:23Z</time>
      </trkpt>
      <trkpt lat="47.83251" lon="6.94467">
        <ele>636</ele>
        <time>2014-07-15T10:14:24Z</time>
      </trkpt>
      <trkpt lat="47.83251" lon="6.94466">
        <ele>636</ele>
        <time>2014-07-15T10:14:25Z</time>
      </trkpt>
      <trkpt lat="47.83251" lon="6.94466">
        <ele>636</ele>
        <time>2014-07-15T10:14:26Z</time>
      </trkpt>
      <trkpt lat="47.83251" lon="6.94466">
        <ele>636</ele>
        <time>2014-07-15T10:14:27Z</time>
      </trkpt>
      <trkpt lat="47.83251" lon="6.94466">
        <ele>636</ele>
        <time>2014-07-15T10:14:28Z</time>
      </trkpt>
      <trkpt lat="47.83252" lon="6.94466">
        <ele>636</ele>
        <time>2014-07-15T10:14:29Z</time>
      </trkpt>
      <trkpt lat="47.83252" lon="6.94465">
        <ele>636</ele>
        <time>2014-07-15T10:14:30Z</time>
      </trkpt>
      <trkpt lat="47.83253" lon="6.94465">
        <ele>636</ele>
        <time>2014-07-15T10:14:31Z</time>
      </trkpt>
      <trkpt lat="47.83254" lon="6.94464">
        <ele>636</ele>
        <time>2014-07-15T10:14:32Z</time>
      </trkpt>
      <trkpt lat="47.83256" lon="6.94463">
        <ele>636</ele>
        <time>2014-07-15T10:14:34Z</time>
      </trkpt>
      <trkpt lat="47.83258" lon="6.94462">
        <ele>636</ele>
        <time>2014-07-15T10:14:36Z</time>
      </trkpt>
      <trkpt lat="47.8326" lon="6.94461">
        <ele>636</ele>
        <time>2014-07-15T10:14:37Z</time>
      </trkpt>
      <trkpt lat="47.83262" lon="6.94461">
        <ele>636</ele>
        <time>2014-07-15T10:14:38Z</time>
      </trkpt>
      <trkpt lat="47.83264" lon="6.9446">
        <ele>636</ele>
        <time>2014-07-15T10:14:39Z</time>
      </trkpt>
      <trkpt lat="47.83266" lon="6.9446">
        <ele>636</ele>
        <time>2014-07-15T10:14:40Z</time>
      </trkpt>
      <trkpt lat="47.83267" lon="6.94459">
        <ele>636</ele>
        <time>2014-07-15T10:14:41Z</time>
      </trkpt>
      <trkpt lat="47.8327" lon="6.94457">
        <ele>637</ele>
        <time>2014-07-15T10:14:43Z</time>
      </trkpt>
      <trkpt lat="47.83271" lon="6.94455">
        <ele>637</ele>
        <time>2014-07-15T10:14:44Z</time>
      </trkpt>
      <trkpt lat="47.83273" lon="6.94452">
        <ele>637</ele>
        <time>2014-07-15T10:14:46Z</time>
      </trkpt>
      <trkpt lat="47.83274" lon="6.94451">
        <ele>637</ele>
        <time>2014-07-15T10:14:47Z</time>
      </trkpt>
      <trkpt lat="47.83275" lon="6.9445">
        <ele>637</ele>
        <time>2014-07-15T10:14:48Z</time>
      </trkpt>
      <trkpt lat="47.83275" lon="6.94449">
        <ele>637</ele>
        <time>2014-07-15T10:14:49Z</time>
      </trkpt>
      <trkpt lat="47.83276" lon="6.94449">
        <ele>637</ele>
        <time>2014-07-15T10:14:50Z</time>
      </trkpt>
      <trkpt lat="47.83277" lon="6.94448">
        <ele>637</ele>
        <time>2014-07-15T10:14:51Z</time>
      </trkpt>
      <trkpt lat="47.83278" lon="6.94448">
        <ele>637</ele>
        <time>2014-07-15T10:14:52Z</time>
      </trkpt>
      <trkpt lat="47.83279" lon="6.94447">
        <ele>637</ele>
        <time>2014-07-15T10:14:53Z</time>
      </trkpt>
      <trkpt lat="47.8328" lon="6.94447">
        <ele>637</ele>
        <time>2014-07-15T10:14:54Z</time>
      </trkpt>
      <trkpt lat="47.83281" lon="6.94446">
        <ele>637</ele>
        <time>2014-07-15T10:14:55Z</time>
      </trkpt>
      <trkpt lat="47.83283" lon="6.94445">
        <ele>637</ele>
        <time>2014-07-15T10:14:56Z</time>
      </trkpt>
      <trkpt lat="47.83284" lon="6.94444">
        <ele>637</ele>
        <time>2014-07-15T10:14:57Z</time>
      </trkpt>
      <trkpt lat="47.83285" lon="6.94443">
        <ele>637</ele>
        <time>2014-07-15T10:14:58Z</time>
      </trkpt>
      <trkpt lat="47.83286" lon="6.94442">
        <ele>637</ele>
        <time>2014-07-15T10:14:59Z</time>
      </trkpt>
      <trkpt lat="47.8329" lon="6.94439">
        <ele>637</ele>
        <time>2014-07-15T10:15:01Z</time>
      </trkpt>
      <trkpt lat="47.83291" lon="6.94438">
        <ele>637</ele>
        <time>2014-07-15T10:15:02Z</time>
      </trkpt>
      <trkpt lat="47.83293" lon="6.94436">
        <ele>637</ele>
        <time>2014-07-15T10:15:03Z</time>
      </trkpt>
      <trkpt lat="47.83294" lon="6.94435">
        <ele>637</ele>
        <time>2014-07-15T10:15:04Z</time>
      </trkpt>
      <trkpt lat="47.83296" lon="6.94433">
        <ele>637</ele>
        <time>2014-07-15T10:15:05Z</time>
      </trkpt>
      <trkpt lat="47.83299" lon="6.94431">
        <ele>637</ele>
        <time>2014-07-15T10:15:07Z</time>
      </trkpt>
      <trkpt lat="47.83301" lon="6.9443">
        <ele>637</ele>
        <time>2014-07-15T10:15:08Z</time>
      </trkpt>
      <trkpt lat="47.83304" lon="6.94428">
        <ele>638</ele>
        <time>2014-07-15T10:15:10Z</time>
      </trkpt>
      <trkpt lat="47.83306" lon="6.94427">
        <ele>638</ele>
        <time>2014-07-15T10:15:11Z</time>
      </trkpt>
      <trkpt lat="47.83307" lon="6.94426">
        <ele>638</ele>
        <time>2014-07-15T10:15:12Z</time>
      </trkpt>
      <trkpt lat="47.83309" lon="6.94426">
        <ele>638</ele>
        <time>2014-07-15T10:15:13Z</time>
      </trkpt>
      <trkpt lat="47.8331" lon="6.94425">
        <ele>638</ele>
        <time>2014-07-15T10:15:14Z</time>
      </trkpt>
      <trkpt lat="47.83314" lon="6.94424">
        <ele>638</ele>
        <time>2014-07-15T10:15:16Z</time>
      </trkpt>
      <trkpt lat="47.83315" lon="6.94423">
        <ele>638</ele>
        <time>2014-07-15T10:15:17Z</time>
      </trkpt>
      <trkpt lat="47.83318" lon="6.94422">
        <ele>638</ele>
        <time>2014-07-15T10:15:19Z</time>
      </trkpt>
      <trkpt lat="47.83319" lon="6.94421">
        <ele>638</ele>
        <time>2014-07-15T10:15:20Z</time>
      </trkpt>
      <trkpt lat="47.83321" lon="6.9442">
        <ele>638</ele>
        <time>2014-07-15T10:15:21Z</time>
      </trkpt>
      <trkpt lat="47.83322" lon="6.94419">
        <ele>638</ele>
        <time>2014-07-15T10:15:22Z</time>
      </trkpt>
      <trkpt lat="47.83323" lon="6.94418">
        <ele>638</ele>
        <time>2014-07-15T10:15:23Z</time>
      </trkpt>
      <trkpt lat="47.83325" lon="6.94417">
        <ele>638</ele>
        <time>2014-07-15T10:15:24Z</time>
      </trkpt>
      <trkpt lat="47.83326" lon="6.94416">
        <ele>642</ele>
        <time>2014-07-15T10:15:25Z</time>
      </trkpt>
      <trkpt lat="47.83327" lon="6.94415">
        <ele>642</ele>
        <time>2014-07-15T10:15:26Z</time>
      </trkpt>
      <trkpt lat="47.83328" lon="6.94414">
        <ele>641</ele>
        <time>2014-07-15T10:15:27Z</time>
      </trkpt>
      <trkpt lat="47.8333" lon="6.94413">
        <ele>641</ele>
        <time>2014-07-15T10:15:28Z</time>
      </trkpt>
      <trkpt lat="47.83332" lon="6.94413">
        <ele>641</ele>
        <time>2014-07-15T10:15:29Z</time>
      </trkpt>
      <trkpt lat="47.83333" lon="6.94413">
        <ele>640</ele>
        <time>2014-07-15T10:15:30Z</time>
      </trkpt>
      <trkpt lat="47.83335" lon="6.94413">
        <ele>640</ele>
        <time>2014-07-15T10:15:31Z</time>
      </trkpt>
      <trkpt lat="47.83337" lon="6.94412">
        <ele>640</ele>
        <time>2014-07-15T10:15:32Z</time>
      </trkpt>
      <trkpt lat="47.83339" lon="6.94412">
        <ele>641</ele>
        <time>2014-07-15T10:15:33Z</time>
      </trkpt>
      <trkpt lat="47.8334" lon="6.94411">
        <ele>641</ele>
        <time>2014-07-15T10:15:34Z</time>
      </trkpt>
      <trkpt lat="47.83341" lon="6.9441">
        <ele>641</ele>
        <time>2014-07-15T10:15:35Z</time>
      </trkpt>
      <trkpt lat="47.83343" lon="6.94409">
        <ele>641</ele>
        <time>2014-07-15T10:15:36Z</time>
      </trkpt>
      <trkpt lat="47.83344" lon="6.94407">
        <ele>642</ele>
        <time>2014-07-15T10:15:37Z</time>
      </trkpt>
      <trkpt lat="47.83346" lon="6.94406">
        <ele>642</ele>
        <time>2014-07-15T10:15:38Z</time>
      </trkpt>
      <trkpt lat="47.83347" lon="6.94405">
        <ele>642</ele>
        <time>2014-07-15T10:15:39Z</time>
      </trkpt>
      <trkpt lat="47.83348" lon="6.94403">
        <ele>642</ele>
        <time>2014-07-15T10:15:40Z</time>
      </trkpt>
      <trkpt lat="47.83349" lon="6.94402">
        <ele>642</ele>
        <time>2014-07-15T10:15:41Z</time>
      </trkpt>
      <trkpt lat="47.8335" lon="6.94401">
        <ele>643</ele>
        <time>2014-07-15T10:15:42Z</time>
      </trkpt>
      <trkpt lat="47.83351" lon="6.944">
        <ele>643</ele>
        <time>2014-07-15T10:15:43Z</time>
      </trkpt>
      <trkpt lat="47.83352" lon="6.944">
        <ele>643</ele>
        <time>2014-07-15T10:15:44Z</time>
      </trkpt>
      <trkpt lat="47.83352" lon="6.94399">
        <ele>643</ele>
        <time>2014-07-15T10:15:45Z</time>
      </trkpt>
      <trkpt lat="47.83354" lon="6.94397">
        <ele>643</ele>
        <time>2014-07-15T10:15:47Z</time>
      </trkpt>
      <trkpt lat="47.83355" lon="6.94396">
        <ele>643</ele>
        <time>2014-07-15T10:15:48Z</time>
      </trkpt>
      <trkpt lat="47.83356" lon="6.94395">
        <ele>643</ele>
        <time>2014-07-15T10:15:49Z</time>
      </trkpt>
      <trkpt lat="47.83357" lon="6.94395">
        <ele>643</ele>
        <time>2014-07-15T10:15:50Z</time>
      </trkpt>
      <trkpt lat="47.83358" lon="6.94394">
        <ele>644</ele>
        <time>2014-07-15T10:15:51Z</time>
      </trkpt>
      <trkpt lat="47.83359" lon="6.94393">
        <ele>644</ele>
        <time>2014-07-15T10:15:52Z</time>
      </trkpt>
      <trkpt lat="47.8336" lon="6.94392">
        <ele>644</ele>
        <time>2014-07-15T10:15:53Z</time>
      </trkpt>
      <trkpt lat="47.83361" lon="6.94391">
        <ele>644</ele>
        <time>2014-07-15T10:15:54Z</time>
      </trkpt>
      <trkpt lat="47.83363" lon="6.9439">
        <ele>644</ele>
        <time>2014-07-15T10:15:55Z</time>
      </trkpt>
      <trkpt lat="47.83363" lon="6.94389">
        <ele>644</ele>
        <time>2014-07-15T10:15:56Z</time>
      </trkpt>
      <trkpt lat="47.83364" lon="6.94388">
        <ele>644</ele>
        <time>2014-07-15T10:15:57Z</time>
      </trkpt>
      <trkpt lat="47.83364" lon="6.94386">
        <ele>644</ele>
        <time>2014-07-15T10:15:58Z</time>
      </trkpt>
      <trkpt lat="47.83364" lon="6.94385">
        <ele>644</ele>
        <time>2014-07-15T10:15:59Z</time>
      </trkpt>
      <trkpt lat="47.83364" lon="6.94384">
        <ele>644</ele>
        <time>2014-07-15T10:16:00Z</time>
      </trkpt>
      <trkpt lat="47.83365" lon="6.94382">
        <ele>644</ele>
        <time>2014-07-15T10:16:01Z</time>
      </trkpt>
      <trkpt lat="47.83365" lon="6.94381">
        <ele>644</ele>
        <time>2014-07-15T10:16:02Z</time>
      </trkpt>
      <trkpt lat="47.83366" lon="6.9438">
        <ele>645</ele>
        <time>2014-07-15T10:16:03Z</time>
      </trkpt>
      <trkpt lat="47.83366" lon="6.94378">
        <ele>645</ele>
        <time>2014-07-15T10:16:04Z</time>
      </trkpt>
      <trkpt lat="47.83367" lon="6.94377">
        <ele>645</ele>
        <time>2014-07-15T10:16:05Z</time>
      </trkpt>
      <trkpt lat="47.83368" lon="6.94376">
        <ele>645</ele>
        <time>2014-07-15T10:16:06Z</time>
      </trkpt>
      <trkpt lat="47.83368" lon="6.94375">
        <ele>645</ele>
        <time>2014-07-15T10:16:07Z</time>
      </trkpt>
      <trkpt lat="47.83369" lon="6.94373">
        <ele>645</ele>
        <time>2014-07-15T10:16:08Z</time>
      </trkpt>
      <trkpt lat="47.8337" lon="6.94372">
        <ele>645</ele>
        <time>2014-07-15T10:16:09Z</time>
      </trkpt>
      <trkpt lat="47.83371" lon="6.94371">
        <ele>645</ele>
        <time>2014-07-15T10:16:10Z</time>
      </trkpt>
      <trkpt lat="47.83373" lon="6.9437">
        <ele>645</ele>
        <time>2014-07-15T10:16:11Z</time>
      </trkpt>
      <trkpt lat="47.83374" lon="6.94369">
        <ele>645</ele>
        <time>2014-07-15T10:16:12Z</time>
      </trkpt>
      <trkpt lat="47.83375" lon="6.94368">
        <ele>645</ele>
        <time>2014-07-15T10:16:13Z</time>
      </trkpt>
      <trkpt lat="47.83376" lon="6.94367">
        <ele>645</ele>
        <time>2014-07-15T10:16:14Z</time>
      </trkpt>
      <trkpt lat="47.83377" lon="6.94365">
        <ele>645</ele>
        <time>2014-07-15T10:16:15Z</time>
      </trkpt>
      <trkpt lat="47.83378" lon="6.94364">
        <ele>645</ele>
        <time>2014-07-15T10:16:16Z</time>
      </trkpt>
      <trkpt lat="47.83379" lon="6.94362">
        <ele>645</ele>
        <time>2014-07-15T10:16:17Z</time>
      </trkpt>
      <trkpt lat="47.83379" lon="6.94361">
        <ele>645</ele>
        <time>2014-07-15T10:16:18Z</time>
      </trkpt>
      <trkpt lat="47.8338" lon="6.94359">
        <ele>645</ele>
        <time>2014-07-15T10:16:19Z</time>
      </trkpt>
      <trkpt lat="47.83381" lon="6.94357">
        <ele>646</ele>
        <time>2014-07-15T10:16:20Z</time>
      </trkpt>
      <trkpt lat="47.83382" lon="6.94356">
        <ele>646</ele>
        <time>2014-07-15T10:16:21Z</time>
      </trkpt>
      <trkpt lat="47.83383" lon="6.94354">
        <ele>646</ele>
        <time>2014-07-15T10:16:22Z</time>
      </trkpt>
      <trkpt lat="47.83384" lon="6.94352">
        <ele>646</ele>
        <time>2014-07-15T10:16:23Z</time>
      </trkpt>
      <trkpt lat="47.83385" lon="6.94351">
        <ele>646</ele>
        <time>2014-07-15T10:16:24Z</time>
      </trkpt>
      <trkpt lat="47.83386" lon="6.94349">
        <ele>646</ele>
        <time>2014-07-15T10:16:25Z</time>
      </trkpt>
      <trkpt lat="47.83386" lon="6.94347">
        <ele>646</ele>
        <time>2014-07-15T10:16:26Z</time>
      </trkpt>
      <trkpt lat="47.83387" lon="6.94345">
        <ele>646</ele>
        <time>2014-07-15T10:16:27Z</time>
      </trkpt>
      <trkpt lat="47.83388" lon="6.94341">
        <ele>646</ele>
        <time>2014-07-15T10:16:29Z</time>
      </trkpt>
      <trkpt lat="47.83389" lon="6.94338">
        <ele>646</ele>
        <time>2014-07-15T10:16:31Z</time>
      </trkpt>
      <trkpt lat="47.83389" lon="6.94337">
        <ele>646</ele>
        <time>2014-07-15T10:16:32Z</time>
      </trkpt>
      <trkpt lat="47.8339" lon="6.94337">
        <ele>646</ele>
        <time>2014-07-15T10:16:33Z</time>
      </trkpt>
      <trkpt lat="47.8339" lon="6.94335">
        <ele>646</ele>
        <time>2014-07-15T10:16:34Z</time>
      </trkpt>
      <trkpt lat="47.8339" lon="6.94333">
        <ele>654</ele>
        <time>2014-07-15T10:16:35Z</time>
      </trkpt>
      <trkpt lat="47.8339" lon="6.94331">
        <ele>654</ele>
        <time>2014-07-15T10:16:36Z</time>
      </trkpt>
      <trkpt lat="47.8339" lon="6.94329">
        <ele>655</ele>
        <time>2014-07-15T10:16:37Z</time>
      </trkpt>
      <trkpt lat="47.8339" lon="6.94327">
        <ele>655</ele>
        <time>2014-07-15T10:16:38Z</time>
      </trkpt>
      <trkpt lat="47.8339" lon="6.94326">
        <ele>655</ele>
        <time>2014-07-15T10:16:39Z</time>
      </trkpt>
      <trkpt lat="47.83391" lon="6.94324">
        <ele>655</ele>
        <time>2014-07-15T10:16:40Z</time>
      </trkpt>
      <trkpt lat="47.83391" lon="6.94322">
        <ele>655</ele>
        <time>2014-07-15T10:16:41Z</time>
      </trkpt>
      <trkpt lat="47.83391" lon="6.9432">
        <ele>655</ele>
        <time>2014-07-15T10:16:42Z</time>
      </trkpt>
      <trkpt lat="47.83392" lon="6.94316">
        <ele>656</ele>
        <time>2014-07-15T10:16:44Z</time>
      </trkpt>
      <trkpt lat="47.83392" lon="6.94314">
        <ele>656</ele>
        <time>2014-07-15T10:16:45Z</time>
      </trkpt>
      <trkpt lat="47.83392" lon="6.94313">
        <ele>656</ele>
        <time>2014-07-15T10:16:46Z</time>
      </trkpt>
      <trkpt lat="47.83392" lon="6.9431">
        <ele>657</ele>
        <time>2014-07-15T10:16:48Z</time>
      </trkpt>
      <trkpt lat="47.83391" lon="6.94308">
        <ele>657</ele>
        <time>2014-07-15T10:16:49Z</time>
      </trkpt>
      <trkpt lat="47.8339" lon="6.94307">
        <ele>657</ele>
        <time>2014-07-15T10:16:50Z</time>
      </trkpt>
      <trkpt lat="47.8339" lon="6.94305">
        <ele>657</ele>
        <time>2014-07-15T10:16:51Z</time>
      </trkpt>
      <trkpt lat="47.83391" lon="6.94304">
        <ele>657</ele>
        <time>2014-07-15T10:16:52Z</time>
      </trkpt>
      <trkpt lat="47.83391" lon="6.94303">
        <ele>658</ele>
        <time>2014-07-15T10:16:53Z</time>
      </trkpt>
      <trkpt lat="47.83392" lon="6.94302">
        <ele>658</ele>
        <time>2014-07-15T10:16:54Z</time>
      </trkpt>
      <trkpt lat="47.83393" lon="6.943">
        <ele>658</ele>
        <time>2014-07-15T10:16:55Z</time>
      </trkpt>
      <trkpt lat="47.83395" lon="6.94297">
        <ele>658</ele>
        <time>2014-07-15T10:16:57Z</time>
      </trkpt>
      <trkpt lat="47.83395" lon="6.94296">
        <ele>658</ele>
        <time>2014-07-15T10:16:58Z</time>
      </trkpt>
      <trkpt lat="47.83395" lon="6.94294">
        <ele>658</ele>
        <time>2014-07-15T10:16:59Z</time>
      </trkpt>
      <trkpt lat="47.83396" lon="6.94293">
        <ele>659</ele>
        <time>2014-07-15T10:17:00Z</time>
      </trkpt>
      <trkpt lat="47.83396" lon="6.94291">
        <ele>659</ele>
        <time>2014-07-15T10:17:01Z</time>
      </trkpt>
      <trkpt lat="47.83396" lon="6.94289">
        <ele>659</ele>
        <time>2014-07-15T10:17:02Z</time>
      </trkpt>
      <trkpt lat="47.83396" lon="6.94287">
        <ele>659</ele>
        <time>2014-07-15T10:17:03Z</time>
      </trkpt>
      <trkpt lat="47.83396" lon="6.94285">
        <ele>660</ele>
        <time>2014-07-15T10:17:04Z</time>
      </trkpt>
      <trkpt lat="47.83396" lon="6.94283">
        <ele>660</ele>
        <time>2014-07-15T10:17:05Z</time>
      </trkpt>
      <trkpt lat="47.83395" lon="6.94281">
        <ele>660</ele>
        <time>2014-07-15T10:17:06Z</time>
      </trkpt>
      <trkpt lat="47.83395" lon="6.9428">
        <ele>660</ele>
        <time>2014-07-15T10:17:07Z</time>
      </trkpt>
      <trkpt lat="47.83396" lon="6.94278">
        <ele>660</ele>
        <time>2014-07-15T10:17:08Z</time>
      </trkpt>
      <trkpt lat="47.83398" lon="6.94277">
        <ele>660</ele>
        <time>2014-07-15T10:17:10Z</time>
      </trkpt>
      <trkpt lat="47.83399" lon="6.94276">
        <ele>660</ele>
        <time>2014-07-15T10:17:11Z</time>
      </trkpt>
      <trkpt lat="47.83399" lon="6.94275">
        <ele>661</ele>
        <time>2014-07-15T10:17:12Z</time>
      </trkpt>
      <trkpt lat="47.83399" lon="6.94273">
        <ele>661</ele>
        <time>2014-07-15T10:17:13Z</time>
      </trkpt>
      <trkpt lat="47.83399" lon="6.94272">
        <ele>661</ele>
        <time>2014-07-15T10:17:14Z</time>
      </trkpt>
      <trkpt lat="47.834" lon="6.94271">
        <ele>661</ele>
        <time>2014-07-15T10:17:15Z</time>
      </trkpt>
      <trkpt lat="47.83401" lon="6.94271">
        <ele>661</ele>
        <time>2014-07-15T10:17:16Z</time>
      </trkpt>
      <trkpt lat="47.83402" lon="6.9427">
        <ele>661</ele>
        <time>2014-07-15T10:17:17Z</time>
      </trkpt>
      <trkpt lat="47.83403" lon="6.94269">
        <ele>661</ele>
        <time>2014-07-15T10:17:18Z</time>
      </trkpt>
      <trkpt lat="47.83404" lon="6.94268">
        <ele>661</ele>
        <time>2014-07-15T10:17:19Z</time>
      </trkpt>
      <trkpt lat="47.83404" lon="6.94266">
        <ele>661</ele>
        <time>2014-07-15T10:17:20Z</time>
      </trkpt>
      <trkpt lat="47.83404" lon="6.94264">
        <ele>661</ele>
        <time>2014-07-15T10:17:21Z</time>
      </trkpt>
      <trkpt lat="47.83403" lon="6.94262">
        <ele>661</ele>
        <time>2014-07-15T10:17:22Z</time>
      </trkpt>
      <trkpt lat="47.83403" lon="6.94261">
        <ele>661</ele>
        <time>2014-07-15T10:17:23Z</time>
      </trkpt>
      <trkpt lat="47.83404" lon="6.94259">
        <ele>662</ele>
        <time>2014-07-15T10:17:24Z</time>
      </trkpt>
      <trkpt lat="47.83404" lon="6.94258">
        <ele>662</ele>
        <time>2014-07-15T10:17:25Z</time>
      </trkpt>
      <trkpt lat="47.83404" lon="6.94256">
        <ele>662</ele>
        <time>2014-07-15T10:17:26Z</time>
      </trkpt>
      <trkpt lat="47.83404" lon="6.94255">
        <ele>662</ele>
        <time>2014-07-15T10:17:27Z</time>
      </trkpt>
      <trkpt lat="47.83404" lon="6.94253">
        <ele>662</ele>
        <time>2014-07-15T10:17:28Z</time>
      </trkpt>
      <trkpt lat="47.83405" lon="6.94252">
        <ele>662</ele>
        <time>2014-07-15T10:17:29Z</time>
      </trkpt>
      <trkpt lat="47.83405" lon="6.94251">
        <ele>662</ele>
        <time>2014-07-15T10:17:30Z</time>
      </trkpt>
      <trkpt lat="47.83406" lon="6.9425">
        <ele>669</ele>
        <time>2014-07-15T10:17:31Z</time>
      </trkpt>
      <trkpt lat="47.83407" lon="6.94249">
        <ele>669</ele>
        <time>2014-07-15T10:17:32Z</time>
      </trkpt>
      <trkpt lat="47.83407" lon="6.94249">
        <ele>669</ele>
        <time>2014-07-15T10:17:33Z</time>
      </trkpt>
      <trkpt lat="47.83407" lon="6.9425">
        <ele>669</ele>
        <time>2014-07-15T10:17:34Z</time>
      </trkpt>
      <trkpt lat="47.83407" lon="6.94251">
        <ele>662</ele>
        <time>2014-07-15T10:17:35Z</time>
      </trkpt>
      <trkpt lat="47.83408" lon="6.94252">
        <ele>662</ele>
        <time>2014-07-15T10:17:36Z</time>
      </trkpt>
      <trkpt lat="47.83409" lon="6.94253">
        <ele>662</ele>
        <time>2014-07-15T10:17:38Z</time>
      </trkpt>
      <trkpt lat="47.8341" lon="6.94254">
        <ele>662</ele>
        <time>2014-07-15T10:17:39Z</time>
      </trkpt>
      <trkpt lat="47.83411" lon="6.94255">
        <ele>662</ele>
        <time>2014-07-15T10:17:40Z</time>
      </trkpt>
      <trkpt lat="47.83411" lon="6.94255">
        <ele>662</ele>
        <time>2014-07-15T10:17:41Z</time>
      </trkpt>
      <trkpt lat="47.83412" lon="6.94255">
        <ele>662</ele>
        <time>2014-07-15T10:17:42Z</time>
      </trkpt>
      <trkpt lat="47.83412" lon="6.94255">
        <ele>662</ele>
        <time>2014-07-15T10:17:43Z</time>
      </trkpt>
      <trkpt lat="47.83412" lon="6.94256">
        <ele>662</ele>
        <time>2014-07-15T10:17:44Z</time>
      </trkpt>
      <trkpt lat="47.83412" lon="6.94256">
        <ele>662</ele>
        <time>2014-07-15T10:17:45Z</time>
      </trkpt>
      <trkpt lat="47.83412" lon="6.94256">
        <ele>662</ele>
        <time>2014-07-15T10:17:46Z</time>
      </trkpt>
      <trkpt lat="47.83412" lon="6.94256">
        <ele>662</ele>
        <time>2014-07-15T10:17:47Z</time>
      </trkpt>
      <trkpt lat="47.83412" lon="6.94255">
        <ele>662</ele>
        <time>2014-07-15T10:17:48Z</time>
      </trkpt>
      <trkpt lat="47.83411" lon="6.94254">
        <ele>662</ele>
        <time>2014-07-15T10:17:49Z</time>
      </trkpt>
      <trkpt lat="47.83411" lon="6.94253">
        <ele>662</ele>
        <time>2014-07-15T10:17:50Z</time>
      </trkpt>
      <trkpt lat="47.8341" lon="6.94252">
        <ele>662</ele>
        <time>2014-07-15T10:17:51Z</time>
      </trkpt>
      <trkpt lat="47.83409" lon="6.9425">
        <ele>662</ele>
        <time>2014-07-15T10:17:52Z</time>
      </trkpt>
      <trkpt lat="47.83409" lon="6.9425">
        <ele>667</ele>
        <time>2014-07-15T10:17:53Z</time>
      </trkpt>
      <trkpt lat="47.83409" lon="6.94249">
        <ele>668</ele>
        <time>2014-07-15T10:17:54Z</time>
      </trkpt>
      <trkpt lat="47.83409" lon="6.94248">
        <ele>668</ele>
        <time>2014-07-15T10:17:55Z</time>
      </trkpt>
      <trkpt lat="47.83409" lon="6.94247">
        <ele>668</ele>
        <time>2014-07-15T10:17:56Z</time>
      </trkpt>
      <trkpt lat="47.8341" lon="6.94245">
        <ele>668</ele>
        <time>2014-07-15T10:17:57Z</time>
      </trkpt>
      <trkpt lat="47.8341" lon="6.94244">
        <ele>668</ele>
        <time>2014-07-15T10:17:58Z</time>
      </trkpt>
      <trkpt lat="47.83411" lon="6.94244">
        <ele>668</ele>
        <time>2014-07-15T10:17:59Z</time>
      </trkpt>
      <trkpt lat="47.83412" lon="6.94243">
        <ele>668</ele>
        <time>2014-07-15T10:18:00Z</time>
      </trkpt>
      <trkpt lat="47.83412" lon="6.94242">
        <ele>669</ele>
        <time>2014-07-15T10:18:01Z</time>
      </trkpt>
      <trkpt lat="47.83413" lon="6.94241">
        <ele>669</ele>
        <time>2014-07-15T10:18:02Z</time>
      </trkpt>
      <trkpt lat="47.83413" lon="6.94239">
        <ele>670</ele>
        <time>2014-07-15T10:18:03Z</time>
      </trkpt>
      <trkpt lat="47.83414" lon="6.94238">
        <ele>670</ele>
        <time>2014-07-15T10:18:04Z</time>
      </trkpt>
      <trkpt lat="47.83414" lon="6.94237">
        <ele>671</ele>
        <time>2014-07-15T10:18:05Z</time>
      </trkpt>
      <trkpt lat="47.83414" lon="6.94235">
        <ele>672</ele>
        <time>2014-07-15T10:18:06Z</time>
      </trkpt>
      <trkpt lat="47.83414" lon="6.94234">
        <ele>672</ele>
        <time>2014-07-15T10:18:07Z</time>
      </trkpt>
      <trkpt lat="47.83414" lon="6.94232">
        <ele>673</ele>
        <time>2014-07-15T10:18:08Z</time>
      </trkpt>
      <trkpt lat="47.83415" lon="6.94231">
        <ele>673</ele>
        <time>2014-07-15T10:18:09Z</time>
      </trkpt>
      <trkpt lat="47.83415" lon="6.94229">
        <ele>674</ele>
        <time>2014-07-15T10:18:10Z</time>
      </trkpt>
      <trkpt lat="47.83415" lon="6.94228">
        <ele>675</ele>
        <time>2014-07-15T10:18:11Z</time>
      </trkpt>
      <trkpt lat="47.83416" lon="6.94226">
        <ele>675</ele>
        <time>2014-07-15T10:18:12Z</time>
      </trkpt>
      <trkpt lat="47.83416" lon="6.94225">
        <ele>676</ele>
        <time>2014-07-15T10:18:13Z</time>
      </trkpt>
      <trkpt lat="47.83417" lon="6.94223">
        <ele>667</ele>
        <time>2014-07-15T10:18:14Z</time>
      </trkpt>
      <trkpt lat="47.83417" lon="6.94222">
        <ele>667</ele>
        <time>2014-07-15T10:18:15Z</time>
      </trkpt>
      <trkpt lat="47.83418" lon="6.9422">
        <ele>668</ele>
        <time>2014-07-15T10:18:16Z</time>
      </trkpt>
      <trkpt lat="47.83418" lon="6.94219">
        <ele>668</ele>
        <time>2014-07-15T10:18:17Z</time>
      </trkpt>
      <trkpt lat="47.83419" lon="6.94215">
        <ele>669</ele>
        <time>2014-07-15T10:18:19Z</time>
      </trkpt>
      <trkpt lat="47.8342" lon="6.94214">
        <ele>669</ele>
        <time>2014-07-15T10:18:20Z</time>
      </trkpt>
      <trkpt lat="47.8342" lon="6.94212">
        <ele>669</ele>
        <time>2014-07-15T10:18:21Z</time>
      </trkpt>
      <trkpt lat="47.83421" lon="6.9421">
        <ele>669</ele>
        <time>2014-07-15T10:18:22Z</time>
      </trkpt>
      <trkpt lat="47.83421" lon="6.94209">
        <ele>670</ele>
        <time>2014-07-15T10:18:23Z</time>
      </trkpt>
      <trkpt lat="47.83422" lon="6.94206">
        <ele>670</ele>
        <time>2014-07-15T10:18:24Z</time>
      </trkpt>
      <trkpt lat="47.83423" lon="6.94204">
        <ele>671</ele>
        <time>2014-07-15T10:18:25Z</time>
      </trkpt>
      <trkpt lat="47.83423" lon="6.94201">
        <ele>671</ele>
        <time>2014-07-15T10:18:26Z</time>
      </trkpt>
      <trkpt lat="47.83424" lon="6.94198">
        <ele>672</ele>
        <time>2014-07-15T10:18:27Z</time>
      </trkpt>
      <trkpt lat="47.83424" lon="6.94196">
        <ele>673</ele>
        <time>2014-07-15T10:18:28Z</time>
      </trkpt>
      <trkpt lat="47.83424" lon="6.94194">
        <ele>673</ele>
        <time>2014-07-15T10:18:29Z</time>
      </trkpt>
      <trkpt lat="47.83425" lon="6.94191">
        <ele>674</ele>
        <time>2014-07-15T10:18:30Z</time>
      </trkpt>
      <trkpt lat="47.83425" lon="6.9419">
        <ele>674</ele>
        <time>2014-07-15T10:18:31Z</time>
      </trkpt>
      <trkpt lat="47.83426" lon="6.94188">
        <ele>675</ele>
        <time>2014-07-15T10:18:32Z</time>
      </trkpt>
      <trkpt lat="47.83427" lon="6.94187">
        <ele>675</ele>
        <time>2014-07-15T10:18:33Z</time>
      </trkpt>
      <trkpt lat="47.83428" lon="6.94186">
        <ele>675</ele>
        <time>2014-07-15T10:18:34Z</time>
      </trkpt>
      <trkpt lat="47.83429" lon="6.94185">
        <ele>675</ele>
        <time>2014-07-15T10:18:35Z</time>
      </trkpt>
      <trkpt lat="47.8343" lon="6.94184">
        <ele>675</ele>
        <time>2014-07-15T10:18:36Z</time>
      </trkpt>
      <trkpt lat="47.83431" lon="6.94183">
        <ele>675</ele>
        <time>2014-07-15T10:18:37Z</time>
      </trkpt>
      <trkpt lat="47.83431" lon="6.94181">
        <ele>676</ele>
        <time>2014-07-15T10:18:38Z</time>
      </trkpt>
      <trkpt lat="47.83432" lon="6.94179">
        <ele>676</ele>
        <time>2014-07-15T10:18:39Z</time>
      </trkpt>
      <trkpt lat="47.83433" lon="6.94177">
        <ele>676</ele>
        <time>2014-07-15T10:18:40Z</time>
      </trkpt>
      <trkpt lat="47.83433" lon="6.94176">
        <ele>676</ele>
        <time>2014-07-15T10:18:41Z</time>
      </trkpt>
      <trkpt lat="47.83434" lon="6.94174">
        <ele>676</ele>
        <time>2014-07-15T10:18:42Z</time>
      </trkpt>
      <trkpt lat="47.83434" lon="6.94172">
        <ele>677</ele>
        <time>2014-07-15T10:18:44Z</time>
      </trkpt>
      <trkpt lat="47.83434" lon="6.9417">
        <ele>677</ele>
        <time>2014-07-15T10:18:45Z</time>
      </trkpt>
      <trkpt lat="47.83435" lon="6.94169">
        <ele>677</ele>
        <time>2014-07-15T10:18:46Z</time>
      </trkpt>
      <trkpt lat="47.83434" lon="6.94167">
        <ele>677</ele>
        <time>2014-07-15T10:18:47Z</time>
      </trkpt>
      <trkpt lat="47.83435" lon="6.94166">
        <ele>686</ele>
        <time>2014-07-15T10:18:48Z</time>
      </trkpt>
      <trkpt lat="47.83435" lon="6.94164">
        <ele>686</ele>
        <time>2014-07-15T10:18:49Z</time>
      </trkpt>
      <trkpt lat="47.83436" lon="6.94161">
        <ele>686</ele>
        <time>2014-07-15T10:18:51Z</time>
      </trkpt>
      <trkpt lat="47.83437" lon="6.94159">
        <ele>686</ele>
        <time>2014-07-15T10:18:52Z</time>
      </trkpt>
      <trkpt lat="47.83437" lon="6.94158">
        <ele>686</ele>
        <time>2014-07-15T10:18:53Z</time>
      </trkpt>
      <trkpt lat="47.83438" lon="6.94156">
        <ele>686</ele>
        <time>2014-07-15T10:18:54Z</time>
      </trkpt>
      <trkpt lat="47.8344" lon="6.94155">
        <ele>685</ele>
        <time>2014-07-15T10:18:55Z</time>
      </trkpt>
      <trkpt lat="47.83441" lon="6.94153">
        <ele>685</ele>
        <time>2014-07-15T10:18:56Z</time>
      </trkpt>
      <trkpt lat="47.83441" lon="6.94152">
        <ele>685</ele>
        <time>2014-07-15T10:18:57Z</time>
      </trkpt>
      <trkpt lat="47.83442" lon="6.9415">
        <ele>685</ele>
        <time>2014-07-15T10:18:58Z</time>
      </trkpt>
      <trkpt lat="47.83443" lon="6.94149">
        <ele>685</ele>
        <time>2014-07-15T10:18:59Z</time>
      </trkpt>
      <trkpt lat="47.83444" lon="6.94148">
        <ele>685</ele>
        <time>2014-07-15T10:19:00Z</time>
      </trkpt>
      <trkpt lat="47.83445" lon="6.94147">
        <ele>685</ele>
        <time>2014-07-15T10:19:01Z</time>
      </trkpt>
      <trkpt lat="47.83446" lon="6.94145">
        <ele>685</ele>
        <time>2014-07-15T10:19:02Z</time>
      </trkpt>
      <trkpt lat="47.83447" lon="6.94144">
        <ele>685</ele>
        <time>2014-07-15T10:19:03Z</time>
      </trkpt>
      <trkpt lat="47.83448" lon="6.94143">
        <ele>685</ele>
        <time>2014-07-15T10:19:04Z</time>
      </trkpt>
      <trkpt lat="47.8345" lon="6.94142">
        <ele>685</ele>
        <time>2014-07-15T10:19:05Z</time>
      </trkpt>
      <trkpt lat="47.83451" lon="6.94141">
        <ele>685</ele>
        <time>2014-07-15T10:19:06Z</time>
      </trkpt>
      <trkpt lat="47.83452" lon="6.9414">
        <ele>685</ele>
        <time>2014-07-15T10:19:07Z</time>
      </trkpt>
      <trkpt lat="47.83453" lon="6.94139">
        <ele>685</ele>
        <time>2014-07-15T10:19:08Z</time>
      </trkpt>
      <trkpt lat="47.83454" lon="6.94138">
        <ele>685</ele>
        <time>2014-07-15T10:19:09Z</time>
      </trkpt>
      <trkpt lat="47.83455" lon="6.94136">
        <ele>685</ele>
        <time>2014-07-15T10:19:10Z</time>
      </trkpt>
      <trkpt lat="47.83456" lon="6.94134">
        <ele>685</ele>
        <time>2014-07-15T10:19:11Z</time>
      </trkpt>
      <trkpt lat="47.83456" lon="6.94133">
        <ele>685</ele>
        <time>2014-07-15T10:19:12Z</time>
      </trkpt>
      <trkpt lat="47.83456" lon="6.94131">
        <ele>685</ele>
        <time>2014-07-15T10:19:13Z</time>
      </trkpt>
      <trkpt lat="47.83456" lon="6.9413">
        <ele>685</ele>
        <time>2014-07-15T10:19:14Z</time>
      </trkpt>
      <trkpt lat="47.83456" lon="6.94129">
        <ele>685</ele>
        <time>2014-07-15T10:19:15Z</time>
      </trkpt>
      <trkpt lat="47.83457" lon="6.94127">
        <ele>686</ele>
        <time>2014-07-15T10:19:16Z</time>
      </trkpt>
      <trkpt lat="47.83457" lon="6.94125">
        <ele>686</ele>
        <time>2014-07-15T10:19:17Z</time>
      </trkpt>
      <trkpt lat="47.83457" lon="6.94124">
        <ele>686</ele>
        <time>2014-07-15T10:19:18Z</time>
      </trkpt>
      <trkpt lat="47.83458" lon="6.94124">
        <ele>686</ele>
        <time>2014-07-15T10:19:19Z</time>
      </trkpt>
      <trkpt lat="47.83459" lon="6.94122">
        <ele>686</ele>
        <time>2014-07-15T10:19:21Z</time>
      </trkpt>
      <trkpt lat="47.83459" lon="6.94121">
        <ele>686</ele>
        <time>2014-07-15T10:19:22Z</time>
      </trkpt>
      <trkpt lat="47.83459" lon="6.94121">
        <ele>686</ele>
        <time>2014-07-15T10:19:23Z</time>
      </trkpt>
      <trkpt lat="47.8346" lon="6.94119">
        <ele>686</ele>
        <time>2014-07-15T10:19:24Z</time>
      </trkpt>
      <trkpt lat="47.83461" lon="6.94118">
        <ele>686</ele>
        <time>2014-07-15T10:19:25Z</time>
      </trkpt>
      <trkpt lat="47.83461" lon="6.94116">
        <ele>686</ele>
        <time>2014-07-15T10:19:26Z</time>
      </trkpt>
      <trkpt lat="47.83461" lon="6.94114">
        <ele>686</ele>
        <time>2014-07-15T10:19:27Z</time>
      </trkpt>
      <trkpt lat="47.8346" lon="6.94112">
        <ele>687</ele>
        <time>2014-07-15T10:19:28Z</time>
      </trkpt>
      <trkpt lat="47.8346" lon="6.94111">
        <ele>687</ele>
        <time>2014-07-15T10:19:29Z</time>
      </trkpt>
      <trkpt lat="47.83461" lon="6.94109">
        <ele>687</ele>
        <time>2014-07-15T10:19:30Z</time>
      </trkpt>
      <trkpt lat="47.83461" lon="6.94107">
        <ele>687</ele>
        <time>2014-07-15T10:19:32Z</time>
      </trkpt>
      <trkpt lat="47.83461" lon="6.94106">
        <ele>687</ele>
        <time>2014-07-15T10:19:33Z</time>
      </trkpt>
      <trkpt lat="47.83461" lon="6.94105">
        <ele>687</ele>
        <time>2014-07-15T10:19:34Z</time>
      </trkpt>
      <trkpt lat="47.83461" lon="6.94105">
        <ele>687</ele>
        <time>2014-07-15T10:19:35Z</time>
      </trkpt>
      <trkpt lat="47.83461" lon="6.94104">
        <ele>687</ele>
        <time>2014-07-15T10:19:36Z</time>
      </trkpt>
      <trkpt lat="47.83462" lon="6.94103">
        <ele>687</ele>
        <time>2014-07-15T10:19:37Z</time>
      </trkpt>
      <trkpt lat="47.83463" lon="6.94102">
        <ele>687</ele>
        <time>2014-07-15T10:19:38Z</time>
      </trkpt>
      <trkpt lat="47.83463" lon="6.94101">
        <ele>687</ele>
        <time>2014-07-15T10:19:39Z</time>
      </trkpt>
      <trkpt lat="47.83464" lon="6.941">
        <ele>687</ele>
        <time>2014-07-15T10:19:40Z</time>
      </trkpt>
      <trkpt lat="47.83465" lon="6.94099">
        <ele>687</ele>
        <time>2014-07-15T10:19:41Z</time>
      </trkpt>
      <trkpt lat="47.83465" lon="6.94098">
        <ele>687</ele>
        <time>2014-07-15T10:19:42Z</time>
      </trkpt>
      <trkpt lat="47.83466" lon="6.94097">
        <ele>687</ele>
        <time>2014-07-15T10:19:43Z</time>
      </trkpt>
      <trkpt lat="47.83467" lon="6.94096">
        <ele>686</ele>
        <time>2014-07-15T10:19:44Z</time>
      </trkpt>
      <trkpt lat="47.83467" lon="6.94096">
        <ele>686</ele>
        <time>2014-07-15T10:19:45Z</time>
      </trkpt>
      <trkpt lat="47.83468" lon="6.94095">
        <ele>686</ele>
        <time>2014-07-15T10:19:46Z</time>
      </trkpt>
      <trkpt lat="47.83469" lon="6.94094">
        <ele>686</ele>
        <time>2014-07-15T10:19:47Z</time>
      </trkpt>
      <trkpt lat="47.8347" lon="6.94094">
        <ele>686</ele>
        <time>2014-07-15T10:19:48Z</time>
      </trkpt>
      <trkpt lat="47.83471" lon="6.94092">
        <ele>686</ele>
        <time>2014-07-15T10:19:50Z</time>
      </trkpt>
      <trkpt lat="47.83471" lon="6.9409">
        <ele>686</ele>
        <time>2014-07-15T10:19:51Z</time>
      </trkpt>
      <trkpt lat="47.83472" lon="6.94089">
        <ele>686</ele>
        <time>2014-07-15T10:19:52Z</time>
      </trkpt>
      <trkpt lat="47.83472" lon="6.94088">
        <ele>685</ele>
        <time>2014-07-15T10:19:53Z</time>
      </trkpt>
      <trkpt lat="47.83473" lon="6.94086">
        <ele>685</ele>
        <time>2014-07-15T10:19:54Z</time>
      </trkpt>
      <trkpt lat="47.83473" lon="6.94084">
        <ele>685</ele>
        <time>2014-07-15T10:19:55Z</time>
      </trkpt>
      <trkpt lat="47.83474" lon="6.94083">
        <ele>697</ele>
        <time>2014-07-15T10:19:56Z</time>
      </trkpt>
      <trkpt lat="47.83474" lon="6.94081">
        <ele>697</ele>
        <time>2014-07-15T10:19:57Z</time>
      </trkpt>
      <trkpt lat="47.83474" lon="6.9408">
        <ele>697</ele>
        <time>2014-07-15T10:19:58Z</time>
      </trkpt>
      <trkpt lat="47.83475" lon="6.94078">
        <ele>697</ele>
        <time>2014-07-15T10:19:59Z</time>
      </trkpt>
      <trkpt lat="47.83475" lon="6.94077">
        <ele>697</ele>
        <time>2014-07-15T10:20:00Z</time>
      </trkpt>
      <trkpt lat="47.83476" lon="6.94076">
        <ele>697</ele>
        <time>2014-07-15T10:20:01Z</time>
      </trkpt>
      <trkpt lat="47.83476" lon="6.94074">
        <ele>697</ele>
        <time>2014-07-15T10:20:02Z</time>
      </trkpt>
      <trkpt lat="47.83477" lon="6.94073">
        <ele>697</ele>
        <time>2014-07-15T10:20:03Z</time>
      </trkpt>
      <trkpt lat="47.83478" lon="6.94072">
        <ele>696</ele>
        <time>2014-07-15T10:20:04Z</time>
      </trkpt>
      <trkpt lat="47.83479" lon="6.94069">
        <ele>696</ele>
        <time>2014-07-15T10:20:05Z</time>
      </trkpt>
      <trkpt lat="47.83481" lon="6.94066">
        <ele>697</ele>
        <time>2014-07-15T10:20:06Z</time>
      </trkpt>
      <trkpt lat="47.83481" lon="6.94064">
        <ele>697</ele>
        <time>2014-07-15T10:20:07Z</time>
      </trkpt>
      <trkpt lat="47.83482" lon="6.94063">
        <ele>697</ele>
        <time>2014-07-15T10:20:08Z</time>
      </trkpt>
      <trkpt lat="47.83482" lon="6.94061">
        <ele>698</ele>
        <time>2014-07-15T10:20:09Z</time>
      </trkpt>
      <trkpt lat="47.83482" lon="6.9406">
        <ele>698</ele>
        <time>2014-07-15T10:20:10Z</time>
      </trkpt>
      <trkpt lat="47.83483" lon="6.94058">
        <ele>698</ele>
        <time>2014-07-15T10:20:11Z</time>
      </trkpt>
      <trkpt lat="47.83483" lon="6.94057">
        <ele>699</ele>
        <time>2014-07-15T10:20:12Z</time>
      </trkpt>
      <trkpt lat="47.83483" lon="6.94055">
        <ele>699</ele>
        <time>2014-07-15T10:20:13Z</time>
      </trkpt>
      <trkpt lat="47.83483" lon="6.94053">
        <ele>700</ele>
        <time>2014-07-15T10:20:14Z</time>
      </trkpt>
      <trkpt lat="47.83483" lon="6.94052">
        <ele>700</ele>
        <time>2014-07-15T10:20:15Z</time>
      </trkpt>
      <trkpt lat="47.83483" lon="6.9405">
        <ele>700</ele>
        <time>2014-07-15T10:20:16Z</time>
      </trkpt>
      <trkpt lat="47.83484" lon="6.94048">
        <ele>701</ele>
        <time>2014-07-15T10:20:17Z</time>
      </trkpt>
      <trkpt lat="47.83484" lon="6.94047">
        <ele>701</ele>
        <time>2014-07-15T10:20:18Z</time>
      </trkpt>
      <trkpt lat="47.83485" lon="6.94045">
        <ele>701</ele>
        <time>2014-07-15T10:20:19Z</time>
      </trkpt>
      <trkpt lat="47.83486" lon="6.94043">
        <ele>701</ele>
        <time>2014-07-15T10:20:20Z</time>
      </trkpt>
      <trkpt lat="47.83487" lon="6.94041">
        <ele>702</ele>
        <time>2014-07-15T10:20:21Z</time>
      </trkpt>
      <trkpt lat="47.83488" lon="6.94039">
        <ele>702</ele>
        <time>2014-07-15T10:20:22Z</time>
      </trkpt>
      <trkpt lat="47.83488" lon="6.94037">
        <ele>702</ele>
        <time>2014-07-15T10:20:23Z</time>
      </trkpt>
      <trkpt lat="47.83488" lon="6.94035">
        <ele>702</ele>
        <time>2014-07-15T10:20:24Z</time>
      </trkpt>
      <trkpt lat="47.83488" lon="6.94033">
        <ele>703</ele>
        <time>2014-07-15T10:20:25Z</time>
      </trkpt>
      <trkpt lat="47.83488" lon="6.94032">
        <ele>703</ele>
        <time>2014-07-15T10:20:26Z</time>
      </trkpt>
      <trkpt lat="47.83488" lon="6.9403">
        <ele>703</ele>
        <time>2014-07-15T10:20:27Z</time>
      </trkpt>
      <trkpt lat="47.83488" lon="6.94029">
        <ele>703</ele>
        <time>2014-07-15T10:20:28Z</time>
      </trkpt>
      <trkpt lat="47.83488" lon="6.94027">
        <ele>703</ele>
        <time>2014-07-15T10:20:29Z</time>
      </trkpt>
      <trkpt lat="47.83488" lon="6.94025">
        <ele>704</ele>
        <time>2014-07-15T10:20:30Z</time>
      </trkpt>
      <trkpt lat="47.83489" lon="6.94023">
        <ele>704</ele>
        <time>2014-07-15T10:20:31Z</time>
      </trkpt>
      <trkpt lat="47.8349" lon="6.94021">
        <ele>704</ele>
        <time>2014-07-15T10:20:32Z</time>
      </trkpt>
      <trkpt lat="47.83491" lon="6.9402">
        <ele>704</ele>
        <time>2014-07-15T10:20:33Z</time>
      </trkpt>
      <trkpt lat="47.83492" lon="6.94018">
        <ele>704</ele>
        <time>2014-07-15T10:20:34Z</time>
      </trkpt>
      <trkpt lat="47.83493" lon="6.94017">
        <ele>704</ele>
        <time>2014-07-15T10:20:35Z</time>
      </trkpt>
      <trkpt lat="47.83493" lon="6.94015">
        <ele>704</ele>
        <time>2014-07-15T10:20:36Z</time>
      </trkpt>
      <trkpt lat="47.83494" lon="6.94013">
        <ele>704</ele>
        <time>2014-07-15T10:20:37Z</time>
      </trkpt>
      <trkpt lat="47.83494" lon="6.94012">
        <ele>703</ele>
        <time>2014-07-15T10:20:38Z</time>
      </trkpt>
      <trkpt lat="47.83495" lon="6.9401">
        <ele>703</ele>
        <time>2014-07-15T10:20:39Z</time>
      </trkpt>
      <trkpt lat="47.83495" lon="6.94009">
        <ele>703</ele>
        <time>2014-07-15T10:20:40Z</time>
      </trkpt>
      <trkpt lat="47.83496" lon="6.94008">
        <ele>703</ele>
        <time>2014-07-15T10:20:41Z</time>
      </trkpt>
      <trkpt lat="47.83496" lon="6.94006">
        <ele>703</ele>
        <time>2014-07-15T10:20:42Z</time>
      </trkpt>
      <trkpt lat="47.83496" lon="6.94005">
        <ele>703</ele>
        <time>2014-07-15T10:20:43Z</time>
      </trkpt>
      <trkpt lat="47.83495" lon="6.94003">
        <ele>703</ele>
        <time>2014-07-15T10:20:44Z</time>
      </trkpt>
      <trkpt lat="47.83495" lon="6.94002">
        <ele>703</ele>
        <time>2014-07-15T10:20:45Z</time>
      </trkpt>
      <trkpt lat="47.83495" lon="6.94">
        <ele>703</ele>
        <time>2014-07-15T10:20:46Z</time>
      </trkpt>
      <trkpt lat="47.83494" lon="6.93999">
        <ele>707</ele>
        <time>2014-07-15T10:20:47Z</time>
      </trkpt>
      <trkpt lat="47.83494" lon="6.93997">
        <ele>708</ele>
        <time>2014-07-15T10:20:48Z</time>
      </trkpt>
      <trkpt lat="47.83494" lon="6.93996">
        <ele>708</ele>
        <time>2014-07-15T10:20:49Z</time>
      </trkpt>
      <trkpt lat="47.83494" lon="6.93995">
        <ele>708</ele>
        <time>2014-07-15T10:20:50Z</time>
      </trkpt>
      <trkpt lat="47.83494" lon="6.93994">
        <ele>709</ele>
        <time>2014-07-15T10:20:51Z</time>
      </trkpt>
      <trkpt lat="47.83494" lon="6.93994">
        <ele>709</ele>
        <time>2014-07-15T10:20:52Z</time>
      </trkpt>
      <trkpt lat="47.83495" lon="6.93993">
        <ele>709</ele>
        <time>2014-07-15T10:20:53Z</time>
      </trkpt>
      <trkpt lat="47.83495" lon="6.93993">
        <ele>709</ele>
        <time>2014-07-15T10:20:54Z</time>
      </trkpt>
      <trkpt lat="47.83495" lon="6.93992">
        <ele>710</ele>
        <time>2014-07-15T10:20:55Z</time>
      </trkpt>
      <trkpt lat="47.83495" lon="6.93992">
        <ele>710</ele>
        <time>2014-07-15T10:20:56Z</time>
      </trkpt>
      <trkpt lat="47.83495" lon="6.93991">
        <ele>710</ele>
        <time>2014-07-15T10:20:57Z</time>
      </trkpt>
      <trkpt lat="47.83495" lon="6.9399">
        <ele>711</ele>
        <time>2014-07-15T10:20:59Z</time>
      </trkpt>
      <trkpt lat="47.83495" lon="6.9399">
        <ele>711</ele>
        <time>2014-07-15T10:21:01Z</time>
      </trkpt>
      <trkpt lat="47.83495" lon="6.9399">
        <ele>711</ele>
        <time>2014-07-15T10:21:02Z</time>
      </trkpt>
      <trkpt lat="47.83495" lon="6.9399">
        <ele>711</ele>
        <time>2014-07-15T10:21:03Z</time>
      </trkpt>
      <trkpt lat="47.83495" lon="6.9399">
        <ele>711</ele>
        <time>2014-07-15T10:21:04Z</time>
      </trkpt>
      <trkpt lat="47.83495" lon="6.93989">
        <ele>711</ele>
        <time>2014-07-15T10:21:05Z</time>
      </trkpt>
      <trkpt lat="47.83495" lon="6.93988">
        <ele>712</ele>
        <time>2014-07-15T10:21:06Z</time>
      </trkpt>
      <trkpt lat="47.83495" lon="6.93987">
        <ele>712</ele>
        <time>2014-07-15T10:21:07Z</time>
      </trkpt>
      <trkpt lat="47.83496" lon="6.93983">
        <ele>714</ele>
        <time>2014-07-15T10:21:09Z</time>
      </trkpt>
      <trkpt lat="47.83496" lon="6.93981">
        <ele>715</ele>
        <time>2014-07-15T10:21:10Z</time>
      </trkpt>
      <trkpt lat="47.83495" lon="6.93979">
        <ele>716</ele>
        <time>2014-07-15T10:21:11Z</time>
      </trkpt>
      <trkpt lat="47.83495" lon="6.93977">
        <ele>716</ele>
        <time>2014-07-15T10:21:12Z</time>
      </trkpt>
      <trkpt lat="47.83495" lon="6.93975">
        <ele>717</ele>
        <time>2014-07-15T10:21:13Z</time>
      </trkpt>
      <trkpt lat="47.83496" lon="6.93973">
        <ele>717</ele>
        <time>2014-07-15T10:21:14Z</time>
      </trkpt>
      <trkpt lat="47.83497" lon="6.93972">
        <ele>718</ele>
        <time>2014-07-15T10:21:15Z</time>
      </trkpt>
      <trkpt lat="47.83497" lon="6.9397">
        <ele>718</ele>
        <time>2014-07-15T10:21:16Z</time>
      </trkpt>
      <trkpt lat="47.83497" lon="6.93969">
        <ele>719</ele>
        <time>2014-07-15T10:21:17Z</time>
      </trkpt>
      <trkpt lat="47.83498" lon="6.93967">
        <ele>719</ele>
        <time>2014-07-15T10:21:18Z</time>
      </trkpt>
      <trkpt lat="47.83498" lon="6.93966">
        <ele>719</ele>
        <time>2014-07-15T10:21:19Z</time>
      </trkpt>
      <trkpt lat="47.83498" lon="6.93964">
        <ele>720</ele>
        <time>2014-07-15T10:21:20Z</time>
      </trkpt>
      <trkpt lat="47.83499" lon="6.93963">
        <ele>720</ele>
        <time>2014-07-15T10:21:21Z</time>
      </trkpt>
      <trkpt lat="47.835" lon="6.93961">
        <ele>720</ele>
        <time>2014-07-15T10:21:22Z</time>
      </trkpt>
      <trkpt lat="47.835" lon="6.93959">
        <ele>721</ele>
        <time>2014-07-15T10:21:23Z</time>
      </trkpt>
      <trkpt lat="47.835" lon="6.93957">
        <ele>706</ele>
        <time>2014-07-15T10:21:24Z</time>
      </trkpt>
      <trkpt lat="47.83501" lon="6.93956">
        <ele>706</ele>
        <time>2014-07-15T10:21:25Z</time>
      </trkpt>
      <trkpt lat="47.83502" lon="6.93954">
        <ele>706</ele>
        <time>2014-07-15T10:21:26Z</time>
      </trkpt>
      <trkpt lat="47.83503" lon="6.93953">
        <ele>707</ele>
        <time>2014-07-15T10:21:27Z</time>
      </trkpt>
      <trkpt lat="47.83504" lon="6.93951">
        <ele>707</ele>
        <time>2014-07-15T10:21:28Z</time>
      </trkpt>
      <trkpt lat="47.83505" lon="6.9395">
        <ele>707</ele>
        <time>2014-07-15T10:21:29Z</time>
      </trkpt>
      <trkpt lat="47.83508" lon="6.93946">
        <ele>708</ele>
        <time>2014-07-15T10:21:31Z</time>
      </trkpt>
      <trkpt lat="47.83509" lon="6.93945">
        <ele>708</ele>
        <time>2014-07-15T10:21:32Z</time>
      </trkpt>
      <trkpt lat="47.83511" lon="6.93942">
        <ele>708</ele>
        <time>2014-07-15T10:21:33Z</time>
      </trkpt>
      <trkpt lat="47.83512" lon="6.9394">
        <ele>709</ele>
        <time>2014-07-15T10:21:34Z</time>
      </trkpt>
      <trkpt lat="47.83513" lon="6.93938">
        <ele>709</ele>
        <time>2014-07-15T10:21:35Z</time>
      </trkpt>
      <trkpt lat="47.83514" lon="6.93935">
        <ele>710</ele>
        <time>2014-07-15T10:21:36Z</time>
      </trkpt>
      <trkpt lat="47.83516" lon="6.93933">
        <ele>710</ele>
        <time>2014-07-15T10:21:37Z</time>
      </trkpt>
      <trkpt lat="47.83517" lon="6.93928">
        <ele>710</ele>
        <time>2014-07-15T10:21:39Z</time>
      </trkpt>
      <trkpt lat="47.83518" lon="6.93925">
        <ele>711</ele>
        <time>2014-07-15T10:21:40Z</time>
      </trkpt>
      <trkpt lat="47.83519" lon="6.93923">
        <ele>711</ele>
        <time>2014-07-15T10:21:41Z</time>
      </trkpt>
      <trkpt lat="47.8352" lon="6.93921">
        <ele>711</ele>
        <time>2014-07-15T10:21:42Z</time>
      </trkpt>
      <trkpt lat="47.83522" lon="6.93918">
        <ele>710</ele>
        <time>2014-07-15T10:21:44Z</time>
      </trkpt>
      <trkpt lat="47.83522" lon="6.93916">
        <ele>720</ele>
        <time>2014-07-15T10:21:45Z</time>
      </trkpt>
      <trkpt lat="47.83523" lon="6.93915">
        <ele>720</ele>
        <time>2014-07-15T10:21:46Z</time>
      </trkpt>
      <trkpt lat="47.83525" lon="6.93911">
        <ele>720</ele>
        <time>2014-07-15T10:21:48Z</time>
      </trkpt>
      <trkpt lat="47.83526" lon="6.93909">
        <ele>720</ele>
        <time>2014-07-15T10:21:49Z</time>
      </trkpt>
      <trkpt lat="47.83527" lon="6.93907">
        <ele>720</ele>
        <time>2014-07-15T10:21:50Z</time>
      </trkpt>
      <trkpt lat="47.83527" lon="6.93905">
        <ele>720</ele>
        <time>2014-07-15T10:21:51Z</time>
      </trkpt>
      <trkpt lat="47.83528" lon="6.93903">
        <ele>720</ele>
        <time>2014-07-15T10:21:52Z</time>
      </trkpt>
      <trkpt lat="47.83529" lon="6.93901">
        <ele>720</ele>
        <time>2014-07-15T10:21:53Z</time>
      </trkpt>
      <trkpt lat="47.83529" lon="6.93899">
        <ele>720</ele>
        <time>2014-07-15T10:21:54Z</time>
      </trkpt>
      <trkpt lat="47.8353" lon="6.93898">
        <ele>720</ele>
        <time>2014-07-15T10:21:55Z</time>
      </trkpt>
      <trkpt lat="47.83531" lon="6.93897">
        <ele>720</ele>
        <time>2014-07-15T10:21:56Z</time>
      </trkpt>
      <trkpt lat="47.83532" lon="6.93896">
        <ele>720</ele>
        <time>2014-07-15T10:21:57Z</time>
      </trkpt>
      <trkpt lat="47.83532" lon="6.93895">
        <ele>720</ele>
        <time>2014-07-15T10:21:58Z</time>
      </trkpt>
      <trkpt lat="47.83533" lon="6.93894">
        <ele>720</ele>
        <time>2014-07-15T10:21:59Z</time>
      </trkpt>
      <trkpt lat="47.83535" lon="6.93893">
        <ele>720</ele>
        <time>2014-07-15T10:22:01Z</time>
      </trkpt>
      <trkpt lat="47.83536" lon="6.93892">
        <ele>720</ele>
        <time>2014-07-15T10:22:02Z</time>
      </trkpt>
      <trkpt lat="47.83538" lon="6.93891">
        <ele>720</ele>
        <time>2014-07-15T10:22:03Z</time>
      </trkpt>
      <trkpt lat="47.83539" lon="6.9389">
        <ele>720</ele>
        <time>2014-07-15T10:22:04Z</time>
      </trkpt>
      <trkpt lat="47.8354" lon="6.93889">
        <ele>720</ele>
        <time>2014-07-15T10:22:05Z</time>
      </trkpt>
      <trkpt lat="47.83541" lon="6.93887">
        <ele>720</ele>
        <time>2014-07-15T10:22:06Z</time>
      </trkpt>
      <trkpt lat="47.83541" lon="6.93886">
        <ele>720</ele>
        <time>2014-07-15T10:22:07Z</time>
      </trkpt>
      <trkpt lat="47.83542" lon="6.93882">
        <ele>721</ele>
        <time>2014-07-15T10:22:09Z</time>
      </trkpt>
      <trkpt lat="47.83542" lon="6.93878">
        <ele>721</ele>
        <time>2014-07-15T10:22:11Z</time>
      </trkpt>
      <trkpt lat="47.83543" lon="6.93876">
        <ele>721</ele>
        <time>2014-07-15T10:22:12Z</time>
      </trkpt>
      <trkpt lat="47.83544" lon="6.93874">
        <ele>721</ele>
        <time>2014-07-15T10:22:13Z</time>
      </trkpt>
      <trkpt lat="47.83545" lon="6.93872">
        <ele>721</ele>
        <time>2014-07-15T10:22:14Z</time>
      </trkpt>
      <trkpt lat="47.83546" lon="6.9387">
        <ele>722</ele>
        <time>2014-07-15T10:22:15Z</time>
      </trkpt>
      <trkpt lat="47.83548" lon="6.93868">
        <ele>722</ele>
        <time>2014-07-15T10:22:16Z</time>
      </trkpt>
      <trkpt lat="47.83549" lon="6.93866">
        <ele>722</ele>
        <time>2014-07-15T10:22:17Z</time>
      </trkpt>
      <trkpt lat="47.8355" lon="6.93864">
        <ele>722</ele>
        <time>2014-07-15T10:22:18Z</time>
      </trkpt>
      <trkpt lat="47.8355" lon="6.93862">
        <ele>722</ele>
        <time>2014-07-15T10:22:19Z</time>
      </trkpt>
      <trkpt lat="47.83551" lon="6.9386">
        <ele>722</ele>
        <time>2014-07-15T10:22:20Z</time>
      </trkpt>
      <trkpt lat="47.83551" lon="6.93858">
        <ele>722</ele>
        <time>2014-07-15T10:22:21Z</time>
      </trkpt>
      <trkpt lat="47.83551" lon="6.93856">
        <ele>722</ele>
        <time>2014-07-15T10:22:22Z</time>
      </trkpt>
      <trkpt lat="47.83552" lon="6.93854">
        <ele>722</ele>
        <time>2014-07-15T10:22:23Z</time>
      </trkpt>
      <trkpt lat="47.83552" lon="6.93852">
        <ele>723</ele>
        <time>2014-07-15T10:22:24Z</time>
      </trkpt>
      <trkpt lat="47.83553" lon="6.93848">
        <ele>723</ele>
        <time>2014-07-15T10:22:26Z</time>
      </trkpt>
      <trkpt lat="47.83555" lon="6.93844">
        <ele>723</ele>
        <time>2014-07-15T10:22:28Z</time>
      </trkpt>
      <trkpt lat="47.83555" lon="6.93842">
        <ele>723</ele>
        <time>2014-07-15T10:22:29Z</time>
      </trkpt>
      <trkpt lat="47.83554" lon="6.9384">
        <ele>723</ele>
        <time>2014-07-15T10:22:30Z</time>
      </trkpt>
      <trkpt lat="47.83554" lon="6.93838">
        <ele>723</ele>
        <time>2014-07-15T10:22:31Z</time>
      </trkpt>
      <trkpt lat="47.83554" lon="6.93837">
        <ele>723</ele>
        <time>2014-07-15T10:22:32Z</time>
      </trkpt>
      <trkpt lat="47.83555" lon="6.93835">
        <ele>723</ele>
        <time>2014-07-15T10:22:33Z</time>
      </trkpt>
      <trkpt lat="47.83555" lon="6.93834">
        <ele>723</ele>
        <time>2014-07-15T10:22:34Z</time>
      </trkpt>
      <trkpt lat="47.83556" lon="6.93832">
        <ele>735</ele>
        <time>2014-07-15T10:22:35Z</time>
      </trkpt>
      <trkpt lat="47.83556" lon="6.93831">
        <ele>735</ele>
        <time>2014-07-15T10:22:36Z</time>
      </trkpt>
      <trkpt lat="47.83556" lon="6.9383">
        <ele>735</ele>
        <time>2014-07-15T10:22:37Z</time>
      </trkpt>
      <trkpt lat="47.83557" lon="6.93828">
        <ele>735</ele>
        <time>2014-07-15T10:22:38Z</time>
      </trkpt>
      <trkpt lat="47.83557" lon="6.93827">
        <ele>735</ele>
        <time>2014-07-15T10:22:39Z</time>
      </trkpt>
      <trkpt lat="47.83558" lon="6.93826">
        <ele>735</ele>
        <time>2014-07-15T10:22:40Z</time>
      </trkpt>
      <trkpt lat="47.83559" lon="6.93825">
        <ele>735</ele>
        <time>2014-07-15T10:22:41Z</time>
      </trkpt>
      <trkpt lat="47.8356" lon="6.93825">
        <ele>735</ele>
        <time>2014-07-15T10:22:42Z</time>
      </trkpt>
      <trkpt lat="47.8356" lon="6.93824">
        <ele>735</ele>
        <time>2014-07-15T10:22:43Z</time>
      </trkpt>
      <trkpt lat="47.83559" lon="6.93824">
        <ele>735</ele>
        <time>2014-07-15T10:22:44Z</time>
      </trkpt>
      <trkpt lat="47.83559" lon="6.93824">
        <ele>735</ele>
        <time>2014-07-15T10:22:45Z</time>
      </trkpt>
      <trkpt lat="47.83558" lon="6.93824">
        <ele>735</ele>
        <time>2014-07-15T10:22:46Z</time>
      </trkpt>
      <trkpt lat="47.83557" lon="6.93824">
        <ele>735</ele>
        <time>2014-07-15T10:22:47Z</time>
      </trkpt>
      <trkpt lat="47.83557" lon="6.93824">
        <ele>736</ele>
        <time>2014-07-15T10:22:48Z</time>
      </trkpt>
      <trkpt lat="47.83557" lon="6.93824">
        <ele>736</ele>
        <time>2014-07-15T10:22:49Z</time>
      </trkpt>
      <trkpt lat="47.83556" lon="6.93824">
        <ele>736</ele>
        <time>2014-07-15T10:22:50Z</time>
      </trkpt>
      <trkpt lat="47.83556" lon="6.93824">
        <ele>736</ele>
        <time>2014-07-15T10:22:51Z</time>
      </trkpt>
      <trkpt lat="47.83556" lon="6.93824">
        <ele>736</ele>
        <time>2014-07-15T10:22:52Z</time>
      </trkpt>
      <trkpt lat="47.83556" lon="6.93825">
        <ele>736</ele>
        <time>2014-07-15T10:22:53Z</time>
      </trkpt>
      <trkpt lat="47.83557" lon="6.93825">
        <ele>736</ele>
        <time>2014-07-15T10:22:54Z</time>
      </trkpt>
      <trkpt lat="47.83557" lon="6.93825">
        <ele>736</ele>
        <time>2014-07-15T10:22:55Z</time>
      </trkpt>
      <trkpt lat="47.83557" lon="6.93825">
        <ele>736</ele>
        <time>2014-07-15T10:22:56Z</time>
      </trkpt>
      <trkpt lat="47.83556" lon="6.93825">
        <ele>736</ele>
        <time>2014-07-15T10:22:58Z</time>
      </trkpt>
      <trkpt lat="47.83556" lon="6.93825">
        <ele>736</ele>
        <time>2014-07-15T10:22:59Z</time>
      </trkpt>
      <trkpt lat="47.83556" lon="6.93825">
        <ele>736</ele>
        <time>2014-07-15T10:23:00Z</time>
      </trkpt>
      <trkpt lat="47.83556" lon="6.93825">
        <ele>736</ele>
        <time>2014-07-15T10:23:01Z</time>
      </trkpt>
      <trkpt lat="47.83556" lon="6.93825">
        <ele>736</ele>
        <time>2014-07-15T10:23:02Z</time>
      </trkpt>
      <trkpt lat="47.83556" lon="6.93825">
        <ele>736</ele>
        <time>2014-07-15T10:23:03Z</time>
      </trkpt>
      <trkpt lat="47.83556" lon="6.93825">
        <ele>736</ele>
        <time>2014-07-15T10:23:05Z</time>
      </trkpt>
      <trkpt lat="47.83556" lon="6.93825">
        <ele>736</ele>
        <time>2014-07-15T10:23:06Z</time>
      </trkpt>
      <trkpt lat="47.83556" lon="6.93825">
        <ele>736</ele>
        <time>2014-07-15T10:23:07Z</time>
      </trkpt>
      <trkpt lat="47.83556" lon="6.93825">
        <ele>736</ele>
        <time>2014-07-15T10:23:08Z</time>
      </trkpt>
      <trkpt lat="47.83556" lon="6.93825">
        <ele>736</ele>
        <time>2014-07-15T10:23:09Z</time>
      </trkpt>
      <trkpt lat="47.83556" lon="6.93825">
        <ele>736</ele>
        <time>2014-07-15T10:23:10Z</time>
      </trkpt>
      <trkpt lat="47.83556" lon="6.93825">
        <ele>736</ele>
        <time>2014-07-15T10:23:11Z</time>
      </trkpt>
      <trkpt lat="47.83556" lon="6.93825">
        <ele>736</ele>
        <time>2014-07-15T10:23:12Z</time>
      </trkpt>
      <trkpt lat="47.83556" lon="6.93825">
        <ele>736</ele>
        <time>2014-07-15T10:23:13Z</time>
      </trkpt>
      <trkpt lat="47.83556" lon="6.93825">
        <ele>736</ele>
        <time>2014-07-15T10:23:14Z</time>
      </trkpt>
      <trkpt lat="47.83556" lon="6.93825">
        <ele>736</ele>
        <time>2014-07-15T10:23:15Z</time>
      </trkpt>
      <trkpt lat="47.83556" lon="6.93825">
        <ele>736</ele>
        <time>2014-07-15T10:23:16Z</time>
      </trkpt>
      <trkpt lat="47.83556" lon="6.93825">
        <ele>736</ele>
        <time>2014-07-15T10:23:17Z</time>
      </trkpt>
      <trkpt lat="47.83556" lon="6.93825">
        <ele>736</ele>
        <time>2014-07-15T10:23:18Z</time>
      </trkpt>
      <trkpt lat="47.83556" lon="6.93825">
        <ele>736</ele>
        <time>2014-07-15T10:23:19Z</time>
      </trkpt>
      <trkpt lat="47.83556" lon="6.93825">
        <ele>736</ele>
        <time>2014-07-15T10:23:21Z</time>
      </trkpt>
      <trkpt lat="47.83556" lon="6.93825">
        <ele>736</ele>
        <time>2014-07-15T10:23:22Z</time>
      </trkpt>
      <trkpt lat="47.83555" lon="6.93825">
        <ele>736</ele>
        <time>2014-07-15T10:23:23Z</time>
      </trkpt>
      <trkpt lat="47.83555" lon="6.93825">
        <ele>736</ele>
        <time>2014-07-15T10:23:24Z</time>
      </trkpt>
      <trkpt lat="47.83555" lon="6.93825">
        <ele>736</ele>
        <time>2014-07-15T10:23:25Z</time>
      </trkpt>
      <trkpt lat="47.83555" lon="6.93825">
        <ele>736</ele>
        <time>2014-07-15T10:23:26Z</time>
      </trkpt>
      <trkpt lat="47.83555" lon="6.93825">
        <ele>736</ele>
        <time>2014-07-15T10:23:27Z</time>
      </trkpt>
      <trkpt lat="47.83555" lon="6.93825">
        <ele>736</ele>
        <time>2014-07-15T10:23:28Z</time>
      </trkpt>
      <trkpt lat="47.83555" lon="6.93825">
        <ele>736</ele>
        <time>2014-07-15T10:23:29Z</time>
      </trkpt>
      <trkpt lat="47.83555" lon="6.93825">
        <ele>736</ele>
        <time>2014-07-15T10:23:30Z</time>
      </trkpt>
      <trkpt lat="47.83555" lon="6.93825">
        <ele>736</ele>
        <time>2014-07-15T10:23:31Z</time>
      </trkpt>
      <trkpt lat="47.83555" lon="6.93825">
        <ele>736</ele>
        <time>2014-07-15T10:23:32Z</time>
      </trkpt>
      <trkpt lat="47.83555" lon="6.93825">
        <ele>736</ele>
        <time>2014-07-15T10:23:34Z</time>
      </trkpt>
      <trkpt lat="47.83555" lon="6.93825">
        <ele>736</ele>
        <time>2014-07-15T10:23:35Z</time>
      </trkpt>
      <trkpt lat="47.83555" lon="6.93825">
        <ele>736</ele>
        <time>2014-07-15T10:23:36Z</time>
      </trkpt>
      <trkpt lat="47.83555" lon="6.93825">
        <ele>736</ele>
        <time>2014-07-15T10:23:37Z</time>
      </trkpt>
      <trkpt lat="47.83555" lon="6.93825">
        <ele>736</ele>
        <time>2014-07-15T10:23:38Z</time>
      </trkpt>
      <trkpt lat="47.83555" lon="6.93825">
        <ele>736</ele>
        <time>2014-07-15T10:23:39Z</time>
      </trkpt>
      <trkpt lat="47.83555" lon="6.93824">
        <ele>736</ele>
        <time>2014-07-15T10:23:41Z</time>
      </trkpt>
      <trkpt lat="47.83555" lon="6.93824">
        <ele>736</ele>
        <time>2014-07-15T10:23:43Z</time>
      </trkpt>
      <trkpt lat="47.83556" lon="6.93824">
        <ele>736</ele>
        <time>2014-07-15T10:23:44Z</time>
      </trkpt>
      <trkpt lat="47.83556" lon="6.93823">
        <ele>736</ele>
        <time>2014-07-15T10:23:45Z</time>
      </trkpt>
      <trkpt lat="47.83556" lon="6.93823">
        <ele>736</ele>
        <time>2014-07-15T10:23:46Z</time>
      </trkpt>
      <trkpt lat="47.83557" lon="6.93822">
        <ele>736</ele>
        <time>2014-07-15T10:23:47Z</time>
      </trkpt>
      <trkpt lat="47.83557" lon="6.93821">
        <ele>736</ele>
        <time>2014-07-15T10:23:48Z</time>
      </trkpt>
      <trkpt lat="47.83558" lon="6.93821">
        <ele>736</ele>
        <time>2014-07-15T10:23:49Z</time>
      </trkpt>
      <trkpt lat="47.83559" lon="6.9382">
        <ele>736</ele>
        <time>2014-07-15T10:23:50Z</time>
      </trkpt>
      <trkpt lat="47.83559" lon="6.93819">
        <ele>736</ele>
        <time>2014-07-15T10:23:51Z</time>
      </trkpt>
      <trkpt lat="47.8356" lon="6.93819">
        <ele>736</ele>
        <time>2014-07-15T10:23:52Z</time>
      </trkpt>
      <trkpt lat="47.8356" lon="6.93817">
        <ele>736</ele>
        <time>2014-07-15T10:23:53Z</time>
      </trkpt>
      <trkpt lat="47.83561" lon="6.93816">
        <ele>736</ele>
        <time>2014-07-15T10:23:54Z</time>
      </trkpt>
      <trkpt lat="47.83561" lon="6.93815">
        <ele>736</ele>
        <time>2014-07-15T10:23:55Z</time>
      </trkpt>
      <trkpt lat="47.83561" lon="6.93813">
        <ele>736</ele>
        <time>2014-07-15T10:23:56Z</time>
      </trkpt>
      <trkpt lat="47.83561" lon="6.93811">
        <ele>737</ele>
        <time>2014-07-15T10:23:58Z</time>
      </trkpt>
      <trkpt lat="47.83561" lon="6.9381">
        <ele>737</ele>
        <time>2014-07-15T10:23:59Z</time>
      </trkpt>
      <trkpt lat="47.83562" lon="6.93809">
        <ele>737</ele>
        <time>2014-07-15T10:24:00Z</time>
      </trkpt>
      <trkpt lat="47.83563" lon="6.93807">
        <ele>737</ele>
        <time>2014-07-15T10:24:01Z</time>
      </trkpt>
      <trkpt lat="47.83563" lon="6.93806">
        <ele>737</ele>
        <time>2014-07-15T10:24:02Z</time>
      </trkpt>
      <trkpt lat="47.83564" lon="6.93805">
        <ele>737</ele>
        <time>2014-07-15T10:24:03Z</time>
      </trkpt>
      <trkpt lat="47.83565" lon="6.93804">
        <ele>738</ele>
        <time>2014-07-15T10:24:04Z</time>
      </trkpt>
      <trkpt lat="47.83565" lon="6.93803">
        <ele>738</ele>
        <time>2014-07-15T10:24:05Z</time>
      </trkpt>
      <trkpt lat="47.83566" lon="6.93802">
        <ele>738</ele>
        <time>2014-07-15T10:24:06Z</time>
      </trkpt>
      <trkpt lat="47.83567" lon="6.93801">
        <ele>738</ele>
        <time>2014-07-15T10:24:07Z</time>
      </trkpt>
      <trkpt lat="47.83567" lon="6.938">
        <ele>738</ele>
        <time>2014-07-15T10:24:08Z</time>
      </trkpt>
      <trkpt lat="47.83568" lon="6.93799">
        <ele>738</ele>
        <time>2014-07-15T10:24:09Z</time>
      </trkpt>
      <trkpt lat="47.83569" lon="6.93798">
        <ele>738</ele>
        <time>2014-07-15T10:24:10Z</time>
      </trkpt>
      <trkpt lat="47.83569" lon="6.93797">
        <ele>738</ele>
        <time>2014-07-15T10:24:11Z</time>
      </trkpt>
      <trkpt lat="47.83569" lon="6.93796">
        <ele>739</ele>
        <time>2014-07-15T10:24:12Z</time>
      </trkpt>
      <trkpt lat="47.8357" lon="6.93794">
        <ele>739</ele>
        <time>2014-07-15T10:24:13Z</time>
      </trkpt>
      <trkpt lat="47.83571" lon="6.93793">
        <ele>739</ele>
        <time>2014-07-15T10:24:14Z</time>
      </trkpt>
      <trkpt lat="47.83572" lon="6.93792">
        <ele>739</ele>
        <time>2014-07-15T10:24:15Z</time>
      </trkpt>
      <trkpt lat="47.83572" lon="6.93791">
        <ele>739</ele>
        <time>2014-07-15T10:24:16Z</time>
      </trkpt>
      <trkpt lat="47.83574" lon="6.9379">
        <ele>739</ele>
        <time>2014-07-15T10:24:17Z</time>
      </trkpt>
      <trkpt lat="47.83575" lon="6.93789">
        <ele>739</ele>
        <time>2014-07-15T10:24:18Z</time>
      </trkpt>
      <trkpt lat="47.83576" lon="6.93788">
        <ele>739</ele>
        <time>2014-07-15T10:24:19Z</time>
      </trkpt>
      <trkpt lat="47.83577" lon="6.93788">
        <ele>740</ele>
        <time>2014-07-15T10:24:20Z</time>
      </trkpt>
      <trkpt lat="47.83578" lon="6.93787">
        <ele>740</ele>
        <time>2014-07-15T10:24:21Z</time>
      </trkpt>
      <trkpt lat="47.83578" lon="6.93786">
        <ele>740</ele>
        <time>2014-07-15T10:24:22Z</time>
      </trkpt>
      <trkpt lat="47.83579" lon="6.93785">
        <ele>740</ele>
        <time>2014-07-15T10:24:23Z</time>
      </trkpt>
      <trkpt lat="47.83579" lon="6.93784">
        <ele>740</ele>
        <time>2014-07-15T10:24:24Z</time>
      </trkpt>
      <trkpt lat="47.8358" lon="6.93783">
        <ele>740</ele>
        <time>2014-07-15T10:24:25Z</time>
      </trkpt>
      <trkpt lat="47.8358" lon="6.93781">
        <ele>740</ele>
        <time>2014-07-15T10:24:26Z</time>
      </trkpt>
      <trkpt lat="47.83581" lon="6.93779">
        <ele>741</ele>
        <time>2014-07-15T10:24:27Z</time>
      </trkpt>
      <trkpt lat="47.83581" lon="6.93778">
        <ele>741</ele>
        <time>2014-07-15T10:24:28Z</time>
      </trkpt>
      <trkpt lat="47.83582" lon="6.93776">
        <ele>741</ele>
        <time>2014-07-15T10:24:29Z</time>
      </trkpt>
      <trkpt lat="47.83582" lon="6.93774">
        <ele>741</ele>
        <time>2014-07-15T10:24:30Z</time>
      </trkpt>
      <trkpt lat="47.83582" lon="6.93773">
        <ele>741</ele>
        <time>2014-07-15T10:24:31Z</time>
      </trkpt>
      <trkpt lat="47.83582" lon="6.93771">
        <ele>741</ele>
        <time>2014-07-15T10:24:32Z</time>
      </trkpt>
      <trkpt lat="47.83583" lon="6.9377">
        <ele>741</ele>
        <time>2014-07-15T10:24:33Z</time>
      </trkpt>
      <trkpt lat="47.83584" lon="6.93769">
        <ele>734</ele>
        <time>2014-07-15T10:24:34Z</time>
      </trkpt>
      <trkpt lat="47.83584" lon="6.93768">
        <ele>734</ele>
        <time>2014-07-15T10:24:35Z</time>
      </trkpt>
      <trkpt lat="47.83584" lon="6.93766">
        <ele>734</ele>
        <time>2014-07-15T10:24:36Z</time>
      </trkpt>
      <trkpt lat="47.83584" lon="6.93765">
        <ele>735</ele>
        <time>2014-07-15T10:24:37Z</time>
      </trkpt>
      <trkpt lat="47.83584" lon="6.93764">
        <ele>735</ele>
        <time>2014-07-15T10:24:38Z</time>
      </trkpt>
      <trkpt lat="47.83584" lon="6.93762">
        <ele>736</ele>
        <time>2014-07-15T10:24:39Z</time>
      </trkpt>
      <trkpt lat="47.83584" lon="6.93761">
        <ele>736</ele>
        <time>2014-07-15T10:24:40Z</time>
      </trkpt>
      <trkpt lat="47.83584" lon="6.93759">
        <ele>737</ele>
        <time>2014-07-15T10:24:41Z</time>
      </trkpt>
      <trkpt lat="47.83584" lon="6.93757">
        <ele>738</ele>
        <time>2014-07-15T10:24:42Z</time>
      </trkpt>
      <trkpt lat="47.83585" lon="6.93756">
        <ele>738</ele>
        <time>2014-07-15T10:24:43Z</time>
      </trkpt>
      <trkpt lat="47.83586" lon="6.93755">
        <ele>739</ele>
        <time>2014-07-15T10:24:44Z</time>
      </trkpt>
      <trkpt lat="47.83587" lon="6.93754">
        <ele>739</ele>
        <time>2014-07-15T10:24:45Z</time>
      </trkpt>
      <trkpt lat="47.83587" lon="6.93751">
        <ele>740</ele>
        <time>2014-07-15T10:24:46Z</time>
      </trkpt>
      <trkpt lat="47.83587" lon="6.9375">
        <ele>740</ele>
        <time>2014-07-15T10:24:47Z</time>
      </trkpt>
      <trkpt lat="47.83588" lon="6.93749">
        <ele>742</ele>
        <time>2014-07-15T10:24:48Z</time>
      </trkpt>
      <trkpt lat="47.83587" lon="6.93748">
        <ele>742</ele>
        <time>2014-07-15T10:24:49Z</time>
      </trkpt>
      <trkpt lat="47.83587" lon="6.93747">
        <ele>742</ele>
        <time>2014-07-15T10:24:50Z</time>
      </trkpt>
      <trkpt lat="47.83587" lon="6.93746">
        <ele>742</ele>
        <time>2014-07-15T10:24:51Z</time>
      </trkpt>
      <trkpt lat="47.83586" lon="6.93745">
        <ele>742</ele>
        <time>2014-07-15T10:24:52Z</time>
      </trkpt>
      <trkpt lat="47.83586" lon="6.93744">
        <ele>742</ele>
        <time>2014-07-15T10:24:53Z</time>
      </trkpt>
      <trkpt lat="47.83587" lon="6.93744">
        <ele>742</ele>
        <time>2014-07-15T10:24:54Z</time>
      </trkpt>
      <trkpt lat="47.83587" lon="6.93743">
        <ele>742</ele>
        <time>2014-07-15T10:24:55Z</time>
      </trkpt>
      <trkpt lat="47.83588" lon="6.9374">
        <ele>742</ele>
        <time>2014-07-15T10:24:57Z</time>
      </trkpt>
      <trkpt lat="47.83589" lon="6.93739">
        <ele>742</ele>
        <time>2014-07-15T10:24:58Z</time>
      </trkpt>
      <trkpt lat="47.83589" lon="6.93738">
        <ele>742</ele>
        <time>2014-07-15T10:24:59Z</time>
      </trkpt>
      <trkpt lat="47.83591" lon="6.93735">
        <ele>742</ele>
        <time>2014-07-15T10:25:01Z</time>
      </trkpt>
      <trkpt lat="47.83592" lon="6.93734">
        <ele>742</ele>
        <time>2014-07-15T10:25:02Z</time>
      </trkpt>
      <trkpt lat="47.83592" lon="6.93733">
        <ele>742</ele>
        <time>2014-07-15T10:25:03Z</time>
      </trkpt>
      <trkpt lat="47.83593" lon="6.93732">
        <ele>742</ele>
        <time>2014-07-15T10:25:04Z</time>
      </trkpt>
      <trkpt lat="47.83593" lon="6.93731">
        <ele>743</ele>
        <time>2014-07-15T10:25:05Z</time>
      </trkpt>
      <trkpt lat="47.83593" lon="6.9373">
        <ele>743</ele>
        <time>2014-07-15T10:25:06Z</time>
      </trkpt>
      <trkpt lat="47.83593" lon="6.93728">
        <ele>743</ele>
        <time>2014-07-15T10:25:07Z</time>
      </trkpt>
      <trkpt lat="47.83593" lon="6.93727">
        <ele>743</ele>
        <time>2014-07-15T10:25:08Z</time>
      </trkpt>
      <trkpt lat="47.83592" lon="6.93726">
        <ele>743</ele>
        <time>2014-07-15T10:25:09Z</time>
      </trkpt>
      <trkpt lat="47.83592" lon="6.93725">
        <ele>743</ele>
        <time>2014-07-15T10:25:10Z</time>
      </trkpt>
      <trkpt lat="47.83592" lon="6.93723">
        <ele>743</ele>
        <time>2014-07-15T10:25:11Z</time>
      </trkpt>
      <trkpt lat="47.83592" lon="6.93722">
        <ele>743</ele>
        <time>2014-07-15T10:25:12Z</time>
      </trkpt>
      <trkpt lat="47.83591" lon="6.93719">
        <ele>744</ele>
        <time>2014-07-15T10:25:14Z</time>
      </trkpt>
      <trkpt lat="47.83592" lon="6.93718">
        <ele>744</ele>
        <time>2014-07-15T10:25:15Z</time>
      </trkpt>
      <trkpt lat="47.83592" lon="6.93716">
        <ele>744</ele>
        <time>2014-07-15T10:25:17Z</time>
      </trkpt>
      <trkpt lat="47.83593" lon="6.93715">
        <ele>744</ele>
        <time>2014-07-15T10:25:18Z</time>
      </trkpt>
      <trkpt lat="47.83593" lon="6.93713">
        <ele>744</ele>
        <time>2014-07-15T10:25:19Z</time>
      </trkpt>
      <trkpt lat="47.83593" lon="6.93712">
        <ele>744</ele>
        <time>2014-07-15T10:25:20Z</time>
      </trkpt>
      <trkpt lat="47.83593" lon="6.93711">
        <ele>744</ele>
        <time>2014-07-15T10:25:21Z</time>
      </trkpt>
      <trkpt lat="47.83593" lon="6.93709">
        <ele>745</ele>
        <time>2014-07-15T10:25:22Z</time>
      </trkpt>
      <trkpt lat="47.83592" lon="6.93708">
        <ele>745</ele>
        <time>2014-07-15T10:25:23Z</time>
      </trkpt>
      <trkpt lat="47.83592" lon="6.93706">
        <ele>745</ele>
        <time>2014-07-15T10:25:24Z</time>
      </trkpt>
      <trkpt lat="47.83593" lon="6.93705">
        <ele>745</ele>
        <time>2014-07-15T10:25:25Z</time>
      </trkpt>
      <trkpt lat="47.83593" lon="6.93703">
        <ele>746</ele>
        <time>2014-07-15T10:25:26Z</time>
      </trkpt>
      <trkpt lat="47.83594" lon="6.93702">
        <ele>746</ele>
        <time>2014-07-15T10:25:27Z</time>
      </trkpt>
      <trkpt lat="47.83595" lon="6.937">
        <ele>746</ele>
        <time>2014-07-15T10:25:28Z</time>
      </trkpt>
      <trkpt lat="47.83596" lon="6.93699">
        <ele>746</ele>
        <time>2014-07-15T10:25:29Z</time>
      </trkpt>
      <trkpt lat="47.83597" lon="6.93697">
        <ele>746</ele>
        <time>2014-07-15T10:25:30Z</time>
      </trkpt>
      <trkpt lat="47.83598" lon="6.93696">
        <ele>746</ele>
        <time>2014-07-15T10:25:31Z</time>
      </trkpt>
      <trkpt lat="47.83598" lon="6.93694">
        <ele>747</ele>
        <time>2014-07-15T10:25:32Z</time>
      </trkpt>
      <trkpt lat="47.83599" lon="6.93692">
        <ele>747</ele>
        <time>2014-07-15T10:25:33Z</time>
      </trkpt>
      <trkpt lat="47.836" lon="6.9369">
        <ele>747</ele>
        <time>2014-07-15T10:25:34Z</time>
      </trkpt>
      <trkpt lat="47.83601" lon="6.93689">
        <ele>747</ele>
        <time>2014-07-15T10:25:35Z</time>
      </trkpt>
      <trkpt lat="47.83602" lon="6.93688">
        <ele>747</ele>
        <time>2014-07-15T10:25:36Z</time>
      </trkpt>
      <trkpt lat="47.83603" lon="6.93687">
        <ele>747</ele>
        <time>2014-07-15T10:25:37Z</time>
      </trkpt>
      <trkpt lat="47.83605" lon="6.93686">
        <ele>747</ele>
        <time>2014-07-15T10:25:38Z</time>
      </trkpt>
      <trkpt lat="47.83605" lon="6.93684">
        <ele>747</ele>
        <time>2014-07-15T10:25:39Z</time>
      </trkpt>
      <trkpt lat="47.83607" lon="6.93682">
        <ele>747</ele>
        <time>2014-07-15T10:25:41Z</time>
      </trkpt>
      <trkpt lat="47.83608" lon="6.93681">
        <ele>747</ele>
        <time>2014-07-15T10:25:42Z</time>
      </trkpt>
      <trkpt lat="47.83608" lon="6.93677">
        <ele>748</ele>
        <time>2014-07-15T10:25:44Z</time>
      </trkpt>
      <trkpt lat="47.83608" lon="6.93675">
        <ele>748</ele>
        <time>2014-07-15T10:25:45Z</time>
      </trkpt>
      <trkpt lat="47.83608" lon="6.93673">
        <ele>748</ele>
        <time>2014-07-15T10:25:46Z</time>
      </trkpt>
      <trkpt lat="47.83608" lon="6.93671">
        <ele>748</ele>
        <time>2014-07-15T10:25:47Z</time>
      </trkpt>
      <trkpt lat="47.83608" lon="6.9367">
        <ele>748</ele>
        <time>2014-07-15T10:25:48Z</time>
      </trkpt>
      <trkpt lat="47.83608" lon="6.93668">
        <ele>748</ele>
        <time>2014-07-15T10:25:49Z</time>
      </trkpt>
      <trkpt lat="47.83608" lon="6.93666">
        <ele>756</ele>
        <time>2014-07-15T10:25:50Z</time>
      </trkpt>
      <trkpt lat="47.83608" lon="6.93664">
        <ele>756</ele>
        <time>2014-07-15T10:25:51Z</time>
      </trkpt>
      <trkpt lat="47.83608" lon="6.93662">
        <ele>756</ele>
        <time>2014-07-15T10:25:52Z</time>
      </trkpt>
      <trkpt lat="47.83608" lon="6.9366">
        <ele>756</ele>
        <time>2014-07-15T10:25:53Z</time>
      </trkpt>
      <trkpt lat="47.83607" lon="6.93659">
        <ele>756</ele>
        <time>2014-07-15T10:25:54Z</time>
      </trkpt>
      <trkpt lat="47.83607" lon="6.93657">
        <ele>756</ele>
        <time>2014-07-15T10:25:55Z</time>
      </trkpt>
      <trkpt lat="47.83607" lon="6.93655">
        <ele>756</ele>
        <time>2014-07-15T10:25:56Z</time>
      </trkpt>
      <trkpt lat="47.83607" lon="6.93654">
        <ele>756</ele>
        <time>2014-07-15T10:25:57Z</time>
      </trkpt>
      <trkpt lat="47.83607" lon="6.93652">
        <ele>756</ele>
        <time>2014-07-15T10:25:58Z</time>
      </trkpt>
      <trkpt lat="47.83606" lon="6.93651">
        <ele>756</ele>
        <time>2014-07-15T10:25:59Z</time>
      </trkpt>
      <trkpt lat="47.83606" lon="6.93649">
        <ele>756</ele>
        <time>2014-07-15T10:26:00Z</time>
      </trkpt>
      <trkpt lat="47.83606" lon="6.93647">
        <ele>756</ele>
        <time>2014-07-15T10:26:01Z</time>
      </trkpt>
      <trkpt lat="47.83607" lon="6.93642">
        <ele>756</ele>
        <time>2014-07-15T10:26:04Z</time>
      </trkpt>
      <trkpt lat="47.83607" lon="6.93641">
        <ele>756</ele>
        <time>2014-07-15T10:26:05Z</time>
      </trkpt>
      <trkpt lat="47.83607" lon="6.93637">
        <ele>757</ele>
        <time>2014-07-15T10:26:07Z</time>
      </trkpt>
      <trkpt lat="47.83607" lon="6.93636">
        <ele>757</ele>
        <time>2014-07-15T10:26:08Z</time>
      </trkpt>
      <trkpt lat="47.83607" lon="6.93634">
        <ele>757</ele>
        <time>2014-07-15T10:26:09Z</time>
      </trkpt>
      <trkpt lat="47.83607" lon="6.93633">
        <ele>757</ele>
        <time>2014-07-15T10:26:10Z</time>
      </trkpt>
      <trkpt lat="47.83608" lon="6.93632">
        <ele>757</ele>
        <time>2014-07-15T10:26:11Z</time>
      </trkpt>
      <trkpt lat="47.83609" lon="6.93631">
        <ele>757</ele>
        <time>2014-07-15T10:26:12Z</time>
      </trkpt>
      <trkpt lat="47.8361" lon="6.93629">
        <ele>757</ele>
        <time>2014-07-15T10:26:13Z</time>
      </trkpt>
      <trkpt lat="47.83611" lon="6.93628">
        <ele>757</ele>
        <time>2014-07-15T10:26:14Z</time>
      </trkpt>
      <trkpt lat="47.83612" lon="6.93626">
        <ele>757</ele>
        <time>2014-07-15T10:26:15Z</time>
      </trkpt>
      <trkpt lat="47.83613" lon="6.93624">
        <ele>757</ele>
        <time>2014-07-15T10:26:16Z</time>
      </trkpt>
      <trkpt lat="47.83614" lon="6.93621">
        <ele>757</ele>
        <time>2014-07-15T10:26:17Z</time>
      </trkpt>
      <trkpt lat="47.83615" lon="6.93618">
        <ele>757</ele>
        <time>2014-07-15T10:26:18Z</time>
      </trkpt>
      <trkpt lat="47.83616" lon="6.93616">
        <ele>757</ele>
        <time>2014-07-15T10:26:19Z</time>
      </trkpt>
      <trkpt lat="47.83617" lon="6.93615">
        <ele>757</ele>
        <time>2014-07-15T10:26:20Z</time>
      </trkpt>
      <trkpt lat="47.83618" lon="6.93614">
        <ele>757</ele>
        <time>2014-07-15T10:26:21Z</time>
      </trkpt>
      <trkpt lat="47.83618" lon="6.93613">
        <ele>757</ele>
        <time>2014-07-15T10:26:22Z</time>
      </trkpt>
      <trkpt lat="47.83618" lon="6.93612">
        <ele>757</ele>
        <time>2014-07-15T10:26:23Z</time>
      </trkpt>
      <trkpt lat="47.83619" lon="6.93611">
        <ele>757</ele>
        <time>2014-07-15T10:26:24Z</time>
      </trkpt>
      <trkpt lat="47.8362" lon="6.93611">
        <ele>757</ele>
        <time>2014-07-15T10:26:25Z</time>
      </trkpt>
      <trkpt lat="47.83621" lon="6.9361">
        <ele>757</ele>
        <time>2014-07-15T10:26:26Z</time>
      </trkpt>
      <trkpt lat="47.83621" lon="6.93609">
        <ele>757</ele>
        <time>2014-07-15T10:26:27Z</time>
      </trkpt>
      <trkpt lat="47.83622" lon="6.93607">
        <ele>757</ele>
        <time>2014-07-15T10:26:28Z</time>
      </trkpt>
      <trkpt lat="47.83622" lon="6.93606">
        <ele>757</ele>
        <time>2014-07-15T10:26:29Z</time>
      </trkpt>
      <trkpt lat="47.83622" lon="6.93605">
        <ele>757</ele>
        <time>2014-07-15T10:26:30Z</time>
      </trkpt>
      <trkpt lat="47.83622" lon="6.93604">
        <ele>757</ele>
        <time>2014-07-15T10:26:31Z</time>
      </trkpt>
      <trkpt lat="47.83622" lon="6.93603">
        <ele>757</ele>
        <time>2014-07-15T10:26:32Z</time>
      </trkpt>
      <trkpt lat="47.83622" lon="6.93602">
        <ele>757</ele>
        <time>2014-07-15T10:26:33Z</time>
      </trkpt>
      <trkpt lat="47.83622" lon="6.93602">
        <ele>757</ele>
        <time>2014-07-15T10:26:34Z</time>
      </trkpt>
      <trkpt lat="47.83622" lon="6.93601">
        <ele>757</ele>
        <time>2014-07-15T10:26:35Z</time>
      </trkpt>
      <trkpt lat="47.83621" lon="6.93599">
        <ele>758</ele>
        <time>2014-07-15T10:26:37Z</time>
      </trkpt>
      <trkpt lat="47.8362" lon="6.93598">
        <ele>758</ele>
        <time>2014-07-15T10:26:38Z</time>
      </trkpt>
      <trkpt lat="47.8362" lon="6.93597">
        <ele>758</ele>
        <time>2014-07-15T10:26:39Z</time>
      </trkpt>
      <trkpt lat="47.8362" lon="6.93596">
        <ele>758</ele>
        <time>2014-07-15T10:26:40Z</time>
      </trkpt>
      <trkpt lat="47.8362" lon="6.93595">
        <ele>758</ele>
        <time>2014-07-15T10:26:41Z</time>
      </trkpt>
      <trkpt lat="47.8362" lon="6.93594">
        <ele>758</ele>
        <time>2014-07-15T10:26:42Z</time>
      </trkpt>
      <trkpt lat="47.83619" lon="6.93593">
        <ele>758</ele>
        <time>2014-07-15T10:26:43Z</time>
      </trkpt>
      <trkpt lat="47.83618" lon="6.93593">
        <ele>758</ele>
        <time>2014-07-15T10:26:45Z</time>
      </trkpt>
      <trkpt lat="47.83618" lon="6.93594">
        <ele>759</ele>
        <time>2014-07-15T10:26:47Z</time>
      </trkpt>
      <trkpt lat="47.83617" lon="6.93593">
        <ele>759</ele>
        <time>2014-07-15T10:26:49Z</time>
      </trkpt>
      <trkpt lat="47.83617" lon="6.93594">
        <ele>759</ele>
        <time>2014-07-15T10:26:54Z</time>
      </trkpt>
      <trkpt lat="47.83617" lon="6.93594">
        <ele>759</ele>
        <time>2014-07-15T10:26:55Z</time>
      </trkpt>
      <trkpt lat="47.83617" lon="6.93594">
        <ele>759</ele>
        <time>2014-07-15T10:26:56Z</time>
      </trkpt>
      <trkpt lat="47.83617" lon="6.93594">
        <ele>759</ele>
        <time>2014-07-15T10:26:57Z</time>
      </trkpt>
      <trkpt lat="47.83617" lon="6.93594">
        <ele>759</ele>
        <time>2014-07-15T10:26:58Z</time>
      </trkpt>
      <trkpt lat="47.83617" lon="6.93594">
        <ele>759</ele>
        <time>2014-07-15T10:26:59Z</time>
      </trkpt>
      <trkpt lat="47.83617" lon="6.93594">
        <ele>759</ele>
        <time>2014-07-15T10:27:00Z</time>
      </trkpt>
      <trkpt lat="47.83617" lon="6.93594">
        <ele>759</ele>
        <time>2014-07-15T10:27:01Z</time>
      </trkpt>
      <trkpt lat="47.83617" lon="6.93594">
        <ele>759</ele>
        <time>2014-07-15T10:27:03Z</time>
      </trkpt>
      <trkpt lat="47.83617" lon="6.93594">
        <ele>759</ele>
        <time>2014-07-15T10:27:04Z</time>
      </trkpt>
      <trkpt lat="47.83617" lon="6.93594">
        <ele>759</ele>
        <time>2014-07-15T10:27:05Z</time>
      </trkpt>
      <trkpt lat="47.83616" lon="6.93594">
        <ele>759</ele>
        <time>2014-07-15T10:27:06Z</time>
      </trkpt>
      <trkpt lat="47.83616" lon="6.93594">
        <ele>759</ele>
        <time>2014-07-15T10:27:07Z</time>
      </trkpt>
      <trkpt lat="47.83616" lon="6.93594">
        <ele>759</ele>
        <time>2014-07-15T10:27:08Z</time>
      </trkpt>
      <trkpt lat="47.83616" lon="6.93594">
        <ele>759</ele>
        <time>2014-07-15T10:27:09Z</time>
      </trkpt>
      <trkpt lat="47.83616" lon="6.93594">
        <ele>759</ele>
        <time>2014-07-15T10:27:10Z</time>
      </trkpt>
      <trkpt lat="47.83616" lon="6.93594">
        <ele>759</ele>
        <time>2014-07-15T10:27:11Z</time>
      </trkpt>
      <trkpt lat="47.83616" lon="6.93594">
        <ele>759</ele>
        <time>2014-07-15T10:27:12Z</time>
      </trkpt>
      <trkpt lat="47.83616" lon="6.93594">
        <ele>759</ele>
        <time>2014-07-15T10:27:13Z</time>
      </trkpt>
      <trkpt lat="47.83616" lon="6.93594">
        <ele>759</ele>
        <time>2014-07-15T10:27:14Z</time>
      </trkpt>
      <trkpt lat="47.83616" lon="6.93594">
        <ele>759</ele>
        <time>2014-07-15T10:27:15Z</time>
      </trkpt>
      <trkpt lat="47.83616" lon="6.93594">
        <ele>759</ele>
        <time>2014-07-15T10:27:16Z</time>
      </trkpt>
      <trkpt lat="47.83616" lon="6.93594">
        <ele>759</ele>
        <time>2014-07-15T10:27:17Z</time>
      </trkpt>
      <trkpt lat="47.83616" lon="6.93594">
        <ele>759</ele>
        <time>2014-07-15T10:27:18Z</time>
      </trkpt>
      <trkpt lat="47.83616" lon="6.93594">
        <ele>759</ele>
        <time>2014-07-15T10:27:19Z</time>
      </trkpt>
      <trkpt lat="47.83616" lon="6.93594">
        <ele>759</ele>
        <time>2014-07-15T10:27:20Z</time>
      </trkpt>
      <trkpt lat="47.83616" lon="6.93594">
        <ele>759</ele>
        <time>2014-07-15T10:27:22Z</time>
      </trkpt>
      <trkpt lat="47.83616" lon="6.93594">
        <ele>759</ele>
        <time>2014-07-15T10:27:23Z</time>
      </trkpt>
      <trkpt lat="47.83616" lon="6.93594">
        <ele>759</ele>
        <time>2014-07-15T10:27:24Z</time>
      </trkpt>
      <trkpt lat="47.83616" lon="6.93594">
        <ele>759</ele>
        <time>2014-07-15T10:27:25Z</time>
      </trkpt>
      <trkpt lat="47.83616" lon="6.93594">
        <ele>759</ele>
        <time>2014-07-15T10:27:26Z</time>
      </trkpt>
      <trkpt lat="47.83616" lon="6.93594">
        <ele>759</ele>
        <time>2014-07-15T10:27:27Z</time>
      </trkpt>
      <trkpt lat="47.83616" lon="6.93594">
        <ele>759</ele>
        <time>2014-07-15T10:27:28Z</time>
      </trkpt>
      <trkpt lat="47.83616" lon="6.93594">
        <ele>759</ele>
        <time>2014-07-15T10:27:29Z</time>
      </trkpt>
      <trkpt lat="47.83616" lon="6.93594">
        <ele>759</ele>
        <time>2014-07-15T10:27:30Z</time>
      </trkpt>
      <trkpt lat="47.83616" lon="6.93594">
        <ele>759</ele>
        <time>2014-07-15T10:27:31Z</time>
      </trkpt>
      <trkpt lat="47.83616" lon="6.93594">
        <ele>759</ele>
        <time>2014-07-15T10:27:32Z</time>
      </trkpt>
      <trkpt lat="47.83616" lon="6.93594">
        <ele>759</ele>
        <time>2014-07-15T10:27:33Z</time>
      </trkpt>
      <trkpt lat="47.83616" lon="6.93594">
        <ele>759</ele>
        <time>2014-07-15T10:27:34Z</time>
      </trkpt>
      <trkpt lat="47.83616" lon="6.93594">
        <ele>759</ele>
        <time>2014-07-15T10:27:35Z</time>
      </trkpt>
      <trkpt lat="47.83616" lon="6.93594">
        <ele>759</ele>
        <time>2014-07-15T10:27:36Z</time>
      </trkpt>
      <trkpt lat="47.83616" lon="6.93594">
        <ele>759</ele>
        <time>2014-07-15T10:27:37Z</time>
      </trkpt>
      <trkpt lat="47.83616" lon="6.93594">
        <ele>759</ele>
        <time>2014-07-15T10:27:38Z</time>
      </trkpt>
      <trkpt lat="47.83616" lon="6.93594">
        <ele>759</ele>
        <time>2014-07-15T10:27:39Z</time>
      </trkpt>
      <trkpt lat="47.83616" lon="6.93594">
        <ele>759</ele>
        <time>2014-07-15T10:27:40Z</time>
      </trkpt>
      <trkpt lat="47.83616" lon="6.93594">
        <ele>759</ele>
        <time>2014-07-15T10:27:41Z</time>
      </trkpt>
      <trkpt lat="47.83616" lon="6.93594">
        <ele>759</ele>
        <time>2014-07-15T10:27:42Z</time>
      </trkpt>
      <trkpt lat="47.83616" lon="6.93594">
        <ele>759</ele>
        <time>2014-07-15T10:27:43Z</time>
      </trkpt>
      <trkpt lat="47.83616" lon="6.93594">
        <ele>759</ele>
        <time>2014-07-15T10:27:44Z</time>
      </trkpt>
      <trkpt lat="47.83616" lon="6.93594">
        <ele>759</ele>
        <time>2014-07-15T10:27:45Z</time>
      </trkpt>
      <trkpt lat="47.83616" lon="6.93594">
        <ele>759</ele>
        <time>2014-07-15T10:27:46Z</time>
      </trkpt>
      <trkpt lat="47.83616" lon="6.93594">
        <ele>759</ele>
        <time>2014-07-15T10:27:47Z</time>
      </trkpt>
      <trkpt lat="47.83616" lon="6.93594">
        <ele>759</ele>
        <time>2014-07-15T10:27:48Z</time>
      </trkpt>
      <trkpt lat="47.83616" lon="6.93594">
        <ele>759</ele>
        <time>2014-07-15T10:27:49Z</time>
      </trkpt>
      <trkpt lat="47.83616" lon="6.93594">
        <ele>759</ele>
        <time>2014-07-15T10:27:50Z</time>
      </trkpt>
      <trkpt lat="47.83616" lon="6.93594">
        <ele>759</ele>
        <time>2014-07-15T10:27:51Z</time>
      </trkpt>
      <trkpt lat="47.83616" lon="6.93594">
        <ele>759</ele>
        <time>2014-07-15T10:27:52Z</time>
      </trkpt>
      <trkpt lat="47.83616" lon="6.93594">
        <ele>759</ele>
        <time>2014-07-15T10:27:53Z</time>
      </trkpt>
      <trkpt lat="47.83616" lon="6.93594">
        <ele>759</ele>
        <time>2014-07-15T10:27:54Z</time>
      </trkpt>
      <trkpt lat="47.83616" lon="6.93594">
        <ele>759</ele>
        <time>2014-07-15T10:27:55Z</time>
      </trkpt>
      <trkpt lat="47.83616" lon="6.93594">
        <ele>759</ele>
        <time>2014-07-15T10:27:56Z</time>
      </trkpt>
      <trkpt lat="47.83616" lon="6.93593">
        <ele>759</ele>
        <time>2014-07-15T10:27:57Z</time>
      </trkpt>
      <trkpt lat="47.83616" lon="6.93593">
        <ele>759</ele>
        <time>2014-07-15T10:27:58Z</time>
      </trkpt>
      <trkpt lat="47.83616" lon="6.93592">
        <ele>759</ele>
        <time>2014-07-15T10:27:59Z</time>
      </trkpt>
      <trkpt lat="47.83617" lon="6.93591">
        <ele>759</ele>
        <time>2014-07-15T10:28:00Z</time>
      </trkpt>
      <trkpt lat="47.83617" lon="6.9359">
        <ele>759</ele>
        <time>2014-07-15T10:28:01Z</time>
      </trkpt>
      <trkpt lat="47.83618" lon="6.93588">
        <ele>759</ele>
        <time>2014-07-15T10:28:02Z</time>
      </trkpt>
      <trkpt lat="47.83621" lon="6.93585">
        <ele>758</ele>
        <time>2014-07-15T10:28:04Z</time>
      </trkpt>
      <trkpt lat="47.83621" lon="6.93583">
        <ele>765</ele>
        <time>2014-07-15T10:28:05Z</time>
      </trkpt>
      <trkpt lat="47.83622" lon="6.93582">
        <ele>764</ele>
        <time>2014-07-15T10:28:06Z</time>
      </trkpt>
      <trkpt lat="47.83622" lon="6.93582">
        <ele>764</ele>
        <time>2014-07-15T10:28:07Z</time>
      </trkpt>
      <trkpt lat="47.83624" lon="6.93579">
        <ele>764</ele>
        <time>2014-07-15T10:28:09Z</time>
      </trkpt>
      <trkpt lat="47.83626" lon="6.93577">
        <ele>764</ele>
        <time>2014-07-15T10:28:10Z</time>
      </trkpt>
      <trkpt lat="47.83628" lon="6.93575">
        <ele>763</ele>
        <time>2014-07-15T10:28:11Z</time>
      </trkpt>
      <trkpt lat="47.8363" lon="6.93573">
        <ele>763</ele>
        <time>2014-07-15T10:28:12Z</time>
      </trkpt>
      <trkpt lat="47.83633" lon="6.93571">
        <ele>763</ele>
        <time>2014-07-15T10:28:13Z</time>
      </trkpt>
      <trkpt lat="47.83634" lon="6.93569">
        <ele>762</ele>
        <time>2014-07-15T10:28:14Z</time>
      </trkpt>
      <trkpt lat="47.83634" lon="6.93566">
        <ele>763</ele>
        <time>2014-07-15T10:28:15Z</time>
      </trkpt>
      <trkpt lat="47.83635" lon="6.93563">
        <ele>763</ele>
        <time>2014-07-15T10:28:16Z</time>
      </trkpt>
      <trkpt lat="47.83634" lon="6.93559">
        <ele>763</ele>
        <time>2014-07-15T10:28:17Z</time>
      </trkpt>
      <trkpt lat="47.83634" lon="6.93556">
        <ele>763</ele>
        <time>2014-07-15T10:28:18Z</time>
      </trkpt>
      <trkpt lat="47.83634" lon="6.93553">
        <ele>764</ele>
        <time>2014-07-15T10:28:19Z</time>
      </trkpt>
      <trkpt lat="47.83633" lon="6.93547">
        <ele>764</ele>
        <time>2014-07-15T10:28:21Z</time>
      </trkpt>
      <trkpt lat="47.83632" lon="6.93544">
        <ele>764</ele>
        <time>2014-07-15T10:28:22Z</time>
      </trkpt>
      <trkpt lat="47.83632" lon="6.93541">
        <ele>765</ele>
        <time>2014-07-15T10:28:23Z</time>
      </trkpt>
      <trkpt lat="47.83632" lon="6.93538">
        <ele>765</ele>
        <time>2014-07-15T10:28:24Z</time>
      </trkpt>
      <trkpt lat="47.83634" lon="6.93537">
        <ele>764</ele>
        <time>2014-07-15T10:28:25Z</time>
      </trkpt>
      <trkpt lat="47.83634" lon="6.93535">
        <ele>764</ele>
        <time>2014-07-15T10:28:26Z</time>
      </trkpt>
      <trkpt lat="47.83635" lon="6.93533">
        <ele>764</ele>
        <time>2014-07-15T10:28:27Z</time>
      </trkpt>
      <trkpt lat="47.83635" lon="6.93531">
        <ele>764</ele>
        <time>2014-07-15T10:28:28Z</time>
      </trkpt>
      <trkpt lat="47.83635" lon="6.93528">
        <ele>765</ele>
        <time>2014-07-15T10:28:29Z</time>
      </trkpt>
      <trkpt lat="47.83635" lon="6.93526">
        <ele>765</ele>
        <time>2014-07-15T10:28:30Z</time>
      </trkpt>
      <trkpt lat="47.83634" lon="6.93523">
        <ele>765</ele>
        <time>2014-07-15T10:28:31Z</time>
      </trkpt>
      <trkpt lat="47.83634" lon="6.9352">
        <ele>765</ele>
        <time>2014-07-15T10:28:32Z</time>
      </trkpt>
      <trkpt lat="47.83634" lon="6.93518">
        <ele>765</ele>
        <time>2014-07-15T10:28:33Z</time>
      </trkpt>
      <trkpt lat="47.83634" lon="6.93516">
        <ele>765</ele>
        <time>2014-07-15T10:28:34Z</time>
      </trkpt>
      <trkpt lat="47.83635" lon="6.93514">
        <ele>765</ele>
        <time>2014-07-15T10:28:35Z</time>
      </trkpt>
      <trkpt lat="47.83635" lon="6.93512">
        <ele>765</ele>
        <time>2014-07-15T10:28:36Z</time>
      </trkpt>
      <trkpt lat="47.83636" lon="6.9351">
        <ele>765</ele>
        <time>2014-07-15T10:28:37Z</time>
      </trkpt>
      <trkpt lat="47.83636" lon="6.93508">
        <ele>764</ele>
        <time>2014-07-15T10:28:38Z</time>
      </trkpt>
      <trkpt lat="47.83637" lon="6.93506">
        <ele>764</ele>
        <time>2014-07-15T10:28:39Z</time>
      </trkpt>
      <trkpt lat="47.83638" lon="6.93505">
        <ele>764</ele>
        <time>2014-07-15T10:28:40Z</time>
      </trkpt>
      <trkpt lat="47.83638" lon="6.93504">
        <ele>764</ele>
        <time>2014-07-15T10:28:41Z</time>
      </trkpt>
      <trkpt lat="47.83638" lon="6.93503">
        <ele>764</ele>
        <time>2014-07-15T10:28:42Z</time>
      </trkpt>
      <trkpt lat="47.83637" lon="6.93502">
        <ele>764</ele>
        <time>2014-07-15T10:28:43Z</time>
      </trkpt>
      <trkpt lat="47.83637" lon="6.935">
        <ele>764</ele>
        <time>2014-07-15T10:28:44Z</time>
      </trkpt>
      <trkpt lat="47.83638" lon="6.93499">
        <ele>769</ele>
        <time>2014-07-15T10:28:45Z</time>
      </trkpt>
      <trkpt lat="47.83638" lon="6.93498">
        <ele>769</ele>
        <time>2014-07-15T10:28:46Z</time>
      </trkpt>
      <trkpt lat="47.83638" lon="6.93497">
        <ele>769</ele>
        <time>2014-07-15T10:28:47Z</time>
      </trkpt>
      <trkpt lat="47.83638" lon="6.93495">
        <ele>769</ele>
        <time>2014-07-15T10:28:48Z</time>
      </trkpt>
      <trkpt lat="47.83638" lon="6.93493">
        <ele>769</ele>
        <time>2014-07-15T10:28:49Z</time>
      </trkpt>
      <trkpt lat="47.83638" lon="6.93491">
        <ele>769</ele>
        <time>2014-07-15T10:28:50Z</time>
      </trkpt>
      <trkpt lat="47.83637" lon="6.93489">
        <ele>769</ele>
        <time>2014-07-15T10:28:51Z</time>
      </trkpt>
      <trkpt lat="47.83639" lon="6.93485">
        <ele>769</ele>
        <time>2014-07-15T10:28:53Z</time>
      </trkpt>
      <trkpt lat="47.83641" lon="6.93481">
        <ele>769</ele>
        <time>2014-07-15T10:28:55Z</time>
      </trkpt>
      <trkpt lat="47.83642" lon="6.93479">
        <ele>769</ele>
        <time>2014-07-15T10:28:56Z</time>
      </trkpt>
      <trkpt lat="47.83642" lon="6.93477">
        <ele>769</ele>
        <time>2014-07-15T10:28:57Z</time>
      </trkpt>
      <trkpt lat="47.83642" lon="6.93474">
        <ele>770</ele>
        <time>2014-07-15T10:28:58Z</time>
      </trkpt>
      <trkpt lat="47.83643" lon="6.93472">
        <ele>770</ele>
        <time>2014-07-15T10:28:59Z</time>
      </trkpt>
      <trkpt lat="47.83643" lon="6.9347">
        <ele>770</ele>
        <time>2014-07-15T10:29:00Z</time>
      </trkpt>
      <trkpt lat="47.83644" lon="6.93468">
        <ele>770</ele>
        <time>2014-07-15T10:29:01Z</time>
      </trkpt>
      <trkpt lat="47.83644" lon="6.93466">
        <ele>770</ele>
        <time>2014-07-15T10:29:02Z</time>
      </trkpt>
      <trkpt lat="47.83644" lon="6.93465">
        <ele>770</ele>
        <time>2014-07-15T10:29:03Z</time>
      </trkpt>
      <trkpt lat="47.83645" lon="6.93463">
        <ele>770</ele>
        <time>2014-07-15T10:29:04Z</time>
      </trkpt>
      <trkpt lat="47.83645" lon="6.93459">
        <ele>770</ele>
        <time>2014-07-15T10:29:06Z</time>
      </trkpt>
      <trkpt lat="47.83645" lon="6.93456">
        <ele>770</ele>
        <time>2014-07-15T10:29:07Z</time>
      </trkpt>
      <trkpt lat="47.83646" lon="6.93455">
        <ele>770</ele>
        <time>2014-07-15T10:29:08Z</time>
      </trkpt>
      <trkpt lat="47.83646" lon="6.93453">
        <ele>770</ele>
        <time>2014-07-15T10:29:09Z</time>
      </trkpt>
      <trkpt lat="47.83647" lon="6.93451">
        <ele>770</ele>
        <time>2014-07-15T10:29:10Z</time>
      </trkpt>
      <trkpt lat="47.83647" lon="6.9345">
        <ele>770</ele>
        <time>2014-07-15T10:29:11Z</time>
      </trkpt>
      <trkpt lat="47.83648" lon="6.93449">
        <ele>770</ele>
        <time>2014-07-15T10:29:12Z</time>
      </trkpt>
      <trkpt lat="47.83648" lon="6.93447">
        <ele>770</ele>
        <time>2014-07-15T10:29:13Z</time>
      </trkpt>
      <trkpt lat="47.83647" lon="6.93445">
        <ele>770</ele>
        <time>2014-07-15T10:29:14Z</time>
      </trkpt>
      <trkpt lat="47.83647" lon="6.93443">
        <ele>770</ele>
        <time>2014-07-15T10:29:15Z</time>
      </trkpt>
      <trkpt lat="47.83647" lon="6.93441">
        <ele>770</ele>
        <time>2014-07-15T10:29:16Z</time>
      </trkpt>
      <trkpt lat="47.83648" lon="6.9344">
        <ele>770</ele>
        <time>2014-07-15T10:29:17Z</time>
      </trkpt>
      <trkpt lat="47.83649" lon="6.93438">
        <ele>770</ele>
        <time>2014-07-15T10:29:18Z</time>
      </trkpt>
      <trkpt lat="47.83649" lon="6.93435">
        <ele>770</ele>
        <time>2014-07-15T10:29:19Z</time>
      </trkpt>
      <trkpt lat="47.8365" lon="6.93433">
        <ele>769</ele>
        <time>2014-07-15T10:29:20Z</time>
      </trkpt>
      <trkpt lat="47.83651" lon="6.93432">
        <ele>769</ele>
        <time>2014-07-15T10:29:21Z</time>
      </trkpt>
      <trkpt lat="47.83652" lon="6.9343">
        <ele>768</ele>
        <time>2014-07-15T10:29:22Z</time>
      </trkpt>
      <trkpt lat="47.83653" lon="6.93428">
        <ele>768</ele>
        <time>2014-07-15T10:29:23Z</time>
      </trkpt>
      <trkpt lat="47.83654" lon="6.93426">
        <ele>768</ele>
        <time>2014-07-15T10:29:24Z</time>
      </trkpt>
      <trkpt lat="47.83656" lon="6.93424">
        <ele>767</ele>
        <time>2014-07-15T10:29:25Z</time>
      </trkpt>
      <trkpt lat="47.83657" lon="6.93422">
        <ele>766</ele>
        <time>2014-07-15T10:29:26Z</time>
      </trkpt>
      <trkpt lat="47.83658" lon="6.9342">
        <ele>766</ele>
        <time>2014-07-15T10:29:27Z</time>
      </trkpt>
      <trkpt lat="47.83659" lon="6.93418">
        <ele>765</ele>
        <time>2014-07-15T10:29:28Z</time>
      </trkpt>
      <trkpt lat="47.8366" lon="6.93415">
        <ele>767</ele>
        <time>2014-07-15T10:29:29Z</time>
      </trkpt>
      <trkpt lat="47.8366" lon="6.93413">
        <ele>767</ele>
        <time>2014-07-15T10:29:30Z</time>
      </trkpt>
      <trkpt lat="47.83661" lon="6.93412">
        <ele>767</ele>
        <time>2014-07-15T10:29:31Z</time>
      </trkpt>
      <trkpt lat="47.83662" lon="6.9341">
        <ele>767</ele>
        <time>2014-07-15T10:29:32Z</time>
      </trkpt>
      <trkpt lat="47.83662" lon="6.93406">
        <ele>769</ele>
        <time>2014-07-15T10:29:34Z</time>
      </trkpt>
      <trkpt lat="47.83662" lon="6.93404">
        <ele>769</ele>
        <time>2014-07-15T10:29:35Z</time>
      </trkpt>
      <trkpt lat="47.83663" lon="6.93403">
        <ele>770</ele>
        <time>2014-07-15T10:29:36Z</time>
      </trkpt>
      <trkpt lat="47.83663" lon="6.93401">
        <ele>771</ele>
        <time>2014-07-15T10:29:37Z</time>
      </trkpt>
      <trkpt lat="47.83663" lon="6.934">
        <ele>771</ele>
        <time>2014-07-15T10:29:38Z</time>
      </trkpt>
      <trkpt lat="47.83664" lon="6.93398">
        <ele>771</ele>
        <time>2014-07-15T10:29:39Z</time>
      </trkpt>
      <trkpt lat="47.83664" lon="6.93397">
        <ele>772</ele>
        <time>2014-07-15T10:29:40Z</time>
      </trkpt>
      <trkpt lat="47.83664" lon="6.93396">
        <ele>772</ele>
        <time>2014-07-15T10:29:41Z</time>
      </trkpt>
      <trkpt lat="47.83664" lon="6.93394">
        <ele>772</ele>
        <time>2014-07-15T10:29:42Z</time>
      </trkpt>
      <trkpt lat="47.83663" lon="6.93393">
        <ele>773</ele>
        <time>2014-07-15T10:29:43Z</time>
      </trkpt>
      <trkpt lat="47.83663" lon="6.93392">
        <ele>773</ele>
        <time>2014-07-15T10:29:44Z</time>
      </trkpt>
      <trkpt lat="47.83662" lon="6.9339">
        <ele>773</ele>
        <time>2014-07-15T10:29:45Z</time>
      </trkpt>
      <trkpt lat="47.83661" lon="6.93389">
        <ele>774</ele>
        <time>2014-07-15T10:29:46Z</time>
      </trkpt>
      <trkpt lat="47.8366" lon="6.93387">
        <ele>774</ele>
        <time>2014-07-15T10:29:47Z</time>
      </trkpt>
      <trkpt lat="47.83659" lon="6.93385">
        <ele>774</ele>
        <time>2014-07-15T10:29:48Z</time>
      </trkpt>
      <trkpt lat="47.83658" lon="6.93384">
        <ele>775</ele>
        <time>2014-07-15T10:29:49Z</time>
      </trkpt>
      <trkpt lat="47.83657" lon="6.93382">
        <ele>775</ele>
        <time>2014-07-15T10:29:50Z</time>
      </trkpt>
      <trkpt lat="47.83655" lon="6.93381">
        <ele>776</ele>
        <time>2014-07-15T10:29:51Z</time>
      </trkpt>
      <trkpt lat="47.83654" lon="6.9338">
        <ele>776</ele>
        <time>2014-07-15T10:29:52Z</time>
      </trkpt>
      <trkpt lat="47.83653" lon="6.93378">
        <ele>776</ele>
        <time>2014-07-15T10:29:53Z</time>
      </trkpt>
      <trkpt lat="47.83653" lon="6.93377">
        <ele>776</ele>
        <time>2014-07-15T10:29:54Z</time>
      </trkpt>
      <trkpt lat="47.83653" lon="6.93375">
        <ele>776</ele>
        <time>2014-07-15T10:29:55Z</time>
      </trkpt>
      <trkpt lat="47.83653" lon="6.93374">
        <ele>776</ele>
        <time>2014-07-15T10:29:56Z</time>
      </trkpt>
      <trkpt lat="47.83653" lon="6.93373">
        <ele>776</ele>
        <time>2014-07-15T10:29:57Z</time>
      </trkpt>
      <trkpt lat="47.83653" lon="6.93372">
        <ele>776</ele>
        <time>2014-07-15T10:29:58Z</time>
      </trkpt>
      <trkpt lat="47.83653" lon="6.93371">
        <ele>776</ele>
        <time>2014-07-15T10:29:59Z</time>
      </trkpt>
      <trkpt lat="47.83653" lon="6.9337">
        <ele>776</ele>
        <time>2014-07-15T10:30:00Z</time>
      </trkpt>
      <trkpt lat="47.83652" lon="6.93368">
        <ele>777</ele>
        <time>2014-07-15T10:30:02Z</time>
      </trkpt>
      <trkpt lat="47.8365" lon="6.93367">
        <ele>777</ele>
        <time>2014-07-15T10:30:03Z</time>
      </trkpt>
      <trkpt lat="47.8365" lon="6.93366">
        <ele>777</ele>
        <time>2014-07-15T10:30:04Z</time>
      </trkpt>
      <trkpt lat="47.83649" lon="6.93365">
        <ele>777</ele>
        <time>2014-07-15T10:30:05Z</time>
      </trkpt>
      <trkpt lat="47.83648" lon="6.93364">
        <ele>777</ele>
        <time>2014-07-15T10:30:06Z</time>
      </trkpt>
      <trkpt lat="47.83648" lon="6.93363">
        <ele>777</ele>
        <time>2014-07-15T10:30:07Z</time>
      </trkpt>
      <trkpt lat="47.83648" lon="6.93361">
        <ele>777</ele>
        <time>2014-07-15T10:30:08Z</time>
      </trkpt>
      <trkpt lat="47.83648" lon="6.93359">
        <ele>777</ele>
        <time>2014-07-15T10:30:09Z</time>
      </trkpt>
      <trkpt lat="47.83648" lon="6.93357">
        <ele>777</ele>
        <time>2014-07-15T10:30:10Z</time>
      </trkpt>
      <trkpt lat="47.83648" lon="6.93356">
        <ele>777</ele>
        <time>2014-07-15T10:30:11Z</time>
      </trkpt>
      <trkpt lat="47.83647" lon="6.93353">
        <ele>777</ele>
        <time>2014-07-15T10:30:13Z</time>
      </trkpt>
      <trkpt lat="47.83647" lon="6.93351">
        <ele>777</ele>
        <time>2014-07-15T10:30:14Z</time>
      </trkpt>
      <trkpt lat="47.83647" lon="6.93349">
        <ele>777</ele>
        <time>2014-07-15T10:30:15Z</time>
      </trkpt>
      <trkpt lat="47.83647" lon="6.93347">
        <ele>776</ele>
        <time>2014-07-15T10:30:16Z</time>
      </trkpt>
      <trkpt lat="47.83647" lon="6.93346">
        <ele>776</ele>
        <time>2014-07-15T10:30:17Z</time>
      </trkpt>
      <trkpt lat="47.83648" lon="6.93344">
        <ele>776</ele>
        <time>2014-07-15T10:30:18Z</time>
      </trkpt>
      <trkpt lat="47.83649" lon="6.93342">
        <ele>776</ele>
        <time>2014-07-15T10:30:19Z</time>
      </trkpt>
      <trkpt lat="47.83649" lon="6.93337">
        <ele>775</ele>
        <time>2014-07-15T10:30:22Z</time>
      </trkpt>
      <trkpt lat="47.83647" lon="6.93335">
        <ele>776</ele>
        <time>2014-07-15T10:30:23Z</time>
      </trkpt>
      <trkpt lat="47.83646" lon="6.93333">
        <ele>779</ele>
        <time>2014-07-15T10:30:24Z</time>
      </trkpt>
      <trkpt lat="47.83645" lon="6.93331">
        <ele>780</ele>
        <time>2014-07-15T10:30:25Z</time>
      </trkpt>
      <trkpt lat="47.83644" lon="6.93328">
        <ele>780</ele>
        <time>2014-07-15T10:30:26Z</time>
      </trkpt>
      <trkpt lat="47.83643" lon="6.93326">
        <ele>781</ele>
        <time>2014-07-15T10:30:27Z</time>
      </trkpt>
      <trkpt lat="47.83642" lon="6.93324">
        <ele>781</ele>
        <time>2014-07-15T10:30:28Z</time>
      </trkpt>
      <trkpt lat="47.83641" lon="6.93323">
        <ele>781</ele>
        <time>2014-07-15T10:30:29Z</time>
      </trkpt>
      <trkpt lat="47.8364" lon="6.93321">
        <ele>782</ele>
        <time>2014-07-15T10:30:30Z</time>
      </trkpt>
      <trkpt lat="47.8364" lon="6.9332">
        <ele>782</ele>
        <time>2014-07-15T10:30:31Z</time>
      </trkpt>
      <trkpt lat="47.83639" lon="6.93318">
        <ele>783</ele>
        <time>2014-07-15T10:30:32Z</time>
      </trkpt>
      <trkpt lat="47.83638" lon="6.93316">
        <ele>783</ele>
        <time>2014-07-15T10:30:33Z</time>
      </trkpt>
      <trkpt lat="47.83638" lon="6.93315">
        <ele>783</ele>
        <time>2014-07-15T10:30:34Z</time>
      </trkpt>
      <trkpt lat="47.83637" lon="6.93313">
        <ele>783</ele>
        <time>2014-07-15T10:30:35Z</time>
      </trkpt>
      <trkpt lat="47.83638" lon="6.93311">
        <ele>784</ele>
        <time>2014-07-15T10:30:36Z</time>
      </trkpt>
      <trkpt lat="47.83637" lon="6.93309">
        <ele>784</ele>
        <time>2014-07-15T10:30:37Z</time>
      </trkpt>
      <trkpt lat="47.83637" lon="6.93307">
        <ele>784</ele>
        <time>2014-07-15T10:30:38Z</time>
      </trkpt>
      <trkpt lat="47.83637" lon="6.93305">
        <ele>784</ele>
        <time>2014-07-15T10:30:39Z</time>
      </trkpt>
      <trkpt lat="47.83637" lon="6.93303">
        <ele>784</ele>
        <time>2014-07-15T10:30:40Z</time>
      </trkpt>
      <trkpt lat="47.83637" lon="6.93301">
        <ele>784</ele>
        <time>2014-07-15T10:30:41Z</time>
      </trkpt>
      <trkpt lat="47.83637" lon="6.93299">
        <ele>785</ele>
        <time>2014-07-15T10:30:42Z</time>
      </trkpt>
      <trkpt lat="47.83636" lon="6.93297">
        <ele>785</ele>
        <time>2014-07-15T10:30:43Z</time>
      </trkpt>
      <trkpt lat="47.83636" lon="6.93295">
        <ele>785</ele>
        <time>2014-07-15T10:30:44Z</time>
      </trkpt>
      <trkpt lat="47.83637" lon="6.93293">
        <ele>785</ele>
        <time>2014-07-15T10:30:45Z</time>
      </trkpt>
      <trkpt lat="47.83638" lon="6.9329">
        <ele>785</ele>
        <time>2014-07-15T10:30:46Z</time>
      </trkpt>
      <trkpt lat="47.83638" lon="6.93288">
        <ele>785</ele>
        <time>2014-07-15T10:30:47Z</time>
      </trkpt>
      <trkpt lat="47.83638" lon="6.93286">
        <ele>785</ele>
        <time>2014-07-15T10:30:48Z</time>
      </trkpt>
      <trkpt lat="47.83638" lon="6.93284">
        <ele>785</ele>
        <time>2014-07-15T10:30:49Z</time>
      </trkpt>
      <trkpt lat="47.83638" lon="6.93283">
        <ele>785</ele>
        <time>2014-07-15T10:30:50Z</time>
      </trkpt>
      <trkpt lat="47.83637" lon="6.93282">
        <ele>785</ele>
        <time>2014-07-15T10:30:51Z</time>
      </trkpt>
      <trkpt lat="47.83637" lon="6.93281">
        <ele>785</ele>
        <time>2014-07-15T10:30:52Z</time>
      </trkpt>
      <trkpt lat="47.83637" lon="6.93279">
        <ele>785</ele>
        <time>2014-07-15T10:30:53Z</time>
      </trkpt>
      <trkpt lat="47.83639" lon="6.93278">
        <ele>785</ele>
        <time>2014-07-15T10:30:54Z</time>
      </trkpt>
      <trkpt lat="47.83639" lon="6.93276">
        <ele>785</ele>
        <time>2014-07-15T10:30:55Z</time>
      </trkpt>
      <trkpt lat="47.83639" lon="6.93275">
        <ele>785</ele>
        <time>2014-07-15T10:30:56Z</time>
      </trkpt>
      <trkpt lat="47.83639" lon="6.93273">
        <ele>785</ele>
        <time>2014-07-15T10:30:57Z</time>
      </trkpt>
      <trkpt lat="47.83639" lon="6.93272">
        <ele>785</ele>
        <time>2014-07-15T10:30:58Z</time>
      </trkpt>
      <trkpt lat="47.83639" lon="6.9327">
        <ele>785</ele>
        <time>2014-07-15T10:30:59Z</time>
      </trkpt>
      <trkpt lat="47.8364" lon="6.93269">
        <ele>785</ele>
        <time>2014-07-15T10:31:00Z</time>
      </trkpt>
      <trkpt lat="47.83641" lon="6.93267">
        <ele>784</ele>
        <time>2014-07-15T10:31:01Z</time>
      </trkpt>
      <trkpt lat="47.83642" lon="6.93265">
        <ele>784</ele>
        <time>2014-07-15T10:31:02Z</time>
      </trkpt>
      <trkpt lat="47.83642" lon="6.93263">
        <ele>784</ele>
        <time>2014-07-15T10:31:03Z</time>
      </trkpt>
      <trkpt lat="47.83642" lon="6.93261">
        <ele>784</ele>
        <time>2014-07-15T10:31:04Z</time>
      </trkpt>
      <trkpt lat="47.83642" lon="6.93259">
        <ele>784</ele>
        <time>2014-07-15T10:31:05Z</time>
      </trkpt>
      <trkpt lat="47.83641" lon="6.93257">
        <ele>784</ele>
        <time>2014-07-15T10:31:06Z</time>
      </trkpt>
      <trkpt lat="47.83641" lon="6.93255">
        <ele>784</ele>
        <time>2014-07-15T10:31:07Z</time>
      </trkpt>
      <trkpt lat="47.83641" lon="6.93253">
        <ele>784</ele>
        <time>2014-07-15T10:31:08Z</time>
      </trkpt>
      <trkpt lat="47.83641" lon="6.93252">
        <ele>784</ele>
        <time>2014-07-15T10:31:09Z</time>
      </trkpt>
      <trkpt lat="47.83642" lon="6.93251">
        <ele>784</ele>
        <time>2014-07-15T10:31:10Z</time>
      </trkpt>
      <trkpt lat="47.83643" lon="6.9325">
        <ele>784</ele>
        <time>2014-07-15T10:31:11Z</time>
      </trkpt>
      <trkpt lat="47.83643" lon="6.93249">
        <ele>787</ele>
        <time>2014-07-15T10:31:12Z</time>
      </trkpt>
      <trkpt lat="47.83644" lon="6.93247">
        <ele>787</ele>
        <time>2014-07-15T10:31:13Z</time>
      </trkpt>
      <trkpt lat="47.83644" lon="6.93246">
        <ele>787</ele>
        <time>2014-07-15T10:31:14Z</time>
      </trkpt>
      <trkpt lat="47.83645" lon="6.93245">
        <ele>787</ele>
        <time>2014-07-15T10:31:15Z</time>
      </trkpt>
      <trkpt lat="47.83642" lon="6.93239">
        <ele>788</ele>
        <time>2014-07-15T10:31:18Z</time>
      </trkpt>
      <trkpt lat="47.83642" lon="6.93237">
        <ele>788</ele>
        <time>2014-07-15T10:31:19Z</time>
      </trkpt>
      <trkpt lat="47.83641" lon="6.93235">
        <ele>788</ele>
        <time>2014-07-15T10:31:20Z</time>
      </trkpt>
      <trkpt lat="47.83641" lon="6.93234">
        <ele>788</ele>
        <time>2014-07-15T10:31:21Z</time>
      </trkpt>
      <trkpt lat="47.83642" lon="6.93232">
        <ele>788</ele>
        <time>2014-07-15T10:31:22Z</time>
      </trkpt>
      <trkpt lat="47.83644" lon="6.9323">
        <ele>788</ele>
        <time>2014-07-15T10:31:23Z</time>
      </trkpt>
      <trkpt lat="47.83645" lon="6.93229">
        <ele>788</ele>
        <time>2014-07-15T10:31:24Z</time>
      </trkpt>
      <trkpt lat="47.83646" lon="6.93227">
        <ele>788</ele>
        <time>2014-07-15T10:31:25Z</time>
      </trkpt>
      <trkpt lat="47.83647" lon="6.93225">
        <ele>788</ele>
        <time>2014-07-15T10:31:26Z</time>
      </trkpt>
      <trkpt lat="47.83648" lon="6.93224">
        <ele>788</ele>
        <time>2014-07-15T10:31:27Z</time>
      </trkpt>
      <trkpt lat="47.83649" lon="6.93222">
        <ele>788</ele>
        <time>2014-07-15T10:31:28Z</time>
      </trkpt>
      <trkpt lat="47.83649" lon="6.9322">
        <ele>789</ele>
        <time>2014-07-15T10:31:29Z</time>
      </trkpt>
      <trkpt lat="47.83649" lon="6.93218">
        <ele>789</ele>
        <time>2014-07-15T10:31:30Z</time>
      </trkpt>
      <trkpt lat="47.83649" lon="6.93217">
        <ele>789</ele>
        <time>2014-07-15T10:31:31Z</time>
      </trkpt>
      <trkpt lat="47.8365" lon="6.93215">
        <ele>789</ele>
        <time>2014-07-15T10:31:32Z</time>
      </trkpt>
      <trkpt lat="47.8365" lon="6.93214">
        <ele>789</ele>
        <time>2014-07-15T10:31:33Z</time>
      </trkpt>
      <trkpt lat="47.83651" lon="6.93212">
        <ele>789</ele>
        <time>2014-07-15T10:31:34Z</time>
      </trkpt>
      <trkpt lat="47.83652" lon="6.93211">
        <ele>789</ele>
        <time>2014-07-15T10:31:35Z</time>
      </trkpt>
      <trkpt lat="47.83653" lon="6.93209">
        <ele>789</ele>
        <time>2014-07-15T10:31:36Z</time>
      </trkpt>
      <trkpt lat="47.83653" lon="6.93207">
        <ele>789</ele>
        <time>2014-07-15T10:31:37Z</time>
      </trkpt>
      <trkpt lat="47.83654" lon="6.93206">
        <ele>789</ele>
        <time>2014-07-15T10:31:38Z</time>
      </trkpt>
      <trkpt lat="47.83656" lon="6.93205">
        <ele>789</ele>
        <time>2014-07-15T10:31:39Z</time>
      </trkpt>
      <trkpt lat="47.83657" lon="6.93203">
        <ele>789</ele>
        <time>2014-07-15T10:31:40Z</time>
      </trkpt>
      <trkpt lat="47.83658" lon="6.93202">
        <ele>789</ele>
        <time>2014-07-15T10:31:41Z</time>
      </trkpt>
      <trkpt lat="47.83659" lon="6.932">
        <ele>789</ele>
        <time>2014-07-15T10:31:42Z</time>
      </trkpt>
      <trkpt lat="47.83659" lon="6.93198">
        <ele>789</ele>
        <time>2014-07-15T10:31:43Z</time>
      </trkpt>
      <trkpt lat="47.83658" lon="6.9319">
        <ele>789</ele>
        <time>2014-07-15T10:31:47Z</time>
      </trkpt>
      <trkpt lat="47.83656" lon="6.93187">
        <ele>789</ele>
        <time>2014-07-15T10:31:49Z</time>
      </trkpt>
      <trkpt lat="47.83657" lon="6.93185">
        <ele>789</ele>
        <time>2014-07-15T10:31:50Z</time>
      </trkpt>
      <trkpt lat="47.83657" lon="6.93184">
        <ele>789</ele>
        <time>2014-07-15T10:31:51Z</time>
      </trkpt>
      <trkpt lat="47.83658" lon="6.93183">
        <ele>789</ele>
        <time>2014-07-15T10:31:52Z</time>
      </trkpt>
      <trkpt lat="47.83658" lon="6.93181">
        <ele>788</ele>
        <time>2014-07-15T10:31:53Z</time>
      </trkpt>
      <trkpt lat="47.83659" lon="6.93179">
        <ele>788</ele>
        <time>2014-07-15T10:31:54Z</time>
      </trkpt>
      <trkpt lat="47.83661" lon="6.93178">
        <ele>788</ele>
        <time>2014-07-15T10:31:56Z</time>
      </trkpt>
      <trkpt lat="47.83662" lon="6.93177">
        <ele>788</ele>
        <time>2014-07-15T10:31:57Z</time>
      </trkpt>
      <trkpt lat="47.83664" lon="6.93176">
        <ele>787</ele>
        <time>2014-07-15T10:31:59Z</time>
      </trkpt>
      <trkpt lat="47.83663" lon="6.93175">
        <ele>787</ele>
        <time>2014-07-15T10:32:00Z</time>
      </trkpt>
      <trkpt lat="47.83664" lon="6.93174">
        <ele>787</ele>
        <time>2014-07-15T10:32:01Z</time>
      </trkpt>
      <trkpt lat="47.83665" lon="6.93173">
        <ele>787</ele>
        <time>2014-07-15T10:32:02Z</time>
      </trkpt>
      <trkpt lat="47.83666" lon="6.93171">
        <ele>786</ele>
        <time>2014-07-15T10:32:03Z</time>
      </trkpt>
      <trkpt lat="47.83667" lon="6.93169">
        <ele>785</ele>
        <time>2014-07-15T10:32:04Z</time>
      </trkpt>
      <trkpt lat="47.83668" lon="6.93168">
        <ele>785</ele>
        <time>2014-07-15T10:32:05Z</time>
      </trkpt>
      <trkpt lat="47.83669" lon="6.93167">
        <ele>785</ele>
        <time>2014-07-15T10:32:06Z</time>
      </trkpt>
      <trkpt lat="47.8367" lon="6.93166">
        <ele>786</ele>
        <time>2014-07-15T10:32:07Z</time>
      </trkpt>
      <trkpt lat="47.83671" lon="6.93165">
        <ele>786</ele>
        <time>2014-07-15T10:32:08Z</time>
      </trkpt>
      <trkpt lat="47.83671" lon="6.93164">
        <ele>786</ele>
        <time>2014-07-15T10:32:09Z</time>
      </trkpt>
      <trkpt lat="47.8367" lon="6.93161">
        <ele>787</ele>
        <time>2014-07-15T10:32:11Z</time>
      </trkpt>
      <trkpt lat="47.8367" lon="6.9316">
        <ele>787</ele>
        <time>2014-07-15T10:32:12Z</time>
      </trkpt>
      <trkpt lat="47.8367" lon="6.93159">
        <ele>787</ele>
        <time>2014-07-15T10:32:13Z</time>
      </trkpt>
      <trkpt lat="47.83671" lon="6.93158">
        <ele>787</ele>
        <time>2014-07-15T10:32:14Z</time>
      </trkpt>
      <trkpt lat="47.83671" lon="6.93157">
        <ele>787</ele>
        <time>2014-07-15T10:32:15Z</time>
      </trkpt>
      <trkpt lat="47.83671" lon="6.93155">
        <ele>788</ele>
        <time>2014-07-15T10:32:16Z</time>
      </trkpt>
      <trkpt lat="47.83672" lon="6.93154">
        <ele>788</ele>
        <time>2014-07-15T10:32:17Z</time>
      </trkpt>
      <trkpt lat="47.83673" lon="6.93152">
        <ele>788</ele>
        <time>2014-07-15T10:32:18Z</time>
      </trkpt>
      <trkpt lat="47.83673" lon="6.93149">
        <ele>789</ele>
        <time>2014-07-15T10:32:20Z</time>
      </trkpt>
      <trkpt lat="47.83673" lon="6.93148">
        <ele>789</ele>
        <time>2014-07-15T10:32:21Z</time>
      </trkpt>
      <trkpt lat="47.83672" lon="6.93147">
        <ele>789</ele>
        <time>2014-07-15T10:32:22Z</time>
      </trkpt>
      <trkpt lat="47.83671" lon="6.93146">
        <ele>789</ele>
        <time>2014-07-15T10:32:23Z</time>
      </trkpt>
      <trkpt lat="47.83671" lon="6.93145">
        <ele>789</ele>
        <time>2014-07-15T10:32:24Z</time>
      </trkpt>
      <trkpt lat="47.83669" lon="6.93142">
        <ele>789</ele>
        <time>2014-07-15T10:32:26Z</time>
      </trkpt>
      <trkpt lat="47.83668" lon="6.93137">
        <ele>790</ele>
        <time>2014-07-15T10:32:29Z</time>
      </trkpt>
      <trkpt lat="47.83669" lon="6.93134">
        <ele>791</ele>
        <time>2014-07-15T10:32:31Z</time>
      </trkpt>
      <trkpt lat="47.8367" lon="6.93133">
        <ele>791</ele>
        <time>2014-07-15T10:32:32Z</time>
      </trkpt>
      <trkpt lat="47.83671" lon="6.93132">
        <ele>791</ele>
        <time>2014-07-15T10:32:33Z</time>
      </trkpt>
      <trkpt lat="47.83672" lon="6.93131">
        <ele>791</ele>
        <time>2014-07-15T10:32:34Z</time>
      </trkpt>
      <trkpt lat="47.83673" lon="6.9313">
        <ele>791</ele>
        <time>2014-07-15T10:32:35Z</time>
      </trkpt>
      <trkpt lat="47.83674" lon="6.93128">
        <ele>791</ele>
        <time>2014-07-15T10:32:36Z</time>
      </trkpt>
      <trkpt lat="47.83675" lon="6.93125">
        <ele>791</ele>
        <time>2014-07-15T10:32:38Z</time>
      </trkpt>
      <trkpt lat="47.83675" lon="6.93124">
        <ele>792</ele>
        <time>2014-07-15T10:32:39Z</time>
      </trkpt>
      <trkpt lat="47.83676" lon="6.93122">
        <ele>792</ele>
        <time>2014-07-15T10:32:40Z</time>
      </trkpt>
      <trkpt lat="47.83676" lon="6.93121">
        <ele>792</ele>
        <time>2014-07-15T10:32:41Z</time>
      </trkpt>
      <trkpt lat="47.83677" lon="6.9312">
        <ele>792</ele>
        <time>2014-07-15T10:32:42Z</time>
      </trkpt>
      <trkpt lat="47.83678" lon="6.93119">
        <ele>792</ele>
        <time>2014-07-15T10:32:43Z</time>
      </trkpt>
      <trkpt lat="47.83679" lon="6.93118">
        <ele>792</ele>
        <time>2014-07-15T10:32:44Z</time>
      </trkpt>
      <trkpt lat="47.83681" lon="6.93116">
        <ele>792</ele>
        <time>2014-07-15T10:32:46Z</time>
      </trkpt>
      <trkpt lat="47.83682" lon="6.93115">
        <ele>793</ele>
        <time>2014-07-15T10:32:47Z</time>
      </trkpt>
      <trkpt lat="47.83683" lon="6.93112">
        <ele>793</ele>
        <time>2014-07-15T10:32:49Z</time>
      </trkpt>
      <trkpt lat="47.83683" lon="6.9311">
        <ele>793</ele>
        <time>2014-07-15T10:32:50Z</time>
      </trkpt>
      <trkpt lat="47.83683" lon="6.93109">
        <ele>793</ele>
        <time>2014-07-15T10:32:51Z</time>
      </trkpt>
      <trkpt lat="47.83684" lon="6.93107">
        <ele>793</ele>
        <time>2014-07-15T10:32:52Z</time>
      </trkpt>
      <trkpt lat="47.83685" lon="6.93106">
        <ele>793</ele>
        <time>2014-07-15T10:32:53Z</time>
      </trkpt>
      <trkpt lat="47.83686" lon="6.93105">
        <ele>793</ele>
        <time>2014-07-15T10:32:54Z</time>
      </trkpt>
      <trkpt lat="47.83688" lon="6.93102">
        <ele>793</ele>
        <time>2014-07-15T10:32:56Z</time>
      </trkpt>
      <trkpt lat="47.83688" lon="6.931">
        <ele>794</ele>
        <time>2014-07-15T10:32:57Z</time>
      </trkpt>
      <trkpt lat="47.83688" lon="6.93098">
        <ele>794</ele>
        <time>2014-07-15T10:32:58Z</time>
      </trkpt>
      <trkpt lat="47.83687" lon="6.93096">
        <ele>794</ele>
        <time>2014-07-15T10:32:59Z</time>
      </trkpt>
      <trkpt lat="47.83687" lon="6.93094">
        <ele>794</ele>
        <time>2014-07-15T10:33:00Z</time>
      </trkpt>
      <trkpt lat="47.83686" lon="6.93093">
        <ele>794</ele>
        <time>2014-07-15T10:33:01Z</time>
      </trkpt>
      <trkpt lat="47.83686" lon="6.93092">
        <ele>794</ele>
        <time>2014-07-15T10:33:02Z</time>
      </trkpt>
      <trkpt lat="47.83687" lon="6.93091">
        <ele>794</ele>
        <time>2014-07-15T10:33:03Z</time>
      </trkpt>
      <trkpt lat="47.83687" lon="6.93089">
        <ele>794</ele>
        <time>2014-07-15T10:33:04Z</time>
      </trkpt>
      <trkpt lat="47.83688" lon="6.93088">
        <ele>794</ele>
        <time>2014-07-15T10:33:05Z</time>
      </trkpt>
      <trkpt lat="47.83689" lon="6.93086">
        <ele>794</ele>
        <time>2014-07-15T10:33:06Z</time>
      </trkpt>
      <trkpt lat="47.8369" lon="6.93085">
        <ele>794</ele>
        <time>2014-07-15T10:33:07Z</time>
      </trkpt>
      <trkpt lat="47.83687" lon="6.93082">
        <ele>800</ele>
        <time>2014-07-15T10:33:08Z</time>
      </trkpt>
      <trkpt lat="47.83686" lon="6.93081">
        <ele>800</ele>
        <time>2014-07-15T10:33:09Z</time>
      </trkpt>
      <trkpt lat="47.83686" lon="6.93079">
        <ele>800</ele>
        <time>2014-07-15T10:33:10Z</time>
      </trkpt>
      <trkpt lat="47.83685" lon="6.93078">
        <ele>800</ele>
        <time>2014-07-15T10:33:11Z</time>
      </trkpt>
      <trkpt lat="47.83685" lon="6.93078">
        <ele>800</ele>
        <time>2014-07-15T10:33:12Z</time>
      </trkpt>
      <trkpt lat="47.83685" lon="6.93077">
        <ele>800</ele>
        <time>2014-07-15T10:33:13Z</time>
      </trkpt>
      <trkpt lat="47.83686" lon="6.93076">
        <ele>801</ele>
        <time>2014-07-15T10:33:14Z</time>
      </trkpt>
      <trkpt lat="47.83686" lon="6.93076">
        <ele>801</ele>
        <time>2014-07-15T10:33:15Z</time>
      </trkpt>
      <trkpt lat="47.83686" lon="6.93075">
        <ele>801</ele>
        <time>2014-07-15T10:33:16Z</time>
      </trkpt>
      <trkpt lat="47.83686" lon="6.93075">
        <ele>801</ele>
        <time>2014-07-15T10:33:17Z</time>
      </trkpt>
      <trkpt lat="47.83687" lon="6.93074">
        <ele>801</ele>
        <time>2014-07-15T10:33:18Z</time>
      </trkpt>
      <trkpt lat="47.83688" lon="6.93073">
        <ele>801</ele>
        <time>2014-07-15T10:33:22Z</time>
      </trkpt>
      <trkpt lat="47.83688" lon="6.93073">
        <ele>801</ele>
        <time>2014-07-15T10:33:23Z</time>
      </trkpt>
      <trkpt lat="47.83688" lon="6.93073">
        <ele>801</ele>
        <time>2014-07-15T10:33:24Z</time>
      </trkpt>
      <trkpt lat="47.83688" lon="6.93073">
        <ele>801</ele>
        <time>2014-07-15T10:33:25Z</time>
      </trkpt>
      <trkpt lat="47.83689" lon="6.93072">
        <ele>801</ele>
        <time>2014-07-15T10:33:26Z</time>
      </trkpt>
      <trkpt lat="47.83689" lon="6.93071">
        <ele>801</ele>
        <time>2014-07-15T10:33:27Z</time>
      </trkpt>
      <trkpt lat="47.8369" lon="6.93069">
        <ele>801</ele>
        <time>2014-07-15T10:33:28Z</time>
      </trkpt>
      <trkpt lat="47.83691" lon="6.93068">
        <ele>801</ele>
        <time>2014-07-15T10:33:29Z</time>
      </trkpt>
      <trkpt lat="47.83692" lon="6.93067">
        <ele>801</ele>
        <time>2014-07-15T10:33:30Z</time>
      </trkpt>
      <trkpt lat="47.83694" lon="6.93065">
        <ele>801</ele>
        <time>2014-07-15T10:33:31Z</time>
      </trkpt>
      <trkpt lat="47.83695" lon="6.93063">
        <ele>801</ele>
        <time>2014-07-15T10:33:32Z</time>
      </trkpt>
      <trkpt lat="47.83696" lon="6.93061">
        <ele>801</ele>
        <time>2014-07-15T10:33:33Z</time>
      </trkpt>
      <trkpt lat="47.83696" lon="6.93059">
        <ele>801</ele>
        <time>2014-07-15T10:33:34Z</time>
      </trkpt>
      <trkpt lat="47.83695" lon="6.93057">
        <ele>802</ele>
        <time>2014-07-15T10:33:35Z</time>
      </trkpt>
      <trkpt lat="47.83695" lon="6.93056">
        <ele>802</ele>
        <time>2014-07-15T10:33:36Z</time>
      </trkpt>
      <trkpt lat="47.83694" lon="6.93055">
        <ele>802</ele>
        <time>2014-07-15T10:33:37Z</time>
      </trkpt>
      <trkpt lat="47.83694" lon="6.93053">
        <ele>802</ele>
        <time>2014-07-15T10:33:38Z</time>
      </trkpt>
      <trkpt lat="47.83695" lon="6.93051">
        <ele>802</ele>
        <time>2014-07-15T10:33:39Z</time>
      </trkpt>
      <trkpt lat="47.83696" lon="6.93049">
        <ele>802</ele>
        <time>2014-07-15T10:33:40Z</time>
      </trkpt>
      <trkpt lat="47.83696" lon="6.93047">
        <ele>802</ele>
        <time>2014-07-15T10:33:41Z</time>
      </trkpt>
      <trkpt lat="47.83696" lon="6.93046">
        <ele>802</ele>
        <time>2014-07-15T10:33:42Z</time>
      </trkpt>
      <trkpt lat="47.83697" lon="6.93044">
        <ele>803</ele>
        <time>2014-07-15T10:33:43Z</time>
      </trkpt>
      <trkpt lat="47.83698" lon="6.93042">
        <ele>803</ele>
        <time>2014-07-15T10:33:44Z</time>
      </trkpt>
      <trkpt lat="47.83699" lon="6.9304">
        <ele>803</ele>
        <time>2014-07-15T10:33:45Z</time>
      </trkpt>
      <trkpt lat="47.837" lon="6.93039">
        <ele>803</ele>
        <time>2014-07-15T10:33:46Z</time>
      </trkpt>
      <trkpt lat="47.83701" lon="6.93035">
        <ele>803</ele>
        <time>2014-07-15T10:33:48Z</time>
      </trkpt>
      <trkpt lat="47.83701" lon="6.93034">
        <ele>803</ele>
        <time>2014-07-15T10:33:49Z</time>
      </trkpt>
      <trkpt lat="47.83701" lon="6.93033">
        <ele>803</ele>
        <time>2014-07-15T10:33:50Z</time>
      </trkpt>
      <trkpt lat="47.83701" lon="6.93031">
        <ele>804</ele>
        <time>2014-07-15T10:33:51Z</time>
      </trkpt>
      <trkpt lat="47.83701" lon="6.93028">
        <ele>804</ele>
        <time>2014-07-15T10:33:53Z</time>
      </trkpt>
      <trkpt lat="47.83702" lon="6.93026">
        <ele>804</ele>
        <time>2014-07-15T10:33:54Z</time>
      </trkpt>
      <trkpt lat="47.83703" lon="6.93024">
        <ele>804</ele>
        <time>2014-07-15T10:33:55Z</time>
      </trkpt>
      <trkpt lat="47.83704" lon="6.93022">
        <ele>804</ele>
        <time>2014-07-15T10:33:56Z</time>
      </trkpt>
      <trkpt lat="47.83705" lon="6.9302">
        <ele>804</ele>
        <time>2014-07-15T10:33:57Z</time>
      </trkpt>
      <trkpt lat="47.83706" lon="6.93018">
        <ele>804</ele>
        <time>2014-07-15T10:33:58Z</time>
      </trkpt>
      <trkpt lat="47.83707" lon="6.93017">
        <ele>804</ele>
        <time>2014-07-15T10:33:59Z</time>
      </trkpt>
      <trkpt lat="47.83708" lon="6.93015">
        <ele>804</ele>
        <time>2014-07-15T10:34:00Z</time>
      </trkpt>
      <trkpt lat="47.83708" lon="6.93013">
        <ele>804</ele>
        <time>2014-07-15T10:34:01Z</time>
      </trkpt>
      <trkpt lat="47.83709" lon="6.93009">
        <ele>804</ele>
        <time>2014-07-15T10:34:03Z</time>
      </trkpt>
      <trkpt lat="47.8371" lon="6.93008">
        <ele>804</ele>
        <time>2014-07-15T10:34:04Z</time>
      </trkpt>
      <trkpt lat="47.83711" lon="6.93007">
        <ele>804</ele>
        <time>2014-07-15T10:34:05Z</time>
      </trkpt>
      <trkpt lat="47.83711" lon="6.93005">
        <ele>804</ele>
        <time>2014-07-15T10:34:06Z</time>
      </trkpt>
      <trkpt lat="47.83712" lon="6.93004">
        <ele>804</ele>
        <time>2014-07-15T10:34:07Z</time>
      </trkpt>
      <trkpt lat="47.83713" lon="6.93002">
        <ele>804</ele>
        <time>2014-07-15T10:34:08Z</time>
      </trkpt>
      <trkpt lat="47.83713" lon="6.93001">
        <ele>804</ele>
        <time>2014-07-15T10:34:09Z</time>
      </trkpt>
      <trkpt lat="47.83714" lon="6.93">
        <ele>814</ele>
        <time>2014-07-15T10:34:10Z</time>
      </trkpt>
      <trkpt lat="47.83714" lon="6.92998">
        <ele>814</ele>
        <time>2014-07-15T10:34:11Z</time>
      </trkpt>
      <trkpt lat="47.83714" lon="6.92997">
        <ele>814</ele>
        <time>2014-07-15T10:34:12Z</time>
      </trkpt>
      <trkpt lat="47.83715" lon="6.92996">
        <ele>814</ele>
        <time>2014-07-15T10:34:13Z</time>
      </trkpt>
      <trkpt lat="47.83715" lon="6.92994">
        <ele>814</ele>
        <time>2014-07-15T10:34:14Z</time>
      </trkpt>
      <trkpt lat="47.83716" lon="6.92994">
        <ele>814</ele>
        <time>2014-07-15T10:34:15Z</time>
      </trkpt>
      <trkpt lat="47.83717" lon="6.92993">
        <ele>814</ele>
        <time>2014-07-15T10:34:16Z</time>
      </trkpt>
      <trkpt lat="47.83718" lon="6.92992">
        <ele>814</ele>
        <time>2014-07-15T10:34:17Z</time>
      </trkpt>
      <trkpt lat="47.83719" lon="6.9299">
        <ele>814</ele>
        <time>2014-07-15T10:34:18Z</time>
      </trkpt>
      <trkpt lat="47.83719" lon="6.92989">
        <ele>814</ele>
        <time>2014-07-15T10:34:19Z</time>
      </trkpt>
      <trkpt lat="47.8372" lon="6.92988">
        <ele>814</ele>
        <time>2014-07-15T10:34:20Z</time>
      </trkpt>
      <trkpt lat="47.83721" lon="6.92988">
        <ele>814</ele>
        <time>2014-07-15T10:34:21Z</time>
      </trkpt>
      <trkpt lat="47.83722" lon="6.92987">
        <ele>814</ele>
        <time>2014-07-15T10:34:22Z</time>
      </trkpt>
      <trkpt lat="47.83723" lon="6.92986">
        <ele>814</ele>
        <time>2014-07-15T10:34:23Z</time>
      </trkpt>
      <trkpt lat="47.83723" lon="6.92984">
        <ele>814</ele>
        <time>2014-07-15T10:34:24Z</time>
      </trkpt>
      <trkpt lat="47.83723" lon="6.92983">
        <ele>814</ele>
        <time>2014-07-15T10:34:25Z</time>
      </trkpt>
      <trkpt lat="47.83723" lon="6.92981">
        <ele>814</ele>
        <time>2014-07-15T10:34:26Z</time>
      </trkpt>
      <trkpt lat="47.83724" lon="6.92979">
        <ele>815</ele>
        <time>2014-07-15T10:34:27Z</time>
      </trkpt>
      <trkpt lat="47.83724" lon="6.92978">
        <ele>815</ele>
        <time>2014-07-15T10:34:28Z</time>
      </trkpt>
      <trkpt lat="47.83724" lon="6.92976">
        <ele>815</ele>
        <time>2014-07-15T10:34:29Z</time>
      </trkpt>
      <trkpt lat="47.83724" lon="6.92975">
        <ele>815</ele>
        <time>2014-07-15T10:34:30Z</time>
      </trkpt>
      <trkpt lat="47.83725" lon="6.92973">
        <ele>815</ele>
        <time>2014-07-15T10:34:31Z</time>
      </trkpt>
      <trkpt lat="47.83724" lon="6.92972">
        <ele>815</ele>
        <time>2014-07-15T10:34:32Z</time>
      </trkpt>
      <trkpt lat="47.83724" lon="6.92971">
        <ele>816</ele>
        <time>2014-07-15T10:34:33Z</time>
      </trkpt>
      <trkpt lat="47.83724" lon="6.9297">
        <ele>816</ele>
        <time>2014-07-15T10:34:34Z</time>
      </trkpt>
      <trkpt lat="47.83724" lon="6.92969">
        <ele>816</ele>
        <time>2014-07-15T10:34:35Z</time>
      </trkpt>
      <trkpt lat="47.83724" lon="6.92968">
        <ele>816</ele>
        <time>2014-07-15T10:34:36Z</time>
      </trkpt>
      <trkpt lat="47.83725" lon="6.92967">
        <ele>816</ele>
        <time>2014-07-15T10:34:37Z</time>
      </trkpt>
      <trkpt lat="47.83725" lon="6.92966">
        <ele>816</ele>
        <time>2014-07-15T10:34:38Z</time>
      </trkpt>
      <trkpt lat="47.83725" lon="6.92966">
        <ele>816</ele>
        <time>2014-07-15T10:34:39Z</time>
      </trkpt>
      <trkpt lat="47.83725" lon="6.92965">
        <ele>816</ele>
        <time>2014-07-15T10:34:40Z</time>
      </trkpt>
      <trkpt lat="47.83725" lon="6.92964">
        <ele>816</ele>
        <time>2014-07-15T10:34:41Z</time>
      </trkpt>
      <trkpt lat="47.83726" lon="6.92963">
        <ele>816</ele>
        <time>2014-07-15T10:34:42Z</time>
      </trkpt>
      <trkpt lat="47.83726" lon="6.92963">
        <ele>816</ele>
        <time>2014-07-15T10:34:43Z</time>
      </trkpt>
      <trkpt lat="47.83726" lon="6.92962">
        <ele>816</ele>
        <time>2014-07-15T10:34:44Z</time>
      </trkpt>
      <trkpt lat="47.83726" lon="6.92962">
        <ele>817</ele>
        <time>2014-07-15T10:34:45Z</time>
      </trkpt>
      <trkpt lat="47.83726" lon="6.92962">
        <ele>817</ele>
        <time>2014-07-15T10:34:46Z</time>
      </trkpt>
      <trkpt lat="47.83726" lon="6.92961">
        <ele>817</ele>
        <time>2014-07-15T10:34:47Z</time>
      </trkpt>
      <trkpt lat="47.83727" lon="6.92961">
        <ele>817</ele>
        <time>2014-07-15T10:34:48Z</time>
      </trkpt>
      <trkpt lat="47.83728" lon="6.92959">
        <ele>817</ele>
        <time>2014-07-15T10:34:49Z</time>
      </trkpt>
      <trkpt lat="47.83729" lon="6.92958">
        <ele>817</ele>
        <time>2014-07-15T10:34:50Z</time>
      </trkpt>
      <trkpt lat="47.83729" lon="6.92957">
        <ele>817</ele>
        <time>2014-07-15T10:34:51Z</time>
      </trkpt>
      <trkpt lat="47.8373" lon="6.92955">
        <ele>817</ele>
        <time>2014-07-15T10:34:52Z</time>
      </trkpt>
      <trkpt lat="47.83731" lon="6.92953">
        <ele>817</ele>
        <time>2014-07-15T10:34:53Z</time>
      </trkpt>
      <trkpt lat="47.83732" lon="6.92952">
        <ele>817</ele>
        <time>2014-07-15T10:34:54Z</time>
      </trkpt>
      <trkpt lat="47.83732" lon="6.9295">
        <ele>818</ele>
        <time>2014-07-15T10:34:55Z</time>
      </trkpt>
      <trkpt lat="47.83733" lon="6.92949">
        <ele>818</ele>
        <time>2014-07-15T10:34:56Z</time>
      </trkpt>
      <trkpt lat="47.83733" lon="6.92947">
        <ele>818</ele>
        <time>2014-07-15T10:34:57Z</time>
      </trkpt>
      <trkpt lat="47.83735" lon="6.92942">
        <ele>818</ele>
        <time>2014-07-15T10:35:00Z</time>
      </trkpt>
      <trkpt lat="47.83736" lon="6.92941">
        <ele>818</ele>
        <time>2014-07-15T10:35:01Z</time>
      </trkpt>
      <trkpt lat="47.83736" lon="6.92939">
        <ele>819</ele>
        <time>2014-07-15T10:35:02Z</time>
      </trkpt>
      <trkpt lat="47.83738" lon="6.92936">
        <ele>819</ele>
        <time>2014-07-15T10:35:04Z</time>
      </trkpt>
      <trkpt lat="47.83739" lon="6.92934">
        <ele>819</ele>
        <time>2014-07-15T10:35:05Z</time>
      </trkpt>
      <trkpt lat="47.8374" lon="6.92933">
        <ele>819</ele>
        <time>2014-07-15T10:35:06Z</time>
      </trkpt>
      <trkpt lat="47.83741" lon="6.92931">
        <ele>819</ele>
        <time>2014-07-15T10:35:07Z</time>
      </trkpt>
      <trkpt lat="47.83741" lon="6.9293">
        <ele>819</ele>
        <time>2014-07-15T10:35:08Z</time>
      </trkpt>
      <trkpt lat="47.83741" lon="6.92928">
        <ele>819</ele>
        <time>2014-07-15T10:35:09Z</time>
      </trkpt>
      <trkpt lat="47.83742" lon="6.92926">
        <ele>819</ele>
        <time>2014-07-15T10:35:10Z</time>
      </trkpt>
      <trkpt lat="47.83742" lon="6.92924">
        <ele>819</ele>
        <time>2014-07-15T10:35:11Z</time>
      </trkpt>
      <trkpt lat="47.83741" lon="6.92923">
        <ele>820</ele>
        <time>2014-07-15T10:35:12Z</time>
      </trkpt>
      <trkpt lat="47.83742" lon="6.92921">
        <ele>820</ele>
        <time>2014-07-15T10:35:13Z</time>
      </trkpt>
      <trkpt lat="47.83742" lon="6.9292">
        <ele>820</ele>
        <time>2014-07-15T10:35:14Z</time>
      </trkpt>
      <trkpt lat="47.83742" lon="6.92918">
        <ele>820</ele>
        <time>2014-07-15T10:35:15Z</time>
      </trkpt>
      <trkpt lat="47.83743" lon="6.92917">
        <ele>820</ele>
        <time>2014-07-15T10:35:16Z</time>
      </trkpt>
      <trkpt lat="47.83746" lon="6.92916">
        <ele>823</ele>
        <time>2014-07-15T10:35:18Z</time>
      </trkpt>
      <trkpt lat="47.83747" lon="6.92915">
        <ele>822</ele>
        <time>2014-07-15T10:35:19Z</time>
      </trkpt>
      <trkpt lat="47.83749" lon="6.92914">
        <ele>822</ele>
        <time>2014-07-15T10:35:20Z</time>
      </trkpt>
      <trkpt lat="47.83749" lon="6.92913">
        <ele>823</ele>
        <time>2014-07-15T10:35:21Z</time>
      </trkpt>
      <trkpt lat="47.8375" lon="6.92911">
        <ele>822</ele>
        <time>2014-07-15T10:35:22Z</time>
      </trkpt>
      <trkpt lat="47.83751" lon="6.92909">
        <ele>822</ele>
        <time>2014-07-15T10:35:23Z</time>
      </trkpt>
      <trkpt lat="47.83751" lon="6.92907">
        <ele>823</ele>
        <time>2014-07-15T10:35:24Z</time>
      </trkpt>
      <trkpt lat="47.83751" lon="6.92905">
        <ele>823</ele>
        <time>2014-07-15T10:35:25Z</time>
      </trkpt>
      <trkpt lat="47.83752" lon="6.92903">
        <ele>824</ele>
        <time>2014-07-15T10:35:26Z</time>
      </trkpt>
      <trkpt lat="47.83752" lon="6.92901">
        <ele>824</ele>
        <time>2014-07-15T10:35:27Z</time>
      </trkpt>
      <trkpt lat="47.83752" lon="6.92899">
        <ele>825</ele>
        <time>2014-07-15T10:35:28Z</time>
      </trkpt>
      <trkpt lat="47.83751" lon="6.92897">
        <ele>825</ele>
        <time>2014-07-15T10:35:29Z</time>
      </trkpt>
      <trkpt lat="47.83751" lon="6.92895">
        <ele>826</ele>
        <time>2014-07-15T10:35:30Z</time>
      </trkpt>
      <trkpt lat="47.83751" lon="6.92893">
        <ele>826</ele>
        <time>2014-07-15T10:35:31Z</time>
      </trkpt>
      <trkpt lat="47.83752" lon="6.92891">
        <ele>826</ele>
        <time>2014-07-15T10:35:32Z</time>
      </trkpt>
      <trkpt lat="47.83752" lon="6.92889">
        <ele>827</ele>
        <time>2014-07-15T10:35:33Z</time>
      </trkpt>
      <trkpt lat="47.83753" lon="6.92888">
        <ele>827</ele>
        <time>2014-07-15T10:35:34Z</time>
      </trkpt>
      <trkpt lat="47.83755" lon="6.92886">
        <ele>827</ele>
        <time>2014-07-15T10:35:35Z</time>
      </trkpt>
      <trkpt lat="47.83756" lon="6.92885">
        <ele>827</ele>
        <time>2014-07-15T10:35:36Z</time>
      </trkpt>
      <trkpt lat="47.83757" lon="6.92884">
        <ele>827</ele>
        <time>2014-07-15T10:35:37Z</time>
      </trkpt>
      <trkpt lat="47.83758" lon="6.92883">
        <ele>828</ele>
        <time>2014-07-15T10:35:38Z</time>
      </trkpt>
      <trkpt lat="47.83758" lon="6.92882">
        <ele>828</ele>
        <time>2014-07-15T10:35:39Z</time>
      </trkpt>
      <trkpt lat="47.83758" lon="6.92881">
        <ele>828</ele>
        <time>2014-07-15T10:35:40Z</time>
      </trkpt>
      <trkpt lat="47.83757" lon="6.92879">
        <ele>828</ele>
        <time>2014-07-15T10:35:41Z</time>
      </trkpt>
      <trkpt lat="47.83756" lon="6.92878">
        <ele>828</ele>
        <time>2014-07-15T10:35:42Z</time>
      </trkpt>
      <trkpt lat="47.83755" lon="6.92875">
        <ele>829</ele>
        <time>2014-07-15T10:35:44Z</time>
      </trkpt>
      <trkpt lat="47.83755" lon="6.92873">
        <ele>829</ele>
        <time>2014-07-15T10:35:45Z</time>
      </trkpt>
      <trkpt lat="47.83755" lon="6.92871">
        <ele>830</ele>
        <time>2014-07-15T10:35:46Z</time>
      </trkpt>
      <trkpt lat="47.83754" lon="6.92869">
        <ele>830</ele>
        <time>2014-07-15T10:35:47Z</time>
      </trkpt>
      <trkpt lat="47.83754" lon="6.92868">
        <ele>830</ele>
        <time>2014-07-15T10:35:48Z</time>
      </trkpt>
      <trkpt lat="47.83755" lon="6.92866">
        <ele>831</ele>
        <time>2014-07-15T10:35:49Z</time>
      </trkpt>
      <trkpt lat="47.83756" lon="6.92864">
        <ele>831</ele>
        <time>2014-07-15T10:35:51Z</time>
      </trkpt>
      <trkpt lat="47.83758" lon="6.92861">
        <ele>832</ele>
        <time>2014-07-15T10:35:53Z</time>
      </trkpt>
      <trkpt lat="47.83758" lon="6.92859">
        <ele>832</ele>
        <time>2014-07-15T10:35:54Z</time>
      </trkpt>
      <trkpt lat="47.83758" lon="6.92857">
        <ele>832</ele>
        <time>2014-07-15T10:35:55Z</time>
      </trkpt>
      <trkpt lat="47.83759" lon="6.92856">
        <ele>833</ele>
        <time>2014-07-15T10:35:56Z</time>
      </trkpt>
      <trkpt lat="47.83759" lon="6.92854">
        <ele>833</ele>
        <time>2014-07-15T10:35:57Z</time>
      </trkpt>
      <trkpt lat="47.83758" lon="6.92853">
        <ele>833</ele>
        <time>2014-07-15T10:35:58Z</time>
      </trkpt>
      <trkpt lat="47.83758" lon="6.92851">
        <ele>834</ele>
        <time>2014-07-15T10:35:59Z</time>
      </trkpt>
      <trkpt lat="47.83759" lon="6.9285">
        <ele>834</ele>
        <time>2014-07-15T10:36:00Z</time>
      </trkpt>
      <trkpt lat="47.83759" lon="6.92849">
        <ele>834</ele>
        <time>2014-07-15T10:36:01Z</time>
      </trkpt>
      <trkpt lat="47.8376" lon="6.92847">
        <ele>835</ele>
        <time>2014-07-15T10:36:02Z</time>
      </trkpt>
      <trkpt lat="47.8376" lon="6.92846">
        <ele>835</ele>
        <time>2014-07-15T10:36:03Z</time>
      </trkpt>
      <trkpt lat="47.83761" lon="6.92845">
        <ele>835</ele>
        <time>2014-07-15T10:36:04Z</time>
      </trkpt>
      <trkpt lat="47.83762" lon="6.92843">
        <ele>835</ele>
        <time>2014-07-15T10:36:05Z</time>
      </trkpt>
      <trkpt lat="47.83763" lon="6.92842">
        <ele>835</ele>
        <time>2014-07-15T10:36:06Z</time>
      </trkpt>
      <trkpt lat="47.83765" lon="6.92841">
        <ele>835</ele>
        <time>2014-07-15T10:36:07Z</time>
      </trkpt>
      <trkpt lat="47.83767" lon="6.9284">
        <ele>835</ele>
        <time>2014-07-15T10:36:08Z</time>
      </trkpt>
      <trkpt lat="47.83768" lon="6.92839">
        <ele>834</ele>
        <time>2014-07-15T10:36:09Z</time>
      </trkpt>
      <trkpt lat="47.83769" lon="6.92838">
        <ele>834</ele>
        <time>2014-07-15T10:36:10Z</time>
      </trkpt>
      <trkpt lat="47.83769" lon="6.92837">
        <ele>834</ele>
        <time>2014-07-15T10:36:11Z</time>
      </trkpt>
      <trkpt lat="47.8377" lon="6.92837">
        <ele>834</ele>
        <time>2014-07-15T10:36:12Z</time>
      </trkpt>
      <trkpt lat="47.8377" lon="6.92836">
        <ele>834</ele>
        <time>2014-07-15T10:36:13Z</time>
      </trkpt>
      <trkpt lat="47.8377" lon="6.92835">
        <ele>834</ele>
        <time>2014-07-15T10:36:14Z</time>
      </trkpt>
      <trkpt lat="47.8377" lon="6.92834">
        <ele>834</ele>
        <time>2014-07-15T10:36:15Z</time>
      </trkpt>
      <trkpt lat="47.8377" lon="6.92834">
        <ele>834</ele>
        <time>2014-07-15T10:36:16Z</time>
      </trkpt>
      <trkpt lat="47.8377" lon="6.92833">
        <ele>842</ele>
        <time>2014-07-15T10:36:17Z</time>
      </trkpt>
      <trkpt lat="47.8377" lon="6.92833">
        <ele>842</ele>
        <time>2014-07-15T10:36:18Z</time>
      </trkpt>
      <trkpt lat="47.8377" lon="6.92833">
        <ele>842</ele>
        <time>2014-07-15T10:36:19Z</time>
      </trkpt>
      <trkpt lat="47.8377" lon="6.92833">
        <ele>842</ele>
        <time>2014-07-15T10:36:20Z</time>
      </trkpt>
      <trkpt lat="47.8377" lon="6.92832">
        <ele>842</ele>
        <time>2014-07-15T10:36:21Z</time>
      </trkpt>
      <trkpt lat="47.8377" lon="6.92832">
        <ele>842</ele>
        <time>2014-07-15T10:36:22Z</time>
      </trkpt>
      <trkpt lat="47.8377" lon="6.92832">
        <ele>842</ele>
        <time>2014-07-15T10:36:23Z</time>
      </trkpt>
      <trkpt lat="47.8377" lon="6.92832">
        <ele>842</ele>
        <time>2014-07-15T10:36:24Z</time>
      </trkpt>
      <trkpt lat="47.8377" lon="6.92832">
        <ele>842</ele>
        <time>2014-07-15T10:36:25Z</time>
      </trkpt>
      <trkpt lat="47.8377" lon="6.92832">
        <ele>842</ele>
        <time>2014-07-15T10:36:26Z</time>
      </trkpt>
      <trkpt lat="47.83771" lon="6.92832">
        <ele>842</ele>
        <time>2014-07-15T10:36:27Z</time>
      </trkpt>
      <trkpt lat="47.83771" lon="6.9283">
        <ele>842</ele>
        <time>2014-07-15T10:36:28Z</time>
      </trkpt>
      <trkpt lat="47.83772" lon="6.92829">
        <ele>842</ele>
        <time>2014-07-15T10:36:29Z</time>
      </trkpt>
      <trkpt lat="47.83773" lon="6.92827">
        <ele>843</ele>
        <time>2014-07-15T10:36:30Z</time>
      </trkpt>
      <trkpt lat="47.83773" lon="6.92825">
        <ele>843</ele>
        <time>2014-07-15T10:36:31Z</time>
      </trkpt>
      <trkpt lat="47.83773" lon="6.92823">
        <ele>843</ele>
        <time>2014-07-15T10:36:32Z</time>
      </trkpt>
      <trkpt lat="47.83773" lon="6.9282">
        <ele>843</ele>
        <time>2014-07-15T10:36:33Z</time>
      </trkpt>
      <trkpt lat="47.83774" lon="6.92818">
        <ele>843</ele>
        <time>2014-07-15T10:36:34Z</time>
      </trkpt>
      <trkpt lat="47.83774" lon="6.92816">
        <ele>843</ele>
        <time>2014-07-15T10:36:35Z</time>
      </trkpt>
      <trkpt lat="47.83775" lon="6.92813">
        <ele>843</ele>
        <time>2014-07-15T10:36:36Z</time>
      </trkpt>
      <trkpt lat="47.83775" lon="6.92811">
        <ele>843</ele>
        <time>2014-07-15T10:36:37Z</time>
      </trkpt>
      <trkpt lat="47.83776" lon="6.92809">
        <ele>844</ele>
        <time>2014-07-15T10:36:38Z</time>
      </trkpt>
      <trkpt lat="47.83776" lon="6.92808">
        <ele>844</ele>
        <time>2014-07-15T10:36:39Z</time>
      </trkpt>
      <trkpt lat="47.83777" lon="6.92806">
        <ele>844</ele>
        <time>2014-07-15T10:36:40Z</time>
      </trkpt>
      <trkpt lat="47.83777" lon="6.92804">
        <ele>844</ele>
        <time>2014-07-15T10:36:41Z</time>
      </trkpt>
      <trkpt lat="47.83776" lon="6.92803">
        <ele>844</ele>
        <time>2014-07-15T10:36:42Z</time>
      </trkpt>
      <trkpt lat="47.83777" lon="6.92801">
        <ele>844</ele>
        <time>2014-07-15T10:36:43Z</time>
      </trkpt>
      <trkpt lat="47.83777" lon="6.92799">
        <ele>844</ele>
        <time>2014-07-15T10:36:44Z</time>
      </trkpt>
      <trkpt lat="47.83777" lon="6.92797">
        <ele>845</ele>
        <time>2014-07-15T10:36:45Z</time>
      </trkpt>
      <trkpt lat="47.83778" lon="6.92795">
        <ele>845</ele>
        <time>2014-07-15T10:36:46Z</time>
      </trkpt>
      <trkpt lat="47.83778" lon="6.92793">
        <ele>845</ele>
        <time>2014-07-15T10:36:47Z</time>
      </trkpt>
      <trkpt lat="47.83778" lon="6.9279">
        <ele>845</ele>
        <time>2014-07-15T10:36:48Z</time>
      </trkpt>
      <trkpt lat="47.83778" lon="6.92788">
        <ele>846</ele>
        <time>2014-07-15T10:36:49Z</time>
      </trkpt>
      <trkpt lat="47.83778" lon="6.92786">
        <ele>846</ele>
        <time>2014-07-15T10:36:50Z</time>
      </trkpt>
      <trkpt lat="47.83778" lon="6.92785">
        <ele>846</ele>
        <time>2014-07-15T10:36:51Z</time>
      </trkpt>
      <trkpt lat="47.83778" lon="6.92783">
        <ele>846</ele>
        <time>2014-07-15T10:36:52Z</time>
      </trkpt>
      <trkpt lat="47.83778" lon="6.92781">
        <ele>846</ele>
        <time>2014-07-15T10:36:53Z</time>
      </trkpt>
      <trkpt lat="47.83779" lon="6.92779">
        <ele>846</ele>
        <time>2014-07-15T10:36:54Z</time>
      </trkpt>
      <trkpt lat="47.8378" lon="6.92777">
        <ele>847</ele>
        <time>2014-07-15T10:36:55Z</time>
      </trkpt>
      <trkpt lat="47.83781" lon="6.92775">
        <ele>847</ele>
        <time>2014-07-15T10:36:56Z</time>
      </trkpt>
      <trkpt lat="47.83782" lon="6.92774">
        <ele>847</ele>
        <time>2014-07-15T10:36:57Z</time>
      </trkpt>
      <trkpt lat="47.83782" lon="6.92772">
        <ele>847</ele>
        <time>2014-07-15T10:36:58Z</time>
      </trkpt>
      <trkpt lat="47.83783" lon="6.9277">
        <ele>847</ele>
        <time>2014-07-15T10:36:59Z</time>
      </trkpt>
      <trkpt lat="47.83783" lon="6.92768">
        <ele>847</ele>
        <time>2014-07-15T10:37:00Z</time>
      </trkpt>
      <trkpt lat="47.83784" lon="6.92767">
        <ele>847</ele>
        <time>2014-07-15T10:37:01Z</time>
      </trkpt>
      <trkpt lat="47.83786" lon="6.92766">
        <ele>847</ele>
        <time>2014-07-15T10:37:02Z</time>
      </trkpt>
      <trkpt lat="47.83787" lon="6.92764">
        <ele>847</ele>
        <time>2014-07-15T10:37:04Z</time>
      </trkpt>
      <trkpt lat="47.83788" lon="6.92763">
        <ele>847</ele>
        <time>2014-07-15T10:37:05Z</time>
      </trkpt>
      <trkpt lat="47.83788" lon="6.92761">
        <ele>847</ele>
        <time>2014-07-15T10:37:06Z</time>
      </trkpt>
      <trkpt lat="47.83789" lon="6.9276">
        <ele>847</ele>
        <time>2014-07-15T10:37:07Z</time>
      </trkpt>
      <trkpt lat="47.8379" lon="6.92759">
        <ele>847</ele>
        <time>2014-07-15T10:37:08Z</time>
      </trkpt>
      <trkpt lat="47.83791" lon="6.92758">
        <ele>847</ele>
        <time>2014-07-15T10:37:09Z</time>
      </trkpt>
      <trkpt lat="47.83793" lon="6.92757">
        <ele>847</ele>
        <time>2014-07-15T10:37:10Z</time>
      </trkpt>
      <trkpt lat="47.83794" lon="6.92756">
        <ele>847</ele>
        <time>2014-07-15T10:37:11Z</time>
      </trkpt>
      <trkpt lat="47.83795" lon="6.92755">
        <ele>846</ele>
        <time>2014-07-15T10:37:12Z</time>
      </trkpt>
      <trkpt lat="47.83796" lon="6.92754">
        <ele>846</ele>
        <time>2014-07-15T10:37:13Z</time>
      </trkpt>
      <trkpt lat="47.83798" lon="6.92752">
        <ele>846</ele>
        <time>2014-07-15T10:37:14Z</time>
      </trkpt>
      <trkpt lat="47.83799" lon="6.92751">
        <ele>846</ele>
        <time>2014-07-15T10:37:15Z</time>
      </trkpt>
      <trkpt lat="47.83799" lon="6.9275">
        <ele>854</ele>
        <time>2014-07-15T10:37:16Z</time>
      </trkpt>
      <trkpt lat="47.838" lon="6.92749">
        <ele>854</ele>
        <time>2014-07-15T10:37:17Z</time>
      </trkpt>
      <trkpt lat="47.83801" lon="6.92748">
        <ele>854</ele>
        <time>2014-07-15T10:37:18Z</time>
      </trkpt>
      <trkpt lat="47.83801" lon="6.92747">
        <ele>854</ele>
        <time>2014-07-15T10:37:19Z</time>
      </trkpt>
      <trkpt lat="47.83802" lon="6.92746">
        <ele>854</ele>
        <time>2014-07-15T10:37:20Z</time>
      </trkpt>
      <trkpt lat="47.83803" lon="6.92745">
        <ele>854</ele>
        <time>2014-07-15T10:37:21Z</time>
      </trkpt>
      <trkpt lat="47.83803" lon="6.92744">
        <ele>854</ele>
        <time>2014-07-15T10:37:22Z</time>
      </trkpt>
      <trkpt lat="47.83805" lon="6.92742">
        <ele>854</ele>
        <time>2014-07-15T10:37:23Z</time>
      </trkpt>
      <trkpt lat="47.83806" lon="6.92741">
        <ele>853</ele>
        <time>2014-07-15T10:37:24Z</time>
      </trkpt>
      <trkpt lat="47.83806" lon="6.92739">
        <ele>853</ele>
        <time>2014-07-15T10:37:25Z</time>
      </trkpt>
      <trkpt lat="47.83807" lon="6.92737">
        <ele>854</ele>
        <time>2014-07-15T10:37:26Z</time>
      </trkpt>
      <trkpt lat="47.83807" lon="6.92736">
        <ele>853</ele>
        <time>2014-07-15T10:37:27Z</time>
      </trkpt>
      <trkpt lat="47.83809" lon="6.92733">
        <ele>854</ele>
        <time>2014-07-15T10:37:29Z</time>
      </trkpt>
      <trkpt lat="47.8381" lon="6.92731">
        <ele>854</ele>
        <time>2014-07-15T10:37:30Z</time>
      </trkpt>
      <trkpt lat="47.8381" lon="6.92729">
        <ele>854</ele>
        <time>2014-07-15T10:37:31Z</time>
      </trkpt>
      <trkpt lat="47.83811" lon="6.92729">
        <ele>854</ele>
        <time>2014-07-15T10:37:32Z</time>
      </trkpt>
      <trkpt lat="47.83811" lon="6.92728">
        <ele>854</ele>
        <time>2014-07-15T10:37:33Z</time>
      </trkpt>
      <trkpt lat="47.83812" lon="6.92728">
        <ele>854</ele>
        <time>2014-07-15T10:37:34Z</time>
      </trkpt>
      <trkpt lat="47.83812" lon="6.92727">
        <ele>854</ele>
        <time>2014-07-15T10:37:35Z</time>
      </trkpt>
      <trkpt lat="47.83813" lon="6.92727">
        <ele>854</ele>
        <time>2014-07-15T10:37:36Z</time>
      </trkpt>
      <trkpt lat="47.83813" lon="6.92726">
        <ele>854</ele>
        <time>2014-07-15T10:37:37Z</time>
      </trkpt>
      <trkpt lat="47.83813" lon="6.92725">
        <ele>854</ele>
        <time>2014-07-15T10:37:38Z</time>
      </trkpt>
      <trkpt lat="47.83813" lon="6.92725">
        <ele>854</ele>
        <time>2014-07-15T10:37:39Z</time>
      </trkpt>
      <trkpt lat="47.83813" lon="6.92725">
        <ele>854</ele>
        <time>2014-07-15T10:37:40Z</time>
      </trkpt>
      <trkpt lat="47.83813" lon="6.92724">
        <ele>854</ele>
        <time>2014-07-15T10:37:41Z</time>
      </trkpt>
      <trkpt lat="47.83813" lon="6.92724">
        <ele>854</ele>
        <time>2014-07-15T10:37:42Z</time>
      </trkpt>
      <trkpt lat="47.83813" lon="6.92724">
        <ele>854</ele>
        <time>2014-07-15T10:37:44Z</time>
      </trkpt>
      <trkpt lat="47.83813" lon="6.92724">
        <ele>854</ele>
        <time>2014-07-15T10:37:45Z</time>
      </trkpt>
      <trkpt lat="47.83813" lon="6.92724">
        <ele>854</ele>
        <time>2014-07-15T10:37:46Z</time>
      </trkpt>
      <trkpt lat="47.83814" lon="6.92723">
        <ele>854</ele>
        <time>2014-07-15T10:37:47Z</time>
      </trkpt>
      <trkpt lat="47.83815" lon="6.92721">
        <ele>854</ele>
        <time>2014-07-15T10:37:49Z</time>
      </trkpt>
      <trkpt lat="47.83815" lon="6.9272">
        <ele>854</ele>
        <time>2014-07-15T10:37:50Z</time>
      </trkpt>
      <trkpt lat="47.83815" lon="6.92718">
        <ele>854</ele>
        <time>2014-07-15T10:37:51Z</time>
      </trkpt>
      <trkpt lat="47.83816" lon="6.92717">
        <ele>854</ele>
        <time>2014-07-15T10:37:52Z</time>
      </trkpt>
      <trkpt lat="47.83817" lon="6.92715">
        <ele>854</ele>
        <time>2014-07-15T10:37:53Z</time>
      </trkpt>
      <trkpt lat="47.83818" lon="6.92714">
        <ele>854</ele>
        <time>2014-07-15T10:37:54Z</time>
      </trkpt>
      <trkpt lat="47.83818" lon="6.92712">
        <ele>855</ele>
        <time>2014-07-15T10:37:55Z</time>
      </trkpt>
      <trkpt lat="47.83819" lon="6.9271">
        <ele>855</ele>
        <time>2014-07-15T10:37:56Z</time>
      </trkpt>
      <trkpt lat="47.8382" lon="6.92709">
        <ele>855</ele>
        <time>2014-07-15T10:37:57Z</time>
      </trkpt>
      <trkpt lat="47.83821" lon="6.92706">
        <ele>855</ele>
        <time>2014-07-15T10:37:58Z</time>
      </trkpt>
      <trkpt lat="47.83822" lon="6.92705">
        <ele>855</ele>
        <time>2014-07-15T10:37:59Z</time>
      </trkpt>
      <trkpt lat="47.83823" lon="6.92704">
        <ele>855</ele>
        <time>2014-07-15T10:38:00Z</time>
      </trkpt>
      <trkpt lat="47.83824" lon="6.92703">
        <ele>855</ele>
        <time>2014-07-15T10:38:01Z</time>
      </trkpt>
      <trkpt lat="47.83824" lon="6.92702">
        <ele>855</ele>
        <time>2014-07-15T10:38:02Z</time>
      </trkpt>
      <trkpt lat="47.83825" lon="6.92701">
        <ele>855</ele>
        <time>2014-07-15T10:38:03Z</time>
      </trkpt>
      <trkpt lat="47.83825" lon="6.927">
        <ele>855</ele>
        <time>2014-07-15T10:38:04Z</time>
      </trkpt>
      <trkpt lat="47.83825" lon="6.92699">
        <ele>855</ele>
        <time>2014-07-15T10:38:05Z</time>
      </trkpt>
      <trkpt lat="47.83826" lon="6.92698">
        <ele>855</ele>
        <time>2014-07-15T10:38:06Z</time>
      </trkpt>
      <trkpt lat="47.83826" lon="6.92697">
        <ele>855</ele>
        <time>2014-07-15T10:38:07Z</time>
      </trkpt>
      <trkpt lat="47.83827" lon="6.92696">
        <ele>855</ele>
        <time>2014-07-15T10:38:08Z</time>
      </trkpt>
      <trkpt lat="47.83828" lon="6.92695">
        <ele>855</ele>
        <time>2014-07-15T10:38:09Z</time>
      </trkpt>
      <trkpt lat="47.83829" lon="6.92693">
        <ele>855</ele>
        <time>2014-07-15T10:38:10Z</time>
      </trkpt>
      <trkpt lat="47.8383" lon="6.92692">
        <ele>854</ele>
        <time>2014-07-15T10:38:11Z</time>
      </trkpt>
      <trkpt lat="47.8383" lon="6.92691">
        <ele>854</ele>
        <time>2014-07-15T10:38:12Z</time>
      </trkpt>
      <trkpt lat="47.83832" lon="6.9269">
        <ele>854</ele>
        <time>2014-07-15T10:38:13Z</time>
      </trkpt>
      <trkpt lat="47.83833" lon="6.92688">
        <ele>854</ele>
        <time>2014-07-15T10:38:14Z</time>
      </trkpt>
      <trkpt lat="47.83834" lon="6.92687">
        <ele>851</ele>
        <time>2014-07-15T10:38:15Z</time>
      </trkpt>
      <trkpt lat="47.83835" lon="6.92686">
        <ele>851</ele>
        <time>2014-07-15T10:38:16Z</time>
      </trkpt>
      <trkpt lat="47.83836" lon="6.92683">
        <ele>851</ele>
        <time>2014-07-15T10:38:17Z</time>
      </trkpt>
      <trkpt lat="47.83838" lon="6.92681">
        <ele>851</ele>
        <time>2014-07-15T10:38:18Z</time>
      </trkpt>
      <trkpt lat="47.83839" lon="6.92679">
        <ele>851</ele>
        <time>2014-07-15T10:38:19Z</time>
      </trkpt>
      <trkpt lat="47.83839" lon="6.92678">
        <ele>851</ele>
        <time>2014-07-15T10:38:20Z</time>
      </trkpt>
      <trkpt lat="47.8384" lon="6.92677">
        <ele>851</ele>
        <time>2014-07-15T10:38:21Z</time>
      </trkpt>
      <trkpt lat="47.8384" lon="6.92676">
        <ele>851</ele>
        <time>2014-07-15T10:38:22Z</time>
      </trkpt>
      <trkpt lat="47.8384" lon="6.92675">
        <ele>851</ele>
        <time>2014-07-15T10:38:23Z</time>
      </trkpt>
      <trkpt lat="47.83841" lon="6.92674">
        <ele>851</ele>
        <time>2014-07-15T10:38:24Z</time>
      </trkpt>
      <trkpt lat="47.83841" lon="6.92673">
        <ele>851</ele>
        <time>2014-07-15T10:38:25Z</time>
      </trkpt>
      <trkpt lat="47.83844" lon="6.92671">
        <ele>851</ele>
        <time>2014-07-15T10:38:27Z</time>
      </trkpt>
      <trkpt lat="47.83845" lon="6.92669">
        <ele>851</ele>
        <time>2014-07-15T10:38:28Z</time>
      </trkpt>
      <trkpt lat="47.83846" lon="6.92668">
        <ele>852</ele>
        <time>2014-07-15T10:38:29Z</time>
      </trkpt>
      <trkpt lat="47.83847" lon="6.92665">
        <ele>854</ele>
        <time>2014-07-15T10:38:31Z</time>
      </trkpt>
      <trkpt lat="47.83848" lon="6.92664">
        <ele>854</ele>
        <time>2014-07-15T10:38:32Z</time>
      </trkpt>
      <trkpt lat="47.83848" lon="6.92663">
        <ele>854</ele>
        <time>2014-07-15T10:38:33Z</time>
      </trkpt>
      <trkpt lat="47.83849" lon="6.92662">
        <ele>854</ele>
        <time>2014-07-15T10:38:34Z</time>
      </trkpt>
      <trkpt lat="47.83849" lon="6.92661">
        <ele>854</ele>
        <time>2014-07-15T10:38:35Z</time>
      </trkpt>
      <trkpt lat="47.83848" lon="6.9266">
        <ele>854</ele>
        <time>2014-07-15T10:38:36Z</time>
      </trkpt>
      <trkpt lat="47.83847" lon="6.92659">
        <ele>854</ele>
        <time>2014-07-15T10:38:37Z</time>
      </trkpt>
      <trkpt lat="47.83846" lon="6.92658">
        <ele>854</ele>
        <time>2014-07-15T10:38:38Z</time>
      </trkpt>
      <trkpt lat="47.83845" lon="6.92657">
        <ele>854</ele>
        <time>2014-07-15T10:38:39Z</time>
      </trkpt>
      <trkpt lat="47.83844" lon="6.92657">
        <ele>854</ele>
        <time>2014-07-15T10:38:40Z</time>
      </trkpt>
      <trkpt lat="47.83844" lon="6.92657">
        <ele>854</ele>
        <time>2014-07-15T10:38:41Z</time>
      </trkpt>
      <trkpt lat="47.83844" lon="6.92657">
        <ele>854</ele>
        <time>2014-07-15T10:38:42Z</time>
      </trkpt>
      <trkpt lat="47.83844" lon="6.92657">
        <ele>854</ele>
        <time>2014-07-15T10:38:43Z</time>
      </trkpt>
      <trkpt lat="47.83844" lon="6.92658">
        <ele>854</ele>
        <time>2014-07-15T10:38:44Z</time>
      </trkpt>
      <trkpt lat="47.83844" lon="6.92658">
        <ele>854</ele>
        <time>2014-07-15T10:38:45Z</time>
      </trkpt>
      <trkpt lat="47.83844" lon="6.92658">
        <ele>854</ele>
        <time>2014-07-15T10:38:46Z</time>
      </trkpt>
      <trkpt lat="47.83843" lon="6.92658">
        <ele>854</ele>
        <time>2014-07-15T10:38:48Z</time>
      </trkpt>
      <trkpt lat="47.83843" lon="6.92658">
        <ele>854</ele>
        <time>2014-07-15T10:38:51Z</time>
      </trkpt>
      <trkpt lat="47.83843" lon="6.92658">
        <ele>854</ele>
        <time>2014-07-15T10:38:52Z</time>
      </trkpt>
      <trkpt lat="47.83843" lon="6.92658">
        <ele>854</ele>
        <time>2014-07-15T10:38:54Z</time>
      </trkpt>
      <trkpt lat="47.83843" lon="6.92658">
        <ele>854</ele>
        <time>2014-07-15T10:38:55Z</time>
      </trkpt>
      <trkpt lat="47.83843" lon="6.92658">
        <ele>854</ele>
        <time>2014-07-15T10:38:56Z</time>
      </trkpt>
      <trkpt lat="47.83843" lon="6.92659">
        <ele>854</ele>
        <time>2014-07-15T10:38:57Z</time>
      </trkpt>
      <trkpt lat="47.83844" lon="6.92658">
        <ele>854</ele>
        <time>2014-07-15T10:38:58Z</time>
      </trkpt>
      <trkpt lat="47.83844" lon="6.92658">
        <ele>854</ele>
        <time>2014-07-15T10:38:59Z</time>
      </trkpt>
      <trkpt lat="47.83844" lon="6.92658">
        <ele>854</ele>
        <time>2014-07-15T10:39:00Z</time>
      </trkpt>
      <trkpt lat="47.83844" lon="6.92658">
        <ele>854</ele>
        <time>2014-07-15T10:39:01Z</time>
      </trkpt>
      <trkpt lat="47.83845" lon="6.92658">
        <ele>854</ele>
        <time>2014-07-15T10:39:02Z</time>
      </trkpt>
      <trkpt lat="47.83845" lon="6.92658">
        <ele>854</ele>
        <time>2014-07-15T10:39:03Z</time>
      </trkpt>
      <trkpt lat="47.83845" lon="6.92658">
        <ele>854</ele>
        <time>2014-07-15T10:39:04Z</time>
      </trkpt>
      <trkpt lat="47.83845" lon="6.92658">
        <ele>854</ele>
        <time>2014-07-15T10:39:05Z</time>
      </trkpt>
      <trkpt lat="47.83845" lon="6.92658">
        <ele>854</ele>
        <time>2014-07-15T10:39:06Z</time>
      </trkpt>
      <trkpt lat="47.83845" lon="6.92658">
        <ele>854</ele>
        <time>2014-07-15T10:39:07Z</time>
      </trkpt>
      <trkpt lat="47.83845" lon="6.92658">
        <ele>854</ele>
        <time>2014-07-15T10:39:08Z</time>
      </trkpt>
      <trkpt lat="47.83845" lon="6.92658">
        <ele>854</ele>
        <time>2014-07-15T10:39:09Z</time>
      </trkpt>
      <trkpt lat="47.83845" lon="6.92658">
        <ele>854</ele>
        <time>2014-07-15T10:39:10Z</time>
      </trkpt>
      <trkpt lat="47.83845" lon="6.92658">
        <ele>854</ele>
        <time>2014-07-15T10:39:11Z</time>
      </trkpt>
      <trkpt lat="47.83845" lon="6.92658">
        <ele>854</ele>
        <time>2014-07-15T10:39:12Z</time>
      </trkpt>
      <trkpt lat="47.83845" lon="6.92658">
        <ele>854</ele>
        <time>2014-07-15T10:39:13Z</time>
      </trkpt>
      <trkpt lat="47.83845" lon="6.92658">
        <ele>854</ele>
        <time>2014-07-15T10:39:14Z</time>
      </trkpt>
      <trkpt lat="47.83845" lon="6.92658">
        <ele>854</ele>
        <time>2014-07-15T10:39:16Z</time>
      </trkpt>
      <trkpt lat="47.83845" lon="6.92658">
        <ele>854</ele>
        <time>2014-07-15T10:39:17Z</time>
      </trkpt>
      <trkpt lat="47.83845" lon="6.92658">
        <ele>854</ele>
        <time>2014-07-15T10:39:18Z</time>
      </trkpt>
      <trkpt lat="47.83845" lon="6.92658">
        <ele>854</ele>
        <time>2014-07-15T10:39:19Z</time>
      </trkpt>
      <trkpt lat="47.83845" lon="6.92658">
        <ele>854</ele>
        <time>2014-07-15T10:39:20Z</time>
      </trkpt>
      <trkpt lat="47.83845" lon="6.92658">
        <ele>854</ele>
        <time>2014-07-15T10:39:21Z</time>
      </trkpt>
      <trkpt lat="47.83845" lon="6.92658">
        <ele>854</ele>
        <time>2014-07-15T10:39:22Z</time>
      </trkpt>
      <trkpt lat="47.83845" lon="6.92658">
        <ele>854</ele>
        <time>2014-07-15T10:39:23Z</time>
      </trkpt>
      <trkpt lat="47.83845" lon="6.92658">
        <ele>854</ele>
        <time>2014-07-15T10:39:24Z</time>
      </trkpt>
      <trkpt lat="47.83845" lon="6.92658">
        <ele>854</ele>
        <time>2014-07-15T10:39:25Z</time>
      </trkpt>
      <trkpt lat="47.83845" lon="6.92658">
        <ele>854</ele>
        <time>2014-07-15T10:39:26Z</time>
      </trkpt>
      <trkpt lat="47.83845" lon="6.92658">
        <ele>854</ele>
        <time>2014-07-15T10:39:27Z</time>
      </trkpt>
      <trkpt lat="47.83845" lon="6.92658">
        <ele>854</ele>
        <time>2014-07-15T10:39:28Z</time>
      </trkpt>
      <trkpt lat="47.83845" lon="6.92658">
        <ele>854</ele>
        <time>2014-07-15T10:39:30Z</time>
      </trkpt>
      <trkpt lat="47.83845" lon="6.92658">
        <ele>854</ele>
        <time>2014-07-15T10:39:31Z</time>
      </trkpt>
      <trkpt lat="47.83845" lon="6.92658">
        <ele>854</ele>
        <time>2014-07-15T10:39:32Z</time>
      </trkpt>
      <trkpt lat="47.83845" lon="6.92658">
        <ele>854</ele>
        <time>2014-07-15T10:39:33Z</time>
      </trkpt>
      <trkpt lat="47.83845" lon="6.92658">
        <ele>854</ele>
        <time>2014-07-15T10:39:34Z</time>
      </trkpt>
      <trkpt lat="47.83845" lon="6.92658">
        <ele>854</ele>
        <time>2014-07-15T10:39:35Z</time>
      </trkpt>
      <trkpt lat="47.83845" lon="6.92658">
        <ele>854</ele>
        <time>2014-07-15T10:39:36Z</time>
      </trkpt>
      <trkpt lat="47.83845" lon="6.92658">
        <ele>854</ele>
        <time>2014-07-15T10:39:37Z</time>
      </trkpt>
      <trkpt lat="47.83845" lon="6.92658">
        <ele>854</ele>
        <time>2014-07-15T10:39:38Z</time>
      </trkpt>
      <trkpt lat="47.83845" lon="6.92658">
        <ele>854</ele>
        <time>2014-07-15T10:39:39Z</time>
      </trkpt>
      <trkpt lat="47.83845" lon="6.92658">
        <ele>854</ele>
        <time>2014-07-15T10:39:40Z</time>
      </trkpt>
      <trkpt lat="47.83845" lon="6.92658">
        <ele>854</ele>
        <time>2014-07-15T10:39:41Z</time>
      </trkpt>
      <trkpt lat="47.83845" lon="6.92657">
        <ele>854</ele>
        <time>2014-07-15T10:39:42Z</time>
      </trkpt>
      <trkpt lat="47.83845" lon="6.92658">
        <ele>854</ele>
        <time>2014-07-15T10:39:43Z</time>
      </trkpt>
      <trkpt lat="47.83845" lon="6.92658">
        <ele>854</ele>
        <time>2014-07-15T10:39:44Z</time>
      </trkpt>
      <trkpt lat="47.83845" lon="6.92658">
        <ele>854</ele>
        <time>2014-07-15T10:39:45Z</time>
      </trkpt>
      <trkpt lat="47.83844" lon="6.92658">
        <ele>854</ele>
        <time>2014-07-15T10:39:46Z</time>
      </trkpt>
      <trkpt lat="47.83844" lon="6.92658">
        <ele>854</ele>
        <time>2014-07-15T10:39:47Z</time>
      </trkpt>
      <trkpt lat="47.83844" lon="6.92658">
        <ele>854</ele>
        <time>2014-07-15T10:39:48Z</time>
      </trkpt>
      <trkpt lat="47.83844" lon="6.92658">
        <ele>854</ele>
        <time>2014-07-15T10:39:49Z</time>
      </trkpt>
      <trkpt lat="47.83844" lon="6.92658">
        <ele>854</ele>
        <time>2014-07-15T10:39:50Z</time>
      </trkpt>
      <trkpt lat="47.83844" lon="6.92658">
        <ele>854</ele>
        <time>2014-07-15T10:39:51Z</time>
      </trkpt>
      <trkpt lat="47.83844" lon="6.92657">
        <ele>854</ele>
        <time>2014-07-15T10:39:52Z</time>
      </trkpt>
      <trkpt lat="47.83844" lon="6.92657">
        <ele>854</ele>
        <time>2014-07-15T10:39:53Z</time>
      </trkpt>
      <trkpt lat="47.83843" lon="6.92657">
        <ele>854</ele>
        <time>2014-07-15T10:39:54Z</time>
      </trkpt>
      <trkpt lat="47.83843" lon="6.92657">
        <ele>854</ele>
        <time>2014-07-15T10:39:55Z</time>
      </trkpt>
      <trkpt lat="47.83843" lon="6.92657">
        <ele>854</ele>
        <time>2014-07-15T10:39:56Z</time>
      </trkpt>
      <trkpt lat="47.83843" lon="6.92657">
        <ele>854</ele>
        <time>2014-07-15T10:39:57Z</time>
      </trkpt>
      <trkpt lat="47.83843" lon="6.92657">
        <ele>854</ele>
        <time>2014-07-15T10:39:58Z</time>
      </trkpt>
      <trkpt lat="47.83843" lon="6.92657">
        <ele>854</ele>
        <time>2014-07-15T10:39:59Z</time>
      </trkpt>
      <trkpt lat="47.83843" lon="6.92657">
        <ele>854</ele>
        <time>2014-07-15T10:40:00Z</time>
      </trkpt>
      <trkpt lat="47.83843" lon="6.92657">
        <ele>854</ele>
        <time>2014-07-15T10:40:01Z</time>
      </trkpt>
      <trkpt lat="47.83843" lon="6.92657">
        <ele>854</ele>
        <time>2014-07-15T10:40:02Z</time>
      </trkpt>
      <trkpt lat="47.83843" lon="6.92657">
        <ele>854</ele>
        <time>2014-07-15T10:40:03Z</time>
      </trkpt>
      <trkpt lat="47.83843" lon="6.92657">
        <ele>854</ele>
        <time>2014-07-15T10:40:04Z</time>
      </trkpt>
      <trkpt lat="47.83843" lon="6.92657">
        <ele>854</ele>
        <time>2014-07-15T10:40:05Z</time>
      </trkpt>
      <trkpt lat="47.83843" lon="6.92657">
        <ele>854</ele>
        <time>2014-07-15T10:40:06Z</time>
      </trkpt>
      <trkpt lat="47.83843" lon="6.92657">
        <ele>854</ele>
        <time>2014-07-15T10:40:07Z</time>
      </trkpt>
      <trkpt lat="47.83843" lon="6.92657">
        <ele>854</ele>
        <time>2014-07-15T10:40:08Z</time>
      </trkpt>
      <trkpt lat="47.83843" lon="6.92657">
        <ele>854</ele>
        <time>2014-07-15T10:40:09Z</time>
      </trkpt>
      <trkpt lat="47.83843" lon="6.92657">
        <ele>854</ele>
        <time>2014-07-15T10:40:10Z</time>
      </trkpt>
      <trkpt lat="47.83843" lon="6.92657">
        <ele>854</ele>
        <time>2014-07-15T10:40:11Z</time>
      </trkpt>
      <trkpt lat="47.83843" lon="6.92657">
        <ele>854</ele>
        <time>2014-07-15T10:40:12Z</time>
      </trkpt>
      <trkpt lat="47.83843" lon="6.92657">
        <ele>854</ele>
        <time>2014-07-15T10:40:13Z</time>
      </trkpt>
      <trkpt lat="47.83843" lon="6.92657">
        <ele>854</ele>
        <time>2014-07-15T10:40:14Z</time>
      </trkpt>
      <trkpt lat="47.83843" lon="6.92657">
        <ele>854</ele>
        <time>2014-07-15T10:40:15Z</time>
      </trkpt>
      <trkpt lat="47.83843" lon="6.92657">
        <ele>854</ele>
        <time>2014-07-15T10:40:16Z</time>
      </trkpt>
      <trkpt lat="47.83843" lon="6.92657">
        <ele>854</ele>
        <time>2014-07-15T10:40:17Z</time>
      </trkpt>
      <trkpt lat="47.83843" lon="6.92657">
        <ele>854</ele>
        <time>2014-07-15T10:40:18Z</time>
      </trkpt>
      <trkpt lat="47.83843" lon="6.92657">
        <ele>854</ele>
        <time>2014-07-15T10:40:19Z</time>
      </trkpt>
      <trkpt lat="47.83843" lon="6.92657">
        <ele>854</ele>
        <time>2014-07-15T10:40:20Z</time>
      </trkpt>
      <trkpt lat="47.83843" lon="6.92657">
        <ele>854</ele>
        <time>2014-07-15T10:40:21Z</time>
      </trkpt>
      <trkpt lat="47.83843" lon="6.92657">
        <ele>854</ele>
        <time>2014-07-15T10:40:22Z</time>
      </trkpt>
      <trkpt lat="47.83843" lon="6.92657">
        <ele>854</ele>
        <time>2014-07-15T10:40:23Z</time>
      </trkpt>
      <trkpt lat="47.83843" lon="6.92657">
        <ele>854</ele>
        <time>2014-07-15T10:40:24Z</time>
      </trkpt>
      <trkpt lat="47.83843" lon="6.92657">
        <ele>854</ele>
        <time>2014-07-15T10:40:25Z</time>
      </trkpt>
      <trkpt lat="47.83843" lon="6.92657">
        <ele>854</ele>
        <time>2014-07-15T10:40:26Z</time>
      </trkpt>
      <trkpt lat="47.83843" lon="6.92657">
        <ele>854</ele>
        <time>2014-07-15T10:40:27Z</time>
      </trkpt>
      <trkpt lat="47.83843" lon="6.92657">
        <ele>854</ele>
        <time>2014-07-15T10:40:28Z</time>
      </trkpt>
      <trkpt lat="47.83843" lon="6.92657">
        <ele>854</ele>
        <time>2014-07-15T10:40:29Z</time>
      </trkpt>
      <trkpt lat="47.83843" lon="6.92657">
        <ele>854</ele>
        <time>2014-07-15T10:40:30Z</time>
      </trkpt>
      <trkpt lat="47.83843" lon="6.92657">
        <ele>854</ele>
        <time>2014-07-15T10:40:31Z</time>
      </trkpt>
      <trkpt lat="47.83843" lon="6.92657">
        <ele>854</ele>
        <time>2014-07-15T10:40:32Z</time>
      </trkpt>
      <trkpt lat="47.83843" lon="6.92657">
        <ele>854</ele>
        <time>2014-07-15T10:40:33Z</time>
      </trkpt>
      <trkpt lat="47.83843" lon="6.92657">
        <ele>854</ele>
        <time>2014-07-15T10:40:34Z</time>
      </trkpt>
      <trkpt lat="47.83843" lon="6.92657">
        <ele>854</ele>
        <time>2014-07-15T10:40:35Z</time>
      </trkpt>
      <trkpt lat="47.83843" lon="6.92657">
        <ele>854</ele>
        <time>2014-07-15T10:40:36Z</time>
      </trkpt>
      <trkpt lat="47.83843" lon="6.92657">
        <ele>854</ele>
        <time>2014-07-15T10:40:37Z</time>
      </trkpt>
      <trkpt lat="47.83843" lon="6.92657">
        <ele>854</ele>
        <time>2014-07-15T10:40:38Z</time>
      </trkpt>
      <trkpt lat="47.83843" lon="6.92657">
        <ele>854</ele>
        <time>2014-07-15T10:40:39Z</time>
      </trkpt>
      <trkpt lat="47.83843" lon="6.92657">
        <ele>854</ele>
        <time>2014-07-15T10:40:40Z</time>
      </trkpt>
      <trkpt lat="47.83843" lon="6.92657">
        <ele>854</ele>
        <time>2014-07-15T10:40:41Z</time>
      </trkpt>
      <trkpt lat="47.83843" lon="6.92657">
        <ele>854</ele>
        <time>2014-07-15T10:40:42Z</time>
      </trkpt>
      <trkpt lat="47.83843" lon="6.92657">
        <ele>854</ele>
        <time>2014-07-15T10:40:43Z</time>
      </trkpt>
      <trkpt lat="47.83843" lon="6.92657">
        <ele>854</ele>
        <time>2014-07-15T10:40:44Z</time>
      </trkpt>
      <trkpt lat="47.83843" lon="6.92657">
        <ele>854</ele>
        <time>2014-07-15T10:40:45Z</time>
      </trkpt>
      <trkpt lat="47.83843" lon="6.92657">
        <ele>854</ele>
        <time>2014-07-15T10:40:46Z</time>
      </trkpt>
      <trkpt lat="47.83843" lon="6.92657">
        <ele>854</ele>
        <time>2014-07-15T10:40:47Z</time>
      </trkpt>
      <trkpt lat="47.83843" lon="6.92657">
        <ele>854</ele>
        <time>2014-07-15T10:40:48Z</time>
      </trkpt>
      <trkpt lat="47.83843" lon="6.92657">
        <ele>854</ele>
        <time>2014-07-15T10:40:49Z</time>
      </trkpt>
      <trkpt lat="47.83843" lon="6.92657">
        <ele>854</ele>
        <time>2014-07-15T10:40:50Z</time>
      </trkpt>
      <trkpt lat="47.83843" lon="6.92657">
        <ele>854</ele>
        <time>2014-07-15T10:40:51Z</time>
      </trkpt>
      <trkpt lat="47.83843" lon="6.92657">
        <ele>854</ele>
        <time>2014-07-15T10:40:52Z</time>
      </trkpt>
      <trkpt lat="47.83843" lon="6.92657">
        <ele>854</ele>
        <time>2014-07-15T10:40:53Z</time>
      </trkpt>
      <trkpt lat="47.83843" lon="6.92657">
        <ele>854</ele>
        <time>2014-07-15T10:40:54Z</time>
      </trkpt>
      <trkpt lat="47.83843" lon="6.92657">
        <ele>854</ele>
        <time>2014-07-15T10:40:55Z</time>
      </trkpt>
      <trkpt lat="47.83843" lon="6.92657">
        <ele>854</ele>
        <time>2014-07-15T10:40:56Z</time>
      </trkpt>
      <trkpt lat="47.83843" lon="6.92657">
        <ele>854</ele>
        <time>2014-07-15T10:40:57Z</time>
      </trkpt>
      <trkpt lat="47.83843" lon="6.92657">
        <ele>854</ele>
        <time>2014-07-15T10:40:58Z</time>
      </trkpt>
      <trkpt lat="47.83843" lon="6.92657">
        <ele>854</ele>
        <time>2014-07-15T10:40:59Z</time>
      </trkpt>
      <trkpt lat="47.83843" lon="6.92657">
        <ele>854</ele>
        <time>2014-07-15T10:41:00Z</time>
      </trkpt>
      <trkpt lat="47.83843" lon="6.92657">
        <ele>854</ele>
        <time>2014-07-15T10:41:01Z</time>
      </trkpt>
      <trkpt lat="47.83843" lon="6.92657">
        <ele>854</ele>
        <time>2014-07-15T10:41:02Z</time>
      </trkpt>
      <trkpt lat="47.83843" lon="6.92657">
        <ele>854</ele>
        <time>2014-07-15T10:41:03Z</time>
      </trkpt>
      <trkpt lat="47.83843" lon="6.92657">
        <ele>854</ele>
        <time>2014-07-15T10:41:04Z</time>
      </trkpt>
      <trkpt lat="47.83843" lon="6.92657">
        <ele>854</ele>
        <time>2014-07-15T10:41:05Z</time>
      </trkpt>
      <trkpt lat="47.83843" lon="6.92657">
        <ele>854</ele>
        <time>2014-07-15T10:41:06Z</time>
      </trkpt>
      <trkpt lat="47.83843" lon="6.92657">
        <ele>854</ele>
        <time>2014-07-15T10:41:07Z</time>
      </trkpt>
      <trkpt lat="47.83843" lon="6.92657">
        <ele>854</ele>
        <time>2014-07-15T10:41:08Z</time>
      </trkpt>
      <trkpt lat="47.83843" lon="6.92657">
        <ele>854</ele>
        <time>2014-07-15T10:41:09Z</time>
      </trkpt>
      <trkpt lat="47.83843" lon="6.92657">
        <ele>854</ele>
        <time>2014-07-15T10:41:10Z</time>
      </trkpt>
      <trkpt lat="47.83843" lon="6.92657">
        <ele>854</ele>
        <time>2014-07-15T10:41:11Z</time>
      </trkpt>
      <trkpt lat="47.83843" lon="6.92657">
        <ele>854</ele>
        <time>2014-07-15T10:41:12Z</time>
      </trkpt>
      <trkpt lat="47.83843" lon="6.92657">
        <ele>854</ele>
        <time>2014-07-15T10:41:13Z</time>
      </trkpt>
      <trkpt lat="47.83843" lon="6.92657">
        <ele>854</ele>
        <time>2014-07-15T10:41:14Z</time>
      </trkpt>
      <trkpt lat="47.83843" lon="6.92657">
        <ele>854</ele>
        <time>2014-07-15T10:41:15Z</time>
      </trkpt>
      <trkpt lat="47.83843" lon="6.92657">
        <ele>854</ele>
        <time>2014-07-15T10:41:16Z</time>
      </trkpt>
      <trkpt lat="47.83843" lon="6.92657">
        <ele>854</ele>
        <time>2014-07-15T10:41:17Z</time>
      </trkpt>
      <trkpt lat="47.83843" lon="6.92657">
        <ele>854</ele>
        <time>2014-07-15T10:41:18Z</time>
      </trkpt>
      <trkpt lat="47.83843" lon="6.92657">
        <ele>854</ele>
        <time>2014-07-15T10:41:19Z</time>
      </trkpt>
      <trkpt lat="47.83843" lon="6.92657">
        <ele>854</ele>
        <time>2014-07-15T10:41:20Z</time>
      </trkpt>
      <trkpt lat="47.83843" lon="6.92657">
        <ele>854</ele>
        <time>2014-07-15T10:41:21Z</time>
      </trkpt>
      <trkpt lat="47.83844" lon="6.92656">
        <ele>854</ele>
        <time>2014-07-15T10:41:22Z</time>
      </trkpt>
      <trkpt lat="47.83844" lon="6.92656">
        <ele>854</ele>
        <time>2014-07-15T10:41:23Z</time>
      </trkpt>
      <trkpt lat="47.83844" lon="6.92655">
        <ele>854</ele>
        <time>2014-07-15T10:41:24Z</time>
      </trkpt>
      <trkpt lat="47.83844" lon="6.92655">
        <ele>854</ele>
        <time>2014-07-15T10:41:25Z</time>
      </trkpt>
      <trkpt lat="47.83844" lon="6.92655">
        <ele>854</ele>
        <time>2014-07-15T10:41:26Z</time>
      </trkpt>
      <trkpt lat="47.83844" lon="6.92655">
        <ele>854</ele>
        <time>2014-07-15T10:41:27Z</time>
      </trkpt>
      <trkpt lat="47.83845" lon="6.92655">
        <ele>854</ele>
        <time>2014-07-15T10:41:28Z</time>
      </trkpt>
      <trkpt lat="47.83845" lon="6.92656">
        <ele>854</ele>
        <time>2014-07-15T10:41:29Z</time>
      </trkpt>
      <trkpt lat="47.83845" lon="6.92656">
        <ele>854</ele>
        <time>2014-07-15T10:41:31Z</time>
      </trkpt>
      <trkpt lat="47.83845" lon="6.92656">
        <ele>854</ele>
        <time>2014-07-15T10:41:32Z</time>
      </trkpt>
      <trkpt lat="47.83845" lon="6.92656">
        <ele>854</ele>
        <time>2014-07-15T10:41:33Z</time>
      </trkpt>
      <trkpt lat="47.83845" lon="6.92656">
        <ele>854</ele>
        <time>2014-07-15T10:41:34Z</time>
      </trkpt>
      <trkpt lat="47.83845" lon="6.92656">
        <ele>854</ele>
        <time>2014-07-15T10:41:35Z</time>
      </trkpt>
      <trkpt lat="47.83845" lon="6.92656">
        <ele>854</ele>
        <time>2014-07-15T10:41:36Z</time>
      </trkpt>
      <trkpt lat="47.83845" lon="6.92656">
        <ele>854</ele>
        <time>2014-07-15T10:41:37Z</time>
      </trkpt>
      <trkpt lat="47.83846" lon="6.92656">
        <ele>854</ele>
        <time>2014-07-15T10:41:38Z</time>
      </trkpt>
      <trkpt lat="47.83846" lon="6.92656">
        <ele>854</ele>
        <time>2014-07-15T10:41:39Z</time>
      </trkpt>
      <trkpt lat="47.83846" lon="6.92656">
        <ele>854</ele>
        <time>2014-07-15T10:41:40Z</time>
      </trkpt>
      <trkpt lat="47.83846" lon="6.92656">
        <ele>854</ele>
        <time>2014-07-15T10:41:41Z</time>
      </trkpt>
      <trkpt lat="47.83846" lon="6.92656">
        <ele>854</ele>
        <time>2014-07-15T10:41:42Z</time>
      </trkpt>
      <trkpt lat="47.83846" lon="6.92656">
        <ele>854</ele>
        <time>2014-07-15T10:41:43Z</time>
      </trkpt>
      <trkpt lat="47.83846" lon="6.92656">
        <ele>854</ele>
        <time>2014-07-15T10:41:44Z</time>
      </trkpt>
      <trkpt lat="47.83846" lon="6.92656">
        <ele>854</ele>
        <time>2014-07-15T10:41:45Z</time>
      </trkpt>
      <trkpt lat="47.83846" lon="6.92656">
        <ele>854</ele>
        <time>2014-07-15T10:41:46Z</time>
      </trkpt>
      <trkpt lat="47.83846" lon="6.92656">
        <ele>854</ele>
        <time>2014-07-15T10:41:47Z</time>
      </trkpt>
      <trkpt lat="47.83846" lon="6.92656">
        <ele>854</ele>
        <time>2014-07-15T10:41:48Z</time>
      </trkpt>
      <trkpt lat="47.83846" lon="6.92656">
        <ele>854</ele>
        <time>2014-07-15T10:41:49Z</time>
      </trkpt>
      <trkpt lat="47.83846" lon="6.92656">
        <ele>854</ele>
        <time>2014-07-15T10:41:50Z</time>
      </trkpt>
      <trkpt lat="47.83846" lon="6.92656">
        <ele>854</ele>
        <time>2014-07-15T10:41:52Z</time>
      </trkpt>
      <trkpt lat="47.83846" lon="6.92656">
        <ele>854</ele>
        <time>2014-07-15T10:41:54Z</time>
      </trkpt>
      <trkpt lat="47.83846" lon="6.92656">
        <ele>854</ele>
        <time>2014-07-15T10:41:55Z</time>
      </trkpt>
      <trkpt lat="47.83846" lon="6.92656">
        <ele>854</ele>
        <time>2014-07-15T10:41:56Z</time>
      </trkpt>
      <trkpt lat="47.83846" lon="6.92656">
        <ele>854</ele>
        <time>2014-07-15T10:41:57Z</time>
      </trkpt>
      <trkpt lat="47.83846" lon="6.92656">
        <ele>854</ele>
        <time>2014-07-15T10:41:58Z</time>
      </trkpt>
      <trkpt lat="47.83846" lon="6.92656">
        <ele>854</ele>
        <time>2014-07-15T10:41:59Z</time>
      </trkpt>
      <trkpt lat="47.83846" lon="6.92656">
        <ele>854</ele>
        <time>2014-07-15T10:42:00Z</time>
      </trkpt>
      <trkpt lat="47.83846" lon="6.92656">
        <ele>854</ele>
        <time>2014-07-15T10:42:01Z</time>
      </trkpt>
      <trkpt lat="47.83846" lon="6.92656">
        <ele>854</ele>
        <time>2014-07-15T10:42:02Z</time>
      </trkpt>
      <trkpt lat="47.83846" lon="6.92656">
        <ele>854</ele>
        <time>2014-07-15T10:42:03Z</time>
      </trkpt>
      <trkpt lat="47.83846" lon="6.92655">
        <ele>854</ele>
        <time>2014-07-15T10:42:05Z</time>
      </trkpt>
      <trkpt lat="47.83846" lon="6.92653">
        <ele>854</ele>
        <time>2014-07-15T10:42:06Z</time>
      </trkpt>
      <trkpt lat="47.83846" lon="6.92651">
        <ele>855</ele>
        <time>2014-07-15T10:42:07Z</time>
      </trkpt>
      <trkpt lat="47.83847" lon="6.9265">
        <ele>855</ele>
        <time>2014-07-15T10:42:08Z</time>
      </trkpt>
      <trkpt lat="47.83847" lon="6.92648">
        <ele>855</ele>
        <time>2014-07-15T10:42:09Z</time>
      </trkpt>
      <trkpt lat="47.83848" lon="6.92646">
        <ele>855</ele>
        <time>2014-07-15T10:42:10Z</time>
      </trkpt>
      <trkpt lat="47.83849" lon="6.92645">
        <ele>855</ele>
        <time>2014-07-15T10:42:11Z</time>
      </trkpt>
      <trkpt lat="47.8385" lon="6.92643">
        <ele>856</ele>
        <time>2014-07-15T10:42:12Z</time>
      </trkpt>
      <trkpt lat="47.83852" lon="6.92639">
        <ele>856</ele>
        <time>2014-07-15T10:42:14Z</time>
      </trkpt>
      <trkpt lat="47.83852" lon="6.92636">
        <ele>856</ele>
        <time>2014-07-15T10:42:15Z</time>
      </trkpt>
      <trkpt lat="47.83853" lon="6.92634">
        <ele>856</ele>
        <time>2014-07-15T10:42:17Z</time>
      </trkpt>
      <trkpt lat="47.83853" lon="6.92634">
        <ele>856</ele>
        <time>2014-07-15T10:42:18Z</time>
      </trkpt>
      <trkpt lat="47.83853" lon="6.92633">
        <ele>856</ele>
        <time>2014-07-15T10:42:19Z</time>
      </trkpt>
      <trkpt lat="47.83853" lon="6.92633">
        <ele>856</ele>
        <time>2014-07-15T10:42:20Z</time>
      </trkpt>
      <trkpt lat="47.83854" lon="6.92633">
        <ele>856</ele>
        <time>2014-07-15T10:42:21Z</time>
      </trkpt>
      <trkpt lat="47.83854" lon="6.92632">
        <ele>857</ele>
        <time>2014-07-15T10:42:22Z</time>
      </trkpt>
      <trkpt lat="47.83854" lon="6.92632">
        <ele>857</ele>
        <time>2014-07-15T10:42:23Z</time>
      </trkpt>
      <trkpt lat="47.83854" lon="6.92631">
        <ele>857</ele>
        <time>2014-07-15T10:42:24Z</time>
      </trkpt>
      <trkpt lat="47.83855" lon="6.92631">
        <ele>857</ele>
        <time>2014-07-15T10:42:25Z</time>
      </trkpt>
      <trkpt lat="47.83856" lon="6.92631">
        <ele>857</ele>
        <time>2014-07-15T10:42:26Z</time>
      </trkpt>
      <trkpt lat="47.83857" lon="6.9263">
        <ele>857</ele>
        <time>2014-07-15T10:42:27Z</time>
      </trkpt>
      <trkpt lat="47.83858" lon="6.9263">
        <ele>857</ele>
        <time>2014-07-15T10:42:28Z</time>
      </trkpt>
      <trkpt lat="47.83859" lon="6.92629">
        <ele>857</ele>
        <time>2014-07-15T10:42:29Z</time>
      </trkpt>
      <trkpt lat="47.8386" lon="6.92627">
        <ele>857</ele>
        <time>2014-07-15T10:42:30Z</time>
      </trkpt>
      <trkpt lat="47.83863" lon="6.92621">
        <ele>857</ele>
        <time>2014-07-15T10:42:34Z</time>
      </trkpt>
      <trkpt lat="47.83864" lon="6.9262">
        <ele>857</ele>
        <time>2014-07-15T10:42:35Z</time>
      </trkpt>
      <trkpt lat="47.83865" lon="6.92619">
        <ele>857</ele>
        <time>2014-07-15T10:42:36Z</time>
      </trkpt>
      <trkpt lat="47.83866" lon="6.92618">
        <ele>857</ele>
        <time>2014-07-15T10:42:37Z</time>
      </trkpt>
      <trkpt lat="47.83866" lon="6.92616">
        <ele>858</ele>
        <time>2014-07-15T10:42:38Z</time>
      </trkpt>
      <trkpt lat="47.83866" lon="6.92614">
        <ele>858</ele>
        <time>2014-07-15T10:42:39Z</time>
      </trkpt>
      <trkpt lat="47.83866" lon="6.92611">
        <ele>858</ele>
        <time>2014-07-15T10:42:40Z</time>
      </trkpt>
      <trkpt lat="47.83865" lon="6.92609">
        <ele>858</ele>
        <time>2014-07-15T10:42:41Z</time>
      </trkpt>
      <trkpt lat="47.83864" lon="6.92607">
        <ele>858</ele>
        <time>2014-07-15T10:42:43Z</time>
      </trkpt>
      <trkpt lat="47.83865" lon="6.92606">
        <ele>858</ele>
        <time>2014-07-15T10:42:44Z</time>
      </trkpt>
      <trkpt lat="47.83865" lon="6.92605">
        <ele>858</ele>
        <time>2014-07-15T10:42:45Z</time>
      </trkpt>
      <trkpt lat="47.83866" lon="6.92604">
        <ele>858</ele>
        <time>2014-07-15T10:42:46Z</time>
      </trkpt>
      <trkpt lat="47.83867" lon="6.92603">
        <ele>858</ele>
        <time>2014-07-15T10:42:47Z</time>
      </trkpt>
      <trkpt lat="47.83868" lon="6.92602">
        <ele>858</ele>
        <time>2014-07-15T10:42:48Z</time>
      </trkpt>
      <trkpt lat="47.83869" lon="6.92601">
        <ele>858</ele>
        <time>2014-07-15T10:42:49Z</time>
      </trkpt>
      <trkpt lat="47.8387" lon="6.926">
        <ele>858</ele>
        <time>2014-07-15T10:42:50Z</time>
      </trkpt>
      <trkpt lat="47.83871" lon="6.92599">
        <ele>858</ele>
        <time>2014-07-15T10:42:51Z</time>
      </trkpt>
      <trkpt lat="47.83875" lon="6.92598">
        <ele>858</ele>
        <time>2014-07-15T10:42:55Z</time>
      </trkpt>
      <trkpt lat="47.83875" lon="6.92597">
        <ele>858</ele>
        <time>2014-07-15T10:42:56Z</time>
      </trkpt>
      <trkpt lat="47.83876" lon="6.92596">
        <ele>858</ele>
        <time>2014-07-15T10:42:57Z</time>
      </trkpt>
      <trkpt lat="47.83876" lon="6.92594">
        <ele>858</ele>
        <time>2014-07-15T10:42:58Z</time>
      </trkpt>
      <trkpt lat="47.83877" lon="6.92592">
        <ele>858</ele>
        <time>2014-07-15T10:42:59Z</time>
      </trkpt>
      <trkpt lat="47.83877" lon="6.92591">
        <ele>858</ele>
        <time>2014-07-15T10:43:00Z</time>
      </trkpt>
      <trkpt lat="47.83877" lon="6.9259">
        <ele>858</ele>
        <time>2014-07-15T10:43:01Z</time>
      </trkpt>
      <trkpt lat="47.83877" lon="6.92589">
        <ele>858</ele>
        <time>2014-07-15T10:43:02Z</time>
      </trkpt>
      <trkpt lat="47.83877" lon="6.92588">
        <ele>858</ele>
        <time>2014-07-15T10:43:03Z</time>
      </trkpt>
      <trkpt lat="47.83878" lon="6.92587">
        <ele>858</ele>
        <time>2014-07-15T10:43:04Z</time>
      </trkpt>
      <trkpt lat="47.83878" lon="6.92586">
        <ele>858</ele>
        <time>2014-07-15T10:43:05Z</time>
      </trkpt>
      <trkpt lat="47.83879" lon="6.92585">
        <ele>858</ele>
        <time>2014-07-15T10:43:06Z</time>
      </trkpt>
      <trkpt lat="47.83879" lon="6.92585">
        <ele>858</ele>
        <time>2014-07-15T10:43:07Z</time>
      </trkpt>
      <trkpt lat="47.8388" lon="6.92584">
        <ele>858</ele>
        <time>2014-07-15T10:43:08Z</time>
      </trkpt>
      <trkpt lat="47.8388" lon="6.92583">
        <ele>861</ele>
        <time>2014-07-15T10:43:09Z</time>
      </trkpt>
      <trkpt lat="47.83881" lon="6.92582">
        <ele>861</ele>
        <time>2014-07-15T10:43:10Z</time>
      </trkpt>
      <trkpt lat="47.83882" lon="6.92581">
        <ele>861</ele>
        <time>2014-07-15T10:43:11Z</time>
      </trkpt>
      <trkpt lat="47.83883" lon="6.9258">
        <ele>861</ele>
        <time>2014-07-15T10:43:12Z</time>
      </trkpt>
      <trkpt lat="47.83883" lon="6.92579">
        <ele>861</ele>
        <time>2014-07-15T10:43:13Z</time>
      </trkpt>
      <trkpt lat="47.83885" lon="6.92578">
        <ele>861</ele>
        <time>2014-07-15T10:43:14Z</time>
      </trkpt>
      <trkpt lat="47.83887" lon="6.92576">
        <ele>861</ele>
        <time>2014-07-15T10:43:17Z</time>
      </trkpt>
      <trkpt lat="47.83887" lon="6.92576">
        <ele>861</ele>
        <time>2014-07-15T10:43:18Z</time>
      </trkpt>
      <trkpt lat="47.83888" lon="6.92575">
        <ele>861</ele>
        <time>2014-07-15T10:43:19Z</time>
      </trkpt>
      <trkpt lat="47.8389" lon="6.92573">
        <ele>861</ele>
        <time>2014-07-15T10:43:21Z</time>
      </trkpt>
      <trkpt lat="47.83891" lon="6.92572">
        <ele>861</ele>
        <time>2014-07-15T10:43:22Z</time>
      </trkpt>
      <trkpt lat="47.83892" lon="6.92572">
        <ele>861</ele>
        <time>2014-07-15T10:43:23Z</time>
      </trkpt>
      <trkpt lat="47.83893" lon="6.92571">
        <ele>861</ele>
        <time>2014-07-15T10:43:24Z</time>
      </trkpt>
      <trkpt lat="47.83894" lon="6.92569">
        <ele>861</ele>
        <time>2014-07-15T10:43:25Z</time>
      </trkpt>
      <trkpt lat="47.83895" lon="6.92568">
        <ele>861</ele>
        <time>2014-07-15T10:43:26Z</time>
      </trkpt>
      <trkpt lat="47.83896" lon="6.92567">
        <ele>861</ele>
        <time>2014-07-15T10:43:27Z</time>
      </trkpt>
      <trkpt lat="47.83896" lon="6.92567">
        <ele>861</ele>
        <time>2014-07-15T10:43:28Z</time>
      </trkpt>
      <trkpt lat="47.83897" lon="6.92566">
        <ele>861</ele>
        <time>2014-07-15T10:43:29Z</time>
      </trkpt>
      <trkpt lat="47.83898" lon="6.92566">
        <ele>861</ele>
        <time>2014-07-15T10:43:30Z</time>
      </trkpt>
      <trkpt lat="47.83899" lon="6.92565">
        <ele>861</ele>
        <time>2014-07-15T10:43:31Z</time>
      </trkpt>
      <trkpt lat="47.83901" lon="6.92564">
        <ele>861</ele>
        <time>2014-07-15T10:43:32Z</time>
      </trkpt>
      <trkpt lat="47.83902" lon="6.92563">
        <ele>861</ele>
        <time>2014-07-15T10:43:33Z</time>
      </trkpt>
      <trkpt lat="47.83902" lon="6.92563">
        <ele>861</ele>
        <time>2014-07-15T10:43:34Z</time>
      </trkpt>
      <trkpt lat="47.83903" lon="6.92562">
        <ele>861</ele>
        <time>2014-07-15T10:43:35Z</time>
      </trkpt>
      <trkpt lat="47.83904" lon="6.92561">
        <ele>861</ele>
        <time>2014-07-15T10:43:36Z</time>
      </trkpt>
      <trkpt lat="47.83906" lon="6.92561">
        <ele>861</ele>
        <time>2014-07-15T10:43:37Z</time>
      </trkpt>
      <trkpt lat="47.83907" lon="6.92561">
        <ele>860</ele>
        <time>2014-07-15T10:43:38Z</time>
      </trkpt>
      <trkpt lat="47.83909" lon="6.9256">
        <ele>860</ele>
        <time>2014-07-15T10:43:39Z</time>
      </trkpt>
      <trkpt lat="47.8391" lon="6.92559">
        <ele>860</ele>
        <time>2014-07-15T10:43:40Z</time>
      </trkpt>
      <trkpt lat="47.8391" lon="6.92559">
        <ele>860</ele>
        <time>2014-07-15T10:43:41Z</time>
      </trkpt>
      <trkpt lat="47.83911" lon="6.92558">
        <ele>860</ele>
        <time>2014-07-15T10:43:42Z</time>
      </trkpt>
      <trkpt lat="47.83911" lon="6.92558">
        <ele>860</ele>
        <time>2014-07-15T10:43:43Z</time>
      </trkpt>
      <trkpt lat="47.83911" lon="6.92558">
        <ele>860</ele>
        <time>2014-07-15T10:43:44Z</time>
      </trkpt>
      <trkpt lat="47.83912" lon="6.92557">
        <ele>861</ele>
        <time>2014-07-15T10:43:45Z</time>
      </trkpt>
      <trkpt lat="47.83912" lon="6.92557">
        <ele>861</ele>
        <time>2014-07-15T10:43:46Z</time>
      </trkpt>
      <trkpt lat="47.83912" lon="6.92557">
        <ele>861</ele>
        <time>2014-07-15T10:43:47Z</time>
      </trkpt>
      <trkpt lat="47.83912" lon="6.92558">
        <ele>860</ele>
        <time>2014-07-15T10:43:48Z</time>
      </trkpt>
      <trkpt lat="47.83913" lon="6.92557">
        <ele>860</ele>
        <time>2014-07-15T10:43:49Z</time>
      </trkpt>
      <trkpt lat="47.83912" lon="6.92557">
        <ele>861</ele>
        <time>2014-07-15T10:43:50Z</time>
      </trkpt>
      <trkpt lat="47.83912" lon="6.92557">
        <ele>861</ele>
        <time>2014-07-15T10:43:51Z</time>
      </trkpt>
      <trkpt lat="47.83912" lon="6.92557">
        <ele>861</ele>
        <time>2014-07-15T10:43:52Z</time>
      </trkpt>
      <trkpt lat="47.83911" lon="6.92557">
        <ele>861</ele>
        <time>2014-07-15T10:43:53Z</time>
      </trkpt>
      <trkpt lat="47.83912" lon="6.92557">
        <ele>861</ele>
        <time>2014-07-15T10:43:54Z</time>
      </trkpt>
      <trkpt lat="47.83911" lon="6.92557">
        <ele>861</ele>
        <time>2014-07-15T10:43:55Z</time>
      </trkpt>
      <trkpt lat="47.83912" lon="6.92556">
        <ele>861</ele>
        <time>2014-07-15T10:43:56Z</time>
      </trkpt>
      <trkpt lat="47.83913" lon="6.92556">
        <ele>861</ele>
        <time>2014-07-15T10:43:57Z</time>
      </trkpt>
      <trkpt lat="47.83914" lon="6.92555">
        <ele>861</ele>
        <time>2014-07-15T10:43:58Z</time>
      </trkpt>
      <trkpt lat="47.83915" lon="6.92555">
        <ele>861</ele>
        <time>2014-07-15T10:43:59Z</time>
      </trkpt>
      <trkpt lat="47.83916" lon="6.92554">
        <ele>861</ele>
        <time>2014-07-15T10:44:00Z</time>
      </trkpt>
      <trkpt lat="47.83917" lon="6.92554">
        <ele>864</ele>
        <time>2014-07-15T10:44:01Z</time>
      </trkpt>
      <trkpt lat="47.83918" lon="6.92554">
        <ele>864</ele>
        <time>2014-07-15T10:44:02Z</time>
      </trkpt>
      <trkpt lat="47.83919" lon="6.92554">
        <ele>864</ele>
        <time>2014-07-15T10:44:03Z</time>
      </trkpt>
      <trkpt lat="47.8392" lon="6.92555">
        <ele>864</ele>
        <time>2014-07-15T10:44:04Z</time>
      </trkpt>
      <trkpt lat="47.83922" lon="6.92555">
        <ele>864</ele>
        <time>2014-07-15T10:44:05Z</time>
      </trkpt>
      <trkpt lat="47.83923" lon="6.92556">
        <ele>864</ele>
        <time>2014-07-15T10:44:06Z</time>
      </trkpt>
      <trkpt lat="47.83925" lon="6.92556">
        <ele>864</ele>
        <time>2014-07-15T10:44:07Z</time>
      </trkpt>
      <trkpt lat="47.83927" lon="6.92556">
        <ele>864</ele>
        <time>2014-07-15T10:44:08Z</time>
      </trkpt>
      <trkpt lat="47.83929" lon="6.92556">
        <ele>865</ele>
        <time>2014-07-15T10:44:09Z</time>
      </trkpt>
      <trkpt lat="47.8393" lon="6.92557">
        <ele>865</ele>
        <time>2014-07-15T10:44:10Z</time>
      </trkpt>
      <trkpt lat="47.83932" lon="6.92557">
        <ele>865</ele>
        <time>2014-07-15T10:44:11Z</time>
      </trkpt>
      <trkpt lat="47.83934" lon="6.92558">
        <ele>865</ele>
        <time>2014-07-15T10:44:12Z</time>
      </trkpt>
      <trkpt lat="47.83935" lon="6.92558">
        <ele>865</ele>
        <time>2014-07-15T10:44:13Z</time>
      </trkpt>
      <trkpt lat="47.83936" lon="6.92557">
        <ele>865</ele>
        <time>2014-07-15T10:44:14Z</time>
      </trkpt>
      <trkpt lat="47.83936" lon="6.92557">
        <ele>865</ele>
        <time>2014-07-15T10:44:15Z</time>
      </trkpt>
      <trkpt lat="47.83936" lon="6.92556">
        <ele>865</ele>
        <time>2014-07-15T10:44:16Z</time>
      </trkpt>
      <trkpt lat="47.83935" lon="6.92555">
        <ele>865</ele>
        <time>2014-07-15T10:44:17Z</time>
      </trkpt>
      <trkpt lat="47.83934" lon="6.92555">
        <ele>865</ele>
        <time>2014-07-15T10:44:18Z</time>
      </trkpt>
      <trkpt lat="47.83933" lon="6.92554">
        <ele>865</ele>
        <time>2014-07-15T10:44:19Z</time>
      </trkpt>
      <trkpt lat="47.83933" lon="6.92554">
        <ele>865</ele>
        <time>2014-07-15T10:44:20Z</time>
      </trkpt>
      <trkpt lat="47.83933" lon="6.92554">
        <ele>865</ele>
        <time>2014-07-15T10:44:21Z</time>
      </trkpt>
      <trkpt lat="47.83932" lon="6.92554">
        <ele>865</ele>
        <time>2014-07-15T10:44:22Z</time>
      </trkpt>
      <trkpt lat="47.83932" lon="6.92553">
        <ele>865</ele>
        <time>2014-07-15T10:44:23Z</time>
      </trkpt>
      <trkpt lat="47.83932" lon="6.92553">
        <ele>865</ele>
        <time>2014-07-15T10:44:24Z</time>
      </trkpt>
      <trkpt lat="47.83932" lon="6.92553">
        <ele>865</ele>
        <time>2014-07-15T10:44:25Z</time>
      </trkpt>
      <trkpt lat="47.83932" lon="6.92553">
        <ele>865</ele>
        <time>2014-07-15T10:44:26Z</time>
      </trkpt>
      <trkpt lat="47.83932" lon="6.92553">
        <ele>865</ele>
        <time>2014-07-15T10:44:27Z</time>
      </trkpt>
      <trkpt lat="47.83932" lon="6.92553">
        <ele>865</ele>
        <time>2014-07-15T10:44:28Z</time>
      </trkpt>
      <trkpt lat="47.83932" lon="6.92554">
        <ele>865</ele>
        <time>2014-07-15T10:44:29Z</time>
      </trkpt>
      <trkpt lat="47.83931" lon="6.92554">
        <ele>865</ele>
        <time>2014-07-15T10:44:30Z</time>
      </trkpt>
      <trkpt lat="47.8393" lon="6.92556">
        <ele>865</ele>
        <time>2014-07-15T10:44:32Z</time>
      </trkpt>
      <trkpt lat="47.8393" lon="6.92557">
        <ele>865</ele>
        <time>2014-07-15T10:44:33Z</time>
      </trkpt>
      <trkpt lat="47.8393" lon="6.92557">
        <ele>865</ele>
        <time>2014-07-15T10:44:34Z</time>
      </trkpt>
      <trkpt lat="47.83929" lon="6.92558">
        <ele>865</ele>
        <time>2014-07-15T10:44:35Z</time>
      </trkpt>
      <trkpt lat="47.83928" lon="6.92559">
        <ele>864</ele>
        <time>2014-07-15T10:44:36Z</time>
      </trkpt>
      <trkpt lat="47.83928" lon="6.92559">
        <ele>864</ele>
        <time>2014-07-15T10:44:37Z</time>
      </trkpt>
      <trkpt lat="47.83927" lon="6.9256">
        <ele>864</ele>
        <time>2014-07-15T10:44:38Z</time>
      </trkpt>
      <trkpt lat="47.83926" lon="6.9256">
        <ele>864</ele>
        <time>2014-07-15T10:44:39Z</time>
      </trkpt>
      <trkpt lat="47.83926" lon="6.92561">
        <ele>864</ele>
        <time>2014-07-15T10:44:40Z</time>
      </trkpt>
      <trkpt lat="47.83925" lon="6.92561">
        <ele>864</ele>
        <time>2014-07-15T10:44:41Z</time>
      </trkpt>
      <trkpt lat="47.83925" lon="6.92561">
        <ele>864</ele>
        <time>2014-07-15T10:44:42Z</time>
      </trkpt>
      <trkpt lat="47.83925" lon="6.92561">
        <ele>864</ele>
        <time>2014-07-15T10:44:43Z</time>
      </trkpt>
      <trkpt lat="47.83925" lon="6.92561">
        <ele>864</ele>
        <time>2014-07-15T10:44:45Z</time>
      </trkpt>
      <trkpt lat="47.83925" lon="6.92561">
        <ele>864</ele>
        <time>2014-07-15T10:44:46Z</time>
      </trkpt>
      <trkpt lat="47.83925" lon="6.92561">
        <ele>864</ele>
        <time>2014-07-15T10:44:47Z</time>
      </trkpt>
      <trkpt lat="47.83925" lon="6.92561">
        <ele>864</ele>
        <time>2014-07-15T10:44:48Z</time>
      </trkpt>
      <trkpt lat="47.83925" lon="6.92561">
        <ele>864</ele>
        <time>2014-07-15T10:44:49Z</time>
      </trkpt>
      <trkpt lat="47.83925" lon="6.92561">
        <ele>864</ele>
        <time>2014-07-15T10:44:50Z</time>
      </trkpt>
      <trkpt lat="47.83925" lon="6.92561">
        <ele>864</ele>
        <time>2014-07-15T10:44:51Z</time>
      </trkpt>
      <trkpt lat="47.83925" lon="6.9256">
        <ele>864</ele>
        <time>2014-07-15T10:44:52Z</time>
      </trkpt>
      <trkpt lat="47.83925" lon="6.9256">
        <ele>864</ele>
        <time>2014-07-15T10:44:53Z</time>
      </trkpt>
      <trkpt lat="47.83925" lon="6.9256">
        <ele>864</ele>
        <time>2014-07-15T10:44:54Z</time>
      </trkpt>
      <trkpt lat="47.83925" lon="6.9256">
        <ele>864</ele>
        <time>2014-07-15T10:44:55Z</time>
      </trkpt>
      <trkpt lat="47.83925" lon="6.9256">
        <ele>864</ele>
        <time>2014-07-15T10:44:57Z</time>
      </trkpt>
      <trkpt lat="47.83925" lon="6.9256">
        <ele>864</ele>
        <time>2014-07-15T10:44:58Z</time>
      </trkpt>
      <trkpt lat="47.83925" lon="6.9256">
        <ele>864</ele>
        <time>2014-07-15T10:44:59Z</time>
      </trkpt>
      <trkpt lat="47.83925" lon="6.9256">
        <ele>864</ele>
        <time>2014-07-15T10:45:00Z</time>
      </trkpt>
      <trkpt lat="47.83925" lon="6.9256">
        <ele>864</ele>
        <time>2014-07-15T10:45:01Z</time>
      </trkpt>
      <trkpt lat="47.83925" lon="6.9256">
        <ele>864</ele>
        <time>2014-07-15T10:45:02Z</time>
      </trkpt>
      <trkpt lat="47.83925" lon="6.9256">
        <ele>864</ele>
        <time>2014-07-15T10:45:03Z</time>
      </trkpt>
      <trkpt lat="47.83925" lon="6.9256">
        <ele>864</ele>
        <time>2014-07-15T10:45:04Z</time>
      </trkpt>
      <trkpt lat="47.83925" lon="6.9256">
        <ele>864</ele>
        <time>2014-07-15T10:45:05Z</time>
      </trkpt>
      <trkpt lat="47.83925" lon="6.9256">
        <ele>864</ele>
        <time>2014-07-15T10:45:06Z</time>
      </trkpt>
      <trkpt lat="47.83925" lon="6.9256">
        <ele>864</ele>
        <time>2014-07-15T10:45:07Z</time>
      </trkpt>
      <trkpt lat="47.83925" lon="6.9256">
        <ele>864</ele>
        <time>2014-07-15T10:45:08Z</time>
      </trkpt>
      <trkpt lat="47.83925" lon="6.9256">
        <ele>864</ele>
        <time>2014-07-15T10:45:17Z</time>
      </trkpt>
      <trkpt lat="47.83925" lon="6.9256">
        <ele>864</ele>
        <time>2014-07-15T10:45:18Z</time>
      </trkpt>
      <trkpt lat="47.83925" lon="6.9256">
        <ele>864</ele>
        <time>2014-07-15T10:45:23Z</time>
      </trkpt>
      <trkpt lat="47.83925" lon="6.9256">
        <ele>864</ele>
        <time>2014-07-15T10:45:24Z</time>
      </trkpt>
      <trkpt lat="47.83925" lon="6.9256">
        <ele>864</ele>
        <time>2014-07-15T10:45:25Z</time>
      </trkpt>
      <trkpt lat="47.83925" lon="6.9256">
        <ele>864</ele>
        <time>2014-07-15T10:45:26Z</time>
      </trkpt>
      <trkpt lat="47.83925" lon="6.9256">
        <ele>864</ele>
        <time>2014-07-15T10:45:27Z</time>
      </trkpt>
      <trkpt lat="47.83925" lon="6.9256">
        <ele>864</ele>
        <time>2014-07-15T10:45:28Z</time>
      </trkpt>
      <trkpt lat="47.83925" lon="6.9256">
        <ele>864</ele>
        <time>2014-07-15T10:45:29Z</time>
      </trkpt>
      <trkpt lat="47.83925" lon="6.9256">
        <ele>864</ele>
        <time>2014-07-15T10:45:30Z</time>
      </trkpt>
      <trkpt lat="47.83925" lon="6.9256">
        <ele>864</ele>
        <time>2014-07-15T10:45:31Z</time>
      </trkpt>
      <trkpt lat="47.83925" lon="6.9256">
        <ele>864</ele>
        <time>2014-07-15T10:45:32Z</time>
      </trkpt>
      <trkpt lat="47.83925" lon="6.9256">
        <ele>864</ele>
        <time>2014-07-15T10:45:33Z</time>
      </trkpt>
      <trkpt lat="47.83925" lon="6.9256">
        <ele>864</ele>
        <time>2014-07-15T10:45:34Z</time>
      </trkpt>
      <trkpt lat="47.83925" lon="6.9256">
        <ele>864</ele>
        <time>2014-07-15T10:45:35Z</time>
      </trkpt>
      <trkpt lat="47.83925" lon="6.9256">
        <ele>864</ele>
        <time>2014-07-15T10:45:36Z</time>
      </trkpt>
      <trkpt lat="47.83925" lon="6.9256">
        <ele>864</ele>
        <time>2014-07-15T10:45:37Z</time>
      </trkpt>
      <trkpt lat="47.83925" lon="6.9256">
        <ele>864</ele>
        <time>2014-07-15T10:45:38Z</time>
      </trkpt>
      <trkpt lat="47.83925" lon="6.9256">
        <ele>864</ele>
        <time>2014-07-15T10:45:39Z</time>
      </trkpt>
      <trkpt lat="47.83925" lon="6.9256">
        <ele>864</ele>
        <time>2014-07-15T10:45:40Z</time>
      </trkpt>
      <trkpt lat="47.83925" lon="6.9256">
        <ele>864</ele>
        <time>2014-07-15T10:45:41Z</time>
      </trkpt>
      <trkpt lat="47.83925" lon="6.9256">
        <ele>864</ele>
        <time>2014-07-15T10:45:42Z</time>
      </trkpt>
      <trkpt lat="47.83925" lon="6.9256">
        <ele>864</ele>
        <time>2014-07-15T10:45:43Z</time>
      </trkpt>
      <trkpt lat="47.83925" lon="6.9256">
        <ele>864</ele>
        <time>2014-07-15T10:45:45Z</time>
      </trkpt>
      <trkpt lat="47.83925" lon="6.9256">
        <ele>864</ele>
        <time>2014-07-15T10:45:46Z</time>
      </trkpt>
      <trkpt lat="47.83925" lon="6.9256">
        <ele>864</ele>
        <time>2014-07-15T10:45:47Z</time>
      </trkpt>
      <trkpt lat="47.83925" lon="6.9256">
        <ele>864</ele>
        <time>2014-07-15T10:45:48Z</time>
      </trkpt>
      <trkpt lat="47.83925" lon="6.9256">
        <ele>864</ele>
        <time>2014-07-15T10:45:49Z</time>
      </trkpt>
      <trkpt lat="47.83925" lon="6.9256">
        <ele>864</ele>
        <time>2014-07-15T10:45:50Z</time>
      </trkpt>
      <trkpt lat="47.83925" lon="6.9256">
        <ele>864</ele>
        <time>2014-07-15T10:45:52Z</time>
      </trkpt>
      <trkpt lat="47.83925" lon="6.9256">
        <ele>864</ele>
        <time>2014-07-15T10:45:53Z</time>
      </trkpt>
      <trkpt lat="47.83925" lon="6.9256">
        <ele>864</ele>
        <time>2014-07-15T10:45:54Z</time>
      </trkpt>
      <trkpt lat="47.83925" lon="6.9256">
        <ele>864</ele>
        <time>2014-07-15T10:45:55Z</time>
      </trkpt>
      <trkpt lat="47.83925" lon="6.92558">
        <ele>864</ele>
        <time>2014-07-15T10:45:56Z</time>
      </trkpt>
      <trkpt lat="47.83925" lon="6.92557">
        <ele>864</ele>
        <time>2014-07-15T10:45:57Z</time>
      </trkpt>
      <trkpt lat="47.83926" lon="6.92555">
        <ele>864</ele>
        <time>2014-07-15T10:45:58Z</time>
      </trkpt>
      <trkpt lat="47.83926" lon="6.92553">
        <ele>865</ele>
        <time>2014-07-15T10:45:59Z</time>
      </trkpt>
      <trkpt lat="47.83926" lon="6.92551">
        <ele>865</ele>
        <time>2014-07-15T10:46:00Z</time>
      </trkpt>
      <trkpt lat="47.83926" lon="6.9255">
        <ele>865</ele>
        <time>2014-07-15T10:46:01Z</time>
      </trkpt>
      <trkpt lat="47.83926" lon="6.92548">
        <ele>865</ele>
        <time>2014-07-15T10:46:02Z</time>
      </trkpt>
      <trkpt lat="47.83926" lon="6.92547">
        <ele>865</ele>
        <time>2014-07-15T10:46:03Z</time>
      </trkpt>
      <trkpt lat="47.83926" lon="6.92546">
        <ele>865</ele>
        <time>2014-07-15T10:46:04Z</time>
      </trkpt>
      <trkpt lat="47.83927" lon="6.92546">
        <ele>865</ele>
        <time>2014-07-15T10:46:05Z</time>
      </trkpt>
      <trkpt lat="47.83928" lon="6.92546">
        <ele>865</ele>
        <time>2014-07-15T10:46:06Z</time>
      </trkpt>
      <trkpt lat="47.83927" lon="6.92547">
        <ele>865</ele>
        <time>2014-07-15T10:46:07Z</time>
      </trkpt>
      <trkpt lat="47.83927" lon="6.92546">
        <ele>865</ele>
        <time>2014-07-15T10:46:08Z</time>
      </trkpt>
      <trkpt lat="47.83926" lon="6.92546">
        <ele>865</ele>
        <time>2014-07-15T10:46:09Z</time>
      </trkpt>
      <trkpt lat="47.83926" lon="6.92546">
        <ele>865</ele>
        <time>2014-07-15T10:46:10Z</time>
      </trkpt>
      <trkpt lat="47.83926" lon="6.92546">
        <ele>865</ele>
        <time>2014-07-15T10:46:11Z</time>
      </trkpt>
      <trkpt lat="47.83927" lon="6.92545">
        <ele>865</ele>
        <time>2014-07-15T10:46:12Z</time>
      </trkpt>
      <trkpt lat="47.83927" lon="6.92544">
        <ele>865</ele>
        <time>2014-07-15T10:46:13Z</time>
      </trkpt>
      <trkpt lat="47.83927" lon="6.92543">
        <ele>865</ele>
        <time>2014-07-15T10:46:14Z</time>
      </trkpt>
      <trkpt lat="47.83928" lon="6.92541">
        <ele>865</ele>
        <time>2014-07-15T10:46:15Z</time>
      </trkpt>
      <trkpt lat="47.83929" lon="6.92539">
        <ele>865</ele>
        <time>2014-07-15T10:46:16Z</time>
      </trkpt>
      <trkpt lat="47.83929" lon="6.92538">
        <ele>865</ele>
        <time>2014-07-15T10:46:17Z</time>
      </trkpt>
      <trkpt lat="47.8393" lon="6.92536">
        <ele>865</ele>
        <time>2014-07-15T10:46:18Z</time>
      </trkpt>
      <trkpt lat="47.83931" lon="6.92535">
        <ele>865</ele>
        <time>2014-07-15T10:46:19Z</time>
      </trkpt>
      <trkpt lat="47.83932" lon="6.92534">
        <ele>865</ele>
        <time>2014-07-15T10:46:20Z</time>
      </trkpt>
      <trkpt lat="47.83933" lon="6.92533">
        <ele>865</ele>
        <time>2014-07-15T10:46:21Z</time>
      </trkpt>
      <trkpt lat="47.83934" lon="6.92532">
        <ele>865</ele>
        <time>2014-07-15T10:46:22Z</time>
      </trkpt>
      <trkpt lat="47.83934" lon="6.92531">
        <ele>865</ele>
        <time>2014-07-15T10:46:23Z</time>
      </trkpt>
      <trkpt lat="47.83935" lon="6.9253">
        <ele>865</ele>
        <time>2014-07-15T10:46:24Z</time>
      </trkpt>
      <trkpt lat="47.83935" lon="6.92528">
        <ele>865</ele>
        <time>2014-07-15T10:46:25Z</time>
      </trkpt>
      <trkpt lat="47.83936" lon="6.92527">
        <ele>865</ele>
        <time>2014-07-15T10:46:26Z</time>
      </trkpt>
      <trkpt lat="47.83937" lon="6.92526">
        <ele>865</ele>
        <time>2014-07-15T10:46:27Z</time>
      </trkpt>
      <trkpt lat="47.83937" lon="6.92525">
        <ele>865</ele>
        <time>2014-07-15T10:46:28Z</time>
      </trkpt>
      <trkpt lat="47.83938" lon="6.92525">
        <ele>865</ele>
        <time>2014-07-15T10:46:29Z</time>
      </trkpt>
      <trkpt lat="47.83939" lon="6.92525">
        <ele>865</ele>
        <time>2014-07-15T10:46:30Z</time>
      </trkpt>
      <trkpt lat="47.8394" lon="6.92525">
        <ele>866</ele>
        <time>2014-07-15T10:46:31Z</time>
      </trkpt>
      <trkpt lat="47.83941" lon="6.92526">
        <ele>866</ele>
        <time>2014-07-15T10:46:32Z</time>
      </trkpt>
      <trkpt lat="47.83942" lon="6.92527">
        <ele>866</ele>
        <time>2014-07-15T10:46:33Z</time>
      </trkpt>
      <trkpt lat="47.83943" lon="6.92528">
        <ele>866</ele>
        <time>2014-07-15T10:46:34Z</time>
      </trkpt>
      <trkpt lat="47.83944" lon="6.92529">
        <ele>866</ele>
        <time>2014-07-15T10:46:35Z</time>
      </trkpt>
      <trkpt lat="47.83945" lon="6.9253">
        <ele>866</ele>
        <time>2014-07-15T10:46:36Z</time>
      </trkpt>
      <trkpt lat="47.83945" lon="6.92532">
        <ele>866</ele>
        <time>2014-07-15T10:46:37Z</time>
      </trkpt>
      <trkpt lat="47.83945" lon="6.92533">
        <ele>866</ele>
        <time>2014-07-15T10:46:38Z</time>
      </trkpt>
      <trkpt lat="47.83945" lon="6.92534">
        <ele>866</ele>
        <time>2014-07-15T10:46:39Z</time>
      </trkpt>
      <trkpt lat="47.83946" lon="6.92535">
        <ele>866</ele>
        <time>2014-07-15T10:46:40Z</time>
      </trkpt>
      <trkpt lat="47.83946" lon="6.92536">
        <ele>866</ele>
        <time>2014-07-15T10:46:41Z</time>
      </trkpt>
      <trkpt lat="47.83948" lon="6.92538">
        <ele>867</ele>
        <time>2014-07-15T10:46:43Z</time>
      </trkpt>
      <trkpt lat="47.83948" lon="6.92537">
        <ele>867</ele>
        <time>2014-07-15T10:46:44Z</time>
      </trkpt>
      <trkpt lat="47.83949" lon="6.92537">
        <ele>867</ele>
        <time>2014-07-15T10:46:45Z</time>
      </trkpt>
      <trkpt lat="47.8395" lon="6.92538">
        <ele>867</ele>
        <time>2014-07-15T10:46:46Z</time>
      </trkpt>
      <trkpt lat="47.8395" lon="6.92538">
        <ele>867</ele>
        <time>2014-07-15T10:46:47Z</time>
      </trkpt>
      <trkpt lat="47.8395" lon="6.92538">
        <ele>867</ele>
        <time>2014-07-15T10:46:48Z</time>
      </trkpt>
      <trkpt lat="47.83951" lon="6.92537">
        <ele>867</ele>
        <time>2014-07-15T10:46:49Z</time>
      </trkpt>
      <trkpt lat="47.83951" lon="6.92537">
        <ele>867</ele>
        <time>2014-07-15T10:46:50Z</time>
      </trkpt>
      <trkpt lat="47.83952" lon="6.92537">
        <ele>867</ele>
        <time>2014-07-15T10:46:51Z</time>
      </trkpt>
      <trkpt lat="47.83953" lon="6.92536">
        <ele>867</ele>
        <time>2014-07-15T10:46:53Z</time>
      </trkpt>
      <trkpt lat="47.83954" lon="6.92536">
        <ele>867</ele>
        <time>2014-07-15T10:46:54Z</time>
      </trkpt>
      <trkpt lat="47.83954" lon="6.92537">
        <ele>867</ele>
        <time>2014-07-15T10:46:55Z</time>
      </trkpt>
      <trkpt lat="47.83955" lon="6.92537">
        <ele>867</ele>
        <time>2014-07-15T10:46:56Z</time>
      </trkpt>
      <trkpt lat="47.83955" lon="6.92537">
        <ele>867</ele>
        <time>2014-07-15T10:46:57Z</time>
      </trkpt>
      <trkpt lat="47.83956" lon="6.92537">
        <ele>867</ele>
        <time>2014-07-15T10:46:58Z</time>
      </trkpt>
      <trkpt lat="47.83956" lon="6.92537">
        <ele>868</ele>
        <time>2014-07-15T10:46:59Z</time>
      </trkpt>
      <trkpt lat="47.83957" lon="6.92537">
        <ele>868</ele>
        <time>2014-07-15T10:47:00Z</time>
      </trkpt>
      <trkpt lat="47.83958" lon="6.92537">
        <ele>868</ele>
        <time>2014-07-15T10:47:01Z</time>
      </trkpt>
      <trkpt lat="47.83958" lon="6.92537">
        <ele>868</ele>
        <time>2014-07-15T10:47:02Z</time>
      </trkpt>
      <trkpt lat="47.83959" lon="6.92537">
        <ele>868</ele>
        <time>2014-07-15T10:47:03Z</time>
      </trkpt>
      <trkpt lat="47.8396" lon="6.92537">
        <ele>868</ele>
        <time>2014-07-15T10:47:04Z</time>
      </trkpt>
      <trkpt lat="47.8396" lon="6.92536">
        <ele>868</ele>
        <time>2014-07-15T10:47:05Z</time>
      </trkpt>
      <trkpt lat="47.83961" lon="6.92535">
        <ele>868</ele>
        <time>2014-07-15T10:47:07Z</time>
      </trkpt>
      <trkpt lat="47.83962" lon="6.92534">
        <ele>868</ele>
        <time>2014-07-15T10:47:08Z</time>
      </trkpt>
      <trkpt lat="47.83962" lon="6.92534">
        <ele>868</ele>
        <time>2014-07-15T10:47:09Z</time>
      </trkpt>
      <trkpt lat="47.83963" lon="6.92533">
        <ele>868</ele>
        <time>2014-07-15T10:47:10Z</time>
      </trkpt>
      <trkpt lat="47.83965" lon="6.92531">
        <ele>868</ele>
        <time>2014-07-15T10:47:12Z</time>
      </trkpt>
      <trkpt lat="47.83966" lon="6.9253">
        <ele>868</ele>
        <time>2014-07-15T10:47:13Z</time>
      </trkpt>
      <trkpt lat="47.83967" lon="6.92529">
        <ele>869</ele>
        <time>2014-07-15T10:47:14Z</time>
      </trkpt>
      <trkpt lat="47.83967" lon="6.92528">
        <ele>869</ele>
        <time>2014-07-15T10:47:16Z</time>
      </trkpt>
      <trkpt lat="47.83967" lon="6.92527">
        <ele>869</ele>
        <time>2014-07-15T10:47:17Z</time>
      </trkpt>
      <trkpt lat="47.83968" lon="6.92526">
        <ele>869</ele>
        <time>2014-07-15T10:47:18Z</time>
      </trkpt>
      <trkpt lat="47.83968" lon="6.92525">
        <ele>869</ele>
        <time>2014-07-15T10:47:19Z</time>
      </trkpt>
      <trkpt lat="47.83969" lon="6.92525">
        <ele>869</ele>
        <time>2014-07-15T10:47:20Z</time>
      </trkpt>
      <trkpt lat="47.8397" lon="6.92524">
        <ele>869</ele>
        <time>2014-07-15T10:47:21Z</time>
      </trkpt>
      <trkpt lat="47.8397" lon="6.92523">
        <ele>869</ele>
        <time>2014-07-15T10:47:22Z</time>
      </trkpt>
      <trkpt lat="47.8397" lon="6.92523">
        <ele>869</ele>
        <time>2014-07-15T10:47:23Z</time>
      </trkpt>
      <trkpt lat="47.8397" lon="6.92524">
        <ele>869</ele>
        <time>2014-07-15T10:47:24Z</time>
      </trkpt>
      <trkpt lat="47.83971" lon="6.92524">
        <ele>869</ele>
        <time>2014-07-15T10:47:25Z</time>
      </trkpt>
      <trkpt lat="47.83971" lon="6.92524">
        <ele>869</ele>
        <time>2014-07-15T10:47:26Z</time>
      </trkpt>
      <trkpt lat="47.83971" lon="6.92524">
        <ele>869</ele>
        <time>2014-07-15T10:47:27Z</time>
      </trkpt>
      <trkpt lat="47.83971" lon="6.92524">
        <ele>869</ele>
        <time>2014-07-15T10:47:28Z</time>
      </trkpt>
      <trkpt lat="47.83972" lon="6.92525">
        <ele>869</ele>
        <time>2014-07-15T10:47:29Z</time>
      </trkpt>
      <trkpt lat="47.83972" lon="6.92525">
        <ele>869</ele>
        <time>2014-07-15T10:47:30Z</time>
      </trkpt>
      <trkpt lat="47.83972" lon="6.92526">
        <ele>869</ele>
        <time>2014-07-15T10:47:31Z</time>
      </trkpt>
      <trkpt lat="47.83973" lon="6.92526">
        <ele>869</ele>
        <time>2014-07-15T10:47:32Z</time>
      </trkpt>
      <trkpt lat="47.83974" lon="6.92526">
        <ele>869</ele>
        <time>2014-07-15T10:47:33Z</time>
      </trkpt>
      <trkpt lat="47.83974" lon="6.92527">
        <ele>869</ele>
        <time>2014-07-15T10:47:34Z</time>
      </trkpt>
      <trkpt lat="47.83975" lon="6.92527">
        <ele>869</ele>
        <time>2014-07-15T10:47:35Z</time>
      </trkpt>
      <trkpt lat="47.83975" lon="6.92528">
        <ele>869</ele>
        <time>2014-07-15T10:47:36Z</time>
      </trkpt>
      <trkpt lat="47.83975" lon="6.92528">
        <ele>869</ele>
        <time>2014-07-15T10:47:37Z</time>
      </trkpt>
      <trkpt lat="47.83975" lon="6.92529">
        <ele>869</ele>
        <time>2014-07-15T10:47:38Z</time>
      </trkpt>
      <trkpt lat="47.83975" lon="6.92529">
        <ele>869</ele>
        <time>2014-07-15T10:47:39Z</time>
      </trkpt>
      <trkpt lat="47.83975" lon="6.92531">
        <ele>869</ele>
        <time>2014-07-15T10:47:41Z</time>
      </trkpt>
      <trkpt lat="47.83975" lon="6.92532">
        <ele>869</ele>
        <time>2014-07-15T10:47:42Z</time>
      </trkpt>
      <trkpt lat="47.83975" lon="6.92533">
        <ele>869</ele>
        <time>2014-07-15T10:47:43Z</time>
      </trkpt>
      <trkpt lat="47.83976" lon="6.92534">
        <ele>869</ele>
        <time>2014-07-15T10:47:44Z</time>
      </trkpt>
      <trkpt lat="47.83977" lon="6.92535">
        <ele>870</ele>
        <time>2014-07-15T10:47:45Z</time>
      </trkpt>
      <trkpt lat="47.83979" lon="6.92536">
        <ele>870</ele>
        <time>2014-07-15T10:47:46Z</time>
      </trkpt>
      <trkpt lat="47.8398" lon="6.92538">
        <ele>870</ele>
        <time>2014-07-15T10:47:47Z</time>
      </trkpt>
      <trkpt lat="47.83981" lon="6.9254">
        <ele>870</ele>
        <time>2014-07-15T10:47:48Z</time>
      </trkpt>
      <trkpt lat="47.83982" lon="6.92542">
        <ele>870</ele>
        <time>2014-07-15T10:47:49Z</time>
      </trkpt>
      <trkpt lat="47.83983" lon="6.92543">
        <ele>870</ele>
        <time>2014-07-15T10:47:50Z</time>
      </trkpt>
      <trkpt lat="47.83984" lon="6.92545">
        <ele>870</ele>
        <time>2014-07-15T10:47:51Z</time>
      </trkpt>
      <trkpt lat="47.83985" lon="6.92546">
        <ele>870</ele>
        <time>2014-07-15T10:47:52Z</time>
      </trkpt>
      <trkpt lat="47.83986" lon="6.92548">
        <ele>871</ele>
        <time>2014-07-15T10:47:53Z</time>
      </trkpt>
      <trkpt lat="47.83987" lon="6.9255">
        <ele>871</ele>
        <time>2014-07-15T10:47:54Z</time>
      </trkpt>
      <trkpt lat="47.83988" lon="6.92551">
        <ele>871</ele>
        <time>2014-07-15T10:47:55Z</time>
      </trkpt>
      <trkpt lat="47.83988" lon="6.92553">
        <ele>871</ele>
        <time>2014-07-15T10:47:56Z</time>
      </trkpt>
      <trkpt lat="47.83988" lon="6.92555">
        <ele>871</ele>
        <time>2014-07-15T10:47:57Z</time>
      </trkpt>
      <trkpt lat="47.83988" lon="6.92556">
        <ele>871</ele>
        <time>2014-07-15T10:47:58Z</time>
      </trkpt>
      <trkpt lat="47.83988" lon="6.92558">
        <ele>871</ele>
        <time>2014-07-15T10:47:59Z</time>
      </trkpt>
      <trkpt lat="47.83989" lon="6.92559">
        <ele>872</ele>
        <time>2014-07-15T10:48:00Z</time>
      </trkpt>
      <trkpt lat="47.83989" lon="6.9256">
        <ele>872</ele>
        <time>2014-07-15T10:48:01Z</time>
      </trkpt>
      <trkpt lat="47.83988" lon="6.92561">
        <ele>872</ele>
        <time>2014-07-15T10:48:02Z</time>
      </trkpt>
      <trkpt lat="47.83988" lon="6.92562">
        <ele>872</ele>
        <time>2014-07-15T10:48:03Z</time>
      </trkpt>
      <trkpt lat="47.83989" lon="6.92562">
        <ele>872</ele>
        <time>2014-07-15T10:48:05Z</time>
      </trkpt>
      <trkpt lat="47.8399" lon="6.92563">
        <ele>872</ele>
        <time>2014-07-15T10:48:07Z</time>
      </trkpt>
      <trkpt lat="47.83991" lon="6.92563">
        <ele>872</ele>
        <time>2014-07-15T10:48:08Z</time>
      </trkpt>
      <trkpt lat="47.83991" lon="6.92563">
        <ele>872</ele>
        <time>2014-07-15T10:48:09Z</time>
      </trkpt>
      <trkpt lat="47.83992" lon="6.92564">
        <ele>872</ele>
        <time>2014-07-15T10:48:10Z</time>
      </trkpt>
      <trkpt lat="47.83992" lon="6.92565">
        <ele>873</ele>
        <time>2014-07-15T10:48:11Z</time>
      </trkpt>
      <trkpt lat="47.83993" lon="6.92565">
        <ele>873</ele>
        <time>2014-07-15T10:48:12Z</time>
      </trkpt>
      <trkpt lat="47.83993" lon="6.92566">
        <ele>873</ele>
        <time>2014-07-15T10:48:13Z</time>
      </trkpt>
      <trkpt lat="47.83994" lon="6.92567">
        <ele>873</ele>
        <time>2014-07-15T10:48:14Z</time>
      </trkpt>
      <trkpt lat="47.83995" lon="6.92568">
        <ele>873</ele>
        <time>2014-07-15T10:48:15Z</time>
      </trkpt>
      <trkpt lat="47.83995" lon="6.92569">
        <ele>874</ele>
        <time>2014-07-15T10:48:16Z</time>
      </trkpt>
      <trkpt lat="47.83996" lon="6.92569">
        <ele>874</ele>
        <time>2014-07-15T10:48:17Z</time>
      </trkpt>
      <trkpt lat="47.83996" lon="6.92569">
        <ele>874</ele>
        <time>2014-07-15T10:48:18Z</time>
      </trkpt>
      <trkpt lat="47.83997" lon="6.9257">
        <ele>874</ele>
        <time>2014-07-15T10:48:19Z</time>
      </trkpt>
      <trkpt lat="47.83997" lon="6.9257">
        <ele>874</ele>
        <time>2014-07-15T10:48:20Z</time>
      </trkpt>
      <trkpt lat="47.83998" lon="6.9257">
        <ele>874</ele>
        <time>2014-07-15T10:48:21Z</time>
      </trkpt>
      <trkpt lat="47.83998" lon="6.9257">
        <ele>874</ele>
        <time>2014-07-15T10:48:22Z</time>
      </trkpt>
      <trkpt lat="47.83999" lon="6.9257">
        <ele>874</ele>
        <time>2014-07-15T10:48:23Z</time>
      </trkpt>
      <trkpt lat="47.83999" lon="6.92571">
        <ele>874</ele>
        <time>2014-07-15T10:48:25Z</time>
      </trkpt>
      <trkpt lat="47.84" lon="6.92571">
        <ele>874</ele>
        <time>2014-07-15T10:48:26Z</time>
      </trkpt>
      <trkpt lat="47.84001" lon="6.92571">
        <ele>882</ele>
        <time>2014-07-15T10:48:27Z</time>
      </trkpt>
      <trkpt lat="47.84002" lon="6.92572">
        <ele>882</ele>
        <time>2014-07-15T10:48:28Z</time>
      </trkpt>
      <trkpt lat="47.84003" lon="6.92573">
        <ele>882</ele>
        <time>2014-07-15T10:48:29Z</time>
      </trkpt>
      <trkpt lat="47.84004" lon="6.92573">
        <ele>882</ele>
        <time>2014-07-15T10:48:30Z</time>
      </trkpt>
      <trkpt lat="47.84005" lon="6.92574">
        <ele>882</ele>
        <time>2014-07-15T10:48:31Z</time>
      </trkpt>
      <trkpt lat="47.84006" lon="6.92575">
        <ele>882</ele>
        <time>2014-07-15T10:48:32Z</time>
      </trkpt>
      <trkpt lat="47.84007" lon="6.92577">
        <ele>882</ele>
        <time>2014-07-15T10:48:33Z</time>
      </trkpt>
      <trkpt lat="47.84009" lon="6.92578">
        <ele>882</ele>
        <time>2014-07-15T10:48:34Z</time>
      </trkpt>
      <trkpt lat="47.8401" lon="6.92579">
        <ele>882</ele>
        <time>2014-07-15T10:48:35Z</time>
      </trkpt>
      <trkpt lat="47.84012" lon="6.9258">
        <ele>883</ele>
        <time>2014-07-15T10:48:36Z</time>
      </trkpt>
      <trkpt lat="47.84013" lon="6.92581">
        <ele>883</ele>
        <time>2014-07-15T10:48:37Z</time>
      </trkpt>
      <trkpt lat="47.84015" lon="6.92581">
        <ele>884</ele>
        <time>2014-07-15T10:48:38Z</time>
      </trkpt>
      <trkpt lat="47.84016" lon="6.92582">
        <ele>884</ele>
        <time>2014-07-15T10:48:39Z</time>
      </trkpt>
      <trkpt lat="47.84017" lon="6.92583">
        <ele>884</ele>
        <time>2014-07-15T10:48:40Z</time>
      </trkpt>
      <trkpt lat="47.84018" lon="6.92584">
        <ele>884</ele>
        <time>2014-07-15T10:48:41Z</time>
      </trkpt>
      <trkpt lat="47.84018" lon="6.92585">
        <ele>884</ele>
        <time>2014-07-15T10:48:42Z</time>
      </trkpt>
      <trkpt lat="47.84019" lon="6.92586">
        <ele>884</ele>
        <time>2014-07-15T10:48:43Z</time>
      </trkpt>
      <trkpt lat="47.84019" lon="6.92587">
        <ele>884</ele>
        <time>2014-07-15T10:48:44Z</time>
      </trkpt>
      <trkpt lat="47.8402" lon="6.92588">
        <ele>885</ele>
        <time>2014-07-15T10:48:45Z</time>
      </trkpt>
      <trkpt lat="47.8402" lon="6.92589">
        <ele>885</ele>
        <time>2014-07-15T10:48:46Z</time>
      </trkpt>
      <trkpt lat="47.84021" lon="6.9259">
        <ele>885</ele>
        <time>2014-07-15T10:48:47Z</time>
      </trkpt>
      <trkpt lat="47.84021" lon="6.92591">
        <ele>885</ele>
        <time>2014-07-15T10:48:48Z</time>
      </trkpt>
      <trkpt lat="47.84022" lon="6.92591">
        <ele>885</ele>
        <time>2014-07-15T10:48:49Z</time>
      </trkpt>
      <trkpt lat="47.84023" lon="6.92592">
        <ele>885</ele>
        <time>2014-07-15T10:48:50Z</time>
      </trkpt>
      <trkpt lat="47.84024" lon="6.92592">
        <ele>886</ele>
        <time>2014-07-15T10:48:51Z</time>
      </trkpt>
      <trkpt lat="47.84024" lon="6.92593">
        <ele>886</ele>
        <time>2014-07-15T10:48:52Z</time>
      </trkpt>
      <trkpt lat="47.84026" lon="6.92594">
        <ele>886</ele>
        <time>2014-07-15T10:48:53Z</time>
      </trkpt>
      <trkpt lat="47.84027" lon="6.92595">
        <ele>887</ele>
        <time>2014-07-15T10:48:54Z</time>
      </trkpt>
      <trkpt lat="47.84029" lon="6.92596">
        <ele>887</ele>
        <time>2014-07-15T10:48:55Z</time>
      </trkpt>
      <trkpt lat="47.8403" lon="6.92597">
        <ele>887</ele>
        <time>2014-07-15T10:48:56Z</time>
      </trkpt>
      <trkpt lat="47.84031" lon="6.92597">
        <ele>887</ele>
        <time>2014-07-15T10:48:57Z</time>
      </trkpt>
      <trkpt lat="47.84032" lon="6.92598">
        <ele>887</ele>
        <time>2014-07-15T10:48:58Z</time>
      </trkpt>
      <trkpt lat="47.84033" lon="6.92598">
        <ele>888</ele>
        <time>2014-07-15T10:48:59Z</time>
      </trkpt>
      <trkpt lat="47.84034" lon="6.92599">
        <ele>888</ele>
        <time>2014-07-15T10:49:00Z</time>
      </trkpt>
      <trkpt lat="47.84035" lon="6.926">
        <ele>888</ele>
        <time>2014-07-15T10:49:01Z</time>
      </trkpt>
      <trkpt lat="47.84035" lon="6.92601">
        <ele>888</ele>
        <time>2014-07-15T10:49:02Z</time>
      </trkpt>
      <trkpt lat="47.84036" lon="6.92602">
        <ele>888</ele>
        <time>2014-07-15T10:49:03Z</time>
      </trkpt>
      <trkpt lat="47.84037" lon="6.92603">
        <ele>888</ele>
        <time>2014-07-15T10:49:04Z</time>
      </trkpt>
      <trkpt lat="47.84037" lon="6.92604">
        <ele>888</ele>
        <time>2014-07-15T10:49:05Z</time>
      </trkpt>
      <trkpt lat="47.84038" lon="6.92605">
        <ele>889</ele>
        <time>2014-07-15T10:49:06Z</time>
      </trkpt>
      <trkpt lat="47.84039" lon="6.92606">
        <ele>889</ele>
        <time>2014-07-15T10:49:07Z</time>
      </trkpt>
      <trkpt lat="47.8404" lon="6.92606">
        <ele>889</ele>
        <time>2014-07-15T10:49:08Z</time>
      </trkpt>
      <trkpt lat="47.84041" lon="6.92607">
        <ele>889</ele>
        <time>2014-07-15T10:49:09Z</time>
      </trkpt>
      <trkpt lat="47.84041" lon="6.92609">
        <ele>889</ele>
        <time>2014-07-15T10:49:10Z</time>
      </trkpt>
      <trkpt lat="47.84042" lon="6.9261">
        <ele>889</ele>
        <time>2014-07-15T10:49:11Z</time>
      </trkpt>
      <trkpt lat="47.84043" lon="6.92611">
        <ele>889</ele>
        <time>2014-07-15T10:49:12Z</time>
      </trkpt>
      <trkpt lat="47.84043" lon="6.92612">
        <ele>889</ele>
        <time>2014-07-15T10:49:13Z</time>
      </trkpt>
      <trkpt lat="47.84045" lon="6.92614">
        <ele>889</ele>
        <time>2014-07-15T10:49:15Z</time>
      </trkpt>
      <trkpt lat="47.84045" lon="6.92615">
        <ele>889</ele>
        <time>2014-07-15T10:49:16Z</time>
      </trkpt>
      <trkpt lat="47.84045" lon="6.92616">
        <ele>889</ele>
        <time>2014-07-15T10:49:17Z</time>
      </trkpt>
      <trkpt lat="47.84046" lon="6.92617">
        <ele>890</ele>
        <time>2014-07-15T10:49:18Z</time>
      </trkpt>
      <trkpt lat="47.84047" lon="6.92618">
        <ele>890</ele>
        <time>2014-07-15T10:49:19Z</time>
      </trkpt>
      <trkpt lat="47.84047" lon="6.92617">
        <ele>890</ele>
        <time>2014-07-15T10:49:20Z</time>
      </trkpt>
      <trkpt lat="47.84046" lon="6.92618">
        <ele>889</ele>
        <time>2014-07-15T10:49:21Z</time>
      </trkpt>
      <trkpt lat="47.84046" lon="6.92618">
        <ele>889</ele>
        <time>2014-07-15T10:49:22Z</time>
      </trkpt>
      <trkpt lat="47.84046" lon="6.92618">
        <ele>889</ele>
        <time>2014-07-15T10:49:23Z</time>
      </trkpt>
      <trkpt lat="47.84045" lon="6.92618">
        <ele>889</ele>
        <time>2014-07-15T10:49:24Z</time>
      </trkpt>
      <trkpt lat="47.84045" lon="6.92618">
        <ele>889</ele>
        <time>2014-07-15T10:49:25Z</time>
      </trkpt>
      <trkpt lat="47.84045" lon="6.92618">
        <ele>889</ele>
        <time>2014-07-15T10:49:26Z</time>
      </trkpt>
      <trkpt lat="47.84044" lon="6.92618">
        <ele>889</ele>
        <time>2014-07-15T10:49:27Z</time>
      </trkpt>
      <trkpt lat="47.84044" lon="6.92618">
        <ele>889</ele>
        <time>2014-07-15T10:49:28Z</time>
      </trkpt>
      <trkpt lat="47.84044" lon="6.92619">
        <ele>889</ele>
        <time>2014-07-15T10:49:29Z</time>
      </trkpt>
      <trkpt lat="47.84044" lon="6.92619">
        <ele>889</ele>
        <time>2014-07-15T10:49:30Z</time>
      </trkpt>
      <trkpt lat="47.84044" lon="6.92619">
        <ele>889</ele>
        <time>2014-07-15T10:49:31Z</time>
      </trkpt>
      <trkpt lat="47.84044" lon="6.92619">
        <ele>889</ele>
        <time>2014-07-15T10:49:32Z</time>
      </trkpt>
      <trkpt lat="47.84044" lon="6.92619">
        <ele>889</ele>
        <time>2014-07-15T10:49:33Z</time>
      </trkpt>
      <trkpt lat="47.84044" lon="6.92619">
        <ele>889</ele>
        <time>2014-07-15T10:49:34Z</time>
      </trkpt>
      <trkpt lat="47.84044" lon="6.92619">
        <ele>889</ele>
        <time>2014-07-15T10:49:35Z</time>
      </trkpt>
      <trkpt lat="47.84044" lon="6.92619">
        <ele>889</ele>
        <time>2014-07-15T10:49:36Z</time>
      </trkpt>
      <trkpt lat="47.84044" lon="6.92619">
        <ele>889</ele>
        <time>2014-07-15T10:49:37Z</time>
      </trkpt>
      <trkpt lat="47.84044" lon="6.92619">
        <ele>889</ele>
        <time>2014-07-15T10:49:38Z</time>
      </trkpt>
      <trkpt lat="47.84044" lon="6.92619">
        <ele>889</ele>
        <time>2014-07-15T10:49:39Z</time>
      </trkpt>
      <trkpt lat="47.84044" lon="6.92619">
        <ele>889</ele>
        <time>2014-07-15T10:49:40Z</time>
      </trkpt>
      <trkpt lat="47.84044" lon="6.92619">
        <ele>889</ele>
        <time>2014-07-15T10:49:41Z</time>
      </trkpt>
      <trkpt lat="47.84044" lon="6.92619">
        <ele>889</ele>
        <time>2014-07-15T10:49:42Z</time>
      </trkpt>
      <trkpt lat="47.84044" lon="6.92619">
        <ele>889</ele>
        <time>2014-07-15T10:49:43Z</time>
      </trkpt>
      <trkpt lat="47.84044" lon="6.92619">
        <ele>889</ele>
        <time>2014-07-15T10:49:44Z</time>
      </trkpt>
      <trkpt lat="47.84044" lon="6.92619">
        <ele>889</ele>
        <time>2014-07-15T10:49:45Z</time>
      </trkpt>
      <trkpt lat="47.84044" lon="6.92619">
        <ele>889</ele>
        <time>2014-07-15T10:49:46Z</time>
      </trkpt>
      <trkpt lat="47.84044" lon="6.92619">
        <ele>889</ele>
        <time>2014-07-15T10:49:47Z</time>
      </trkpt>
      <trkpt lat="47.84044" lon="6.92619">
        <ele>889</ele>
        <time>2014-07-15T10:49:48Z</time>
      </trkpt>
      <trkpt lat="47.84044" lon="6.92619">
        <ele>889</ele>
        <time>2014-07-15T10:49:49Z</time>
      </trkpt>
      <trkpt lat="47.84044" lon="6.92619">
        <ele>889</ele>
        <time>2014-07-15T10:49:50Z</time>
      </trkpt>
      <trkpt lat="47.84044" lon="6.92619">
        <ele>889</ele>
        <time>2014-07-15T10:49:51Z</time>
      </trkpt>
      <trkpt lat="47.84044" lon="6.92619">
        <ele>889</ele>
        <time>2014-07-15T10:49:52Z</time>
      </trkpt>
      <trkpt lat="47.84044" lon="6.92619">
        <ele>889</ele>
        <time>2014-07-15T10:49:53Z</time>
      </trkpt>
      <trkpt lat="47.84044" lon="6.92619">
        <ele>889</ele>
        <time>2014-07-15T10:49:54Z</time>
      </trkpt>
      <trkpt lat="47.84044" lon="6.92619">
        <ele>889</ele>
        <time>2014-07-15T10:49:55Z</time>
      </trkpt>
      <trkpt lat="47.84044" lon="6.92619">
        <ele>889</ele>
        <time>2014-07-15T10:49:56Z</time>
      </trkpt>
      <trkpt lat="47.84044" lon="6.92619">
        <ele>889</ele>
        <time>2014-07-15T10:49:57Z</time>
      </trkpt>
      <trkpt lat="47.84044" lon="6.92619">
        <ele>889</ele>
        <time>2014-07-15T10:50:00Z</time>
      </trkpt>
      <trkpt lat="47.84044" lon="6.92619">
        <ele>889</ele>
        <time>2014-07-15T10:50:01Z</time>
      </trkpt>
      <trkpt lat="47.84044" lon="6.92619">
        <ele>889</ele>
        <time>2014-07-15T10:50:02Z</time>
      </trkpt>
      <trkpt lat="47.84044" lon="6.92619">
        <ele>889</ele>
        <time>2014-07-15T10:50:03Z</time>
      </trkpt>
      <trkpt lat="47.84044" lon="6.92619">
        <ele>889</ele>
        <time>2014-07-15T10:50:04Z</time>
      </trkpt>
      <trkpt lat="47.84044" lon="6.92619">
        <ele>889</ele>
        <time>2014-07-15T10:50:05Z</time>
      </trkpt>
      <trkpt lat="47.84044" lon="6.92619">
        <ele>889</ele>
        <time>2014-07-15T10:50:06Z</time>
      </trkpt>
      <trkpt lat="47.84044" lon="6.92619">
        <ele>889</ele>
        <time>2014-07-15T10:50:07Z</time>
      </trkpt>
      <trkpt lat="47.84044" lon="6.92619">
        <ele>889</ele>
        <time>2014-07-15T10:50:08Z</time>
      </trkpt>
      <trkpt lat="47.84044" lon="6.92619">
        <ele>889</ele>
        <time>2014-07-15T10:50:09Z</time>
      </trkpt>
      <trkpt lat="47.84044" lon="6.92619">
        <ele>889</ele>
        <time>2014-07-15T10:50:10Z</time>
      </trkpt>
      <trkpt lat="47.84044" lon="6.92619">
        <ele>889</ele>
        <time>2014-07-15T10:50:11Z</time>
      </trkpt>
      <trkpt lat="47.84044" lon="6.92619">
        <ele>889</ele>
        <time>2014-07-15T10:50:12Z</time>
      </trkpt>
      <trkpt lat="47.84044" lon="6.9262">
        <ele>889</ele>
        <time>2014-07-15T10:50:13Z</time>
      </trkpt>
      <trkpt lat="47.84045" lon="6.92621">
        <ele>889</ele>
        <time>2014-07-15T10:50:14Z</time>
      </trkpt>
      <trkpt lat="47.84045" lon="6.92622">
        <ele>889</ele>
        <time>2014-07-15T10:50:15Z</time>
      </trkpt>
      <trkpt lat="47.84046" lon="6.92623">
        <ele>889</ele>
        <time>2014-07-15T10:50:16Z</time>
      </trkpt>
      <trkpt lat="47.84046" lon="6.92624">
        <ele>889</ele>
        <time>2014-07-15T10:50:17Z</time>
      </trkpt>
      <trkpt lat="47.84047" lon="6.92625">
        <ele>889</ele>
        <time>2014-07-15T10:50:18Z</time>
      </trkpt>
      <trkpt lat="47.84048" lon="6.92626">
        <ele>889</ele>
        <time>2014-07-15T10:50:19Z</time>
      </trkpt>
      <trkpt lat="47.84049" lon="6.92628">
        <ele>889</ele>
        <time>2014-07-15T10:50:20Z</time>
      </trkpt>
      <trkpt lat="47.8405" lon="6.92629">
        <ele>889</ele>
        <time>2014-07-15T10:50:21Z</time>
      </trkpt>
      <trkpt lat="47.8405" lon="6.9263">
        <ele>890</ele>
        <time>2014-07-15T10:50:22Z</time>
      </trkpt>
      <trkpt lat="47.84051" lon="6.92632">
        <ele>890</ele>
        <time>2014-07-15T10:50:23Z</time>
      </trkpt>
      <trkpt lat="47.84051" lon="6.92633">
        <ele>890</ele>
        <time>2014-07-15T10:50:24Z</time>
      </trkpt>
      <trkpt lat="47.84051" lon="6.92634">
        <ele>890</ele>
        <time>2014-07-15T10:50:25Z</time>
      </trkpt>
      <trkpt lat="47.84051" lon="6.92634">
        <ele>890</ele>
        <time>2014-07-15T10:50:26Z</time>
      </trkpt>
      <trkpt lat="47.84051" lon="6.92634">
        <ele>890</ele>
        <time>2014-07-15T10:50:28Z</time>
      </trkpt>
      <trkpt lat="47.84051" lon="6.92634">
        <ele>890</ele>
        <time>2014-07-15T10:50:29Z</time>
      </trkpt>
      <trkpt lat="47.84051" lon="6.92634">
        <ele>890</ele>
        <time>2014-07-15T10:50:30Z</time>
      </trkpt>
      <trkpt lat="47.84052" lon="6.92634">
        <ele>890</ele>
        <time>2014-07-15T10:50:31Z</time>
      </trkpt>
      <trkpt lat="47.84052" lon="6.92635">
        <ele>890</ele>
        <time>2014-07-15T10:50:32Z</time>
      </trkpt>
      <trkpt lat="47.84053" lon="6.92636">
        <ele>890</ele>
        <time>2014-07-15T10:50:33Z</time>
      </trkpt>
      <trkpt lat="47.84054" lon="6.92636">
        <ele>890</ele>
        <time>2014-07-15T10:50:34Z</time>
      </trkpt>
      <trkpt lat="47.84054" lon="6.92637">
        <ele>890</ele>
        <time>2014-07-15T10:50:35Z</time>
      </trkpt>
      <trkpt lat="47.84055" lon="6.92639">
        <ele>890</ele>
        <time>2014-07-15T10:50:36Z</time>
      </trkpt>
      <trkpt lat="47.84056" lon="6.92641">
        <ele>890</ele>
        <time>2014-07-15T10:50:38Z</time>
      </trkpt>
      <trkpt lat="47.84056" lon="6.92643">
        <ele>890</ele>
        <time>2014-07-15T10:50:39Z</time>
      </trkpt>
      <trkpt lat="47.84057" lon="6.92644">
        <ele>890</ele>
        <time>2014-07-15T10:50:40Z</time>
      </trkpt>
      <trkpt lat="47.84058" lon="6.92645">
        <ele>890</ele>
        <time>2014-07-15T10:50:41Z</time>
      </trkpt>
      <trkpt lat="47.84059" lon="6.92646">
        <ele>890</ele>
        <time>2014-07-15T10:50:42Z</time>
      </trkpt>
      <trkpt lat="47.84059" lon="6.92647">
        <ele>890</ele>
        <time>2014-07-15T10:50:43Z</time>
      </trkpt>
      <trkpt lat="47.8406" lon="6.92649">
        <ele>890</ele>
        <time>2014-07-15T10:50:44Z</time>
      </trkpt>
      <trkpt lat="47.8406" lon="6.9265">
        <ele>890</ele>
        <time>2014-07-15T10:50:45Z</time>
      </trkpt>
      <trkpt lat="47.8406" lon="6.92652">
        <ele>890</ele>
        <time>2014-07-15T10:50:47Z</time>
      </trkpt>
      <trkpt lat="47.84059" lon="6.92653">
        <ele>890</ele>
        <time>2014-07-15T10:50:49Z</time>
      </trkpt>
      <trkpt lat="47.84059" lon="6.92654">
        <ele>890</ele>
        <time>2014-07-15T10:50:50Z</time>
      </trkpt>
      <trkpt lat="47.84058" lon="6.92655">
        <ele>890</ele>
        <time>2014-07-15T10:50:51Z</time>
      </trkpt>
      <trkpt lat="47.84058" lon="6.92656">
        <ele>890</ele>
        <time>2014-07-15T10:50:52Z</time>
      </trkpt>
      <trkpt lat="47.84058" lon="6.92656">
        <ele>890</ele>
        <time>2014-07-15T10:50:53Z</time>
      </trkpt>
      <trkpt lat="47.84058" lon="6.92656">
        <ele>890</ele>
        <time>2014-07-15T10:50:54Z</time>
      </trkpt>
      <trkpt lat="47.84058" lon="6.92656">
        <ele>890</ele>
        <time>2014-07-15T10:50:55Z</time>
      </trkpt>
      <trkpt lat="47.84058" lon="6.92657">
        <ele>890</ele>
        <time>2014-07-15T10:50:56Z</time>
      </trkpt>
      <trkpt lat="47.84058" lon="6.92658">
        <ele>890</ele>
        <time>2014-07-15T10:50:57Z</time>
      </trkpt>
      <trkpt lat="47.84058" lon="6.9266">
        <ele>890</ele>
        <time>2014-07-15T10:50:58Z</time>
      </trkpt>
      <trkpt lat="47.84058" lon="6.92661">
        <ele>890</ele>
        <time>2014-07-15T10:50:59Z</time>
      </trkpt>
      <trkpt lat="47.84058" lon="6.92662">
        <ele>890</ele>
        <time>2014-07-15T10:51:00Z</time>
      </trkpt>
      <trkpt lat="47.84058" lon="6.92663">
        <ele>890</ele>
        <time>2014-07-15T10:51:01Z</time>
      </trkpt>
      <trkpt lat="47.84059" lon="6.92664">
        <ele>890</ele>
        <time>2014-07-15T10:51:03Z</time>
      </trkpt>
      <trkpt lat="47.8406" lon="6.92665">
        <ele>890</ele>
        <time>2014-07-15T10:51:04Z</time>
      </trkpt>
      <trkpt lat="47.8406" lon="6.92666">
        <ele>890</ele>
        <time>2014-07-15T10:51:05Z</time>
      </trkpt>
      <trkpt lat="47.84061" lon="6.92667">
        <ele>888</ele>
        <time>2014-07-15T10:51:06Z</time>
      </trkpt>
      <trkpt lat="47.84062" lon="6.92668">
        <ele>889</ele>
        <time>2014-07-15T10:51:07Z</time>
      </trkpt>
      <trkpt lat="47.84062" lon="6.92669">
        <ele>889</ele>
        <time>2014-07-15T10:51:08Z</time>
      </trkpt>
      <trkpt lat="47.84063" lon="6.9267">
        <ele>889</ele>
        <time>2014-07-15T10:51:09Z</time>
      </trkpt>
      <trkpt lat="47.84064" lon="6.92672">
        <ele>889</ele>
        <time>2014-07-15T10:51:10Z</time>
      </trkpt>
      <trkpt lat="47.84066" lon="6.92672">
        <ele>889</ele>
        <time>2014-07-15T10:51:11Z</time>
      </trkpt>
      <trkpt lat="47.84067" lon="6.92673">
        <ele>889</ele>
        <time>2014-07-15T10:51:12Z</time>
      </trkpt>
      <trkpt lat="47.84067" lon="6.92673">
        <ele>889</ele>
        <time>2014-07-15T10:51:13Z</time>
      </trkpt>
      <trkpt lat="47.84068" lon="6.92675">
        <ele>889</ele>
        <time>2014-07-15T10:51:14Z</time>
      </trkpt>
      <trkpt lat="47.8407" lon="6.92677">
        <ele>889</ele>
        <time>2014-07-15T10:51:16Z</time>
      </trkpt>
      <trkpt lat="47.84072" lon="6.92678">
        <ele>889</ele>
        <time>2014-07-15T10:51:18Z</time>
      </trkpt>
      <trkpt lat="47.84072" lon="6.92679">
        <ele>889</ele>
        <time>2014-07-15T10:51:19Z</time>
      </trkpt>
      <trkpt lat="47.84073" lon="6.9268">
        <ele>889</ele>
        <time>2014-07-15T10:51:20Z</time>
      </trkpt>
      <trkpt lat="47.84074" lon="6.92681">
        <ele>889</ele>
        <time>2014-07-15T10:51:21Z</time>
      </trkpt>
      <trkpt lat="47.84075" lon="6.92681">
        <ele>889</ele>
        <time>2014-07-15T10:51:22Z</time>
      </trkpt>
      <trkpt lat="47.84075" lon="6.92681">
        <ele>889</ele>
        <time>2014-07-15T10:51:23Z</time>
      </trkpt>
      <trkpt lat="47.84075" lon="6.92682">
        <ele>889</ele>
        <time>2014-07-15T10:51:24Z</time>
      </trkpt>
      <trkpt lat="47.84076" lon="6.92682">
        <ele>889</ele>
        <time>2014-07-15T10:51:25Z</time>
      </trkpt>
      <trkpt lat="47.84077" lon="6.92682">
        <ele>889</ele>
        <time>2014-07-15T10:51:26Z</time>
      </trkpt>
      <trkpt lat="47.84077" lon="6.92682">
        <ele>889</ele>
        <time>2014-07-15T10:51:28Z</time>
      </trkpt>
      <trkpt lat="47.84078" lon="6.92683">
        <ele>889</ele>
        <time>2014-07-15T10:51:29Z</time>
      </trkpt>
      <trkpt lat="47.84078" lon="6.92683">
        <ele>889</ele>
        <time>2014-07-15T10:51:30Z</time>
      </trkpt>
      <trkpt lat="47.84078" lon="6.92683">
        <ele>889</ele>
        <time>2014-07-15T10:51:31Z</time>
      </trkpt>
      <trkpt lat="47.8408" lon="6.92684">
        <ele>889</ele>
        <time>2014-07-15T10:51:33Z</time>
      </trkpt>
      <trkpt lat="47.8408" lon="6.92685">
        <ele>889</ele>
        <time>2014-07-15T10:51:34Z</time>
      </trkpt>
      <trkpt lat="47.84081" lon="6.92685">
        <ele>889</ele>
        <time>2014-07-15T10:51:35Z</time>
      </trkpt>
      <trkpt lat="47.84081" lon="6.92685">
        <ele>889</ele>
        <time>2014-07-15T10:51:36Z</time>
      </trkpt>
      <trkpt lat="47.84081" lon="6.92685">
        <ele>889</ele>
        <time>2014-07-15T10:51:37Z</time>
      </trkpt>
      <trkpt lat="47.84082" lon="6.92686">
        <ele>889</ele>
        <time>2014-07-15T10:51:38Z</time>
      </trkpt>
      <trkpt lat="47.84082" lon="6.92686">
        <ele>889</ele>
        <time>2014-07-15T10:51:39Z</time>
      </trkpt>
      <trkpt lat="47.84082" lon="6.92686">
        <ele>889</ele>
        <time>2014-07-15T10:51:40Z</time>
      </trkpt>
      <trkpt lat="47.84082" lon="6.92686">
        <ele>889</ele>
        <time>2014-07-15T10:51:41Z</time>
      </trkpt>
      <trkpt lat="47.84083" lon="6.92686">
        <ele>889</ele>
        <time>2014-07-15T10:51:43Z</time>
      </trkpt>
      <trkpt lat="47.84084" lon="6.92686">
        <ele>891</ele>
        <time>2014-07-15T10:51:44Z</time>
      </trkpt>
      <trkpt lat="47.84084" lon="6.92685">
        <ele>891</ele>
        <time>2014-07-15T10:51:45Z</time>
      </trkpt>
      <trkpt lat="47.84085" lon="6.92685">
        <ele>891</ele>
        <time>2014-07-15T10:51:46Z</time>
      </trkpt>
      <trkpt lat="47.84085" lon="6.92685">
        <ele>891</ele>
        <time>2014-07-15T10:51:47Z</time>
      </trkpt>
      <trkpt lat="47.84085" lon="6.92685">
        <ele>891</ele>
        <time>2014-07-15T10:51:48Z</time>
      </trkpt>
      <trkpt lat="47.84085" lon="6.92685">
        <ele>891</ele>
        <time>2014-07-15T10:51:49Z</time>
      </trkpt>
      <trkpt lat="47.84085" lon="6.92685">
        <ele>891</ele>
        <time>2014-07-15T10:51:50Z</time>
      </trkpt>
      <trkpt lat="47.84085" lon="6.92685">
        <ele>891</ele>
        <time>2014-07-15T10:51:51Z</time>
      </trkpt>
      <trkpt lat="47.84085" lon="6.92685">
        <ele>891</ele>
        <time>2014-07-15T10:51:52Z</time>
      </trkpt>
      <trkpt lat="47.84085" lon="6.92685">
        <ele>891</ele>
        <time>2014-07-15T10:51:53Z</time>
      </trkpt>
      <trkpt lat="47.84085" lon="6.92685">
        <ele>891</ele>
        <time>2014-07-15T10:51:54Z</time>
      </trkpt>
      <trkpt lat="47.84086" lon="6.92685">
        <ele>891</ele>
        <time>2014-07-15T10:51:55Z</time>
      </trkpt>
      <trkpt lat="47.84087" lon="6.92685">
        <ele>891</ele>
        <time>2014-07-15T10:51:56Z</time>
      </trkpt>
      <trkpt lat="47.84089" lon="6.92684">
        <ele>891</ele>
        <time>2014-07-15T10:51:57Z</time>
      </trkpt>
      <trkpt lat="47.84091" lon="6.92684">
        <ele>891</ele>
        <time>2014-07-15T10:51:58Z</time>
      </trkpt>
      <trkpt lat="47.84093" lon="6.92684">
        <ele>891</ele>
        <time>2014-07-15T10:51:59Z</time>
      </trkpt>
      <trkpt lat="47.84095" lon="6.92684">
        <ele>891</ele>
        <time>2014-07-15T10:52:00Z</time>
      </trkpt>
      <trkpt lat="47.84097" lon="6.92684">
        <ele>891</ele>
        <time>2014-07-15T10:52:01Z</time>
      </trkpt>
      <trkpt lat="47.84099" lon="6.92685">
        <ele>891</ele>
        <time>2014-07-15T10:52:02Z</time>
      </trkpt>
      <trkpt lat="47.84101" lon="6.92685">
        <ele>891</ele>
        <time>2014-07-15T10:52:03Z</time>
      </trkpt>
      <trkpt lat="47.84103" lon="6.92685">
        <ele>891</ele>
        <time>2014-07-15T10:52:04Z</time>
      </trkpt>
      <trkpt lat="47.84105" lon="6.92685">
        <ele>891</ele>
        <time>2014-07-15T10:52:05Z</time>
      </trkpt>
      <trkpt lat="47.84107" lon="6.92684">
        <ele>891</ele>
        <time>2014-07-15T10:52:06Z</time>
      </trkpt>
      <trkpt lat="47.84109" lon="6.92683">
        <ele>891</ele>
        <time>2014-07-15T10:52:07Z</time>
      </trkpt>
      <trkpt lat="47.84112" lon="6.9268">
        <ele>891</ele>
        <time>2014-07-15T10:52:09Z</time>
      </trkpt>
      <trkpt lat="47.84113" lon="6.92679">
        <ele>891</ele>
        <time>2014-07-15T10:52:10Z</time>
      </trkpt>
      <trkpt lat="47.84115" lon="6.92679">
        <ele>891</ele>
        <time>2014-07-15T10:52:11Z</time>
      </trkpt>
      <trkpt lat="47.84118" lon="6.9268">
        <ele>891</ele>
        <time>2014-07-15T10:52:13Z</time>
      </trkpt>
      <trkpt lat="47.84119" lon="6.92681">
        <ele>890</ele>
        <time>2014-07-15T10:52:14Z</time>
      </trkpt>
      <trkpt lat="47.84121" lon="6.92682">
        <ele>890</ele>
        <time>2014-07-15T10:52:15Z</time>
      </trkpt>
      <trkpt lat="47.84123" lon="6.92682">
        <ele>890</ele>
        <time>2014-07-15T10:52:16Z</time>
      </trkpt>
      <trkpt lat="47.84126" lon="6.92682">
        <ele>890</ele>
        <time>2014-07-15T10:52:18Z</time>
      </trkpt>
      <trkpt lat="47.84127" lon="6.92683">
        <ele>890</ele>
        <time>2014-07-15T10:52:19Z</time>
      </trkpt>
      <trkpt lat="47.84128" lon="6.92684">
        <ele>890</ele>
        <time>2014-07-15T10:52:20Z</time>
      </trkpt>
      <trkpt lat="47.84129" lon="6.92685">
        <ele>890</ele>
        <time>2014-07-15T10:52:21Z</time>
      </trkpt>
      <trkpt lat="47.84129" lon="6.92687">
        <ele>890</ele>
        <time>2014-07-15T10:52:22Z</time>
      </trkpt>
      <trkpt lat="47.8413" lon="6.92688">
        <ele>890</ele>
        <time>2014-07-15T10:52:23Z</time>
      </trkpt>
      <trkpt lat="47.84131" lon="6.9269">
        <ele>890</ele>
        <time>2014-07-15T10:52:24Z</time>
      </trkpt>
      <trkpt lat="47.84132" lon="6.92691">
        <ele>890</ele>
        <time>2014-07-15T10:52:25Z</time>
      </trkpt>
      <trkpt lat="47.84134" lon="6.92692">
        <ele>890</ele>
        <time>2014-07-15T10:52:26Z</time>
      </trkpt>
      <trkpt lat="47.84135" lon="6.92692">
        <ele>890</ele>
        <time>2014-07-15T10:52:27Z</time>
      </trkpt>
      <trkpt lat="47.84137" lon="6.92692">
        <ele>890</ele>
        <time>2014-07-15T10:52:28Z</time>
      </trkpt>
      <trkpt lat="47.84138" lon="6.92693">
        <ele>890</ele>
        <time>2014-07-15T10:52:29Z</time>
      </trkpt>
      <trkpt lat="47.84138" lon="6.92693">
        <ele>890</ele>
        <time>2014-07-15T10:52:30Z</time>
      </trkpt>
      <trkpt lat="47.84138" lon="6.92692">
        <ele>890</ele>
        <time>2014-07-15T10:52:31Z</time>
      </trkpt>
      <trkpt lat="47.84139" lon="6.92692">
        <ele>890</ele>
        <time>2014-07-15T10:52:32Z</time>
      </trkpt>
      <trkpt lat="47.84139" lon="6.92692">
        <ele>890</ele>
        <time>2014-07-15T10:52:33Z</time>
      </trkpt>
      <trkpt lat="47.8414" lon="6.92691">
        <ele>890</ele>
        <time>2014-07-15T10:52:34Z</time>
      </trkpt>
      <trkpt lat="47.8414" lon="6.92691">
        <ele>890</ele>
        <time>2014-07-15T10:52:35Z</time>
      </trkpt>
      <trkpt lat="47.8414" lon="6.9269">
        <ele>890</ele>
        <time>2014-07-15T10:52:36Z</time>
      </trkpt>
      <trkpt lat="47.84141" lon="6.92689">
        <ele>890</ele>
        <time>2014-07-15T10:52:37Z</time>
      </trkpt>
      <trkpt lat="47.84141" lon="6.92689">
        <ele>890</ele>
        <time>2014-07-15T10:52:38Z</time>
      </trkpt>
      <trkpt lat="47.84141" lon="6.92689">
        <ele>890</ele>
        <time>2014-07-15T10:52:39Z</time>
      </trkpt>
      <trkpt lat="47.84141" lon="6.92688">
        <ele>890</ele>
        <time>2014-07-15T10:52:41Z</time>
      </trkpt>
      <trkpt lat="47.84141" lon="6.92688">
        <ele>890</ele>
        <time>2014-07-15T10:52:42Z</time>
      </trkpt>
      <trkpt lat="47.84142" lon="6.92688">
        <ele>890</ele>
        <time>2014-07-15T10:52:43Z</time>
      </trkpt>
      <trkpt lat="47.84142" lon="6.92688">
        <ele>890</ele>
        <time>2014-07-15T10:52:44Z</time>
      </trkpt>
      <trkpt lat="47.84142" lon="6.92688">
        <ele>890</ele>
        <time>2014-07-15T10:52:45Z</time>
      </trkpt>
      <trkpt lat="47.84142" lon="6.92688">
        <ele>890</ele>
        <time>2014-07-15T10:52:46Z</time>
      </trkpt>
      <trkpt lat="47.84142" lon="6.92687">
        <ele>890</ele>
        <time>2014-07-15T10:52:47Z</time>
      </trkpt>
      <trkpt lat="47.84143" lon="6.92686">
        <ele>890</ele>
        <time>2014-07-15T10:52:48Z</time>
      </trkpt>
      <trkpt lat="47.84144" lon="6.92685">
        <ele>890</ele>
        <time>2014-07-15T10:52:49Z</time>
      </trkpt>
      <trkpt lat="47.84146" lon="6.92683">
        <ele>890</ele>
        <time>2014-07-15T10:52:50Z</time>
      </trkpt>
      <trkpt lat="47.84147" lon="6.92681">
        <ele>890</ele>
        <time>2014-07-15T10:52:51Z</time>
      </trkpt>
      <trkpt lat="47.84151" lon="6.92677">
        <ele>890</ele>
        <time>2014-07-15T10:52:52Z</time>
      </trkpt>
      <trkpt lat="47.84153" lon="6.92675">
        <ele>890</ele>
        <time>2014-07-15T10:52:53Z</time>
      </trkpt>
      <trkpt lat="47.84154" lon="6.92673">
        <ele>891</ele>
        <time>2014-07-15T10:52:54Z</time>
      </trkpt>
      <trkpt lat="47.84154" lon="6.92672">
        <ele>891</ele>
        <time>2014-07-15T10:52:55Z</time>
      </trkpt>
      <trkpt lat="47.84155" lon="6.92671">
        <ele>891</ele>
        <time>2014-07-15T10:52:56Z</time>
      </trkpt>
      <trkpt lat="47.84156" lon="6.9267">
        <ele>891</ele>
        <time>2014-07-15T10:52:57Z</time>
      </trkpt>
      <trkpt lat="47.84158" lon="6.92668">
        <ele>891</ele>
        <time>2014-07-15T10:52:58Z</time>
      </trkpt>
      <trkpt lat="47.84159" lon="6.92667">
        <ele>891</ele>
        <time>2014-07-15T10:52:59Z</time>
      </trkpt>
      <trkpt lat="47.8416" lon="6.92666">
        <ele>893</ele>
        <time>2014-07-15T10:53:00Z</time>
      </trkpt>
      <trkpt lat="47.84161" lon="6.92665">
        <ele>892</ele>
        <time>2014-07-15T10:53:01Z</time>
      </trkpt>
      <trkpt lat="47.84162" lon="6.92665">
        <ele>892</ele>
        <time>2014-07-15T10:53:02Z</time>
      </trkpt>
      <trkpt lat="47.84163" lon="6.92664">
        <ele>892</ele>
        <time>2014-07-15T10:53:03Z</time>
      </trkpt>
      <trkpt lat="47.84163" lon="6.92664">
        <ele>892</ele>
        <time>2014-07-15T10:53:04Z</time>
      </trkpt>
      <trkpt lat="47.84164" lon="6.92663">
        <ele>892</ele>
        <time>2014-07-15T10:53:05Z</time>
      </trkpt>
      <trkpt lat="47.84164" lon="6.92662">
        <ele>892</ele>
        <time>2014-07-15T10:53:06Z</time>
      </trkpt>
      <trkpt lat="47.84165" lon="6.92661">
        <ele>892</ele>
        <time>2014-07-15T10:53:07Z</time>
      </trkpt>
      <trkpt lat="47.84165" lon="6.92661">
        <ele>893</ele>
        <time>2014-07-15T10:53:08Z</time>
      </trkpt>
      <trkpt lat="47.84166" lon="6.9266">
        <ele>893</ele>
        <time>2014-07-15T10:53:09Z</time>
      </trkpt>
      <trkpt lat="47.84166" lon="6.9266">
        <ele>893</ele>
        <time>2014-07-15T10:53:10Z</time>
      </trkpt>
      <trkpt lat="47.84166" lon="6.9266">
        <ele>893</ele>
        <time>2014-07-15T10:53:11Z</time>
      </trkpt>
      <trkpt lat="47.84165" lon="6.92659">
        <ele>893</ele>
        <time>2014-07-15T10:53:12Z</time>
      </trkpt>
      <trkpt lat="47.84165" lon="6.92658">
        <ele>893</ele>
        <time>2014-07-15T10:53:13Z</time>
      </trkpt>
      <trkpt lat="47.84164" lon="6.92658">
        <ele>893</ele>
        <time>2014-07-15T10:53:14Z</time>
      </trkpt>
      <trkpt lat="47.84163" lon="6.92657">
        <ele>893</ele>
        <time>2014-07-15T10:53:15Z</time>
      </trkpt>
      <trkpt lat="47.84163" lon="6.92657">
        <ele>893</ele>
        <time>2014-07-15T10:53:16Z</time>
      </trkpt>
      <trkpt lat="47.84162" lon="6.92656">
        <ele>894</ele>
        <time>2014-07-15T10:53:17Z</time>
      </trkpt>
      <trkpt lat="47.84161" lon="6.92655">
        <ele>894</ele>
        <time>2014-07-15T10:53:18Z</time>
      </trkpt>
      <trkpt lat="47.84161" lon="6.92654">
        <ele>894</ele>
        <time>2014-07-15T10:53:19Z</time>
      </trkpt>
      <trkpt lat="47.84162" lon="6.92652">
        <ele>894</ele>
        <time>2014-07-15T10:53:20Z</time>
      </trkpt>
      <trkpt lat="47.84163" lon="6.9265">
        <ele>894</ele>
        <time>2014-07-15T10:53:21Z</time>
      </trkpt>
      <trkpt lat="47.84163" lon="6.92649">
        <ele>895</ele>
        <time>2014-07-15T10:53:22Z</time>
      </trkpt>
      <trkpt lat="47.84164" lon="6.92647">
        <ele>895</ele>
        <time>2014-07-15T10:53:23Z</time>
      </trkpt>
      <trkpt lat="47.84165" lon="6.92645">
        <ele>895</ele>
        <time>2014-07-15T10:53:24Z</time>
      </trkpt>
      <trkpt lat="47.84167" lon="6.92642">
        <ele>899</ele>
        <time>2014-07-15T10:53:26Z</time>
      </trkpt>
      <trkpt lat="47.84168" lon="6.9264">
        <ele>899</ele>
        <time>2014-07-15T10:53:27Z</time>
      </trkpt>
      <trkpt lat="47.84168" lon="6.92638">
        <ele>899</ele>
        <time>2014-07-15T10:53:28Z</time>
      </trkpt>
      <trkpt lat="47.84169" lon="6.92636">
        <ele>900</ele>
        <time>2014-07-15T10:53:29Z</time>
      </trkpt>
      <trkpt lat="47.84169" lon="6.92634">
        <ele>900</ele>
        <time>2014-07-15T10:53:30Z</time>
      </trkpt>
      <trkpt lat="47.84169" lon="6.92632">
        <ele>900</ele>
        <time>2014-07-15T10:53:31Z</time>
      </trkpt>
      <trkpt lat="47.84169" lon="6.9263">
        <ele>901</ele>
        <time>2014-07-15T10:53:32Z</time>
      </trkpt>
      <trkpt lat="47.8417" lon="6.92629">
        <ele>901</ele>
        <time>2014-07-15T10:53:33Z</time>
      </trkpt>
      <trkpt lat="47.8417" lon="6.92627">
        <ele>901</ele>
        <time>2014-07-15T10:53:34Z</time>
      </trkpt>
      <trkpt lat="47.8417" lon="6.92625">
        <ele>901</ele>
        <time>2014-07-15T10:53:35Z</time>
      </trkpt>
      <trkpt lat="47.8417" lon="6.92623">
        <ele>902</ele>
        <time>2014-07-15T10:53:36Z</time>
      </trkpt>
      <trkpt lat="47.84169" lon="6.92621">
        <ele>902</ele>
        <time>2014-07-15T10:53:37Z</time>
      </trkpt>
      <trkpt lat="47.84169" lon="6.92619">
        <ele>902</ele>
        <time>2014-07-15T10:53:38Z</time>
      </trkpt>
      <trkpt lat="47.84169" lon="6.92617">
        <ele>902</ele>
        <time>2014-07-15T10:53:39Z</time>
      </trkpt>
      <trkpt lat="47.84169" lon="6.92615">
        <ele>902</ele>
        <time>2014-07-15T10:53:40Z</time>
      </trkpt>
      <trkpt lat="47.84169" lon="6.92613">
        <ele>903</ele>
        <time>2014-07-15T10:53:41Z</time>
      </trkpt>
      <trkpt lat="47.84168" lon="6.9261">
        <ele>903</ele>
        <time>2014-07-15T10:53:43Z</time>
      </trkpt>
      <trkpt lat="47.84168" lon="6.92608">
        <ele>903</ele>
        <time>2014-07-15T10:53:44Z</time>
      </trkpt>
      <trkpt lat="47.84167" lon="6.92606">
        <ele>903</ele>
        <time>2014-07-15T10:53:46Z</time>
      </trkpt>
      <trkpt lat="47.84167" lon="6.92605">
        <ele>903</ele>
        <time>2014-07-15T10:53:47Z</time>
      </trkpt>
      <trkpt lat="47.84167" lon="6.92604">
        <ele>903</ele>
        <time>2014-07-15T10:53:48Z</time>
      </trkpt>
      <trkpt lat="47.84167" lon="6.92603">
        <ele>903</ele>
        <time>2014-07-15T10:53:49Z</time>
      </trkpt>
      <trkpt lat="47.84167" lon="6.92603">
        <ele>903</ele>
        <time>2014-07-15T10:53:50Z</time>
      </trkpt>
      <trkpt lat="47.84166" lon="6.92601">
        <ele>901</ele>
        <time>2014-07-15T10:53:52Z</time>
      </trkpt>
      <trkpt lat="47.84166" lon="6.92601">
        <ele>901</ele>
        <time>2014-07-15T10:53:53Z</time>
      </trkpt>
      <trkpt lat="47.84165" lon="6.92599">
        <ele>901</ele>
        <time>2014-07-15T10:53:54Z</time>
      </trkpt>
      <trkpt lat="47.84164" lon="6.92598">
        <ele>901</ele>
        <time>2014-07-15T10:53:55Z</time>
      </trkpt>
      <trkpt lat="47.84163" lon="6.92596">
        <ele>901</ele>
        <time>2014-07-15T10:53:56Z</time>
      </trkpt>
      <trkpt lat="47.84162" lon="6.92594">
        <ele>902</ele>
        <time>2014-07-15T10:53:57Z</time>
      </trkpt>
      <trkpt lat="47.84161" lon="6.92592">
        <ele>902</ele>
        <time>2014-07-15T10:53:58Z</time>
      </trkpt>
      <trkpt lat="47.84161" lon="6.9259">
        <ele>902</ele>
        <time>2014-07-15T10:53:59Z</time>
      </trkpt>
      <trkpt lat="47.8416" lon="6.92587">
        <ele>902</ele>
        <time>2014-07-15T10:54:00Z</time>
      </trkpt>
      <trkpt lat="47.84159" lon="6.92584">
        <ele>902</ele>
        <time>2014-07-15T10:54:01Z</time>
      </trkpt>
      <trkpt lat="47.84158" lon="6.92582">
        <ele>905</ele>
        <time>2014-07-15T10:54:02Z</time>
      </trkpt>
      <trkpt lat="47.84158" lon="6.92579">
        <ele>906</ele>
        <time>2014-07-15T10:54:03Z</time>
      </trkpt>
      <trkpt lat="47.84159" lon="6.92577">
        <ele>906</ele>
        <time>2014-07-15T10:54:04Z</time>
      </trkpt>
      <trkpt lat="47.84159" lon="6.92575">
        <ele>906</ele>
        <time>2014-07-15T10:54:05Z</time>
      </trkpt>
      <trkpt lat="47.8416" lon="6.92573">
        <ele>906</ele>
        <time>2014-07-15T10:54:06Z</time>
      </trkpt>
      <trkpt lat="47.84161" lon="6.92571">
        <ele>906</ele>
        <time>2014-07-15T10:54:07Z</time>
      </trkpt>
      <trkpt lat="47.84162" lon="6.92569">
        <ele>906</ele>
        <time>2014-07-15T10:54:08Z</time>
      </trkpt>
      <trkpt lat="47.84162" lon="6.92567">
        <ele>907</ele>
        <time>2014-07-15T10:54:09Z</time>
      </trkpt>
      <trkpt lat="47.84163" lon="6.92565">
        <ele>907</ele>
        <time>2014-07-15T10:54:10Z</time>
      </trkpt>
      <trkpt lat="47.84164" lon="6.92564">
        <ele>907</ele>
        <time>2014-07-15T10:54:11Z</time>
      </trkpt>
      <trkpt lat="47.84165" lon="6.92563">
        <ele>907</ele>
        <time>2014-07-15T10:54:12Z</time>
      </trkpt>
      <trkpt lat="47.84166" lon="6.92562">
        <ele>907</ele>
        <time>2014-07-15T10:54:13Z</time>
      </trkpt>
      <trkpt lat="47.84167" lon="6.92561">
        <ele>914</ele>
        <time>2014-07-15T10:54:14Z</time>
      </trkpt>
      <trkpt lat="47.84168" lon="6.92561">
        <ele>914</ele>
        <time>2014-07-15T10:54:15Z</time>
      </trkpt>
      <trkpt lat="47.84169" lon="6.92561">
        <ele>914</ele>
        <time>2014-07-15T10:54:16Z</time>
      </trkpt>
      <trkpt lat="47.8417" lon="6.92561">
        <ele>914</ele>
        <time>2014-07-15T10:54:17Z</time>
      </trkpt>
      <trkpt lat="47.84171" lon="6.9256">
        <ele>914</ele>
        <time>2014-07-15T10:54:18Z</time>
      </trkpt>
      <trkpt lat="47.84172" lon="6.9256">
        <ele>914</ele>
        <time>2014-07-15T10:54:19Z</time>
      </trkpt>
      <trkpt lat="47.84172" lon="6.92559">
        <ele>915</ele>
        <time>2014-07-15T10:54:20Z</time>
      </trkpt>
      <trkpt lat="47.84173" lon="6.92559">
        <ele>915</ele>
        <time>2014-07-15T10:54:21Z</time>
      </trkpt>
      <trkpt lat="47.84174" lon="6.92559">
        <ele>915</ele>
        <time>2014-07-15T10:54:22Z</time>
      </trkpt>
      <trkpt lat="47.84175" lon="6.92559">
        <ele>915</ele>
        <time>2014-07-15T10:54:23Z</time>
      </trkpt>
      <trkpt lat="47.84177" lon="6.92558">
        <ele>915</ele>
        <time>2014-07-15T10:54:24Z</time>
      </trkpt>
      <trkpt lat="47.84178" lon="6.92558">
        <ele>915</ele>
        <time>2014-07-15T10:54:25Z</time>
      </trkpt>
      <trkpt lat="47.84178" lon="6.92559">
        <ele>915</ele>
        <time>2014-07-15T10:54:26Z</time>
      </trkpt>
      <trkpt lat="47.84179" lon="6.92559">
        <ele>915</ele>
        <time>2014-07-15T10:54:27Z</time>
      </trkpt>
      <trkpt lat="47.84179" lon="6.92559">
        <ele>915</ele>
        <time>2014-07-15T10:54:28Z</time>
      </trkpt>
      <trkpt lat="47.84179" lon="6.9256">
        <ele>915</ele>
        <time>2014-07-15T10:54:29Z</time>
      </trkpt>
      <trkpt lat="47.84179" lon="6.9256">
        <ele>915</ele>
        <time>2014-07-15T10:54:30Z</time>
      </trkpt>
      <trkpt lat="47.84181" lon="6.92559">
        <ele>915</ele>
        <time>2014-07-15T10:54:31Z</time>
      </trkpt>
      <trkpt lat="47.84182" lon="6.92558">
        <ele>916</ele>
        <time>2014-07-15T10:54:32Z</time>
      </trkpt>
      <trkpt lat="47.84183" lon="6.92558">
        <ele>916</ele>
        <time>2014-07-15T10:54:33Z</time>
      </trkpt>
      <trkpt lat="47.84183" lon="6.92558">
        <ele>916</ele>
        <time>2014-07-15T10:54:34Z</time>
      </trkpt>
      <trkpt lat="47.84184" lon="6.92558">
        <ele>916</ele>
        <time>2014-07-15T10:54:35Z</time>
      </trkpt>
      <trkpt lat="47.84185" lon="6.92558">
        <ele>916</ele>
        <time>2014-07-15T10:54:36Z</time>
      </trkpt>
      <trkpt lat="47.84186" lon="6.92557">
        <ele>916</ele>
        <time>2014-07-15T10:54:37Z</time>
      </trkpt>
      <trkpt lat="47.84186" lon="6.92557">
        <ele>917</ele>
        <time>2014-07-15T10:54:38Z</time>
      </trkpt>
      <trkpt lat="47.84187" lon="6.92557">
        <ele>917</ele>
        <time>2014-07-15T10:54:39Z</time>
      </trkpt>
      <trkpt lat="47.84188" lon="6.92557">
        <ele>917</ele>
        <time>2014-07-15T10:54:40Z</time>
      </trkpt>
      <trkpt lat="47.84189" lon="6.92557">
        <ele>917</ele>
        <time>2014-07-15T10:54:41Z</time>
      </trkpt>
      <trkpt lat="47.84189" lon="6.92557">
        <ele>917</ele>
        <time>2014-07-15T10:54:42Z</time>
      </trkpt>
      <trkpt lat="47.8419" lon="6.92557">
        <ele>917</ele>
        <time>2014-07-15T10:54:43Z</time>
      </trkpt>
      <trkpt lat="47.8419" lon="6.92557">
        <ele>917</ele>
        <time>2014-07-15T10:54:44Z</time>
      </trkpt>
      <trkpt lat="47.84191" lon="6.92556">
        <ele>917</ele>
        <time>2014-07-15T10:54:45Z</time>
      </trkpt>
      <trkpt lat="47.84192" lon="6.92556">
        <ele>917</ele>
        <time>2014-07-15T10:54:46Z</time>
      </trkpt>
      <trkpt lat="47.84192" lon="6.92556">
        <ele>917</ele>
        <time>2014-07-15T10:54:47Z</time>
      </trkpt>
      <trkpt lat="47.84193" lon="6.92556">
        <ele>918</ele>
        <time>2014-07-15T10:54:48Z</time>
      </trkpt>
      <trkpt lat="47.84193" lon="6.92556">
        <ele>918</ele>
        <time>2014-07-15T10:54:49Z</time>
      </trkpt>
      <trkpt lat="47.84193" lon="6.92556">
        <ele>918</ele>
        <time>2014-07-15T10:54:50Z</time>
      </trkpt>
      <trkpt lat="47.84193" lon="6.92556">
        <ele>918</ele>
        <time>2014-07-15T10:54:51Z</time>
      </trkpt>
      <trkpt lat="47.84193" lon="6.92556">
        <ele>918</ele>
        <time>2014-07-15T10:54:52Z</time>
      </trkpt>
      <trkpt lat="47.84193" lon="6.92556">
        <ele>918</ele>
        <time>2014-07-15T10:54:53Z</time>
      </trkpt>
      <trkpt lat="47.84193" lon="6.92556">
        <ele>918</ele>
        <time>2014-07-15T10:54:54Z</time>
      </trkpt>
      <trkpt lat="47.84193" lon="6.92556">
        <ele>918</ele>
        <time>2014-07-15T10:54:55Z</time>
      </trkpt>
      <trkpt lat="47.84193" lon="6.92556">
        <ele>918</ele>
        <time>2014-07-15T10:54:56Z</time>
      </trkpt>
      <trkpt lat="47.84193" lon="6.92556">
        <ele>918</ele>
        <time>2014-07-15T10:54:57Z</time>
      </trkpt>
      <trkpt lat="47.84193" lon="6.92556">
        <ele>918</ele>
        <time>2014-07-15T10:54:58Z</time>
      </trkpt>
      <trkpt lat="47.84193" lon="6.92556">
        <ele>918</ele>
        <time>2014-07-15T10:54:59Z</time>
      </trkpt>
      <trkpt lat="47.84193" lon="6.92556">
        <ele>918</ele>
        <time>2014-07-15T10:55:00Z</time>
      </trkpt>
      <trkpt lat="47.84194" lon="6.92556">
        <ele>918</ele>
        <time>2014-07-15T10:55:01Z</time>
      </trkpt>
      <trkpt lat="47.84195" lon="6.92557">
        <ele>918</ele>
        <time>2014-07-15T10:55:02Z</time>
      </trkpt>
      <trkpt lat="47.84196" lon="6.92557">
        <ele>918</ele>
        <time>2014-07-15T10:55:03Z</time>
      </trkpt>
      <trkpt lat="47.84197" lon="6.92558">
        <ele>918</ele>
        <time>2014-07-15T10:55:04Z</time>
      </trkpt>
      <trkpt lat="47.84198" lon="6.92559">
        <ele>918</ele>
        <time>2014-07-15T10:55:05Z</time>
      </trkpt>
      <trkpt lat="47.84202" lon="6.9256">
        <ele>918</ele>
        <time>2014-07-15T10:55:07Z</time>
      </trkpt>
      <trkpt lat="47.84204" lon="6.92561">
        <ele>918</ele>
        <time>2014-07-15T10:55:08Z</time>
      </trkpt>
      <trkpt lat="47.84207" lon="6.92561">
        <ele>919</ele>
        <time>2014-07-15T10:55:09Z</time>
      </trkpt>
      <trkpt lat="47.84209" lon="6.92562">
        <ele>919</ele>
        <time>2014-07-15T10:55:10Z</time>
      </trkpt>
      <trkpt lat="47.84212" lon="6.92562">
        <ele>919</ele>
        <time>2014-07-15T10:55:11Z</time>
      </trkpt>
      <trkpt lat="47.84214" lon="6.92562">
        <ele>919</ele>
        <time>2014-07-15T10:55:12Z</time>
      </trkpt>
      <trkpt lat="47.84217" lon="6.92563">
        <ele>919</ele>
        <time>2014-07-15T10:55:13Z</time>
      </trkpt>
      <trkpt lat="47.84219" lon="6.92563">
        <ele>920</ele>
        <time>2014-07-15T10:55:14Z</time>
      </trkpt>
      <trkpt lat="47.84221" lon="6.92564">
        <ele>920</ele>
        <time>2014-07-15T10:55:15Z</time>
      </trkpt>
      <trkpt lat="47.84222" lon="6.92565">
        <ele>920</ele>
        <time>2014-07-15T10:55:16Z</time>
      </trkpt>
      <trkpt lat="47.84224" lon="6.92566">
        <ele>920</ele>
        <time>2014-07-15T10:55:17Z</time>
      </trkpt>
      <trkpt lat="47.84226" lon="6.92567">
        <ele>920</ele>
        <time>2014-07-15T10:55:18Z</time>
      </trkpt>
      <trkpt lat="47.84228" lon="6.92568">
        <ele>920</ele>
        <time>2014-07-15T10:55:19Z</time>
      </trkpt>
      <trkpt lat="47.84231" lon="6.92569">
        <ele>920</ele>
        <time>2014-07-15T10:55:21Z</time>
      </trkpt>
      <trkpt lat="47.84233" lon="6.9257">
        <ele>920</ele>
        <time>2014-07-15T10:55:22Z</time>
      </trkpt>
      <trkpt lat="47.84235" lon="6.9257">
        <ele>920</ele>
        <time>2014-07-15T10:55:23Z</time>
      </trkpt>
      <trkpt lat="47.84237" lon="6.92571">
        <ele>920</ele>
        <time>2014-07-15T10:55:24Z</time>
      </trkpt>
      <trkpt lat="47.84239" lon="6.9257">
        <ele>920</ele>
        <time>2014-07-15T10:55:25Z</time>
      </trkpt>
      <trkpt lat="47.84241" lon="6.9257">
        <ele>920</ele>
        <time>2014-07-15T10:55:26Z</time>
      </trkpt>
      <trkpt lat="47.84242" lon="6.92569">
        <ele>920</ele>
        <time>2014-07-15T10:55:27Z</time>
      </trkpt>
      <trkpt lat="47.84244" lon="6.92569">
        <ele>920</ele>
        <time>2014-07-15T10:55:28Z</time>
      </trkpt>
      <trkpt lat="47.84246" lon="6.92569">
        <ele>920</ele>
        <time>2014-07-15T10:55:29Z</time>
      </trkpt>
      <trkpt lat="47.84248" lon="6.92569">
        <ele>920</ele>
        <time>2014-07-15T10:55:30Z</time>
      </trkpt>
      <trkpt lat="47.84249" lon="6.92569">
        <ele>920</ele>
        <time>2014-07-15T10:55:31Z</time>
      </trkpt>
      <trkpt lat="47.84251" lon="6.92569">
        <ele>925</ele>
        <time>2014-07-15T10:55:32Z</time>
      </trkpt>
      <trkpt lat="47.84252" lon="6.92569">
        <ele>925</ele>
        <time>2014-07-15T10:55:33Z</time>
      </trkpt>
      <trkpt lat="47.84253" lon="6.92569">
        <ele>926</ele>
        <time>2014-07-15T10:55:34Z</time>
      </trkpt>
      <trkpt lat="47.84254" lon="6.92568">
        <ele>926</ele>
        <time>2014-07-15T10:55:35Z</time>
      </trkpt>
      <trkpt lat="47.84255" lon="6.92568">
        <ele>926</ele>
        <time>2014-07-15T10:55:36Z</time>
      </trkpt>
      <trkpt lat="47.84257" lon="6.92566">
        <ele>927</ele>
        <time>2014-07-15T10:55:37Z</time>
      </trkpt>
      <trkpt lat="47.84258" lon="6.92566">
        <ele>927</ele>
        <time>2014-07-15T10:55:38Z</time>
      </trkpt>
      <trkpt lat="47.84259" lon="6.92566">
        <ele>927</ele>
        <time>2014-07-15T10:55:39Z</time>
      </trkpt>
      <trkpt lat="47.8426" lon="6.92566">
        <ele>927</ele>
        <time>2014-07-15T10:55:41Z</time>
      </trkpt>
      <trkpt lat="47.84261" lon="6.92566">
        <ele>928</ele>
        <time>2014-07-15T10:55:42Z</time>
      </trkpt>
      <trkpt lat="47.84262" lon="6.92566">
        <ele>928</ele>
        <time>2014-07-15T10:55:43Z</time>
      </trkpt>
      <trkpt lat="47.84263" lon="6.92567">
        <ele>928</ele>
        <time>2014-07-15T10:55:44Z</time>
      </trkpt>
      <trkpt lat="47.84263" lon="6.92568">
        <ele>927</ele>
        <time>2014-07-15T10:55:45Z</time>
      </trkpt>
      <trkpt lat="47.84263" lon="6.92568">
        <ele>927</ele>
        <time>2014-07-15T10:55:46Z</time>
      </trkpt>
      <trkpt lat="47.84263" lon="6.92568">
        <ele>927</ele>
        <time>2014-07-15T10:55:47Z</time>
      </trkpt>
      <trkpt lat="47.84263" lon="6.92567">
        <ele>928</ele>
        <time>2014-07-15T10:55:48Z</time>
      </trkpt>
      <trkpt lat="47.84264" lon="6.92567">
        <ele>928</ele>
        <time>2014-07-15T10:55:49Z</time>
      </trkpt>
      <trkpt lat="47.84264" lon="6.92566">
        <ele>928</ele>
        <time>2014-07-15T10:55:50Z</time>
      </trkpt>
      <trkpt lat="47.84264" lon="6.92566">
        <ele>928</ele>
        <time>2014-07-15T10:55:51Z</time>
      </trkpt>
      <trkpt lat="47.84265" lon="6.92566">
        <ele>928</ele>
        <time>2014-07-15T10:55:52Z</time>
      </trkpt>
      <trkpt lat="47.84265" lon="6.92565">
        <ele>928</ele>
        <time>2014-07-15T10:55:53Z</time>
      </trkpt>
      <trkpt lat="47.84266" lon="6.92565">
        <ele>928</ele>
        <time>2014-07-15T10:55:54Z</time>
      </trkpt>
      <trkpt lat="47.84266" lon="6.92565">
        <ele>929</ele>
        <time>2014-07-15T10:55:55Z</time>
      </trkpt>
      <trkpt lat="47.84266" lon="6.92565">
        <ele>929</ele>
        <time>2014-07-15T10:55:56Z</time>
      </trkpt>
      <trkpt lat="47.84266" lon="6.92565">
        <ele>929</ele>
        <time>2014-07-15T10:55:57Z</time>
      </trkpt>
      <trkpt lat="47.84266" lon="6.92565">
        <ele>929</ele>
        <time>2014-07-15T10:55:58Z</time>
      </trkpt>
      <trkpt lat="47.84266" lon="6.92565">
        <ele>929</ele>
        <time>2014-07-15T10:55:59Z</time>
      </trkpt>
      <trkpt lat="47.84266" lon="6.92565">
        <ele>929</ele>
        <time>2014-07-15T10:56:00Z</time>
      </trkpt>
      <trkpt lat="47.84266" lon="6.92565">
        <ele>929</ele>
        <time>2014-07-15T10:56:01Z</time>
      </trkpt>
      <trkpt lat="47.84266" lon="6.92565">
        <ele>929</ele>
        <time>2014-07-15T10:56:02Z</time>
      </trkpt>
      <trkpt lat="47.84266" lon="6.92565">
        <ele>929</ele>
        <time>2014-07-15T10:56:04Z</time>
      </trkpt>
      <trkpt lat="47.84266" lon="6.92565">
        <ele>929</ele>
        <time>2014-07-15T10:56:05Z</time>
      </trkpt>
      <trkpt lat="47.84268" lon="6.92564">
        <ele>929</ele>
        <time>2014-07-15T10:56:06Z</time>
      </trkpt>
      <trkpt lat="47.8427" lon="6.92564">
        <ele>929</ele>
        <time>2014-07-15T10:56:07Z</time>
      </trkpt>
      <trkpt lat="47.84272" lon="6.92564">
        <ele>930</ele>
        <time>2014-07-15T10:56:08Z</time>
      </trkpt>
      <trkpt lat="47.84275" lon="6.92565">
        <ele>930</ele>
        <time>2014-07-15T10:56:09Z</time>
      </trkpt>
      <trkpt lat="47.84277" lon="6.92566">
        <ele>930</ele>
        <time>2014-07-15T10:56:10Z</time>
      </trkpt>
      <trkpt lat="47.8428" lon="6.92567">
        <ele>930</ele>
        <time>2014-07-15T10:56:11Z</time>
      </trkpt>
      <trkpt lat="47.84283" lon="6.92567">
        <ele>931</ele>
        <time>2014-07-15T10:56:12Z</time>
      </trkpt>
      <trkpt lat="47.84284" lon="6.92568">
        <ele>931</ele>
        <time>2014-07-15T10:56:13Z</time>
      </trkpt>
      <trkpt lat="47.84286" lon="6.92568">
        <ele>931</ele>
        <time>2014-07-15T10:56:14Z</time>
      </trkpt>
      <trkpt lat="47.84288" lon="6.92569">
        <ele>931</ele>
        <time>2014-07-15T10:56:15Z</time>
      </trkpt>
      <trkpt lat="47.84289" lon="6.92568">
        <ele>931</ele>
        <time>2014-07-15T10:56:16Z</time>
      </trkpt>
      <trkpt lat="47.8429" lon="6.92567">
        <ele>931</ele>
        <time>2014-07-15T10:56:17Z</time>
      </trkpt>
      <trkpt lat="47.8429" lon="6.92566">
        <ele>931</ele>
        <time>2014-07-15T10:56:18Z</time>
      </trkpt>
      <trkpt lat="47.8429" lon="6.92565">
        <ele>932</ele>
        <time>2014-07-15T10:56:19Z</time>
      </trkpt>
      <trkpt lat="47.8429" lon="6.92565">
        <ele>932</ele>
        <time>2014-07-15T10:56:20Z</time>
      </trkpt>
      <trkpt lat="47.8429" lon="6.92565">
        <ele>932</ele>
        <time>2014-07-15T10:56:21Z</time>
      </trkpt>
      <trkpt lat="47.8429" lon="6.92565">
        <ele>932</ele>
        <time>2014-07-15T10:56:22Z</time>
      </trkpt>
      <trkpt lat="47.8429" lon="6.92565">
        <ele>932</ele>
        <time>2014-07-15T10:56:23Z</time>
      </trkpt>
      <trkpt lat="47.8429" lon="6.92566">
        <ele>932</ele>
        <time>2014-07-15T10:56:24Z</time>
      </trkpt>
      <trkpt lat="47.84289" lon="6.92566">
        <ele>931</ele>
        <time>2014-07-15T10:56:25Z</time>
      </trkpt>
      <trkpt lat="47.8429" lon="6.92566">
        <ele>931</ele>
        <time>2014-07-15T10:56:26Z</time>
      </trkpt>
      <trkpt lat="47.8429" lon="6.92567">
        <ele>931</ele>
        <time>2014-07-15T10:56:27Z</time>
      </trkpt>
      <trkpt lat="47.84289" lon="6.92567">
        <ele>931</ele>
        <time>2014-07-15T10:56:28Z</time>
      </trkpt>
      <trkpt lat="47.84289" lon="6.92567">
        <ele>931</ele>
        <time>2014-07-15T10:56:29Z</time>
      </trkpt>
      <trkpt lat="47.84288" lon="6.92567">
        <ele>931</ele>
        <time>2014-07-15T10:56:31Z</time>
      </trkpt>
      <trkpt lat="47.84288" lon="6.92567">
        <ele>931</ele>
        <time>2014-07-15T10:56:32Z</time>
      </trkpt>
      <trkpt lat="47.84288" lon="6.92567">
        <ele>931</ele>
        <time>2014-07-15T10:56:33Z</time>
      </trkpt>
      <trkpt lat="47.84288" lon="6.92567">
        <ele>931</ele>
        <time>2014-07-15T10:56:34Z</time>
      </trkpt>
      <trkpt lat="47.84288" lon="6.92567">
        <ele>931</ele>
        <time>2014-07-15T10:56:35Z</time>
      </trkpt>
      <trkpt lat="47.84288" lon="6.92567">
        <ele>931</ele>
        <time>2014-07-15T10:56:36Z</time>
      </trkpt>
      <trkpt lat="47.84288" lon="6.92567">
        <ele>931</ele>
        <time>2014-07-15T10:56:38Z</time>
      </trkpt>
      <trkpt lat="47.84288" lon="6.92567">
        <ele>931</ele>
        <time>2014-07-15T10:56:39Z</time>
      </trkpt>
      <trkpt lat="47.84288" lon="6.92567">
        <ele>931</ele>
        <time>2014-07-15T10:56:40Z</time>
      </trkpt>
      <trkpt lat="47.84288" lon="6.92567">
        <ele>931</ele>
        <time>2014-07-15T10:56:41Z</time>
      </trkpt>
      <trkpt lat="47.84288" lon="6.92567">
        <ele>931</ele>
        <time>2014-07-15T10:56:42Z</time>
      </trkpt>
      <trkpt lat="47.84288" lon="6.92567">
        <ele>931</ele>
        <time>2014-07-15T10:56:43Z</time>
      </trkpt>
      <trkpt lat="47.84288" lon="6.92567">
        <ele>931</ele>
        <time>2014-07-15T10:56:44Z</time>
      </trkpt>
      <trkpt lat="47.84288" lon="6.92567">
        <ele>931</ele>
        <time>2014-07-15T10:56:46Z</time>
      </trkpt>
      <trkpt lat="47.84288" lon="6.92567">
        <ele>931</ele>
        <time>2014-07-15T10:56:47Z</time>
      </trkpt>
      <trkpt lat="47.84288" lon="6.92567">
        <ele>931</ele>
        <time>2014-07-15T10:56:48Z</time>
      </trkpt>
      <trkpt lat="47.84288" lon="6.92567">
        <ele>931</ele>
        <time>2014-07-15T10:56:50Z</time>
      </trkpt>
      <trkpt lat="47.84288" lon="6.92567">
        <ele>931</ele>
        <time>2014-07-15T10:56:51Z</time>
      </trkpt>
      <trkpt lat="47.84288" lon="6.92567">
        <ele>931</ele>
        <time>2014-07-15T10:56:52Z</time>
      </trkpt>
      <trkpt lat="47.84288" lon="6.92567">
        <ele>931</ele>
        <time>2014-07-15T10:56:53Z</time>
      </trkpt>
      <trkpt lat="47.84288" lon="6.92567">
        <ele>931</ele>
        <time>2014-07-15T10:56:54Z</time>
      </trkpt>
      <trkpt lat="47.84288" lon="6.92567">
        <ele>931</ele>
        <time>2014-07-15T10:56:55Z</time>
      </trkpt>
      <trkpt lat="47.84288" lon="6.92567">
        <ele>931</ele>
        <time>2014-07-15T10:56:56Z</time>
      </trkpt>
      <trkpt lat="47.84288" lon="6.92567">
        <ele>931</ele>
        <time>2014-07-15T10:56:57Z</time>
      </trkpt>
      <trkpt lat="47.84288" lon="6.92567">
        <ele>931</ele>
        <time>2014-07-15T10:56:58Z</time>
      </trkpt>
      <trkpt lat="47.84288" lon="6.92567">
        <ele>931</ele>
        <time>2014-07-15T10:56:59Z</time>
      </trkpt>
      <trkpt lat="47.84288" lon="6.92567">
        <ele>931</ele>
        <time>2014-07-15T10:57:00Z</time>
      </trkpt>
      <trkpt lat="47.84288" lon="6.92567">
        <ele>931</ele>
        <time>2014-07-15T10:57:01Z</time>
      </trkpt>
      <trkpt lat="47.84288" lon="6.92567">
        <ele>931</ele>
        <time>2014-07-15T10:57:03Z</time>
      </trkpt>
      <trkpt lat="47.84288" lon="6.92567">
        <ele>931</ele>
        <time>2014-07-15T10:57:04Z</time>
      </trkpt>
      <trkpt lat="47.84288" lon="6.92567">
        <ele>931</ele>
        <time>2014-07-15T10:57:05Z</time>
      </trkpt>
      <trkpt lat="47.84288" lon="6.92567">
        <ele>931</ele>
        <time>2014-07-15T10:57:06Z</time>
      </trkpt>
      <trkpt lat="47.84288" lon="6.92567">
        <ele>931</ele>
        <time>2014-07-15T10:57:07Z</time>
      </trkpt>
      <trkpt lat="47.84288" lon="6.92567">
        <ele>931</ele>
        <time>2014-07-15T10:57:08Z</time>
      </trkpt>
      <trkpt lat="47.84288" lon="6.92567">
        <ele>931</ele>
        <time>2014-07-15T10:57:09Z</time>
      </trkpt>
      <trkpt lat="47.84288" lon="6.92567">
        <ele>931</ele>
        <time>2014-07-15T10:57:10Z</time>
      </trkpt>
      <trkpt lat="47.84288" lon="6.92567">
        <ele>931</ele>
        <time>2014-07-15T10:57:11Z</time>
      </trkpt>
      <trkpt lat="47.84288" lon="6.92567">
        <ele>931</ele>
        <time>2014-07-15T10:57:12Z</time>
      </trkpt>
      <trkpt lat="47.84288" lon="6.92567">
        <ele>931</ele>
        <time>2014-07-15T10:57:13Z</time>
      </trkpt>
      <trkpt lat="47.84288" lon="6.92567">
        <ele>931</ele>
        <time>2014-07-15T10:57:14Z</time>
      </trkpt>
      <trkpt lat="47.84288" lon="6.92567">
        <ele>931</ele>
        <time>2014-07-15T10:57:15Z</time>
      </trkpt>
      <trkpt lat="47.84288" lon="6.92567">
        <ele>931</ele>
        <time>2014-07-15T10:57:16Z</time>
      </trkpt>
      <trkpt lat="47.84288" lon="6.92567">
        <ele>931</ele>
        <time>2014-07-15T10:57:17Z</time>
      </trkpt>
      <trkpt lat="47.84288" lon="6.92567">
        <ele>931</ele>
        <time>2014-07-15T10:57:18Z</time>
      </trkpt>
      <trkpt lat="47.84289" lon="6.92566">
        <ele>931</ele>
        <time>2014-07-15T10:57:20Z</time>
      </trkpt>
      <trkpt lat="47.8429" lon="6.92567">
        <ele>931</ele>
        <time>2014-07-15T10:57:21Z</time>
      </trkpt>
      <trkpt lat="47.84292" lon="6.92567">
        <ele>932</ele>
        <time>2014-07-15T10:57:22Z</time>
      </trkpt>
      <trkpt lat="47.84293" lon="6.92568">
        <ele>932</ele>
        <time>2014-07-15T10:57:23Z</time>
      </trkpt>
      <trkpt lat="47.84297" lon="6.92569">
        <ele>932</ele>
        <time>2014-07-15T10:57:24Z</time>
      </trkpt>
      <trkpt lat="47.84299" lon="6.9257">
        <ele>932</ele>
        <time>2014-07-15T10:57:25Z</time>
      </trkpt>
      <trkpt lat="47.84301" lon="6.9257">
        <ele>932</ele>
        <time>2014-07-15T10:57:26Z</time>
      </trkpt>
      <trkpt lat="47.84302" lon="6.9257">
        <ele>932</ele>
        <time>2014-07-15T10:57:27Z</time>
      </trkpt>
      <trkpt lat="47.84303" lon="6.9257">
        <ele>932</ele>
        <time>2014-07-15T10:57:28Z</time>
      </trkpt>
      <trkpt lat="47.84304" lon="6.9257">
        <ele>932</ele>
        <time>2014-07-15T10:57:29Z</time>
      </trkpt>
      <trkpt lat="47.84305" lon="6.9257">
        <ele>932</ele>
        <time>2014-07-15T10:57:30Z</time>
      </trkpt>
      <trkpt lat="47.84306" lon="6.92571">
        <ele>932</ele>
        <time>2014-07-15T10:57:31Z</time>
      </trkpt>
      <trkpt lat="47.84307" lon="6.92572">
        <ele>932</ele>
        <time>2014-07-15T10:57:32Z</time>
      </trkpt>
      <trkpt lat="47.84307" lon="6.92573">
        <ele>932</ele>
        <time>2014-07-15T10:57:33Z</time>
      </trkpt>
      <trkpt lat="47.84308" lon="6.92573">
        <ele>931</ele>
        <time>2014-07-15T10:57:34Z</time>
      </trkpt>
      <trkpt lat="47.84308" lon="6.92574">
        <ele>931</ele>
        <time>2014-07-15T10:57:35Z</time>
      </trkpt>
      <trkpt lat="47.84308" lon="6.92574">
        <ele>931</ele>
        <time>2014-07-15T10:57:36Z</time>
      </trkpt>
      <trkpt lat="47.84309" lon="6.92574">
        <ele>931</ele>
        <time>2014-07-15T10:57:37Z</time>
      </trkpt>
      <trkpt lat="47.84309" lon="6.92574">
        <ele>931</ele>
        <time>2014-07-15T10:57:38Z</time>
      </trkpt>
      <trkpt lat="47.84309" lon="6.92574">
        <ele>931</ele>
        <time>2014-07-15T10:57:39Z</time>
      </trkpt>
      <trkpt lat="47.84309" lon="6.92574">
        <ele>931</ele>
        <time>2014-07-15T10:57:40Z</time>
      </trkpt>
      <trkpt lat="47.84309" lon="6.92574">
        <ele>931</ele>
        <time>2014-07-15T10:57:41Z</time>
      </trkpt>
      <trkpt lat="47.84309" lon="6.92574">
        <ele>931</ele>
        <time>2014-07-15T10:57:42Z</time>
      </trkpt>
      <trkpt lat="47.84309" lon="6.92574">
        <ele>931</ele>
        <time>2014-07-15T10:57:43Z</time>
      </trkpt>
      <trkpt lat="47.84309" lon="6.92574">
        <ele>931</ele>
        <time>2014-07-15T10:57:44Z</time>
      </trkpt>
      <trkpt lat="47.84309" lon="6.92573">
        <ele>931</ele>
        <time>2014-07-15T10:57:45Z</time>
      </trkpt>
      <trkpt lat="47.84309" lon="6.92573">
        <ele>931</ele>
        <time>2014-07-15T10:57:46Z</time>
      </trkpt>
      <trkpt lat="47.84309" lon="6.92573">
        <ele>931</ele>
        <time>2014-07-15T10:57:47Z</time>
      </trkpt>
      <trkpt lat="47.84309" lon="6.92573">
        <ele>931</ele>
        <time>2014-07-15T10:57:48Z</time>
      </trkpt>
      <trkpt lat="47.84309" lon="6.92573">
        <ele>931</ele>
        <time>2014-07-15T10:57:49Z</time>
      </trkpt>
      <trkpt lat="47.84309" lon="6.92573">
        <ele>931</ele>
        <time>2014-07-15T10:57:50Z</time>
      </trkpt>
      <trkpt lat="47.8431" lon="6.92573">
        <ele>931</ele>
        <time>2014-07-15T10:57:51Z</time>
      </trkpt>
      <trkpt lat="47.8431" lon="6.92573">
        <ele>931</ele>
        <time>2014-07-15T10:57:52Z</time>
      </trkpt>
      <trkpt lat="47.8431" lon="6.92573">
        <ele>931</ele>
        <time>2014-07-15T10:57:53Z</time>
      </trkpt>
      <trkpt lat="47.8431" lon="6.92573">
        <ele>931</ele>
        <time>2014-07-15T10:57:54Z</time>
      </trkpt>
      <trkpt lat="47.84315" lon="6.9257">
        <ele>932</ele>
        <time>2014-07-15T10:57:56Z</time>
      </trkpt>
      <trkpt lat="47.84319" lon="6.92567">
        <ele>932</ele>
        <time>2014-07-15T10:57:57Z</time>
      </trkpt>
      <trkpt lat="47.84321" lon="6.92565">
        <ele>932</ele>
        <time>2014-07-15T10:57:58Z</time>
      </trkpt>
      <trkpt lat="47.84324" lon="6.92564">
        <ele>932</ele>
        <time>2014-07-15T10:57:59Z</time>
      </trkpt>
      <trkpt lat="47.84327" lon="6.92564">
        <ele>932</ele>
        <time>2014-07-15T10:58:00Z</time>
      </trkpt>
      <trkpt lat="47.84329" lon="6.92563">
        <ele>932</ele>
        <time>2014-07-15T10:58:01Z</time>
      </trkpt>
      <trkpt lat="47.84331" lon="6.92561">
        <ele>933</ele>
        <time>2014-07-15T10:58:02Z</time>
      </trkpt>
      <trkpt lat="47.84333" lon="6.92559">
        <ele>933</ele>
        <time>2014-07-15T10:58:03Z</time>
      </trkpt>
      <trkpt lat="47.84335" lon="6.92559">
        <ele>940</ele>
        <time>2014-07-15T10:58:04Z</time>
      </trkpt>
      <trkpt lat="47.84337" lon="6.92558">
        <ele>941</ele>
        <time>2014-07-15T10:58:05Z</time>
      </trkpt>
      <trkpt lat="47.84339" lon="6.92557">
        <ele>941</ele>
        <time>2014-07-15T10:58:06Z</time>
      </trkpt>
      <trkpt lat="47.84342" lon="6.92557">
        <ele>941</ele>
        <time>2014-07-15T10:58:07Z</time>
      </trkpt>
      <trkpt lat="47.84344" lon="6.92556">
        <ele>942</ele>
        <time>2014-07-15T10:58:08Z</time>
      </trkpt>
      <trkpt lat="47.84346" lon="6.92556">
        <ele>942</ele>
        <time>2014-07-15T10:58:09Z</time>
      </trkpt>
      <trkpt lat="47.84349" lon="6.92556">
        <ele>942</ele>
        <time>2014-07-15T10:58:10Z</time>
      </trkpt>
      <trkpt lat="47.84351" lon="6.92556">
        <ele>943</ele>
        <time>2014-07-15T10:58:11Z</time>
      </trkpt>
      <trkpt lat="47.84353" lon="6.92556">
        <ele>943</ele>
        <time>2014-07-15T10:58:12Z</time>
      </trkpt>
      <trkpt lat="47.84361" lon="6.92556">
        <ele>944</ele>
        <time>2014-07-15T10:58:14Z</time>
      </trkpt>
      <trkpt lat="47.84364" lon="6.92556">
        <ele>944</ele>
        <time>2014-07-15T10:58:15Z</time>
      </trkpt>
      <trkpt lat="47.84366" lon="6.92556">
        <ele>945</ele>
        <time>2014-07-15T10:58:16Z</time>
      </trkpt>
      <trkpt lat="47.84368" lon="6.92556">
        <ele>945</ele>
        <time>2014-07-15T10:58:17Z</time>
      </trkpt>
      <trkpt lat="47.8437" lon="6.92557">
        <ele>945</ele>
        <time>2014-07-15T10:58:18Z</time>
      </trkpt>
      <trkpt lat="47.84373" lon="6.92557">
        <ele>945</ele>
        <time>2014-07-15T10:58:19Z</time>
      </trkpt>
      <trkpt lat="47.84374" lon="6.92558">
        <ele>945</ele>
        <time>2014-07-15T10:58:20Z</time>
      </trkpt>
      <trkpt lat="47.84375" lon="6.92558">
        <ele>945</ele>
        <time>2014-07-15T10:58:21Z</time>
      </trkpt>
      <trkpt lat="47.84376" lon="6.92558">
        <ele>945</ele>
        <time>2014-07-15T10:58:22Z</time>
      </trkpt>
      <trkpt lat="47.84377" lon="6.92558">
        <ele>946</ele>
        <time>2014-07-15T10:58:23Z</time>
      </trkpt>
      <trkpt lat="47.84378" lon="6.92558">
        <ele>946</ele>
        <time>2014-07-15T10:58:24Z</time>
      </trkpt>
      <trkpt lat="47.84378" lon="6.92558">
        <ele>946</ele>
        <time>2014-07-15T10:58:25Z</time>
      </trkpt>
      <trkpt lat="47.84378" lon="6.92558">
        <ele>946</ele>
        <time>2014-07-15T10:58:26Z</time>
      </trkpt>
      <trkpt lat="47.84379" lon="6.92558">
        <ele>946</ele>
        <time>2014-07-15T10:58:27Z</time>
      </trkpt>
      <trkpt lat="47.84379" lon="6.92558">
        <ele>946</ele>
        <time>2014-07-15T10:58:28Z</time>
      </trkpt>
      <trkpt lat="47.84379" lon="6.92558">
        <ele>946</ele>
        <time>2014-07-15T10:58:29Z</time>
      </trkpt>
      <trkpt lat="47.8438" lon="6.92559">
        <ele>946</ele>
        <time>2014-07-15T10:58:30Z</time>
      </trkpt>
      <trkpt lat="47.8438" lon="6.92559">
        <ele>946</ele>
        <time>2014-07-15T10:58:31Z</time>
      </trkpt>
      <trkpt lat="47.8438" lon="6.92559">
        <ele>946</ele>
        <time>2014-07-15T10:58:32Z</time>
      </trkpt>
      <trkpt lat="47.8438" lon="6.92559">
        <ele>946</ele>
        <time>2014-07-15T10:58:34Z</time>
      </trkpt>
      <trkpt lat="47.8438" lon="6.92559">
        <ele>946</ele>
        <time>2014-07-15T10:58:35Z</time>
      </trkpt>
      <trkpt lat="47.8438" lon="6.92559">
        <ele>946</ele>
        <time>2014-07-15T10:58:36Z</time>
      </trkpt>
      <trkpt lat="47.8438" lon="6.92559">
        <ele>946</ele>
        <time>2014-07-15T10:58:37Z</time>
      </trkpt>
      <trkpt lat="47.84381" lon="6.92559">
        <ele>946</ele>
        <time>2014-07-15T10:58:39Z</time>
      </trkpt>
      <trkpt lat="47.84382" lon="6.9256">
        <ele>946</ele>
        <time>2014-07-15T10:58:40Z</time>
      </trkpt>
      <trkpt lat="47.84383" lon="6.9256">
        <ele>946</ele>
        <time>2014-07-15T10:58:41Z</time>
      </trkpt>
      <trkpt lat="47.84385" lon="6.9256">
        <ele>946</ele>
        <time>2014-07-15T10:58:42Z</time>
      </trkpt>
      <trkpt lat="47.84387" lon="6.9256">
        <ele>946</ele>
        <time>2014-07-15T10:58:43Z</time>
      </trkpt>
      <trkpt lat="47.84389" lon="6.92561">
        <ele>946</ele>
        <time>2014-07-15T10:58:44Z</time>
      </trkpt>
      <trkpt lat="47.84391" lon="6.92562">
        <ele>946</ele>
        <time>2014-07-15T10:58:45Z</time>
      </trkpt>
      <trkpt lat="47.84393" lon="6.92563">
        <ele>946</ele>
        <time>2014-07-15T10:58:46Z</time>
      </trkpt>
      <trkpt lat="47.84395" lon="6.92563">
        <ele>946</ele>
        <time>2014-07-15T10:58:47Z</time>
      </trkpt>
      <trkpt lat="47.84396" lon="6.92563">
        <ele>946</ele>
        <time>2014-07-15T10:58:48Z</time>
      </trkpt>
      <trkpt lat="47.84398" lon="6.92563">
        <ele>946</ele>
        <time>2014-07-15T10:58:49Z</time>
      </trkpt>
      <trkpt lat="47.84399" lon="6.92563">
        <ele>946</ele>
        <time>2014-07-15T10:58:50Z</time>
      </trkpt>
      <trkpt lat="47.84401" lon="6.92562">
        <ele>946</ele>
        <time>2014-07-15T10:58:51Z</time>
      </trkpt>
      <trkpt lat="47.84404" lon="6.9256">
        <ele>947</ele>
        <time>2014-07-15T10:58:52Z</time>
      </trkpt>
      <trkpt lat="47.84407" lon="6.92558">
        <ele>947</ele>
        <time>2014-07-15T10:58:53Z</time>
      </trkpt>
      <trkpt lat="47.84408" lon="6.92558">
        <ele>947</ele>
        <time>2014-07-15T10:58:54Z</time>
      </trkpt>
      <trkpt lat="47.8441" lon="6.92557">
        <ele>947</ele>
        <time>2014-07-15T10:58:55Z</time>
      </trkpt>
      <trkpt lat="47.84411" lon="6.92557">
        <ele>947</ele>
        <time>2014-07-15T10:58:56Z</time>
      </trkpt>
      <trkpt lat="47.84411" lon="6.92557">
        <ele>947</ele>
        <time>2014-07-15T10:58:57Z</time>
      </trkpt>
      <trkpt lat="47.84412" lon="6.92556">
        <ele>947</ele>
        <time>2014-07-15T10:58:58Z</time>
      </trkpt>
      <trkpt lat="47.84412" lon="6.92555">
        <ele>947</ele>
        <time>2014-07-15T10:58:59Z</time>
      </trkpt>
      <trkpt lat="47.84413" lon="6.92555">
        <ele>948</ele>
        <time>2014-07-15T10:59:00Z</time>
      </trkpt>
      <trkpt lat="47.84413" lon="6.92554">
        <ele>948</ele>
        <time>2014-07-15T10:59:01Z</time>
      </trkpt>
      <trkpt lat="47.84413" lon="6.92554">
        <ele>948</ele>
        <time>2014-07-15T10:59:02Z</time>
      </trkpt>
      <trkpt lat="47.84414" lon="6.92554">
        <ele>948</ele>
        <time>2014-07-15T10:59:03Z</time>
      </trkpt>
      <trkpt lat="47.84414" lon="6.92554">
        <ele>948</ele>
        <time>2014-07-15T10:59:04Z</time>
      </trkpt>
      <trkpt lat="47.84414" lon="6.92554">
        <ele>948</ele>
        <time>2014-07-15T10:59:05Z</time>
      </trkpt>
      <trkpt lat="47.84414" lon="6.92554">
        <ele>948</ele>
        <time>2014-07-15T10:59:06Z</time>
      </trkpt>
      <trkpt lat="47.84414" lon="6.92554">
        <ele>948</ele>
        <time>2014-07-15T10:59:07Z</time>
      </trkpt>
      <trkpt lat="47.84414" lon="6.92554">
        <ele>948</ele>
        <time>2014-07-15T10:59:08Z</time>
      </trkpt>
      <trkpt lat="47.84414" lon="6.92554">
        <ele>948</ele>
        <time>2014-07-15T10:59:09Z</time>
      </trkpt>
      <trkpt lat="47.84414" lon="6.92554">
        <ele>948</ele>
        <time>2014-07-15T10:59:10Z</time>
      </trkpt>
      <trkpt lat="47.84414" lon="6.92554">
        <ele>948</ele>
        <time>2014-07-15T10:59:11Z</time>
      </trkpt>
      <trkpt lat="47.84414" lon="6.92554">
        <ele>948</ele>
        <time>2014-07-15T10:59:12Z</time>
      </trkpt>
      <trkpt lat="47.84414" lon="6.92554">
        <ele>948</ele>
        <time>2014-07-15T10:59:13Z</time>
      </trkpt>
      <trkpt lat="47.84414" lon="6.92554">
        <ele>948</ele>
        <time>2014-07-15T10:59:14Z</time>
      </trkpt>
      <trkpt lat="47.84414" lon="6.92554">
        <ele>948</ele>
        <time>2014-07-15T10:59:17Z</time>
      </trkpt>
      <trkpt lat="47.84414" lon="6.92553">
        <ele>948</ele>
        <time>2014-07-15T10:59:19Z</time>
      </trkpt>
      <trkpt lat="47.84414" lon="6.92553">
        <ele>948</ele>
        <time>2014-07-15T10:59:20Z</time>
      </trkpt>
      <trkpt lat="47.84414" lon="6.92553">
        <ele>948</ele>
        <time>2014-07-15T10:59:21Z</time>
      </trkpt>
      <trkpt lat="47.84414" lon="6.92553">
        <ele>948</ele>
        <time>2014-07-15T10:59:22Z</time>
      </trkpt>
      <trkpt lat="47.84414" lon="6.92552">
        <ele>948</ele>
        <time>2014-07-15T10:59:23Z</time>
      </trkpt>
      <trkpt lat="47.84414" lon="6.92551">
        <ele>948</ele>
        <time>2014-07-15T10:59:24Z</time>
      </trkpt>
      <trkpt lat="47.84413" lon="6.92551">
        <ele>948</ele>
        <time>2014-07-15T10:59:25Z</time>
      </trkpt>
      <trkpt lat="47.84413" lon="6.92549">
        <ele>949</ele>
        <time>2014-07-15T10:59:26Z</time>
      </trkpt>
      <trkpt lat="47.84413" lon="6.92548">
        <ele>949</ele>
        <time>2014-07-15T10:59:27Z</time>
      </trkpt>
      <trkpt lat="47.84413" lon="6.92546">
        <ele>949</ele>
        <time>2014-07-15T10:59:28Z</time>
      </trkpt>
      <trkpt lat="47.84413" lon="6.92544">
        <ele>950</ele>
        <time>2014-07-15T10:59:29Z</time>
      </trkpt>
      <trkpt lat="47.84413" lon="6.92542">
        <ele>950</ele>
        <time>2014-07-15T10:59:30Z</time>
      </trkpt>
      <trkpt lat="47.84412" lon="6.92541">
        <ele>950</ele>
        <time>2014-07-15T10:59:31Z</time>
      </trkpt>
      <trkpt lat="47.84412" lon="6.92538">
        <ele>951</ele>
        <time>2014-07-15T10:59:33Z</time>
      </trkpt>
      <trkpt lat="47.84411" lon="6.92537">
        <ele>951</ele>
        <time>2014-07-15T10:59:34Z</time>
      </trkpt>
      <trkpt lat="47.8441" lon="6.92535">
        <ele>952</ele>
        <time>2014-07-15T10:59:35Z</time>
      </trkpt>
      <trkpt lat="47.8441" lon="6.92533">
        <ele>952</ele>
        <time>2014-07-15T10:59:36Z</time>
      </trkpt>
      <trkpt lat="47.84409" lon="6.92532">
        <ele>952</ele>
        <time>2014-07-15T10:59:37Z</time>
      </trkpt>
      <trkpt lat="47.84408" lon="6.9253">
        <ele>953</ele>
        <time>2014-07-15T10:59:38Z</time>
      </trkpt>
      <trkpt lat="47.84408" lon="6.92528">
        <ele>953</ele>
        <time>2014-07-15T10:59:39Z</time>
      </trkpt>
      <trkpt lat="47.84407" lon="6.92527">
        <ele>954</ele>
        <time>2014-07-15T10:59:40Z</time>
      </trkpt>
      <trkpt lat="47.84407" lon="6.92525">
        <ele>954</ele>
        <time>2014-07-15T10:59:41Z</time>
      </trkpt>
      <trkpt lat="47.84406" lon="6.92524">
        <ele>954</ele>
        <time>2014-07-15T10:59:42Z</time>
      </trkpt>
      <trkpt lat="47.84405" lon="6.92523">
        <ele>955</ele>
        <time>2014-07-15T10:59:43Z</time>
      </trkpt>
      <trkpt lat="47.84404" lon="6.92521">
        <ele>955</ele>
        <time>2014-07-15T10:59:44Z</time>
      </trkpt>
      <trkpt lat="47.84403" lon="6.9252">
        <ele>955</ele>
        <time>2014-07-15T10:59:45Z</time>
      </trkpt>
      <trkpt lat="47.84404" lon="6.9252">
        <ele>955</ele>
        <time>2014-07-15T10:59:46Z</time>
      </trkpt>
      <trkpt lat="47.84403" lon="6.92519">
        <ele>955</ele>
        <time>2014-07-15T10:59:47Z</time>
      </trkpt>
      <trkpt lat="47.84403" lon="6.92518">
        <ele>955</ele>
        <time>2014-07-15T10:59:48Z</time>
      </trkpt>
      <trkpt lat="47.84403" lon="6.92517">
        <ele>956</ele>
        <time>2014-07-15T10:59:50Z</time>
      </trkpt>
      <trkpt lat="47.84403" lon="6.92516">
        <ele>956</ele>
        <time>2014-07-15T10:59:51Z</time>
      </trkpt>
      <trkpt lat="47.84403" lon="6.92515">
        <ele>956</ele>
        <time>2014-07-15T10:59:52Z</time>
      </trkpt>
      <trkpt lat="47.84402" lon="6.92514">
        <ele>957</ele>
        <time>2014-07-15T10:59:54Z</time>
      </trkpt>
      <trkpt lat="47.84402" lon="6.92514">
        <ele>956</ele>
        <time>2014-07-15T10:59:55Z</time>
      </trkpt>
      <trkpt lat="47.84402" lon="6.92513">
        <ele>957</ele>
        <time>2014-07-15T10:59:57Z</time>
      </trkpt>
      <trkpt lat="47.84402" lon="6.92512">
        <ele>957</ele>
        <time>2014-07-15T10:59:58Z</time>
      </trkpt>
      <trkpt lat="47.84402" lon="6.92512">
        <ele>957</ele>
        <time>2014-07-15T10:59:59Z</time>
      </trkpt>
      <trkpt lat="47.84402" lon="6.92512">
        <ele>957</ele>
        <time>2014-07-15T11:00:00Z</time>
      </trkpt>
      <trkpt lat="47.84402" lon="6.92512">
        <ele>957</ele>
        <time>2014-07-15T11:00:01Z</time>
      </trkpt>
      <trkpt lat="47.84402" lon="6.92512">
        <ele>957</ele>
        <time>2014-07-15T11:00:02Z</time>
      </trkpt>
      <trkpt lat="47.84402" lon="6.92512">
        <ele>957</ele>
        <time>2014-07-15T11:00:03Z</time>
      </trkpt>
      <trkpt lat="47.84402" lon="6.92512">
        <ele>957</ele>
        <time>2014-07-15T11:00:04Z</time>
      </trkpt>
      <trkpt lat="47.84402" lon="6.92512">
        <ele>957</ele>
        <time>2014-07-15T11:00:05Z</time>
      </trkpt>
      <trkpt lat="47.84402" lon="6.92512">
        <ele>957</ele>
        <time>2014-07-15T11:00:06Z</time>
      </trkpt>
      <trkpt lat="47.84402" lon="6.92512">
        <ele>957</ele>
        <time>2014-07-15T11:00:07Z</time>
      </trkpt>
      <trkpt lat="47.84402" lon="6.92512">
        <ele>957</ele>
        <time>2014-07-15T11:00:09Z</time>
      </trkpt>
      <trkpt lat="47.84402" lon="6.92512">
        <ele>957</ele>
        <time>2014-07-15T11:00:10Z</time>
      </trkpt>
      <trkpt lat="47.84402" lon="6.92512">
        <ele>957</ele>
        <time>2014-07-15T11:00:11Z</time>
      </trkpt>
      <trkpt lat="47.84402" lon="6.92512">
        <ele>957</ele>
        <time>2014-07-15T11:00:12Z</time>
      </trkpt>
      <trkpt lat="47.84402" lon="6.92512">
        <ele>957</ele>
        <time>2014-07-15T11:00:14Z</time>
      </trkpt>
      <trkpt lat="47.84401" lon="6.92512">
        <ele>957</ele>
        <time>2014-07-15T11:00:15Z</time>
      </trkpt>
      <trkpt lat="47.84401" lon="6.92512">
        <ele>957</ele>
        <time>2014-07-15T11:00:16Z</time>
      </trkpt>
      <trkpt lat="47.84401" lon="6.92512">
        <ele>957</ele>
        <time>2014-07-15T11:00:17Z</time>
      </trkpt>
      <trkpt lat="47.84401" lon="6.92512">
        <ele>957</ele>
        <time>2014-07-15T11:00:18Z</time>
      </trkpt>
      <trkpt lat="47.84401" lon="6.92512">
        <ele>957</ele>
        <time>2014-07-15T11:00:19Z</time>
      </trkpt>
      <trkpt lat="47.84402" lon="6.92511">
        <ele>957</ele>
        <time>2014-07-15T11:00:20Z</time>
      </trkpt>
      <trkpt lat="47.84402" lon="6.92511">
        <ele>957</ele>
        <time>2014-07-15T11:00:21Z</time>
      </trkpt>
      <trkpt lat="47.84402" lon="6.92509">
        <ele>957</ele>
        <time>2014-07-15T11:00:22Z</time>
      </trkpt>
      <trkpt lat="47.84401" lon="6.92508">
        <ele>958</ele>
        <time>2014-07-15T11:00:23Z</time>
      </trkpt>
      <trkpt lat="47.84401" lon="6.92507">
        <ele>958</ele>
        <time>2014-07-15T11:00:24Z</time>
      </trkpt>
      <trkpt lat="47.844" lon="6.92506">
        <ele>958</ele>
        <time>2014-07-15T11:00:25Z</time>
      </trkpt>
      <trkpt lat="47.844" lon="6.92504">
        <ele>958</ele>
        <time>2014-07-15T11:00:26Z</time>
      </trkpt>
      <trkpt lat="47.84401" lon="6.92502">
        <ele>958</ele>
        <time>2014-07-15T11:00:27Z</time>
      </trkpt>
      <trkpt lat="47.84401" lon="6.925">
        <ele>971</ele>
        <time>2014-07-15T11:00:28Z</time>
      </trkpt>
      <trkpt lat="47.84401" lon="6.92497">
        <ele>971</ele>
        <time>2014-07-15T11:00:29Z</time>
      </trkpt>
      <trkpt lat="47.84401" lon="6.92492">
        <ele>972</ele>
        <time>2014-07-15T11:00:31Z</time>
      </trkpt>
      <trkpt lat="47.84402" lon="6.92489">
        <ele>972</ele>
        <time>2014-07-15T11:00:32Z</time>
      </trkpt>
      <trkpt lat="47.84402" lon="6.92486">
        <ele>973</ele>
        <time>2014-07-15T11:00:33Z</time>
      </trkpt>
      <trkpt lat="47.84403" lon="6.92483">
        <ele>973</ele>
        <time>2014-07-15T11:00:34Z</time>
      </trkpt>
      <trkpt lat="47.84404" lon="6.9248">
        <ele>974</ele>
        <time>2014-07-15T11:00:35Z</time>
      </trkpt>
      <trkpt lat="47.84404" lon="6.92476">
        <ele>974</ele>
        <time>2014-07-15T11:00:36Z</time>
      </trkpt>
      <trkpt lat="47.84405" lon="6.92473">
        <ele>975</ele>
        <time>2014-07-15T11:00:37Z</time>
      </trkpt>
      <trkpt lat="47.84405" lon="6.9247">
        <ele>976</ele>
        <time>2014-07-15T11:00:38Z</time>
      </trkpt>
      <trkpt lat="47.84405" lon="6.92468">
        <ele>976</ele>
        <time>2014-07-15T11:00:39Z</time>
      </trkpt>
      <trkpt lat="47.84405" lon="6.92465">
        <ele>977</ele>
        <time>2014-07-15T11:00:40Z</time>
      </trkpt>
      <trkpt lat="47.84405" lon="6.92463">
        <ele>977</ele>
        <time>2014-07-15T11:00:41Z</time>
      </trkpt>
      <trkpt lat="47.84404" lon="6.9246">
        <ele>978</ele>
        <time>2014-07-15T11:00:42Z</time>
      </trkpt>
      <trkpt lat="47.84405" lon="6.92458">
        <ele>979</ele>
        <time>2014-07-15T11:00:43Z</time>
      </trkpt>
      <trkpt lat="47.84405" lon="6.92457">
        <ele>979</ele>
        <time>2014-07-15T11:00:44Z</time>
      </trkpt>
      <trkpt lat="47.84407" lon="6.92453">
        <ele>980</ele>
        <time>2014-07-15T11:00:45Z</time>
      </trkpt>
      <trkpt lat="47.84407" lon="6.92451">
        <ele>980</ele>
        <time>2014-07-15T11:00:46Z</time>
      </trkpt>
      <trkpt lat="47.84408" lon="6.9245">
        <ele>980</ele>
        <time>2014-07-15T11:00:47Z</time>
      </trkpt>
      <trkpt lat="47.84408" lon="6.92449">
        <ele>981</ele>
        <time>2014-07-15T11:00:48Z</time>
      </trkpt>
      <trkpt lat="47.84408" lon="6.92449">
        <ele>981</ele>
        <time>2014-07-15T11:00:49Z</time>
      </trkpt>
      <trkpt lat="47.84409" lon="6.92448">
        <ele>981</ele>
        <time>2014-07-15T11:00:50Z</time>
      </trkpt>
      <trkpt lat="47.84409" lon="6.92447">
        <ele>981</ele>
        <time>2014-07-15T11:00:51Z</time>
      </trkpt>
      <trkpt lat="47.84409" lon="6.92447">
        <ele>981</ele>
        <time>2014-07-15T11:00:52Z</time>
      </trkpt>
      <trkpt lat="47.8441" lon="6.92447">
        <ele>981</ele>
        <time>2014-07-15T11:00:53Z</time>
      </trkpt>
      <trkpt lat="47.8441" lon="6.92446">
        <ele>981</ele>
        <time>2014-07-15T11:00:54Z</time>
      </trkpt>
      <trkpt lat="47.8441" lon="6.92446">
        <ele>982</ele>
        <time>2014-07-15T11:00:55Z</time>
      </trkpt>
      <trkpt lat="47.8441" lon="6.92445">
        <ele>982</ele>
        <time>2014-07-15T11:00:56Z</time>
      </trkpt>
      <trkpt lat="47.8441" lon="6.92445">
        <ele>982</ele>
        <time>2014-07-15T11:00:57Z</time>
      </trkpt>
      <trkpt lat="47.84411" lon="6.92445">
        <ele>982</ele>
        <time>2014-07-15T11:01:00Z</time>
      </trkpt>
      <trkpt lat="47.84411" lon="6.92445">
        <ele>982</ele>
        <time>2014-07-15T11:01:01Z</time>
      </trkpt>
      <trkpt lat="47.84411" lon="6.92445">
        <ele>982</ele>
        <time>2014-07-15T11:01:02Z</time>
      </trkpt>
      <trkpt lat="47.84411" lon="6.92445">
        <ele>982</ele>
        <time>2014-07-15T11:01:03Z</time>
      </trkpt>
      <trkpt lat="47.84412" lon="6.92445">
        <ele>982</ele>
        <time>2014-07-15T11:01:04Z</time>
      </trkpt>
      <trkpt lat="47.84412" lon="6.92446">
        <ele>982</ele>
        <time>2014-07-15T11:01:05Z</time>
      </trkpt>
      <trkpt lat="47.84413" lon="6.92445">
        <ele>982</ele>
        <time>2014-07-15T11:01:06Z</time>
      </trkpt>
      <trkpt lat="47.84414" lon="6.92444">
        <ele>982</ele>
        <time>2014-07-15T11:01:07Z</time>
      </trkpt>
      <trkpt lat="47.84415" lon="6.92443">
        <ele>982</ele>
        <time>2014-07-15T11:01:08Z</time>
      </trkpt>
      <trkpt lat="47.84416" lon="6.92442">
        <ele>983</ele>
        <time>2014-07-15T11:01:09Z</time>
      </trkpt>
      <trkpt lat="47.84417" lon="6.92442">
        <ele>985</ele>
        <time>2014-07-15T11:01:10Z</time>
      </trkpt>
      <trkpt lat="47.84418" lon="6.92442">
        <ele>985</ele>
        <time>2014-07-15T11:01:11Z</time>
      </trkpt>
      <trkpt lat="47.84419" lon="6.92441">
        <ele>985</ele>
        <time>2014-07-15T11:01:12Z</time>
      </trkpt>
      <trkpt lat="47.84419" lon="6.92441">
        <ele>985</ele>
        <time>2014-07-15T11:01:13Z</time>
      </trkpt>
      <trkpt lat="47.8442" lon="6.92441">
        <ele>985</ele>
        <time>2014-07-15T11:01:14Z</time>
      </trkpt>
      <trkpt lat="47.84421" lon="6.92441">
        <ele>985</ele>
        <time>2014-07-15T11:01:15Z</time>
      </trkpt>
      <trkpt lat="47.84421" lon="6.92441">
        <ele>985</ele>
        <time>2014-07-15T11:01:16Z</time>
      </trkpt>
      <trkpt lat="47.84422" lon="6.92441">
        <ele>985</ele>
        <time>2014-07-15T11:01:17Z</time>
      </trkpt>
      <trkpt lat="47.84422" lon="6.92441">
        <ele>985</ele>
        <time>2014-07-15T11:01:18Z</time>
      </trkpt>
      <trkpt lat="47.84422" lon="6.92441">
        <ele>985</ele>
        <time>2014-07-15T11:01:19Z</time>
      </trkpt>
      <trkpt lat="47.84423" lon="6.92441">
        <ele>985</ele>
        <time>2014-07-15T11:01:20Z</time>
      </trkpt>
      <trkpt lat="47.84423" lon="6.92441">
        <ele>985</ele>
        <time>2014-07-15T11:01:21Z</time>
      </trkpt>
      <trkpt lat="47.84423" lon="6.92441">
        <ele>985</ele>
        <time>2014-07-15T11:01:22Z</time>
      </trkpt>
      <trkpt lat="47.84423" lon="6.92441">
        <ele>985</ele>
        <time>2014-07-15T11:01:23Z</time>
      </trkpt>
      <trkpt lat="47.84423" lon="6.92441">
        <ele>985</ele>
        <time>2014-07-15T11:01:24Z</time>
      </trkpt>
      <trkpt lat="47.84423" lon="6.92441">
        <ele>985</ele>
        <time>2014-07-15T11:01:25Z</time>
      </trkpt>
      <trkpt lat="47.84423" lon="6.92441">
        <ele>985</ele>
        <time>2014-07-15T11:01:26Z</time>
      </trkpt>
      <trkpt lat="47.84423" lon="6.92441">
        <ele>985</ele>
        <time>2014-07-15T11:01:27Z</time>
      </trkpt>
      <trkpt lat="47.84423" lon="6.92441">
        <ele>985</ele>
        <time>2014-07-15T11:01:28Z</time>
      </trkpt>
      <trkpt lat="47.84423" lon="6.92441">
        <ele>985</ele>
        <time>2014-07-15T11:01:29Z</time>
      </trkpt>
      <trkpt lat="47.84425" lon="6.92442">
        <ele>984</ele>
        <time>2014-07-15T11:01:31Z</time>
      </trkpt>
      <trkpt lat="47.84426" lon="6.92444">
        <ele>984</ele>
        <time>2014-07-15T11:01:32Z</time>
      </trkpt>
      <trkpt lat="47.84428" lon="6.92444">
        <ele>984</ele>
        <time>2014-07-15T11:01:33Z</time>
      </trkpt>
      <trkpt lat="47.84429" lon="6.92444">
        <ele>984</ele>
        <time>2014-07-15T11:01:34Z</time>
      </trkpt>
      <trkpt lat="47.8443" lon="6.92444">
        <ele>984</ele>
        <time>2014-07-15T11:01:35Z</time>
      </trkpt>
      <trkpt lat="47.84432" lon="6.92445">
        <ele>984</ele>
        <time>2014-07-15T11:01:36Z</time>
      </trkpt>
      <trkpt lat="47.84432" lon="6.92445">
        <ele>984</ele>
        <time>2014-07-15T11:01:37Z</time>
      </trkpt>
      <trkpt lat="47.84433" lon="6.92445">
        <ele>984</ele>
        <time>2014-07-15T11:01:38Z</time>
      </trkpt>
      <trkpt lat="47.84434" lon="6.92445">
        <ele>984</ele>
        <time>2014-07-15T11:01:39Z</time>
      </trkpt>
      <trkpt lat="47.84434" lon="6.92445">
        <ele>984</ele>
        <time>2014-07-15T11:01:40Z</time>
      </trkpt>
      <trkpt lat="47.84435" lon="6.92445">
        <ele>984</ele>
        <time>2014-07-15T11:01:41Z</time>
      </trkpt>
      <trkpt lat="47.84436" lon="6.92445">
        <ele>984</ele>
        <time>2014-07-15T11:01:42Z</time>
      </trkpt>
      <trkpt lat="47.84436" lon="6.92445">
        <ele>984</ele>
        <time>2014-07-15T11:01:47Z</time>
      </trkpt>
      <trkpt lat="47.84436" lon="6.92445">
        <ele>984</ele>
        <time>2014-07-15T11:01:48Z</time>
      </trkpt>
      <trkpt lat="47.84436" lon="6.92445">
        <ele>984</ele>
        <time>2014-07-15T11:01:49Z</time>
      </trkpt>
      <trkpt lat="47.84436" lon="6.92445">
        <ele>984</ele>
        <time>2014-07-15T11:01:50Z</time>
      </trkpt>
      <trkpt lat="47.84436" lon="6.92445">
        <ele>984</ele>
        <time>2014-07-15T11:01:51Z</time>
      </trkpt>
      <trkpt lat="47.84436" lon="6.92445">
        <ele>984</ele>
        <time>2014-07-15T11:01:52Z</time>
      </trkpt>
      <trkpt lat="47.84436" lon="6.92445">
        <ele>984</ele>
        <time>2014-07-15T11:01:54Z</time>
      </trkpt>
      <trkpt lat="47.84436" lon="6.92445">
        <ele>984</ele>
        <time>2014-07-15T11:01:55Z</time>
      </trkpt>
      <trkpt lat="47.84436" lon="6.92445">
        <ele>984</ele>
        <time>2014-07-15T11:01:56Z</time>
      </trkpt>
      <trkpt lat="47.84436" lon="6.92445">
        <ele>984</ele>
        <time>2014-07-15T11:01:57Z</time>
      </trkpt>
      <trkpt lat="47.84436" lon="6.92445">
        <ele>984</ele>
        <time>2014-07-15T11:01:58Z</time>
      </trkpt>
      <trkpt lat="47.84436" lon="6.92445">
        <ele>984</ele>
        <time>2014-07-15T11:01:59Z</time>
      </trkpt>
      <trkpt lat="47.84436" lon="6.92445">
        <ele>984</ele>
        <time>2014-07-15T11:02:00Z</time>
      </trkpt>
      <trkpt lat="47.84437" lon="6.92445">
        <ele>984</ele>
        <time>2014-07-15T11:02:01Z</time>
      </trkpt>
      <trkpt lat="47.84437" lon="6.92445">
        <ele>984</ele>
        <time>2014-07-15T11:02:02Z</time>
      </trkpt>
      <trkpt lat="47.84437" lon="6.92445">
        <ele>984</ele>
        <time>2014-07-15T11:02:04Z</time>
      </trkpt>
      <trkpt lat="47.84437" lon="6.92445">
        <ele>984</ele>
        <time>2014-07-15T11:02:05Z</time>
      </trkpt>
      <trkpt lat="47.84437" lon="6.92445">
        <ele>984</ele>
        <time>2014-07-15T11:02:06Z</time>
      </trkpt>
      <trkpt lat="47.84437" lon="6.92445">
        <ele>984</ele>
        <time>2014-07-15T11:02:07Z</time>
      </trkpt>
      <trkpt lat="47.84437" lon="6.92445">
        <ele>984</ele>
        <time>2014-07-15T11:02:08Z</time>
      </trkpt>
      <trkpt lat="47.84437" lon="6.92445">
        <ele>984</ele>
        <time>2014-07-15T11:02:09Z</time>
      </trkpt>
      <trkpt lat="47.84437" lon="6.92445">
        <ele>984</ele>
        <time>2014-07-15T11:02:10Z</time>
      </trkpt>
      <trkpt lat="47.84437" lon="6.92445">
        <ele>984</ele>
        <time>2014-07-15T11:02:11Z</time>
      </trkpt>
      <trkpt lat="47.84437" lon="6.92445">
        <ele>984</ele>
        <time>2014-07-15T11:02:12Z</time>
      </trkpt>
      <trkpt lat="47.84437" lon="6.92445">
        <ele>984</ele>
        <time>2014-07-15T11:02:13Z</time>
      </trkpt>
      <trkpt lat="47.84437" lon="6.92445">
        <ele>984</ele>
        <time>2014-07-15T11:02:14Z</time>
      </trkpt>
      <trkpt lat="47.84437" lon="6.92445">
        <ele>984</ele>
        <time>2014-07-15T11:02:15Z</time>
      </trkpt>
      <trkpt lat="47.84437" lon="6.92445">
        <ele>984</ele>
        <time>2014-07-15T11:02:16Z</time>
      </trkpt>
      <trkpt lat="47.84437" lon="6.92445">
        <ele>984</ele>
        <time>2014-07-15T11:02:17Z</time>
      </trkpt>
      <trkpt lat="47.84437" lon="6.92445">
        <ele>984</ele>
        <time>2014-07-15T11:02:18Z</time>
      </trkpt>
      <trkpt lat="47.84437" lon="6.92445">
        <ele>984</ele>
        <time>2014-07-15T11:02:19Z</time>
      </trkpt>
      <trkpt lat="47.84437" lon="6.92445">
        <ele>984</ele>
        <time>2014-07-15T11:02:20Z</time>
      </trkpt>
      <trkpt lat="47.84437" lon="6.92445">
        <ele>984</ele>
        <time>2014-07-15T11:02:21Z</time>
      </trkpt>
      <trkpt lat="47.84437" lon="6.92445">
        <ele>984</ele>
        <time>2014-07-15T11:02:22Z</time>
      </trkpt>
      <trkpt lat="47.84437" lon="6.92445">
        <ele>984</ele>
        <time>2014-07-15T11:02:23Z</time>
      </trkpt>
      <trkpt lat="47.84437" lon="6.92445">
        <ele>984</ele>
        <time>2014-07-15T11:02:24Z</time>
      </trkpt>
      <trkpt lat="47.84437" lon="6.92445">
        <ele>984</ele>
        <time>2014-07-15T11:02:25Z</time>
      </trkpt>
      <trkpt lat="47.84437" lon="6.92445">
        <ele>984</ele>
        <time>2014-07-15T11:02:26Z</time>
      </trkpt>
      <trkpt lat="47.84437" lon="6.92445">
        <ele>984</ele>
        <time>2014-07-15T11:02:27Z</time>
      </trkpt>
      <trkpt lat="47.84437" lon="6.92445">
        <ele>984</ele>
        <time>2014-07-15T11:02:28Z</time>
      </trkpt>
      <trkpt lat="47.84437" lon="6.92445">
        <ele>984</ele>
        <time>2014-07-15T11:02:29Z</time>
      </trkpt>
      <trkpt lat="47.84437" lon="6.92445">
        <ele>984</ele>
        <time>2014-07-15T11:02:30Z</time>
      </trkpt>
      <trkpt lat="47.84437" lon="6.92445">
        <ele>984</ele>
        <time>2014-07-15T11:02:31Z</time>
      </trkpt>
      <trkpt lat="47.84437" lon="6.92445">
        <ele>984</ele>
        <time>2014-07-15T11:02:32Z</time>
      </trkpt>
      <trkpt lat="47.84437" lon="6.92445">
        <ele>984</ele>
        <time>2014-07-15T11:02:33Z</time>
      </trkpt>
      <trkpt lat="47.84437" lon="6.92445">
        <ele>984</ele>
        <time>2014-07-15T11:02:34Z</time>
      </trkpt>
      <trkpt lat="47.84437" lon="6.92445">
        <ele>984</ele>
        <time>2014-07-15T11:02:35Z</time>
      </trkpt>
      <trkpt lat="47.84437" lon="6.92445">
        <ele>984</ele>
        <time>2014-07-15T11:02:36Z</time>
      </trkpt>
      <trkpt lat="47.84437" lon="6.92445">
        <ele>984</ele>
        <time>2014-07-15T11:02:37Z</time>
      </trkpt>
      <trkpt lat="47.84437" lon="6.92445">
        <ele>984</ele>
        <time>2014-07-15T11:02:38Z</time>
      </trkpt>
      <trkpt lat="47.84437" lon="6.92445">
        <ele>984</ele>
        <time>2014-07-15T11:02:39Z</time>
      </trkpt>
      <trkpt lat="47.84437" lon="6.92445">
        <ele>984</ele>
        <time>2014-07-15T11:02:40Z</time>
      </trkpt>
      <trkpt lat="47.84437" lon="6.92445">
        <ele>984</ele>
        <time>2014-07-15T11:02:41Z</time>
      </trkpt>
      <trkpt lat="47.84437" lon="6.92445">
        <ele>984</ele>
        <time>2014-07-15T11:02:42Z</time>
      </trkpt>
      <trkpt lat="47.84437" lon="6.92445">
        <ele>984</ele>
        <time>2014-07-15T11:02:43Z</time>
      </trkpt>
      <trkpt lat="47.84437" lon="6.92445">
        <ele>984</ele>
        <time>2014-07-15T11:02:44Z</time>
      </trkpt>
      <trkpt lat="47.84437" lon="6.92445">
        <ele>984</ele>
        <time>2014-07-15T11:02:45Z</time>
      </trkpt>
      <trkpt lat="47.84437" lon="6.92445">
        <ele>984</ele>
        <time>2014-07-15T11:02:46Z</time>
      </trkpt>
      <trkpt lat="47.84437" lon="6.92445">
        <ele>984</ele>
        <time>2014-07-15T11:02:47Z</time>
      </trkpt>
      <trkpt lat="47.84437" lon="6.92445">
        <ele>984</ele>
        <time>2014-07-15T11:02:48Z</time>
      </trkpt>
      <trkpt lat="47.84437" lon="6.92445">
        <ele>984</ele>
        <time>2014-07-15T11:02:49Z</time>
      </trkpt>
      <trkpt lat="47.84437" lon="6.92445">
        <ele>984</ele>
        <time>2014-07-15T11:02:50Z</time>
      </trkpt>
      <trkpt lat="47.84437" lon="6.92445">
        <ele>984</ele>
        <time>2014-07-15T11:02:51Z</time>
      </trkpt>
      <trkpt lat="47.84437" lon="6.92445">
        <ele>984</ele>
        <time>2014-07-15T11:02:52Z</time>
      </trkpt>
      <trkpt lat="47.84437" lon="6.92445">
        <ele>984</ele>
        <time>2014-07-15T11:02:53Z</time>
      </trkpt>
      <trkpt lat="47.84437" lon="6.92445">
        <ele>984</ele>
        <time>2014-07-15T11:02:54Z</time>
      </trkpt>
      <trkpt lat="47.84437" lon="6.92445">
        <ele>984</ele>
        <time>2014-07-15T11:02:55Z</time>
      </trkpt>
      <trkpt lat="47.84437" lon="6.92445">
        <ele>984</ele>
        <time>2014-07-15T11:02:56Z</time>
      </trkpt>
      <trkpt lat="47.84437" lon="6.92445">
        <ele>984</ele>
        <time>2014-07-15T11:02:57Z</time>
      </trkpt>
      <trkpt lat="47.84437" lon="6.92445">
        <ele>984</ele>
        <time>2014-07-15T11:02:58Z</time>
      </trkpt>
      <trkpt lat="47.84437" lon="6.92445">
        <ele>984</ele>
        <time>2014-07-15T11:02:59Z</time>
      </trkpt>
      <trkpt lat="47.84437" lon="6.92445">
        <ele>984</ele>
        <time>2014-07-15T11:03:00Z</time>
      </trkpt>
      <trkpt lat="47.84437" lon="6.92445">
        <ele>984</ele>
        <time>2014-07-15T11:03:01Z</time>
      </trkpt>
      <trkpt lat="47.84437" lon="6.92445">
        <ele>984</ele>
        <time>2014-07-15T11:03:02Z</time>
      </trkpt>
      <trkpt lat="47.84437" lon="6.92445">
        <ele>984</ele>
        <time>2014-07-15T11:03:03Z</time>
      </trkpt>
      <trkpt lat="47.84437" lon="6.92445">
        <ele>984</ele>
        <time>2014-07-15T11:03:04Z</time>
      </trkpt>
      <trkpt lat="47.84437" lon="6.92445">
        <ele>984</ele>
        <time>2014-07-15T11:03:05Z</time>
      </trkpt>
      <trkpt lat="47.84437" lon="6.92445">
        <ele>984</ele>
        <time>2014-07-15T11:03:06Z</time>
      </trkpt>
      <trkpt lat="47.84437" lon="6.92445">
        <ele>984</ele>
        <time>2014-07-15T11:03:07Z</time>
      </trkpt>
      <trkpt lat="47.84437" lon="6.92445">
        <ele>984</ele>
        <time>2014-07-15T11:03:08Z</time>
      </trkpt>
      <trkpt lat="47.84437" lon="6.92445">
        <ele>984</ele>
        <time>2014-07-15T11:03:09Z</time>
      </trkpt>
      <trkpt lat="47.84437" lon="6.92445">
        <ele>984</ele>
        <time>2014-07-15T11:03:10Z</time>
      </trkpt>
      <trkpt lat="47.84437" lon="6.92445">
        <ele>984</ele>
        <time>2014-07-15T11:03:11Z</time>
      </trkpt>
      <trkpt lat="47.84437" lon="6.92445">
        <ele>984</ele>
        <time>2014-07-15T11:03:12Z</time>
      </trkpt>
      <trkpt lat="47.84437" lon="6.92445">
        <ele>984</ele>
        <time>2014-07-15T11:03:13Z</time>
      </trkpt>
      <trkpt lat="47.84437" lon="6.92445">
        <ele>984</ele>
        <time>2014-07-15T11:03:14Z</time>
      </trkpt>
      <trkpt lat="47.84437" lon="6.92445">
        <ele>984</ele>
        <time>2014-07-15T11:03:15Z</time>
      </trkpt>
      <trkpt lat="47.84437" lon="6.92445">
        <ele>984</ele>
        <time>2014-07-15T11:03:16Z</time>
      </trkpt>
      <trkpt lat="47.84437" lon="6.92445">
        <ele>984</ele>
        <time>2014-07-15T11:03:17Z</time>
      </trkpt>
      <trkpt lat="47.84437" lon="6.92445">
        <ele>984</ele>
        <time>2014-07-15T11:03:18Z</time>
      </trkpt>
      <trkpt lat="47.84437" lon="6.92445">
        <ele>984</ele>
        <time>2014-07-15T11:03:19Z</time>
      </trkpt>
      <trkpt lat="47.84437" lon="6.92445">
        <ele>984</ele>
        <time>2014-07-15T11:03:20Z</time>
      </trkpt>
      <trkpt lat="47.84437" lon="6.92445">
        <ele>984</ele>
        <time>2014-07-15T11:03:21Z</time>
      </trkpt>
      <trkpt lat="47.84437" lon="6.92445">
        <ele>984</ele>
        <time>2014-07-15T11:03:22Z</time>
      </trkpt>
      <trkpt lat="47.84437" lon="6.92445">
        <ele>984</ele>
        <time>2014-07-15T11:03:23Z</time>
      </trkpt>
      <trkpt lat="47.84437" lon="6.92445">
        <ele>984</ele>
        <time>2014-07-15T11:03:24Z</time>
      </trkpt>
      <trkpt lat="47.84437" lon="6.92445">
        <ele>984</ele>
        <time>2014-07-15T11:03:25Z</time>
      </trkpt>
      <trkpt lat="47.84437" lon="6.92445">
        <ele>984</ele>
        <time>2014-07-15T11:03:26Z</time>
      </trkpt>
      <trkpt lat="47.84437" lon="6.92445">
        <ele>984</ele>
        <time>2014-07-15T11:03:27Z</time>
      </trkpt>
      <trkpt lat="47.84437" lon="6.92445">
        <ele>984</ele>
        <time>2014-07-15T11:03:28Z</time>
      </trkpt>
      <trkpt lat="47.84437" lon="6.92445">
        <ele>984</ele>
        <time>2014-07-15T11:03:29Z</time>
      </trkpt>
      <trkpt lat="47.84437" lon="6.92445">
        <ele>984</ele>
        <time>2014-07-15T11:03:30Z</time>
      </trkpt>
      <trkpt lat="47.84437" lon="6.92445">
        <ele>984</ele>
        <time>2014-07-15T11:03:31Z</time>
      </trkpt>
      <trkpt lat="47.84437" lon="6.92445">
        <ele>984</ele>
        <time>2014-07-15T11:03:32Z</time>
      </trkpt>
      <trkpt lat="47.84437" lon="6.92445">
        <ele>984</ele>
        <time>2014-07-15T11:03:33Z</time>
      </trkpt>
      <trkpt lat="47.84437" lon="6.92445">
        <ele>984</ele>
        <time>2014-07-15T11:03:34Z</time>
      </trkpt>
      <trkpt lat="47.84437" lon="6.92445">
        <ele>984</ele>
        <time>2014-07-15T11:03:36Z</time>
      </trkpt>
      <trkpt lat="47.84438" lon="6.92445">
        <ele>984</ele>
        <time>2014-07-15T11:03:37Z</time>
      </trkpt>
      <trkpt lat="47.84438" lon="6.92446">
        <ele>983</ele>
        <time>2014-07-15T11:03:38Z</time>
      </trkpt>
      <trkpt lat="47.84439" lon="6.92447">
        <ele>983</ele>
        <time>2014-07-15T11:03:39Z</time>
      </trkpt>
      <trkpt lat="47.84441" lon="6.92447">
        <ele>983</ele>
        <time>2014-07-15T11:03:40Z</time>
      </trkpt>
      <trkpt lat="47.84444" lon="6.92446">
        <ele>983</ele>
        <time>2014-07-15T11:03:42Z</time>
      </trkpt>
      <trkpt lat="47.84446" lon="6.92445">
        <ele>983</ele>
        <time>2014-07-15T11:03:43Z</time>
      </trkpt>
      <trkpt lat="47.84447" lon="6.92444">
        <ele>984</ele>
        <time>2014-07-15T11:03:44Z</time>
      </trkpt>
      <trkpt lat="47.84448" lon="6.92444">
        <ele>984</ele>
        <time>2014-07-15T11:03:45Z</time>
      </trkpt>
      <trkpt lat="47.84449" lon="6.92443">
        <ele>984</ele>
        <time>2014-07-15T11:03:46Z</time>
      </trkpt>
      <trkpt lat="47.8445" lon="6.92443">
        <ele>984</ele>
        <time>2014-07-15T11:03:47Z</time>
      </trkpt>
      <trkpt lat="47.84452" lon="6.92442">
        <ele>984</ele>
        <time>2014-07-15T11:03:48Z</time>
      </trkpt>
      <trkpt lat="47.84453" lon="6.92441">
        <ele>984</ele>
        <time>2014-07-15T11:03:49Z</time>
      </trkpt>
      <trkpt lat="47.84453" lon="6.9244">
        <ele>984</ele>
        <time>2014-07-15T11:03:50Z</time>
      </trkpt>
      <trkpt lat="47.84454" lon="6.9244">
        <ele>984</ele>
        <time>2014-07-15T11:03:51Z</time>
      </trkpt>
      <trkpt lat="47.84455" lon="6.92439">
        <ele>984</ele>
        <time>2014-07-15T11:03:52Z</time>
      </trkpt>
      <trkpt lat="47.84456" lon="6.92438">
        <ele>984</ele>
        <time>2014-07-15T11:03:53Z</time>
      </trkpt>
      <trkpt lat="47.84457" lon="6.92438">
        <ele>984</ele>
        <time>2014-07-15T11:03:54Z</time>
      </trkpt>
      <trkpt lat="47.84458" lon="6.92438">
        <ele>984</ele>
        <time>2014-07-15T11:03:55Z</time>
      </trkpt>
      <trkpt lat="47.84459" lon="6.92438">
        <ele>984</ele>
        <time>2014-07-15T11:03:56Z</time>
      </trkpt>
      <trkpt lat="47.84459" lon="6.92437">
        <ele>984</ele>
        <time>2014-07-15T11:03:57Z</time>
      </trkpt>
      <trkpt lat="47.8446" lon="6.92437">
        <ele>984</ele>
        <time>2014-07-15T11:03:58Z</time>
      </trkpt>
      <trkpt lat="47.84461" lon="6.92436">
        <ele>984</ele>
        <time>2014-07-15T11:03:59Z</time>
      </trkpt>
      <trkpt lat="47.84461" lon="6.92436">
        <ele>984</ele>
        <time>2014-07-15T11:04:00Z</time>
      </trkpt>
      <trkpt lat="47.84462" lon="6.92436">
        <ele>984</ele>
        <time>2014-07-15T11:04:01Z</time>
      </trkpt>
      <trkpt lat="47.84462" lon="6.92436">
        <ele>984</ele>
        <time>2014-07-15T11:04:02Z</time>
      </trkpt>
      <trkpt lat="47.84462" lon="6.92436">
        <ele>984</ele>
        <time>2014-07-15T11:04:03Z</time>
      </trkpt>
      <trkpt lat="47.84462" lon="6.92436">
        <ele>984</ele>
        <time>2014-07-15T11:04:04Z</time>
      </trkpt>
      <trkpt lat="47.84462" lon="6.92436">
        <ele>984</ele>
        <time>2014-07-15T11:04:05Z</time>
      </trkpt>
      <trkpt lat="47.84462" lon="6.92436">
        <ele>984</ele>
        <time>2014-07-15T11:04:06Z</time>
      </trkpt>
      <trkpt lat="47.84462" lon="6.92435">
        <ele>984</ele>
        <time>2014-07-15T11:04:07Z</time>
      </trkpt>
      <trkpt lat="47.84462" lon="6.92435">
        <ele>984</ele>
        <time>2014-07-15T11:04:08Z</time>
      </trkpt>
      <trkpt lat="47.84463" lon="6.92434">
        <ele>984</ele>
        <time>2014-07-15T11:04:09Z</time>
      </trkpt>
      <trkpt lat="47.84464" lon="6.92433">
        <ele>984</ele>
        <time>2014-07-15T11:04:10Z</time>
      </trkpt>
      <trkpt lat="47.84465" lon="6.92432">
        <ele>984</ele>
        <time>2014-07-15T11:04:11Z</time>
      </trkpt>
      <trkpt lat="47.84465" lon="6.9243">
        <ele>985</ele>
        <time>2014-07-15T11:04:12Z</time>
      </trkpt>
      <trkpt lat="47.84466" lon="6.92429">
        <ele>985</ele>
        <time>2014-07-15T11:04:13Z</time>
      </trkpt>
      <trkpt lat="47.84468" lon="6.92428">
        <ele>985</ele>
        <time>2014-07-15T11:04:14Z</time>
      </trkpt>
      <trkpt lat="47.8447" lon="6.92427">
        <ele>985</ele>
        <time>2014-07-15T11:04:15Z</time>
      </trkpt>
      <trkpt lat="47.84472" lon="6.92427">
        <ele>985</ele>
        <time>2014-07-15T11:04:16Z</time>
      </trkpt>
      <trkpt lat="47.84474" lon="6.92426">
        <ele>985</ele>
        <time>2014-07-15T11:04:17Z</time>
      </trkpt>
      <trkpt lat="47.84476" lon="6.92426">
        <ele>985</ele>
        <time>2014-07-15T11:04:18Z</time>
      </trkpt>
      <trkpt lat="47.84478" lon="6.92425">
        <ele>985</ele>
        <time>2014-07-15T11:04:19Z</time>
      </trkpt>
      <trkpt lat="47.84481" lon="6.92422">
        <ele>986</ele>
        <time>2014-07-15T11:04:20Z</time>
      </trkpt>
      <trkpt lat="47.84484" lon="6.92419">
        <ele>986</ele>
        <time>2014-07-15T11:04:22Z</time>
      </trkpt>
      <trkpt lat="47.84487" lon="6.92417">
        <ele>986</ele>
        <time>2014-07-15T11:04:24Z</time>
      </trkpt>
      <trkpt lat="47.84487" lon="6.92416">
        <ele>993</ele>
        <time>2014-07-15T11:04:25Z</time>
      </trkpt>
      <trkpt lat="47.84487" lon="6.92416">
        <ele>993</ele>
        <time>2014-07-15T11:04:26Z</time>
      </trkpt>
      <trkpt lat="47.84488" lon="6.92415">
        <ele>993</ele>
        <time>2014-07-15T11:04:27Z</time>
      </trkpt>
      <trkpt lat="47.84489" lon="6.92415">
        <ele>992</ele>
        <time>2014-07-15T11:04:28Z</time>
      </trkpt>
      <trkpt lat="47.8449" lon="6.92414">
        <ele>992</ele>
        <time>2014-07-15T11:04:29Z</time>
      </trkpt>
      <trkpt lat="47.84491" lon="6.92414">
        <ele>992</ele>
        <time>2014-07-15T11:04:30Z</time>
      </trkpt>
      <trkpt lat="47.84492" lon="6.92414">
        <ele>992</ele>
        <time>2014-07-15T11:04:31Z</time>
      </trkpt>
      <trkpt lat="47.84492" lon="6.92414">
        <ele>992</ele>
        <time>2014-07-15T11:04:32Z</time>
      </trkpt>
      <trkpt lat="47.84492" lon="6.92414">
        <ele>991</ele>
        <time>2014-07-15T11:04:33Z</time>
      </trkpt>
      <trkpt lat="47.84493" lon="6.92414">
        <ele>991</ele>
        <time>2014-07-15T11:04:34Z</time>
      </trkpt>
      <trkpt lat="47.84493" lon="6.92413">
        <ele>991</ele>
        <time>2014-07-15T11:04:35Z</time>
      </trkpt>
      <trkpt lat="47.84493" lon="6.92413">
        <ele>991</ele>
        <time>2014-07-15T11:04:36Z</time>
      </trkpt>
      <trkpt lat="47.84493" lon="6.92413">
        <ele>991</ele>
        <time>2014-07-15T11:04:37Z</time>
      </trkpt>
      <trkpt lat="47.84493" lon="6.92413">
        <ele>991</ele>
        <time>2014-07-15T11:04:38Z</time>
      </trkpt>
      <trkpt lat="47.84493" lon="6.92413">
        <ele>991</ele>
        <time>2014-07-15T11:04:39Z</time>
      </trkpt>
      <trkpt lat="47.84493" lon="6.92413">
        <ele>991</ele>
        <time>2014-07-15T11:04:40Z</time>
      </trkpt>
      <trkpt lat="47.84493" lon="6.92413">
        <ele>991</ele>
        <time>2014-07-15T11:04:41Z</time>
      </trkpt>
      <trkpt lat="47.84494" lon="6.92413">
        <ele>991</ele>
        <time>2014-07-15T11:04:42Z</time>
      </trkpt>
      <trkpt lat="47.84495" lon="6.92412">
        <ele>991</ele>
        <time>2014-07-15T11:04:43Z</time>
      </trkpt>
      <trkpt lat="47.84497" lon="6.9241">
        <ele>991</ele>
        <time>2014-07-15T11:04:44Z</time>
      </trkpt>
      <trkpt lat="47.84498" lon="6.92408">
        <ele>992</ele>
        <time>2014-07-15T11:04:45Z</time>
      </trkpt>
      <trkpt lat="47.845" lon="6.92407">
        <ele>992</ele>
        <time>2014-07-15T11:04:46Z</time>
      </trkpt>
      <trkpt lat="47.84502" lon="6.92405">
        <ele>990</ele>
        <time>2014-07-15T11:04:47Z</time>
      </trkpt>
      <trkpt lat="47.84503" lon="6.92403">
        <ele>990</ele>
        <time>2014-07-15T11:04:48Z</time>
      </trkpt>
      <trkpt lat="47.84505" lon="6.92402">
        <ele>991</ele>
        <time>2014-07-15T11:04:49Z</time>
      </trkpt>
      <trkpt lat="47.84506" lon="6.92401">
        <ele>991</ele>
        <time>2014-07-15T11:04:50Z</time>
      </trkpt>
      <trkpt lat="47.84508" lon="6.924">
        <ele>991</ele>
        <time>2014-07-15T11:04:51Z</time>
      </trkpt>
      <trkpt lat="47.84509" lon="6.92398">
        <ele>991</ele>
        <time>2014-07-15T11:04:52Z</time>
      </trkpt>
      <trkpt lat="47.84512" lon="6.92396">
        <ele>992</ele>
        <time>2014-07-15T11:04:53Z</time>
      </trkpt>
      <trkpt lat="47.84513" lon="6.92394">
        <ele>992</ele>
        <time>2014-07-15T11:04:54Z</time>
      </trkpt>
      <trkpt lat="47.84514" lon="6.92393">
        <ele>992</ele>
        <time>2014-07-15T11:04:55Z</time>
      </trkpt>
      <trkpt lat="47.84515" lon="6.92392">
        <ele>992</ele>
        <time>2014-07-15T11:04:56Z</time>
      </trkpt>
      <trkpt lat="47.84515" lon="6.92391">
        <ele>992</ele>
        <time>2014-07-15T11:04:57Z</time>
      </trkpt>
      <trkpt lat="47.84515" lon="6.9239">
        <ele>992</ele>
        <time>2014-07-15T11:04:58Z</time>
      </trkpt>
      <trkpt lat="47.84516" lon="6.9239">
        <ele>992</ele>
        <time>2014-07-15T11:04:59Z</time>
      </trkpt>
      <trkpt lat="47.84516" lon="6.92389">
        <ele>992</ele>
        <time>2014-07-15T11:05:00Z</time>
      </trkpt>
      <trkpt lat="47.84517" lon="6.92389">
        <ele>992</ele>
        <time>2014-07-15T11:05:01Z</time>
      </trkpt>
      <trkpt lat="47.84518" lon="6.92388">
        <ele>992</ele>
        <time>2014-07-15T11:05:02Z</time>
      </trkpt>
      <trkpt lat="47.8452" lon="6.92385">
        <ele>992</ele>
        <time>2014-07-15T11:05:04Z</time>
      </trkpt>
      <trkpt lat="47.84522" lon="6.92384">
        <ele>993</ele>
        <time>2014-07-15T11:05:05Z</time>
      </trkpt>
      <trkpt lat="47.84525" lon="6.92383">
        <ele>993</ele>
        <time>2014-07-15T11:05:06Z</time>
      </trkpt>
      <trkpt lat="47.84527" lon="6.92382">
        <ele>993</ele>
        <time>2014-07-15T11:05:07Z</time>
      </trkpt>
      <trkpt lat="47.8453" lon="6.92381">
        <ele>993</ele>
        <time>2014-07-15T11:05:08Z</time>
      </trkpt>
      <trkpt lat="47.84532" lon="6.92379">
        <ele>993</ele>
        <time>2014-07-15T11:05:09Z</time>
      </trkpt>
      <trkpt lat="47.84535" lon="6.92378">
        <ele>993</ele>
        <time>2014-07-15T11:05:10Z</time>
      </trkpt>
      <trkpt lat="47.84537" lon="6.92376">
        <ele>993</ele>
        <time>2014-07-15T11:05:11Z</time>
      </trkpt>
      <trkpt lat="47.84539" lon="6.92375">
        <ele>993</ele>
        <time>2014-07-15T11:05:12Z</time>
      </trkpt>
      <trkpt lat="47.84542" lon="6.92374">
        <ele>993</ele>
        <time>2014-07-15T11:05:13Z</time>
      </trkpt>
      <trkpt lat="47.84544" lon="6.92373">
        <ele>992</ele>
        <time>2014-07-15T11:05:14Z</time>
      </trkpt>
      <trkpt lat="47.84546" lon="6.92372">
        <ele>992</ele>
        <time>2014-07-15T11:05:15Z</time>
      </trkpt>
      <trkpt lat="47.84547" lon="6.92372">
        <ele>992</ele>
        <time>2014-07-15T11:05:16Z</time>
      </trkpt>
      <trkpt lat="47.84549" lon="6.92373">
        <ele>992</ele>
        <time>2014-07-15T11:05:19Z</time>
      </trkpt>
      <trkpt lat="47.84549" lon="6.92372">
        <ele>992</ele>
        <time>2014-07-15T11:05:20Z</time>
      </trkpt>
      <trkpt lat="47.84549" lon="6.92371">
        <ele>992</ele>
        <time>2014-07-15T11:05:21Z</time>
      </trkpt>
      <trkpt lat="47.8455" lon="6.92371">
        <ele>992</ele>
        <time>2014-07-15T11:05:22Z</time>
      </trkpt>
      <trkpt lat="47.8455" lon="6.92371">
        <ele>992</ele>
        <time>2014-07-15T11:05:23Z</time>
      </trkpt>
      <trkpt lat="47.84551" lon="6.92371">
        <ele>992</ele>
        <time>2014-07-15T11:05:24Z</time>
      </trkpt>
      <trkpt lat="47.84551" lon="6.92371">
        <ele>992</ele>
        <time>2014-07-15T11:05:25Z</time>
      </trkpt>
      <trkpt lat="47.84551" lon="6.92371">
        <ele>992</ele>
        <time>2014-07-15T11:05:26Z</time>
      </trkpt>
      <trkpt lat="47.84552" lon="6.92371">
        <ele>992</ele>
        <time>2014-07-15T11:05:27Z</time>
      </trkpt>
      <trkpt lat="47.84553" lon="6.92371">
        <ele>992</ele>
        <time>2014-07-15T11:05:28Z</time>
      </trkpt>
      <trkpt lat="47.84553" lon="6.92371">
        <ele>992</ele>
        <time>2014-07-15T11:05:29Z</time>
      </trkpt>
      <trkpt lat="47.84553" lon="6.92371">
        <ele>992</ele>
        <time>2014-07-15T11:05:30Z</time>
      </trkpt>
      <trkpt lat="47.84553" lon="6.92371">
        <ele>992</ele>
        <time>2014-07-15T11:05:31Z</time>
      </trkpt>
      <trkpt lat="47.84554" lon="6.92371">
        <ele>992</ele>
        <time>2014-07-15T11:05:32Z</time>
      </trkpt>
      <trkpt lat="47.84554" lon="6.92371">
        <ele>992</ele>
        <time>2014-07-15T11:05:33Z</time>
      </trkpt>
      <trkpt lat="47.84554" lon="6.92371">
        <ele>992</ele>
        <time>2014-07-15T11:05:34Z</time>
      </trkpt>
      <trkpt lat="47.84554" lon="6.92371">
        <ele>992</ele>
        <time>2014-07-15T11:05:35Z</time>
      </trkpt>
      <trkpt lat="47.84554" lon="6.92371">
        <ele>992</ele>
        <time>2014-07-15T11:05:36Z</time>
      </trkpt>
      <trkpt lat="47.84554" lon="6.92371">
        <ele>992</ele>
        <time>2014-07-15T11:05:37Z</time>
      </trkpt>
      <trkpt lat="47.84554" lon="6.92371">
        <ele>992</ele>
        <time>2014-07-15T11:05:39Z</time>
      </trkpt>
      <trkpt lat="47.84554" lon="6.92371">
        <ele>992</ele>
        <time>2014-07-15T11:05:40Z</time>
      </trkpt>
      <trkpt lat="47.84554" lon="6.92371">
        <ele>992</ele>
        <time>2014-07-15T11:05:41Z</time>
      </trkpt>
      <trkpt lat="47.84554" lon="6.92371">
        <ele>992</ele>
        <time>2014-07-15T11:05:42Z</time>
      </trkpt>
      <trkpt lat="47.84554" lon="6.92371">
        <ele>992</ele>
        <time>2014-07-15T11:05:43Z</time>
      </trkpt>
      <trkpt lat="47.84554" lon="6.92371">
        <ele>992</ele>
        <time>2014-07-15T11:05:44Z</time>
      </trkpt>
      <trkpt lat="47.84554" lon="6.92371">
        <ele>992</ele>
        <time>2014-07-15T11:05:45Z</time>
      </trkpt>
      <trkpt lat="47.84554" lon="6.92371">
        <ele>992</ele>
        <time>2014-07-15T11:05:46Z</time>
      </trkpt>
      <trkpt lat="47.84554" lon="6.9237">
        <ele>992</ele>
        <time>2014-07-15T11:05:47Z</time>
      </trkpt>
      <trkpt lat="47.84553" lon="6.92368">
        <ele>992</ele>
        <time>2014-07-15T11:05:49Z</time>
      </trkpt>
      <trkpt lat="47.84553" lon="6.92367">
        <ele>992</ele>
        <time>2014-07-15T11:05:50Z</time>
      </trkpt>
      <trkpt lat="47.84553" lon="6.92366">
        <ele>992</ele>
        <time>2014-07-15T11:05:51Z</time>
      </trkpt>
      <trkpt lat="47.84553" lon="6.92363">
        <ele>992</ele>
        <time>2014-07-15T11:05:53Z</time>
      </trkpt>
      <trkpt lat="47.84554" lon="6.92362">
        <ele>992</ele>
        <time>2014-07-15T11:05:54Z</time>
      </trkpt>
      <trkpt lat="47.84554" lon="6.92361">
        <ele>992</ele>
        <time>2014-07-15T11:05:55Z</time>
      </trkpt>
      <trkpt lat="47.84554" lon="6.92361">
        <ele>992</ele>
        <time>2014-07-15T11:05:56Z</time>
      </trkpt>
      <trkpt lat="47.84554" lon="6.9236">
        <ele>992</ele>
        <time>2014-07-15T11:05:57Z</time>
      </trkpt>
      <trkpt lat="47.84553" lon="6.92359">
        <ele>992</ele>
        <time>2014-07-15T11:05:58Z</time>
      </trkpt>
      <trkpt lat="47.84553" lon="6.92358">
        <ele>992</ele>
        <time>2014-07-15T11:05:59Z</time>
      </trkpt>
      <trkpt lat="47.84552" lon="6.92358">
        <ele>992</ele>
        <time>2014-07-15T11:06:00Z</time>
      </trkpt>
      <trkpt lat="47.84552" lon="6.92358">
        <ele>992</ele>
        <time>2014-07-15T11:06:01Z</time>
      </trkpt>
      <trkpt lat="47.84551" lon="6.92357">
        <ele>992</ele>
        <time>2014-07-15T11:06:02Z</time>
      </trkpt>
      <trkpt lat="47.8455" lon="6.92357">
        <ele>992</ele>
        <time>2014-07-15T11:06:03Z</time>
      </trkpt>
      <trkpt lat="47.8455" lon="6.92357">
        <ele>992</ele>
        <time>2014-07-15T11:06:04Z</time>
      </trkpt>
      <trkpt lat="47.84549" lon="6.92357">
        <ele>992</ele>
        <time>2014-07-15T11:06:05Z</time>
      </trkpt>
      <trkpt lat="47.84549" lon="6.92356">
        <ele>992</ele>
        <time>2014-07-15T11:06:06Z</time>
      </trkpt>
      <trkpt lat="47.84549" lon="6.92356">
        <ele>992</ele>
        <time>2014-07-15T11:06:07Z</time>
      </trkpt>
      <trkpt lat="47.84549" lon="6.92356">
        <ele>992</ele>
        <time>2014-07-15T11:06:08Z</time>
      </trkpt>
      <trkpt lat="47.84549" lon="6.92355">
        <ele>992</ele>
        <time>2014-07-15T11:06:09Z</time>
      </trkpt>
      <trkpt lat="47.84548" lon="6.92354">
        <ele>992</ele>
        <time>2014-07-15T11:06:11Z</time>
      </trkpt>
      <trkpt lat="47.84549" lon="6.92354">
        <ele>992</ele>
        <time>2014-07-15T11:06:12Z</time>
      </trkpt>
      <trkpt lat="47.84549" lon="6.92353">
        <ele>992</ele>
        <time>2014-07-15T11:06:13Z</time>
      </trkpt>
      <trkpt lat="47.8455" lon="6.92352">
        <ele>992</ele>
        <time>2014-07-15T11:06:14Z</time>
      </trkpt>
      <trkpt lat="47.84552" lon="6.92349">
        <ele>991</ele>
        <time>2014-07-15T11:06:16Z</time>
      </trkpt>
      <trkpt lat="47.84553" lon="6.92348">
        <ele>991</ele>
        <time>2014-07-15T11:06:17Z</time>
      </trkpt>
      <trkpt lat="47.84554" lon="6.92347">
        <ele>991</ele>
        <time>2014-07-15T11:06:18Z</time>
      </trkpt>
      <trkpt lat="47.84554" lon="6.92346">
        <ele>991</ele>
        <time>2014-07-15T11:06:19Z</time>
      </trkpt>
      <trkpt lat="47.84554" lon="6.92345">
        <ele>991</ele>
        <time>2014-07-15T11:06:20Z</time>
      </trkpt>
      <trkpt lat="47.84554" lon="6.92345">
        <ele>991</ele>
        <time>2014-07-15T11:06:21Z</time>
      </trkpt>
      <trkpt lat="47.84553" lon="6.92344">
        <ele>991</ele>
        <time>2014-07-15T11:06:22Z</time>
      </trkpt>
      <trkpt lat="47.84553" lon="6.92344">
        <ele>991</ele>
        <time>2014-07-15T11:06:23Z</time>
      </trkpt>
      <trkpt lat="47.84553" lon="6.92344">
        <ele>991</ele>
        <time>2014-07-15T11:06:24Z</time>
      </trkpt>
      <trkpt lat="47.84553" lon="6.92344">
        <ele>991</ele>
        <time>2014-07-15T11:06:25Z</time>
      </trkpt>
      <trkpt lat="47.84552" lon="6.92344">
        <ele>991</ele>
        <time>2014-07-15T11:06:26Z</time>
      </trkpt>
      <trkpt lat="47.84552" lon="6.92344">
        <ele>991</ele>
        <time>2014-07-15T11:06:27Z</time>
      </trkpt>
      <trkpt lat="47.84552" lon="6.92344">
        <ele>991</ele>
        <time>2014-07-15T11:06:28Z</time>
      </trkpt>
      <trkpt lat="47.84552" lon="6.92343">
        <ele>991</ele>
        <time>2014-07-15T11:06:29Z</time>
      </trkpt>
      <trkpt lat="47.84552" lon="6.92343">
        <ele>991</ele>
        <time>2014-07-15T11:06:30Z</time>
      </trkpt>
      <trkpt lat="47.84552" lon="6.92343">
        <ele>991</ele>
        <time>2014-07-15T11:06:31Z</time>
      </trkpt>
      <trkpt lat="47.84552" lon="6.92343">
        <ele>991</ele>
        <time>2014-07-15T11:06:32Z</time>
      </trkpt>
      <trkpt lat="47.84552" lon="6.92343">
        <ele>991</ele>
        <time>2014-07-15T11:06:33Z</time>
      </trkpt>
      <trkpt lat="47.84553" lon="6.92342">
        <ele>991</ele>
        <time>2014-07-15T11:06:36Z</time>
      </trkpt>
      <trkpt lat="47.84553" lon="6.92341">
        <ele>991</ele>
        <time>2014-07-15T11:06:37Z</time>
      </trkpt>
      <trkpt lat="47.84553" lon="6.9234">
        <ele>991</ele>
        <time>2014-07-15T11:06:38Z</time>
      </trkpt>
      <trkpt lat="47.84552" lon="6.9234">
        <ele>991</ele>
        <time>2014-07-15T11:06:39Z</time>
      </trkpt>
      <trkpt lat="47.84551" lon="6.92339">
        <ele>991</ele>
        <time>2014-07-15T11:06:40Z</time>
      </trkpt>
      <trkpt lat="47.84551" lon="6.92338">
        <ele>991</ele>
        <time>2014-07-15T11:06:41Z</time>
      </trkpt>
      <trkpt lat="47.8455" lon="6.92337">
        <ele>991</ele>
        <time>2014-07-15T11:06:42Z</time>
      </trkpt>
      <trkpt lat="47.8455" lon="6.92336">
        <ele>991</ele>
        <time>2014-07-15T11:06:43Z</time>
      </trkpt>
      <trkpt lat="47.84549" lon="6.92335">
        <ele>992</ele>
        <time>2014-07-15T11:06:44Z</time>
      </trkpt>
      <trkpt lat="47.84548" lon="6.92334">
        <ele>992</ele>
        <time>2014-07-15T11:06:45Z</time>
      </trkpt>
      <trkpt lat="47.84548" lon="6.92333">
        <ele>992</ele>
        <time>2014-07-15T11:06:46Z</time>
      </trkpt>
      <trkpt lat="47.84547" lon="6.92333">
        <ele>994</ele>
        <time>2014-07-15T11:06:47Z</time>
      </trkpt>
      <trkpt lat="47.84548" lon="6.92332">
        <ele>994</ele>
        <time>2014-07-15T11:06:48Z</time>
      </trkpt>
      <trkpt lat="47.84548" lon="6.92331">
        <ele>994</ele>
        <time>2014-07-15T11:06:49Z</time>
      </trkpt>
      <trkpt lat="47.84548" lon="6.92331">
        <ele>994</ele>
        <time>2014-07-15T11:06:50Z</time>
      </trkpt>
      <trkpt lat="47.84548" lon="6.92331">
        <ele>994</ele>
        <time>2014-07-15T11:06:51Z</time>
      </trkpt>
      <trkpt lat="47.84548" lon="6.92331">
        <ele>994</ele>
        <time>2014-07-15T11:06:52Z</time>
      </trkpt>
      <trkpt lat="47.84548" lon="6.92331">
        <ele>994</ele>
        <time>2014-07-15T11:06:54Z</time>
      </trkpt>
      <trkpt lat="47.84548" lon="6.92331">
        <ele>994</ele>
        <time>2014-07-15T11:06:55Z</time>
      </trkpt>
      <trkpt lat="47.84548" lon="6.92331">
        <ele>994</ele>
        <time>2014-07-15T11:06:57Z</time>
      </trkpt>
      <trkpt lat="47.84548" lon="6.92331">
        <ele>994</ele>
        <time>2014-07-15T11:06:58Z</time>
      </trkpt>
      <trkpt lat="47.84548" lon="6.92331">
        <ele>994</ele>
        <time>2014-07-15T11:06:59Z</time>
      </trkpt>
      <trkpt lat="47.84548" lon="6.92331">
        <ele>994</ele>
        <time>2014-07-15T11:07:00Z</time>
      </trkpt>
      <trkpt lat="47.84548" lon="6.92331">
        <ele>994</ele>
        <time>2014-07-15T11:07:01Z</time>
      </trkpt>
      <trkpt lat="47.84548" lon="6.92331">
        <ele>994</ele>
        <time>2014-07-15T11:07:02Z</time>
      </trkpt>
      <trkpt lat="47.84548" lon="6.92331">
        <ele>994</ele>
        <time>2014-07-15T11:07:03Z</time>
      </trkpt>
      <trkpt lat="47.84548" lon="6.92331">
        <ele>994</ele>
        <time>2014-07-15T11:07:04Z</time>
      </trkpt>
      <trkpt lat="47.84548" lon="6.92331">
        <ele>994</ele>
        <time>2014-07-15T11:07:05Z</time>
      </trkpt>
      <trkpt lat="47.84548" lon="6.92331">
        <ele>994</ele>
        <time>2014-07-15T11:07:06Z</time>
      </trkpt>
      <trkpt lat="47.84548" lon="6.92331">
        <ele>994</ele>
        <time>2014-07-15T11:07:07Z</time>
      </trkpt>
      <trkpt lat="47.84548" lon="6.9233">
        <ele>994</ele>
        <time>2014-07-15T11:07:08Z</time>
      </trkpt>
      <trkpt lat="47.84546" lon="6.92328">
        <ele>994</ele>
        <time>2014-07-15T11:07:10Z</time>
      </trkpt>
      <trkpt lat="47.84545" lon="6.92328">
        <ele>994</ele>
        <time>2014-07-15T11:07:11Z</time>
      </trkpt>
      <trkpt lat="47.84543" lon="6.92326">
        <ele>995</ele>
        <time>2014-07-15T11:07:13Z</time>
      </trkpt>
      <trkpt lat="47.84543" lon="6.92325">
        <ele>995</ele>
        <time>2014-07-15T11:07:14Z</time>
      </trkpt>
      <trkpt lat="47.84542" lon="6.92325">
        <ele>995</ele>
        <time>2014-07-15T11:07:15Z</time>
      </trkpt>
      <trkpt lat="47.84542" lon="6.92325">
        <ele>995</ele>
        <time>2014-07-15T11:07:16Z</time>
      </trkpt>
      <trkpt lat="47.84542" lon="6.92325">
        <ele>995</ele>
        <time>2014-07-15T11:07:17Z</time>
      </trkpt>
      <trkpt lat="47.84541" lon="6.92325">
        <ele>995</ele>
        <time>2014-07-15T11:07:18Z</time>
      </trkpt>
      <trkpt lat="47.84541" lon="6.92325">
        <ele>995</ele>
        <time>2014-07-15T11:07:19Z</time>
      </trkpt>
      <trkpt lat="47.84541" lon="6.92325">
        <ele>995</ele>
        <time>2014-07-15T11:07:20Z</time>
      </trkpt>
      <trkpt lat="47.84541" lon="6.92325">
        <ele>995</ele>
        <time>2014-07-15T11:07:21Z</time>
      </trkpt>
      <trkpt lat="47.84541" lon="6.92325">
        <ele>995</ele>
        <time>2014-07-15T11:07:22Z</time>
      </trkpt>
      <trkpt lat="47.84541" lon="6.92325">
        <ele>995</ele>
        <time>2014-07-15T11:07:23Z</time>
      </trkpt>
      <trkpt lat="47.84541" lon="6.92325">
        <ele>995</ele>
        <time>2014-07-15T11:07:24Z</time>
      </trkpt>
      <trkpt lat="47.84541" lon="6.92325">
        <ele>995</ele>
        <time>2014-07-15T11:07:25Z</time>
      </trkpt>
      <trkpt lat="47.84541" lon="6.92325">
        <ele>995</ele>
        <time>2014-07-15T11:07:26Z</time>
      </trkpt>
      <trkpt lat="47.84541" lon="6.92325">
        <ele>995</ele>
        <time>2014-07-15T11:07:27Z</time>
      </trkpt>
      <trkpt lat="47.84541" lon="6.92325">
        <ele>995</ele>
        <time>2014-07-15T11:07:30Z</time>
      </trkpt>
      <trkpt lat="47.84541" lon="6.92325">
        <ele>995</ele>
        <time>2014-07-15T11:07:31Z</time>
      </trkpt>
      <trkpt lat="47.84541" lon="6.92325">
        <ele>995</ele>
        <time>2014-07-15T11:07:32Z</time>
      </trkpt>
      <trkpt lat="47.84541" lon="6.92325">
        <ele>995</ele>
        <time>2014-07-15T11:07:34Z</time>
      </trkpt>
      <trkpt lat="47.84541" lon="6.92325">
        <ele>995</ele>
        <time>2014-07-15T11:07:35Z</time>
      </trkpt>
      <trkpt lat="47.84541" lon="6.92325">
        <ele>995</ele>
        <time>2014-07-15T11:07:36Z</time>
      </trkpt>
      <trkpt lat="47.84541" lon="6.92325">
        <ele>995</ele>
        <time>2014-07-15T11:07:37Z</time>
      </trkpt>
      <trkpt lat="47.84541" lon="6.92325">
        <ele>995</ele>
        <time>2014-07-15T11:07:38Z</time>
      </trkpt>
      <trkpt lat="47.84541" lon="6.92325">
        <ele>995</ele>
        <time>2014-07-15T11:07:39Z</time>
      </trkpt>
      <trkpt lat="47.84541" lon="6.92325">
        <ele>995</ele>
        <time>2014-07-15T11:07:40Z</time>
      </trkpt>
      <trkpt lat="47.84541" lon="6.92325">
        <ele>995</ele>
        <time>2014-07-15T11:07:41Z</time>
      </trkpt>
      <trkpt lat="47.84541" lon="6.92325">
        <ele>995</ele>
        <time>2014-07-15T11:07:42Z</time>
      </trkpt>
      <trkpt lat="47.84541" lon="6.92325">
        <ele>995</ele>
        <time>2014-07-15T11:07:43Z</time>
      </trkpt>
      <trkpt lat="47.84541" lon="6.92325">
        <ele>995</ele>
        <time>2014-07-15T11:07:44Z</time>
      </trkpt>
      <trkpt lat="47.84541" lon="6.92325">
        <ele>995</ele>
        <time>2014-07-15T11:07:47Z</time>
      </trkpt>
      <trkpt lat="47.84541" lon="6.92325">
        <ele>995</ele>
        <time>2014-07-15T11:07:48Z</time>
      </trkpt>
      <trkpt lat="47.84541" lon="6.92325">
        <ele>995</ele>
        <time>2014-07-15T11:07:49Z</time>
      </trkpt>
      <trkpt lat="47.84541" lon="6.92325">
        <ele>995</ele>
        <time>2014-07-15T11:07:50Z</time>
      </trkpt>
      <trkpt lat="47.84541" lon="6.92325">
        <ele>995</ele>
        <time>2014-07-15T11:07:51Z</time>
      </trkpt>
      <trkpt lat="47.84541" lon="6.92325">
        <ele>995</ele>
        <time>2014-07-15T11:07:52Z</time>
      </trkpt>
      <trkpt lat="47.84541" lon="6.92325">
        <ele>995</ele>
        <time>2014-07-15T11:07:53Z</time>
      </trkpt>
      <trkpt lat="47.84541" lon="6.92325">
        <ele>995</ele>
        <time>2014-07-15T11:07:54Z</time>
      </trkpt>
      <trkpt lat="47.8454" lon="6.92325">
        <ele>995</ele>
        <time>2014-07-15T11:07:55Z</time>
      </trkpt>
      <trkpt lat="47.84541" lon="6.92325">
        <ele>995</ele>
        <time>2014-07-15T11:07:56Z</time>
      </trkpt>
      <trkpt lat="47.84541" lon="6.92325">
        <ele>995</ele>
        <time>2014-07-15T11:07:57Z</time>
      </trkpt>
      <trkpt lat="47.84541" lon="6.92326">
        <ele>995</ele>
        <time>2014-07-15T11:07:58Z</time>
      </trkpt>
      <trkpt lat="47.84542" lon="6.92327">
        <ele>995</ele>
        <time>2014-07-15T11:07:59Z</time>
      </trkpt>
      <trkpt lat="47.84543" lon="6.92329">
        <ele>995</ele>
        <time>2014-07-15T11:08:00Z</time>
      </trkpt>
      <trkpt lat="47.84543" lon="6.92331">
        <ele>995</ele>
        <time>2014-07-15T11:08:01Z</time>
      </trkpt>
      <trkpt lat="47.84544" lon="6.92332">
        <ele>995</ele>
        <time>2014-07-15T11:08:02Z</time>
      </trkpt>
      <trkpt lat="47.84544" lon="6.92333">
        <ele>994</ele>
        <time>2014-07-15T11:08:03Z</time>
      </trkpt>
      <trkpt lat="47.84544" lon="6.92333">
        <ele>992</ele>
        <time>2014-07-15T11:08:04Z</time>
      </trkpt>
      <trkpt lat="47.84544" lon="6.92333">
        <ele>994</ele>
        <time>2014-07-15T11:08:05Z</time>
      </trkpt>
      <trkpt lat="47.84544" lon="6.92333">
        <ele>994</ele>
        <time>2014-07-15T11:08:06Z</time>
      </trkpt>
      <trkpt lat="47.84544" lon="6.92333">
        <ele>995</ele>
        <time>2014-07-15T11:08:07Z</time>
      </trkpt>
      <trkpt lat="47.84544" lon="6.92332">
        <ele>995</ele>
        <time>2014-07-15T11:08:08Z</time>
      </trkpt>
      <trkpt lat="47.84544" lon="6.92332">
        <ele>995</ele>
        <time>2014-07-15T11:08:10Z</time>
      </trkpt>
      <trkpt lat="47.84544" lon="6.92332">
        <ele>995</ele>
        <time>2014-07-15T11:08:11Z</time>
      </trkpt>
      <trkpt lat="47.84544" lon="6.92332">
        <ele>995</ele>
        <time>2014-07-15T11:08:12Z</time>
      </trkpt>
      <trkpt lat="47.84543" lon="6.92332">
        <ele>995</ele>
        <time>2014-07-15T11:08:13Z</time>
      </trkpt>
      <trkpt lat="47.84543" lon="6.92332">
        <ele>995</ele>
        <time>2014-07-15T11:08:14Z</time>
      </trkpt>
      <trkpt lat="47.84543" lon="6.92332">
        <ele>995</ele>
        <time>2014-07-15T11:08:15Z</time>
      </trkpt>
      <trkpt lat="47.84543" lon="6.92332">
        <ele>995</ele>
        <time>2014-07-15T11:08:16Z</time>
      </trkpt>
      <trkpt lat="47.84543" lon="6.92332">
        <ele>995</ele>
        <time>2014-07-15T11:08:17Z</time>
      </trkpt>
      <trkpt lat="47.84543" lon="6.92332">
        <ele>995</ele>
        <time>2014-07-15T11:08:18Z</time>
      </trkpt>
      <trkpt lat="47.84543" lon="6.92332">
        <ele>995</ele>
        <time>2014-07-15T11:08:19Z</time>
      </trkpt>
      <trkpt lat="47.84544" lon="6.92332">
        <ele>995</ele>
        <time>2014-07-15T11:08:20Z</time>
      </trkpt>
      <trkpt lat="47.84544" lon="6.92332">
        <ele>995</ele>
        <time>2014-07-15T11:08:21Z</time>
      </trkpt>
      <trkpt lat="47.84544" lon="6.92332">
        <ele>995</ele>
        <time>2014-07-15T11:08:22Z</time>
      </trkpt>
      <trkpt lat="47.84544" lon="6.92332">
        <ele>995</ele>
        <time>2014-07-15T11:08:23Z</time>
      </trkpt>
      <trkpt lat="47.84544" lon="6.92332">
        <ele>995</ele>
        <time>2014-07-15T11:08:24Z</time>
      </trkpt>
      <trkpt lat="47.84544" lon="6.92332">
        <ele>995</ele>
        <time>2014-07-15T11:08:25Z</time>
      </trkpt>
      <trkpt lat="47.84544" lon="6.92332">
        <ele>995</ele>
        <time>2014-07-15T11:08:26Z</time>
      </trkpt>
      <trkpt lat="47.84544" lon="6.92332">
        <ele>995</ele>
        <time>2014-07-15T11:08:27Z</time>
      </trkpt>
      <trkpt lat="47.84544" lon="6.92332">
        <ele>995</ele>
        <time>2014-07-15T11:08:28Z</time>
      </trkpt>
      <trkpt lat="47.84544" lon="6.92332">
        <ele>995</ele>
        <time>2014-07-15T11:08:29Z</time>
      </trkpt>
      <trkpt lat="47.84544" lon="6.92332">
        <ele>995</ele>
        <time>2014-07-15T11:08:30Z</time>
      </trkpt>
      <trkpt lat="47.84537" lon="6.92325">
        <ele>996</ele>
        <time>2014-07-15T12:02:59Z</time>
      </trkpt>
      <trkpt lat="47.84537" lon="6.92325">
        <ele>996</ele>
        <time>2014-07-15T12:03:00Z</time>
      </trkpt>
      <trkpt lat="47.84537" lon="6.92325">
        <ele>996</ele>
        <time>2014-07-15T12:03:01Z</time>
      </trkpt>
      <trkpt lat="47.84537" lon="6.92325">
        <ele>996</ele>
        <time>2014-07-15T12:03:02Z</time>
      </trkpt>
      <trkpt lat="47.84537" lon="6.92325">
        <ele>996</ele>
        <time>2014-07-15T12:03:03Z</time>
      </trkpt>
      <trkpt lat="47.84538" lon="6.92325">
        <ele>996</ele>
        <time>2014-07-15T12:03:04Z</time>
      </trkpt>
      <trkpt lat="47.84538" lon="6.92325">
        <ele>996</ele>
        <time>2014-07-15T12:03:05Z</time>
      </trkpt>
      <trkpt lat="47.84538" lon="6.92325">
        <ele>996</ele>
        <time>2014-07-15T12:03:06Z</time>
      </trkpt>
      <trkpt lat="47.84538" lon="6.92325">
        <ele>996</ele>
        <time>2014-07-15T12:03:07Z</time>
      </trkpt>
      <trkpt lat="47.84538" lon="6.92324">
        <ele>996</ele>
        <time>2014-07-15T12:03:08Z</time>
      </trkpt>
      <trkpt lat="47.84537" lon="6.92324">
        <ele>996</ele>
        <time>2014-07-15T12:03:09Z</time>
      </trkpt>
      <trkpt lat="47.84537" lon="6.92324">
        <ele>996</ele>
        <time>2014-07-15T12:03:10Z</time>
      </trkpt>
      <trkpt lat="47.84537" lon="6.92324">
        <ele>996</ele>
        <time>2014-07-15T12:03:11Z</time>
      </trkpt>
      <trkpt lat="47.84538" lon="6.92325">
        <ele>996</ele>
        <time>2014-07-15T12:03:12Z</time>
      </trkpt>
      <trkpt lat="47.84539" lon="6.92325">
        <ele>996</ele>
        <time>2014-07-15T12:03:13Z</time>
      </trkpt>
      <trkpt lat="47.84539" lon="6.92325">
        <ele>995</ele>
        <time>2014-07-15T12:03:14Z</time>
      </trkpt>
      <trkpt lat="47.8454" lon="6.92325">
        <ele>995</ele>
        <time>2014-07-15T12:03:15Z</time>
      </trkpt>
      <trkpt lat="47.8454" lon="6.92325">
        <ele>995</ele>
        <time>2014-07-15T12:03:16Z</time>
      </trkpt>
      <trkpt lat="47.8454" lon="6.92325">
        <ele>995</ele>
        <time>2014-07-15T12:03:17Z</time>
      </trkpt>
      <trkpt lat="47.8454" lon="6.92325">
        <ele>995</ele>
        <time>2014-07-15T12:03:18Z</time>
      </trkpt>
      <trkpt lat="47.8454" lon="6.92325">
        <ele>995</ele>
        <time>2014-07-15T12:03:19Z</time>
      </trkpt>
      <trkpt lat="47.8454" lon="6.92325">
        <ele>995</ele>
        <time>2014-07-15T12:03:20Z</time>
      </trkpt>
      <trkpt lat="47.8454" lon="6.92325">
        <ele>995</ele>
        <time>2014-07-15T12:03:21Z</time>
      </trkpt>
      <trkpt lat="47.8454" lon="6.92325">
        <ele>995</ele>
        <time>2014-07-15T12:03:22Z</time>
      </trkpt>
      <trkpt lat="47.8454" lon="6.92325">
        <ele>995</ele>
        <time>2014-07-15T12:03:23Z</time>
      </trkpt>
      <trkpt lat="47.8454" lon="6.92324">
        <ele>995</ele>
        <time>2014-07-15T12:03:24Z</time>
      </trkpt>
      <trkpt lat="47.8454" lon="6.92324">
        <ele>995</ele>
        <time>2014-07-15T12:03:25Z</time>
      </trkpt>
      <trkpt lat="47.8454" lon="6.92324">
        <ele>995</ele>
        <time>2014-07-15T12:03:26Z</time>
      </trkpt>
      <trkpt lat="47.8454" lon="6.92323">
        <ele>995</ele>
        <time>2014-07-15T12:03:27Z</time>
      </trkpt>
      <trkpt lat="47.84539" lon="6.92323">
        <ele>995</ele>
        <time>2014-07-15T12:03:28Z</time>
      </trkpt>
      <trkpt lat="47.84539" lon="6.92322">
        <ele>996</ele>
        <time>2014-07-15T12:03:30Z</time>
      </trkpt>
      <trkpt lat="47.84539" lon="6.92322">
        <ele>996</ele>
        <time>2014-07-15T12:03:31Z</time>
      </trkpt>
      <trkpt lat="47.84538" lon="6.92322">
        <ele>996</ele>
        <time>2014-07-15T12:03:32Z</time>
      </trkpt>
      <trkpt lat="47.84538" lon="6.92321">
        <ele>996</ele>
        <time>2014-07-15T12:03:33Z</time>
      </trkpt>
      <trkpt lat="47.84538" lon="6.92321">
        <ele>996</ele>
        <time>2014-07-15T12:03:34Z</time>
      </trkpt>
      <trkpt lat="47.84538" lon="6.92321">
        <ele>996</ele>
        <time>2014-07-15T12:03:35Z</time>
      </trkpt>
      <trkpt lat="47.84538" lon="6.92321">
        <ele>996</ele>
        <time>2014-07-15T12:03:36Z</time>
      </trkpt>
      <trkpt lat="47.84538" lon="6.92321">
        <ele>996</ele>
        <time>2014-07-15T12:03:38Z</time>
      </trkpt>
      <trkpt lat="47.84538" lon="6.92321">
        <ele>996</ele>
        <time>2014-07-15T12:03:39Z</time>
      </trkpt>
      <trkpt lat="47.84538" lon="6.92321">
        <ele>996</ele>
        <time>2014-07-15T12:03:40Z</time>
      </trkpt>
      <trkpt lat="47.84538" lon="6.92321">
        <ele>996</ele>
        <time>2014-07-15T12:03:41Z</time>
      </trkpt>
      <trkpt lat="47.84538" lon="6.92321">
        <ele>996</ele>
        <time>2014-07-15T12:03:42Z</time>
      </trkpt>
      <trkpt lat="47.84538" lon="6.92321">
        <ele>996</ele>
        <time>2014-07-15T12:03:43Z</time>
      </trkpt>
      <trkpt lat="47.84538" lon="6.92321">
        <ele>996</ele>
        <time>2014-07-15T12:03:44Z</time>
      </trkpt>
      <trkpt lat="47.84538" lon="6.92321">
        <ele>996</ele>
        <time>2014-07-15T12:03:45Z</time>
      </trkpt>
      <trkpt lat="47.84538" lon="6.92321">
        <ele>996</ele>
        <time>2014-07-15T12:03:47Z</time>
      </trkpt>
      <trkpt lat="47.84538" lon="6.92321">
        <ele>996</ele>
        <time>2014-07-15T12:03:48Z</time>
      </trkpt>
      <trkpt lat="47.84538" lon="6.92321">
        <ele>996</ele>
        <time>2014-07-15T12:03:49Z</time>
      </trkpt>
      <trkpt lat="47.84538" lon="6.92321">
        <ele>996</ele>
        <time>2014-07-15T12:03:50Z</time>
      </trkpt>
      <trkpt lat="47.84538" lon="6.92321">
        <ele>996</ele>
        <time>2014-07-15T12:03:51Z</time>
      </trkpt>
      <trkpt lat="47.84538" lon="6.92321">
        <ele>996</ele>
        <time>2014-07-15T12:03:52Z</time>
      </trkpt>
      <trkpt lat="47.84538" lon="6.92321">
        <ele>996</ele>
        <time>2014-07-15T12:03:53Z</time>
      </trkpt>
      <trkpt lat="47.84538" lon="6.92321">
        <ele>996</ele>
        <time>2014-07-15T12:03:54Z</time>
      </trkpt>
      <trkpt lat="47.84538" lon="6.92321">
        <ele>996</ele>
        <time>2014-07-15T12:03:55Z</time>
      </trkpt>
      <trkpt lat="47.84539" lon="6.92321">
        <ele>996</ele>
        <time>2014-07-15T12:03:56Z</time>
      </trkpt>
      <trkpt lat="47.84539" lon="6.92322">
        <ele>996</ele>
        <time>2014-07-15T12:03:57Z</time>
      </trkpt>
      <trkpt lat="47.84539" lon="6.92322">
        <ele>996</ele>
        <time>2014-07-15T12:03:58Z</time>
      </trkpt>
      <trkpt lat="47.84539" lon="6.92322">
        <ele>996</ele>
        <time>2014-07-15T12:03:59Z</time>
      </trkpt>
      <trkpt lat="47.84539" lon="6.92323">
        <ele>995</ele>
        <time>2014-07-15T12:04:00Z</time>
      </trkpt>
      <trkpt lat="47.84539" lon="6.92323">
        <ele>995</ele>
        <time>2014-07-15T12:04:01Z</time>
      </trkpt>
      <trkpt lat="47.8454" lon="6.92324">
        <ele>995</ele>
        <time>2014-07-15T12:04:02Z</time>
      </trkpt>
      <trkpt lat="47.84541" lon="6.92324">
        <ele>995</ele>
        <time>2014-07-15T12:04:03Z</time>
      </trkpt>
      <trkpt lat="47.84542" lon="6.92325">
        <ele>995</ele>
        <time>2014-07-15T12:04:04Z</time>
      </trkpt>
      <trkpt lat="47.84543" lon="6.92324">
        <ele>995</ele>
        <time>2014-07-15T12:04:05Z</time>
      </trkpt>
      <trkpt lat="47.84545" lon="6.92324">
        <ele>994</ele>
        <time>2014-07-15T12:04:07Z</time>
      </trkpt>
      <trkpt lat="47.84546" lon="6.92324">
        <ele>994</ele>
        <time>2014-07-15T12:04:08Z</time>
      </trkpt>
      <trkpt lat="47.84547" lon="6.92323">
        <ele>994</ele>
        <time>2014-07-15T12:04:09Z</time>
      </trkpt>
      <trkpt lat="47.84547" lon="6.92323">
        <ele>994</ele>
        <time>2014-07-15T12:04:10Z</time>
      </trkpt>
      <trkpt lat="47.84549" lon="6.92323">
        <ele>994</ele>
        <time>2014-07-15T12:04:11Z</time>
      </trkpt>
      <trkpt lat="47.8455" lon="6.92323">
        <ele>994</ele>
        <time>2014-07-15T12:04:12Z</time>
      </trkpt>
      <trkpt lat="47.84551" lon="6.92323">
        <ele>993</ele>
        <time>2014-07-15T12:04:13Z</time>
      </trkpt>
      <trkpt lat="47.84551" lon="6.92323">
        <ele>993</ele>
        <time>2014-07-15T12:04:14Z</time>
      </trkpt>
      <trkpt lat="47.84551" lon="6.92322">
        <ele>993</ele>
        <time>2014-07-15T12:04:15Z</time>
      </trkpt>
      <trkpt lat="47.84551" lon="6.92322">
        <ele>993</ele>
        <time>2014-07-15T12:04:16Z</time>
      </trkpt>
      <trkpt lat="47.84552" lon="6.92322">
        <ele>993</ele>
        <time>2014-07-15T12:04:17Z</time>
      </trkpt>
      <trkpt lat="47.84552" lon="6.92323">
        <ele>993</ele>
        <time>2014-07-15T12:04:18Z</time>
      </trkpt>
      <trkpt lat="47.84553" lon="6.92323">
        <ele>993</ele>
        <time>2014-07-15T12:04:19Z</time>
      </trkpt>
      <trkpt lat="47.84553" lon="6.92322">
        <ele>993</ele>
        <time>2014-07-15T12:04:20Z</time>
      </trkpt>
      <trkpt lat="47.84553" lon="6.92321">
        <ele>993</ele>
        <time>2014-07-15T12:04:21Z</time>
      </trkpt>
      <trkpt lat="47.84553" lon="6.9232">
        <ele>993</ele>
        <time>2014-07-15T12:04:22Z</time>
      </trkpt>
      <trkpt lat="47.84553" lon="6.9232">
        <ele>993</ele>
        <time>2014-07-15T12:04:23Z</time>
      </trkpt>
      <trkpt lat="47.84553" lon="6.9232">
        <ele>993</ele>
        <time>2014-07-15T12:04:24Z</time>
      </trkpt>
      <trkpt lat="47.84553" lon="6.9232">
        <ele>993</ele>
        <time>2014-07-15T12:04:25Z</time>
      </trkpt>
      <trkpt lat="47.84553" lon="6.92319">
        <ele>993</ele>
        <time>2014-07-15T12:04:26Z</time>
      </trkpt>
      <trkpt lat="47.84553" lon="6.92319">
        <ele>993</ele>
        <time>2014-07-15T12:04:27Z</time>
      </trkpt>
      <trkpt lat="47.84553" lon="6.92319">
        <ele>993</ele>
        <time>2014-07-15T12:04:28Z</time>
      </trkpt>
      <trkpt lat="47.84553" lon="6.9232">
        <ele>993</ele>
        <time>2014-07-15T12:04:29Z</time>
      </trkpt>
      <trkpt lat="47.84553" lon="6.9232">
        <ele>993</ele>
        <time>2014-07-15T12:04:30Z</time>
      </trkpt>
      <trkpt lat="47.84553" lon="6.9232">
        <ele>993</ele>
        <time>2014-07-15T12:04:31Z</time>
      </trkpt>
      <trkpt lat="47.84553" lon="6.9232">
        <ele>993</ele>
        <time>2014-07-15T12:04:32Z</time>
      </trkpt>
      <trkpt lat="47.84553" lon="6.9232">
        <ele>993</ele>
        <time>2014-07-15T12:04:33Z</time>
      </trkpt>
      <trkpt lat="47.84553" lon="6.9232">
        <ele>993</ele>
        <time>2014-07-15T12:04:34Z</time>
      </trkpt>
      <trkpt lat="47.84553" lon="6.9232">
        <ele>993</ele>
        <time>2014-07-15T12:04:35Z</time>
      </trkpt>
      <trkpt lat="47.84554" lon="6.9232">
        <ele>993</ele>
        <time>2014-07-15T12:04:36Z</time>
      </trkpt>
      <trkpt lat="47.84554" lon="6.9232">
        <ele>993</ele>
        <time>2014-07-15T12:04:37Z</time>
      </trkpt>
      <trkpt lat="47.84554" lon="6.9232">
        <ele>993</ele>
        <time>2014-07-15T12:04:42Z</time>
      </trkpt>
      <trkpt lat="47.84554" lon="6.9232">
        <ele>993</ele>
        <time>2014-07-15T12:04:43Z</time>
      </trkpt>
      <trkpt lat="47.84554" lon="6.9232">
        <ele>993</ele>
        <time>2014-07-15T12:04:44Z</time>
      </trkpt>
      <trkpt lat="47.84554" lon="6.9232">
        <ele>993</ele>
        <time>2014-07-15T12:04:45Z</time>
      </trkpt>
      <trkpt lat="47.84554" lon="6.9232">
        <ele>993</ele>
        <time>2014-07-15T12:04:46Z</time>
      </trkpt>
      <trkpt lat="47.84554" lon="6.9232">
        <ele>993</ele>
        <time>2014-07-15T12:04:47Z</time>
      </trkpt>
      <trkpt lat="47.84554" lon="6.9232">
        <ele>993</ele>
        <time>2014-07-15T12:04:49Z</time>
      </trkpt>
      <trkpt lat="47.84554" lon="6.9232">
        <ele>993</ele>
        <time>2014-07-15T12:04:50Z</time>
      </trkpt>
      <trkpt lat="47.84554" lon="6.9232">
        <ele>993</ele>
        <time>2014-07-15T12:04:51Z</time>
      </trkpt>
      <trkpt lat="47.84554" lon="6.9232">
        <ele>993</ele>
        <time>2014-07-15T12:04:52Z</time>
      </trkpt>
      <trkpt lat="47.84554" lon="6.9232">
        <ele>993</ele>
        <time>2014-07-15T12:04:53Z</time>
      </trkpt>
      <trkpt lat="47.84554" lon="6.9232">
        <ele>993</ele>
        <time>2014-07-15T12:04:54Z</time>
      </trkpt>
      <trkpt lat="47.84554" lon="6.9232">
        <ele>993</ele>
        <time>2014-07-15T12:04:55Z</time>
      </trkpt>
      <trkpt lat="47.84554" lon="6.9232">
        <ele>993</ele>
        <time>2014-07-15T12:04:56Z</time>
      </trkpt>
      <trkpt lat="47.84554" lon="6.9232">
        <ele>993</ele>
        <time>2014-07-15T12:04:57Z</time>
      </trkpt>
      <trkpt lat="47.84554" lon="6.9232">
        <ele>993</ele>
        <time>2014-07-15T12:04:58Z</time>
      </trkpt>
      <trkpt lat="47.84554" lon="6.9232">
        <ele>993</ele>
        <time>2014-07-15T12:04:59Z</time>
      </trkpt>
      <trkpt lat="47.84554" lon="6.9232">
        <ele>993</ele>
        <time>2014-07-15T12:05:00Z</time>
      </trkpt>
      <trkpt lat="47.84554" lon="6.9232">
        <ele>993</ele>
        <time>2014-07-15T12:05:01Z</time>
      </trkpt>
      <trkpt lat="47.84554" lon="6.9232">
        <ele>993</ele>
        <time>2014-07-15T12:05:02Z</time>
      </trkpt>
      <trkpt lat="47.84554" lon="6.9232">
        <ele>993</ele>
        <time>2014-07-15T12:05:03Z</time>
      </trkpt>
      <trkpt lat="47.84554" lon="6.9232">
        <ele>993</ele>
        <time>2014-07-15T12:05:04Z</time>
      </trkpt>
      <trkpt lat="47.84554" lon="6.9232">
        <ele>993</ele>
        <time>2014-07-15T12:05:05Z</time>
      </trkpt>
      <trkpt lat="47.84553" lon="6.9232">
        <ele>993</ele>
        <time>2014-07-15T12:05:06Z</time>
      </trkpt>
      <trkpt lat="47.84553" lon="6.9232">
        <ele>993</ele>
        <time>2014-07-15T12:05:07Z</time>
      </trkpt>
      <trkpt lat="47.84553" lon="6.9232">
        <ele>993</ele>
        <time>2014-07-15T12:05:08Z</time>
      </trkpt>
      <trkpt lat="47.84552" lon="6.9232">
        <ele>993</ele>
        <time>2014-07-15T12:05:09Z</time>
      </trkpt>
      <trkpt lat="47.84552" lon="6.9232">
        <ele>993</ele>
        <time>2014-07-15T12:05:10Z</time>
      </trkpt>
      <trkpt lat="47.84552" lon="6.9232">
        <ele>993</ele>
        <time>2014-07-15T12:05:11Z</time>
      </trkpt>
      <trkpt lat="47.84552" lon="6.9232">
        <ele>993</ele>
        <time>2014-07-15T12:05:12Z</time>
      </trkpt>
      <trkpt lat="47.84552" lon="6.9232">
        <ele>993</ele>
        <time>2014-07-15T12:05:14Z</time>
      </trkpt>
      <trkpt lat="47.84552" lon="6.9232">
        <ele>993</ele>
        <time>2014-07-15T12:05:15Z</time>
      </trkpt>
      <trkpt lat="47.84552" lon="6.9232">
        <ele>993</ele>
        <time>2014-07-15T12:05:16Z</time>
      </trkpt>
      <trkpt lat="47.84552" lon="6.9232">
        <ele>993</ele>
        <time>2014-07-15T12:05:17Z</time>
      </trkpt>
      <trkpt lat="47.84552" lon="6.9232">
        <ele>993</ele>
        <time>2014-07-15T12:05:18Z</time>
      </trkpt>
      <trkpt lat="47.84552" lon="6.9232">
        <ele>993</ele>
        <time>2014-07-15T12:05:19Z</time>
      </trkpt>
      <trkpt lat="47.84552" lon="6.9232">
        <ele>993</ele>
        <time>2014-07-15T12:05:20Z</time>
      </trkpt>
      <trkpt lat="47.84552" lon="6.9232">
        <ele>993</ele>
        <time>2014-07-15T12:05:22Z</time>
      </trkpt>
      <trkpt lat="47.84552" lon="6.9232">
        <ele>993</ele>
        <time>2014-07-15T12:05:23Z</time>
      </trkpt>
      <trkpt lat="47.84552" lon="6.9232">
        <ele>993</ele>
        <time>2014-07-15T12:05:24Z</time>
      </trkpt>
      <trkpt lat="47.84552" lon="6.9232">
        <ele>993</ele>
        <time>2014-07-15T12:05:26Z</time>
      </trkpt>
      <trkpt lat="47.84552" lon="6.9232">
        <ele>993</ele>
        <time>2014-07-15T12:05:27Z</time>
      </trkpt>
      <trkpt lat="47.84552" lon="6.9232">
        <ele>993</ele>
        <time>2014-07-15T12:05:28Z</time>
      </trkpt>
      <trkpt lat="47.84552" lon="6.9232">
        <ele>993</ele>
        <time>2014-07-15T12:05:29Z</time>
      </trkpt>
      <trkpt lat="47.84552" lon="6.9232">
        <ele>993</ele>
        <time>2014-07-15T12:05:30Z</time>
      </trkpt>
      <trkpt lat="47.84552" lon="6.9232">
        <ele>993</ele>
        <time>2014-07-15T12:05:31Z</time>
      </trkpt>
      <trkpt lat="47.84552" lon="6.9232">
        <ele>993</ele>
        <time>2014-07-15T12:05:32Z</time>
      </trkpt>
      <trkpt lat="47.84552" lon="6.92321">
        <ele>993</ele>
        <time>2014-07-15T12:05:33Z</time>
      </trkpt>
      <trkpt lat="47.84552" lon="6.92322">
        <ele>993</ele>
        <time>2014-07-15T12:05:34Z</time>
      </trkpt>
      <trkpt lat="47.84551" lon="6.92323">
        <ele>993</ele>
        <time>2014-07-15T12:05:35Z</time>
      </trkpt>
      <trkpt lat="47.84551" lon="6.92323">
        <ele>993</ele>
        <time>2014-07-15T12:05:36Z</time>
      </trkpt>
      <trkpt lat="47.84551" lon="6.92323">
        <ele>993</ele>
        <time>2014-07-15T12:05:38Z</time>
      </trkpt>
      <trkpt lat="47.84551" lon="6.92324">
        <ele>993</ele>
        <time>2014-07-15T12:05:39Z</time>
      </trkpt>
      <trkpt lat="47.8455" lon="6.92324">
        <ele>993</ele>
        <time>2014-07-15T12:05:40Z</time>
      </trkpt>
      <trkpt lat="47.84549" lon="6.92324">
        <ele>994</ele>
        <time>2014-07-15T12:05:42Z</time>
      </trkpt>
      <trkpt lat="47.84549" lon="6.92324">
        <ele>994</ele>
        <time>2014-07-15T12:05:43Z</time>
      </trkpt>
      <trkpt lat="47.84549" lon="6.92325">
        <ele>994</ele>
        <time>2014-07-15T12:05:44Z</time>
      </trkpt>
      <trkpt lat="47.84548" lon="6.92326">
        <ele>994</ele>
        <time>2014-07-15T12:05:45Z</time>
      </trkpt>
      <trkpt lat="47.84547" lon="6.92326">
        <ele>994</ele>
        <time>2014-07-15T12:05:46Z</time>
      </trkpt>
      <trkpt lat="47.84547" lon="6.92327">
        <ele>994</ele>
        <time>2014-07-15T12:05:47Z</time>
      </trkpt>
      <trkpt lat="47.84546" lon="6.92327">
        <ele>994</ele>
        <time>2014-07-15T12:05:48Z</time>
      </trkpt>
      <trkpt lat="47.84546" lon="6.92327">
        <ele>994</ele>
        <time>2014-07-15T12:05:49Z</time>
      </trkpt>
      <trkpt lat="47.84546" lon="6.92327">
        <ele>994</ele>
        <time>2014-07-15T12:05:50Z</time>
      </trkpt>
      <trkpt lat="47.84546" lon="6.92327">
        <ele>994</ele>
        <time>2014-07-15T12:05:51Z</time>
      </trkpt>
      <trkpt lat="47.84546" lon="6.92327">
        <ele>994</ele>
        <time>2014-07-15T12:05:52Z</time>
      </trkpt>
      <trkpt lat="47.84546" lon="6.92327">
        <ele>994</ele>
        <time>2014-07-15T12:05:53Z</time>
      </trkpt>
      <trkpt lat="47.84546" lon="6.92327">
        <ele>994</ele>
        <time>2014-07-15T12:05:54Z</time>
      </trkpt>
      <trkpt lat="47.84546" lon="6.92327">
        <ele>994</ele>
        <time>2014-07-15T12:05:55Z</time>
      </trkpt>
      <trkpt lat="47.84546" lon="6.92327">
        <ele>994</ele>
        <time>2014-07-15T12:05:56Z</time>
      </trkpt>
      <trkpt lat="47.84546" lon="6.92327">
        <ele>994</ele>
        <time>2014-07-15T12:05:58Z</time>
      </trkpt>
      <trkpt lat="47.84546" lon="6.92327">
        <ele>994</ele>
        <time>2014-07-15T12:05:59Z</time>
      </trkpt>
      <trkpt lat="47.84546" lon="6.92327">
        <ele>994</ele>
        <time>2014-07-15T12:06:00Z</time>
      </trkpt>
      <trkpt lat="47.84546" lon="6.92327">
        <ele>994</ele>
        <time>2014-07-15T12:06:01Z</time>
      </trkpt>
      <trkpt lat="47.84546" lon="6.92327">
        <ele>994</ele>
        <time>2014-07-15T12:06:02Z</time>
      </trkpt>
      <trkpt lat="47.84546" lon="6.92327">
        <ele>994</ele>
        <time>2014-07-15T12:06:03Z</time>
      </trkpt>
      <trkpt lat="47.84546" lon="6.92327">
        <ele>994</ele>
        <time>2014-07-15T12:06:04Z</time>
      </trkpt>
      <trkpt lat="47.84546" lon="6.92327">
        <ele>994</ele>
        <time>2014-07-15T12:06:05Z</time>
      </trkpt>
      <trkpt lat="47.84546" lon="6.92327">
        <ele>994</ele>
        <time>2014-07-15T12:06:06Z</time>
      </trkpt>
      <trkpt lat="47.84546" lon="6.92327">
        <ele>994</ele>
        <time>2014-07-15T12:06:07Z</time>
      </trkpt>
      <trkpt lat="47.84546" lon="6.92327">
        <ele>994</ele>
        <time>2014-07-15T12:06:08Z</time>
      </trkpt>
      <trkpt lat="47.84546" lon="6.92327">
        <ele>994</ele>
        <time>2014-07-15T12:06:09Z</time>
      </trkpt>
      <trkpt lat="47.84546" lon="6.92327">
        <ele>994</ele>
        <time>2014-07-15T12:06:10Z</time>
      </trkpt>
      <trkpt lat="47.84546" lon="6.92327">
        <ele>994</ele>
        <time>2014-07-15T12:06:11Z</time>
      </trkpt>
      <trkpt lat="47.84546" lon="6.92327">
        <ele>994</ele>
        <time>2014-07-15T12:06:12Z</time>
      </trkpt>
      <trkpt lat="47.84546" lon="6.92327">
        <ele>994</ele>
        <time>2014-07-15T12:06:13Z</time>
      </trkpt>
      <trkpt lat="47.84546" lon="6.92327">
        <ele>994</ele>
        <time>2014-07-15T12:06:14Z</time>
      </trkpt>
      <trkpt lat="47.84546" lon="6.92327">
        <ele>994</ele>
        <time>2014-07-15T12:06:15Z</time>
      </trkpt>
      <trkpt lat="47.84546" lon="6.92327">
        <ele>994</ele>
        <time>2014-07-15T12:06:16Z</time>
      </trkpt>
      <trkpt lat="47.84546" lon="6.92327">
        <ele>994</ele>
        <time>2014-07-15T12:06:17Z</time>
      </trkpt>
      <trkpt lat="47.84546" lon="6.92327">
        <ele>994</ele>
        <time>2014-07-15T12:06:18Z</time>
      </trkpt>
      <trkpt lat="47.84546" lon="6.92327">
        <ele>994</ele>
        <time>2014-07-15T12:06:19Z</time>
      </trkpt>
      <trkpt lat="47.84546" lon="6.92327">
        <ele>994</ele>
        <time>2014-07-15T12:06:20Z</time>
      </trkpt>
      <trkpt lat="47.84546" lon="6.92327">
        <ele>994</ele>
        <time>2014-07-15T12:06:21Z</time>
      </trkpt>
      <trkpt lat="47.84546" lon="6.92327">
        <ele>994</ele>
        <time>2014-07-15T12:06:22Z</time>
      </trkpt>
      <trkpt lat="47.84546" lon="6.92327">
        <ele>994</ele>
        <time>2014-07-15T12:06:23Z</time>
      </trkpt>
      <trkpt lat="47.84546" lon="6.92327">
        <ele>994</ele>
        <time>2014-07-15T12:06:24Z</time>
      </trkpt>
      <trkpt lat="47.84545" lon="6.92327">
        <ele>994</ele>
        <time>2014-07-15T12:06:25Z</time>
      </trkpt>
      <trkpt lat="47.84543" lon="6.92327">
        <ele>995</ele>
        <time>2014-07-15T12:06:26Z</time>
      </trkpt>
      <trkpt lat="47.84541" lon="6.92327">
        <ele>995</ele>
        <time>2014-07-15T12:06:27Z</time>
      </trkpt>
      <trkpt lat="47.8454" lon="6.92327">
        <ele>995</ele>
        <time>2014-07-15T12:06:28Z</time>
      </trkpt>
      <trkpt lat="47.8454" lon="6.92327">
        <ele>995</ele>
        <time>2014-07-15T12:06:29Z</time>
      </trkpt>
      <trkpt lat="47.8454" lon="6.92327">
        <ele>995</ele>
        <time>2014-07-15T12:06:30Z</time>
      </trkpt>
      <trkpt lat="47.8454" lon="6.92326">
        <ele>995</ele>
        <time>2014-07-15T12:06:31Z</time>
      </trkpt>
      <trkpt lat="47.84541" lon="6.92326">
        <ele>995</ele>
        <time>2014-07-15T12:06:32Z</time>
      </trkpt>
      <trkpt lat="47.84541" lon="6.92326">
        <ele>995</ele>
        <time>2014-07-15T12:06:33Z</time>
      </trkpt>
      <trkpt lat="47.84542" lon="6.92326">
        <ele>995</ele>
        <time>2014-07-15T12:06:34Z</time>
      </trkpt>
      <trkpt lat="47.84543" lon="6.92326">
        <ele>995</ele>
        <time>2014-07-15T12:06:35Z</time>
      </trkpt>
      <trkpt lat="47.84544" lon="6.92326">
        <ele>995</ele>
        <time>2014-07-15T12:06:36Z</time>
      </trkpt>
      <trkpt lat="47.84544" lon="6.92326">
        <ele>994</ele>
        <time>2014-07-15T12:06:37Z</time>
      </trkpt>
      <trkpt lat="47.84544" lon="6.92327">
        <ele>994</ele>
        <time>2014-07-15T12:06:38Z</time>
      </trkpt>
      <trkpt lat="47.84541" lon="6.92329">
        <ele>995</ele>
        <time>2014-07-15T12:06:40Z</time>
      </trkpt>
      <trkpt lat="47.84539" lon="6.92328">
        <ele>995</ele>
        <time>2014-07-15T12:06:41Z</time>
      </trkpt>
      <trkpt lat="47.84533" lon="6.92328">
        <ele>996</ele>
        <time>2014-07-15T12:06:42Z</time>
      </trkpt>
      <trkpt lat="47.84529" lon="6.92326">
        <ele>997</ele>
        <time>2014-07-15T12:06:43Z</time>
      </trkpt>
      <trkpt lat="47.84523" lon="6.92324">
        <ele>998</ele>
        <time>2014-07-15T12:06:45Z</time>
      </trkpt>
      <trkpt lat="47.84522" lon="6.92323">
        <ele>998</ele>
        <time>2014-07-15T12:06:46Z</time>
      </trkpt>
      <trkpt lat="47.84521" lon="6.92322">
        <ele>998</ele>
        <time>2014-07-15T12:06:47Z</time>
      </trkpt>
      <trkpt lat="47.84522" lon="6.92321">
        <ele>998</ele>
        <time>2014-07-15T12:06:48Z</time>
      </trkpt>
      <trkpt lat="47.84521" lon="6.9232">
        <ele>998</ele>
        <time>2014-07-15T12:06:49Z</time>
      </trkpt>
      <trkpt lat="47.84521" lon="6.92318">
        <ele>998</ele>
        <time>2014-07-15T12:06:50Z</time>
      </trkpt>
      <trkpt lat="47.8452" lon="6.92318">
        <ele>998</ele>
        <time>2014-07-15T12:06:51Z</time>
      </trkpt>
      <trkpt lat="47.84519" lon="6.92317">
        <ele>998</ele>
        <time>2014-07-15T12:06:52Z</time>
      </trkpt>
      <trkpt lat="47.84519" lon="6.92316">
        <ele>998</ele>
        <time>2014-07-15T12:06:53Z</time>
      </trkpt>
      <trkpt lat="47.84522" lon="6.92318">
        <ele>998</ele>
        <time>2014-07-15T12:06:54Z</time>
      </trkpt>
      <trkpt lat="47.84525" lon="6.92319">
        <ele>998</ele>
        <time>2014-07-15T12:06:55Z</time>
      </trkpt>
      <trkpt lat="47.84527" lon="6.9232">
        <ele>997</ele>
        <time>2014-07-15T12:06:56Z</time>
      </trkpt>
      <trkpt lat="47.84528" lon="6.92321">
        <ele>997</ele>
        <time>2014-07-15T12:06:57Z</time>
      </trkpt>
      <trkpt lat="47.84529" lon="6.92322">
        <ele>997</ele>
        <time>2014-07-15T12:06:58Z</time>
      </trkpt>
      <trkpt lat="47.84529" lon="6.92323">
        <ele>997</ele>
        <time>2014-07-15T12:06:59Z</time>
      </trkpt>
      <trkpt lat="47.8453" lon="6.92324">
        <ele>997</ele>
        <time>2014-07-15T12:07:00Z</time>
      </trkpt>
      <trkpt lat="47.84532" lon="6.92325">
        <ele>997</ele>
        <time>2014-07-15T12:07:02Z</time>
      </trkpt>
      <trkpt lat="47.84533" lon="6.92325">
        <ele>996</ele>
        <time>2014-07-15T12:07:03Z</time>
      </trkpt>
      <trkpt lat="47.84534" lon="6.92324">
        <ele>996</ele>
        <time>2014-07-15T12:07:04Z</time>
      </trkpt>
      <trkpt lat="47.84535" lon="6.92324">
        <ele>996</ele>
        <time>2014-07-15T12:07:05Z</time>
      </trkpt>
      <trkpt lat="47.84536" lon="6.92324">
        <ele>996</ele>
        <time>2014-07-15T12:07:06Z</time>
      </trkpt>
      <trkpt lat="47.84537" lon="6.92324">
        <ele>996</ele>
        <time>2014-07-15T12:07:07Z</time>
      </trkpt>
      <trkpt lat="47.84537" lon="6.92324">
        <ele>996</ele>
        <time>2014-07-15T12:07:08Z</time>
      </trkpt>
      <trkpt lat="47.84538" lon="6.92324">
        <ele>996</ele>
        <time>2014-07-15T12:07:09Z</time>
      </trkpt>
      <trkpt lat="47.84538" lon="6.92323">
        <ele>996</ele>
        <time>2014-07-15T12:07:10Z</time>
      </trkpt>
      <trkpt lat="47.84539" lon="6.92323">
        <ele>996</ele>
        <time>2014-07-15T12:07:11Z</time>
      </trkpt>
      <trkpt lat="47.8454" lon="6.92324">
        <ele>995</ele>
        <time>2014-07-15T12:07:12Z</time>
      </trkpt>
      <trkpt lat="47.84542" lon="6.92324">
        <ele>995</ele>
        <time>2014-07-15T12:07:13Z</time>
      </trkpt>
      <trkpt lat="47.84544" lon="6.92325">
        <ele>995</ele>
        <time>2014-07-15T12:07:14Z</time>
      </trkpt>
      <trkpt lat="47.84544" lon="6.92325">
        <ele>995</ele>
        <time>2014-07-15T12:07:16Z</time>
      </trkpt>
      <trkpt lat="47.84542" lon="6.92324">
        <ele>995</ele>
        <time>2014-07-15T12:07:17Z</time>
      </trkpt>
      <trkpt lat="47.8454" lon="6.92323">
        <ele>995</ele>
        <time>2014-07-15T12:07:18Z</time>
      </trkpt>
      <trkpt lat="47.84538" lon="6.92322">
        <ele>996</ele>
        <time>2014-07-15T12:07:19Z</time>
      </trkpt>
      <trkpt lat="47.84536" lon="6.9232">
        <ele>996</ele>
        <time>2014-07-15T12:07:20Z</time>
      </trkpt>
      <trkpt lat="47.84534" lon="6.92319">
        <ele>996</ele>
        <time>2014-07-15T12:07:21Z</time>
      </trkpt>
      <trkpt lat="47.84532" lon="6.92318">
        <ele>997</ele>
        <time>2014-07-15T12:07:22Z</time>
      </trkpt>
      <trkpt lat="47.84531" lon="6.92317">
        <ele>997</ele>
        <time>2014-07-15T12:07:23Z</time>
      </trkpt>
      <trkpt lat="47.84531" lon="6.92317">
        <ele>997</ele>
        <time>2014-07-15T12:07:24Z</time>
      </trkpt>
      <trkpt lat="47.8453" lon="6.92319">
        <ele>997</ele>
        <time>2014-07-15T12:07:25Z</time>
      </trkpt>
      <trkpt lat="47.84531" lon="6.92325">
        <ele>997</ele>
        <time>2014-07-15T12:07:26Z</time>
      </trkpt>
      <trkpt lat="47.84531" lon="6.92326">
        <ele>997</ele>
        <time>2014-07-15T12:07:27Z</time>
      </trkpt>
      <trkpt lat="47.84532" lon="6.92326">
        <ele>997</ele>
        <time>2014-07-15T12:07:28Z</time>
      </trkpt>
      <trkpt lat="47.84532" lon="6.92326">
        <ele>997</ele>
        <time>2014-07-15T12:07:29Z</time>
      </trkpt>
      <trkpt lat="47.84532" lon="6.92325">
        <ele>997</ele>
        <time>2014-07-15T12:07:30Z</time>
      </trkpt>
      <trkpt lat="47.84532" lon="6.92325">
        <ele>997</ele>
        <time>2014-07-15T12:07:31Z</time>
      </trkpt>
      <trkpt lat="47.84532" lon="6.92325">
        <ele>997</ele>
        <time>2014-07-15T12:07:32Z</time>
      </trkpt>
      <trkpt lat="47.84531" lon="6.92325">
        <ele>997</ele>
        <time>2014-07-15T12:07:33Z</time>
      </trkpt>
      <trkpt lat="47.84532" lon="6.92326">
        <ele>997</ele>
        <time>2014-07-15T12:07:34Z</time>
      </trkpt>
      <trkpt lat="47.84532" lon="6.92327">
        <ele>997</ele>
        <time>2014-07-15T12:07:35Z</time>
      </trkpt>
      <trkpt lat="47.84532" lon="6.92327">
        <ele>997</ele>
        <time>2014-07-15T12:07:36Z</time>
      </trkpt>
      <trkpt lat="47.84531" lon="6.92327">
        <ele>997</ele>
        <time>2014-07-15T12:07:37Z</time>
      </trkpt>
      <trkpt lat="47.84531" lon="6.92327">
        <ele>997</ele>
        <time>2014-07-15T12:07:38Z</time>
      </trkpt>
      <trkpt lat="47.84531" lon="6.92327">
        <ele>997</ele>
        <time>2014-07-15T12:07:39Z</time>
      </trkpt>
      <trkpt lat="47.84532" lon="6.92327">
        <ele>997</ele>
        <time>2014-07-15T12:07:40Z</time>
      </trkpt>
      <trkpt lat="47.84532" lon="6.92327">
        <ele>997</ele>
        <time>2014-07-15T12:07:41Z</time>
      </trkpt>
      <trkpt lat="47.84532" lon="6.92326">
        <ele>997</ele>
        <time>2014-07-15T12:07:42Z</time>
      </trkpt>
      <trkpt lat="47.84532" lon="6.92326">
        <ele>996</ele>
        <time>2014-07-15T12:07:43Z</time>
      </trkpt>
      <trkpt lat="47.84532" lon="6.92326">
        <ele>996</ele>
        <time>2014-07-15T12:07:44Z</time>
      </trkpt>
      <trkpt lat="47.84533" lon="6.92326">
        <ele>996</ele>
        <time>2014-07-15T12:07:45Z</time>
      </trkpt>
      <trkpt lat="47.84533" lon="6.92327">
        <ele>996</ele>
        <time>2014-07-15T12:07:46Z</time>
      </trkpt>
      <trkpt lat="47.84533" lon="6.92327">
        <ele>996</ele>
        <time>2014-07-15T12:07:47Z</time>
      </trkpt>
      <trkpt lat="47.84533" lon="6.92327">
        <ele>996</ele>
        <time>2014-07-15T12:07:48Z</time>
      </trkpt>
      <trkpt lat="47.84533" lon="6.92327">
        <ele>996</ele>
        <time>2014-07-15T12:07:49Z</time>
      </trkpt>
      <trkpt lat="47.84534" lon="6.92327">
        <ele>996</ele>
        <time>2014-07-15T12:07:51Z</time>
      </trkpt>
      <trkpt lat="47.84534" lon="6.92327">
        <ele>996</ele>
        <time>2014-07-15T12:07:52Z</time>
      </trkpt>
      <trkpt lat="47.84534" lon="6.92328">
        <ele>996</ele>
        <time>2014-07-15T12:07:53Z</time>
      </trkpt>
      <trkpt lat="47.84533" lon="6.92329">
        <ele>996</ele>
        <time>2014-07-15T12:07:54Z</time>
      </trkpt>
      <trkpt lat="47.84533" lon="6.9233">
        <ele>996</ele>
        <time>2014-07-15T12:07:55Z</time>
      </trkpt>
      <trkpt lat="47.84533" lon="6.9233">
        <ele>996</ele>
        <time>2014-07-15T12:07:56Z</time>
      </trkpt>
      <trkpt lat="47.84532" lon="6.92331">
        <ele>996</ele>
        <time>2014-07-15T12:07:57Z</time>
      </trkpt>
      <trkpt lat="47.84532" lon="6.92331">
        <ele>996</ele>
        <time>2014-07-15T12:07:58Z</time>
      </trkpt>
      <trkpt lat="47.84532" lon="6.92331">
        <ele>997</ele>
        <time>2014-07-15T12:07:59Z</time>
      </trkpt>
      <trkpt lat="47.84532" lon="6.92332">
        <ele>997</ele>
        <time>2014-07-15T12:08:00Z</time>
      </trkpt>
      <trkpt lat="47.84531" lon="6.92332">
        <ele>997</ele>
        <time>2014-07-15T12:08:01Z</time>
      </trkpt>
      <trkpt lat="47.84531" lon="6.92332">
        <ele>997</ele>
        <time>2014-07-15T12:08:02Z</time>
      </trkpt>
      <trkpt lat="47.84531" lon="6.92332">
        <ele>997</ele>
        <time>2014-07-15T12:08:03Z</time>
      </trkpt>
      <trkpt lat="47.84531" lon="6.92332">
        <ele>997</ele>
        <time>2014-07-15T12:08:04Z</time>
      </trkpt>
      <trkpt lat="47.84531" lon="6.92333">
        <ele>997</ele>
        <time>2014-07-15T12:08:05Z</time>
      </trkpt>
      <trkpt lat="47.84531" lon="6.92333">
        <ele>997</ele>
        <time>2014-07-15T12:08:06Z</time>
      </trkpt>
      <trkpt lat="47.84531" lon="6.92333">
        <ele>997</ele>
        <time>2014-07-15T12:08:07Z</time>
      </trkpt>
      <trkpt lat="47.84531" lon="6.92333">
        <ele>997</ele>
        <time>2014-07-15T12:08:08Z</time>
      </trkpt>
      <trkpt lat="47.84531" lon="6.92333">
        <ele>997</ele>
        <time>2014-07-15T12:08:09Z</time>
      </trkpt>
      <trkpt lat="47.84531" lon="6.92333">
        <ele>997</ele>
        <time>2014-07-15T12:08:10Z</time>
      </trkpt>
      <trkpt lat="47.84531" lon="6.92333">
        <ele>997</ele>
        <time>2014-07-15T12:08:11Z</time>
      </trkpt>
      <trkpt lat="47.84531" lon="6.92333">
        <ele>997</ele>
        <time>2014-07-15T12:08:12Z</time>
      </trkpt>
      <trkpt lat="47.84531" lon="6.92333">
        <ele>997</ele>
        <time>2014-07-15T12:08:13Z</time>
      </trkpt>
      <trkpt lat="47.84531" lon="6.92333">
        <ele>997</ele>
        <time>2014-07-15T12:08:14Z</time>
      </trkpt>
      <trkpt lat="47.84531" lon="6.92333">
        <ele>997</ele>
        <time>2014-07-15T12:08:16Z</time>
      </trkpt>
      <trkpt lat="47.84531" lon="6.92333">
        <ele>997</ele>
        <time>2014-07-15T12:08:17Z</time>
      </trkpt>
      <trkpt lat="47.84531" lon="6.92333">
        <ele>997</ele>
        <time>2014-07-15T12:08:18Z</time>
      </trkpt>
      <trkpt lat="47.84531" lon="6.92333">
        <ele>997</ele>
        <time>2014-07-15T12:08:19Z</time>
      </trkpt>
      <trkpt lat="47.84531" lon="6.92333">
        <ele>997</ele>
        <time>2014-07-15T12:08:20Z</time>
      </trkpt>
      <trkpt lat="47.84531" lon="6.92333">
        <ele>997</ele>
        <time>2014-07-15T12:08:21Z</time>
      </trkpt>
      <trkpt lat="47.84531" lon="6.92333">
        <ele>997</ele>
        <time>2014-07-15T12:08:22Z</time>
      </trkpt>
      <trkpt lat="47.84531" lon="6.92333">
        <ele>997</ele>
        <time>2014-07-15T12:08:23Z</time>
      </trkpt>
      <trkpt lat="47.84532" lon="6.92332">
        <ele>996</ele>
        <time>2014-07-15T12:08:24Z</time>
      </trkpt>
      <trkpt lat="47.84533" lon="6.92331">
        <ele>996</ele>
        <time>2014-07-15T12:08:25Z</time>
      </trkpt>
      <trkpt lat="47.84534" lon="6.92331">
        <ele>996</ele>
        <time>2014-07-15T12:08:26Z</time>
      </trkpt>
      <trkpt lat="47.84535" lon="6.9233">
        <ele>996</ele>
        <time>2014-07-15T12:08:27Z</time>
      </trkpt>
      <trkpt lat="47.84537" lon="6.9233">
        <ele>996</ele>
        <time>2014-07-15T12:08:29Z</time>
      </trkpt>
      <trkpt lat="47.84537" lon="6.9233">
        <ele>996</ele>
        <time>2014-07-15T12:08:30Z</time>
      </trkpt>
      <trkpt lat="47.84538" lon="6.92331">
        <ele>995</ele>
        <time>2014-07-15T12:08:31Z</time>
      </trkpt>
      <trkpt lat="47.8454" lon="6.92331">
        <ele>995</ele>
        <time>2014-07-15T12:08:32Z</time>
      </trkpt>
      <trkpt lat="47.84541" lon="6.92331">
        <ele>995</ele>
        <time>2014-07-15T12:08:33Z</time>
      </trkpt>
      <trkpt lat="47.84541" lon="6.92331">
        <ele>995</ele>
        <time>2014-07-15T12:08:34Z</time>
      </trkpt>
      <trkpt lat="47.84542" lon="6.92331">
        <ele>995</ele>
        <time>2014-07-15T12:08:35Z</time>
      </trkpt>
      <trkpt lat="47.84543" lon="6.92331">
        <ele>995</ele>
        <time>2014-07-15T12:08:36Z</time>
      </trkpt>
      <trkpt lat="47.84543" lon="6.92331">
        <ele>995</ele>
        <time>2014-07-15T12:08:37Z</time>
      </trkpt>
      <trkpt lat="47.84542" lon="6.92331">
        <ele>995</ele>
        <time>2014-07-15T12:08:38Z</time>
      </trkpt>
      <trkpt lat="47.84542" lon="6.92331">
        <ele>995</ele>
        <time>2014-07-15T12:08:39Z</time>
      </trkpt>
      <trkpt lat="47.84543" lon="6.92331">
        <ele>995</ele>
        <time>2014-07-15T12:08:40Z</time>
      </trkpt>
      <trkpt lat="47.84542" lon="6.92331">
        <ele>995</ele>
        <time>2014-07-15T12:08:41Z</time>
      </trkpt>
      <trkpt lat="47.84542" lon="6.92331">
        <ele>995</ele>
        <time>2014-07-15T12:08:43Z</time>
      </trkpt>
      <trkpt lat="47.84542" lon="6.9233">
        <ele>995</ele>
        <time>2014-07-15T12:08:44Z</time>
      </trkpt>
      <trkpt lat="47.84542" lon="6.9233">
        <ele>995</ele>
        <time>2014-07-15T12:08:45Z</time>
      </trkpt>
      <trkpt lat="47.84541" lon="6.9233">
        <ele>995</ele>
        <time>2014-07-15T12:08:46Z</time>
      </trkpt>
      <trkpt lat="47.84541" lon="6.92329">
        <ele>995</ele>
        <time>2014-07-15T12:08:47Z</time>
      </trkpt>
      <trkpt lat="47.84541" lon="6.92329">
        <ele>995</ele>
        <time>2014-07-15T12:08:48Z</time>
      </trkpt>
      <trkpt lat="47.84541" lon="6.92329">
        <ele>995</ele>
        <time>2014-07-15T12:08:49Z</time>
      </trkpt>
      <trkpt lat="47.84541" lon="6.92329">
        <ele>995</ele>
        <time>2014-07-15T12:08:50Z</time>
      </trkpt>
      <trkpt lat="47.84541" lon="6.92329">
        <ele>995</ele>
        <time>2014-07-15T12:08:51Z</time>
      </trkpt>
      <trkpt lat="47.84541" lon="6.92329">
        <ele>995</ele>
        <time>2014-07-15T12:08:52Z</time>
      </trkpt>
      <trkpt lat="47.84541" lon="6.92329">
        <ele>995</ele>
        <time>2014-07-15T12:08:53Z</time>
      </trkpt>
      <trkpt lat="47.84541" lon="6.92329">
        <ele>995</ele>
        <time>2014-07-15T12:08:54Z</time>
      </trkpt>
      <trkpt lat="47.84541" lon="6.92329">
        <ele>995</ele>
        <time>2014-07-15T12:08:55Z</time>
      </trkpt>
      <trkpt lat="47.84541" lon="6.92329">
        <ele>995</ele>
        <time>2014-07-15T12:08:56Z</time>
      </trkpt>
      <trkpt lat="47.84541" lon="6.92329">
        <ele>995</ele>
        <time>2014-07-15T12:08:57Z</time>
      </trkpt>
      <trkpt lat="47.84541" lon="6.92329">
        <ele>995</ele>
        <time>2014-07-15T12:08:58Z</time>
      </trkpt>
      <trkpt lat="47.84541" lon="6.92329">
        <ele>995</ele>
        <time>2014-07-15T12:08:59Z</time>
      </trkpt>
      <trkpt lat="47.84541" lon="6.92329">
        <ele>995</ele>
        <time>2014-07-15T12:09:00Z</time>
      </trkpt>
      <trkpt lat="47.84541" lon="6.92329">
        <ele>995</ele>
        <time>2014-07-15T12:09:01Z</time>
      </trkpt>
      <trkpt lat="47.84541" lon="6.92329">
        <ele>995</ele>
        <time>2014-07-15T12:09:02Z</time>
      </trkpt>
      <trkpt lat="47.84541" lon="6.92329">
        <ele>995</ele>
        <time>2014-07-15T12:09:03Z</time>
      </trkpt>
      <trkpt lat="47.84541" lon="6.92329">
        <ele>995</ele>
        <time>2014-07-15T12:09:04Z</time>
      </trkpt>
      <trkpt lat="47.84541" lon="6.92329">
        <ele>995</ele>
        <time>2014-07-15T12:09:05Z</time>
      </trkpt>
      <trkpt lat="47.84541" lon="6.92329">
        <ele>995</ele>
        <time>2014-07-15T12:09:06Z</time>
      </trkpt>
      <trkpt lat="47.84541" lon="6.92329">
        <ele>995</ele>
        <time>2014-07-15T12:09:07Z</time>
      </trkpt>
      <trkpt lat="47.84541" lon="6.92329">
        <ele>995</ele>
        <time>2014-07-15T12:09:08Z</time>
      </trkpt>
      <trkpt lat="47.84541" lon="6.92329">
        <ele>995</ele>
        <time>2014-07-15T12:09:09Z</time>
      </trkpt>
      <trkpt lat="47.84541" lon="6.92329">
        <ele>995</ele>
        <time>2014-07-15T12:09:10Z</time>
      </trkpt>
      <trkpt lat="47.84541" lon="6.92329">
        <ele>995</ele>
        <time>2014-07-15T12:09:11Z</time>
      </trkpt>
      <trkpt lat="47.84541" lon="6.92329">
        <ele>995</ele>
        <time>2014-07-15T12:09:12Z</time>
      </trkpt>
      <trkpt lat="47.84541" lon="6.92329">
        <ele>995</ele>
        <time>2014-07-15T12:09:14Z</time>
      </trkpt>
      <trkpt lat="47.84541" lon="6.92329">
        <ele>995</ele>
        <time>2014-07-15T12:09:15Z</time>
      </trkpt>
      <trkpt lat="47.84541" lon="6.92329">
        <ele>995</ele>
        <time>2014-07-15T12:09:16Z</time>
      </trkpt>
      <trkpt lat="47.84541" lon="6.92329">
        <ele>995</ele>
        <time>2014-07-15T12:09:18Z</time>
      </trkpt>
      <trkpt lat="47.84541" lon="6.92329">
        <ele>995</ele>
        <time>2014-07-15T12:09:19Z</time>
      </trkpt>
      <trkpt lat="47.84541" lon="6.92329">
        <ele>995</ele>
        <time>2014-07-15T12:09:20Z</time>
      </trkpt>
      <trkpt lat="47.84541" lon="6.92329">
        <ele>995</ele>
        <time>2014-07-15T12:09:21Z</time>
      </trkpt>
      <trkpt lat="47.84541" lon="6.92329">
        <ele>995</ele>
        <time>2014-07-15T12:09:22Z</time>
      </trkpt>
      <trkpt lat="47.84541" lon="6.92329">
        <ele>995</ele>
        <time>2014-07-15T12:09:23Z</time>
      </trkpt>
      <trkpt lat="47.84541" lon="6.92329">
        <ele>995</ele>
        <time>2014-07-15T12:09:24Z</time>
      </trkpt>
      <trkpt lat="47.84541" lon="6.92329">
        <ele>995</ele>
        <time>2014-07-15T12:09:25Z</time>
      </trkpt>
      <trkpt lat="47.84541" lon="6.92329">
        <ele>995</ele>
        <time>2014-07-15T12:09:26Z</time>
      </trkpt>
      <trkpt lat="47.84541" lon="6.92329">
        <ele>995</ele>
        <time>2014-07-15T12:09:27Z</time>
      </trkpt>
      <trkpt lat="47.84541" lon="6.92329">
        <ele>995</ele>
        <time>2014-07-15T12:09:29Z</time>
      </trkpt>
      <trkpt lat="47.84541" lon="6.92329">
        <ele>995</ele>
        <time>2014-07-15T12:09:30Z</time>
      </trkpt>
      <trkpt lat="47.84541" lon="6.92329">
        <ele>995</ele>
        <time>2014-07-15T12:09:31Z</time>
      </trkpt>
      <trkpt lat="47.84541" lon="6.92329">
        <ele>995</ele>
        <time>2014-07-15T12:09:32Z</time>
      </trkpt>
      <trkpt lat="47.84541" lon="6.92329">
        <ele>995</ele>
        <time>2014-07-15T12:09:33Z</time>
      </trkpt>
      <trkpt lat="47.84541" lon="6.92329">
        <ele>995</ele>
        <time>2014-07-15T12:09:34Z</time>
      </trkpt>
      <trkpt lat="47.84541" lon="6.92329">
        <ele>995</ele>
        <time>2014-07-15T12:09:35Z</time>
      </trkpt>
      <trkpt lat="47.84541" lon="6.92329">
        <ele>995</ele>
        <time>2014-07-15T12:09:36Z</time>
      </trkpt>
      <trkpt lat="47.84541" lon="6.92329">
        <ele>995</ele>
        <time>2014-07-15T12:09:37Z</time>
      </trkpt>
      <trkpt lat="47.84541" lon="6.92329">
        <ele>995</ele>
        <time>2014-07-15T12:09:38Z</time>
      </trkpt>
      <trkpt lat="47.84541" lon="6.92329">
        <ele>995</ele>
        <time>2014-07-15T12:09:39Z</time>
      </trkpt>
      <trkpt lat="47.84541" lon="6.92329">
        <ele>995</ele>
        <time>2014-07-15T12:09:40Z</time>
      </trkpt>
      <trkpt lat="47.84541" lon="6.92329">
        <ele>995</ele>
        <time>2014-07-15T12:09:41Z</time>
      </trkpt>
      <trkpt lat="47.84541" lon="6.92329">
        <ele>995</ele>
        <time>2014-07-15T12:09:42Z</time>
      </trkpt>
      <trkpt lat="47.84541" lon="6.92329">
        <ele>995</ele>
        <time>2014-07-15T12:09:43Z</time>
      </trkpt>
      <trkpt lat="47.84541" lon="6.92329">
        <ele>995</ele>
        <time>2014-07-15T12:09:44Z</time>
      </trkpt>
      <trkpt lat="47.84541" lon="6.92329">
        <ele>995</ele>
        <time>2014-07-15T12:09:45Z</time>
      </trkpt>
      <trkpt lat="47.84541" lon="6.92329">
        <ele>995</ele>
        <time>2014-07-15T12:09:46Z</time>
      </trkpt>
      <trkpt lat="47.84541" lon="6.92329">
        <ele>995</ele>
        <time>2014-07-15T12:09:47Z</time>
      </trkpt>
      <trkpt lat="47.84541" lon="6.92329">
        <ele>995</ele>
        <time>2014-07-15T12:09:48Z</time>
      </trkpt>
      <trkpt lat="47.84541" lon="6.92329">
        <ele>995</ele>
        <time>2014-07-15T12:09:49Z</time>
      </trkpt>
      <trkpt lat="47.84541" lon="6.92329">
        <ele>995</ele>
        <time>2014-07-15T12:09:50Z</time>
      </trkpt>
      <trkpt lat="47.84541" lon="6.92329">
        <ele>995</ele>
        <time>2014-07-15T12:09:51Z</time>
      </trkpt>
      <trkpt lat="47.84541" lon="6.92329">
        <ele>995</ele>
        <time>2014-07-15T12:09:52Z</time>
      </trkpt>
      <trkpt lat="47.84542" lon="6.92329">
        <ele>995</ele>
        <time>2014-07-15T12:09:53Z</time>
      </trkpt>
      <trkpt lat="47.84542" lon="6.92329">
        <ele>995</ele>
        <time>2014-07-15T12:09:54Z</time>
      </trkpt>
      <trkpt lat="47.84542" lon="6.92329">
        <ele>995</ele>
        <time>2014-07-15T12:09:55Z</time>
      </trkpt>
      <trkpt lat="47.84542" lon="6.92329">
        <ele>995</ele>
        <time>2014-07-15T12:09:56Z</time>
      </trkpt>
      <trkpt lat="47.84542" lon="6.92329">
        <ele>995</ele>
        <time>2014-07-15T12:09:57Z</time>
      </trkpt>
      <trkpt lat="47.84542" lon="6.92329">
        <ele>995</ele>
        <time>2014-07-15T12:09:58Z</time>
      </trkpt>
      <trkpt lat="47.84542" lon="6.92329">
        <ele>995</ele>
        <time>2014-07-15T12:09:59Z</time>
      </trkpt>
      <trkpt lat="47.84542" lon="6.92329">
        <ele>995</ele>
        <time>2014-07-15T12:10:00Z</time>
      </trkpt>
      <trkpt lat="47.84542" lon="6.92329">
        <ele>995</ele>
        <time>2014-07-15T12:10:01Z</time>
      </trkpt>
      <trkpt lat="47.84542" lon="6.92329">
        <ele>995</ele>
        <time>2014-07-15T12:10:02Z</time>
      </trkpt>
      <trkpt lat="47.84542" lon="6.92329">
        <ele>995</ele>
        <time>2014-07-15T12:10:03Z</time>
      </trkpt>
      <trkpt lat="47.84542" lon="6.92329">
        <ele>995</ele>
        <time>2014-07-15T12:10:04Z</time>
      </trkpt>
      <trkpt lat="47.84542" lon="6.92329">
        <ele>995</ele>
        <time>2014-07-15T12:10:05Z</time>
      </trkpt>
      <trkpt lat="47.84542" lon="6.92329">
        <ele>995</ele>
        <time>2014-07-15T12:10:06Z</time>
      </trkpt>
      <trkpt lat="47.84542" lon="6.92329">
        <ele>995</ele>
        <time>2014-07-15T12:10:07Z</time>
      </trkpt>
      <trkpt lat="47.84541" lon="6.92328">
        <ele>995</ele>
        <time>2014-07-15T12:10:08Z</time>
      </trkpt>
      <trkpt lat="47.84541" lon="6.92327">
        <ele>995</ele>
        <time>2014-07-15T12:10:09Z</time>
      </trkpt>
      <trkpt lat="47.84541" lon="6.92327">
        <ele>995</ele>
        <time>2014-07-15T12:10:10Z</time>
      </trkpt>
      <trkpt lat="47.84541" lon="6.92327">
        <ele>995</ele>
        <time>2014-07-15T12:10:11Z</time>
      </trkpt>
      <trkpt lat="47.84541" lon="6.92326">
        <ele>995</ele>
        <time>2014-07-15T12:10:12Z</time>
      </trkpt>
      <trkpt lat="47.84541" lon="6.92326">
        <ele>995</ele>
        <time>2014-07-15T12:10:13Z</time>
      </trkpt>
      <trkpt lat="47.84541" lon="6.92326">
        <ele>995</ele>
        <time>2014-07-15T12:10:14Z</time>
      </trkpt>
      <trkpt lat="47.84541" lon="6.92327">
        <ele>995</ele>
        <time>2014-07-15T12:10:15Z</time>
      </trkpt>
      <trkpt lat="47.84541" lon="6.92327">
        <ele>995</ele>
        <time>2014-07-15T12:10:16Z</time>
      </trkpt>
      <trkpt lat="47.84541" lon="6.92327">
        <ele>995</ele>
        <time>2014-07-15T12:10:17Z</time>
      </trkpt>
      <trkpt lat="47.84541" lon="6.92327">
        <ele>995</ele>
        <time>2014-07-15T12:10:18Z</time>
      </trkpt>
      <trkpt lat="47.84541" lon="6.92327">
        <ele>995</ele>
        <time>2014-07-15T12:10:19Z</time>
      </trkpt>
      <trkpt lat="47.84541" lon="6.92327">
        <ele>995</ele>
        <time>2014-07-15T12:10:20Z</time>
      </trkpt>
      <trkpt lat="47.84541" lon="6.92327">
        <ele>995</ele>
        <time>2014-07-15T12:10:21Z</time>
      </trkpt>
      <trkpt lat="47.84541" lon="6.92327">
        <ele>995</ele>
        <time>2014-07-15T12:10:22Z</time>
      </trkpt>
      <trkpt lat="47.84541" lon="6.92327">
        <ele>995</ele>
        <time>2014-07-15T12:10:23Z</time>
      </trkpt>
      <trkpt lat="47.84541" lon="6.92326">
        <ele>995</ele>
        <time>2014-07-15T12:10:24Z</time>
      </trkpt>
      <trkpt lat="47.8454" lon="6.92325">
        <ele>995</ele>
        <time>2014-07-15T12:10:25Z</time>
      </trkpt>
      <trkpt lat="47.8454" lon="6.92324">
        <ele>995</ele>
        <time>2014-07-15T12:10:26Z</time>
      </trkpt>
      <trkpt lat="47.84539" lon="6.92324">
        <ele>995</ele>
        <time>2014-07-15T12:10:27Z</time>
      </trkpt>
      <trkpt lat="47.84539" lon="6.92324">
        <ele>995</ele>
        <time>2014-07-15T12:10:28Z</time>
      </trkpt>
      <trkpt lat="47.84539" lon="6.92324">
        <ele>995</ele>
        <time>2014-07-15T12:10:29Z</time>
      </trkpt>
      <trkpt lat="47.84539" lon="6.92324">
        <ele>995</ele>
        <time>2014-07-15T12:10:30Z</time>
      </trkpt>
      <trkpt lat="47.84539" lon="6.92323">
        <ele>995</ele>
        <time>2014-07-15T12:10:31Z</time>
      </trkpt>
      <trkpt lat="47.84539" lon="6.92323">
        <ele>995</ele>
        <time>2014-07-15T12:10:32Z</time>
      </trkpt>
      <trkpt lat="47.84539" lon="6.92323">
        <ele>995</ele>
        <time>2014-07-15T12:10:33Z</time>
      </trkpt>
      <trkpt lat="47.8454" lon="6.92323">
        <ele>995</ele>
        <time>2014-07-15T12:10:34Z</time>
      </trkpt>
      <trkpt lat="47.8454" lon="6.92323">
        <ele>995</ele>
        <time>2014-07-15T12:10:35Z</time>
      </trkpt>
      <trkpt lat="47.8454" lon="6.92322">
        <ele>995</ele>
        <time>2014-07-15T12:10:36Z</time>
      </trkpt>
      <trkpt lat="47.8454" lon="6.92322">
        <ele>995</ele>
        <time>2014-07-15T12:10:37Z</time>
      </trkpt>
      <trkpt lat="47.8454" lon="6.92322">
        <ele>995</ele>
        <time>2014-07-15T12:10:38Z</time>
      </trkpt>
      <trkpt lat="47.8454" lon="6.92322">
        <ele>995</ele>
        <time>2014-07-15T12:10:39Z</time>
      </trkpt>
      <trkpt lat="47.8454" lon="6.92322">
        <ele>995</ele>
        <time>2014-07-15T12:10:40Z</time>
      </trkpt>
      <trkpt lat="47.84541" lon="6.92322">
        <ele>995</ele>
        <time>2014-07-15T12:10:41Z</time>
      </trkpt>
      <trkpt lat="47.84541" lon="6.92322">
        <ele>995</ele>
        <time>2014-07-15T12:10:42Z</time>
      </trkpt>
      <trkpt lat="47.84541" lon="6.92322">
        <ele>995</ele>
        <time>2014-07-15T12:10:43Z</time>
      </trkpt>
      <trkpt lat="47.84542" lon="6.92322">
        <ele>995</ele>
        <time>2014-07-15T12:10:44Z</time>
      </trkpt>
      <trkpt lat="47.84542" lon="6.92322">
        <ele>995</ele>
        <time>2014-07-15T12:10:45Z</time>
      </trkpt>
      <trkpt lat="47.84542" lon="6.92322">
        <ele>995</ele>
        <time>2014-07-15T12:10:46Z</time>
      </trkpt>
      <trkpt lat="47.84541" lon="6.92322">
        <ele>995</ele>
        <time>2014-07-15T12:10:47Z</time>
      </trkpt>
      <trkpt lat="47.84541" lon="6.92322">
        <ele>995</ele>
        <time>2014-07-15T12:10:48Z</time>
      </trkpt>
      <trkpt lat="47.8454" lon="6.92321">
        <ele>995</ele>
        <time>2014-07-15T12:10:49Z</time>
      </trkpt>
      <trkpt lat="47.8454" lon="6.92321">
        <ele>995</ele>
        <time>2014-07-15T12:10:50Z</time>
      </trkpt>
      <trkpt lat="47.84539" lon="6.9232">
        <ele>995</ele>
        <time>2014-07-15T12:10:51Z</time>
      </trkpt>
      <trkpt lat="47.84539" lon="6.9232">
        <ele>996</ele>
        <time>2014-07-15T12:10:52Z</time>
      </trkpt>
      <trkpt lat="47.84539" lon="6.9232">
        <ele>996</ele>
        <time>2014-07-15T12:10:53Z</time>
      </trkpt>
      <trkpt lat="47.84538" lon="6.9232">
        <ele>996</ele>
        <time>2014-07-15T12:10:55Z</time>
      </trkpt>
      <trkpt lat="47.84538" lon="6.9232">
        <ele>996</ele>
        <time>2014-07-15T12:10:56Z</time>
      </trkpt>
      <trkpt lat="47.84537" lon="6.9232">
        <ele>996</ele>
        <time>2014-07-15T12:10:57Z</time>
      </trkpt>
      <trkpt lat="47.84536" lon="6.92319">
        <ele>996</ele>
        <time>2014-07-15T12:10:58Z</time>
      </trkpt>
      <trkpt lat="47.84534" lon="6.92319">
        <ele>996</ele>
        <time>2014-07-15T12:10:59Z</time>
      </trkpt>
      <trkpt lat="47.84533" lon="6.92318">
        <ele>997</ele>
        <time>2014-07-15T12:11:00Z</time>
      </trkpt>
      <trkpt lat="47.84531" lon="6.92318">
        <ele>997</ele>
        <time>2014-07-15T12:11:01Z</time>
      </trkpt>
      <trkpt lat="47.8453" lon="6.92318">
        <ele>997</ele>
        <time>2014-07-15T12:11:02Z</time>
      </trkpt>
      <trkpt lat="47.84529" lon="6.92319">
        <ele>997</ele>
        <time>2014-07-15T12:11:03Z</time>
      </trkpt>
      <trkpt lat="47.84528" lon="6.9232">
        <ele>997</ele>
        <time>2014-07-15T12:11:04Z</time>
      </trkpt>
      <trkpt lat="47.84527" lon="6.92323">
        <ele>997</ele>
        <time>2014-07-15T12:11:09Z</time>
      </trkpt>
      <trkpt lat="47.84527" lon="6.92325">
        <ele>997</ele>
        <time>2014-07-15T12:11:10Z</time>
      </trkpt>
      <trkpt lat="47.84527" lon="6.92327">
        <ele>997</ele>
        <time>2014-07-15T12:11:11Z</time>
      </trkpt>
      <trkpt lat="47.84527" lon="6.92328">
        <ele>997</ele>
        <time>2014-07-15T12:11:12Z</time>
      </trkpt>
      <trkpt lat="47.84528" lon="6.9233">
        <ele>997</ele>
        <time>2014-07-15T12:11:13Z</time>
      </trkpt>
      <trkpt lat="47.84527" lon="6.92331">
        <ele>997</ele>
        <time>2014-07-15T12:11:14Z</time>
      </trkpt>
      <trkpt lat="47.84527" lon="6.92331">
        <ele>997</ele>
        <time>2014-07-15T12:11:15Z</time>
      </trkpt>
      <trkpt lat="47.84526" lon="6.92331">
        <ele>997</ele>
        <time>2014-07-15T12:11:16Z</time>
      </trkpt>
      <trkpt lat="47.84527" lon="6.92333">
        <ele>997</ele>
        <time>2014-07-15T12:11:17Z</time>
      </trkpt>
      <trkpt lat="47.84527" lon="6.92334">
        <ele>995</ele>
        <time>2014-07-15T12:11:18Z</time>
      </trkpt>
      <trkpt lat="47.84528" lon="6.92335">
        <ele>995</ele>
        <time>2014-07-15T12:11:19Z</time>
      </trkpt>
      <trkpt lat="47.84528" lon="6.92335">
        <ele>995</ele>
        <time>2014-07-15T12:11:20Z</time>
      </trkpt>
      <trkpt lat="47.84527" lon="6.92336">
        <ele>995</ele>
        <time>2014-07-15T12:11:21Z</time>
      </trkpt>
      <trkpt lat="47.84526" lon="6.92337">
        <ele>995</ele>
        <time>2014-07-15T12:11:22Z</time>
      </trkpt>
      <trkpt lat="47.84526" lon="6.92338">
        <ele>995</ele>
        <time>2014-07-15T12:11:23Z</time>
      </trkpt>
      <trkpt lat="47.84526" lon="6.92339">
        <ele>995</ele>
        <time>2014-07-15T12:11:24Z</time>
      </trkpt>
      <trkpt lat="47.84526" lon="6.92341">
        <ele>995</ele>
        <time>2014-07-15T12:11:25Z</time>
      </trkpt>
      <trkpt lat="47.84527" lon="6.92343">
        <ele>995</ele>
        <time>2014-07-15T12:11:26Z</time>
      </trkpt>
      <trkpt lat="47.84528" lon="6.92344">
        <ele>994</ele>
        <time>2014-07-15T12:11:27Z</time>
      </trkpt>
      <trkpt lat="47.84528" lon="6.92344">
        <ele>994</ele>
        <time>2014-07-15T12:11:28Z</time>
      </trkpt>
      <trkpt lat="47.84528" lon="6.92345">
        <ele>994</ele>
        <time>2014-07-15T12:11:29Z</time>
      </trkpt>
      <trkpt lat="47.84529" lon="6.92345">
        <ele>994</ele>
        <time>2014-07-15T12:11:30Z</time>
      </trkpt>
      <trkpt lat="47.8453" lon="6.92346">
        <ele>994</ele>
        <time>2014-07-15T12:11:31Z</time>
      </trkpt>
      <trkpt lat="47.84531" lon="6.92347">
        <ele>994</ele>
        <time>2014-07-15T12:11:32Z</time>
      </trkpt>
      <trkpt lat="47.84532" lon="6.92347">
        <ele>994</ele>
        <time>2014-07-15T12:11:33Z</time>
      </trkpt>
      <trkpt lat="47.84533" lon="6.92349">
        <ele>994</ele>
        <time>2014-07-15T12:11:34Z</time>
      </trkpt>
      <trkpt lat="47.84534" lon="6.92349">
        <ele>993</ele>
        <time>2014-07-15T12:11:35Z</time>
      </trkpt>
      <trkpt lat="47.84535" lon="6.9235">
        <ele>993</ele>
        <time>2014-07-15T12:11:36Z</time>
      </trkpt>
      <trkpt lat="47.84536" lon="6.9235">
        <ele>993</ele>
        <time>2014-07-15T12:11:37Z</time>
      </trkpt>
      <trkpt lat="47.84536" lon="6.92351">
        <ele>993</ele>
        <time>2014-07-15T12:11:38Z</time>
      </trkpt>
      <trkpt lat="47.84538" lon="6.92352">
        <ele>993</ele>
        <time>2014-07-15T12:11:40Z</time>
      </trkpt>
      <trkpt lat="47.84539" lon="6.92353">
        <ele>993</ele>
        <time>2014-07-15T12:11:41Z</time>
      </trkpt>
      <trkpt lat="47.84539" lon="6.92353">
        <ele>993</ele>
        <time>2014-07-15T12:11:42Z</time>
      </trkpt>
      <trkpt lat="47.8454" lon="6.92352">
        <ele>993</ele>
        <time>2014-07-15T12:11:43Z</time>
      </trkpt>
      <trkpt lat="47.8454" lon="6.92352">
        <ele>993</ele>
        <time>2014-07-15T12:11:44Z</time>
      </trkpt>
      <trkpt lat="47.84541" lon="6.92352">
        <ele>993</ele>
        <time>2014-07-15T12:11:45Z</time>
      </trkpt>
      <trkpt lat="47.84542" lon="6.92352">
        <ele>993</ele>
        <time>2014-07-15T12:11:46Z</time>
      </trkpt>
      <trkpt lat="47.84541" lon="6.92353">
        <ele>993</ele>
        <time>2014-07-15T12:11:47Z</time>
      </trkpt>
      <trkpt lat="47.84541" lon="6.92353">
        <ele>993</ele>
        <time>2014-07-15T12:11:48Z</time>
      </trkpt>
      <trkpt lat="47.84541" lon="6.92354">
        <ele>993</ele>
        <time>2014-07-15T12:11:49Z</time>
      </trkpt>
      <trkpt lat="47.84541" lon="6.92354">
        <ele>993</ele>
        <time>2014-07-15T12:11:50Z</time>
      </trkpt>
      <trkpt lat="47.8454" lon="6.92354">
        <ele>993</ele>
        <time>2014-07-15T12:11:51Z</time>
      </trkpt>
      <trkpt lat="47.8454" lon="6.92355">
        <ele>993</ele>
        <time>2014-07-15T12:11:52Z</time>
      </trkpt>
      <trkpt lat="47.8454" lon="6.92355">
        <ele>993</ele>
        <time>2014-07-15T12:11:53Z</time>
      </trkpt>
      <trkpt lat="47.84541" lon="6.92356">
        <ele>993</ele>
        <time>2014-07-15T12:11:54Z</time>
      </trkpt>
      <trkpt lat="47.84541" lon="6.92356">
        <ele>993</ele>
        <time>2014-07-15T12:11:55Z</time>
      </trkpt>
      <trkpt lat="47.84541" lon="6.92356">
        <ele>993</ele>
        <time>2014-07-15T12:11:56Z</time>
      </trkpt>
      <trkpt lat="47.84541" lon="6.92357">
        <ele>993</ele>
        <time>2014-07-15T12:11:57Z</time>
      </trkpt>
      <trkpt lat="47.84541" lon="6.92357">
        <ele>993</ele>
        <time>2014-07-15T12:11:58Z</time>
      </trkpt>
      <trkpt lat="47.84542" lon="6.92356">
        <ele>993</ele>
        <time>2014-07-15T12:11:59Z</time>
      </trkpt>
      <trkpt lat="47.84542" lon="6.92356">
        <ele>993</ele>
        <time>2014-07-15T12:12:00Z</time>
      </trkpt>
      <trkpt lat="47.84542" lon="6.92356">
        <ele>993</ele>
        <time>2014-07-15T12:12:01Z</time>
      </trkpt>
      <trkpt lat="47.84544" lon="6.92356">
        <ele>992</ele>
        <time>2014-07-15T12:12:02Z</time>
      </trkpt>
      <trkpt lat="47.84545" lon="6.92356">
        <ele>992</ele>
        <time>2014-07-15T12:12:03Z</time>
      </trkpt>
      <trkpt lat="47.84546" lon="6.92356">
        <ele>992</ele>
        <time>2014-07-15T12:12:04Z</time>
      </trkpt>
      <trkpt lat="47.84546" lon="6.92355">
        <ele>992</ele>
        <time>2014-07-15T12:12:05Z</time>
      </trkpt>
      <trkpt lat="47.84547" lon="6.92355">
        <ele>992</ele>
        <time>2014-07-15T12:12:06Z</time>
      </trkpt>
      <trkpt lat="47.84549" lon="6.92355">
        <ele>992</ele>
        <time>2014-07-15T12:12:08Z</time>
      </trkpt>
      <trkpt lat="47.8455" lon="6.92355">
        <ele>992</ele>
        <time>2014-07-15T12:12:09Z</time>
      </trkpt>
      <trkpt lat="47.84551" lon="6.92355">
        <ele>992</ele>
        <time>2014-07-15T12:12:10Z</time>
      </trkpt>
      <trkpt lat="47.84552" lon="6.92356">
        <ele>992</ele>
        <time>2014-07-15T12:12:11Z</time>
      </trkpt>
      <trkpt lat="47.84552" lon="6.92357">
        <ele>992</ele>
        <time>2014-07-15T12:12:12Z</time>
      </trkpt>
      <trkpt lat="47.84553" lon="6.92358">
        <ele>992</ele>
        <time>2014-07-15T12:12:13Z</time>
      </trkpt>
      <trkpt lat="47.84553" lon="6.92359">
        <ele>992</ele>
        <time>2014-07-15T12:12:14Z</time>
      </trkpt>
      <trkpt lat="47.84554" lon="6.9236">
        <ele>992</ele>
        <time>2014-07-15T12:12:15Z</time>
      </trkpt>
      <trkpt lat="47.84554" lon="6.92361">
        <ele>992</ele>
        <time>2014-07-15T12:12:16Z</time>
      </trkpt>
      <trkpt lat="47.84554" lon="6.92363">
        <ele>992</ele>
        <time>2014-07-15T12:12:17Z</time>
      </trkpt>
      <trkpt lat="47.84554" lon="6.92364">
        <ele>992</ele>
        <time>2014-07-15T12:12:18Z</time>
      </trkpt>
      <trkpt lat="47.84554" lon="6.92366">
        <ele>992</ele>
        <time>2014-07-15T12:12:19Z</time>
      </trkpt>
      <trkpt lat="47.84552" lon="6.92367">
        <ele>992</ele>
        <time>2014-07-15T12:12:20Z</time>
      </trkpt>
      <trkpt lat="47.84551" lon="6.92368">
        <ele>992</ele>
        <time>2014-07-15T12:12:21Z</time>
      </trkpt>
      <trkpt lat="47.8455" lon="6.92368">
        <ele>992</ele>
        <time>2014-07-15T12:12:22Z</time>
      </trkpt>
      <trkpt lat="47.84548" lon="6.92368">
        <ele>992</ele>
        <time>2014-07-15T12:12:23Z</time>
      </trkpt>
      <trkpt lat="47.84547" lon="6.92368">
        <ele>992</ele>
        <time>2014-07-15T12:12:24Z</time>
      </trkpt>
      <trkpt lat="47.84547" lon="6.92367">
        <ele>992</ele>
        <time>2014-07-15T12:12:25Z</time>
      </trkpt>
      <trkpt lat="47.84546" lon="6.92368">
        <ele>992</ele>
        <time>2014-07-15T12:12:26Z</time>
      </trkpt>
      <trkpt lat="47.84545" lon="6.92367">
        <ele>992</ele>
        <time>2014-07-15T12:12:28Z</time>
      </trkpt>
      <trkpt lat="47.84545" lon="6.92368">
        <ele>992</ele>
        <time>2014-07-15T12:12:29Z</time>
      </trkpt>
      <trkpt lat="47.84544" lon="6.92368">
        <ele>992</ele>
        <time>2014-07-15T12:12:30Z</time>
      </trkpt>
      <trkpt lat="47.84544" lon="6.92368">
        <ele>992</ele>
        <time>2014-07-15T12:12:31Z</time>
      </trkpt>
      <trkpt lat="47.84543" lon="6.92369">
        <ele>992</ele>
        <time>2014-07-15T12:12:32Z</time>
      </trkpt>
      <trkpt lat="47.84542" lon="6.92369">
        <ele>993</ele>
        <time>2014-07-15T12:12:33Z</time>
      </trkpt>
      <trkpt lat="47.84541" lon="6.9237">
        <ele>993</ele>
        <time>2014-07-15T12:12:34Z</time>
      </trkpt>
      <trkpt lat="47.8454" lon="6.92371">
        <ele>993</ele>
        <time>2014-07-15T12:12:35Z</time>
      </trkpt>
      <trkpt lat="47.84539" lon="6.92371">
        <ele>993</ele>
        <time>2014-07-15T12:12:36Z</time>
      </trkpt>
      <trkpt lat="47.84538" lon="6.92371">
        <ele>993</ele>
        <time>2014-07-15T12:12:37Z</time>
      </trkpt>
      <trkpt lat="47.84538" lon="6.9237">
        <ele>993</ele>
        <time>2014-07-15T12:12:38Z</time>
      </trkpt>
      <trkpt lat="47.84537" lon="6.92371">
        <ele>993</ele>
        <time>2014-07-15T12:12:39Z</time>
      </trkpt>
      <trkpt lat="47.84536" lon="6.92371">
        <ele>993</ele>
        <time>2014-07-15T12:12:40Z</time>
      </trkpt>
      <trkpt lat="47.84535" lon="6.92371">
        <ele>993</ele>
        <time>2014-07-15T12:12:41Z</time>
      </trkpt>
      <trkpt lat="47.84534" lon="6.92372">
        <ele>993</ele>
        <time>2014-07-15T12:12:42Z</time>
      </trkpt>
      <trkpt lat="47.84534" lon="6.92372">
        <ele>993</ele>
        <time>2014-07-15T12:12:43Z</time>
      </trkpt>
      <trkpt lat="47.84533" lon="6.92373">
        <ele>993</ele>
        <time>2014-07-15T12:12:44Z</time>
      </trkpt>
      <trkpt lat="47.84532" lon="6.92374">
        <ele>993</ele>
        <time>2014-07-15T12:12:45Z</time>
      </trkpt>
      <trkpt lat="47.8453" lon="6.92376">
        <ele>993</ele>
        <time>2014-07-15T12:12:46Z</time>
      </trkpt>
      <trkpt lat="47.84528" lon="6.92379">
        <ele>993</ele>
        <time>2014-07-15T12:12:48Z</time>
      </trkpt>
      <trkpt lat="47.84527" lon="6.92381">
        <ele>993</ele>
        <time>2014-07-15T12:12:49Z</time>
      </trkpt>
      <trkpt lat="47.84527" lon="6.92382">
        <ele>993</ele>
        <time>2014-07-15T12:12:50Z</time>
      </trkpt>
      <trkpt lat="47.84527" lon="6.92383">
        <ele>993</ele>
        <time>2014-07-15T12:12:51Z</time>
      </trkpt>
      <trkpt lat="47.84526" lon="6.92383">
        <ele>993</ele>
        <time>2014-07-15T12:12:52Z</time>
      </trkpt>
      <trkpt lat="47.84526" lon="6.92384">
        <ele>993</ele>
        <time>2014-07-15T12:12:54Z</time>
      </trkpt>
      <trkpt lat="47.84525" lon="6.92384">
        <ele>992</ele>
        <time>2014-07-15T12:12:55Z</time>
      </trkpt>
      <trkpt lat="47.84525" lon="6.92385">
        <ele>992</ele>
        <time>2014-07-15T12:12:56Z</time>
      </trkpt>
      <trkpt lat="47.84525" lon="6.92386">
        <ele>992</ele>
        <time>2014-07-15T12:12:57Z</time>
      </trkpt>
      <trkpt lat="47.84525" lon="6.92386">
        <ele>992</ele>
        <time>2014-07-15T12:12:58Z</time>
      </trkpt>
      <trkpt lat="47.84525" lon="6.92386">
        <ele>992</ele>
        <time>2014-07-15T12:12:59Z</time>
      </trkpt>
      <trkpt lat="47.84524" lon="6.92386">
        <ele>992</ele>
        <time>2014-07-15T12:13:00Z</time>
      </trkpt>
      <trkpt lat="47.84524" lon="6.92386">
        <ele>992</ele>
        <time>2014-07-15T12:13:01Z</time>
      </trkpt>
      <trkpt lat="47.84524" lon="6.92386">
        <ele>992</ele>
        <time>2014-07-15T12:13:02Z</time>
      </trkpt>
      <trkpt lat="47.84524" lon="6.92386">
        <ele>992</ele>
        <time>2014-07-15T12:13:03Z</time>
      </trkpt>
      <trkpt lat="47.84522" lon="6.92387">
        <ele>992</ele>
        <time>2014-07-15T12:13:04Z</time>
      </trkpt>
      <trkpt lat="47.84521" lon="6.92387">
        <ele>992</ele>
        <time>2014-07-15T12:13:05Z</time>
      </trkpt>
      <trkpt lat="47.84517" lon="6.92388">
        <ele>992</ele>
        <time>2014-07-15T12:13:07Z</time>
      </trkpt>
      <trkpt lat="47.84516" lon="6.92388">
        <ele>992</ele>
        <time>2014-07-15T12:13:08Z</time>
      </trkpt>
      <trkpt lat="47.84515" lon="6.92387">
        <ele>992</ele>
        <time>2014-07-15T12:13:09Z</time>
      </trkpt>
      <trkpt lat="47.84514" lon="6.92386">
        <ele>992</ele>
        <time>2014-07-15T12:13:10Z</time>
      </trkpt>
      <trkpt lat="47.84513" lon="6.92386">
        <ele>992</ele>
        <time>2014-07-15T12:13:11Z</time>
      </trkpt>
      <trkpt lat="47.84511" lon="6.92387">
        <ele>992</ele>
        <time>2014-07-15T12:13:12Z</time>
      </trkpt>
      <trkpt lat="47.8451" lon="6.92388">
        <ele>992</ele>
        <time>2014-07-15T12:13:13Z</time>
      </trkpt>
      <trkpt lat="47.84508" lon="6.92389">
        <ele>992</ele>
        <time>2014-07-15T12:13:14Z</time>
      </trkpt>
      <trkpt lat="47.84507" lon="6.92389">
        <ele>992</ele>
        <time>2014-07-15T12:13:15Z</time>
      </trkpt>
      <trkpt lat="47.84505" lon="6.9239">
        <ele>992</ele>
        <time>2014-07-15T12:13:16Z</time>
      </trkpt>
      <trkpt lat="47.84503" lon="6.92391">
        <ele>992</ele>
        <time>2014-07-15T12:13:17Z</time>
      </trkpt>
      <trkpt lat="47.84501" lon="6.92392">
        <ele>992</ele>
        <time>2014-07-15T12:13:18Z</time>
      </trkpt>
      <trkpt lat="47.84497" lon="6.92394">
        <ele>996</ele>
        <time>2014-07-15T12:13:20Z</time>
      </trkpt>
      <trkpt lat="47.84495" lon="6.92395">
        <ele>996</ele>
        <time>2014-07-15T12:13:21Z</time>
      </trkpt>
      <trkpt lat="47.84494" lon="6.92394">
        <ele>996</ele>
        <time>2014-07-15T12:13:22Z</time>
      </trkpt>
      <trkpt lat="47.84494" lon="6.92394">
        <ele>996</ele>
        <time>2014-07-15T12:13:23Z</time>
      </trkpt>
      <trkpt lat="47.84493" lon="6.92394">
        <ele>996</ele>
        <time>2014-07-15T12:13:24Z</time>
      </trkpt>
      <trkpt lat="47.84493" lon="6.92394">
        <ele>996</ele>
        <time>2014-07-15T12:13:25Z</time>
      </trkpt>
      <trkpt lat="47.84492" lon="6.92394">
        <ele>996</ele>
        <time>2014-07-15T12:13:26Z</time>
      </trkpt>
      <trkpt lat="47.84491" lon="6.92394">
        <ele>996</ele>
        <time>2014-07-15T12:13:27Z</time>
      </trkpt>
      <trkpt lat="47.84491" lon="6.92394">
        <ele>996</ele>
        <time>2014-07-15T12:13:28Z</time>
      </trkpt>
      <trkpt lat="47.8449" lon="6.92394">
        <ele>996</ele>
        <time>2014-07-15T12:13:29Z</time>
      </trkpt>
      <trkpt lat="47.84489" lon="6.92394">
        <ele>996</ele>
        <time>2014-07-15T12:13:30Z</time>
      </trkpt>
      <trkpt lat="47.84489" lon="6.92394">
        <ele>996</ele>
        <time>2014-07-15T12:13:31Z</time>
      </trkpt>
      <trkpt lat="47.84488" lon="6.92394">
        <ele>996</ele>
        <time>2014-07-15T12:13:32Z</time>
      </trkpt>
      <trkpt lat="47.84488" lon="6.92395">
        <ele>996</ele>
        <time>2014-07-15T12:13:33Z</time>
      </trkpt>
      <trkpt lat="47.84488" lon="6.92395">
        <ele>996</ele>
        <time>2014-07-15T12:13:34Z</time>
      </trkpt>
      <trkpt lat="47.84487" lon="6.92395">
        <ele>996</ele>
        <time>2014-07-15T12:13:35Z</time>
      </trkpt>
      <trkpt lat="47.84486" lon="6.92395">
        <ele>996</ele>
        <time>2014-07-15T12:13:36Z</time>
      </trkpt>
      <trkpt lat="47.84485" lon="6.92394">
        <ele>997</ele>
        <time>2014-07-15T12:13:37Z</time>
      </trkpt>
      <trkpt lat="47.84484" lon="6.92393">
        <ele>997</ele>
        <time>2014-07-15T12:13:38Z</time>
      </trkpt>
      <trkpt lat="47.84483" lon="6.92393">
        <ele>997</ele>
        <time>2014-07-15T12:13:39Z</time>
      </trkpt>
      <trkpt lat="47.84482" lon="6.92392">
        <ele>997</ele>
        <time>2014-07-15T12:13:40Z</time>
      </trkpt>
      <trkpt lat="47.84481" lon="6.92391">
        <ele>997</ele>
        <time>2014-07-15T12:13:41Z</time>
      </trkpt>
      <trkpt lat="47.84479" lon="6.9239">
        <ele>998</ele>
        <time>2014-07-15T12:13:42Z</time>
      </trkpt>
      <trkpt lat="47.84473" lon="6.92391">
        <ele>998</ele>
        <time>2014-07-15T12:13:44Z</time>
      </trkpt>
      <trkpt lat="47.84473" lon="6.92391">
        <ele>998</ele>
        <time>2014-07-15T12:13:45Z</time>
      </trkpt>
      <trkpt lat="47.84472" lon="6.92391">
        <ele>998</ele>
        <time>2014-07-15T12:13:46Z</time>
      </trkpt>
      <trkpt lat="47.84471" lon="6.92392">
        <ele>998</ele>
        <time>2014-07-15T12:13:47Z</time>
      </trkpt>
      <trkpt lat="47.84471" lon="6.92393">
        <ele>998</ele>
        <time>2014-07-15T12:13:48Z</time>
      </trkpt>
      <trkpt lat="47.8447" lon="6.92393">
        <ele>998</ele>
        <time>2014-07-15T12:13:49Z</time>
      </trkpt>
      <trkpt lat="47.8447" lon="6.92394">
        <ele>998</ele>
        <time>2014-07-15T12:13:50Z</time>
      </trkpt>
      <trkpt lat="47.84469" lon="6.92394">
        <ele>998</ele>
        <time>2014-07-15T12:13:51Z</time>
      </trkpt>
      <trkpt lat="47.84469" lon="6.92394">
        <ele>998</ele>
        <time>2014-07-15T12:13:52Z</time>
      </trkpt>
      <trkpt lat="47.84468" lon="6.92393">
        <ele>998</ele>
        <time>2014-07-15T12:13:53Z</time>
      </trkpt>
      <trkpt lat="47.84468" lon="6.92392">
        <ele>998</ele>
        <time>2014-07-15T12:13:54Z</time>
      </trkpt>
      <trkpt lat="47.84468" lon="6.92391">
        <ele>998</ele>
        <time>2014-07-15T12:13:55Z</time>
      </trkpt>
      <trkpt lat="47.84467" lon="6.9239">
        <ele>999</ele>
        <time>2014-07-15T12:13:56Z</time>
      </trkpt>
      <trkpt lat="47.84466" lon="6.9239">
        <ele>999</ele>
        <time>2014-07-15T12:13:57Z</time>
      </trkpt>
      <trkpt lat="47.84465" lon="6.92389">
        <ele>999</ele>
        <time>2014-07-15T12:13:58Z</time>
      </trkpt>
      <trkpt lat="47.84463" lon="6.92389">
        <ele>999</ele>
        <time>2014-07-15T12:13:59Z</time>
      </trkpt>
      <trkpt lat="47.84462" lon="6.92389">
        <ele>999</ele>
        <time>2014-07-15T12:14:00Z</time>
      </trkpt>
      <trkpt lat="47.8446" lon="6.92389">
        <ele>999</ele>
        <time>2014-07-15T12:14:01Z</time>
      </trkpt>
      <trkpt lat="47.84457" lon="6.92389">
        <ele>999</ele>
        <time>2014-07-15T12:14:03Z</time>
      </trkpt>
      <trkpt lat="47.84456" lon="6.92389">
        <ele>1000</ele>
        <time>2014-07-15T12:14:04Z</time>
      </trkpt>
      <trkpt lat="47.84455" lon="6.92389">
        <ele>1000</ele>
        <time>2014-07-15T12:14:06Z</time>
      </trkpt>
      <trkpt lat="47.84454" lon="6.9239">
        <ele>1000</ele>
        <time>2014-07-15T12:14:07Z</time>
      </trkpt>
      <trkpt lat="47.84454" lon="6.9239">
        <ele>1000</ele>
        <time>2014-07-15T12:14:08Z</time>
      </trkpt>
      <trkpt lat="47.84453" lon="6.9239">
        <ele>1000</ele>
        <time>2014-07-15T12:14:09Z</time>
      </trkpt>
      <trkpt lat="47.84453" lon="6.9239">
        <ele>1000</ele>
        <time>2014-07-15T12:14:10Z</time>
      </trkpt>
      <trkpt lat="47.84452" lon="6.92389">
        <ele>1000</ele>
        <time>2014-07-15T12:14:11Z</time>
      </trkpt>
      <trkpt lat="47.84452" lon="6.92389">
        <ele>1000</ele>
        <time>2014-07-15T12:14:12Z</time>
      </trkpt>
      <trkpt lat="47.84452" lon="6.92389">
        <ele>1000</ele>
        <time>2014-07-15T12:14:13Z</time>
      </trkpt>
      <trkpt lat="47.84452" lon="6.92389">
        <ele>1000</ele>
        <time>2014-07-15T12:14:14Z</time>
      </trkpt>
      <trkpt lat="47.84452" lon="6.92389">
        <ele>1000</ele>
        <time>2014-07-15T12:14:15Z</time>
      </trkpt>
      <trkpt lat="47.84452" lon="6.92389">
        <ele>1000</ele>
        <time>2014-07-15T12:14:16Z</time>
      </trkpt>
      <trkpt lat="47.84452" lon="6.92389">
        <ele>1000</ele>
        <time>2014-07-15T12:14:18Z</time>
      </trkpt>
      <trkpt lat="47.84452" lon="6.92389">
        <ele>1000</ele>
        <time>2014-07-15T12:14:19Z</time>
      </trkpt>
      <trkpt lat="47.84452" lon="6.92389">
        <ele>1000</ele>
        <time>2014-07-15T12:14:20Z</time>
      </trkpt>
      <trkpt lat="47.84452" lon="6.92389">
        <ele>1000</ele>
        <time>2014-07-15T12:14:21Z</time>
      </trkpt>
      <trkpt lat="47.84452" lon="6.92389">
        <ele>1000</ele>
        <time>2014-07-15T12:14:23Z</time>
      </trkpt>
      <trkpt lat="47.84452" lon="6.92389">
        <ele>1000</ele>
        <time>2014-07-15T12:14:24Z</time>
      </trkpt>
      <trkpt lat="47.84452" lon="6.92389">
        <ele>1000</ele>
        <time>2014-07-15T12:14:25Z</time>
      </trkpt>
      <trkpt lat="47.84451" lon="6.92389">
        <ele>1000</ele>
        <time>2014-07-15T12:14:26Z</time>
      </trkpt>
      <trkpt lat="47.8445" lon="6.92389">
        <ele>1000</ele>
        <time>2014-07-15T12:14:27Z</time>
      </trkpt>
      <trkpt lat="47.84448" lon="6.92388">
        <ele>1000</ele>
        <time>2014-07-15T12:14:28Z</time>
      </trkpt>
      <trkpt lat="47.84446" lon="6.92387">
        <ele>1000</ele>
        <time>2014-07-15T12:14:29Z</time>
      </trkpt>
      <trkpt lat="47.84445" lon="6.92386">
        <ele>1000</ele>
        <time>2014-07-15T12:14:30Z</time>
      </trkpt>
      <trkpt lat="47.84444" lon="6.92384">
        <ele>1001</ele>
        <time>2014-07-15T12:14:31Z</time>
      </trkpt>
      <trkpt lat="47.84442" lon="6.92384">
        <ele>1001</ele>
        <time>2014-07-15T12:14:32Z</time>
      </trkpt>
      <trkpt lat="47.84441" lon="6.92383">
        <ele>1001</ele>
        <time>2014-07-15T12:14:33Z</time>
      </trkpt>
      <trkpt lat="47.84439" lon="6.92383">
        <ele>1001</ele>
        <time>2014-07-15T12:14:34Z</time>
      </trkpt>
      <trkpt lat="47.84438" lon="6.92383">
        <ele>1001</ele>
        <time>2014-07-15T12:14:35Z</time>
      </trkpt>
      <trkpt lat="47.84437" lon="6.92383">
        <ele>1001</ele>
        <time>2014-07-15T12:14:36Z</time>
      </trkpt>
      <trkpt lat="47.84434" lon="6.92382">
        <ele>1001</ele>
        <time>2014-07-15T12:14:38Z</time>
      </trkpt>
      <trkpt lat="47.84433" lon="6.92383">
        <ele>1001</ele>
        <time>2014-07-15T12:14:39Z</time>
      </trkpt>
      <trkpt lat="47.84431" lon="6.92383">
        <ele>1001</ele>
        <time>2014-07-15T12:14:40Z</time>
      </trkpt>
      <trkpt lat="47.8443" lon="6.92383">
        <ele>1001</ele>
        <time>2014-07-15T12:14:41Z</time>
      </trkpt>
      <trkpt lat="47.84428" lon="6.92383">
        <ele>1001</ele>
        <time>2014-07-15T12:14:42Z</time>
      </trkpt>
      <trkpt lat="47.84427" lon="6.92383">
        <ele>1001</ele>
        <time>2014-07-15T12:14:43Z</time>
      </trkpt>
      <trkpt lat="47.84425" lon="6.92382">
        <ele>1002</ele>
        <time>2014-07-15T12:14:44Z</time>
      </trkpt>
      <trkpt lat="47.84424" lon="6.92381">
        <ele>1002</ele>
        <time>2014-07-15T12:14:45Z</time>
      </trkpt>
      <trkpt lat="47.84422" lon="6.9238">
        <ele>1002</ele>
        <time>2014-07-15T12:14:46Z</time>
      </trkpt>
      <trkpt lat="47.84421" lon="6.92379">
        <ele>1002</ele>
        <time>2014-07-15T12:14:47Z</time>
      </trkpt>
      <trkpt lat="47.8442" lon="6.92378">
        <ele>1003</ele>
        <time>2014-07-15T12:14:48Z</time>
      </trkpt>
      <trkpt lat="47.84419" lon="6.92374">
        <ele>1004</ele>
        <time>2014-07-15T12:14:50Z</time>
      </trkpt>
      <trkpt lat="47.84419" lon="6.92373">
        <ele>1004</ele>
        <time>2014-07-15T12:14:51Z</time>
      </trkpt>
      <trkpt lat="47.84418" lon="6.92371">
        <ele>1005</ele>
        <time>2014-07-15T12:14:52Z</time>
      </trkpt>
      <trkpt lat="47.84416" lon="6.9237">
        <ele>1013</ele>
        <time>2014-07-15T12:14:53Z</time>
      </trkpt>
      <trkpt lat="47.84415" lon="6.92369">
        <ele>1014</ele>
        <time>2014-07-15T12:14:54Z</time>
      </trkpt>
      <trkpt lat="47.84414" lon="6.92368">
        <ele>1014</ele>
        <time>2014-07-15T12:14:55Z</time>
      </trkpt>
      <trkpt lat="47.84413" lon="6.92367">
        <ele>1014</ele>
        <time>2014-07-15T12:14:56Z</time>
      </trkpt>
      <trkpt lat="47.84413" lon="6.92365">
        <ele>1014</ele>
        <time>2014-07-15T12:14:57Z</time>
      </trkpt>
      <trkpt lat="47.84411" lon="6.92365">
        <ele>1014</ele>
        <time>2014-07-15T12:14:58Z</time>
      </trkpt>
      <trkpt lat="47.84409" lon="6.92365">
        <ele>1015</ele>
        <time>2014-07-15T12:14:59Z</time>
      </trkpt>
      <trkpt lat="47.84408" lon="6.92365">
        <ele>1015</ele>
        <time>2014-07-15T12:15:00Z</time>
      </trkpt>
      <trkpt lat="47.84407" lon="6.92365">
        <ele>1015</ele>
        <time>2014-07-15T12:15:01Z</time>
      </trkpt>
      <trkpt lat="47.84407" lon="6.92364">
        <ele>1015</ele>
        <time>2014-07-15T12:15:02Z</time>
      </trkpt>
      <trkpt lat="47.84407" lon="6.92364">
        <ele>1015</ele>
        <time>2014-07-15T12:15:03Z</time>
      </trkpt>
      <trkpt lat="47.84407" lon="6.92365">
        <ele>1015</ele>
        <time>2014-07-15T12:15:04Z</time>
      </trkpt>
      <trkpt lat="47.84407" lon="6.92364">
        <ele>1015</ele>
        <time>2014-07-15T12:15:05Z</time>
      </trkpt>
      <trkpt lat="47.84407" lon="6.92364">
        <ele>1015</ele>
        <time>2014-07-15T12:15:06Z</time>
      </trkpt>
      <trkpt lat="47.84406" lon="6.92365">
        <ele>1015</ele>
        <time>2014-07-15T12:15:07Z</time>
      </trkpt>
      <trkpt lat="47.84405" lon="6.92364">
        <ele>1015</ele>
        <time>2014-07-15T12:15:08Z</time>
      </trkpt>
      <trkpt lat="47.84405" lon="6.92363">
        <ele>1015</ele>
        <time>2014-07-15T12:15:09Z</time>
      </trkpt>
      <trkpt lat="47.84405" lon="6.92363">
        <ele>1015</ele>
        <time>2014-07-15T12:15:10Z</time>
      </trkpt>
      <trkpt lat="47.84405" lon="6.92362">
        <ele>1015</ele>
        <time>2014-07-15T12:15:11Z</time>
      </trkpt>
      <trkpt lat="47.84404" lon="6.92363">
        <ele>1015</ele>
        <time>2014-07-15T12:15:12Z</time>
      </trkpt>
      <trkpt lat="47.84404" lon="6.92363">
        <ele>1015</ele>
        <time>2014-07-15T12:15:13Z</time>
      </trkpt>
      <trkpt lat="47.84404" lon="6.92363">
        <ele>1015</ele>
        <time>2014-07-15T12:15:14Z</time>
      </trkpt>
      <trkpt lat="47.84404" lon="6.92363">
        <ele>1015</ele>
        <time>2014-07-15T12:15:15Z</time>
      </trkpt>
      <trkpt lat="47.84404" lon="6.92363">
        <ele>1015</ele>
        <time>2014-07-15T12:15:16Z</time>
      </trkpt>
      <trkpt lat="47.84404" lon="6.92363">
        <ele>1015</ele>
        <time>2014-07-15T12:15:17Z</time>
      </trkpt>
      <trkpt lat="47.84403" lon="6.92363">
        <ele>1015</ele>
        <time>2014-07-15T12:15:18Z</time>
      </trkpt>
      <trkpt lat="47.84403" lon="6.92363">
        <ele>1015</ele>
        <time>2014-07-15T12:15:19Z</time>
      </trkpt>
      <trkpt lat="47.84403" lon="6.92363">
        <ele>1015</ele>
        <time>2014-07-15T12:15:20Z</time>
      </trkpt>
      <trkpt lat="47.84403" lon="6.92363">
        <ele>1015</ele>
        <time>2014-07-15T12:15:22Z</time>
      </trkpt>
      <trkpt lat="47.84403" lon="6.92363">
        <ele>1015</ele>
        <time>2014-07-15T12:15:23Z</time>
      </trkpt>
      <trkpt lat="47.84403" lon="6.92363">
        <ele>1015</ele>
        <time>2014-07-15T12:15:24Z</time>
      </trkpt>
      <trkpt lat="47.84403" lon="6.92363">
        <ele>1015</ele>
        <time>2014-07-15T12:15:25Z</time>
      </trkpt>
      <trkpt lat="47.84403" lon="6.92363">
        <ele>1015</ele>
        <time>2014-07-15T12:15:26Z</time>
      </trkpt>
      <trkpt lat="47.84403" lon="6.92363">
        <ele>1015</ele>
        <time>2014-07-15T12:15:27Z</time>
      </trkpt>
      <trkpt lat="47.84403" lon="6.92363">
        <ele>1015</ele>
        <time>2014-07-15T12:15:28Z</time>
      </trkpt>
      <trkpt lat="47.84403" lon="6.92363">
        <ele>1015</ele>
        <time>2014-07-15T12:15:29Z</time>
      </trkpt>
      <trkpt lat="47.84403" lon="6.92363">
        <ele>1015</ele>
        <time>2014-07-15T12:15:30Z</time>
      </trkpt>
      <trkpt lat="47.84403" lon="6.92363">
        <ele>1015</ele>
        <time>2014-07-15T12:15:31Z</time>
      </trkpt>
      <trkpt lat="47.84403" lon="6.92363">
        <ele>1015</ele>
        <time>2014-07-15T12:15:32Z</time>
      </trkpt>
      <trkpt lat="47.84403" lon="6.92363">
        <ele>1015</ele>
        <time>2014-07-15T12:15:33Z</time>
      </trkpt>
      <trkpt lat="47.84398" lon="6.92362">
        <ele>1016</ele>
        <time>2014-07-15T12:15:48Z</time>
      </trkpt>
      <trkpt lat="47.84388" lon="6.92365">
        <ele>1016</ele>
        <time>2014-07-15T12:16:00Z</time>
      </trkpt>
      <trkpt lat="47.84373" lon="6.92371">
        <ele>1015</ele>
        <time>2014-07-15T12:16:10Z</time>
      </trkpt>
      <trkpt lat="47.84368" lon="6.92371">
        <ele>1016</ele>
        <time>2014-07-15T12:17:11Z</time>
      </trkpt>
      <trkpt lat="47.84365" lon="6.92371">
        <ele>1016</ele>
        <time>2014-07-15T12:17:13Z</time>
      </trkpt>
      <trkpt lat="47.84358" lon="6.92371">
        <ele>1017</ele>
        <time>2014-07-15T12:17:28Z</time>
      </trkpt>
      <trkpt lat="47.84351" lon="6.92376">
        <ele>1016</ele>
        <time>2014-07-15T12:17:55Z</time>
      </trkpt>
      <trkpt lat="47.84337" lon="6.92368">
        <ele>1019</ele>
        <time>2014-07-15T12:18:05Z</time>
      </trkpt>
      <trkpt lat="47.84326" lon="6.92369">
        <ele>1021</ele>
        <time>2014-07-15T12:18:14Z</time>
      </trkpt>
      <trkpt lat="47.8432" lon="6.9237">
        <ele>1021</ele>
        <time>2014-07-15T12:18:28Z</time>
      </trkpt>
      <trkpt lat="47.8431" lon="6.92371">
        <ele>1020</ele>
        <time>2014-07-15T12:18:38Z</time>
      </trkpt>
      <trkpt lat="47.84307" lon="6.92371">
        <ele>1019</ele>
        <time>2014-07-15T12:18:42Z</time>
      </trkpt>
      <trkpt lat="47.84301" lon="6.92376">
        <ele>1018</ele>
        <time>2014-07-15T12:18:54Z</time>
      </trkpt>
      <trkpt lat="47.84291" lon="6.92377">
        <ele>1017</ele>
        <time>2014-07-15T12:19:04Z</time>
      </trkpt>
      <trkpt lat="47.84288" lon="6.92378">
        <ele>1017</ele>
        <time>2014-07-15T12:19:15Z</time>
      </trkpt>
      <trkpt lat="47.84287" lon="6.92373">
        <ele>1018</ele>
        <time>2014-07-15T12:19:27Z</time>
      </trkpt>
      <trkpt lat="47.8428" lon="6.92364">
        <ele>1020</ele>
        <time>2014-07-15T12:19:37Z</time>
      </trkpt>
      <trkpt lat="47.84265" lon="6.9236">
        <ele>1022</ele>
        <time>2014-07-15T12:19:49Z</time>
      </trkpt>
      <trkpt lat="47.8426" lon="6.92363">
        <ele>1021</ele>
        <time>2014-07-15T12:19:56Z</time>
      </trkpt>
      <trkpt lat="47.84243" lon="6.92361">
        <ele>1009</ele>
        <time>2014-07-15T12:20:12Z</time>
      </trkpt>
      <trkpt lat="47.8424" lon="6.9236">
        <ele>1009</ele>
        <time>2014-07-15T12:20:17Z</time>
      </trkpt>
      <trkpt lat="47.84234" lon="6.9235">
        <ele>1013</ele>
        <time>2014-07-15T12:20:27Z</time>
      </trkpt>
      <trkpt lat="47.84232" lon="6.92352">
        <ele>1011</ele>
        <time>2014-07-15T12:20:41Z</time>
      </trkpt>
      <trkpt lat="47.84228" lon="6.92351">
        <ele>1009</ele>
        <time>2014-07-15T12:21:09Z</time>
      </trkpt>
      <trkpt lat="47.84225" lon="6.92351">
        <ele>1008</ele>
        <time>2014-07-15T12:21:12Z</time>
      </trkpt>
      <trkpt lat="47.84217" lon="6.92356">
        <ele>1004</ele>
        <time>2014-07-15T12:21:15Z</time>
      </trkpt>
      <trkpt lat="47.8422" lon="6.92355">
        <ele>1005</ele>
        <time>2014-07-15T12:21:25Z</time>
      </trkpt>
      <trkpt lat="47.84218" lon="6.92353">
        <ele>1005</ele>
        <time>2014-07-15T12:23:50Z</time>
      </trkpt>
      <trkpt lat="47.84216" lon="6.92348">
        <ele>1005</ele>
        <time>2014-07-15T12:25:10Z</time>
      </trkpt>
      <trkpt lat="47.84206" lon="6.92335">
        <ele>1004</ele>
        <time>2014-07-15T12:25:21Z</time>
      </trkpt>
      <trkpt lat="47.84205" lon="6.92332">
        <ele>1028</ele>
        <time>2014-07-15T12:25:36Z</time>
      </trkpt>
      <trkpt lat="47.84199" lon="6.92313">
        <ele>1029</ele>
        <time>2014-07-15T12:25:48Z</time>
      </trkpt>
      <trkpt lat="47.84196" lon="6.92302">
        <ele>1030</ele>
        <time>2014-07-15T12:25:59Z</time>
      </trkpt>
      <trkpt lat="47.84194" lon="6.92299">
        <ele>1031</ele>
        <time>2014-07-15T12:26:16Z</time>
      </trkpt>
      <trkpt lat="47.84184" lon="6.92275">
        <ele>1033</ele>
        <time>2014-07-15T12:26:27Z</time>
      </trkpt>
      <trkpt lat="47.84182" lon="6.92271">
        <ele>1033</ele>
        <time>2014-07-15T12:26:29Z</time>
      </trkpt>
      <trkpt lat="47.84178" lon="6.92253">
        <ele>1031</ele>
        <time>2014-07-15T12:26:42Z</time>
      </trkpt>
      <trkpt lat="47.84176" lon="6.92249">
        <ele>1039</ele>
        <time>2014-07-15T12:27:00Z</time>
      </trkpt>
      <trkpt lat="47.8417" lon="6.92227">
        <ele>1047</ele>
        <time>2014-07-15T12:27:11Z</time>
      </trkpt>
      <trkpt lat="47.8417" lon="6.92222">
        <ele>1050</ele>
        <time>2014-07-15T12:27:13Z</time>
      </trkpt>
      <trkpt lat="47.84169" lon="6.92194">
        <ele>1054</ele>
        <time>2014-07-15T12:27:23Z</time>
      </trkpt>
      <trkpt lat="47.84165" lon="6.92182">
        <ele>1032</ele>
        <time>2014-07-15T12:27:27Z</time>
      </trkpt>
      <trkpt lat="47.84161" lon="6.92171">
        <ele>1038</ele>
        <time>2014-07-15T12:27:30Z</time>
      </trkpt>
      <trkpt lat="47.84159" lon="6.92161">
        <ele>1041</ele>
        <time>2014-07-15T12:27:34Z</time>
      </trkpt>
      <trkpt lat="47.84159" lon="6.92155">
        <ele>1040</ele>
        <time>2014-07-15T12:27:36Z</time>
      </trkpt>
      <trkpt lat="47.84159" lon="6.92149">
        <ele>1038</ele>
        <time>2014-07-15T12:27:38Z</time>
      </trkpt>
      <trkpt lat="47.84161" lon="6.92138">
        <ele>1037</ele>
        <time>2014-07-15T12:27:44Z</time>
      </trkpt>
      <trkpt lat="47.84161" lon="6.92128">
        <ele>1037</ele>
        <time>2014-07-15T12:27:54Z</time>
      </trkpt>
      <trkpt lat="47.84161" lon="6.921">
        <ele>1044</ele>
        <time>2014-07-15T12:28:04Z</time>
      </trkpt>
      <trkpt lat="47.84161" lon="6.92075">
        <ele>1053</ele>
        <time>2014-07-15T12:28:12Z</time>
      </trkpt>
      <trkpt lat="47.8416" lon="6.92065">
        <ele>1050</ele>
        <time>2014-07-15T12:28:17Z</time>
      </trkpt>
      <trkpt lat="47.84159" lon="6.92056">
        <ele>1049</ele>
        <time>2014-07-15T12:28:33Z</time>
      </trkpt>
      <trkpt lat="47.84164" lon="6.92023">
        <ele>1052</ele>
        <time>2014-07-15T12:28:43Z</time>
      </trkpt>
      <trkpt lat="47.84168" lon="6.91998">
        <ele>1066</ele>
        <time>2014-07-15T12:28:53Z</time>
      </trkpt>
      <trkpt lat="47.84168" lon="6.91989">
        <ele>1070</ele>
        <time>2014-07-15T12:28:56Z</time>
      </trkpt>
      <trkpt lat="47.84167" lon="6.91979">
        <ele>1073</ele>
        <time>2014-07-15T12:29:01Z</time>
      </trkpt>
      <trkpt lat="47.84166" lon="6.91975">
        <ele>1059</ele>
        <time>2014-07-15T12:29:04Z</time>
      </trkpt>
      <trkpt lat="47.84167" lon="6.91967">
        <ele>1075</ele>
        <time>2014-07-15T12:29:15Z</time>
      </trkpt>
      <trkpt lat="47.84174" lon="6.91947">
        <ele>1076</ele>
        <time>2014-07-15T12:29:27Z</time>
      </trkpt>
      <trkpt lat="47.84178" lon="6.91935">
        <ele>1075</ele>
        <time>2014-07-15T12:29:40Z</time>
      </trkpt>
      <trkpt lat="47.84186" lon="6.91915">
        <ele>1077</ele>
        <time>2014-07-15T12:29:51Z</time>
      </trkpt>
      <trkpt lat="47.84187" lon="6.91895">
        <ele>1080</ele>
        <time>2014-07-15T12:30:02Z</time>
      </trkpt>
      <trkpt lat="47.84185" lon="6.9189">
        <ele>1080</ele>
        <time>2014-07-15T12:30:05Z</time>
      </trkpt>
      <trkpt lat="47.84181" lon="6.91874">
        <ele>1081</ele>
        <time>2014-07-15T12:30:16Z</time>
      </trkpt>
      <trkpt lat="47.84174" lon="6.91859">
        <ele>1082</ele>
        <time>2014-07-15T12:30:26Z</time>
      </trkpt>
      <trkpt lat="47.8417" lon="6.91852">
        <ele>1082</ele>
        <time>2014-07-15T12:30:47Z</time>
      </trkpt>
      <trkpt lat="47.8416" lon="6.9184">
        <ele>1077</ele>
        <time>2014-07-15T12:30:58Z</time>
      </trkpt>
      <trkpt lat="47.8415" lon="6.91829">
        <ele>1080</ele>
        <time>2014-07-15T12:31:09Z</time>
      </trkpt>
      <trkpt lat="47.84131" lon="6.91827">
        <ele>1078</ele>
        <time>2014-07-15T12:31:20Z</time>
      </trkpt>
      <trkpt lat="47.84125" lon="6.9182">
        <ele>1078</ele>
        <time>2014-07-15T12:31:24Z</time>
      </trkpt>
      <trkpt lat="47.84118" lon="6.91807">
        <ele>1078</ele>
        <time>2014-07-15T12:31:31Z</time>
      </trkpt>
      <trkpt lat="47.84114" lon="6.91801">
        <ele>1078</ele>
        <time>2014-07-15T12:31:48Z</time>
      </trkpt>
      <trkpt lat="47.84112" lon="6.91797">
        <ele>1078</ele>
        <time>2014-07-15T12:31:52Z</time>
      </trkpt>
      <trkpt lat="47.8411" lon="6.91794">
        <ele>1078</ele>
        <time>2014-07-15T12:31:56Z</time>
      </trkpt>
      <trkpt lat="47.84107" lon="6.91792">
        <ele>1078</ele>
        <time>2014-07-15T12:31:59Z</time>
      </trkpt>
      <trkpt lat="47.84111" lon="6.91793">
        <ele>1078</ele>
        <time>2014-07-15T12:32:19Z</time>
      </trkpt>
      <trkpt lat="47.84114" lon="6.91794">
        <ele>1078</ele>
        <time>2014-07-15T12:32:22Z</time>
      </trkpt>
      <trkpt lat="47.841" lon="6.91772">
        <ele>1078</ele>
        <time>2014-07-15T14:36:29Z</time>
      </trkpt>
      <trkpt lat="47.84094" lon="6.91763">
        <ele>1078</ele>
        <time>2014-07-15T14:36:38Z</time>
      </trkpt>
      <trkpt lat="47.84092" lon="6.9176">
        <ele>1078</ele>
        <time>2014-07-15T14:36:40Z</time>
      </trkpt>
      <trkpt lat="47.84082" lon="6.91742">
        <ele>1077</ele>
        <time>2014-07-15T14:36:51Z</time>
      </trkpt>
      <trkpt lat="47.84073" lon="6.91723">
        <ele>1077</ele>
        <time>2014-07-15T14:37:03Z</time>
      </trkpt>
      <trkpt lat="47.8407" lon="6.91719">
        <ele>1077</ele>
        <time>2014-07-15T14:37:06Z</time>
      </trkpt>
      <trkpt lat="47.84061" lon="6.91704">
        <ele>1077</ele>
        <time>2014-07-15T14:37:17Z</time>
      </trkpt>
      <trkpt lat="47.84058" lon="6.917">
        <ele>1078</ele>
        <time>2014-07-15T14:37:20Z</time>
      </trkpt>
      <trkpt lat="47.84049" lon="6.91684">
        <ele>1078</ele>
        <time>2014-07-15T14:37:32Z</time>
      </trkpt>
      <trkpt lat="47.8404" lon="6.91668">
        <ele>1078</ele>
        <time>2014-07-15T14:37:43Z</time>
      </trkpt>
      <trkpt lat="47.84033" lon="6.91651">
        <ele>1081</ele>
        <time>2014-07-15T14:37:53Z</time>
      </trkpt>
      <trkpt lat="47.84025" lon="6.91634">
        <ele>1081</ele>
        <time>2014-07-15T14:38:05Z</time>
      </trkpt>
      <trkpt lat="47.84021" lon="6.91626">
        <ele>1081</ele>
        <time>2014-07-15T14:38:20Z</time>
      </trkpt>
      <trkpt lat="47.84013" lon="6.91607">
        <ele>1081</ele>
        <time>2014-07-15T14:38:32Z</time>
      </trkpt>
      <trkpt lat="47.84006" lon="6.91591">
        <ele>1082</ele>
        <time>2014-07-15T14:38:42Z</time>
      </trkpt>
      <trkpt lat="47.84" lon="6.91573">
        <ele>1082</ele>
        <time>2014-07-15T14:38:52Z</time>
      </trkpt>
      <trkpt lat="47.83993" lon="6.91553">
        <ele>1086</ele>
        <time>2014-07-15T14:39:03Z</time>
      </trkpt>
      <trkpt lat="47.83989" lon="6.91544">
        <ele>1086</ele>
        <time>2014-07-15T14:39:08Z</time>
      </trkpt>
      <trkpt lat="47.83982" lon="6.91526">
        <ele>1086</ele>
        <time>2014-07-15T14:39:19Z</time>
      </trkpt>
      <trkpt lat="47.83975" lon="6.91508">
        <ele>1086</ele>
        <time>2014-07-15T14:39:31Z</time>
      </trkpt>
      <trkpt lat="47.83973" lon="6.91504">
        <ele>1087</ele>
        <time>2014-07-15T14:39:39Z</time>
      </trkpt>
      <trkpt lat="47.83969" lon="6.91496">
        <ele>1084</ele>
        <time>2014-07-15T14:39:45Z</time>
      </trkpt>
      <trkpt lat="47.83965" lon="6.91484">
        <ele>1084</ele>
        <time>2014-07-15T14:39:58Z</time>
      </trkpt>
      <trkpt lat="47.83958" lon="6.91469">
        <ele>1084</ele>
        <time>2014-07-15T14:40:12Z</time>
      </trkpt>
      <trkpt lat="47.83957" lon="6.91465">
        <ele>1084</ele>
        <time>2014-07-15T14:40:16Z</time>
      </trkpt>
      <trkpt lat="47.83944" lon="6.91457">
        <ele>1084</ele>
        <time>2014-07-15T14:40:29Z</time>
      </trkpt>
      <trkpt lat="47.83941" lon="6.91456">
        <ele>1084</ele>
        <time>2014-07-15T14:40:32Z</time>
      </trkpt>
      <trkpt lat="47.83934" lon="6.91454">
        <ele>1084</ele>
        <time>2014-07-15T14:40:42Z</time>
      </trkpt>
      <trkpt lat="47.83931" lon="6.91455">
        <ele>1085</ele>
        <time>2014-07-15T14:40:45Z</time>
      </trkpt>
      <trkpt lat="47.83922" lon="6.91444">
        <ele>1084</ele>
        <time>2014-07-15T14:40:57Z</time>
      </trkpt>
      <trkpt lat="47.83913" lon="6.91436">
        <ele>1088</ele>
        <time>2014-07-15T14:41:08Z</time>
      </trkpt>
      <trkpt lat="47.83904" lon="6.91424">
        <ele>1087</ele>
        <time>2014-07-15T14:41:21Z</time>
      </trkpt>
      <trkpt lat="47.83894" lon="6.91415">
        <ele>1082</ele>
        <time>2014-07-15T14:41:33Z</time>
      </trkpt>
      <trkpt lat="47.83884" lon="6.91405">
        <ele>1083</ele>
        <time>2014-07-15T14:41:42Z</time>
      </trkpt>
      <trkpt lat="47.83878" lon="6.91394">
        <ele>1083</ele>
        <time>2014-07-15T14:41:55Z</time>
      </trkpt>
      <trkpt lat="47.83868" lon="6.9138">
        <ele>1082</ele>
        <time>2014-07-15T14:42:05Z</time>
      </trkpt>
      <trkpt lat="47.83866" lon="6.91377">
        <ele>1082</ele>
        <time>2014-07-15T14:42:07Z</time>
      </trkpt>
      <trkpt lat="47.83852" lon="6.91365">
        <ele>1082</ele>
        <time>2014-07-15T14:42:17Z</time>
      </trkpt>
      <trkpt lat="47.83842" lon="6.91357">
        <ele>1081</ele>
        <time>2014-07-15T14:42:26Z</time>
      </trkpt>
      <trkpt lat="47.83833" lon="6.9135">
        <ele>1081</ele>
        <time>2014-07-15T14:42:36Z</time>
      </trkpt>
      <trkpt lat="47.83819" lon="6.9134">
        <ele>1084</ele>
        <time>2014-07-15T14:42:48Z</time>
      </trkpt>
      <trkpt lat="47.83808" lon="6.91325">
        <ele>1074</ele>
        <time>2014-07-15T14:43:00Z</time>
      </trkpt>
      <trkpt lat="47.83802" lon="6.91321">
        <ele>1074</ele>
        <time>2014-07-15T14:43:06Z</time>
      </trkpt>
      <trkpt lat="47.83796" lon="6.91321">
        <ele>1074</ele>
        <time>2014-07-15T14:43:18Z</time>
      </trkpt>
      <trkpt lat="47.83785" lon="6.91309">
        <ele>1073</ele>
        <time>2014-07-15T14:43:29Z</time>
      </trkpt>
      <trkpt lat="47.83771" lon="6.91297">
        <ele>1072</ele>
        <time>2014-07-15T14:43:41Z</time>
      </trkpt>
      <trkpt lat="47.83763" lon="6.91289">
        <ele>1070</ele>
        <time>2014-07-15T14:43:52Z</time>
      </trkpt>
      <trkpt lat="47.83747" lon="6.91279">
        <ele>1065</ele>
        <time>2014-07-15T14:44:04Z</time>
      </trkpt>
      <trkpt lat="47.83744" lon="6.91277">
        <ele>1065</ele>
        <time>2014-07-15T14:44:06Z</time>
      </trkpt>
      <trkpt lat="47.8374" lon="6.91276">
        <ele>1065</ele>
        <time>2014-07-15T14:44:08Z</time>
      </trkpt>
      <trkpt lat="47.83734" lon="6.91273">
        <ele>1064</ele>
        <time>2014-07-15T14:44:13Z</time>
      </trkpt>
      <trkpt lat="47.83729" lon="6.91271">
        <ele>1064</ele>
        <time>2014-07-15T14:44:32Z</time>
      </trkpt>
      <trkpt lat="47.83717" lon="6.91274">
        <ele>1064</ele>
        <time>2014-07-15T14:44:44Z</time>
      </trkpt>
      <trkpt lat="47.83715" lon="6.91277">
        <ele>1065</ele>
        <time>2014-07-15T14:44:55Z</time>
      </trkpt>
      <trkpt lat="47.83703" lon="6.91287">
        <ele>1066</ele>
        <time>2014-07-15T14:45:06Z</time>
      </trkpt>
      <trkpt lat="47.83695" lon="6.91297">
        <ele>1067</ele>
        <time>2014-07-15T14:45:16Z</time>
      </trkpt>
      <trkpt lat="47.83678" lon="6.91313">
        <ele>1071</ele>
        <time>2014-07-15T14:45:27Z</time>
      </trkpt>
      <trkpt lat="47.83674" lon="6.91316">
        <ele>1072</ele>
        <time>2014-07-15T14:45:29Z</time>
      </trkpt>
      <trkpt lat="47.83668" lon="6.91322">
        <ele>1074</ele>
        <time>2014-07-15T14:45:44Z</time>
      </trkpt>
      <trkpt lat="47.83657" lon="6.91327">
        <ele>1068</ele>
        <time>2014-07-15T14:45:54Z</time>
      </trkpt>
      <trkpt lat="47.83645" lon="6.9134">
        <ele>1074</ele>
        <time>2014-07-15T14:45:58Z</time>
      </trkpt>
      <trkpt lat="47.83641" lon="6.91345">
        <ele>1073</ele>
        <time>2014-07-15T14:46:00Z</time>
      </trkpt>
      <trkpt lat="47.83634" lon="6.91351">
        <ele>1072</ele>
        <time>2014-07-15T14:46:03Z</time>
      </trkpt>
      <trkpt lat="47.83626" lon="6.91356">
        <ele>1071</ele>
        <time>2014-07-15T14:46:13Z</time>
      </trkpt>
      <trkpt lat="47.83621" lon="6.91355">
        <ele>1070</ele>
        <time>2014-07-15T14:46:17Z</time>
      </trkpt>
      <trkpt lat="47.83615" lon="6.91347">
        <ele>1067</ele>
        <time>2014-07-15T14:46:28Z</time>
      </trkpt>
      <trkpt lat="47.83609" lon="6.91346">
        <ele>1065</ele>
        <time>2014-07-15T14:46:37Z</time>
      </trkpt>
      <trkpt lat="47.83607" lon="6.91338">
        <ele>1063</ele>
        <time>2014-07-15T14:47:03Z</time>
      </trkpt>
      <trkpt lat="47.83608" lon="6.91329">
        <ele>1051</ele>
        <time>2014-07-15T14:47:08Z</time>
      </trkpt>
      <trkpt lat="47.83605" lon="6.91324">
        <ele>1051</ele>
        <time>2014-07-15T14:47:32Z</time>
      </trkpt>
      <trkpt lat="47.83595" lon="6.91331">
        <ele>1049</ele>
        <time>2014-07-15T14:47:42Z</time>
      </trkpt>
      <trkpt lat="47.8359" lon="6.91329">
        <ele>1049</ele>
        <time>2014-07-15T14:47:56Z</time>
      </trkpt>
      <trkpt lat="47.83593" lon="6.91312">
        <ele>1049</ele>
        <time>2014-07-15T14:48:08Z</time>
      </trkpt>
      <trkpt lat="47.83585" lon="6.9131">
        <ele>1048</ele>
        <time>2014-07-15T14:48:22Z</time>
      </trkpt>
      <trkpt lat="47.83581" lon="6.91304">
        <ele>1029</ele>
        <time>2014-07-15T14:48:32Z</time>
      </trkpt>
      <trkpt lat="47.83584" lon="6.91285">
        <ele>1044</ele>
        <time>2014-07-15T14:48:44Z</time>
      </trkpt>
      <trkpt lat="47.83578" lon="6.91278">
        <ele>1024</ele>
        <time>2014-07-15T14:48:55Z</time>
      </trkpt>
      <trkpt lat="47.83572" lon="6.91286">
        <ele>1024</ele>
        <time>2014-07-15T14:48:59Z</time>
      </trkpt>
      <trkpt lat="47.83568" lon="6.91293">
        <ele>1025</ele>
        <time>2014-07-15T14:49:04Z</time>
      </trkpt>
      <trkpt lat="47.83564" lon="6.91298">
        <ele>1025</ele>
        <time>2014-07-15T14:49:26Z</time>
      </trkpt>
      <trkpt lat="47.83558" lon="6.91302">
        <ele>1025</ele>
        <time>2014-07-15T14:49:32Z</time>
      </trkpt>
      <trkpt lat="47.83557" lon="6.91292">
        <ele>1023</ele>
        <time>2014-07-15T14:49:42Z</time>
      </trkpt>
      <trkpt lat="47.83555" lon="6.91273">
        <ele>1020</ele>
        <time>2014-07-15T14:49:52Z</time>
      </trkpt>
      <trkpt lat="47.83558" lon="6.91259">
        <ele>1020</ele>
        <time>2014-07-15T14:49:59Z</time>
      </trkpt>
      <trkpt lat="47.8356" lon="6.91256">
        <ele>1021</ele>
        <time>2014-07-15T14:50:37Z</time>
      </trkpt>
      <trkpt lat="47.83566" lon="6.9124">
        <ele>1007</ele>
        <time>2014-07-15T14:50:47Z</time>
      </trkpt>
      <trkpt lat="47.83572" lon="6.91233">
        <ele>1007</ele>
        <time>2014-07-15T14:50:52Z</time>
      </trkpt>
      <trkpt lat="47.83574" lon="6.91223">
        <ele>1002</ele>
        <time>2014-07-15T14:51:10Z</time>
      </trkpt>
      <trkpt lat="47.83573" lon="6.91227">
        <ele>1004</ele>
        <time>2014-07-15T14:51:14Z</time>
      </trkpt>
      <trkpt lat="47.83565" lon="6.91232">
        <ele>1004</ele>
        <time>2014-07-15T14:51:24Z</time>
      </trkpt>
      <trkpt lat="47.83552" lon="6.91243">
        <ele>1000</ele>
        <time>2014-07-15T14:51:35Z</time>
      </trkpt>
      <trkpt lat="47.83544" lon="6.91245">
        <ele>998</ele>
        <time>2014-07-15T14:51:41Z</time>
      </trkpt>
      <trkpt lat="47.83538" lon="6.91245">
        <ele>996</ele>
        <time>2014-07-15T14:51:46Z</time>
      </trkpt>
      <trkpt lat="47.83537" lon="6.91248">
        <ele>995</ele>
        <time>2014-07-15T14:51:54Z</time>
      </trkpt>
      <trkpt lat="47.83534" lon="6.91249">
        <ele>994</ele>
        <time>2014-07-15T14:52:36Z</time>
      </trkpt>
      <trkpt lat="47.8353" lon="6.91262">
        <ele>1012</ele>
        <time>2014-07-15T14:52:53Z</time>
      </trkpt>
      <trkpt lat="47.83522" lon="6.91265">
        <ele>1009</ele>
        <time>2014-07-15T14:53:22Z</time>
      </trkpt>
      <trkpt lat="47.83519" lon="6.91267">
        <ele>1008</ele>
        <time>2014-07-15T14:53:24Z</time>
      </trkpt>
      <trkpt lat="47.8351" lon="6.91261">
        <ele>1002</ele>
        <time>2014-07-15T14:53:37Z</time>
      </trkpt>
      <trkpt lat="47.83506" lon="6.91244">
        <ele>989</ele>
        <time>2014-07-15T14:53:50Z</time>
      </trkpt>
      <trkpt lat="47.83505" lon="6.91225">
        <ele>987</ele>
        <time>2014-07-15T14:54:01Z</time>
      </trkpt>
      <trkpt lat="47.83509" lon="6.91209">
        <ele>984</ele>
        <time>2014-07-15T14:54:12Z</time>
      </trkpt>
      <trkpt lat="47.83514" lon="6.91195">
        <ele>980</ele>
        <time>2014-07-15T14:54:22Z</time>
      </trkpt>
      <trkpt lat="47.83517" lon="6.91186">
        <ele>978</ele>
        <time>2014-07-15T14:54:28Z</time>
      </trkpt>
      <trkpt lat="47.83515" lon="6.91183">
        <ele>976</ele>
        <time>2014-07-15T14:54:56Z</time>
      </trkpt>
      <trkpt lat="47.83508" lon="6.91186">
        <ele>974</ele>
        <time>2014-07-15T14:55:02Z</time>
      </trkpt>
      <trkpt lat="47.835" lon="6.912">
        <ele>980</ele>
        <time>2014-07-15T14:55:15Z</time>
      </trkpt>
      <trkpt lat="47.83487" lon="6.91206">
        <ele>956</ele>
        <time>2014-07-15T14:55:25Z</time>
      </trkpt>
      <trkpt lat="47.83484" lon="6.91207">
        <ele>956</ele>
        <time>2014-07-15T14:55:42Z</time>
      </trkpt>
      <trkpt lat="47.83473" lon="6.91218">
        <ele>956</ele>
        <time>2014-07-15T14:55:52Z</time>
      </trkpt>
      <trkpt lat="47.83468" lon="6.91222">
        <ele>956</ele>
        <time>2014-07-15T14:55:58Z</time>
      </trkpt>
      <trkpt lat="47.8346" lon="6.91225">
        <ele>953</ele>
        <time>2014-07-15T14:56:10Z</time>
      </trkpt>
      <trkpt lat="47.83455" lon="6.91212">
        <ele>950</ele>
        <time>2014-07-15T14:56:21Z</time>
      </trkpt>
      <trkpt lat="47.83454" lon="6.91203">
        <ele>948</ele>
        <time>2014-07-15T14:56:25Z</time>
      </trkpt>
      <trkpt lat="47.83459" lon="6.91184">
        <ele>946</ele>
        <time>2014-07-15T14:56:37Z</time>
      </trkpt>
      <trkpt lat="47.83466" lon="6.91169">
        <ele>947</ele>
        <time>2014-07-15T14:56:49Z</time>
      </trkpt>
      <trkpt lat="47.83469" lon="6.91162">
        <ele>932</ele>
        <time>2014-07-15T14:57:00Z</time>
      </trkpt>
      <trkpt lat="47.83474" lon="6.91147">
        <ele>932</ele>
        <time>2014-07-15T14:57:10Z</time>
      </trkpt>
      <trkpt lat="47.83483" lon="6.91128">
        <ele>930</ele>
        <time>2014-07-15T14:57:20Z</time>
      </trkpt>
      <trkpt lat="47.83489" lon="6.91119">
        <ele>929</ele>
        <time>2014-07-15T14:57:27Z</time>
      </trkpt>
      <trkpt lat="47.83495" lon="6.91103">
        <ele>927</ele>
        <time>2014-07-15T14:57:39Z</time>
      </trkpt>
      <trkpt lat="47.83502" lon="6.91087">
        <ele>932</ele>
        <time>2014-07-15T14:57:50Z</time>
      </trkpt>
      <trkpt lat="47.83503" lon="6.91073">
        <ele>928</ele>
        <time>2014-07-15T14:58:02Z</time>
      </trkpt>
      <trkpt lat="47.83505" lon="6.91065">
        <ele>928</ele>
        <time>2014-07-15T14:58:14Z</time>
      </trkpt>
      <trkpt lat="47.8351" lon="6.91053">
        <ele>926</ele>
        <time>2014-07-15T14:58:28Z</time>
      </trkpt>
      <trkpt lat="47.83512" lon="6.91056">
        <ele>927</ele>
        <time>2014-07-15T14:58:31Z</time>
      </trkpt>
      <trkpt lat="47.83507" lon="6.91057">
        <ele>927</ele>
        <time>2014-07-15T14:58:44Z</time>
      </trkpt>
      <trkpt lat="47.83502" lon="6.91052">
        <ele>926</ele>
        <time>2014-07-15T14:58:54Z</time>
      </trkpt>
      <trkpt lat="47.83501" lon="6.91046">
        <ele>924</ele>
        <time>2014-07-15T14:59:00Z</time>
      </trkpt>
      <trkpt lat="47.83506" lon="6.9103">
        <ele>921</ele>
        <time>2014-07-15T14:59:13Z</time>
      </trkpt>
      <trkpt lat="47.83514" lon="6.91029">
        <ele>921</ele>
        <time>2014-07-15T14:59:23Z</time>
      </trkpt>
      <trkpt lat="47.83523" lon="6.91019">
        <ele>921</ele>
        <time>2014-07-15T14:59:34Z</time>
      </trkpt>
      <trkpt lat="47.83528" lon="6.91005">
        <ele>920</ele>
        <time>2014-07-15T14:59:46Z</time>
      </trkpt>
      <trkpt lat="47.83534" lon="6.90993">
        <ele>906</ele>
        <time>2014-07-15T14:59:57Z</time>
      </trkpt>
      <trkpt lat="47.8353" lon="6.90989">
        <ele>905</ele>
        <time>2014-07-15T15:00:08Z</time>
      </trkpt>
      <trkpt lat="47.83527" lon="6.90988">
        <ele>905</ele>
        <time>2014-07-15T15:00:13Z</time>
      </trkpt>
      <trkpt lat="47.83521" lon="6.90987">
        <ele>904</ele>
        <time>2014-07-15T15:00:20Z</time>
      </trkpt>
      <trkpt lat="47.83519" lon="6.90992">
        <ele>904</ele>
        <time>2014-07-15T15:00:24Z</time>
      </trkpt>
      <trkpt lat="47.83515" lon="6.90997">
        <ele>903</ele>
        <time>2014-07-15T15:00:35Z</time>
      </trkpt>
      <trkpt lat="47.83511" lon="6.90995">
        <ele>903</ele>
        <time>2014-07-15T15:00:49Z</time>
      </trkpt>
      <trkpt lat="47.83507" lon="6.90985">
        <ele>903</ele>
        <time>2014-07-15T15:00:59Z</time>
      </trkpt>
      <trkpt lat="47.83504" lon="6.90986">
        <ele>902</ele>
        <time>2014-07-15T15:01:03Z</time>
      </trkpt>
      <trkpt lat="47.835" lon="6.90979">
        <ele>902</ele>
        <time>2014-07-15T15:01:15Z</time>
      </trkpt>
      <trkpt lat="47.83503" lon="6.90977">
        <ele>902</ele>
        <time>2014-07-15T15:01:48Z</time>
      </trkpt>
      <trkpt lat="47.83508" lon="6.90973">
        <ele>902</ele>
        <time>2014-07-15T15:01:58Z</time>
      </trkpt>
      <trkpt lat="47.8351" lon="6.90969">
        <ele>901</ele>
        <time>2014-07-15T15:02:02Z</time>
      </trkpt>
      <trkpt lat="47.83512" lon="6.90956">
        <ele>899</ele>
        <time>2014-07-15T15:02:12Z</time>
      </trkpt>
      <trkpt lat="47.83521" lon="6.90952">
        <ele>900</ele>
        <time>2014-07-15T15:02:25Z</time>
      </trkpt>
      <trkpt lat="47.83532" lon="6.90943">
        <ele>900</ele>
        <time>2014-07-15T15:02:37Z</time>
      </trkpt>
      <trkpt lat="47.83536" lon="6.90938">
        <ele>901</ele>
        <time>2014-07-15T15:02:46Z</time>
      </trkpt>
      <trkpt lat="47.83541" lon="6.90925">
        <ele>901</ele>
        <time>2014-07-15T15:02:59Z</time>
      </trkpt>
      <trkpt lat="47.83545" lon="6.90905">
        <ele>891</ele>
        <time>2014-07-15T15:03:09Z</time>
      </trkpt>
      <trkpt lat="47.83546" lon="6.90895">
        <ele>890</ele>
        <time>2014-07-15T15:03:13Z</time>
      </trkpt>
      <trkpt lat="47.83548" lon="6.90877">
        <ele>889</ele>
        <time>2014-07-15T15:03:23Z</time>
      </trkpt>
      <trkpt lat="47.8355" lon="6.90878">
        <ele>889</ele>
        <time>2014-07-15T15:03:37Z</time>
      </trkpt>
      <trkpt lat="47.83545" lon="6.90878">
        <ele>888</ele>
        <time>2014-07-15T15:04:05Z</time>
      </trkpt>
      <trkpt lat="47.83535" lon="6.90867">
        <ele>885</ele>
        <time>2014-07-15T15:04:15Z</time>
      </trkpt>
      <trkpt lat="47.83533" lon="6.90859">
        <ele>883</ele>
        <time>2014-07-15T15:04:22Z</time>
      </trkpt>
      <trkpt lat="47.83529" lon="6.90856">
        <ele>881</ele>
        <time>2014-07-15T15:04:40Z</time>
      </trkpt>
      <trkpt lat="47.8352" lon="6.90854">
        <ele>878</ele>
        <time>2014-07-15T15:04:50Z</time>
      </trkpt>
      <trkpt lat="47.83506" lon="6.90856">
        <ele>875</ele>
        <time>2014-07-15T15:05:00Z</time>
      </trkpt>
      <trkpt lat="47.83498" lon="6.90852">
        <ele>858</ele>
        <time>2014-07-15T15:05:06Z</time>
      </trkpt>
      <trkpt lat="47.83487" lon="6.90845">
        <ele>857</ele>
        <time>2014-07-15T15:05:18Z</time>
      </trkpt>
      <trkpt lat="47.8348" lon="6.90851">
        <ele>857</ele>
        <time>2014-07-15T15:05:28Z</time>
      </trkpt>
      <trkpt lat="47.83474" lon="6.90851">
        <ele>856</ele>
        <time>2014-07-15T15:05:49Z</time>
      </trkpt>
      <trkpt lat="47.83466" lon="6.90843">
        <ele>855</ele>
        <time>2014-07-15T15:06:05Z</time>
      </trkpt>
      <trkpt lat="47.83452" lon="6.90836">
        <ele>851</ele>
        <time>2014-07-15T15:06:16Z</time>
      </trkpt>
      <trkpt lat="47.83449" lon="6.90834">
        <ele>851</ele>
        <time>2014-07-15T15:06:19Z</time>
      </trkpt>
      <trkpt lat="47.83446" lon="6.90837">
        <ele>850</ele>
        <time>2014-07-15T15:06:21Z</time>
      </trkpt>
      <trkpt lat="47.83442" lon="6.90838">
        <ele>849</ele>
        <time>2014-07-15T15:06:25Z</time>
      </trkpt>
      <trkpt lat="47.83429" lon="6.90826">
        <ele>840</ele>
        <time>2014-07-15T15:06:36Z</time>
      </trkpt>
      <trkpt lat="47.83427" lon="6.90822">
        <ele>839</ele>
        <time>2014-07-15T15:06:38Z</time>
      </trkpt>
      <trkpt lat="47.83417" lon="6.90812">
        <ele>840</ele>
        <time>2014-07-15T15:06:48Z</time>
      </trkpt>
      <trkpt lat="47.83415" lon="6.90813">
        <ele>832</ele>
        <time>2014-07-15T15:06:51Z</time>
      </trkpt>
      <trkpt lat="47.83406" lon="6.90812">
        <ele>831</ele>
        <time>2014-07-15T15:07:03Z</time>
      </trkpt>
      <trkpt lat="47.83401" lon="6.90812">
        <ele>831</ele>
        <time>2014-07-15T15:07:09Z</time>
      </trkpt>
      <trkpt lat="47.83388" lon="6.90817">
        <ele>830</ele>
        <time>2014-07-15T15:07:21Z</time>
      </trkpt>
      <trkpt lat="47.83378" lon="6.90823">
        <ele>829</ele>
        <time>2014-07-15T15:07:30Z</time>
      </trkpt>
      <trkpt lat="47.83375" lon="6.90826">
        <ele>829</ele>
        <time>2014-07-15T15:07:33Z</time>
      </trkpt>
      <trkpt lat="47.83367" lon="6.90829">
        <ele>828</ele>
        <time>2014-07-15T15:07:45Z</time>
      </trkpt>
      <trkpt lat="47.83359" lon="6.90823">
        <ele>828</ele>
        <time>2014-07-15T15:07:59Z</time>
      </trkpt>
      <trkpt lat="47.83357" lon="6.90826">
        <ele>827</ele>
        <time>2014-07-15T15:08:29Z</time>
      </trkpt>
      <trkpt lat="47.83352" lon="6.90824">
        <ele>827</ele>
        <time>2014-07-15T15:08:42Z</time>
      </trkpt>
      <trkpt lat="47.83349" lon="6.90823">
        <ele>827</ele>
        <time>2014-07-15T15:08:56Z</time>
      </trkpt>
      <trkpt lat="47.83341" lon="6.90825">
        <ele>826</ele>
        <time>2014-07-15T15:09:07Z</time>
      </trkpt>
      <trkpt lat="47.83343" lon="6.90829">
        <ele>826</ele>
        <time>2014-07-15T15:09:20Z</time>
      </trkpt>
      <trkpt lat="47.83344" lon="6.90833">
        <ele>829</ele>
        <time>2014-07-15T15:09:24Z</time>
      </trkpt>
      <trkpt lat="47.83347" lon="6.90845">
        <ele>831</ele>
        <time>2014-07-15T15:09:35Z</time>
      </trkpt>
      <trkpt lat="47.83341" lon="6.9085">
        <ele>831</ele>
        <time>2014-07-15T15:09:40Z</time>
      </trkpt>
      <trkpt lat="47.8333" lon="6.9086">
        <ele>825</ele>
        <time>2014-07-15T15:09:50Z</time>
      </trkpt>
      <trkpt lat="47.83319" lon="6.90869">
        <ele>825</ele>
        <time>2014-07-15T15:10:01Z</time>
      </trkpt>
      <trkpt lat="47.83316" lon="6.90872">
        <ele>825</ele>
        <time>2014-07-15T15:10:05Z</time>
      </trkpt>
      <trkpt lat="47.83307" lon="6.9087">
        <ele>825</ele>
        <time>2014-07-15T15:10:16Z</time>
      </trkpt>
      <trkpt lat="47.83303" lon="6.90865">
        <ele>824</ele>
        <time>2014-07-15T15:10:27Z</time>
      </trkpt>
      <trkpt lat="47.833" lon="6.90862">
        <ele>824</ele>
        <time>2014-07-15T15:10:31Z</time>
      </trkpt>
      <trkpt lat="47.83298" lon="6.90855">
        <ele>824</ele>
        <time>2014-07-15T15:10:45Z</time>
      </trkpt>
      <trkpt lat="47.83296" lon="6.90851">
        <ele>824</ele>
        <time>2014-07-15T15:10:51Z</time>
      </trkpt>
      <trkpt lat="47.83292" lon="6.90845">
        <ele>824</ele>
        <time>2014-07-15T15:10:55Z</time>
      </trkpt>
      <trkpt lat="47.83288" lon="6.90837">
        <ele>823</ele>
        <time>2014-07-15T15:11:07Z</time>
      </trkpt>
      <trkpt lat="47.83285" lon="6.90834">
        <ele>823</ele>
        <time>2014-07-15T15:11:38Z</time>
      </trkpt>
      <trkpt lat="47.83282" lon="6.90835">
        <ele>823</ele>
        <time>2014-07-15T15:11:42Z</time>
      </trkpt>
      <trkpt lat="47.83279" lon="6.90836">
        <ele>823</ele>
        <time>2014-07-15T15:11:45Z</time>
      </trkpt>
      <trkpt lat="47.83272" lon="6.90839">
        <ele>822</ele>
        <time>2014-07-15T15:11:57Z</time>
      </trkpt>
      <trkpt lat="47.83266" lon="6.90841">
        <ele>822</ele>
        <time>2014-07-15T15:12:52Z</time>
      </trkpt>
      <trkpt lat="47.83269" lon="6.90844">
        <ele>822</ele>
        <time>2014-07-15T15:12:56Z</time>
      </trkpt>
      <trkpt lat="47.83278" lon="6.9085">
        <ele>823</ele>
        <time>2014-07-15T15:13:07Z</time>
      </trkpt>
      <trkpt lat="47.83283" lon="6.90845">
        <ele>823</ele>
        <time>2014-07-15T15:13:17Z</time>
      </trkpt>
      <trkpt lat="47.83288" lon="6.9084">
        <ele>823</ele>
        <time>2014-07-15T15:13:27Z</time>
      </trkpt>
      <trkpt lat="47.83298" lon="6.90837">
        <ele>824</ele>
        <time>2014-07-15T15:13:40Z</time>
      </trkpt>
      <trkpt lat="47.83298" lon="6.90823">
        <ele>823</ele>
        <time>2014-07-15T15:13:52Z</time>
      </trkpt>
      <trkpt lat="47.833" lon="6.90826">
        <ele>823</ele>
        <time>2014-07-15T15:14:04Z</time>
      </trkpt>
      <trkpt lat="47.83297" lon="6.90828">
        <ele>823</ele>
        <time>2014-07-15T15:14:16Z</time>
      </trkpt>
      <trkpt lat="47.83298" lon="6.90837">
        <ele>824</ele>
        <time>2014-07-15T15:14:26Z</time>
      </trkpt>
      <trkpt lat="47.83297" lon="6.90833">
        <ele>823</ele>
        <time>2014-07-15T15:14:54Z</time>
      </trkpt>
      <trkpt lat="47.83299" lon="6.9083">
        <ele>823</ele>
        <time>2014-07-15T15:15:03Z</time>
      </trkpt>
      <trkpt lat="47.83302" lon="6.90831">
        <ele>823</ele>
        <time>2014-07-15T15:37:49Z</time>
      </trkpt>
      <trkpt lat="47.83296" lon="6.90834">
        <ele>824</ele>
        <time>2014-07-15T15:37:59Z</time>
      </trkpt>
      <trkpt lat="47.83293" lon="6.90835">
        <ele>823</ele>
        <time>2014-07-15T15:38:11Z</time>
      </trkpt>
      <trkpt lat="47.83281" lon="6.90839">
        <ele>823</ele>
        <time>2014-07-15T15:38:23Z</time>
      </trkpt>
      <trkpt lat="47.83265" lon="6.90835">
        <ele>821</ele>
        <time>2014-07-15T15:38:35Z</time>
      </trkpt>
      <trkpt lat="47.8325" lon="6.90831">
        <ele>821</ele>
        <time>2014-07-15T15:38:45Z</time>
      </trkpt>
      <trkpt lat="47.83245" lon="6.90829">
        <ele>823</ele>
        <time>2014-07-15T15:38:47Z</time>
      </trkpt>
      <trkpt lat="47.83242" lon="6.90827">
        <ele>825</ele>
        <time>2014-07-15T15:38:49Z</time>
      </trkpt>
      <trkpt lat="47.83239" lon="6.90825">
        <ele>826</ele>
        <time>2014-07-15T15:38:51Z</time>
      </trkpt>
      <trkpt lat="47.83233" lon="6.90822">
        <ele>828</ele>
        <time>2014-07-15T15:38:55Z</time>
      </trkpt>
      <trkpt lat="47.83225" lon="6.90817">
        <ele>831</ele>
        <time>2014-07-15T15:39:01Z</time>
      </trkpt>
      <trkpt lat="47.83215" lon="6.90799">
        <ele>834</ele>
        <time>2014-07-15T15:39:15Z</time>
      </trkpt>
      <trkpt lat="47.83218" lon="6.908">
        <ele>834</ele>
        <time>2014-07-15T15:39:47Z</time>
      </trkpt>
      <trkpt lat="47.83214" lon="6.90799">
        <ele>835</ele>
        <time>2014-07-15T15:39:58Z</time>
      </trkpt>
      <trkpt lat="47.83208" lon="6.9081">
        <ele>835</ele>
        <time>2014-07-15T15:40:09Z</time>
      </trkpt>
      <trkpt lat="47.83201" lon="6.90823">
        <ele>837</ele>
        <time>2014-07-15T15:40:23Z</time>
      </trkpt>
      <trkpt lat="47.83205" lon="6.90841">
        <ele>833</ele>
        <time>2014-07-15T15:40:35Z</time>
      </trkpt>
      <trkpt lat="47.83203" lon="6.90846">
        <ele>833</ele>
        <time>2014-07-15T15:40:39Z</time>
      </trkpt>
      <trkpt lat="47.83199" lon="6.90862">
        <ele>833</ele>
        <time>2014-07-15T15:40:53Z</time>
      </trkpt>
      <trkpt lat="47.83198" lon="6.90871">
        <ele>833</ele>
        <time>2014-07-15T15:41:01Z</time>
      </trkpt>
      <trkpt lat="47.83197" lon="6.90883">
        <ele>833</ele>
        <time>2014-07-15T15:41:11Z</time>
      </trkpt>
      <trkpt lat="47.83188" lon="6.90897">
        <ele>834</ele>
        <time>2014-07-15T15:41:22Z</time>
      </trkpt>
      <trkpt lat="47.83188" lon="6.90911">
        <ele>834</ele>
        <time>2014-07-15T15:41:31Z</time>
      </trkpt>
      <trkpt lat="47.83194" lon="6.90912">
        <ele>833</ele>
        <time>2014-07-15T15:41:33Z</time>
      </trkpt>
      <trkpt lat="47.83197" lon="6.90915">
        <ele>833</ele>
        <time>2014-07-15T15:41:36Z</time>
      </trkpt>
      <trkpt lat="47.83198" lon="6.90919">
        <ele>831</ele>
        <time>2014-07-15T15:41:38Z</time>
      </trkpt>
      <trkpt lat="47.83195" lon="6.90943">
        <ele>830</ele>
        <time>2014-07-15T15:41:51Z</time>
      </trkpt>
      <trkpt lat="47.83194" lon="6.90952">
        <ele>830</ele>
        <time>2014-07-15T15:41:57Z</time>
      </trkpt>
      <trkpt lat="47.83193" lon="6.9096">
        <ele>830</ele>
        <time>2014-07-15T15:42:03Z</time>
      </trkpt>
      <trkpt lat="47.8319" lon="6.90968">
        <ele>829</ele>
        <time>2014-07-15T15:42:08Z</time>
      </trkpt>
      <trkpt lat="47.83194" lon="6.90974">
        <ele>829</ele>
        <time>2014-07-15T15:42:30Z</time>
      </trkpt>
      <trkpt lat="47.83198" lon="6.90986">
        <ele>829</ele>
        <time>2014-07-15T15:42:41Z</time>
      </trkpt>
      <trkpt lat="47.83197" lon="6.90991">
        <ele>829</ele>
        <time>2014-07-15T15:42:43Z</time>
      </trkpt>
      <trkpt lat="47.83192" lon="6.91008">
        <ele>830</ele>
        <time>2014-07-15T15:42:51Z</time>
      </trkpt>
      <trkpt lat="47.83191" lon="6.91012">
        <ele>830</ele>
        <time>2014-07-15T15:42:54Z</time>
      </trkpt>
      <trkpt lat="47.8319" lon="6.91024">
        <ele>830</ele>
        <time>2014-07-15T15:43:04Z</time>
      </trkpt>
      <trkpt lat="47.83183" lon="6.91038">
        <ele>830</ele>
        <time>2014-07-15T15:43:15Z</time>
      </trkpt>
      <trkpt lat="47.83181" lon="6.91046">
        <ele>830</ele>
        <time>2014-07-15T15:43:19Z</time>
      </trkpt>
      <trkpt lat="47.8317" lon="6.91058">
        <ele>829</ele>
        <time>2014-07-15T15:43:31Z</time>
      </trkpt>
      <trkpt lat="47.83169" lon="6.91063">
        <ele>829</ele>
        <time>2014-07-15T15:43:34Z</time>
      </trkpt>
      <trkpt lat="47.8317" lon="6.91069">
        <ele>828</ele>
        <time>2014-07-15T15:43:37Z</time>
      </trkpt>
      <trkpt lat="47.8317" lon="6.91078">
        <ele>826</ele>
        <time>2014-07-15T15:43:53Z</time>
      </trkpt>
      <trkpt lat="47.83172" lon="6.91083">
        <ele>827</ele>
        <time>2014-07-15T15:44:18Z</time>
      </trkpt>
      <trkpt lat="47.83176" lon="6.91112">
        <ele>832</ele>
        <time>2014-07-15T15:44:29Z</time>
      </trkpt>
      <trkpt lat="47.83173" lon="6.91112">
        <ele>832</ele>
        <time>2014-07-15T15:44:31Z</time>
      </trkpt>
      <trkpt lat="47.8317" lon="6.91116">
        <ele>832</ele>
        <time>2014-07-15T15:44:33Z</time>
      </trkpt>
      <trkpt lat="47.83165" lon="6.9112">
        <ele>819</ele>
        <time>2014-07-15T15:44:38Z</time>
      </trkpt>
      <trkpt lat="47.83164" lon="6.91127">
        <ele>819</ele>
        <time>2014-07-15T15:45:09Z</time>
      </trkpt>
      <trkpt lat="47.83161" lon="6.91134">
        <ele>819</ele>
        <time>2014-07-15T15:45:20Z</time>
      </trkpt>
      <trkpt lat="47.83158" lon="6.91134">
        <ele>819</ele>
        <time>2014-07-15T15:45:34Z</time>
      </trkpt>
      <trkpt lat="47.83148" lon="6.91149">
        <ele>819</ele>
        <time>2014-07-15T15:45:44Z</time>
      </trkpt>
      <trkpt lat="47.83133" lon="6.91171">
        <ele>813</ele>
        <time>2014-07-15T15:45:54Z</time>
      </trkpt>
      <trkpt lat="47.83128" lon="6.91201">
        <ele>811</ele>
        <time>2014-07-15T15:46:04Z</time>
      </trkpt>
      <trkpt lat="47.83123" lon="6.91201">
        <ele>811</ele>
        <time>2014-07-15T15:46:06Z</time>
      </trkpt>
      <trkpt lat="47.83117" lon="6.91203">
        <ele>810</ele>
        <time>2014-07-15T15:46:10Z</time>
      </trkpt>
      <trkpt lat="47.83118" lon="6.91213">
        <ele>810</ele>
        <time>2014-07-15T15:46:27Z</time>
      </trkpt>
      <trkpt lat="47.83115" lon="6.91216">
        <ele>809</ele>
        <time>2014-07-15T15:46:46Z</time>
      </trkpt>
      <trkpt lat="47.8311" lon="6.91221">
        <ele>808</ele>
        <time>2014-07-15T15:46:56Z</time>
      </trkpt>
      <trkpt lat="47.83113" lon="6.91236">
        <ele>807</ele>
        <time>2014-07-15T15:47:07Z</time>
      </trkpt>
      <trkpt lat="47.8311" lon="6.91246">
        <ele>806</ele>
        <time>2014-07-15T15:47:19Z</time>
      </trkpt>
      <trkpt lat="47.83107" lon="6.91253">
        <ele>805</ele>
        <time>2014-07-15T15:47:26Z</time>
      </trkpt>
      <trkpt lat="47.83109" lon="6.91256">
        <ele>806</ele>
        <time>2014-07-15T15:47:34Z</time>
      </trkpt>
      <trkpt lat="47.83107" lon="6.91254">
        <ele>805</ele>
        <time>2014-07-15T15:47:59Z</time>
      </trkpt>
      <trkpt lat="47.83089" lon="6.91268">
        <ele>803</ele>
        <time>2014-07-15T15:48:10Z</time>
      </trkpt>
      <trkpt lat="47.83076" lon="6.91268">
        <ele>792</ele>
        <time>2014-07-15T15:48:22Z</time>
      </trkpt>
      <trkpt lat="47.83066" lon="6.91265">
        <ele>791</ele>
        <time>2014-07-15T15:48:35Z</time>
      </trkpt>
      <trkpt lat="47.83056" lon="6.91262">
        <ele>790</ele>
        <time>2014-07-15T15:48:45Z</time>
      </trkpt>
      <trkpt lat="47.83053" lon="6.91261">
        <ele>790</ele>
        <time>2014-07-15T15:48:47Z</time>
      </trkpt>
      <trkpt lat="47.83039" lon="6.91261">
        <ele>787</ele>
        <time>2014-07-15T15:49:01Z</time>
      </trkpt>
      <trkpt lat="47.83036" lon="6.91261">
        <ele>787</ele>
        <time>2014-07-15T15:49:23Z</time>
      </trkpt>
      <trkpt lat="47.83022" lon="6.91266">
        <ele>784</ele>
        <time>2014-07-15T15:49:33Z</time>
      </trkpt>
      <trkpt lat="47.83009" lon="6.91268">
        <ele>783</ele>
        <time>2014-07-15T15:49:45Z</time>
      </trkpt>
      <trkpt lat="47.83006" lon="6.91267">
        <ele>782</ele>
        <time>2014-07-15T15:49:47Z</time>
      </trkpt>
      <trkpt lat="47.83" lon="6.91264">
        <ele>781</ele>
        <time>2014-07-15T15:49:58Z</time>
      </trkpt>
      <trkpt lat="47.82995" lon="6.91263">
        <ele>772</ele>
        <time>2014-07-15T15:50:08Z</time>
      </trkpt>
      <trkpt lat="47.82988" lon="6.91264">
        <ele>772</ele>
        <time>2014-07-15T15:50:20Z</time>
      </trkpt>
      <trkpt lat="47.82977" lon="6.91267">
        <ele>770</ele>
        <time>2014-07-15T15:50:32Z</time>
      </trkpt>
      <trkpt lat="47.8297" lon="6.91274">
        <ele>769</ele>
        <time>2014-07-15T15:50:48Z</time>
      </trkpt>
      <trkpt lat="47.82962" lon="6.91287">
        <ele>768</ele>
        <time>2014-07-15T15:51:01Z</time>
      </trkpt>
      <trkpt lat="47.82961" lon="6.91292">
        <ele>768</ele>
        <time>2014-07-15T15:51:04Z</time>
      </trkpt>
      <trkpt lat="47.82956" lon="6.91308">
        <ele>767</ele>
        <time>2014-07-15T15:51:16Z</time>
      </trkpt>
      <trkpt lat="47.82955" lon="6.91313">
        <ele>767</ele>
        <time>2014-07-15T15:51:19Z</time>
      </trkpt>
      <trkpt lat="47.82954" lon="6.91317">
        <ele>767</ele>
        <time>2014-07-15T15:51:24Z</time>
      </trkpt>
      <trkpt lat="47.82951" lon="6.91325">
        <ele>766</ele>
        <time>2014-07-15T15:51:43Z</time>
      </trkpt>
      <trkpt lat="47.82941" lon="6.91336">
        <ele>766</ele>
        <time>2014-07-15T15:51:54Z</time>
      </trkpt>
      <trkpt lat="47.82932" lon="6.91355">
        <ele>766</ele>
        <time>2014-07-15T15:52:05Z</time>
      </trkpt>
      <trkpt lat="47.82928" lon="6.91361">
        <ele>766</ele>
        <time>2014-07-15T15:52:09Z</time>
      </trkpt>
      <trkpt lat="47.8292" lon="6.91377">
        <ele>766</ele>
        <time>2014-07-15T15:52:20Z</time>
      </trkpt>
      <trkpt lat="47.82919" lon="6.91386">
        <ele>766</ele>
        <time>2014-07-15T15:52:27Z</time>
      </trkpt>
      <trkpt lat="47.82919" lon="6.9139">
        <ele>765</ele>
        <time>2014-07-15T15:52:31Z</time>
      </trkpt>
      <trkpt lat="47.82917" lon="6.91394">
        <ele>754</ele>
        <time>2014-07-15T15:52:49Z</time>
      </trkpt>
      <trkpt lat="47.82909" lon="6.91403">
        <ele>755</ele>
        <time>2014-07-15T15:52:59Z</time>
      </trkpt>
      <trkpt lat="47.82904" lon="6.91408">
        <ele>754</ele>
        <time>2014-07-15T15:53:04Z</time>
      </trkpt>
      <trkpt lat="47.82904" lon="6.91413">
        <ele>755</ele>
        <time>2014-07-15T15:53:06Z</time>
      </trkpt>
      <trkpt lat="47.82898" lon="6.91434">
        <ele>753</ele>
        <time>2014-07-15T15:53:18Z</time>
      </trkpt>
      <trkpt lat="47.82898" lon="6.91439">
        <ele>752</ele>
        <time>2014-07-15T15:53:21Z</time>
      </trkpt>
      <trkpt lat="47.82894" lon="6.91447">
        <ele>752</ele>
        <time>2014-07-15T15:53:27Z</time>
      </trkpt>
      <trkpt lat="47.82888" lon="6.91465">
        <ele>751</ele>
        <time>2014-07-15T15:53:39Z</time>
      </trkpt>
      <trkpt lat="47.82887" lon="6.91469">
        <ele>751</ele>
        <time>2014-07-15T15:53:46Z</time>
      </trkpt>
      <trkpt lat="47.82886" lon="6.91478">
        <ele>751</ele>
        <time>2014-07-15T15:53:57Z</time>
      </trkpt>
      <trkpt lat="47.82885" lon="6.91486">
        <ele>751</ele>
        <time>2014-07-15T15:54:06Z</time>
      </trkpt>
      <trkpt lat="47.82883" lon="6.91495">
        <ele>751</ele>
        <time>2014-07-15T15:54:16Z</time>
      </trkpt>
      <trkpt lat="47.8288" lon="6.91508">
        <ele>749</ele>
        <time>2014-07-15T15:54:27Z</time>
      </trkpt>
      <trkpt lat="47.82873" lon="6.91524">
        <ele>747</ele>
        <time>2014-07-15T15:54:38Z</time>
      </trkpt>
      <trkpt lat="47.82873" lon="6.91529">
        <ele>747</ele>
        <time>2014-07-15T15:54:40Z</time>
      </trkpt>
      <trkpt lat="47.82869" lon="6.91556">
        <ele>745</ele>
        <time>2014-07-15T15:54:55Z</time>
      </trkpt>
      <trkpt lat="47.82869" lon="6.91567">
        <ele>744</ele>
        <time>2014-07-15T15:55:05Z</time>
      </trkpt>
      <trkpt lat="47.82867" lon="6.91571">
        <ele>744</ele>
        <time>2014-07-15T15:55:08Z</time>
      </trkpt>
      <trkpt lat="47.82862" lon="6.91581">
        <ele>742</ele>
        <time>2014-07-15T15:55:18Z</time>
      </trkpt>
      <trkpt lat="47.82858" lon="6.91587">
        <ele>740</ele>
        <time>2014-07-15T15:55:29Z</time>
      </trkpt>
      <trkpt lat="47.82856" lon="6.91613">
        <ele>741</ele>
        <time>2014-07-15T15:55:35Z</time>
      </trkpt>
      <trkpt lat="47.82854" lon="6.91617">
        <ele>741</ele>
        <time>2014-07-15T15:55:37Z</time>
      </trkpt>
      <trkpt lat="47.82853" lon="6.91621">
        <ele>741</ele>
        <time>2014-07-15T15:55:40Z</time>
      </trkpt>
      <trkpt lat="47.82842" lon="6.91631">
        <ele>740</ele>
        <time>2014-07-15T15:55:52Z</time>
      </trkpt>
      <trkpt lat="47.82839" lon="6.91635">
        <ele>739</ele>
        <time>2014-07-15T15:55:55Z</time>
      </trkpt>
      <trkpt lat="47.82832" lon="6.9165">
        <ele>722</ele>
        <time>2014-07-15T15:56:06Z</time>
      </trkpt>
      <trkpt lat="47.8283" lon="6.91656">
        <ele>724</ele>
        <time>2014-07-15T15:56:20Z</time>
      </trkpt>
      <trkpt lat="47.82826" lon="6.91662">
        <ele>724</ele>
        <time>2014-07-15T15:56:33Z</time>
      </trkpt>
      <trkpt lat="47.82819" lon="6.91669">
        <ele>722</ele>
        <time>2014-07-15T15:56:44Z</time>
      </trkpt>
      <trkpt lat="47.82815" lon="6.91681">
        <ele>720</ele>
        <time>2014-07-15T15:56:54Z</time>
      </trkpt>
      <trkpt lat="47.82813" lon="6.91685">
        <ele>719</ele>
        <time>2014-07-15T15:56:57Z</time>
      </trkpt>
      <trkpt lat="47.82811" lon="6.91689">
        <ele>719</ele>
        <time>2014-07-15T15:57:00Z</time>
      </trkpt>
      <trkpt lat="47.82807" lon="6.91694">
        <ele>718</ele>
        <time>2014-07-15T15:57:04Z</time>
      </trkpt>
      <trkpt lat="47.82795" lon="6.91706">
        <ele>716</ele>
        <time>2014-07-15T15:57:14Z</time>
      </trkpt>
      <trkpt lat="47.82783" lon="6.91719">
        <ele>713</ele>
        <time>2014-07-15T15:57:25Z</time>
      </trkpt>
      <trkpt lat="47.8278" lon="6.91732">
        <ele>712</ele>
        <time>2014-07-15T15:57:31Z</time>
      </trkpt>
      <trkpt lat="47.82768" lon="6.91744">
        <ele>708</ele>
        <time>2014-07-15T15:57:41Z</time>
      </trkpt>
      <trkpt lat="47.82765" lon="6.91747">
        <ele>707</ele>
        <time>2014-07-15T15:57:43Z</time>
      </trkpt>
      <trkpt lat="47.8276" lon="6.91758">
        <ele>708</ele>
        <time>2014-07-15T15:57:49Z</time>
      </trkpt>
      <trkpt lat="47.82758" lon="6.91766">
        <ele>710</ele>
        <time>2014-07-15T15:57:53Z</time>
      </trkpt>
      <trkpt lat="47.82755" lon="6.91771">
        <ele>711</ele>
        <time>2014-07-15T15:57:56Z</time>
      </trkpt>
      <trkpt lat="47.82753" lon="6.91774">
        <ele>711</ele>
        <time>2014-07-15T15:57:58Z</time>
      </trkpt>
      <trkpt lat="47.82744" lon="6.91787">
        <ele>698</ele>
        <time>2014-07-15T15:58:07Z</time>
      </trkpt>
      <trkpt lat="47.82736" lon="6.91793">
        <ele>698</ele>
        <time>2014-07-15T15:58:19Z</time>
      </trkpt>
      <trkpt lat="47.82733" lon="6.91801">
        <ele>698</ele>
        <time>2014-07-15T15:59:30Z</time>
      </trkpt>
      <trkpt lat="47.82718" lon="6.91819">
        <ele>697</ele>
        <time>2014-07-15T15:59:40Z</time>
      </trkpt>
      <trkpt lat="47.82711" lon="6.9183">
        <ele>696</ele>
        <time>2014-07-15T15:59:46Z</time>
      </trkpt>
      <trkpt lat="47.82702" lon="6.91834">
        <ele>698</ele>
        <time>2014-07-15T15:59:52Z</time>
      </trkpt>
      <trkpt lat="47.82697" lon="6.9184">
        <ele>697</ele>
        <time>2014-07-15T15:59:56Z</time>
      </trkpt>
      <trkpt lat="47.82687" lon="6.91846">
        <ele>695</ele>
        <time>2014-07-15T16:00:04Z</time>
      </trkpt>
      <trkpt lat="47.82674" lon="6.91843">
        <ele>692</ele>
        <time>2014-07-15T16:00:14Z</time>
      </trkpt>
      <trkpt lat="47.82659" lon="6.91844">
        <ele>684</ele>
        <time>2014-07-15T16:00:25Z</time>
      </trkpt>
      <trkpt lat="47.82642" lon="6.91847">
        <ele>682</ele>
        <time>2014-07-15T16:00:37Z</time>
      </trkpt>
      <trkpt lat="47.82631" lon="6.91855">
        <ele>681</ele>
        <time>2014-07-15T16:00:49Z</time>
      </trkpt>
      <trkpt lat="47.82628" lon="6.91865">
        <ele>681</ele>
        <time>2014-07-15T16:01:00Z</time>
      </trkpt>
      <trkpt lat="47.82626" lon="6.91868">
        <ele>681</ele>
        <time>2014-07-15T16:01:10Z</time>
      </trkpt>
      <trkpt lat="47.82621" lon="6.91876">
        <ele>680</ele>
        <time>2014-07-15T16:01:20Z</time>
      </trkpt>
      <trkpt lat="47.8261" lon="6.91884">
        <ele>679</ele>
        <time>2014-07-15T16:01:31Z</time>
      </trkpt>
      <trkpt lat="47.82607" lon="6.91885">
        <ele>679</ele>
        <time>2014-07-15T16:01:37Z</time>
      </trkpt>
      <trkpt lat="47.82606" lon="6.919">
        <ele>678</ele>
        <time>2014-07-15T16:01:47Z</time>
      </trkpt>
      <trkpt lat="47.82607" lon="6.91904">
        <ele>678</ele>
        <time>2014-07-15T16:01:50Z</time>
      </trkpt>
      <trkpt lat="47.82606" lon="6.91908">
        <ele>677</ele>
        <time>2014-07-15T16:01:55Z</time>
      </trkpt>
      <trkpt lat="47.82605" lon="6.91912">
        <ele>677</ele>
        <time>2014-07-15T16:02:22Z</time>
      </trkpt>
      <trkpt lat="47.82601" lon="6.9193">
        <ele>678</ele>
        <time>2014-07-15T16:02:35Z</time>
      </trkpt>
      <trkpt lat="47.82595" lon="6.91939">
        <ele>678</ele>
        <time>2014-07-15T16:02:45Z</time>
      </trkpt>
      <trkpt lat="47.82578" lon="6.91947">
        <ele>672</ele>
        <time>2014-07-15T16:02:55Z</time>
      </trkpt>
      <trkpt lat="47.82574" lon="6.9195">
        <ele>672</ele>
        <time>2014-07-15T16:02:57Z</time>
      </trkpt>
      <trkpt lat="47.82573" lon="6.91955">
        <ele>672</ele>
        <time>2014-07-15T16:02:59Z</time>
      </trkpt>
      <trkpt lat="47.8257" lon="6.91965">
        <ele>671</ele>
        <time>2014-07-15T16:03:02Z</time>
      </trkpt>
      <trkpt lat="47.82568" lon="6.91973">
        <ele>671</ele>
        <time>2014-07-15T16:03:03Z</time>
      </trkpt>
      <trkpt lat="47.82565" lon="6.91993">
        <ele>671</ele>
        <time>2014-07-15T16:03:05Z</time>
      </trkpt>
      <trkpt lat="47.82563" lon="6.92012">
        <ele>669</ele>
        <time>2014-07-15T16:03:07Z</time>
      </trkpt>
      <trkpt lat="47.82557" lon="6.92024">
        <ele>668</ele>
        <time>2014-07-15T16:03:08Z</time>
      </trkpt>
      <trkpt lat="47.82564" lon="6.92028">
        <ele>668</ele>
        <time>2014-07-15T16:03:11Z</time>
      </trkpt>
      <trkpt lat="47.82567" lon="6.92035">
        <ele>668</ele>
        <time>2014-07-15T16:03:14Z</time>
      </trkpt>
      <trkpt lat="47.82562" lon="6.92034">
        <ele>668</ele>
        <time>2014-07-15T16:03:16Z</time>
      </trkpt>
      <trkpt lat="47.8256" lon="6.92043">
        <ele>668</ele>
        <time>2014-07-15T16:03:25Z</time>
      </trkpt>
      <trkpt lat="47.82553" lon="6.92052">
        <ele>668</ele>
        <time>2014-07-15T16:03:34Z</time>
      </trkpt>
      <trkpt lat="47.82552" lon="6.92056">
        <ele>668</ele>
        <time>2014-07-15T16:03:37Z</time>
      </trkpt>
      <trkpt lat="47.82548" lon="6.92067">
        <ele>667</ele>
        <time>2014-07-15T16:03:49Z</time>
      </trkpt>
      <trkpt lat="47.82545" lon="6.92068">
        <ele>667</ele>
        <time>2014-07-15T16:03:52Z</time>
      </trkpt>
      <trkpt lat="47.82537" lon="6.92076">
        <ele>666</ele>
        <time>2014-07-15T16:04:02Z</time>
      </trkpt>
      <trkpt lat="47.82534" lon="6.92083">
        <ele>665</ele>
        <time>2014-07-15T16:04:20Z</time>
      </trkpt>
      <trkpt lat="47.82531" lon="6.92085">
        <ele>664</ele>
        <time>2014-07-15T16:04:40Z</time>
      </trkpt>
      <trkpt lat="47.82527" lon="6.92108">
        <ele>664</ele>
        <time>2014-07-15T16:04:53Z</time>
      </trkpt>
      <trkpt lat="47.82526" lon="6.92112">
        <ele>664</ele>
        <time>2014-07-15T16:05:07Z</time>
      </trkpt>
      <trkpt lat="47.82521" lon="6.92131">
        <ele>663</ele>
        <time>2014-07-15T16:05:17Z</time>
      </trkpt>
      <trkpt lat="47.82519" lon="6.9214">
        <ele>662</ele>
        <time>2014-07-15T16:05:21Z</time>
      </trkpt>
      <trkpt lat="47.82516" lon="6.9215">
        <ele>661</ele>
        <time>2014-07-15T16:05:25Z</time>
      </trkpt>
      <trkpt lat="47.82508" lon="6.92159">
        <ele>657</ele>
        <time>2014-07-15T16:05:34Z</time>
      </trkpt>
      <trkpt lat="47.82502" lon="6.92175">
        <ele>657</ele>
        <time>2014-07-15T16:05:45Z</time>
      </trkpt>
      <trkpt lat="47.82501" lon="6.9218">
        <ele>659</ele>
        <time>2014-07-15T16:05:48Z</time>
      </trkpt>
      <trkpt lat="47.82495" lon="6.92194">
        <ele>648</ele>
        <time>2014-07-15T16:06:02Z</time>
      </trkpt>
      <trkpt lat="47.8249" lon="6.92207">
        <ele>647</ele>
        <time>2014-07-15T16:06:12Z</time>
      </trkpt>
      <trkpt lat="47.82487" lon="6.92211">
        <ele>647</ele>
        <time>2014-07-15T16:06:14Z</time>
      </trkpt>
      <trkpt lat="47.82486" lon="6.9222">
        <ele>648</ele>
        <time>2014-07-15T16:06:24Z</time>
      </trkpt>
      <trkpt lat="47.82486" lon="6.92215">
        <ele>647</ele>
        <time>2014-07-15T16:06:28Z</time>
      </trkpt>
      <trkpt lat="47.82483" lon="6.92214">
        <ele>647</ele>
        <time>2014-07-15T16:06:43Z</time>
      </trkpt>
      <trkpt lat="47.82484" lon="6.92218">
        <ele>647</ele>
        <time>2014-07-15T16:07:04Z</time>
      </trkpt>
      <trkpt lat="47.8248" lon="6.92222">
        <ele>647</ele>
        <time>2014-07-15T16:07:07Z</time>
      </trkpt>
      <trkpt lat="47.82475" lon="6.92228">
        <ele>647</ele>
        <time>2014-07-15T16:07:12Z</time>
      </trkpt>
      <trkpt lat="47.8247" lon="6.92234">
        <ele>646</ele>
        <time>2014-07-15T16:07:17Z</time>
      </trkpt>
      <trkpt lat="47.8246" lon="6.92245">
        <ele>644</ele>
        <time>2014-07-15T16:07:27Z</time>
      </trkpt>
      <trkpt lat="47.82456" lon="6.92247">
        <ele>644</ele>
        <time>2014-07-15T16:07:30Z</time>
      </trkpt>
      <trkpt lat="47.82443" lon="6.92256">
        <ele>643</ele>
        <time>2014-07-15T16:07:41Z</time>
      </trkpt>
      <trkpt lat="47.82432" lon="6.92267">
        <ele>641</ele>
        <time>2014-07-15T16:07:53Z</time>
      </trkpt>
      <trkpt lat="47.82425" lon="6.92286">
        <ele>642</ele>
        <time>2014-07-15T16:08:05Z</time>
      </trkpt>
      <trkpt lat="47.82419" lon="6.92301">
        <ele>642</ele>
        <time>2014-07-15T16:08:14Z</time>
      </trkpt>
      <trkpt lat="47.82412" lon="6.92311">
        <ele>631</ele>
        <time>2014-07-15T16:08:24Z</time>
      </trkpt>
      <trkpt lat="47.82406" lon="6.92316">
        <ele>631</ele>
        <time>2014-07-15T16:08:30Z</time>
      </trkpt>
      <trkpt lat="47.82395" lon="6.92325">
        <ele>630</ele>
        <time>2014-07-15T16:08:40Z</time>
      </trkpt>
      <trkpt lat="47.82392" lon="6.92344">
        <ele>629</ele>
        <time>2014-07-15T16:08:51Z</time>
      </trkpt>
      <trkpt lat="47.8239" lon="6.92346">
        <ele>629</ele>
        <time>2014-07-15T16:08:54Z</time>
      </trkpt>
      <trkpt lat="47.82387" lon="6.92346">
        <ele>628</ele>
        <time>2014-07-15T16:08:56Z</time>
      </trkpt>
      <trkpt lat="47.82379" lon="6.92358">
        <ele>627</ele>
        <time>2014-07-15T16:09:08Z</time>
      </trkpt>
      <trkpt lat="47.82374" lon="6.92376">
        <ele>626</ele>
        <time>2014-07-15T16:09:20Z</time>
      </trkpt>
      <trkpt lat="47.82373" lon="6.92385">
        <ele>626</ele>
        <time>2014-07-15T16:09:25Z</time>
      </trkpt>
      <trkpt lat="47.82365" lon="6.92395">
        <ele>624</ele>
        <time>2014-07-15T16:09:37Z</time>
      </trkpt>
      <trkpt lat="47.82358" lon="6.92411">
        <ele>622</ele>
        <time>2014-07-15T16:09:50Z</time>
      </trkpt>
      <trkpt lat="47.82355" lon="6.92424">
        <ele>622</ele>
        <time>2014-07-15T16:09:56Z</time>
      </trkpt>
      <trkpt lat="47.82356" lon="6.92429">
        <ele>622</ele>
        <time>2014-07-15T16:09:59Z</time>
      </trkpt>
      <trkpt lat="47.82349" lon="6.92439">
        <ele>622</ele>
        <time>2014-07-15T16:10:11Z</time>
      </trkpt>
      <trkpt lat="47.82342" lon="6.92452">
        <ele>622</ele>
        <time>2014-07-15T16:10:20Z</time>
      </trkpt>
      <trkpt lat="47.82334" lon="6.92479">
        <ele>619</ele>
        <time>2014-07-15T16:10:32Z</time>
      </trkpt>
      <trkpt lat="47.82333" lon="6.92484">
        <ele>610</ele>
        <time>2014-07-15T16:10:34Z</time>
      </trkpt>
      <trkpt lat="47.82332" lon="6.92499">
        <ele>611</ele>
        <time>2014-07-15T16:10:44Z</time>
      </trkpt>
      <trkpt lat="47.82331" lon="6.92503">
        <ele>610</ele>
        <time>2014-07-15T16:10:47Z</time>
      </trkpt>
      <trkpt lat="47.82328" lon="6.92526">
        <ele>609</ele>
        <time>2014-07-15T16:10:58Z</time>
      </trkpt>
      <trkpt lat="47.82319" lon="6.92542">
        <ele>609</ele>
        <time>2014-07-15T16:11:08Z</time>
      </trkpt>
      <trkpt lat="47.82311" lon="6.92556">
        <ele>609</ele>
        <time>2014-07-15T16:11:17Z</time>
      </trkpt>
      <trkpt lat="47.82309" lon="6.92559">
        <ele>609</ele>
        <time>2014-07-15T16:11:19Z</time>
      </trkpt>
      <trkpt lat="47.82309" lon="6.92564">
        <ele>610</ele>
        <time>2014-07-15T16:12:13Z</time>
      </trkpt>
      <trkpt lat="47.82306" lon="6.92566">
        <ele>609</ele>
        <time>2014-07-15T16:12:23Z</time>
      </trkpt>
      <trkpt lat="47.82301" lon="6.9257">
        <ele>609</ele>
        <time>2014-07-15T16:13:13Z</time>
      </trkpt>
      <trkpt lat="47.82294" lon="6.92581">
        <ele>608</ele>
        <time>2014-07-15T16:13:23Z</time>
      </trkpt>
      <trkpt lat="47.82283" lon="6.92596">
        <ele>606</ele>
        <time>2014-07-15T16:13:35Z</time>
      </trkpt>
      <trkpt lat="47.82281" lon="6.92599">
        <ele>605</ele>
        <time>2014-07-15T16:13:37Z</time>
      </trkpt>
      <trkpt lat="47.82277" lon="6.92601">
        <ele>605</ele>
        <time>2014-07-15T16:13:40Z</time>
      </trkpt>
      <trkpt lat="47.82268" lon="6.92606">
        <ele>604</ele>
        <time>2014-07-15T16:13:52Z</time>
      </trkpt>
      <trkpt lat="47.82262" lon="6.92616">
        <ele>603</ele>
        <time>2014-07-15T16:14:03Z</time>
      </trkpt>
      <trkpt lat="47.82256" lon="6.92633">
        <ele>602</ele>
        <time>2014-07-15T16:14:13Z</time>
      </trkpt>
      <trkpt lat="47.82252" lon="6.92646">
        <ele>599</ele>
        <time>2014-07-15T16:14:19Z</time>
      </trkpt>
      <trkpt lat="47.82252" lon="6.92651">
        <ele>598</ele>
        <time>2014-07-15T16:14:21Z</time>
      </trkpt>
      <trkpt lat="47.82247" lon="6.92663">
        <ele>592</ele>
        <time>2014-07-15T16:14:28Z</time>
      </trkpt>
      <trkpt lat="47.8224" lon="6.92685">
        <ele>591</ele>
        <time>2014-07-15T16:14:39Z</time>
      </trkpt>
      <trkpt lat="47.82237" lon="6.92696">
        <ele>591</ele>
        <time>2014-07-15T16:14:45Z</time>
      </trkpt>
      <trkpt lat="47.82234" lon="6.92711">
        <ele>590</ele>
        <time>2014-07-15T16:14:54Z</time>
      </trkpt>
      <trkpt lat="47.82232" lon="6.9272">
        <ele>590</ele>
        <time>2014-07-15T16:15:00Z</time>
      </trkpt>
      <trkpt lat="47.82231" lon="6.92725">
        <ele>590</ele>
        <time>2014-07-15T16:15:03Z</time>
      </trkpt>
      <trkpt lat="47.82226" lon="6.92743">
        <ele>589</ele>
        <time>2014-07-15T16:15:13Z</time>
      </trkpt>
      <trkpt lat="47.82223" lon="6.92763">
        <ele>586</ele>
        <time>2014-07-15T16:15:23Z</time>
      </trkpt>
      <trkpt lat="47.82223" lon="6.92768">
        <ele>586</ele>
        <time>2014-07-15T16:15:26Z</time>
      </trkpt>
      <trkpt lat="47.82225" lon="6.9279">
        <ele>585</ele>
        <time>2014-07-15T16:15:36Z</time>
      </trkpt>
      <trkpt lat="47.82226" lon="6.92803">
        <ele>585</ele>
        <time>2014-07-15T16:15:42Z</time>
      </trkpt>
      <trkpt lat="47.82227" lon="6.92825">
        <ele>584</ele>
        <time>2014-07-15T16:15:53Z</time>
      </trkpt>
      <trkpt lat="47.82227" lon="6.92835">
        <ele>581</ele>
        <time>2014-07-15T16:15:58Z</time>
      </trkpt>
      <trkpt lat="47.82222" lon="6.92853">
        <ele>581</ele>
        <time>2014-07-15T16:16:14Z</time>
      </trkpt>
      <trkpt lat="47.82218" lon="6.92873">
        <ele>581</ele>
        <time>2014-07-15T16:16:25Z</time>
      </trkpt>
      <trkpt lat="47.82216" lon="6.92876">
        <ele>581</ele>
        <time>2014-07-15T16:16:28Z</time>
      </trkpt>
      <trkpt lat="47.82213" lon="6.92897">
        <ele>580</ele>
        <time>2014-07-15T16:16:38Z</time>
      </trkpt>
      <trkpt lat="47.82214" lon="6.92904">
        <ele>580</ele>
        <time>2014-07-15T16:16:40Z</time>
      </trkpt>
      <trkpt lat="47.82214" lon="6.92922">
        <ele>576</ele>
        <time>2014-07-15T16:16:46Z</time>
      </trkpt>
      <trkpt lat="47.82212" lon="6.92944">
        <ele>576</ele>
        <time>2014-07-15T16:16:56Z</time>
      </trkpt>
      <trkpt lat="47.82212" lon="6.92949">
        <ele>575</ele>
        <time>2014-07-15T16:16:59Z</time>
      </trkpt>
      <trkpt lat="47.82211" lon="6.9296">
        <ele>575</ele>
        <time>2014-07-15T16:17:05Z</time>
      </trkpt>
      <trkpt lat="47.82207" lon="6.92973">
        <ele>574</ele>
        <time>2014-07-15T16:17:12Z</time>
      </trkpt>
      <trkpt lat="47.822" lon="6.92987">
        <ele>573</ele>
        <time>2014-07-15T16:17:22Z</time>
      </trkpt>
      <trkpt lat="47.82191" lon="6.93001">
        <ele>570</ele>
        <time>2014-07-15T16:17:34Z</time>
      </trkpt>
      <trkpt lat="47.82185" lon="6.93018">
        <ele>570</ele>
        <time>2014-07-15T16:17:46Z</time>
      </trkpt>
      <trkpt lat="47.82185" lon="6.93038">
        <ele>570</ele>
        <time>2014-07-15T16:17:52Z</time>
      </trkpt>
      <trkpt lat="47.82186" lon="6.93059">
        <ele>570</ele>
        <time>2014-07-15T16:18:02Z</time>
      </trkpt>
      <trkpt lat="47.82187" lon="6.93077">
        <ele>569</ele>
        <time>2014-07-15T16:18:13Z</time>
      </trkpt>
      <trkpt lat="47.82191" lon="6.93095">
        <ele>569</ele>
        <time>2014-07-15T16:18:26Z</time>
      </trkpt>
      <trkpt lat="47.82191" lon="6.93099">
        <ele>569</ele>
        <time>2014-07-15T16:18:28Z</time>
      </trkpt>
      <trkpt lat="47.82192" lon="6.93104">
        <ele>569</ele>
        <time>2014-07-15T16:18:31Z</time>
      </trkpt>
      <trkpt lat="47.82193" lon="6.93125">
        <ele>569</ele>
        <time>2014-07-15T16:18:43Z</time>
      </trkpt>
      <trkpt lat="47.82192" lon="6.93146">
        <ele>568</ele>
        <time>2014-07-15T16:18:55Z</time>
      </trkpt>
      <trkpt lat="47.82188" lon="6.93165">
        <ele>566</ele>
        <time>2014-07-15T16:19:06Z</time>
      </trkpt>
      <trkpt lat="47.82187" lon="6.93171">
        <ele>565</ele>
        <time>2014-07-15T16:19:09Z</time>
      </trkpt>
      <trkpt lat="47.82178" lon="6.9319">
        <ele>565</ele>
        <time>2014-07-15T16:19:21Z</time>
      </trkpt>
      <trkpt lat="47.82174" lon="6.93209">
        <ele>565</ele>
        <time>2014-07-15T16:19:33Z</time>
      </trkpt>
      <trkpt lat="47.82171" lon="6.93228">
        <ele>563</ele>
        <time>2014-07-15T16:19:42Z</time>
      </trkpt>
      <trkpt lat="47.82163" lon="6.93247">
        <ele>559</ele>
        <time>2014-07-15T16:19:54Z</time>
      </trkpt>
      <trkpt lat="47.82156" lon="6.93264">
        <ele>560</ele>
        <time>2014-07-15T16:20:05Z</time>
      </trkpt>
      <trkpt lat="47.82146" lon="6.93278">
        <ele>560</ele>
        <time>2014-07-15T16:20:17Z</time>
      </trkpt>
      <trkpt lat="47.82138" lon="6.93298">
        <ele>560</ele>
        <time>2014-07-15T16:20:29Z</time>
      </trkpt>
      <trkpt lat="47.82132" lon="6.93318">
        <ele>561</ele>
        <time>2014-07-15T16:20:40Z</time>
      </trkpt>
      <trkpt lat="47.82127" lon="6.93332">
        <ele>561</ele>
        <time>2014-07-15T16:20:50Z</time>
      </trkpt>
      <trkpt lat="47.82131" lon="6.93336">
        <ele>567</ele>
        <time>2014-07-15T16:21:09Z</time>
      </trkpt>
      <trkpt lat="47.82122" lon="6.93336">
        <ele>565</ele>
        <time>2014-07-15T16:21:20Z</time>
      </trkpt>
      <trkpt lat="47.82115" lon="6.93356">
        <ele>565</ele>
        <time>2014-07-15T16:21:32Z</time>
      </trkpt>
      <trkpt lat="47.8212" lon="6.93364">
        <ele>567</ele>
        <time>2014-07-15T16:21:38Z</time>
      </trkpt>
      <trkpt lat="47.82126" lon="6.93376">
        <ele>568</ele>
        <time>2014-07-15T16:21:48Z</time>
      </trkpt>
      <trkpt lat="47.82126" lon="6.93384">
        <ele>569</ele>
        <time>2014-07-15T16:21:54Z</time>
      </trkpt>
      <trkpt lat="47.82125" lon="6.93404">
        <ele>570</ele>
        <time>2014-07-15T16:22:06Z</time>
      </trkpt>
      <trkpt lat="47.82124" lon="6.93415">
        <ele>570</ele>
        <time>2014-07-15T16:22:12Z</time>
      </trkpt>
      <trkpt lat="47.82119" lon="6.93432">
        <ele>577</ele>
        <time>2014-07-15T16:22:24Z</time>
      </trkpt>
      <trkpt lat="47.82115" lon="6.93451">
        <ele>578</ele>
        <time>2014-07-15T16:22:36Z</time>
      </trkpt>
      <trkpt lat="47.8211" lon="6.93469">
        <ele>579</ele>
        <time>2014-07-15T16:22:46Z</time>
      </trkpt>
      <trkpt lat="47.82106" lon="6.9349">
        <ele>578</ele>
        <time>2014-07-15T16:22:57Z</time>
      </trkpt>
      <trkpt lat="47.82099" lon="6.93508">
        <ele>583</ele>
        <time>2014-07-15T16:23:20Z</time>
      </trkpt>
      <trkpt lat="47.82095" lon="6.93521">
        <ele>586</ele>
        <time>2014-07-15T16:23:26Z</time>
      </trkpt>
      <trkpt lat="47.82087" lon="6.93539">
        <ele>589</ele>
        <time>2014-07-15T16:23:36Z</time>
      </trkpt>
      <trkpt lat="47.82079" lon="6.93558">
        <ele>574</ele>
        <time>2014-07-15T16:23:46Z</time>
      </trkpt>
      <trkpt lat="47.82075" lon="6.93577">
        <ele>579</ele>
        <time>2014-07-15T16:23:57Z</time>
      </trkpt>
      <trkpt lat="47.82073" lon="6.93598">
        <ele>579</ele>
        <time>2014-07-15T16:24:08Z</time>
      </trkpt>
      <trkpt lat="47.82068" lon="6.93618">
        <ele>577</ele>
        <time>2014-07-15T16:24:18Z</time>
      </trkpt>
      <trkpt lat="47.82068" lon="6.93632">
        <ele>577</ele>
        <time>2014-07-15T16:24:24Z</time>
      </trkpt>
      <trkpt lat="47.82068" lon="6.93637">
        <ele>577</ele>
        <time>2014-07-15T16:24:26Z</time>
      </trkpt>
      <trkpt lat="47.82066" lon="6.93657">
        <ele>579</ele>
        <time>2014-07-15T16:24:43Z</time>
      </trkpt>
      <trkpt lat="47.82065" lon="6.93661">
        <ele>579</ele>
        <time>2014-07-15T16:24:58Z</time>
      </trkpt>
      <trkpt lat="47.82062" lon="6.93685">
        <ele>578</ele>
        <time>2014-07-15T16:25:09Z</time>
      </trkpt>
      <trkpt lat="47.82059" lon="6.93694">
        <ele>577</ele>
        <time>2014-07-15T16:25:15Z</time>
      </trkpt>
      <trkpt lat="47.82059" lon="6.93698">
        <ele>577</ele>
        <time>2014-07-15T16:25:18Z</time>
      </trkpt>
      <trkpt lat="47.82059" lon="6.93713">
        <ele>577</ele>
        <time>2014-07-15T16:25:29Z</time>
      </trkpt>
      <trkpt lat="47.82054" lon="6.93734">
        <ele>577</ele>
        <time>2014-07-15T16:25:42Z</time>
      </trkpt>
      <trkpt lat="47.82051" lon="6.93753">
        <ele>578</ele>
        <time>2014-07-15T16:25:53Z</time>
      </trkpt>
      <trkpt lat="47.82048" lon="6.93767">
        <ele>577</ele>
        <time>2014-07-15T16:25:59Z</time>
      </trkpt>
      <trkpt lat="47.82041" lon="6.93789">
        <ele>576</ele>
        <time>2014-07-15T16:26:10Z</time>
      </trkpt>
      <trkpt lat="47.82038" lon="6.93798">
        <ele>575</ele>
        <time>2014-07-15T16:26:14Z</time>
      </trkpt>
      <trkpt lat="47.82036" lon="6.93804">
        <ele>575</ele>
        <time>2014-07-15T16:26:16Z</time>
      </trkpt>
      <trkpt lat="47.82034" lon="6.93815">
        <ele>575</ele>
        <time>2014-07-15T16:26:20Z</time>
      </trkpt>
      <trkpt lat="47.82028" lon="6.93838">
        <ele>574</ele>
        <time>2014-07-15T16:26:31Z</time>
      </trkpt>
      <trkpt lat="47.82027" lon="6.93859">
        <ele>574</ele>
        <time>2014-07-15T16:26:43Z</time>
      </trkpt>
      <trkpt lat="47.82025" lon="6.93878">
        <ele>574</ele>
        <time>2014-07-15T16:26:55Z</time>
      </trkpt>
      <trkpt lat="47.82023" lon="6.93899">
        <ele>573</ele>
        <time>2014-07-15T16:27:07Z</time>
      </trkpt>
      <trkpt lat="47.82021" lon="6.93919">
        <ele>571</ele>
        <time>2014-07-15T16:27:19Z</time>
      </trkpt>
      <trkpt lat="47.82021" lon="6.93925">
        <ele>571</ele>
        <time>2014-07-15T16:27:22Z</time>
      </trkpt>
      <trkpt lat="47.82018" lon="6.93945">
        <ele>572</ele>
        <time>2014-07-15T16:27:32Z</time>
      </trkpt>
      <trkpt lat="47.82016" lon="6.93967">
        <ele>572</ele>
        <time>2014-07-15T16:27:44Z</time>
      </trkpt>
      <trkpt lat="47.82016" lon="6.93985">
        <ele>571</ele>
        <time>2014-07-15T16:27:53Z</time>
      </trkpt>
      <trkpt lat="47.82024" lon="6.94001">
        <ele>570</ele>
        <time>2014-07-15T16:28:05Z</time>
      </trkpt>
      <trkpt lat="47.82031" lon="6.94019">
        <ele>572</ele>
        <time>2014-07-15T16:28:17Z</time>
      </trkpt>
      <trkpt lat="47.82035" lon="6.94038">
        <ele>573</ele>
        <time>2014-07-15T16:28:28Z</time>
      </trkpt>
      <trkpt lat="47.82032" lon="6.94068">
        <ele>572</ele>
        <time>2014-07-15T16:28:40Z</time>
      </trkpt>
      <trkpt lat="47.82031" lon="6.94088">
        <ele>569</ele>
        <time>2014-07-15T16:28:51Z</time>
      </trkpt>
      <trkpt lat="47.82031" lon="6.94092">
        <ele>569</ele>
        <time>2014-07-15T16:28:54Z</time>
      </trkpt>
      <trkpt lat="47.82034" lon="6.94112">
        <ele>569</ele>
        <time>2014-07-15T16:29:06Z</time>
      </trkpt>
      <trkpt lat="47.82035" lon="6.94117">
        <ele>569</ele>
        <time>2014-07-15T16:29:09Z</time>
      </trkpt>
      <trkpt lat="47.82038" lon="6.94135">
        <ele>569</ele>
        <time>2014-07-15T16:29:22Z</time>
      </trkpt>
      <trkpt lat="47.8204" lon="6.9415">
        <ele>569</ele>
        <time>2014-07-15T16:29:32Z</time>
      </trkpt>
      <trkpt lat="47.82043" lon="6.94166">
        <ele>570</ele>
        <time>2014-07-15T16:29:40Z</time>
      </trkpt>
      <trkpt lat="47.82046" lon="6.94187">
        <ele>567</ele>
        <time>2014-07-15T16:29:51Z</time>
      </trkpt>
      <trkpt lat="47.82049" lon="6.94208">
        <ele>567</ele>
        <time>2014-07-15T16:30:03Z</time>
      </trkpt>
      <trkpt lat="47.82058" lon="6.94225">
        <ele>567</ele>
        <time>2014-07-15T16:30:14Z</time>
      </trkpt>
      <trkpt lat="47.82062" lon="6.94243">
        <ele>568</ele>
        <time>2014-07-15T16:30:26Z</time>
      </trkpt>
      <trkpt lat="47.82072" lon="6.94258">
        <ele>567</ele>
        <time>2014-07-15T16:30:37Z</time>
      </trkpt>
      <trkpt lat="47.82074" lon="6.94261">
        <ele>567</ele>
        <time>2014-07-15T16:30:39Z</time>
      </trkpt>
      <trkpt lat="47.82078" lon="6.94268">
        <ele>567</ele>
        <time>2014-07-15T16:30:47Z</time>
      </trkpt>
      <trkpt lat="47.82088" lon="6.9428">
        <ele>574</ele>
        <time>2014-07-15T16:30:58Z</time>
      </trkpt>
      <trkpt lat="47.82093" lon="6.94286">
        <ele>574</ele>
        <time>2014-07-15T16:31:04Z</time>
      </trkpt>
      <trkpt lat="47.821" lon="6.943">
        <ele>573</ele>
        <time>2014-07-15T16:31:16Z</time>
      </trkpt>
      <trkpt lat="47.8211" lon="6.94313">
        <ele>573</ele>
        <time>2014-07-15T16:31:27Z</time>
      </trkpt>
      <trkpt lat="47.82117" lon="6.94321">
        <ele>573</ele>
        <time>2014-07-15T16:31:33Z</time>
      </trkpt>
      <trkpt lat="47.82124" lon="6.94337">
        <ele>567</ele>
        <time>2014-07-15T16:31:44Z</time>
      </trkpt>
      <trkpt lat="47.82132" lon="6.94351">
        <ele>567</ele>
        <time>2014-07-15T16:31:56Z</time>
      </trkpt>
      <trkpt lat="47.82141" lon="6.94365">
        <ele>567</ele>
        <time>2014-07-15T16:32:07Z</time>
      </trkpt>
      <trkpt lat="47.82146" lon="6.94371">
        <ele>567</ele>
        <time>2014-07-15T16:32:11Z</time>
      </trkpt>
      <trkpt lat="47.82149" lon="6.94374">
        <ele>567</ele>
        <time>2014-07-15T16:32:13Z</time>
      </trkpt>
      <trkpt lat="47.82153" lon="6.94377">
        <ele>567</ele>
        <time>2014-07-15T16:32:15Z</time>
      </trkpt>
      <trkpt lat="47.8216" lon="6.94383">
        <ele>566</ele>
        <time>2014-07-15T16:32:19Z</time>
      </trkpt>
      <trkpt lat="47.82163" lon="6.94386">
        <ele>566</ele>
        <time>2014-07-15T16:32:21Z</time>
      </trkpt>
      <trkpt lat="47.82168" lon="6.94391">
        <ele>572</ele>
        <time>2014-07-15T16:32:25Z</time>
      </trkpt>
      <trkpt lat="47.82182" lon="6.94404">
        <ele>571</ele>
        <time>2014-07-15T16:32:36Z</time>
      </trkpt>
      <trkpt lat="47.82196" lon="6.94411">
        <ele>573</ele>
        <time>2014-07-15T16:32:46Z</time>
      </trkpt>
      <trkpt lat="47.82208" lon="6.94418">
        <ele>568</ele>
        <time>2014-07-15T16:32:56Z</time>
      </trkpt>
      <trkpt lat="47.82212" lon="6.9442">
        <ele>568</ele>
        <time>2014-07-15T16:32:58Z</time>
      </trkpt>
      <trkpt lat="47.82219" lon="6.9443">
        <ele>569</ele>
        <time>2014-07-15T16:33:05Z</time>
      </trkpt>
      <trkpt lat="47.82226" lon="6.94442">
        <ele>569</ele>
        <time>2014-07-15T16:33:14Z</time>
      </trkpt>
      <trkpt lat="47.82231" lon="6.94461">
        <ele>568</ele>
        <time>2014-07-15T16:33:25Z</time>
      </trkpt>
      <trkpt lat="47.82238" lon="6.94477">
        <ele>569</ele>
        <time>2014-07-15T16:33:40Z</time>
      </trkpt>
      <trkpt lat="47.82238" lon="6.94481">
        <ele>569</ele>
        <time>2014-07-15T16:33:51Z</time>
      </trkpt>
      <trkpt lat="47.8224" lon="6.94485">
        <ele>569</ele>
        <time>2014-07-15T16:34:32Z</time>
      </trkpt>
      <trkpt lat="47.82238" lon="6.94489">
        <ele>569</ele>
        <time>2014-07-15T16:34:36Z</time>
      </trkpt>
      <trkpt lat="47.82238" lon="6.94494">
        <ele>569</ele>
        <time>2014-07-15T16:34:39Z</time>
      </trkpt>
      <trkpt lat="47.82246" lon="6.94509">
        <ele>568</ele>
        <time>2014-07-15T16:34:50Z</time>
      </trkpt>
      <trkpt lat="47.82254" lon="6.94524">
        <ele>577</ele>
        <time>2014-07-15T16:35:01Z</time>
      </trkpt>
      <trkpt lat="47.82261" lon="6.94531">
        <ele>578</ele>
        <time>2014-07-15T16:35:11Z</time>
      </trkpt>
      <trkpt lat="47.82263" lon="6.94549">
        <ele>578</ele>
        <time>2014-07-15T16:35:20Z</time>
      </trkpt>
      <trkpt lat="47.82268" lon="6.9456">
        <ele>577</ele>
        <time>2014-07-15T16:35:32Z</time>
      </trkpt>
      <trkpt lat="47.82277" lon="6.94573">
        <ele>578</ele>
        <time>2014-07-15T16:35:43Z</time>
      </trkpt>
      <trkpt lat="47.82281" lon="6.94581">
        <ele>579</ele>
        <time>2014-07-15T16:36:01Z</time>
      </trkpt>
      <trkpt lat="47.8229" lon="6.94597">
        <ele>577</ele>
        <time>2014-07-15T16:36:12Z</time>
      </trkpt>
      <trkpt lat="47.82296" lon="6.9462">
        <ele>577</ele>
        <time>2014-07-15T16:36:25Z</time>
      </trkpt>
      <trkpt lat="47.82298" lon="6.9463">
        <ele>577</ele>
        <time>2014-07-15T16:36:33Z</time>
      </trkpt>
      <trkpt lat="47.82301" lon="6.94639">
        <ele>577</ele>
        <time>2014-07-15T16:36:45Z</time>
      </trkpt>
      <trkpt lat="47.82311" lon="6.94657">
        <ele>579</ele>
        <time>2014-07-15T16:36:57Z</time>
      </trkpt>
      <trkpt lat="47.82313" lon="6.9466">
        <ele>580</ele>
        <time>2014-07-15T16:36:59Z</time>
      </trkpt>
      <trkpt lat="47.82316" lon="6.94668">
        <ele>577</ele>
        <time>2014-07-15T16:37:05Z</time>
      </trkpt>
      <trkpt lat="47.82324" lon="6.94683">
        <ele>576</ele>
        <time>2014-07-15T16:37:19Z</time>
      </trkpt>
      <trkpt lat="47.82326" lon="6.94687">
        <ele>576</ele>
        <time>2014-07-15T16:37:21Z</time>
      </trkpt>
      <trkpt lat="47.82339" lon="6.94703">
        <ele>587</ele>
        <time>2014-07-15T16:37:31Z</time>
      </trkpt>
      <trkpt lat="47.82347" lon="6.94714">
        <ele>587</ele>
        <time>2014-07-15T16:37:37Z</time>
      </trkpt>
      <trkpt lat="47.82357" lon="6.94727">
        <ele>586</ele>
        <time>2014-07-15T16:37:43Z</time>
      </trkpt>
      <trkpt lat="47.8237" lon="6.94745">
        <ele>587</ele>
        <time>2014-07-15T16:37:53Z</time>
      </trkpt>
      <trkpt lat="47.82381" lon="6.94757">
        <ele>580</ele>
        <time>2014-07-15T16:38:03Z</time>
      </trkpt>
      <trkpt lat="47.82386" lon="6.94769">
        <ele>580</ele>
        <time>2014-07-15T16:38:14Z</time>
      </trkpt>
      <trkpt lat="47.82389" lon="6.94774">
        <ele>580</ele>
        <time>2014-07-15T16:38:21Z</time>
      </trkpt>
      <trkpt lat="47.82395" lon="6.94784">
        <ele>579</ele>
        <time>2014-07-15T16:38:35Z</time>
      </trkpt>
      <trkpt lat="47.82405" lon="6.94794">
        <ele>579</ele>
        <time>2014-07-15T16:38:46Z</time>
      </trkpt>
      <trkpt lat="47.82418" lon="6.94805">
        <ele>590</ele>
        <time>2014-07-15T16:38:56Z</time>
      </trkpt>
      <trkpt lat="47.8242" lon="6.9481">
        <ele>589</ele>
        <time>2014-07-15T16:38:58Z</time>
      </trkpt>
      <trkpt lat="47.82425" lon="6.94821">
        <ele>586</ele>
        <time>2014-07-15T16:39:02Z</time>
      </trkpt>
      <trkpt lat="47.82437" lon="6.94846">
        <ele>580</ele>
        <time>2014-07-15T16:39:12Z</time>
      </trkpt>
      <trkpt lat="47.82439" lon="6.94849">
        <ele>580</ele>
        <time>2014-07-15T16:39:13Z</time>
      </trkpt>
      <trkpt lat="47.82441" lon="6.94857">
        <ele>581</ele>
        <time>2014-07-15T16:39:15Z</time>
      </trkpt>
      <trkpt lat="47.82447" lon="6.9487">
        <ele>580</ele>
        <time>2014-07-15T16:39:21Z</time>
      </trkpt>
      <trkpt lat="47.8245" lon="6.94878">
        <ele>580</ele>
        <time>2014-07-15T16:39:31Z</time>
      </trkpt>
      <trkpt lat="47.82445" lon="6.94884">
        <ele>579</ele>
        <time>2014-07-15T16:39:41Z</time>
      </trkpt>
      <trkpt lat="47.8244" lon="6.94895">
        <ele>577</ele>
        <time>2014-07-15T16:39:54Z</time>
      </trkpt>
      <trkpt lat="47.82436" lon="6.94898">
        <ele>576</ele>
        <time>2014-07-15T16:39:57Z</time>
      </trkpt>
      <trkpt lat="47.82428" lon="6.94906">
        <ele>573</ele>
        <time>2014-07-15T16:40:04Z</time>
      </trkpt>
      <trkpt lat="47.82421" lon="6.94922">
        <ele>567</ele>
        <time>2014-07-15T16:40:14Z</time>
      </trkpt>
      <trkpt lat="47.82413" lon="6.9493">
        <ele>563</ele>
        <time>2014-07-15T16:40:23Z</time>
      </trkpt>
      <trkpt lat="47.82401" lon="6.9494">
        <ele>560</ele>
        <time>2014-07-15T16:40:35Z</time>
      </trkpt>
      <trkpt lat="47.82399" lon="6.94948">
        <ele>559</ele>
        <time>2014-07-15T16:40:44Z</time>
      </trkpt>
      <trkpt lat="47.82399" lon="6.94952">
        <ele>559</ele>
        <time>2014-07-15T16:40:48Z</time>
      </trkpt>
      <trkpt lat="47.82401" lon="6.9496">
        <ele>559</ele>
        <time>2014-07-15T16:40:59Z</time>
      </trkpt>
      <trkpt lat="47.82407" lon="6.9497">
        <ele>559</ele>
        <time>2014-07-15T16:41:07Z</time>
      </trkpt>
      <trkpt lat="47.82412" lon="6.94982">
        <ele>558</ele>
        <time>2014-07-15T16:41:20Z</time>
      </trkpt>
      <trkpt lat="47.82415" lon="6.94985">
        <ele>558</ele>
        <time>2014-07-15T16:41:44Z</time>
      </trkpt>
      <trkpt lat="47.82417" lon="6.94986">
        <ele>562</ele>
        <time>2014-07-15T16:41:59Z</time>
      </trkpt>
      <trkpt lat="47.8242" lon="6.94988">
        <ele>562</ele>
        <time>2014-07-15T16:42:01Z</time>
      </trkpt>
      <trkpt lat="47.82431" lon="6.94996">
        <ele>562</ele>
        <time>2014-07-15T16:42:10Z</time>
      </trkpt>
      <trkpt lat="47.82443" lon="6.95002">
        <ele>561</ele>
        <time>2014-07-15T16:42:20Z</time>
      </trkpt>
    </trkseg>
  </trk>
</gpx>